﻿<?xml version="1.0" encoding="utf-8"?><gpx creator="Garmin Desktop App" version="1.1" xsi:schemaLocation="http://www.topografix.com/GPX/1/1 http://www.topografix.com/GPX/1/1/gpx.xsd http://www.garmin.com/xmlschemas/WaypointExtension/v1 http://www8.garmin.com/xmlschemas/WaypointExtensionv1.xsd http://www.garmin.com/xmlschemas/TrackPointExtension/v1 http://www.garmin.com/xmlschemas/TrackPointExtensionv1.xsd http://www.garmin.com/xmlschemas/GpxExtensions/v3 http://www8.garmin.com/xmlschemas/GpxExtensionsv3.xsd http://www.garmin.com/xmlschemas/ActivityExtension/v1 http://www8.garmin.com/xmlschemas/ActivityExtensionv1.xsd http://www.garmin.com/xmlschemas/AdventuresExtensions/v1 http://www8.garmin.com/xmlschemas/AdventuresExtensionv1.xsd http://www.garmin.com/xmlschemas/PressureExtension/v1 http://www.garmin.com/xmlschemas/PressureExtensionv1.xsd http://www.garmin.com/xmlschemas/TripExtensions/v1 http://www.garmin.com/xmlschemas/TripExtensionsv1.xsd http://www.garmin.com/xmlschemas/TripMetaDataExtensions/v1 http://www.garmin.com/xmlschemas/TripMetaDataExtensionsv1.xsd http://www.garmin.com/xmlschemas/ViaPointTransportationModeExtensions/v1 http://www.garmin.com/xmlschemas/ViaPointTransportationModeExtensionsv1.xsd http://www.garmin.com/xmlschemas/CreationTimeExtension/v1 http://www.garmin.com/xmlschemas/CreationTimeExtensionsv1.xsd http://www.garmin.com/xmlschemas/AccelerationExtension/v1 http://www.garmin.com/xmlschemas/AccelerationExtensionv1.xsd http://www.garmin.com/xmlschemas/PowerExtension/v1 http://www.garmin.com/xmlschemas/PowerExtensionv1.xsd http://www.garmin.com/xmlschemas/VideoExtension/v1 http://www.garmin.com/xmlschemas/VideoExtensionv1.xsd" xmlns="http://www.topografix.com/GPX/1/1" xmlns:xsi="http://www.w3.org/2001/XMLSchema-instance" xmlns:wptx1="http://www.garmin.com/xmlschemas/WaypointExtension/v1" xmlns:gpxtrx="http://www.garmin.com/xmlschemas/GpxExtensions/v3" xmlns:gpxtpx="http://www.garmin.com/xmlschemas/TrackPointExtension/v1" xmlns:gpxx="http://www.garmin.com/xmlschemas/GpxExtensions/v3" xmlns:trp="http://www.garmin.com/xmlschemas/TripExtensions/v1" xmlns:adv="http://www.garmin.com/xmlschemas/AdventuresExtensions/v1" xmlns:prs="http://www.garmin.com/xmlschemas/PressureExtension/v1" xmlns:tmd="http://www.garmin.com/xmlschemas/TripMetaDataExtensions/v1" xmlns:vptm="http://www.garmin.com/xmlschemas/ViaPointTransportationModeExtensions/v1" xmlns:ctx="http://www.garmin.com/xmlschemas/CreationTimeExtension/v1" xmlns:gpxacc="http://www.garmin.com/xmlschemas/AccelerationExtension/v1" xmlns:gpxpx="http://www.garmin.com/xmlschemas/PowerExtension/v1" xmlns:vidx1="http://www.garmin.com/xmlschemas/VideoExtension/v1">

  <metadata>
    <link href="http://www.garmin.com">
      <text>Garmin International</text>
    </link>
    <time>2023-09-01T19:26:27Z</time>
    <bounds maxlat="56.771357981488109" maxlon="-3.769853990525007" minlat="55.987254995852709" minlon="-5.480407979339361" />
  </metadata>

  <trk>
    <name>Track 230901</name>
    <extensions>
      <gpxx:TrackExtension>
        <gpxx:DisplayColor>DarkGray</gpxx:DisplayColor>
      </gpxx:TrackExtension>
    </extensions>
    <trkseg>
      <trkpt lat="56.408272963017225" lon="-5.479817977175117">
        <ele>45.799999999999997</ele>
        <time>2023-09-01T07:29:57Z</time>
      </trkpt>
      <trkpt lat="56.408329959958792" lon="-5.479530980810523">
        <ele>53.490000000000002</ele>
        <time>2023-09-01T07:30:42Z</time>
      </trkpt>
      <trkpt lat="56.408355021849275" lon="-5.479498961940408">
        <ele>55.890000000000001</ele>
        <time>2023-09-01T07:31:11Z</time>
      </trkpt>
      <trkpt lat="56.408357033506036" lon="-5.479526035487652">
        <ele>53.009999999999998</ele>
        <time>2023-09-01T07:31:32Z</time>
      </trkpt>
      <trkpt lat="56.408353010192513" lon="-5.479516983032227">
        <ele>51.57</ele>
        <time>2023-09-01T07:31:48Z</time>
      </trkpt>
      <trkpt lat="56.408355021849275" lon="-5.479503991082311">
        <ele>51.57</ele>
        <time>2023-09-01T07:31:49Z</time>
      </trkpt>
      <trkpt lat="56.408353010192513" lon="-5.47945898026228">
        <ele>52.530000000000001</ele>
        <time>2023-09-01T07:31:51Z</time>
      </trkpt>
      <trkpt lat="56.408340018242598" lon="-5.479428973048925">
        <ele>52.530000000000001</ele>
        <time>2023-09-01T07:31:52Z</time>
      </trkpt>
      <trkpt lat="56.408328032121062" lon="-5.479399971663952">
        <ele>52.530000000000001</ele>
        <time>2023-09-01T07:31:53Z</time>
      </trkpt>
      <trkpt lat="56.408317973837256" lon="-5.47937398776412">
        <ele>52.049999999999997</ele>
        <time>2023-09-01T07:31:54Z</time>
      </trkpt>
      <trkpt lat="56.408307999372482" lon="-5.47935001552105">
        <ele>52.049999999999997</ele>
        <time>2023-09-01T07:31:55Z</time>
      </trkpt>
      <trkpt lat="56.408272963017225" lon="-5.47926502302289">
        <ele>51.57</ele>
        <time>2023-09-01T07:31:58Z</time>
      </trkpt>
      <trkpt lat="56.408246979117393" lon="-5.479204002767801">
        <ele>52.049999999999997</ele>
        <time>2023-09-01T07:31:59Z</time>
      </trkpt>
      <trkpt lat="56.408224012702703" lon="-5.479147005826235">
        <ele>52.049999999999997</ele>
        <time>2023-09-01T07:32:00Z</time>
      </trkpt>
      <trkpt lat="56.408208003267646" lon="-5.479109035804868">
        <ele>52.049999999999997</ele>
        <time>2023-09-01T07:32:09Z</time>
      </trkpt>
      <trkpt lat="56.408208003267646" lon="-5.479109035804868">
        <ele>51.57</ele>
        <time>2023-09-01T07:32:29Z</time>
      </trkpt>
      <trkpt lat="56.408208003267646" lon="-5.479109035804868">
        <ele>52.049999999999997</ele>
        <time>2023-09-01T07:32:51Z</time>
      </trkpt>
      <trkpt lat="56.408208003267646" lon="-5.479109035804868">
        <ele>51.57</ele>
        <time>2023-09-01T07:33:13Z</time>
      </trkpt>
      <trkpt lat="56.408208003267646" lon="-5.479110041633248">
        <ele>50.130000000000003</ele>
        <time>2023-09-01T07:33:15Z</time>
      </trkpt>
      <trkpt lat="56.408219989389181" lon="-5.479283966124058">
        <ele>48.200000000000003</ele>
        <time>2023-09-01T07:33:19Z</time>
      </trkpt>
      <trkpt lat="56.408419981598854" lon="-5.479621002450585">
        <ele>44.840000000000003</ele>
        <time>2023-09-01T07:33:30Z</time>
      </trkpt>
      <trkpt lat="56.408505979925394" lon="-5.480068009346724">
        <ele>41.950000000000003</ele>
        <time>2023-09-01T07:33:40Z</time>
      </trkpt>
      <trkpt lat="56.408531041815877" lon="-5.480131041258574">
        <ele>41.469999999999999</ele>
        <time>2023-09-01T07:33:41Z</time>
      </trkpt>
      <trkpt lat="56.408550990745425" lon="-5.480182003229857">
        <ele>41.469999999999999</ele>
        <time>2023-09-01T07:33:42Z</time>
      </trkpt>
      <trkpt lat="56.408564988523722" lon="-5.480216033756733">
        <ele>40.990000000000002</ele>
        <time>2023-09-01T07:33:43Z</time>
      </trkpt>
      <trkpt lat="56.408549984917045" lon="-5.480380989611149">
        <ele>40.990000000000002</ele>
        <time>2023-09-01T07:33:44Z</time>
      </trkpt>
      <trkpt lat="56.408537998795509" lon="-5.4804059676826">
        <ele>40.509999999999998</ele>
        <time>2023-09-01T07:33:47Z</time>
      </trkpt>
      <trkpt lat="56.408536992967129" lon="-5.480407979339361">
        <ele>40.990000000000002</ele>
        <time>2023-09-01T07:33:48Z</time>
      </trkpt>
      <trkpt lat="56.408572029322386" lon="-5.48023296520114">
        <ele>40.509999999999998</ele>
        <time>2023-09-01T07:33:49Z</time>
      </trkpt>
      <trkpt lat="56.408551996573806" lon="-5.480183009058237">
        <ele>40.509999999999998</ele>
        <time>2023-09-01T07:33:50Z</time>
      </trkpt>
      <trkpt lat="56.408528024330735" lon="-5.480122994631529">
        <ele>40.509999999999998</ele>
        <time>2023-09-01T07:33:51Z</time>
      </trkpt>
      <trkpt lat="56.408465998247266" lon="-5.479968013241887">
        <ele>40.030000000000001</ele>
        <time>2023-09-01T07:33:52Z</time>
      </trkpt>
      <trkpt lat="56.408465998247266" lon="-5.479864999651909">
        <ele>39.549999999999997</ele>
        <time>2023-09-01T07:33:54Z</time>
      </trkpt>
      <trkpt lat="56.408465998247266" lon="-5.479770032688975">
        <ele>39.07</ele>
        <time>2023-09-01T07:33:55Z</time>
      </trkpt>
      <trkpt lat="56.408499022945762" lon="-5.479564005509019">
        <ele>38.590000000000003</ele>
        <time>2023-09-01T07:33:57Z</time>
      </trkpt>
      <trkpt lat="56.408531041815877" lon="-5.479468032717705">
        <ele>38.109999999999999</ele>
        <time>2023-09-01T07:33:58Z</time>
      </trkpt>
      <trkpt lat="56.408565994352102" lon="-5.479388991370797">
        <ele>37.630000000000003</ele>
        <time>2023-09-01T07:33:59Z</time>
      </trkpt>
      <trkpt lat="56.408591978251934" lon="-5.47932998277247">
        <ele>37.149999999999999</ele>
        <time>2023-09-01T07:34:00Z</time>
      </trkpt>
      <trkpt lat="56.408633971586823" lon="-5.479300981387496">
        <ele>36.670000000000002</ele>
        <time>2023-09-01T07:34:01Z</time>
      </trkpt>
      <trkpt lat="56.408681999891996" lon="-5.479273991659284">
        <ele>36.189999999999998</ele>
        <time>2023-09-01T07:34:02Z</time>
      </trkpt>
      <trkpt lat="56.408752994611859" lon="-5.479240966960788">
        <ele>35.710000000000001</ele>
        <time>2023-09-01T07:34:03Z</time>
      </trkpt>
      <trkpt lat="56.408804040402174" lon="-5.479257982224226">
        <ele>35.229999999999997</ele>
        <time>2023-09-01T07:34:04Z</time>
      </trkpt>
      <trkpt lat="56.408852990716696" lon="-5.479273991659284">
        <ele>34.740000000000002</ele>
        <time>2023-09-01T07:34:05Z</time>
      </trkpt>
      <trkpt lat="56.409005960449576" lon="-5.479325037449598">
        <ele>33.299999999999997</ele>
        <time>2023-09-01T07:34:08Z</time>
      </trkpt>
      <trkpt lat="56.409051977097988" lon="-5.479340041056275">
        <ele>32.82</ele>
        <time>2023-09-01T07:34:09Z</time>
      </trkpt>
      <trkpt lat="56.409131018444896" lon="-5.479367030784488">
        <ele>32.340000000000003</ele>
        <time>2023-09-01T07:34:10Z</time>
      </trkpt>
      <trkpt lat="56.409143004566431" lon="-5.479354960843921">
        <ele>31.859999999999999</ele>
        <time>2023-09-01T07:34:11Z</time>
      </trkpt>
      <trkpt lat="56.409198995679617" lon="-5.479282960295677">
        <ele>31.379999999999999</ele>
        <time>2023-09-01T07:34:12Z</time>
      </trkpt>
      <trkpt lat="56.409213999286294" lon="-5.479207020252943">
        <ele>30.899999999999999</ele>
        <time>2023-09-01T07:34:13Z</time>
      </trkpt>
      <trkpt lat="56.409229002892971" lon="-5.479133008047938">
        <ele>29.940000000000001</ele>
        <time>2023-09-01T07:34:14Z</time>
      </trkpt>
      <trkpt lat="56.40920796431601" lon="-5.478996969759464">
        <ele>28.98</ele>
        <time>2023-09-01T07:34:15Z</time>
      </trkpt>
      <trkpt lat="56.40918399207294" lon="-5.478924969211221">
        <ele>28.5</ele>
        <time>2023-09-01T07:34:16Z</time>
      </trkpt>
      <trkpt lat="56.409157002344728" lon="-5.478839976713061">
        <ele>27.530000000000001</ele>
        <time>2023-09-01T07:34:17Z</time>
      </trkpt>
      <trkpt lat="56.409105034545064" lon="-5.478682983666658">
        <ele>26.57</ele>
        <time>2023-09-01T07:34:19Z</time>
      </trkpt>
      <trkpt lat="56.409050971269608" lon="-5.478517021983862">
        <ele>25.609999999999999</ele>
        <time>2023-09-01T07:34:21Z</time>
      </trkpt>
      <trkpt lat="56.409017024561763" lon="-5.478413002565503">
        <ele>24.649999999999999</ele>
        <time>2023-09-01T07:34:22Z</time>
      </trkpt>
      <trkpt lat="56.408978970721364" lon="-5.47829800285399">
        <ele>24.170000000000002</ele>
        <time>2023-09-01T07:34:23Z</time>
      </trkpt>
      <trkpt lat="56.408942006528378" lon="-5.478186020627618">
        <ele>24.170000000000002</ele>
        <time>2023-09-01T07:34:24Z</time>
      </trkpt>
      <trkpt lat="56.40890697017312" lon="-5.478078983724117">
        <ele>23.690000000000001</ele>
        <time>2023-09-01T07:34:25Z</time>
      </trkpt>
      <trkpt lat="56.408872017636895" lon="-5.477972030639648">
        <ele>23.690000000000001</ele>
        <time>2023-09-01T07:34:26Z</time>
      </trkpt>
      <trkpt lat="56.408838992938399" lon="-5.477873040363193">
        <ele>23.690000000000001</ele>
        <time>2023-09-01T07:34:27Z</time>
      </trkpt>
      <trkpt lat="56.408807979896665" lon="-5.477775977924466">
        <ele>23.210000000000001</ele>
        <time>2023-09-01T07:34:28Z</time>
      </trkpt>
      <trkpt lat="56.408787025138736" lon="-5.47769702039659">
        <ele>22.73</ele>
        <time>2023-09-01T07:34:29Z</time>
      </trkpt>
      <trkpt lat="56.408787025138736" lon="-5.47758998349309">
        <ele>22.73</ele>
        <time>2023-09-01T07:34:30Z</time>
      </trkpt>
      <trkpt lat="56.408787025138736" lon="-5.477436007931829">
        <ele>22.25</ele>
        <time>2023-09-01T07:34:31Z</time>
      </trkpt>
      <trkpt lat="56.408804040402174" lon="-5.477381022647023">
        <ele>22.25</ele>
        <time>2023-09-01T07:34:32Z</time>
      </trkpt>
      <trkpt lat="56.408836981281638" lon="-5.477269040420651">
        <ele>21.289999999999999</ele>
        <time>2023-09-01T07:34:33Z</time>
      </trkpt>
      <trkpt lat="56.40888299793005" lon="-5.477157980203629">
        <ele>20.809999999999999</ele>
        <time>2023-09-01T07:34:34Z</time>
      </trkpt>
      <trkpt lat="56.408937983214855" lon="-5.477049015462399">
        <ele>20.32</ele>
        <time>2023-09-01T07:34:35Z</time>
      </trkpt>
      <trkpt lat="56.409426983445883" lon="-5.476070009171963">
        <ele>14.56</ele>
        <time>2023-09-01T07:34:43Z</time>
      </trkpt>
      <trkpt lat="56.409480040892959" lon="-5.475931037217379">
        <ele>14.08</ele>
        <time>2023-09-01T07:34:44Z</time>
      </trkpt>
      <trkpt lat="56.409646002575755" lon="-5.475492998957634">
        <ele>11.19</ele>
        <time>2023-09-01T07:34:48Z</time>
      </trkpt>
      <trkpt lat="56.409684978425503" lon="-5.475384034216404">
        <ele>10.23</ele>
        <time>2023-09-01T07:34:49Z</time>
      </trkpt>
      <trkpt lat="56.410026038065553" lon="-5.474502006545663">
        <ele>3.98</ele>
        <time>2023-09-01T07:34:57Z</time>
      </trkpt>
      <trkpt lat="56.410706983879209" lon="-5.4731859639287">
        <ele>3.5</ele>
        <time>2023-09-01T07:35:10Z</time>
      </trkpt>
      <trkpt lat="56.410835981369019" lon="-5.472982032224536">
        <ele>3.98</ele>
        <time>2023-09-01T07:35:12Z</time>
      </trkpt>
      <trkpt lat="56.410907981917262" lon="-5.472869966179133">
        <ele>6.39</ele>
        <time>2023-09-01T07:35:13Z</time>
      </trkpt>
      <trkpt lat="56.411640979349613" lon="-5.471841003745794">
        <ele>16</ele>
        <time>2023-09-01T07:35:24Z</time>
      </trkpt>
      <trkpt lat="56.411777017638087" lon="-5.471656015142798">
        <ele>18.399999999999999</ele>
        <time>2023-09-01T07:35:31Z</time>
      </trkpt>
      <trkpt lat="56.411855975165963" lon="-5.471718963235617">
        <ele>20.32</ele>
        <time>2023-09-01T07:35:51Z</time>
      </trkpt>
      <trkpt lat="56.411871984601021" lon="-5.471818959340453">
        <ele>20.32</ele>
        <time>2023-09-01T07:35:52Z</time>
      </trkpt>
      <trkpt lat="56.41189101152122" lon="-5.471945023164153">
        <ele>20.32</ele>
        <time>2023-09-01T07:35:53Z</time>
      </trkpt>
      <trkpt lat="56.411953959614038" lon="-5.472371997311711">
        <ele>20.809999999999999</ele>
        <time>2023-09-01T07:35:57Z</time>
      </trkpt>
      <trkpt lat="56.41199997626245" lon="-5.472481967881322">
        <ele>20.809999999999999</ele>
        <time>2023-09-01T07:35:58Z</time>
      </trkpt>
      <trkpt lat="56.41204004175961" lon="-5.472531002014875">
        <ele>20.809999999999999</ele>
        <time>2023-09-01T07:35:59Z</time>
      </trkpt>
      <trkpt lat="56.412049010396004" lon="-5.472542988136411">
        <ele>20.809999999999999</ele>
        <time>2023-09-01T07:36:00Z</time>
      </trkpt>
      <trkpt lat="56.412135008722544" lon="-5.472499988973141">
        <ele>20.809999999999999</ele>
        <time>2023-09-01T07:36:01Z</time>
      </trkpt>
      <trkpt lat="56.412135008722544" lon="-5.472499988973141">
        <ele>20.32</ele>
        <time>2023-09-01T07:36:02Z</time>
      </trkpt>
      <trkpt lat="56.4122149720788" lon="-5.472312988713384">
        <ele>19.84</ele>
        <time>2023-09-01T07:36:03Z</time>
      </trkpt>
      <trkpt lat="56.412271969020367" lon="-5.472255991771817">
        <ele>19.359999999999999</ele>
        <time>2023-09-01T07:36:04Z</time>
      </trkpt>
      <trkpt lat="56.412328965961933" lon="-5.472198994830251">
        <ele>19.359999999999999</ele>
        <time>2023-09-01T07:36:05Z</time>
      </trkpt>
      <trkpt lat="56.41238696873188" lon="-5.472140992060304">
        <ele>18.879999999999999</ele>
        <time>2023-09-01T07:36:06Z</time>
      </trkpt>
      <trkpt lat="56.412440026178956" lon="-5.47208801843226">
        <ele>18.399999999999999</ele>
        <time>2023-09-01T07:36:07Z</time>
      </trkpt>
      <trkpt lat="56.412495011463761" lon="-5.472033033147454">
        <ele>18.399999999999999</ele>
        <time>2023-09-01T07:36:08Z</time>
      </trkpt>
      <trkpt lat="56.412548990920186" lon="-5.471978969871998">
        <ele>17.920000000000002</ele>
        <time>2023-09-01T07:36:09Z</time>
      </trkpt>
      <trkpt lat="56.412616968154907" lon="-5.471947034820914">
        <ele>17.440000000000001</ele>
        <time>2023-09-01T07:36:10Z</time>
      </trkpt>
      <trkpt lat="56.412674970924854" lon="-5.471927002072334">
        <ele>16.960000000000001</ele>
        <time>2023-09-01T07:36:11Z</time>
      </trkpt>
      <trkpt lat="56.412736997008324" lon="-5.471935970708728">
        <ele>16.48</ele>
        <time>2023-09-01T07:36:12Z</time>
      </trkpt>
      <trkpt lat="56.412797011435032" lon="-5.471958015114069">
        <ele>16</ele>
        <time>2023-09-01T07:36:13Z</time>
      </trkpt>
      <trkpt lat="56.412858031690121" lon="-5.471978969871998">
        <ele>15.52</ele>
        <time>2023-09-01T07:36:14Z</time>
      </trkpt>
      <trkpt lat="56.412912011146545" lon="-5.471997996792197">
        <ele>15.52</ele>
        <time>2023-09-01T07:36:15Z</time>
      </trkpt>
      <trkpt lat="56.412962973117828" lon="-5.472016017884016">
        <ele>15.039999999999999</ele>
        <time>2023-09-01T07:36:16Z</time>
      </trkpt>
      <trkpt lat="56.413017036393285" lon="-5.472034960985184">
        <ele>14.56</ele>
        <time>2023-09-01T07:36:17Z</time>
      </trkpt>
      <trkpt lat="56.413067998364568" lon="-5.472053987905383">
        <ele>14.56</ele>
        <time>2023-09-01T07:36:18Z</time>
      </trkpt>
      <trkpt lat="56.413813987746835" lon="-5.47232698649168">
        <ele>11.19</ele>
        <time>2023-09-01T07:36:29Z</time>
      </trkpt>
      <trkpt lat="56.414655027911067" lon="-5.472659999504685">
        <ele>9.75</ele>
        <time>2023-09-01T07:36:41Z</time>
      </trkpt>
      <trkpt lat="56.414703978225589" lon="-5.472740968689323">
        <ele>9.75</ele>
        <time>2023-09-01T07:36:42Z</time>
      </trkpt>
      <trkpt lat="56.414753012359142" lon="-5.472822021692991">
        <ele>9.75</ele>
        <time>2023-09-01T07:36:43Z</time>
      </trkpt>
      <trkpt lat="56.414768015965819" lon="-5.472926963120699">
        <ele>9.75</ele>
        <time>2023-09-01T07:36:44Z</time>
      </trkpt>
      <trkpt lat="56.414784025400877" lon="-5.473025031387806">
        <ele>9.75</ele>
        <time>2023-09-01T07:36:45Z</time>
      </trkpt>
      <trkpt lat="56.414801040664315" lon="-5.473117986693978">
        <ele>9.27</ele>
        <time>2023-09-01T07:36:46Z</time>
      </trkpt>
      <trkpt lat="56.414818977937102" lon="-5.473215971142054">
        <ele>9.27</ele>
        <time>2023-09-01T07:36:47Z</time>
      </trkpt>
      <trkpt lat="56.414840016514063" lon="-5.473314039409161">
        <ele>8.789999999999999</ele>
        <time>2023-09-01T07:36:48Z</time>
      </trkpt>
      <trkpt lat="56.414858959615231" lon="-5.473405988886952">
        <ele>8.789999999999999</ele>
        <time>2023-09-01T07:36:49Z</time>
      </trkpt>
      <trkpt lat="56.414878992363811" lon="-5.473496010527015">
        <ele>8.310000000000001</ele>
        <time>2023-09-01T07:36:50Z</time>
      </trkpt>
      <trkpt lat="56.414918974041939" lon="-5.473555019125342">
        <ele>8.310000000000001</ele>
        <time>2023-09-01T07:36:51Z</time>
      </trkpt>
      <trkpt lat="56.414967002347112" lon="-5.473616039380431">
        <ele>7.83</ele>
        <time>2023-09-01T07:36:52Z</time>
      </trkpt>
      <trkpt lat="56.415022993460298" lon="-5.473632970824838">
        <ele>7.83</ele>
        <time>2023-09-01T07:36:53Z</time>
      </trkpt>
      <trkpt lat="56.415322981774807" lon="-5.473721986636519">
        <ele>7.35</ele>
        <time>2023-09-01T07:36:57Z</time>
      </trkpt>
      <trkpt lat="56.415410991758108" lon="-5.473747970536351">
        <ele>7.35</ele>
        <time>2023-09-01T07:36:58Z</time>
      </trkpt>
      <trkpt lat="56.415491960942745" lon="-5.473772026598454">
        <ele>7.35</ele>
        <time>2023-09-01T07:36:59Z</time>
      </trkpt>
      <trkpt lat="56.415868978947401" lon="-5.473893983289599">
        <ele>8.789999999999999</ele>
        <time>2023-09-01T07:37:04Z</time>
      </trkpt>
      <trkpt lat="56.415938967838883" lon="-5.473920973017812">
        <ele>8.789999999999999</ele>
        <time>2023-09-01T07:37:05Z</time>
      </trkpt>
      <trkpt lat="56.416009040549397" lon="-5.473947962746024">
        <ele>8.789999999999999</ele>
        <time>2023-09-01T07:37:06Z</time>
      </trkpt>
      <trkpt lat="56.41608296893537" lon="-5.473976964130998">
        <ele>9.27</ele>
        <time>2023-09-01T07:37:07Z</time>
      </trkpt>
      <trkpt lat="56.416158992797136" lon="-5.474005965515971">
        <ele>9.27</ele>
        <time>2023-09-01T07:37:08Z</time>
      </trkpt>
      <trkpt lat="56.416766010224819" lon="-5.474251974374056">
        <ele>12.15</ele>
        <time>2023-09-01T07:37:16Z</time>
      </trkpt>
      <trkpt lat="56.416842034086585" lon="-5.474307965487242">
        <ele>13.119999999999999</ele>
        <time>2023-09-01T07:37:17Z</time>
      </trkpt>
      <trkpt lat="56.417376967146993" lon="-5.474706022068858">
        <ele>14.56</ele>
        <time>2023-09-01T07:37:24Z</time>
      </trkpt>
      <trkpt lat="56.417457014322281" lon="-5.474765030667186">
        <ele>15.039999999999999</ele>
        <time>2023-09-01T07:37:25Z</time>
      </trkpt>
      <trkpt lat="56.417529014870524" lon="-5.47483803704381">
        <ele>15.039999999999999</ele>
        <time>2023-09-01T07:37:26Z</time>
      </trkpt>
      <trkpt lat="56.418254971504211" lon="-5.475709000602365">
        <ele>16.48</ele>
        <time>2023-09-01T07:37:38Z</time>
      </trkpt>
      <trkpt lat="56.418353961780667" lon="-5.475815031677485">
        <ele>16.48</ele>
        <time>2023-09-01T07:37:40Z</time>
      </trkpt>
      <trkpt lat="56.418399978429079" lon="-5.475826011970639">
        <ele>16.48</ele>
        <time>2023-09-01T07:37:41Z</time>
      </trkpt>
      <trkpt lat="56.418399978429079" lon="-5.475826011970639">
        <ele>16</ele>
        <time>2023-09-01T07:37:42Z</time>
      </trkpt>
      <trkpt lat="56.418453035876155" lon="-5.475728027522564">
        <ele>15.52</ele>
        <time>2023-09-01T07:37:43Z</time>
      </trkpt>
      <trkpt lat="56.418491005897522" lon="-5.475659966468811">
        <ele>15.52</ele>
        <time>2023-09-01T07:37:44Z</time>
      </trkpt>
      <trkpt lat="56.41853098757565" lon="-5.475589977577329">
        <ele>14.56</ele>
        <time>2023-09-01T07:37:45Z</time>
      </trkpt>
      <trkpt lat="56.418626038357615" lon="-5.475423010066152">
        <ele>15.039999999999999</ele>
        <time>2023-09-01T07:37:47Z</time>
      </trkpt>
      <trkpt lat="56.41872301697731" lon="-5.475246990099549">
        <ele>15.039999999999999</ele>
        <time>2023-09-01T07:37:49Z</time>
      </trkpt>
      <trkpt lat="56.418770039454103" lon="-5.475155962631106">
        <ele>14.56</ele>
        <time>2023-09-01T07:37:50Z</time>
      </trkpt>
      <trkpt lat="56.418815972283483" lon="-5.475067030638456">
        <ele>14.56</ele>
        <time>2023-09-01T07:37:51Z</time>
      </trkpt>
      <trkpt lat="56.418860983103514" lon="-5.474980026483536">
        <ele>14.56</ele>
        <time>2023-09-01T07:37:52Z</time>
      </trkpt>
      <trkpt lat="56.418904988095164" lon="-5.474896039813757">
        <ele>14.56</ele>
        <time>2023-09-01T07:37:53Z</time>
      </trkpt>
      <trkpt lat="56.418945975601673" lon="-5.474816998466849">
        <ele>15.039999999999999</ele>
        <time>2023-09-01T07:37:54Z</time>
      </trkpt>
      <trkpt lat="56.41902300529182" lon="-5.474667968228459">
        <ele>14.56</ele>
        <time>2023-09-01T07:37:56Z</time>
      </trkpt>
      <trkpt lat="56.419043960049748" lon="-5.474624969065189">
        <ele>14.56</ele>
        <time>2023-09-01T07:37:57Z</time>
      </trkpt>
      <trkpt lat="56.419043960049748" lon="-5.474525978788734">
        <ele>15.039999999999999</ele>
        <time>2023-09-01T07:37:58Z</time>
      </trkpt>
      <trkpt lat="56.419043960049748" lon="-5.474495971575379">
        <ele>15.039999999999999</ele>
        <time>2023-09-01T07:37:59Z</time>
      </trkpt>
      <trkpt lat="56.418961985036731" lon="-5.474450038745999">
        <ele>15.039999999999999</ele>
        <time>2023-09-01T07:38:00Z</time>
      </trkpt>
      <trkpt lat="56.41893700696528" lon="-5.474389018490911">
        <ele>15.52</ele>
        <time>2023-09-01T07:38:01Z</time>
      </trkpt>
      <trkpt lat="56.418884033337235" lon="-5.474347025156021">
        <ele>15.52</ele>
        <time>2023-09-01T07:38:02Z</time>
      </trkpt>
      <trkpt lat="56.417921036481857" lon="-5.473598018288612">
        <ele>14.56</ele>
        <time>2023-09-01T07:38:15Z</time>
      </trkpt>
      <trkpt lat="56.417309995740652" lon="-5.473191998898983">
        <ele>12.15</ele>
        <time>2023-09-01T07:38:23Z</time>
      </trkpt>
      <trkpt lat="56.41722097992897" lon="-5.473200967535377">
        <ele>12.15</ele>
        <time>2023-09-01T07:38:24Z</time>
      </trkpt>
      <trkpt lat="56.41681001521647" lon="-5.473213037475944">
        <ele>13.119999999999999</ele>
        <time>2023-09-01T07:38:30Z</time>
      </trkpt>
      <trkpt lat="56.416750000789762" lon="-5.473201973363757">
        <ele>13.6</ele>
        <time>2023-09-01T07:38:31Z</time>
      </trkpt>
      <trkpt lat="56.416690992191434" lon="-5.473190993070602">
        <ele>13.6</ele>
        <time>2023-09-01T07:38:32Z</time>
      </trkpt>
      <trkpt lat="56.41651296056807" lon="-5.473152017220855">
        <ele>14.08</ele>
        <time>2023-09-01T07:38:35Z</time>
      </trkpt>
      <trkpt lat="56.416457975283265" lon="-5.473133996129036">
        <ele>14.56</ele>
        <time>2023-09-01T07:38:36Z</time>
      </trkpt>
      <trkpt lat="56.416399972513318" lon="-5.473115975037217">
        <ele>14.56</ele>
        <time>2023-09-01T07:38:37Z</time>
      </trkpt>
      <trkpt lat="56.416339036077261" lon="-5.473096026107669">
        <ele>14.56</ele>
        <time>2023-09-01T07:38:38Z</time>
      </trkpt>
      <trkpt lat="56.41627399250865" lon="-5.473074987530708">
        <ele>15.039999999999999</ele>
        <time>2023-09-01T07:38:39Z</time>
      </trkpt>
      <trkpt lat="56.4162109605968" lon="-5.47305403277278">
        <ele>15.039999999999999</ele>
        <time>2023-09-01T07:38:40Z</time>
      </trkpt>
      <trkpt lat="56.416149018332362" lon="-5.4730340000242">
        <ele>15.039999999999999</ele>
        <time>2023-09-01T07:38:41Z</time>
      </trkpt>
      <trkpt lat="56.415935028344393" lon="-5.472965016961098">
        <ele>15.52</ele>
        <time>2023-09-01T07:38:45Z</time>
      </trkpt>
      <trkpt lat="56.415885994210839" lon="-5.47294900752604">
        <ele>15.52</ele>
        <time>2023-09-01T07:38:46Z</time>
      </trkpt>
      <trkpt lat="56.415832014754415" lon="-5.472931992262602">
        <ele>15.52</ele>
        <time>2023-09-01T07:38:47Z</time>
      </trkpt>
      <trkpt lat="56.415773006156087" lon="-5.472913971170783">
        <ele>15.52</ele>
        <time>2023-09-01T07:38:48Z</time>
      </trkpt>
      <trkpt lat="56.415713997557759" lon="-5.472895028069615">
        <ele>15.52</ele>
        <time>2023-09-01T07:38:49Z</time>
      </trkpt>
      <trkpt lat="56.415654988959432" lon="-5.472877006977797">
        <ele>15.52</ele>
        <time>2023-09-01T07:38:50Z</time>
      </trkpt>
      <trkpt lat="56.415594974532723" lon="-5.472858985885978">
        <ele>16</ele>
        <time>2023-09-01T07:38:51Z</time>
      </trkpt>
      <trkpt lat="56.415547030046582" lon="-5.472843982279301">
        <ele>16</ele>
        <time>2023-09-01T07:38:52Z</time>
      </trkpt>
      <trkpt lat="56.415470000356436" lon="-5.472824033349752">
        <ele>16</ele>
        <time>2023-09-01T07:38:53Z</time>
      </trkpt>
      <trkpt lat="56.415408980101347" lon="-5.472808023914695">
        <ele>16</ele>
        <time>2023-09-01T07:38:54Z</time>
      </trkpt>
      <trkpt lat="56.415347037836909" lon="-5.472791008651257">
        <ele>16</ele>
        <time>2023-09-01T07:38:55Z</time>
      </trkpt>
      <trkpt lat="56.415281994268298" lon="-5.472773993387818">
        <ele>16</ele>
        <time>2023-09-01T07:38:56Z</time>
      </trkpt>
      <trkpt lat="56.415218962356448" lon="-5.472757983952761">
        <ele>16</ele>
        <time>2023-09-01T07:38:57Z</time>
      </trkpt>
      <trkpt lat="56.415160037577152" lon="-5.472741974517703">
        <ele>16</ele>
        <time>2023-09-01T07:38:58Z</time>
      </trkpt>
      <trkpt lat="56.415138999000192" lon="-5.472736023366451">
        <ele>15.52</ele>
        <time>2023-09-01T07:38:59Z</time>
      </trkpt>
      <trkpt lat="56.414355039596558" lon="-5.472505018115044">
        <ele>13.119999999999999</ele>
        <time>2023-09-01T07:39:10Z</time>
      </trkpt>
      <trkpt lat="56.414024038240314" lon="-5.472391024231911">
        <ele>11.67</ele>
        <time>2023-09-01T07:39:16Z</time>
      </trkpt>
      <trkpt lat="56.413698988035321" lon="-5.472293039783835">
        <ele>9.75</ele>
        <time>2023-09-01T07:39:25Z</time>
      </trkpt>
      <trkpt lat="56.413454990833998" lon="-5.47221701592207">
        <ele>9.27</ele>
        <time>2023-09-01T07:39:35Z</time>
      </trkpt>
      <trkpt lat="56.413130024448037" lon="-5.472078965976834">
        <ele>8.789999999999999</ele>
        <time>2023-09-01T07:39:41Z</time>
      </trkpt>
      <trkpt lat="56.413061041384935" lon="-5.472050970420241">
        <ele>8.310000000000001</ele>
        <time>2023-09-01T07:39:42Z</time>
      </trkpt>
      <trkpt lat="56.412993986159563" lon="-5.472028004005551">
        <ele>8.310000000000001</ele>
        <time>2023-09-01T07:39:43Z</time>
      </trkpt>
      <trkpt lat="56.412927014753222" lon="-5.472004031762481">
        <ele>7.83</ele>
        <time>2023-09-01T07:39:44Z</time>
      </trkpt>
      <trkpt lat="56.41285602003336" lon="-5.471978969871998">
        <ele>7.83</ele>
        <time>2023-09-01T07:39:45Z</time>
      </trkpt>
      <trkpt lat="56.412653010338545" lon="-5.471933959051967">
        <ele>6.87</ele>
        <time>2023-09-01T07:39:48Z</time>
      </trkpt>
      <trkpt lat="56.41260196454823" lon="-5.471950974315405">
        <ele>6.39</ele>
        <time>2023-09-01T07:39:49Z</time>
      </trkpt>
      <trkpt lat="56.412563994526863" lon="-5.471963966265321">
        <ele>6.39</ele>
        <time>2023-09-01T07:39:50Z</time>
      </trkpt>
      <trkpt lat="56.412501968443394" lon="-5.47202599234879">
        <ele>6.39</ele>
        <time>2023-09-01T07:39:51Z</time>
      </trkpt>
      <trkpt lat="56.412456035614014" lon="-5.472072008997202">
        <ele>5.91</ele>
        <time>2023-09-01T07:39:52Z</time>
      </trkpt>
      <trkpt lat="56.412265012040734" lon="-5.472263032570481">
        <ele>5.42</ele>
        <time>2023-09-01T07:39:56Z</time>
      </trkpt>
      <trkpt lat="56.412217989563942" lon="-5.472309971228242">
        <ele>5.91</ele>
        <time>2023-09-01T07:39:57Z</time>
      </trkpt>
      <trkpt lat="56.412069965153933" lon="-5.472049964591861">
        <ele>5.91</ele>
        <time>2023-09-01T07:39:58Z</time>
      </trkpt>
      <trkpt lat="56.412126962095499" lon="-5.472207963466644">
        <ele>5.91</ele>
        <time>2023-09-01T07:39:59Z</time>
      </trkpt>
      <trkpt lat="56.412093015387654" lon="-5.472114002332091">
        <ele>5.91</ele>
        <time>2023-09-01T07:40:00Z</time>
      </trkpt>
      <trkpt lat="56.412058984860778" lon="-5.472017023712397">
        <ele>5.91</ele>
        <time>2023-09-01T07:40:01Z</time>
      </trkpt>
      <trkpt lat="56.411772994324565" lon="-5.471243960782886">
        <ele>6.39</ele>
        <time>2023-09-01T07:40:09Z</time>
      </trkpt>
      <trkpt lat="56.411733012646437" lon="-5.471124015748501">
        <ele>5.91</ele>
        <time>2023-09-01T07:40:10Z</time>
      </trkpt>
      <trkpt lat="56.411652965471148" lon="-5.470883036032319">
        <ele>4.94</ele>
        <time>2023-09-01T07:40:12Z</time>
      </trkpt>
      <trkpt lat="56.411536959931254" lon="-5.470668962225318">
        <ele>3.98</ele>
        <time>2023-09-01T07:40:14Z</time>
      </trkpt>
      <trkpt lat="56.411472000181675" lon="-5.470569971948862">
        <ele>3.98</ele>
        <time>2023-09-01T07:40:15Z</time>
      </trkpt>
      <trkpt lat="56.411180980503559" lon="-5.470259003341198">
        <ele>3.5</ele>
        <time>2023-09-01T07:40:19Z</time>
      </trkpt>
      <trkpt lat="56.411106968298554" lon="-5.470184991136193">
        <ele>3.5</ele>
        <time>2023-09-01T07:40:20Z</time>
      </trkpt>
      <trkpt lat="56.410900019109249" lon="-5.469977958127856">
        <ele>3.02</ele>
        <time>2023-09-01T07:40:23Z</time>
      </trkpt>
      <trkpt lat="56.410757023841143" lon="-5.469849966466427">
        <ele>3.02</ele>
        <time>2023-09-01T07:40:25Z</time>
      </trkpt>
      <trkpt lat="56.410678988322616" lon="-5.469816019758582">
        <ele>3.02</ele>
        <time>2023-09-01T07:40:26Z</time>
      </trkpt>
      <trkpt lat="56.410596007481217" lon="-5.469778971746564">
        <ele>3.5</ele>
        <time>2023-09-01T07:40:27Z</time>
      </trkpt>
      <trkpt lat="56.41051503829658" lon="-5.469744019210339">
        <ele>3.5</ele>
        <time>2023-09-01T07:40:28Z</time>
      </trkpt>
      <trkpt lat="56.410440020263195" lon="-5.469710994511843">
        <ele>3.5</ele>
        <time>2023-09-01T07:40:29Z</time>
      </trkpt>
      <trkpt lat="56.410347986966372" lon="-5.469690039753914">
        <ele>3.98</ele>
        <time>2023-09-01T07:40:30Z</time>
      </trkpt>
      <trkpt lat="56.41025997698307" lon="-5.469670007005334">
        <ele>3.98</ele>
        <time>2023-09-01T07:40:31Z</time>
      </trkpt>
      <trkpt lat="56.409773994237185" lon="-5.469560958445072">
        <ele>5.91</ele>
        <time>2023-09-01T07:40:37Z</time>
      </trkpt>
      <trkpt lat="56.409713979810476" lon="-5.469545032829046">
        <ele>5.91</ele>
        <time>2023-09-01T07:40:38Z</time>
      </trkpt>
      <trkpt lat="56.409424971789122" lon="-5.469466997310519">
        <ele>7.35</ele>
        <time>2023-09-01T07:40:45Z</time>
      </trkpt>
      <trkpt lat="56.408986011520028" lon="-5.469349985942245">
        <ele>8.310000000000001</ele>
        <time>2023-09-01T07:40:55Z</time>
      </trkpt>
      <trkpt lat="56.408948041498661" lon="-5.46933900564909">
        <ele>8.310000000000001</ele>
        <time>2023-09-01T07:40:56Z</time>
      </trkpt>
      <trkpt lat="56.408920967951417" lon="-5.469331964850426">
        <ele>7.83</ele>
        <time>2023-09-01T07:40:57Z</time>
      </trkpt>
      <trkpt lat="56.408893978223205" lon="-5.469325007870793">
        <ele>8.310000000000001</ele>
        <time>2023-09-01T07:40:59Z</time>
      </trkpt>
      <trkpt lat="56.408876040950418" lon="-5.46931997872889">
        <ele>8.310000000000001</ele>
        <time>2023-09-01T07:41:00Z</time>
      </trkpt>
      <trkpt lat="56.408855002373457" lon="-5.469315033406019">
        <ele>8.789999999999999</ele>
        <time>2023-09-01T07:41:01Z</time>
      </trkpt>
      <trkpt lat="56.408855002373457" lon="-5.469315033406019">
        <ele>8.789999999999999</ele>
        <time>2023-09-01T07:41:13Z</time>
      </trkpt>
      <trkpt lat="56.408835975453258" lon="-5.469268010929227">
        <ele>-23.899999999999999</ele>
        <time>2023-09-01T07:44:50Z</time>
      </trkpt>
      <trkpt lat="56.408832035958767" lon="-5.469327019527555">
        <ele>-0.34</ele>
        <time>2023-09-01T07:45:13Z</time>
      </trkpt>
      <trkpt lat="56.408749977126718" lon="-5.469384016469121">
        <ele>13.6</ele>
        <time>2023-09-01T07:45:54Z</time>
      </trkpt>
      <trkpt lat="56.408693986013532" lon="-5.469435984268785">
        <ele>14.56</ele>
        <time>2023-09-01T07:46:17Z</time>
      </trkpt>
      <trkpt lat="56.408697003498673" lon="-5.469461968168616">
        <ele>14.08</ele>
        <time>2023-09-01T07:46:21Z</time>
      </trkpt>
      <trkpt lat="56.408852990716696" lon="-5.469351997599006">
        <ele>15.52</ele>
        <time>2023-09-01T07:46:30Z</time>
      </trkpt>
      <trkpt lat="56.408944018185139" lon="-5.469337999820709">
        <ele>15.52</ele>
        <time>2023-09-01T07:46:33Z</time>
      </trkpt>
      <trkpt lat="56.408991040661931" lon="-5.469350991770625">
        <ele>15.52</ele>
        <time>2023-09-01T07:46:34Z</time>
      </trkpt>
      <trkpt lat="56.409025993198156" lon="-5.469359960407019">
        <ele>15.52</ele>
        <time>2023-09-01T07:46:35Z</time>
      </trkpt>
      <trkpt lat="56.409005038440228" lon="-5.469765979796648">
        <ele>14.56</ele>
        <time>2023-09-01T07:46:39Z</time>
      </trkpt>
      <trkpt lat="56.408954998478293" lon="-5.469819959253073">
        <ele>14.56</ele>
        <time>2023-09-01T07:46:42Z</time>
      </trkpt>
      <trkpt lat="56.408939994871616" lon="-5.469732033088803">
        <ele>13.119999999999999</ele>
        <time>2023-09-01T07:46:49Z</time>
      </trkpt>
      <trkpt lat="56.409001015126705" lon="-5.469735972583294">
        <ele>14.08</ele>
        <time>2023-09-01T07:46:59Z</time>
      </trkpt>
      <trkpt lat="56.409017024561763" lon="-5.46972599811852">
        <ele>15.52</ele>
        <time>2023-09-01T07:47:51Z</time>
      </trkpt>
      <trkpt lat="56.409025993198156" lon="-5.469721974804997">
        <ele>16.48</ele>
        <time>2023-09-01T07:48:35Z</time>
      </trkpt>
      <trkpt lat="56.409025993198156" lon="-5.469717029482126">
        <ele>17.440000000000001</ele>
        <time>2023-09-01T07:49:16Z</time>
      </trkpt>
      <trkpt lat="56.409036973491311" lon="-5.469712000340223">
        <ele>17.920000000000002</ele>
        <time>2023-09-01T07:49:57Z</time>
      </trkpt>
      <trkpt lat="56.409038985148072" lon="-5.469708982855082">
        <ele>18.879999999999999</ele>
        <time>2023-09-01T07:50:39Z</time>
      </trkpt>
      <trkpt lat="56.409042002633214" lon="-5.469707977026701">
        <ele>19.359999999999999</ele>
        <time>2023-09-01T07:51:15Z</time>
      </trkpt>
      <trkpt lat="56.409042002633214" lon="-5.46970697119832">
        <ele>19.84</ele>
        <time>2023-09-01T07:51:51Z</time>
      </trkpt>
      <trkpt lat="56.409039990976453" lon="-5.469704959541559">
        <ele>20.32</ele>
        <time>2023-09-01T07:52:30Z</time>
      </trkpt>
      <trkpt lat="56.409042002633214" lon="-5.469701020047069">
        <ele>20.809999999999999</ele>
        <time>2023-09-01T07:53:08Z</time>
      </trkpt>
      <trkpt lat="56.409046025946736" lon="-5.469696996733546">
        <ele>21.289999999999999</ele>
        <time>2023-09-01T07:53:57Z</time>
      </trkpt>
      <trkpt lat="56.409048959612846" lon="-5.469690961763263">
        <ele>21.289999999999999</ele>
        <time>2023-09-01T07:54:35Z</time>
      </trkpt>
      <trkpt lat="56.409048959612846" lon="-5.469690961763263">
        <ele>21.289999999999999</ele>
        <time>2023-09-01T07:54:42Z</time>
      </trkpt>
      <trkpt lat="56.409091036766768" lon="-5.469376975670457">
        <ele>20.809999999999999</ele>
        <time>2023-09-01T07:54:44Z</time>
      </trkpt>
      <trkpt lat="56.409077038988471" lon="-5.469526005908847">
        <ele>19.359999999999999</ele>
        <time>2023-09-01T07:54:46Z</time>
      </trkpt>
      <trkpt lat="56.409071004018188" lon="-5.46944503672421">
        <ele>17.920000000000002</ele>
        <time>2023-09-01T07:54:49Z</time>
      </trkpt>
      <trkpt lat="56.409085001796484" lon="-5.469375969842076">
        <ele>17.440000000000001</ele>
        <time>2023-09-01T07:54:51Z</time>
      </trkpt>
      <trkpt lat="56.409109979867935" lon="-5.46938301064074">
        <ele>16.960000000000001</ele>
        <time>2023-09-01T07:54:52Z</time>
      </trkpt>
      <trkpt lat="56.409148033708334" lon="-5.469392985105515">
        <ele>16.960000000000001</ele>
        <time>2023-09-01T07:54:53Z</time>
      </trkpt>
      <trkpt lat="56.40920402482152" lon="-5.469407988712192">
        <ele>16.48</ele>
        <time>2023-09-01T07:54:54Z</time>
      </trkpt>
      <trkpt lat="56.410054033622146" lon="-5.469623990356922">
        <ele>13.6</ele>
        <time>2023-09-01T07:55:05Z</time>
      </trkpt>
      <trkpt lat="56.410734979435802" lon="-5.469839992001653">
        <ele>12.630000000000001</ele>
        <time>2023-09-01T07:55:14Z</time>
      </trkpt>
      <trkpt lat="56.410803040489554" lon="-5.469880979508162">
        <ele>12.630000000000001</ele>
        <time>2023-09-01T07:55:15Z</time>
      </trkpt>
      <trkpt lat="56.410869006067514" lon="-5.469947028905153">
        <ele>12.15</ele>
        <time>2023-09-01T07:55:16Z</time>
      </trkpt>
      <trkpt lat="56.411595968529582" lon="-5.470770969986916">
        <ele>11.67</ele>
        <time>2023-09-01T07:55:27Z</time>
      </trkpt>
      <trkpt lat="56.411647014319897" lon="-5.470866020768881">
        <ele>12.15</ele>
        <time>2023-09-01T07:55:28Z</time>
      </trkpt>
      <trkpt lat="56.411803001537919" lon="-5.471374969929457">
        <ele>13.6</ele>
        <time>2023-09-01T07:55:32Z</time>
      </trkpt>
      <trkpt lat="56.41182404011488" lon="-5.47151000238955">
        <ele>14.08</ele>
        <time>2023-09-01T07:55:33Z</time>
      </trkpt>
      <trkpt lat="56.411846000701189" lon="-5.471651991829276">
        <ele>14.08</ele>
        <time>2023-09-01T07:55:34Z</time>
      </trkpt>
      <trkpt lat="56.41189101152122" lon="-5.471943011507392">
        <ele>14.08</ele>
        <time>2023-09-01T07:55:36Z</time>
      </trkpt>
      <trkpt lat="56.411963012069464" lon="-5.472436035051942">
        <ele>15.039999999999999</ele>
        <time>2023-09-01T07:55:41Z</time>
      </trkpt>
      <trkpt lat="56.412049010396004" lon="-5.472542988136411">
        <ele>15.039999999999999</ele>
        <time>2023-09-01T07:55:42Z</time>
      </trkpt>
      <trkpt lat="56.412049010396004" lon="-5.472542988136411">
        <ele>15.039999999999999</ele>
        <time>2023-09-01T07:55:43Z</time>
      </trkpt>
      <trkpt lat="56.412112964317203" lon="-5.472510969266295">
        <ele>15.039999999999999</ele>
        <time>2023-09-01T07:55:44Z</time>
      </trkpt>
      <trkpt lat="56.412135008722544" lon="-5.472499988973141">
        <ele>15.039999999999999</ele>
        <time>2023-09-01T07:55:45Z</time>
      </trkpt>
      <trkpt lat="56.412187982350588" lon="-5.472340984269977">
        <ele>15.039999999999999</ele>
        <time>2023-09-01T07:55:46Z</time>
      </trkpt>
      <trkpt lat="56.412603976204991" lon="-5.471950974315405">
        <ele>15.039999999999999</ele>
        <time>2023-09-01T07:55:52Z</time>
      </trkpt>
      <trkpt lat="56.412671031430364" lon="-5.471928007900715">
        <ele>15.039999999999999</ele>
        <time>2023-09-01T07:55:53Z</time>
      </trkpt>
      <trkpt lat="56.412744959816337" lon="-5.47193898819387">
        <ele>15.039999999999999</ele>
        <time>2023-09-01T07:55:54Z</time>
      </trkpt>
      <trkpt lat="56.412803968414664" lon="-5.47196002677083">
        <ele>15.039999999999999</ele>
        <time>2023-09-01T07:55:55Z</time>
      </trkpt>
      <trkpt lat="56.412867000326514" lon="-5.47198299318552">
        <ele>15.039999999999999</ele>
        <time>2023-09-01T07:55:56Z</time>
      </trkpt>
      <trkpt lat="56.413364969193935" lon="-5.472177034243941">
        <ele>16</ele>
        <time>2023-09-01T07:56:03Z</time>
      </trkpt>
      <trkpt lat="56.414502980187535" lon="-5.47256100922823">
        <ele>13.6</ele>
        <time>2023-09-01T07:56:16Z</time>
      </trkpt>
      <trkpt lat="56.414677994325757" lon="-5.472697969526053">
        <ele>14.08</ele>
        <time>2023-09-01T07:56:19Z</time>
      </trkpt>
      <trkpt lat="56.414729962125421" lon="-5.472784973680973">
        <ele>14.08</ele>
        <time>2023-09-01T07:56:20Z</time>
      </trkpt>
      <trkpt lat="56.414758963510394" lon="-5.472867032513022">
        <ele>14.08</ele>
        <time>2023-09-01T07:56:21Z</time>
      </trkpt>
      <trkpt lat="56.414780002087355" lon="-5.473004998639226">
        <ele>14.08</ele>
        <time>2023-09-01T07:56:22Z</time>
      </trkpt>
      <trkpt lat="56.414803974330425" lon="-5.47314003109932">
        <ele>14.08</ele>
        <time>2023-09-01T07:56:23Z</time>
      </trkpt>
      <trkpt lat="56.414830964058638" lon="-5.47327296808362">
        <ele>13.6</ele>
        <time>2023-09-01T07:56:24Z</time>
      </trkpt>
      <trkpt lat="56.414857031777501" lon="-5.473394002765417">
        <ele>13.6</ele>
        <time>2023-09-01T07:56:25Z</time>
      </trkpt>
      <trkpt lat="56.414881004020572" lon="-5.47350799664855">
        <ele>13.119999999999999</ele>
        <time>2023-09-01T07:56:26Z</time>
      </trkpt>
      <trkpt lat="56.414881004020572" lon="-5.473509002476931">
        <ele>13.119999999999999</ele>
        <time>2023-09-01T07:56:27Z</time>
      </trkpt>
      <trkpt lat="56.414967002347112" lon="-5.473616039380431">
        <ele>12.630000000000001</ele>
        <time>2023-09-01T07:56:29Z</time>
      </trkpt>
      <trkpt lat="56.415033973753452" lon="-5.473635988309979">
        <ele>12.15</ele>
        <time>2023-09-01T07:56:30Z</time>
      </trkpt>
      <trkpt lat="56.415351983159781" lon="-5.473730033263564">
        <ele>11.19</ele>
        <time>2023-09-01T07:56:34Z</time>
      </trkpt>
      <trkpt lat="56.415419960394502" lon="-5.473750988021493">
        <ele>10.710000000000001</ele>
        <time>2023-09-01T07:56:35Z</time>
      </trkpt>
      <trkpt lat="56.41556303948164" lon="-5.473792981356382">
        <ele>9.75</ele>
        <time>2023-09-01T07:56:42Z</time>
      </trkpt>
      <trkpt lat="56.415632022544742" lon="-5.473814019933343">
        <ele>11.19</ele>
        <time>2023-09-01T07:57:16Z</time>
      </trkpt>
      <trkpt lat="56.415674015879631" lon="-5.473826006054878">
        <ele>11.67</ele>
        <time>2023-09-01T07:57:17Z</time>
      </trkpt>
      <trkpt lat="56.415727995336056" lon="-5.473842015489936">
        <ele>11.67</ele>
        <time>2023-09-01T07:57:18Z</time>
      </trkpt>
      <trkpt lat="56.416343981400132" lon="-5.474077966064215">
        <ele>11.67</ele>
        <time>2023-09-01T07:57:27Z</time>
      </trkpt>
      <trkpt lat="56.416382035240531" lon="-5.474092969670892">
        <ele>11.67</ele>
        <time>2023-09-01T07:57:28Z</time>
      </trkpt>
      <trkpt lat="56.416442971676588" lon="-5.473990961909294">
        <ele>11.67</ele>
        <time>2023-09-01T07:57:29Z</time>
      </trkpt>
      <trkpt lat="56.416451018303633" lon="-5.473928013816476">
        <ele>11.19</ele>
        <time>2023-09-01T07:57:30Z</time>
      </trkpt>
      <trkpt lat="56.416463004425168" lon="-5.473840003833175">
        <ele>11.19</ele>
        <time>2023-09-01T07:57:31Z</time>
      </trkpt>
      <trkpt lat="56.416477002203465" lon="-5.473736990243197">
        <ele>11.19</ele>
        <time>2023-09-01T07:57:32Z</time>
      </trkpt>
      <trkpt lat="56.41653299331665" lon="-5.473324013873935">
        <ele>10.23</ele>
        <time>2023-09-01T07:57:39Z</time>
      </trkpt>
      <trkpt lat="56.416508015245199" lon="-5.473151011392474">
        <ele>12.15</ele>
        <time>2023-09-01T07:58:01Z</time>
      </trkpt>
      <trkpt lat="56.4164699614048" lon="-5.473138019442558">
        <ele>12.15</ele>
        <time>2023-09-01T07:58:02Z</time>
      </trkpt>
      <trkpt lat="56.416429979726672" lon="-5.473125027492642">
        <ele>12.630000000000001</ele>
        <time>2023-09-01T07:58:03Z</time>
      </trkpt>
      <trkpt lat="56.416391003876925" lon="-5.473113041371107">
        <ele>12.630000000000001</ele>
        <time>2023-09-01T07:58:04Z</time>
      </trkpt>
      <trkpt lat="56.416357979178429" lon="-5.473101977258921">
        <ele>12.630000000000001</ele>
        <time>2023-09-01T07:58:05Z</time>
      </trkpt>
      <trkpt lat="56.416325960308313" lon="-5.473092002794147">
        <ele>13.119999999999999</ele>
        <time>2023-09-01T07:58:06Z</time>
      </trkpt>
      <trkpt lat="56.416293019428849" lon="-5.473081022500992">
        <ele>13.119999999999999</ele>
        <time>2023-09-01T07:58:07Z</time>
      </trkpt>
      <trkpt lat="56.415713997557759" lon="-5.472895028069615">
        <ele>10.23</ele>
        <time>2023-09-01T07:58:17Z</time>
      </trkpt>
      <trkpt lat="56.414983011782169" lon="-5.47267097979784">
        <ele>7.35</ele>
        <time>2023-09-01T07:58:29Z</time>
      </trkpt>
      <trkpt lat="56.414836999028921" lon="-5.472640972584486">
        <ele>5.91</ele>
        <time>2023-09-01T07:58:39Z</time>
      </trkpt>
      <trkpt lat="56.414571963250637" lon="-5.472587998956442">
        <ele>4.94</ele>
        <time>2023-09-01T07:58:50Z</time>
      </trkpt>
      <trkpt lat="56.413896968588233" lon="-5.472351964563131">
        <ele>3.5</ele>
        <time>2023-09-01T07:59:03Z</time>
      </trkpt>
      <trkpt lat="56.413598991930485" lon="-5.472262026742101">
        <ele>4.46</ele>
        <time>2023-09-01T07:59:13Z</time>
      </trkpt>
      <trkpt lat="56.413490027189255" lon="-5.472229002043605">
        <ele>6.39</ele>
        <time>2023-09-01T07:59:25Z</time>
      </trkpt>
      <trkpt lat="56.413191966712475" lon="-5.472104027867317">
        <ele>6.39</ele>
        <time>2023-09-01T07:59:31Z</time>
      </trkpt>
      <trkpt lat="56.413133963942528" lon="-5.472080977633596">
        <ele>5.91</ele>
        <time>2023-09-01T07:59:32Z</time>
      </trkpt>
      <trkpt lat="56.413076967000961" lon="-5.472058011218905">
        <ele>6.39</ele>
        <time>2023-09-01T07:59:33Z</time>
      </trkpt>
      <trkpt lat="56.413022987544537" lon="-5.472037978470326">
        <ele>6.39</ele>
        <time>2023-09-01T07:59:34Z</time>
      </trkpt>
      <trkpt lat="56.412973031401634" lon="-5.472020041197538">
        <ele>6.39</ele>
        <time>2023-09-01T07:59:35Z</time>
      </trkpt>
      <trkpt lat="56.412923997268081" lon="-5.4720030259341">
        <ele>6.39</ele>
        <time>2023-09-01T07:59:36Z</time>
      </trkpt>
      <trkpt lat="56.412873035296798" lon="-5.471985004842281">
        <ele>6.87</ele>
        <time>2023-09-01T07:59:37Z</time>
      </trkpt>
      <trkpt lat="56.412818972021341" lon="-5.471965977922082">
        <ele>6.87</ele>
        <time>2023-09-01T07:59:38Z</time>
      </trkpt>
      <trkpt lat="56.412647981196642" lon="-5.471935970708728">
        <ele>7.35</ele>
        <time>2023-09-01T07:59:41Z</time>
      </trkpt>
      <trkpt lat="56.41260196454823" lon="-5.471950974315405">
        <ele>7.35</ele>
        <time>2023-09-01T07:59:42Z</time>
      </trkpt>
      <trkpt lat="56.412552008405328" lon="-5.471976036205888">
        <ele>7.35</ele>
        <time>2023-09-01T07:59:43Z</time>
      </trkpt>
      <trkpt lat="56.412505991756916" lon="-5.472020963206887">
        <ele>7.35</ele>
        <time>2023-09-01T07:59:44Z</time>
      </trkpt>
      <trkpt lat="56.412459975108504" lon="-5.47206798568368">
        <ele>7.35</ele>
        <time>2023-09-01T07:59:45Z</time>
      </trkpt>
      <trkpt lat="56.412354027852416" lon="-5.4721740167588">
        <ele>6.87</ele>
        <time>2023-09-01T07:59:52Z</time>
      </trkpt>
      <trkpt lat="56.412290995940566" lon="-5.472236964851618">
        <ele>6.87</ele>
        <time>2023-09-01T07:59:54Z</time>
      </trkpt>
      <trkpt lat="56.412249002605677" lon="-5.472278958186507">
        <ele>6.87</ele>
        <time>2023-09-01T07:59:55Z</time>
      </trkpt>
      <trkpt lat="56.412129979580641" lon="-5.472216010093689">
        <ele>6.39</ele>
        <time>2023-09-01T07:59:57Z</time>
      </trkpt>
      <trkpt lat="56.412103995680809" lon="-5.472141997888684">
        <ele>6.39</ele>
        <time>2023-09-01T07:59:58Z</time>
      </trkpt>
      <trkpt lat="56.412074994295835" lon="-5.472061028704047">
        <ele>6.39</ele>
        <time>2023-09-01T07:59:59Z</time>
      </trkpt>
      <trkpt lat="56.412040963768959" lon="-5.471966983750463">
        <ele>6.39</ele>
        <time>2023-09-01T08:00:00Z</time>
      </trkpt>
      <trkpt lat="56.41199997626245" lon="-5.47185399569571">
        <ele>6.39</ele>
        <time>2023-09-01T08:00:01Z</time>
      </trkpt>
      <trkpt lat="56.4119559712708" lon="-5.471732039004564">
        <ele>6.87</ele>
        <time>2023-09-01T08:00:02Z</time>
      </trkpt>
      <trkpt lat="56.411622958257794" lon="-5.470816986635327">
        <ele>6.39</ele>
        <time>2023-09-01T08:00:09Z</time>
      </trkpt>
      <trkpt lat="56.411555986851454" lon="-5.470701986923814">
        <ele>6.39</ele>
        <time>2023-09-01T08:00:10Z</time>
      </trkpt>
      <trkpt lat="56.411481974646449" lon="-5.470581036061049">
        <ele>6.39</ele>
        <time>2023-09-01T08:00:11Z</time>
      </trkpt>
      <trkpt lat="56.411401005461812" lon="-5.470494031906128">
        <ele>6.39</ele>
        <time>2023-09-01T08:00:12Z</time>
      </trkpt>
      <trkpt lat="56.411319030448794" lon="-5.470405016094446">
        <ele>6.39</ele>
        <time>2023-09-01T08:00:13Z</time>
      </trkpt>
      <trkpt lat="56.410930026322603" lon="-5.47000796534121">
        <ele>7.35</ele>
        <time>2023-09-01T08:00:18Z</time>
      </trkpt>
      <trkpt lat="56.41071000136435" lon="-5.469829011708498">
        <ele>8.310000000000001</ele>
        <time>2023-09-01T08:00:21Z</time>
      </trkpt>
      <trkpt lat="56.410638000816107" lon="-5.469797998666763">
        <ele>8.789999999999999</ele>
        <time>2023-09-01T08:00:22Z</time>
      </trkpt>
      <trkpt lat="56.410458963364363" lon="-5.469719963148236">
        <ele>9.27</ele>
        <time>2023-09-01T08:00:25Z</time>
      </trkpt>
      <trkpt lat="56.41043096780777" lon="-5.469595994800329">
        <ele>9.75</ele>
        <time>2023-09-01T08:00:26Z</time>
      </trkpt>
      <trkpt lat="56.410417975857854" lon="-5.469431960955262">
        <ele>9.75</ele>
        <time>2023-09-01T08:00:27Z</time>
      </trkpt>
      <trkpt lat="56.409724038094282" lon="-5.468390006572008">
        <ele>10.23</ele>
        <time>2023-09-01T08:00:38Z</time>
      </trkpt>
      <trkpt lat="56.409603003412485" lon="-5.468102004379034">
        <ele>11.19</ele>
        <time>2023-09-01T08:00:40Z</time>
      </trkpt>
      <trkpt lat="56.409572996199131" lon="-5.467999996617436">
        <ele>11.19</ele>
        <time>2023-09-01T08:00:41Z</time>
      </trkpt>
      <trkpt lat="56.409492027014494" lon="-5.467706965282559">
        <ele>12.15</ele>
        <time>2023-09-01T08:00:43Z</time>
      </trkpt>
      <trkpt lat="56.409460008144379" lon="-5.467395996674895">
        <ele>13.6</ele>
        <time>2023-09-01T08:00:45Z</time>
      </trkpt>
      <trkpt lat="56.40944299288094" lon="-5.467226011678577">
        <ele>14.08</ele>
        <time>2023-09-01T08:00:46Z</time>
      </trkpt>
      <trkpt lat="56.409512981772423" lon="-5.466502988711">
        <ele>15.52</ele>
        <time>2023-09-01T08:00:50Z</time>
      </trkpt>
      <trkpt lat="56.409532008692622" lon="-5.466360999271274">
        <ele>16</ele>
        <time>2023-09-01T08:00:51Z</time>
      </trkpt>
      <trkpt lat="56.409551035612822" lon="-5.466224038973451">
        <ele>16.48</ele>
        <time>2023-09-01T08:00:52Z</time>
      </trkpt>
      <trkpt lat="56.409569978713989" lon="-5.466081965714693">
        <ele>16.960000000000001</ele>
        <time>2023-09-01T08:00:53Z</time>
      </trkpt>
      <trkpt lat="56.409595040604472" lon="-5.465931007638574">
        <ele>17.440000000000001</ele>
        <time>2023-09-01T08:00:54Z</time>
      </trkpt>
      <trkpt lat="56.409627981483936" lon="-5.46577300876379">
        <ele>17.440000000000001</ele>
        <time>2023-09-01T08:00:55Z</time>
      </trkpt>
      <trkpt lat="56.409675003960729" lon="-5.465646022930741">
        <ele>17.920000000000002</ele>
        <time>2023-09-01T08:00:56Z</time>
      </trkpt>
      <trkpt lat="56.409988990053535" lon="-5.464797019958496">
        <ele>18.879999999999999</ele>
        <time>2023-09-01T08:01:02Z</time>
      </trkpt>
      <trkpt lat="56.410298030823469" lon="-5.464179022237659">
        <ele>19.84</ele>
        <time>2023-09-01T08:01:07Z</time>
      </trkpt>
      <trkpt lat="56.410359973087907" lon="-5.4640559758991">
        <ele>19.84</ele>
        <time>2023-09-01T08:01:08Z</time>
      </trkpt>
      <trkpt lat="56.41049399971962" lon="-5.463788006454706">
        <ele>19.84</ele>
        <time>2023-09-01T08:01:10Z</time>
      </trkpt>
      <trkpt lat="56.410553008317947" lon="-5.46366898342967">
        <ele>20.32</ele>
        <time>2023-09-01T08:01:11Z</time>
      </trkpt>
      <trkpt lat="56.410659039393067" lon="-5.463429009541869">
        <ele>20.809999999999999</ele>
        <time>2023-09-01T08:01:13Z</time>
      </trkpt>
      <trkpt lat="56.410707989707589" lon="-5.463308980688453">
        <ele>20.809999999999999</ele>
        <time>2023-09-01T08:01:14Z</time>
      </trkpt>
      <trkpt lat="56.410757023841143" lon="-5.463188029825687">
        <ele>20.809999999999999</ele>
        <time>2023-09-01T08:01:15Z</time>
      </trkpt>
      <trkpt lat="56.411393964663148" lon="-5.461722034960985">
        <ele>19.84</ele>
        <time>2023-09-01T08:01:26Z</time>
      </trkpt>
      <trkpt lat="56.41156897880137" lon="-5.461291959509254">
        <ele>19.84</ele>
        <time>2023-09-01T08:01:29Z</time>
      </trkpt>
      <trkpt lat="56.411705017089844" lon="-5.460816035047174">
        <ele>19.84</ele>
        <time>2023-09-01T08:01:32Z</time>
      </trkpt>
      <trkpt lat="56.41210600733757" lon="-5.458923988044262">
        <ele>23.210000000000001</ele>
        <time>2023-09-01T08:01:43Z</time>
      </trkpt>
      <trkpt lat="56.412270041182637" lon="-5.45848703943193">
        <ele>24.170000000000002</ele>
        <time>2023-09-01T08:01:46Z</time>
      </trkpt>
      <trkpt lat="56.412331983447075" lon="-5.45833800919354">
        <ele>24.649999999999999</ele>
        <time>2023-09-01T08:01:47Z</time>
      </trkpt>
      <trkpt lat="56.41247196123004" lon="-5.458044977858663">
        <ele>24.649999999999999</ele>
        <time>2023-09-01T08:01:49Z</time>
      </trkpt>
      <trkpt lat="56.412549996748567" lon="-5.457886978983879">
        <ele>24.649999999999999</ele>
        <time>2023-09-01T08:01:50Z</time>
      </trkpt>
      <trkpt lat="56.413353988900781" lon="-5.456283017992973">
        <ele>25.129999999999999</ele>
        <time>2023-09-01T08:02:00Z</time>
      </trkpt>
      <trkpt lat="56.413558004423976" lon="-5.45584699138999">
        <ele>26.09</ele>
        <time>2023-09-01T08:02:03Z</time>
      </trkpt>
      <trkpt lat="56.413802001625299" lon="-5.455278027802706">
        <ele>28.02</ele>
        <time>2023-09-01T08:02:07Z</time>
      </trkpt>
      <trkpt lat="56.413864027708769" lon="-5.455133020877838">
        <ele>28.5</ele>
        <time>2023-09-01T08:02:08Z</time>
      </trkpt>
      <trkpt lat="56.413917001336813" lon="-5.455008968710899">
        <ele>28.5</ele>
        <time>2023-09-01T08:02:09Z</time>
      </trkpt>
      <trkpt lat="56.413967041298747" lon="-5.454892963171005">
        <ele>28.98</ele>
        <time>2023-09-01T08:02:10Z</time>
      </trkpt>
      <trkpt lat="56.414013979956508" lon="-5.454783998429775">
        <ele>29.460000000000001</ele>
        <time>2023-09-01T08:02:11Z</time>
      </trkpt>
      <trkpt lat="56.414045998826623" lon="-5.454688025638461">
        <ele>29.460000000000001</ele>
        <time>2023-09-01T08:02:12Z</time>
      </trkpt>
      <trkpt lat="56.414058990776539" lon="-5.45453698374331">
        <ele>29.940000000000001</ele>
        <time>2023-09-01T08:02:13Z</time>
      </trkpt>
      <trkpt lat="56.414072988554835" lon="-5.454374039545655">
        <ele>30.899999999999999</ele>
        <time>2023-09-01T08:02:14Z</time>
      </trkpt>
      <trkpt lat="56.414086986333132" lon="-5.454204976558685">
        <ele>31.859999999999999</ele>
        <time>2023-09-01T08:02:15Z</time>
      </trkpt>
      <trkpt lat="56.414100984111428" lon="-5.454029040411115">
        <ele>33.299999999999997</ele>
        <time>2023-09-01T08:02:16Z</time>
      </trkpt>
      <trkpt lat="56.414137026295066" lon="-5.453852014616132">
        <ele>34.259999999999998</ele>
        <time>2023-09-01T08:02:17Z</time>
      </trkpt>
      <trkpt lat="56.414187988266349" lon="-5.453689992427826">
        <ele>35.229999999999997</ele>
        <time>2023-09-01T08:02:18Z</time>
      </trkpt>
      <trkpt lat="56.414241967722774" lon="-5.453520007431507">
        <ele>35.710000000000001</ele>
        <time>2023-09-01T08:02:19Z</time>
      </trkpt>
      <trkpt lat="56.414315979927778" lon="-5.453381035476923">
        <ele>36.670000000000002</ele>
        <time>2023-09-01T08:02:20Z</time>
      </trkpt>
      <trkpt lat="56.414393009617925" lon="-5.453262012451887">
        <ele>37.149999999999999</ele>
        <time>2023-09-01T08:02:21Z</time>
      </trkpt>
      <trkpt lat="56.414700960740447" lon="-5.45283897779882">
        <ele>41.469999999999999</ele>
        <time>2023-09-01T08:02:25Z</time>
      </trkpt>
      <trkpt lat="56.414790982380509" lon="-5.452755996957421">
        <ele>41.950000000000003</ele>
        <time>2023-09-01T08:02:26Z</time>
      </trkpt>
      <trkpt lat="56.41554300673306" lon="-5.452055018395186">
        <ele>47.240000000000002</ele>
        <time>2023-09-01T08:02:34Z</time>
      </trkpt>
      <trkpt lat="56.41560897231102" lon="-5.451988968998194">
        <ele>47.240000000000002</ele>
        <time>2023-09-01T08:02:35Z</time>
      </trkpt>
      <trkpt lat="56.41569497063756" lon="-5.451843040063977">
        <ele>47.240000000000002</ele>
        <time>2023-09-01T08:02:36Z</time>
      </trkpt>
      <trkpt lat="56.415691031143069" lon="-5.451704990118742">
        <ele>47.240000000000002</ele>
        <time>2023-09-01T08:02:37Z</time>
      </trkpt>
      <trkpt lat="56.415687007829547" lon="-5.451552020385861">
        <ele>46.759999999999998</ele>
        <time>2023-09-01T08:02:38Z</time>
      </trkpt>
      <trkpt lat="56.415682984516025" lon="-5.451402990147471">
        <ele>46.280000000000001</ele>
        <time>2023-09-01T08:02:39Z</time>
      </trkpt>
      <trkpt lat="56.415678961202502" lon="-5.451257983222604">
        <ele>45.799999999999997</ele>
        <time>2023-09-01T08:02:40Z</time>
      </trkpt>
      <trkpt lat="56.41565197147429" lon="-5.451085986569524">
        <ele>45.32</ele>
        <time>2023-09-01T08:02:41Z</time>
      </trkpt>
      <trkpt lat="56.41558600589633" lon="-5.450964029878378">
        <ele>44.840000000000003</ele>
        <time>2023-09-01T08:02:42Z</time>
      </trkpt>
      <trkpt lat="56.415512999519706" lon="-5.450831009075046">
        <ele>44.359999999999999</ele>
        <time>2023-09-01T08:02:43Z</time>
      </trkpt>
      <trkpt lat="56.415439993143082" lon="-5.450696982443333">
        <ele>43.880000000000003</ele>
        <time>2023-09-01T08:02:44Z</time>
      </trkpt>
      <trkpt lat="56.415367992594838" lon="-5.45056102797389">
        <ele>43.880000000000003</ele>
        <time>2023-09-01T08:02:45Z</time>
      </trkpt>
      <trkpt lat="56.415299009531736" lon="-5.450428007170558">
        <ele>43.880000000000003</ele>
        <time>2023-09-01T08:02:46Z</time>
      </trkpt>
      <trkpt lat="56.415230026468635" lon="-5.450295992195606">
        <ele>43.399999999999999</ele>
        <time>2023-09-01T08:02:47Z</time>
      </trkpt>
      <trkpt lat="56.415162971243262" lon="-5.450169006362557">
        <ele>43.399999999999999</ele>
        <time>2023-09-01T08:02:48Z</time>
      </trkpt>
      <trkpt lat="56.415117960423231" lon="-5.450018970295787">
        <ele>42.920000000000002</ele>
        <time>2023-09-01T08:02:49Z</time>
      </trkpt>
      <trkpt lat="56.415071021765471" lon="-5.449858037754893">
        <ele>42.920000000000002</ele>
        <time>2023-09-01T08:02:50Z</time>
      </trkpt>
      <trkpt lat="56.415025005117059" lon="-5.449701966717839">
        <ele>42.439999999999998</ele>
        <time>2023-09-01T08:02:51Z</time>
      </trkpt>
      <trkpt lat="56.414945963770151" lon="-5.449432991445065">
        <ele>40.990000000000002</ele>
        <time>2023-09-01T08:02:53Z</time>
      </trkpt>
      <trkpt lat="56.414881004020572" lon="-5.449300976470113">
        <ele>40.509999999999998</ele>
        <time>2023-09-01T08:02:54Z</time>
      </trkpt>
      <trkpt lat="56.414704984053969" lon="-5.448938962072134">
        <ele>39.549999999999997</ele>
        <time>2023-09-01T08:02:57Z</time>
      </trkpt>
      <trkpt lat="56.41457699239254" lon="-5.448677027598023">
        <ele>38.590000000000003</ele>
        <time>2023-09-01T08:02:59Z</time>
      </trkpt>
      <trkpt lat="56.414524018764496" lon="-5.44851902872324">
        <ele>38.590000000000003</ele>
        <time>2023-09-01T08:03:00Z</time>
      </trkpt>
      <trkpt lat="56.414494011551142" lon="-5.44834703207016">
        <ele>38.109999999999999</ele>
        <time>2023-09-01T08:03:01Z</time>
      </trkpt>
      <trkpt lat="56.414462998509407" lon="-5.448176963254809">
        <ele>38.109999999999999</ele>
        <time>2023-09-01T08:03:02Z</time>
      </trkpt>
      <trkpt lat="56.414431985467672" lon="-5.448004966601729">
        <ele>38.109999999999999</ele>
        <time>2023-09-01T08:03:03Z</time>
      </trkpt>
      <trkpt lat="56.414367025718093" lon="-5.447856020182371">
        <ele>38.109999999999999</ele>
        <time>2023-09-01T08:03:04Z</time>
      </trkpt>
      <trkpt lat="56.414300976321101" lon="-5.447712019085884">
        <ele>38.109999999999999</ele>
        <time>2023-09-01T08:03:05Z</time>
      </trkpt>
      <trkpt lat="56.414231993257999" lon="-5.447565000504255">
        <ele>38.590000000000003</ele>
        <time>2023-09-01T08:03:06Z</time>
      </trkpt>
      <trkpt lat="56.414162004366517" lon="-5.447416976094246">
        <ele>39.07</ele>
        <time>2023-09-01T08:03:07Z</time>
      </trkpt>
      <trkpt lat="56.414076006039977" lon="-5.447304993867874">
        <ele>39.549999999999997</ele>
        <time>2023-09-01T08:03:08Z</time>
      </trkpt>
      <trkpt lat="56.413980033248663" lon="-5.447190999984741">
        <ele>40.030000000000001</ele>
        <time>2023-09-01T08:03:09Z</time>
      </trkpt>
      <trkpt lat="56.413881964981556" lon="-5.447074994444847">
        <ele>40.509999999999998</ele>
        <time>2023-09-01T08:03:10Z</time>
      </trkpt>
      <trkpt lat="56.413783980533481" lon="-5.446969969198108">
        <ele>40.990000000000002</ele>
        <time>2023-09-01T08:03:11Z</time>
      </trkpt>
      <trkpt lat="56.413669986650348" lon="-5.446893023326993">
        <ele>41.469999999999999</ele>
        <time>2023-09-01T08:03:12Z</time>
      </trkpt>
      <trkpt lat="56.413553981110454" lon="-5.446813981980085">
        <ele>41.950000000000003</ele>
        <time>2023-09-01T08:03:13Z</time>
      </trkpt>
      <trkpt lat="56.413439987227321" lon="-5.44673603028059">
        <ele>42.439999999999998</ele>
        <time>2023-09-01T08:03:14Z</time>
      </trkpt>
      <trkpt lat="56.413307972252369" lon="-5.446618013083935">
        <ele>42.920000000000002</ele>
        <time>2023-09-01T08:03:15Z</time>
      </trkpt>
      <trkpt lat="56.413033967837691" lon="-5.446162037551403">
        <ele>44.359999999999999</ele>
        <time>2023-09-01T08:03:19Z</time>
      </trkpt>
      <trkpt lat="56.412949981167912" lon="-5.446021975949407">
        <ele>44.840000000000003</ele>
        <time>2023-09-01T08:03:20Z</time>
      </trkpt>
      <trkpt lat="56.412956016138196" lon="-5.445973025634885">
        <ele>45.799999999999997</ele>
        <time>2023-09-01T08:03:21Z</time>
      </trkpt>
      <trkpt lat="56.41305198892951" lon="-5.445849979296327">
        <ele>46.280000000000001</ele>
        <time>2023-09-01T08:03:22Z</time>
      </trkpt>
      <trkpt lat="56.41309498809278" lon="-5.445860959589481">
        <ele>46.759999999999998</ele>
        <time>2023-09-01T08:03:23Z</time>
      </trkpt>
      <trkpt lat="56.413148967549205" lon="-5.44587504118681">
        <ele>47.240000000000002</ele>
        <time>2023-09-01T08:03:24Z</time>
      </trkpt>
      <trkpt lat="56.413175035268068" lon="-5.445881998166442">
        <ele>48.200000000000003</ele>
        <time>2023-09-01T08:03:25Z</time>
      </trkpt>
      <trkpt lat="56.413242006674409" lon="-5.445900019258261">
        <ele>49.649999999999999</ele>
        <time>2023-09-01T08:03:32Z</time>
      </trkpt>
      <trkpt lat="56.413448033854365" lon="-5.445918962359428">
        <ele>51.090000000000003</ele>
        <time>2023-09-01T08:03:35Z</time>
      </trkpt>
      <trkpt lat="56.413527997210622" lon="-5.44589901342988">
        <ele>51.57</ele>
        <time>2023-09-01T08:03:36Z</time>
      </trkpt>
      <trkpt lat="56.413582982495427" lon="-5.445833969861269">
        <ele>52.530000000000001</ele>
        <time>2023-09-01T08:03:37Z</time>
      </trkpt>
      <trkpt lat="56.413628999143839" lon="-5.445746965706348">
        <ele>53.009999999999998</ele>
        <time>2023-09-01T08:03:38Z</time>
      </trkpt>
      <trkpt lat="56.413665041327477" lon="-5.445679994300008">
        <ele>53.490000000000002</ele>
        <time>2023-09-01T08:03:39Z</time>
      </trkpt>
      <trkpt lat="56.413700999692082" lon="-5.445614028722048">
        <ele>53.969999999999999</ele>
        <time>2023-09-01T08:03:40Z</time>
      </trkpt>
      <trkpt lat="56.413708040490746" lon="-5.445516966283321">
        <ele>53.969999999999999</ele>
        <time>2023-09-01T08:03:41Z</time>
      </trkpt>
      <trkpt lat="56.413716003298759" lon="-5.445398027077317">
        <ele>54.450000000000003</ele>
        <time>2023-09-01T08:03:42Z</time>
      </trkpt>
      <trkpt lat="56.413722960278392" lon="-5.445291996002197">
        <ele>54.450000000000003</ele>
        <time>2023-09-01T08:03:43Z</time>
      </trkpt>
      <trkpt lat="56.413708040490746" lon="-5.4451709613204">
        <ele>54.93</ele>
        <time>2023-09-01T08:03:44Z</time>
      </trkpt>
      <trkpt lat="56.41367400996387" lon="-5.445066019892693">
        <ele>55.409999999999997</ele>
        <time>2023-09-01T08:03:45Z</time>
      </trkpt>
      <trkpt lat="56.413623970001936" lon="-5.444966023787856">
        <ele>55.890000000000001</ele>
        <time>2023-09-01T08:03:46Z</time>
      </trkpt>
      <trkpt lat="56.413576025515795" lon="-5.44486996717751">
        <ele>56.369999999999997</ele>
        <time>2023-09-01T08:03:47Z</time>
      </trkpt>
      <trkpt lat="56.413530008867383" lon="-5.444778017699719">
        <ele>56.859999999999999</ele>
        <time>2023-09-01T08:03:48Z</time>
      </trkpt>
      <trkpt lat="56.413464965298772" lon="-5.444648014381528">
        <ele>57.340000000000003</ele>
        <time>2023-09-01T08:03:49Z</time>
      </trkpt>
      <trkpt lat="56.413458008319139" lon="-5.444593029096723">
        <ele>57.82</ele>
        <time>2023-09-01T08:03:50Z</time>
      </trkpt>
      <trkpt lat="56.413447028025985" lon="-5.444449028000236">
        <ele>58.299999999999997</ele>
        <time>2023-09-01T08:03:51Z</time>
      </trkpt>
      <trkpt lat="56.413465971127152" lon="-5.444305026903749">
        <ele>59.259999999999998</ele>
        <time>2023-09-01T08:03:52Z</time>
      </trkpt>
      <trkpt lat="56.413489021360874" lon="-5.444135963916779">
        <ele>59.740000000000002</ele>
        <time>2023-09-01T08:03:53Z</time>
      </trkpt>
      <trkpt lat="56.413550963625312" lon="-5.443660961464047">
        <ele>61.659999999999997</ele>
        <time>2023-09-01T08:03:56Z</time>
      </trkpt>
      <trkpt lat="56.413498995825648" lon="-5.443453006446362">
        <ele>63.100000000000001</ele>
        <time>2023-09-01T08:03:58Z</time>
      </trkpt>
      <trkpt lat="56.413461025804281" lon="-5.443300036713481">
        <ele>63.579999999999998</ele>
        <time>2023-09-01T08:03:59Z</time>
      </trkpt>
      <trkpt lat="56.413420960307121" lon="-5.443141032010317">
        <ele>64.069999999999993</ele>
        <time>2023-09-01T08:04:00Z</time>
      </trkpt>
      <trkpt lat="56.413382990285754" lon="-5.442989990115166">
        <ele>65.030000000000001</ele>
        <time>2023-09-01T08:04:01Z</time>
      </trkpt>
      <trkpt lat="56.413349965587258" lon="-5.442855041474104">
        <ele>65.510000000000005</ele>
        <time>2023-09-01T08:04:02Z</time>
      </trkpt>
      <trkpt lat="56.413339991122484" lon="-5.442703999578953">
        <ele>65.989999999999995</ele>
        <time>2023-09-01T08:04:03Z</time>
      </trkpt>
      <trkpt lat="56.413344014436007" lon="-5.442570978775621">
        <ele>66.950000000000003</ele>
        <time>2023-09-01T08:04:04Z</time>
      </trkpt>
      <trkpt lat="56.413354994729161" lon="-5.442250035703182">
        <ele>68.390000000000001</ele>
        <time>2023-09-01T08:04:06Z</time>
      </trkpt>
      <trkpt lat="56.413380978628993" lon="-5.442076027393341">
        <ele>68.870000000000005</ele>
        <time>2023-09-01T08:04:07Z</time>
      </trkpt>
      <trkpt lat="56.413425989449024" lon="-5.441910987719894">
        <ele>69.829999999999998</ele>
        <time>2023-09-01T08:04:08Z</time>
      </trkpt>
      <trkpt lat="56.413467982783914" lon="-5.441759023815393">
        <ele>70.310000000000002</ele>
        <time>2023-09-01T08:04:09Z</time>
      </trkpt>
      <trkpt lat="56.413506036624312" lon="-5.441621979698539">
        <ele>70.790000000000006</ele>
        <time>2023-09-01T08:04:10Z</time>
      </trkpt>
      <trkpt lat="56.413534032180905" lon="-5.441453000530601">
        <ele>71.269999999999996</ele>
        <time>2023-09-01T08:04:11Z</time>
      </trkpt>
      <trkpt lat="56.413544006645679" lon="-5.441289972513914">
        <ele>71.760000000000005</ele>
        <time>2023-09-01T08:04:12Z</time>
      </trkpt>
      <trkpt lat="56.413550963625312" lon="-5.441172039136291">
        <ele>72.239999999999995</ele>
        <time>2023-09-01T08:04:13Z</time>
      </trkpt>
      <trkpt lat="56.413490027189255" lon="-5.440981015563011">
        <ele>72.719999999999999</ele>
        <time>2023-09-01T08:04:14Z</time>
      </trkpt>
      <trkpt lat="56.413440993055701" lon="-5.440826034173369">
        <ele>72.719999999999999</ele>
        <time>2023-09-01T08:04:15Z</time>
      </trkpt>
      <trkpt lat="56.413129018619657" lon="-5.439503034576774">
        <ele>73.680000000000007</ele>
        <time>2023-09-01T08:04:22Z</time>
      </trkpt>
      <trkpt lat="56.413021981716156" lon="-5.438552023842931">
        <ele>76.079999999999998</ele>
        <time>2023-09-01T08:04:27Z</time>
      </trkpt>
      <trkpt lat="56.41298602335155" lon="-5.438374998047948">
        <ele>76.560000000000002</ele>
        <time>2023-09-01T08:04:28Z</time>
      </trkpt>
      <trkpt lat="56.412845961749554" lon="-5.437817014753819">
        <ele>79.450000000000003</ele>
        <time>2023-09-01T08:04:31Z</time>
      </trkpt>
      <trkpt lat="56.412799023091793" lon="-5.43762699700892">
        <ele>80.409999999999997</ele>
        <time>2023-09-01T08:04:32Z</time>
      </trkpt>
      <trkpt lat="56.412705983966589" lon="-5.437256013974547">
        <ele>82.329999999999998</ele>
        <time>2023-09-01T08:04:34Z</time>
      </trkpt>
      <trkpt lat="56.412606993690133" lon="-5.436858963221312">
        <ele>84.730000000000004</ele>
        <time>2023-09-01T08:04:36Z</time>
      </trkpt>
      <trkpt lat="56.412527030333877" lon="-5.4367680195719">
        <ele>86.180000000000007</ele>
        <time>2023-09-01T08:04:37Z</time>
      </trkpt>
      <trkpt lat="56.412441032007337" lon="-5.436669029295445">
        <ele>88.099999999999994</ele>
        <time>2023-09-01T08:04:38Z</time>
      </trkpt>
      <trkpt lat="56.412029983475804" lon="-5.436326041817665">
        <ele>95.310000000000002</ele>
        <time>2023-09-01T08:04:42Z</time>
      </trkpt>
      <trkpt lat="56.411924958229065" lon="-5.436276001855731">
        <ele>96.269999999999996</ele>
        <time>2023-09-01T08:04:43Z</time>
      </trkpt>
      <trkpt lat="56.411815993487835" lon="-5.436267033219338">
        <ele>97.709999999999994</ele>
        <time>2023-09-01T08:04:44Z</time>
      </trkpt>
      <trkpt lat="56.411340991035104" lon="-5.436129989102483">
        <ele>100.11</ele>
        <time>2023-09-01T08:04:49Z</time>
      </trkpt>
      <trkpt lat="56.411340991035104" lon="-5.436129989102483">
        <ele>100.59999999999999</ele>
        <time>2023-09-01T08:04:50Z</time>
      </trkpt>
      <trkpt lat="56.411278964951634" lon="-5.435933014377952">
        <ele>100.59999999999999</ele>
        <time>2023-09-01T08:04:51Z</time>
      </trkpt>
      <trkpt lat="56.411235965788364" lon="-5.435797981917858">
        <ele>100.11</ele>
        <time>2023-09-01T08:04:52Z</time>
      </trkpt>
      <trkpt lat="56.411183997988701" lon="-5.435633026063442">
        <ele>99.629999999999995</ele>
        <time>2023-09-01T08:04:53Z</time>
      </trkpt>
      <trkpt lat="56.411130018532276" lon="-5.435462035238743">
        <ele>99.150000000000006</ele>
        <time>2023-09-01T08:04:54Z</time>
      </trkpt>
      <trkpt lat="56.411082996055484" lon="-5.435314010828733">
        <ele>98.189999999999998</ele>
        <time>2023-09-01T08:04:55Z</time>
      </trkpt>
      <trkpt lat="56.410832963883877" lon="-5.434987032786012">
        <ele>94.829999999999998</ele>
        <time>2023-09-01T08:04:59Z</time>
      </trkpt>
      <trkpt lat="56.410762974992394" lon="-5.434928024187684">
        <ele>92.900000000000006</ele>
        <time>2023-09-01T08:05:01Z</time>
      </trkpt>
      <trkpt lat="56.410715030506253" lon="-5.434887036681175">
        <ele>92.420000000000002</ele>
        <time>2023-09-01T08:05:02Z</time>
      </trkpt>
      <trkpt lat="56.410655016079545" lon="-5.434835990890861">
        <ele>91.459999999999994</ele>
        <time>2023-09-01T08:05:03Z</time>
      </trkpt>
      <trkpt lat="56.410611011087894" lon="-5.434799026697874">
        <ele>90.980000000000004</ele>
        <time>2023-09-01T08:05:04Z</time>
      </trkpt>
      <trkpt lat="56.410611011087894" lon="-5.434799026697874">
        <ele>90.019999999999996</ele>
        <time>2023-09-01T08:05:05Z</time>
      </trkpt>
      <trkpt lat="56.410567006096244" lon="-5.434584030881524">
        <ele>89.540000000000006</ele>
        <time>2023-09-01T08:05:06Z</time>
      </trkpt>
      <trkpt lat="56.410540016368032" lon="-5.434454027563334">
        <ele>88.579999999999998</ele>
        <time>2023-09-01T08:05:07Z</time>
      </trkpt>
      <trkpt lat="56.410512020811439" lon="-5.434317989274859">
        <ele>87.620000000000005</ele>
        <time>2023-09-01T08:05:08Z</time>
      </trkpt>
      <trkpt lat="56.410483019426465" lon="-5.434177005663514">
        <ele>86.659999999999997</ele>
        <time>2023-09-01T08:05:09Z</time>
      </trkpt>
      <trkpt lat="56.410381011664867" lon="-5.432631969451904">
        <ele>83.769999999999996</ele>
        <time>2023-09-01T08:05:16Z</time>
      </trkpt>
      <trkpt lat="56.410374976694584" lon="-5.432221004739404">
        <ele>83.769999999999996</ele>
        <time>2023-09-01T08:05:18Z</time>
      </trkpt>
      <trkpt lat="56.410374976694584" lon="-5.432027969509363">
        <ele>84.25</ele>
        <time>2023-09-01T08:05:19Z</time>
      </trkpt>
      <trkpt lat="56.410374976694584" lon="-5.431859996169806">
        <ele>84.730000000000004</ele>
        <time>2023-09-01T08:05:20Z</time>
      </trkpt>
      <trkpt lat="56.410419987514615" lon="-5.431732004508376">
        <ele>85.209999999999994</ele>
        <time>2023-09-01T08:05:21Z</time>
      </trkpt>
      <trkpt lat="56.410463992506266" lon="-5.431607030332089">
        <ele>85.689999999999998</ele>
        <time>2023-09-01T08:05:22Z</time>
      </trkpt>
      <trkpt lat="56.410986017435789" lon="-5.429913969710469">
        <ele>82.810000000000002</ele>
        <time>2023-09-01T08:05:32Z</time>
      </trkpt>
      <trkpt lat="56.411168994382024" lon="-5.429440978914499">
        <ele>82.329999999999998</ele>
        <time>2023-09-01T08:05:35Z</time>
      </trkpt>
      <trkpt lat="56.411244012415409" lon="-5.429310975596309">
        <ele>81.849999999999994</ele>
        <time>2023-09-01T08:05:36Z</time>
      </trkpt>
      <trkpt lat="56.411317018792033" lon="-5.429181978106499">
        <ele>81.370000000000005</ele>
        <time>2023-09-01T08:05:37Z</time>
      </trkpt>
      <trkpt lat="56.411670986562967" lon="-5.428564986214042">
        <ele>79.930000000000007</ele>
        <time>2023-09-01T08:05:42Z</time>
      </trkpt>
      <trkpt lat="56.412052027881145" lon="-5.427900971844792">
        <ele>74.640000000000001</ele>
        <time>2023-09-01T08:05:47Z</time>
      </trkpt>
      <trkpt lat="56.412103995680809" lon="-5.42772201821208">
        <ele>74.159999999999997</ele>
        <time>2023-09-01T08:05:48Z</time>
      </trkpt>
      <trkpt lat="56.412226036190987" lon="-5.427183983847499">
        <ele>71.760000000000005</ele>
        <time>2023-09-01T08:05:51Z</time>
      </trkpt>
      <trkpt lat="56.412264006212354" lon="-5.427015004679561">
        <ele>71.760000000000005</ele>
        <time>2023-09-01T08:05:52Z</time>
      </trkpt>
      <trkpt lat="56.412298958748579" lon="-5.426657013595104">
        <ele>72.239999999999995</ele>
        <time>2023-09-01T08:05:54Z</time>
      </trkpt>
      <trkpt lat="56.412307005375624" lon="-5.426505971699953">
        <ele>73.200000000000003</ele>
        <time>2023-09-01T08:05:55Z</time>
      </trkpt>
      <trkpt lat="56.412313962355256" lon="-5.426374962553382">
        <ele>73.200000000000003</ele>
        <time>2023-09-01T08:05:56Z</time>
      </trkpt>
      <trkpt lat="56.41231999732554" lon="-5.426244037225843">
        <ele>73.200000000000003</ele>
        <time>2023-09-01T08:05:57Z</time>
      </trkpt>
      <trkpt lat="56.412327960133553" lon="-5.426098024472594">
        <ele>73.680000000000007</ele>
        <time>2023-09-01T08:05:58Z</time>
      </trkpt>
      <trkpt lat="56.412336006760597" lon="-5.425944970920682">
        <ele>73.680000000000007</ele>
        <time>2023-09-01T08:05:59Z</time>
      </trkpt>
      <trkpt lat="56.412370959296823" lon="-5.425271987915039">
        <ele>74.159999999999997</ele>
        <time>2023-09-01T08:06:04Z</time>
      </trkpt>
      <trkpt lat="56.412453018128872" lon="-5.425002006813884">
        <ele>75.120000000000005</ele>
        <time>2023-09-01T08:06:07Z</time>
      </trkpt>
      <trkpt lat="56.412485036998987" lon="-5.424895975738764">
        <ele>75.120000000000005</ele>
        <time>2023-09-01T08:06:08Z</time>
      </trkpt>
      <trkpt lat="56.412596013396978" lon="-5.42462901212275">
        <ele>75.599999999999994</ele>
        <time>2023-09-01T08:06:11Z</time>
      </trkpt>
      <trkpt lat="56.412629038095474" lon="-5.424563968554139">
        <ele>75.599999999999994</ele>
        <time>2023-09-01T08:06:12Z</time>
      </trkpt>
      <trkpt lat="56.412659967318177" lon="-5.424501020461321">
        <ele>75.599999999999994</ele>
        <time>2023-09-01T08:06:13Z</time>
      </trkpt>
      <trkpt lat="56.412692992016673" lon="-5.424434971064329">
        <ele>75.120000000000005</ele>
        <time>2023-09-01T08:06:14Z</time>
      </trkpt>
      <trkpt lat="56.412732973694801" lon="-5.424380991607904">
        <ele>75.120000000000005</ele>
        <time>2023-09-01T08:06:15Z</time>
      </trkpt>
      <trkpt lat="56.413012007251382" lon="-5.424002967774868">
        <ele>74.640000000000001</ele>
        <time>2023-09-01T08:06:21Z</time>
      </trkpt>
      <trkpt lat="56.413045031949878" lon="-5.423858966678381">
        <ele>74.159999999999997</ele>
        <time>2023-09-01T08:06:22Z</time>
      </trkpt>
      <trkpt lat="56.413031034171581" lon="-5.42376902885735">
        <ele>73.680000000000007</ele>
        <time>2023-09-01T08:06:23Z</time>
      </trkpt>
      <trkpt lat="56.413014018908143" lon="-5.423658974468708">
        <ele>73.200000000000003</ele>
        <time>2023-09-01T08:06:24Z</time>
      </trkpt>
      <trkpt lat="56.412994991987944" lon="-5.423539029434323">
        <ele>72.719999999999999</ele>
        <time>2023-09-01T08:06:25Z</time>
      </trkpt>
      <trkpt lat="56.412839004769921" lon="-5.422532027587295">
        <ele>65.030000000000001</ele>
        <time>2023-09-01T08:06:36Z</time>
      </trkpt>
      <trkpt lat="56.412824001163244" lon="-5.422433959320188">
        <ele>62.140000000000001</ele>
        <time>2023-09-01T08:06:47Z</time>
      </trkpt>
      <trkpt lat="56.412760969251394" lon="-5.422143023461103">
        <ele>60.700000000000003</ele>
        <time>2023-09-01T08:06:57Z</time>
      </trkpt>
      <trkpt lat="56.412713024765253" lon="-5.422155009582639">
        <ele>60.219999999999999</ele>
        <time>2023-09-01T08:06:58Z</time>
      </trkpt>
      <trkpt lat="56.412647981196642" lon="-5.422170013189316">
        <ele>59.740000000000002</ele>
        <time>2023-09-01T08:06:59Z</time>
      </trkpt>
      <trkpt lat="56.412567012012005" lon="-5.422189962118864">
        <ele>59.259999999999998</ele>
        <time>2023-09-01T08:07:00Z</time>
      </trkpt>
      <trkpt lat="56.41247196123004" lon="-5.422213012352586">
        <ele>58.780000000000001</ele>
        <time>2023-09-01T08:07:01Z</time>
      </trkpt>
      <trkpt lat="56.412154035642743" lon="-5.422240002080798">
        <ele>58.299999999999997</ele>
        <time>2023-09-01T08:07:04Z</time>
      </trkpt>
      <trkpt lat="56.41167601570487" lon="-5.422088038176298">
        <ele>58.299999999999997</ele>
        <time>2023-09-01T08:07:11Z</time>
      </trkpt>
      <trkpt lat="56.411513993516564" lon="-5.422036992385984">
        <ele>58.299999999999997</ele>
        <time>2023-09-01T08:07:19Z</time>
      </trkpt>
      <trkpt lat="56.411058017984033" lon="-5.421891985461116">
        <ele>57.82</ele>
        <time>2023-09-01T08:07:25Z</time>
      </trkpt>
      <trkpt lat="56.410015979781747" lon="-5.42146903462708">
        <ele>54.93</ele>
        <time>2023-09-01T08:07:34Z</time>
      </trkpt>
      <trkpt lat="56.409061029553413" lon="-5.420949021354318">
        <ele>45.32</ele>
        <time>2023-09-01T08:07:43Z</time>
      </trkpt>
      <trkpt lat="56.40894996933639" lon="-5.420938963070512">
        <ele>44.840000000000003</ele>
        <time>2023-09-01T08:07:44Z</time>
      </trkpt>
      <trkpt lat="56.40886103734374" lon="-5.420977016910911">
        <ele>43.880000000000003</ele>
        <time>2023-09-01T08:07:45Z</time>
      </trkpt>
      <trkpt lat="56.408766992390156" lon="-5.421018004417419">
        <ele>43.399999999999999</ele>
        <time>2023-09-01T08:07:46Z</time>
      </trkpt>
      <trkpt lat="56.408672025427222" lon="-5.421059997752309">
        <ele>42.439999999999998</ele>
        <time>2023-09-01T08:07:47Z</time>
      </trkpt>
      <trkpt lat="56.408507991582155" lon="-5.421130992472172">
        <ele>41.469999999999999</ele>
        <time>2023-09-01T08:07:49Z</time>
      </trkpt>
      <trkpt lat="56.408415958285332" lon="-5.421094028279185">
        <ele>40.990000000000002</ele>
        <time>2023-09-01T08:07:50Z</time>
      </trkpt>
      <trkpt lat="56.408327026292682" lon="-5.421057986095548">
        <ele>40.509999999999998</ele>
        <time>2023-09-01T08:07:51Z</time>
      </trkpt>
      <trkpt lat="56.408237004652619" lon="-5.421022027730942">
        <ele>40.030000000000001</ele>
        <time>2023-09-01T08:07:52Z</time>
      </trkpt>
      <trkpt lat="56.408151006326079" lon="-5.420987997204065">
        <ele>40.030000000000001</ele>
        <time>2023-09-01T08:07:53Z</time>
      </trkpt>
      <trkpt lat="56.408079005777836" lon="-5.420958995819092">
        <ele>40.509999999999998</ele>
        <time>2023-09-01T08:07:54Z</time>
      </trkpt>
      <trkpt lat="56.407992001622915" lon="-5.420963019132614">
        <ele>40.990000000000002</ele>
        <time>2023-09-01T08:07:55Z</time>
      </trkpt>
      <trkpt lat="56.407921006903052" lon="-5.420966958627105">
        <ele>40.990000000000002</ele>
        <time>2023-09-01T08:07:56Z</time>
      </trkpt>
      <trkpt lat="56.407723026350141" lon="-5.42097601108253">
        <ele>42.920000000000002</ele>
        <time>2023-09-01T08:07:59Z</time>
      </trkpt>
      <trkpt lat="56.407664017751813" lon="-5.420979028567672">
        <ele>43.399999999999999</ele>
        <time>2023-09-01T08:08:00Z</time>
      </trkpt>
      <trkpt lat="56.407605009153485" lon="-5.420924965292215">
        <ele>43.880000000000003</ele>
        <time>2023-09-01T08:08:01Z</time>
      </trkpt>
      <trkpt lat="56.407571984454989" lon="-5.420843996107578">
        <ele>44.359999999999999</ele>
        <time>2023-09-01T08:08:02Z</time>
      </trkpt>
      <trkpt lat="56.407542983070016" lon="-5.420775013044477">
        <ele>44.840000000000003</ele>
        <time>2023-09-01T08:08:03Z</time>
      </trkpt>
      <trkpt lat="56.407521022483706" lon="-5.420682979747653">
        <ele>45.32</ele>
        <time>2023-09-01T08:08:04Z</time>
      </trkpt>
      <trkpt lat="56.407522028312087" lon="-5.420570997521281">
        <ele>45.32</ele>
        <time>2023-09-01T08:08:05Z</time>
      </trkpt>
      <trkpt lat="56.407546000555158" lon="-5.420474018901587">
        <ele>45.799999999999997</ele>
        <time>2023-09-01T08:08:06Z</time>
      </trkpt>
      <trkpt lat="56.407570978626609" lon="-5.42037301696837">
        <ele>46.280000000000001</ele>
        <time>2023-09-01T08:08:07Z</time>
      </trkpt>
      <trkpt lat="56.407585982233286" lon="-5.420271009206772">
        <ele>46.759999999999998</ele>
        <time>2023-09-01T08:08:08Z</time>
      </trkpt>
      <trkpt lat="56.407585982233286" lon="-5.42011502198875">
        <ele>46.759999999999998</ele>
        <time>2023-09-01T08:08:09Z</time>
      </trkpt>
      <trkpt lat="56.407585982233286" lon="-5.419458970427513">
        <ele>47.719999999999999</ele>
        <time>2023-09-01T08:08:13Z</time>
      </trkpt>
      <trkpt lat="56.407619006931782" lon="-5.419313041493297">
        <ele>47.719999999999999</ele>
        <time>2023-09-01T08:08:14Z</time>
      </trkpt>
      <trkpt lat="56.407664017751813" lon="-5.419181026518345">
        <ele>48.200000000000003</ele>
        <time>2023-09-01T08:08:15Z</time>
      </trkpt>
      <trkpt lat="56.407730989158154" lon="-5.419089999049902">
        <ele>48.200000000000003</ele>
        <time>2023-09-01T08:08:16Z</time>
      </trkpt>
      <trkpt lat="56.407807013019919" lon="-5.418986985459924">
        <ele>48.200000000000003</ele>
        <time>2023-09-01T08:08:17Z</time>
      </trkpt>
      <trkpt lat="56.407893011346459" lon="-5.418869974091649">
        <ele>47.719999999999999</ele>
        <time>2023-09-01T08:08:18Z</time>
      </trkpt>
      <trkpt lat="56.408617962151766" lon="-5.417765993624926">
        <ele>44.840000000000003</ele>
        <time>2023-09-01T08:08:26Z</time>
      </trkpt>
      <trkpt lat="56.409158008173108" lon="-5.416631000116468">
        <ele>45.32</ele>
        <time>2023-09-01T08:08:33Z</time>
      </trkpt>
      <trkpt lat="56.409194972366095" lon="-5.416474007070065">
        <ele>45.799999999999997</ele>
        <time>2023-09-01T08:08:34Z</time>
      </trkpt>
      <trkpt lat="56.409218022599816" lon="-5.416244007647038">
        <ele>46.280000000000001</ele>
        <time>2023-09-01T08:08:35Z</time>
      </trkpt>
      <trkpt lat="56.409302009269595" lon="-5.415671020746231">
        <ele>46.759999999999998</ele>
        <time>2023-09-01T08:08:38Z</time>
      </trkpt>
      <trkpt lat="56.409347020089626" lon="-5.415500029921532">
        <ele>46.759999999999998</ele>
        <time>2023-09-01T08:08:39Z</time>
      </trkpt>
      <trkpt lat="56.409452967345715" lon="-5.414988985285163">
        <ele>46.280000000000001</ele>
        <time>2023-09-01T08:08:42Z</time>
      </trkpt>
      <trkpt lat="56.409452967345715" lon="-5.414823023602366">
        <ele>45.799999999999997</ele>
        <time>2023-09-01T08:08:43Z</time>
      </trkpt>
      <trkpt lat="56.409452967345715" lon="-5.414643986150622">
        <ele>44.359999999999999</ele>
        <time>2023-09-01T08:08:44Z</time>
      </trkpt>
      <trkpt lat="56.409452967345715" lon="-5.414461009204388">
        <ele>43.399999999999999</ele>
        <time>2023-09-01T08:08:45Z</time>
      </trkpt>
      <trkpt lat="56.409452967345715" lon="-5.414393031969667">
        <ele>42.439999999999998</ele>
        <time>2023-09-01T08:08:46Z</time>
      </trkpt>
      <trkpt lat="56.409523962065578" lon="-5.414179963991046">
        <ele>41.469999999999999</ele>
        <time>2023-09-01T08:08:47Z</time>
      </trkpt>
      <trkpt lat="56.409566961228848" lon="-5.414050966501236">
        <ele>40.990000000000002</ele>
        <time>2023-09-01T08:08:48Z</time>
      </trkpt>
      <trkpt lat="56.409604009240866" lon="-5.413963962346315">
        <ele>40.030000000000001</ele>
        <time>2023-09-01T08:08:49Z</time>
      </trkpt>
      <trkpt lat="56.409654971212149" lon="-5.413867989555001">
        <ele>39.549999999999997</ele>
        <time>2023-09-01T08:08:50Z</time>
      </trkpt>
      <trkpt lat="56.409710040315986" lon="-5.413762964308262">
        <ele>39.07</ele>
        <time>2023-09-01T08:08:51Z</time>
      </trkpt>
      <trkpt lat="56.410114970058203" lon="-5.412909016013145">
        <ele>37.630000000000003</ele>
        <time>2023-09-01T08:08:57Z</time>
      </trkpt>
      <trkpt lat="56.410181019455194" lon="-5.412739031016827">
        <ele>37.149999999999999</ele>
        <time>2023-09-01T08:08:58Z</time>
      </trkpt>
      <trkpt lat="56.410329965874553" lon="-5.412195967510343">
        <ele>37.630000000000003</ele>
        <time>2023-09-01T08:09:01Z</time>
      </trkpt>
      <trkpt lat="56.410338012501597" lon="-5.412015002220869">
        <ele>37.630000000000003</ele>
        <time>2023-09-01T08:09:02Z</time>
      </trkpt>
      <trkpt lat="56.410343963652849" lon="-5.411821966990829">
        <ele>38.109999999999999</ele>
        <time>2023-09-01T08:09:03Z</time>
      </trkpt>
      <trkpt lat="56.410351004451513" lon="-5.411620968952775">
        <ele>38.109999999999999</ele>
        <time>2023-09-01T08:09:04Z</time>
      </trkpt>
      <trkpt lat="56.410340024158359" lon="-5.411423994228244">
        <ele>38.109999999999999</ele>
        <time>2023-09-01T08:09:05Z</time>
      </trkpt>
      <trkpt lat="56.410314962267876" lon="-5.411218972876668">
        <ele>38.109999999999999</ele>
        <time>2023-09-01T08:09:06Z</time>
      </trkpt>
      <trkpt lat="56.410222006961703" lon="-5.410692002624273">
        <ele>39.07</ele>
        <time>2023-09-01T08:09:09Z</time>
      </trkpt>
      <trkpt lat="56.410183031111956" lon="-5.410574991255999">
        <ele>39.549999999999997</ele>
        <time>2023-09-01T08:09:10Z</time>
      </trkpt>
      <trkpt lat="56.410127962008119" lon="-5.410526040941477">
        <ele>39.549999999999997</ele>
        <time>2023-09-01T08:09:11Z</time>
      </trkpt>
      <trkpt lat="56.410055039450526" lon="-5.410459991544485">
        <ele>39.549999999999997</ele>
        <time>2023-09-01T08:09:12Z</time>
      </trkpt>
      <trkpt lat="56.409969963133335" lon="-5.4103849735111">
        <ele>39.549999999999997</ele>
        <time>2023-09-01T08:09:13Z</time>
      </trkpt>
      <trkpt lat="56.40987197868526" lon="-5.410297969356179">
        <ele>39.549999999999997</ele>
        <time>2023-09-01T08:09:14Z</time>
      </trkpt>
      <trkpt lat="56.409773994237185" lon="-5.410223035141826">
        <ele>39.549999999999997</ele>
        <time>2023-09-01T08:09:15Z</time>
      </trkpt>
      <trkpt lat="56.409660000354052" lon="-5.410184981301427">
        <ele>39.549999999999997</ele>
        <time>2023-09-01T08:09:16Z</time>
      </trkpt>
      <trkpt lat="56.40954801812768" lon="-5.41014801710844">
        <ele>39.549999999999997</ele>
        <time>2023-09-01T08:09:17Z</time>
      </trkpt>
      <trkpt lat="56.40944299288094" lon="-5.410112980753183">
        <ele>40.030000000000001</ele>
        <time>2023-09-01T08:09:18Z</time>
      </trkpt>
      <trkpt lat="56.409352971240878" lon="-5.410010972991586">
        <ele>40.030000000000001</ele>
        <time>2023-09-01T08:09:19Z</time>
      </trkpt>
      <trkpt lat="56.409288011491299" lon="-5.409906031563878">
        <ele>40.030000000000001</ele>
        <time>2023-09-01T08:09:20Z</time>
      </trkpt>
      <trkpt lat="56.408788030967116" lon="-5.409106984734535">
        <ele>38.590000000000003</ele>
        <time>2023-09-01T08:09:28Z</time>
      </trkpt>
      <trkpt lat="56.408457029610872" lon="-5.408621001988649">
        <ele>37.149999999999999</ele>
        <time>2023-09-01T08:09:36Z</time>
      </trkpt>
      <trkpt lat="56.408331971615553" lon="-5.408477000892162">
        <ele>36.189999999999998</ele>
        <time>2023-09-01T08:09:38Z</time>
      </trkpt>
      <trkpt lat="56.408271035179496" lon="-5.408408017829061">
        <ele>36.189999999999998</ele>
        <time>2023-09-01T08:09:39Z</time>
      </trkpt>
      <trkpt lat="56.408234992995858" lon="-5.408335011452436">
        <ele>35.710000000000001</ele>
        <time>2023-09-01T08:09:40Z</time>
      </trkpt>
      <trkpt lat="56.408203979954123" lon="-5.408231997862458">
        <ele>35.229999999999997</ele>
        <time>2023-09-01T08:09:41Z</time>
      </trkpt>
      <trkpt lat="56.408170033246279" lon="-5.408120015636087">
        <ele>34.740000000000002</ele>
        <time>2023-09-01T08:09:42Z</time>
      </trkpt>
      <trkpt lat="56.408161986619234" lon="-5.407988000661135">
        <ele>34.259999999999998</ele>
        <time>2023-09-01T08:09:43Z</time>
      </trkpt>
      <trkpt lat="56.408158969134092" lon="-5.407836036756635">
        <ele>34.259999999999998</ele>
        <time>2023-09-01T08:09:44Z</time>
      </trkpt>
      <trkpt lat="56.408155029639602" lon="-5.407684994861484">
        <ele>33.780000000000001</ele>
        <time>2023-09-01T08:09:45Z</time>
      </trkpt>
      <trkpt lat="56.408116975799203" lon="-5.4069899674505">
        <ele>31.379999999999999</ele>
        <time>2023-09-01T08:09:50Z</time>
      </trkpt>
      <trkpt lat="56.40806601382792" lon="-5.406608004122973">
        <ele>30.899999999999999</ele>
        <time>2023-09-01T08:09:53Z</time>
      </trkpt>
      <trkpt lat="56.407893011346459" lon="-5.404880996793509">
        <ele>28.5</ele>
        <time>2023-09-01T08:10:04Z</time>
      </trkpt>
      <trkpt lat="56.407885970547795" lon="-5.404629958793521">
        <ele>28.5</ele>
        <time>2023-09-01T08:10:05Z</time>
      </trkpt>
      <trkpt lat="56.407976998016238" lon="-5.403919005766511">
        <ele>26.09</ele>
        <time>2023-09-01T08:10:09Z</time>
      </trkpt>
      <trkpt lat="56.408013962209225" lon="-5.403726976364851">
        <ele>25.609999999999999</ele>
        <time>2023-09-01T08:10:10Z</time>
      </trkpt>
      <trkpt lat="56.408058973029256" lon="-5.403581969439983">
        <ele>25.609999999999999</ele>
        <time>2023-09-01T08:10:11Z</time>
      </trkpt>
      <trkpt lat="56.408137008547783" lon="-5.403330009430647">
        <ele>25.129999999999999</ele>
        <time>2023-09-01T08:10:13Z</time>
      </trkpt>
      <trkpt lat="56.408186964690685" lon="-5.403171004727483">
        <ele>24.649999999999999</ele>
        <time>2023-09-01T08:10:14Z</time>
      </trkpt>
      <trkpt lat="56.408173972740769" lon="-5.403072014451027">
        <ele>24.170000000000002</ele>
        <time>2023-09-01T08:10:15Z</time>
      </trkpt>
      <trkpt lat="56.40815201215446" lon="-5.402897000312805">
        <ele>24.170000000000002</ele>
        <time>2023-09-01T08:10:16Z</time>
      </trkpt>
      <trkpt lat="56.408127034083009" lon="-5.402705976739526">
        <ele>24.170000000000002</ele>
        <time>2023-09-01T08:10:17Z</time>
      </trkpt>
      <trkpt lat="56.408101972192526" lon="-5.402511013671756">
        <ele>24.170000000000002</ele>
        <time>2023-09-01T08:10:18Z</time>
      </trkpt>
      <trkpt lat="56.408077999949455" lon="-5.402323007583618">
        <ele>24.649999999999999</ele>
        <time>2023-09-01T08:10:19Z</time>
      </trkpt>
      <trkpt lat="56.408058973029256" lon="-5.402132989838719">
        <ele>25.129999999999999</ele>
        <time>2023-09-01T08:10:20Z</time>
      </trkpt>
      <trkpt lat="56.408070037141442" lon="-5.401951018720865">
        <ele>25.609999999999999</ele>
        <time>2023-09-01T08:10:21Z</time>
      </trkpt>
      <trkpt lat="56.408079005777836" lon="-5.401778016239405">
        <ele>26.09</ele>
        <time>2023-09-01T08:10:22Z</time>
      </trkpt>
      <trkpt lat="56.408087974414229" lon="-5.401614988222718">
        <ele>27.050000000000001</ele>
        <time>2023-09-01T08:10:23Z</time>
      </trkpt>
      <trkpt lat="56.408097026869655" lon="-5.401457995176315">
        <ele>27.530000000000001</ele>
        <time>2023-09-01T08:10:24Z</time>
      </trkpt>
      <trkpt lat="56.408097026869655" lon="-5.401299996301532">
        <ele>27.530000000000001</ele>
        <time>2023-09-01T08:10:25Z</time>
      </trkpt>
      <trkpt lat="56.408009016886353" lon="-5.399263026192784">
        <ele>25.609999999999999</ele>
        <time>2023-09-01T08:10:36Z</time>
      </trkpt>
      <trkpt lat="56.407979009672999" lon="-5.398848038166761">
        <ele>24.170000000000002</ele>
        <time>2023-09-01T08:10:38Z</time>
      </trkpt>
      <trkpt lat="56.407936010509729" lon="-5.398688027635217">
        <ele>23.210000000000001</ele>
        <time>2023-09-01T08:10:39Z</time>
      </trkpt>
      <trkpt lat="56.407845988869667" lon="-5.398354008793831">
        <ele>22.73</ele>
        <time>2023-09-01T08:10:41Z</time>
      </trkpt>
      <trkpt lat="56.407801983878016" lon="-5.398187963292003">
        <ele>22.25</ele>
        <time>2023-09-01T08:10:42Z</time>
      </trkpt>
      <trkpt lat="56.407711962237954" lon="-5.397854028269649">
        <ele>21.289999999999999</ele>
        <time>2023-09-01T08:10:44Z</time>
      </trkpt>
      <trkpt lat="56.407668963074684" lon="-5.397695023566485">
        <ele>21.289999999999999</ele>
        <time>2023-09-01T08:10:45Z</time>
      </trkpt>
      <trkpt lat="56.407628981396556" lon="-5.397543981671333">
        <ele>21.289999999999999</ele>
        <time>2023-09-01T08:10:46Z</time>
      </trkpt>
      <trkpt lat="56.407588999718428" lon="-5.397396041080356">
        <ele>20.809999999999999</ele>
        <time>2023-09-01T08:10:47Z</time>
      </trkpt>
      <trkpt lat="56.407549018040299" lon="-5.397247010841966">
        <ele>20.809999999999999</ele>
        <time>2023-09-01T08:10:48Z</time>
      </trkpt>
      <trkpt lat="56.407505013048649" lon="-5.397083982825279">
        <ele>20.809999999999999</ele>
        <time>2023-09-01T08:10:49Z</time>
      </trkpt>
      <trkpt lat="56.407461008056998" lon="-5.396920032799244">
        <ele>20.809999999999999</ele>
        <time>2023-09-01T08:10:50Z</time>
      </trkpt>
      <trkpt lat="56.407390013337135" lon="-5.396782988682389">
        <ele>20.809999999999999</ele>
        <time>2023-09-01T08:10:51Z</time>
      </trkpt>
      <trkpt lat="56.407317006960511" lon="-5.396649967879057">
        <ele>20.809999999999999</ele>
        <time>2023-09-01T08:10:52Z</time>
      </trkpt>
      <trkpt lat="56.407242994755507" lon="-5.396517030894756">
        <ele>20.809999999999999</ele>
        <time>2023-09-01T08:10:53Z</time>
      </trkpt>
      <trkpt lat="56.407178035005927" lon="-5.39637403562665">
        <ele>21.289999999999999</ele>
        <time>2023-09-01T08:10:54Z</time>
      </trkpt>
      <trkpt lat="56.407115003094077" lon="-5.396227017045021">
        <ele>21.289999999999999</ele>
        <time>2023-09-01T08:10:55Z</time>
      </trkpt>
      <trkpt lat="56.406494993716478" lon="-5.394403031095862">
        <ele>23.210000000000001</ele>
        <time>2023-09-01T08:11:06Z</time>
      </trkpt>
      <trkpt lat="56.406421987339854" lon="-5.394026013091207">
        <ele>23.690000000000001</ele>
        <time>2023-09-01T08:11:08Z</time>
      </trkpt>
      <trkpt lat="56.406415030360222" lon="-5.393841024488211">
        <ele>23.690000000000001</ele>
        <time>2023-09-01T08:11:09Z</time>
      </trkpt>
      <trkpt lat="56.406408995389938" lon="-5.393658969551325">
        <ele>23.690000000000001</ele>
        <time>2023-09-01T08:11:10Z</time>
      </trkpt>
      <trkpt lat="56.40639097429812" lon="-5.393133005127311">
        <ele>24.170000000000002</ele>
        <time>2023-09-01T08:11:13Z</time>
      </trkpt>
      <trkpt lat="56.406384017318487" lon="-5.392935024574399">
        <ele>24.170000000000002</ele>
        <time>2023-09-01T08:11:14Z</time>
      </trkpt>
      <trkpt lat="56.40634504146874" lon="-5.39280703291297">
        <ele>24.649999999999999</ele>
        <time>2023-09-01T08:11:15Z</time>
      </trkpt>
      <trkpt lat="56.406299024820328" lon="-5.39265800267458">
        <ele>24.649999999999999</ele>
        <time>2023-09-01T08:11:16Z</time>
      </trkpt>
      <trkpt lat="56.406254014000297" lon="-5.39250997826457">
        <ele>25.129999999999999</ele>
        <time>2023-09-01T08:11:17Z</time>
      </trkpt>
      <trkpt lat="56.406042035669088" lon="-5.391753008589149">
        <ele>26.09</ele>
        <time>2023-09-01T08:11:22Z</time>
      </trkpt>
      <trkpt lat="56.406018985435367" lon="-5.39160599000752">
        <ele>26.57</ele>
        <time>2023-09-01T08:11:23Z</time>
      </trkpt>
      <trkpt lat="56.405998030677438" lon="-5.391468023881316">
        <ele>27.530000000000001</ele>
        <time>2023-09-01T08:11:24Z</time>
      </trkpt>
      <trkpt lat="56.405967017635703" lon="-5.391159988939762">
        <ele>28.5</ele>
        <time>2023-09-01T08:11:26Z</time>
      </trkpt>
      <trkpt lat="56.4058100245893" lon="-5.389510011300445">
        <ele>31.379999999999999</ele>
        <time>2023-09-01T08:11:34Z</time>
      </trkpt>
      <trkpt lat="56.40576995909214" lon="-5.388968037441373">
        <ele>33.299999999999997</ele>
        <time>2023-09-01T08:11:37Z</time>
      </trkpt>
      <trkpt lat="56.405731989070773" lon="-5.388434026390314">
        <ele>34.740000000000002</ele>
        <time>2023-09-01T08:11:40Z</time>
      </trkpt>
      <trkpt lat="56.405558986589313" lon="-5.387110020965338">
        <ele>37.630000000000003</ele>
        <time>2023-09-01T08:11:47Z</time>
      </trkpt>
      <trkpt lat="56.405528979375958" lon="-5.386923020705581">
        <ele>38.590000000000003</ele>
        <time>2023-09-01T08:11:48Z</time>
      </trkpt>
      <trkpt lat="56.40551196411252" lon="-5.386741971597076">
        <ele>39.07</ele>
        <time>2023-09-01T08:11:49Z</time>
      </trkpt>
      <trkpt lat="56.405496960505843" lon="-5.386562012135983">
        <ele>39.549999999999997</ele>
        <time>2023-09-01T08:11:50Z</time>
      </trkpt>
      <trkpt lat="56.405482962727547" lon="-5.386397978290916">
        <ele>40.030000000000001</ele>
        <time>2023-09-01T08:11:51Z</time>
      </trkpt>
      <trkpt lat="56.40546896494925" lon="-5.3862330224365">
        <ele>40.509999999999998</ele>
        <time>2023-09-01T08:11:52Z</time>
      </trkpt>
      <trkpt lat="56.405453961342573" lon="-5.386063037440181">
        <ele>40.990000000000002</ele>
        <time>2023-09-01T08:11:53Z</time>
      </trkpt>
      <trkpt lat="56.405439041554928" lon="-5.385887017473579">
        <ele>41.950000000000003</ele>
        <time>2023-09-01T08:11:54Z</time>
      </trkpt>
      <trkpt lat="56.405300991609693" lon="-5.384890995919704">
        <ele>45.32</ele>
        <time>2023-09-01T08:11:59Z</time>
      </trkpt>
      <trkpt lat="56.405277019366622" lon="-5.384714975953102">
        <ele>45.32</ele>
        <time>2023-09-01T08:12:00Z</time>
      </trkpt>
      <trkpt lat="56.405255980789661" lon="-5.384568963199854">
        <ele>45.32</ele>
        <time>2023-09-01T08:12:01Z</time>
      </trkpt>
      <trkpt lat="56.405235026031733" lon="-5.384411970153451">
        <ele>45.32</ele>
        <time>2023-09-01T08:12:02Z</time>
      </trkpt>
      <trkpt lat="56.405211975798011" lon="-5.384246008470655">
        <ele>45.32</ele>
        <time>2023-09-01T08:12:03Z</time>
      </trkpt>
      <trkpt lat="56.40518800355494" lon="-5.384074011817575">
        <ele>44.840000000000003</ele>
        <time>2023-09-01T08:12:04Z</time>
      </trkpt>
      <trkpt lat="56.40516797080636" lon="-5.383713003247976">
        <ele>45.32</ele>
        <time>2023-09-01T08:12:06Z</time>
      </trkpt>
      <trkpt lat="56.405220022425056" lon="-5.382234016433358">
        <ele>44.359999999999999</ele>
        <time>2023-09-01T08:12:15Z</time>
      </trkpt>
      <trkpt lat="56.405212981626391" lon="-5.382103007286787">
        <ele>43.880000000000003</ele>
        <time>2023-09-01T08:12:16Z</time>
      </trkpt>
      <trkpt lat="56.405203007161617" lon="-5.381946014240384">
        <ele>43.399999999999999</ele>
        <time>2023-09-01T08:12:17Z</time>
      </trkpt>
      <trkpt lat="56.405046014115214" lon="-5.381168005988002">
        <ele>40.509999999999998</ele>
        <time>2023-09-01T08:12:22Z</time>
      </trkpt>
      <trkpt lat="56.405030004680157" lon="-5.381018975749612">
        <ele>40.030000000000001</ele>
        <time>2023-09-01T08:12:23Z</time>
      </trkpt>
      <trkpt lat="56.40501500107348" lon="-5.380875980481505">
        <ele>39.07</ele>
        <time>2023-09-01T08:12:24Z</time>
      </trkpt>
      <trkpt lat="56.404999997466803" lon="-5.380731979385018">
        <ele>38.109999999999999</ele>
        <time>2023-09-01T08:12:25Z</time>
      </trkpt>
      <trkpt lat="56.404985999688506" lon="-5.380595019087195">
        <ele>37.630000000000003</ele>
        <time>2023-09-01T08:12:26Z</time>
      </trkpt>
      <trkpt lat="56.404967978596687" lon="-5.380426039919257">
        <ele>36.670000000000002</ele>
        <time>2023-09-01T08:12:27Z</time>
      </trkpt>
      <trkpt lat="56.404917016625404" lon="-5.380295030772686">
        <ele>35.710000000000001</ele>
        <time>2023-09-01T08:12:28Z</time>
      </trkpt>
      <trkpt lat="56.404861025512218" lon="-5.38015304133296">
        <ele>35.229999999999997</ele>
        <time>2023-09-01T08:12:29Z</time>
      </trkpt>
      <trkpt lat="56.404513008892536" lon="-5.379267996177077">
        <ele>32.340000000000003</ele>
        <time>2023-09-01T08:12:35Z</time>
      </trkpt>
      <trkpt lat="56.404480990022421" lon="-5.379131035879254">
        <ele>32.340000000000003</ele>
        <time>2023-09-01T08:12:36Z</time>
      </trkpt>
      <trkpt lat="56.404458023607731" lon="-5.378987034782767">
        <ele>32.82</ele>
        <time>2023-09-01T08:12:37Z</time>
      </trkpt>
      <trkpt lat="56.404408989474177" lon="-5.378677994012833">
        <ele>33.299999999999997</ele>
        <time>2023-09-01T08:12:39Z</time>
      </trkpt>
      <trkpt lat="56.404384011402726" lon="-5.378523012623191">
        <ele>33.299999999999997</ele>
        <time>2023-09-01T08:12:40Z</time>
      </trkpt>
      <trkpt lat="56.404359033331275" lon="-5.378361996263266">
        <ele>33.299999999999997</ele>
        <time>2023-09-01T08:12:41Z</time>
      </trkpt>
      <trkpt lat="56.40432701446116" lon="-5.378215983510017">
        <ele>33.299999999999997</ele>
        <time>2023-09-01T08:12:42Z</time>
      </trkpt>
      <trkpt lat="56.404277980327606" lon="-5.37804801017046">
        <ele>33.299999999999997</ele>
        <time>2023-09-01T08:12:43Z</time>
      </trkpt>
      <trkpt lat="56.404225006699562" lon="-5.377866039052606">
        <ele>33.299999999999997</ele>
        <time>2023-09-01T08:12:44Z</time>
      </trkpt>
      <trkpt lat="56.404063990339637" lon="-5.377316018566489">
        <ele>34.259999999999998</ele>
        <time>2023-09-01T08:12:47Z</time>
      </trkpt>
      <trkpt lat="56.40402995981276" lon="-5.377123989164829">
        <ele>35.229999999999997</ele>
        <time>2023-09-01T08:12:48Z</time>
      </trkpt>
      <trkpt lat="56.404009005054832" lon="-5.376948975026608">
        <ele>36.189999999999998</ele>
        <time>2023-09-01T08:12:49Z</time>
      </trkpt>
      <trkpt lat="56.403990983963013" lon="-5.376796005293727">
        <ele>37.630000000000003</ele>
        <time>2023-09-01T08:12:50Z</time>
      </trkpt>
      <trkpt lat="56.403981009498239" lon="-5.376643035560846">
        <ele>38.590000000000003</ele>
        <time>2023-09-01T08:12:51Z</time>
      </trkpt>
      <trkpt lat="56.403981009498239" lon="-5.375953959301114">
        <ele>39.549999999999997</ele>
        <time>2023-09-01T08:12:55Z</time>
      </trkpt>
      <trkpt lat="56.404067007824779" lon="-5.374290989711881">
        <ele>39.549999999999997</ele>
        <time>2023-09-01T08:13:04Z</time>
      </trkpt>
      <trkpt lat="56.4041349850595" lon="-5.373477023094893">
        <ele>41.469999999999999</ele>
        <time>2023-09-01T08:13:09Z</time>
      </trkpt>
      <trkpt lat="56.404159041121602" lon="-5.373353976756334">
        <ele>41.950000000000003</ele>
        <time>2023-09-01T08:13:10Z</time>
      </trkpt>
      <trkpt lat="56.404187958687544" lon="-5.373211987316608">
        <ele>41.950000000000003</ele>
        <time>2023-09-01T08:13:11Z</time>
      </trkpt>
      <trkpt lat="56.404216960072517" lon="-5.37306597456336">
        <ele>41.950000000000003</ele>
        <time>2023-09-01T08:13:12Z</time>
      </trkpt>
      <trkpt lat="56.40424101613462" lon="-5.3728929720819">
        <ele>41.950000000000003</ele>
        <time>2023-09-01T08:13:13Z</time>
      </trkpt>
      <trkpt lat="56.404246967285872" lon="-5.3727219812572">
        <ele>41.950000000000003</ele>
        <time>2023-09-01T08:13:14Z</time>
      </trkpt>
      <trkpt lat="56.404251996427774" lon="-5.372555013746023">
        <ele>41.469999999999999</ele>
        <time>2023-09-01T08:13:15Z</time>
      </trkpt>
      <trkpt lat="56.404259959235787" lon="-5.372335994616151">
        <ele>41.950000000000003</ele>
        <time>2023-09-01T08:13:16Z</time>
      </trkpt>
      <trkpt lat="56.404282003641129" lon="-5.372227029874921">
        <ele>41.950000000000003</ele>
        <time>2023-09-01T08:13:17Z</time>
      </trkpt>
      <trkpt lat="56.40454301610589" lon="-5.371147021651268">
        <ele>43.880000000000003</ele>
        <time>2023-09-01T08:13:23Z</time>
      </trkpt>
      <trkpt lat="56.40460797585547" lon="-5.370994973927736">
        <ele>43.880000000000003</ele>
        <time>2023-09-01T08:13:24Z</time>
      </trkpt>
      <trkpt lat="56.404731022194028" lon="-5.370706971734762">
        <ele>44.359999999999999</ele>
        <time>2023-09-01T08:13:26Z</time>
      </trkpt>
      <trkpt lat="56.404786007478833" lon="-5.370578980073333">
        <ele>44.840000000000003</ele>
        <time>2023-09-01T08:13:27Z</time>
      </trkpt>
      <trkpt lat="56.404806040227413" lon="-5.370437996461988">
        <ele>44.840000000000003</ele>
        <time>2023-09-01T08:13:28Z</time>
      </trkpt>
      <trkpt lat="56.404820960015059" lon="-5.370268011465669">
        <ele>44.840000000000003</ele>
        <time>2023-09-01T08:13:29Z</time>
      </trkpt>
      <trkpt lat="56.404835963621736" lon="-5.370083022862673">
        <ele>45.32</ele>
        <time>2023-09-01T08:13:30Z</time>
      </trkpt>
      <trkpt lat="56.404852978885174" lon="-5.369891999289393">
        <ele>45.32</ele>
        <time>2023-09-01T08:13:31Z</time>
      </trkpt>
      <trkpt lat="56.404953980818391" lon="-5.368360038846731">
        <ele>45.32</ele>
        <time>2023-09-01T08:13:39Z</time>
      </trkpt>
      <trkpt lat="56.404948029667139" lon="-5.36827496252954">
        <ele>45.32</ele>
        <time>2023-09-01T08:13:40Z</time>
      </trkpt>
      <trkpt lat="56.404947023838758" lon="-5.368259036913514">
        <ele>45.32</ele>
        <time>2023-09-01T08:13:41Z</time>
      </trkpt>
      <trkpt lat="56.40486597083509" lon="-5.367935998365283">
        <ele>46.280000000000001</ele>
        <time>2023-09-01T08:13:48Z</time>
      </trkpt>
      <trkpt lat="56.40484401024878" lon="-5.367847988381982">
        <ele>46.280000000000001</ele>
        <time>2023-09-01T08:13:49Z</time>
      </trkpt>
      <trkpt lat="56.404819032177329" lon="-5.367746986448765">
        <ele>46.759999999999998</ele>
        <time>2023-09-01T08:13:50Z</time>
      </trkpt>
      <trkpt lat="56.40467100776732" lon="-5.36715698428452">
        <ele>47.240000000000002</ele>
        <time>2023-09-01T08:13:57Z</time>
      </trkpt>
      <trkpt lat="56.40467100776732" lon="-5.36715698428452">
        <ele>47.240000000000002</ele>
        <time>2023-09-01T08:14:14Z</time>
      </trkpt>
      <trkpt lat="56.404652986675501" lon="-5.367084983736277">
        <ele>47.240000000000002</ele>
        <time>2023-09-01T08:14:40Z</time>
      </trkpt>
      <trkpt lat="56.404624991118908" lon="-5.366971995681524">
        <ele>47.719999999999999</ele>
        <time>2023-09-01T08:14:41Z</time>
      </trkpt>
      <trkpt lat="56.40430698171258" lon="-5.366247966885567">
        <ele>47.240000000000002</ele>
        <time>2023-09-01T08:14:47Z</time>
      </trkpt>
      <trkpt lat="56.404033983126283" lon="-5.365547994151712">
        <ele>47.240000000000002</ele>
        <time>2023-09-01T08:14:52Z</time>
      </trkpt>
      <trkpt lat="56.403996013104916" lon="-5.365407010540366">
        <ele>46.759999999999998</ele>
        <time>2023-09-01T08:14:53Z</time>
      </trkpt>
      <trkpt lat="56.403732988983393" lon="-5.364461028948426">
        <ele>46.759999999999998</ele>
        <time>2023-09-01T08:14:59Z</time>
      </trkpt>
      <trkpt lat="56.403673980385065" lon="-5.364357009530067">
        <ele>47.240000000000002</ele>
        <time>2023-09-01T08:15:00Z</time>
      </trkpt>
      <trkpt lat="56.403621006757021" lon="-5.364262964576483">
        <ele>47.240000000000002</ele>
        <time>2023-09-01T08:15:01Z</time>
      </trkpt>
      <trkpt lat="56.403520004823804" lon="-5.364085016772151">
        <ele>47.719999999999999</ele>
        <time>2023-09-01T08:15:03Z</time>
      </trkpt>
      <trkpt lat="56.403466025367379" lon="-5.36397404037416">
        <ele>47.719999999999999</ele>
        <time>2023-09-01T08:15:04Z</time>
      </trkpt>
      <trkpt lat="56.403466025367379" lon="-5.363881001248956">
        <ele>48.200000000000003</ele>
        <time>2023-09-01T08:15:05Z</time>
      </trkpt>
      <trkpt lat="56.403466025367379" lon="-5.363713027909398">
        <ele>48.68</ele>
        <time>2023-09-01T08:15:08Z</time>
      </trkpt>
      <trkpt lat="56.403466025367379" lon="-5.363686038181186">
        <ele>49.159999999999997</ele>
        <time>2023-09-01T08:15:09Z</time>
      </trkpt>
      <trkpt lat="56.403466025367379" lon="-5.363686038181186">
        <ele>49.159999999999997</ele>
        <time>2023-09-01T08:15:10Z</time>
      </trkpt>
      <trkpt lat="56.403466025367379" lon="-5.363686038181186">
        <ele>49.649999999999999</ele>
        <time>2023-09-01T08:15:14Z</time>
      </trkpt>
      <trkpt lat="56.403466025367379" lon="-5.363381020724773">
        <ele>50.609999999999999</ele>
        <time>2023-09-01T08:15:18Z</time>
      </trkpt>
      <trkpt lat="56.403463007882237" lon="-5.363292004913092">
        <ele>50.609999999999999</ele>
        <time>2023-09-01T08:15:19Z</time>
      </trkpt>
      <trkpt lat="56.403435012325644" lon="-5.363191002979875">
        <ele>50.609999999999999</ele>
        <time>2023-09-01T08:15:20Z</time>
      </trkpt>
      <trkpt lat="56.403401987627149" lon="-5.363072985783219">
        <ele>50.609999999999999</ele>
        <time>2023-09-01T08:15:21Z</time>
      </trkpt>
      <trkpt lat="56.403367035090923" lon="-5.362943988293409">
        <ele>51.090000000000003</ele>
        <time>2023-09-01T08:15:22Z</time>
      </trkpt>
      <trkpt lat="56.403329987078905" lon="-5.362810967490077">
        <ele>51.090000000000003</ele>
        <time>2023-09-01T08:15:23Z</time>
      </trkpt>
      <trkpt lat="56.403288999572396" lon="-5.362665038555861">
        <ele>51.090000000000003</ele>
        <time>2023-09-01T08:15:24Z</time>
      </trkpt>
      <trkpt lat="56.403248012065887" lon="-5.362506033852696">
        <ele>51.090000000000003</ele>
        <time>2023-09-01T08:15:25Z</time>
      </trkpt>
      <trkpt lat="56.403222028166056" lon="-5.362330013886094">
        <ele>51.090000000000003</ele>
        <time>2023-09-01T08:15:26Z</time>
      </trkpt>
      <trkpt lat="56.403144998475909" lon="-5.361800026148558">
        <ele>52.049999999999997</ele>
        <time>2023-09-01T08:15:29Z</time>
      </trkpt>
      <trkpt lat="56.4031230378896" lon="-5.361649990081787">
        <ele>52.530000000000001</ele>
        <time>2023-09-01T08:15:30Z</time>
      </trkpt>
      <trkpt lat="56.403063023462892" lon="-5.361524010077119">
        <ele>53.009999999999998</ele>
        <time>2023-09-01T08:15:31Z</time>
      </trkpt>
      <trkpt lat="56.403012983500957" lon="-5.36141898483038">
        <ele>53.490000000000002</ele>
        <time>2023-09-01T08:15:32Z</time>
      </trkpt>
      <trkpt lat="56.402965039014816" lon="-5.361316977068782">
        <ele>54.450000000000003</ele>
        <time>2023-09-01T08:15:33Z</time>
      </trkpt>
      <trkpt lat="56.402755994349718" lon="-5.360874999314547">
        <ele>58.299999999999997</ele>
        <time>2023-09-01T08:15:37Z</time>
      </trkpt>
      <trkpt lat="56.402726992964745" lon="-5.360694034025073">
        <ele>58.780000000000001</ele>
        <time>2023-09-01T08:15:38Z</time>
      </trkpt>
      <trkpt lat="56.40271601267159" lon="-5.360528994351625">
        <ele>59.259999999999998</ele>
        <time>2023-09-01T08:15:39Z</time>
      </trkpt>
      <trkpt lat="56.402705032378435" lon="-5.360365966334939">
        <ele>59.740000000000002</ele>
        <time>2023-09-01T08:15:40Z</time>
      </trkpt>
      <trkpt lat="56.402694974094629" lon="-5.360206961631775">
        <ele>60.700000000000003</ele>
        <time>2023-09-01T08:15:41Z</time>
      </trkpt>
      <trkpt lat="56.402683993801475" lon="-5.360045023262501">
        <ele>61.18</ele>
        <time>2023-09-01T08:15:42Z</time>
      </trkpt>
      <trkpt lat="56.40267301350832" lon="-5.359885012730956">
        <ele>61.659999999999997</ele>
        <time>2023-09-01T08:15:43Z</time>
      </trkpt>
      <trkpt lat="56.402476960793138" lon="-5.359372040256858">
        <ele>64.549999999999997</ele>
        <time>2023-09-01T08:15:47Z</time>
      </trkpt>
      <trkpt lat="56.402444019913673" lon="-5.359123013913631">
        <ele>65.989999999999995</ele>
        <time>2023-09-01T08:15:49Z</time>
      </trkpt>
      <trkpt lat="56.402451982721686" lon="-5.358984963968396">
        <ele>66.950000000000003</ele>
        <time>2023-09-01T08:15:50Z</time>
      </trkpt>
      <trkpt lat="56.402470003813505" lon="-5.358668966218829">
        <ele>68.390000000000001</ele>
        <time>2023-09-01T08:15:52Z</time>
      </trkpt>
      <trkpt lat="56.402471009641886" lon="-5.358471991494298">
        <ele>68.870000000000005</ele>
        <time>2023-09-01T08:15:53Z</time>
      </trkpt>
      <trkpt lat="56.402442008256912" lon="-5.358293959870935">
        <ele>69.349999999999994</ele>
        <time>2023-09-01T08:15:54Z</time>
      </trkpt>
      <trkpt lat="56.402398003265262" lon="-5.35811198875308">
        <ele>69.829999999999998</ele>
        <time>2023-09-01T08:15:55Z</time>
      </trkpt>
      <trkpt lat="56.402350980788469" lon="-5.357929011806846">
        <ele>70.310000000000002</ele>
        <time>2023-09-01T08:15:56Z</time>
      </trkpt>
      <trkpt lat="56.402303958311677" lon="-5.357742011547089">
        <ele>70.310000000000002</ele>
        <time>2023-09-01T08:15:57Z</time>
      </trkpt>
      <trkpt lat="56.402169009670615" lon="-5.357233984395862">
        <ele>69.349999999999994</ele>
        <time>2023-09-01T08:16:00Z</time>
      </trkpt>
      <trkpt lat="56.402107989415526" lon="-5.357127031311393">
        <ele>68.870000000000005</ele>
        <time>2023-09-01T08:16:01Z</time>
      </trkpt>
      <trkpt lat="56.402044035494328" lon="-5.35701303742826">
        <ele>67.909999999999997</ele>
        <time>2023-09-01T08:16:02Z</time>
      </trkpt>
      <trkpt lat="56.401977986097336" lon="-5.356896026059985">
        <ele>66.950000000000003</ele>
        <time>2023-09-01T08:16:03Z</time>
      </trkpt>
      <trkpt lat="56.40190003439784" lon="-5.35675797611475">
        <ele>65.989999999999995</ele>
        <time>2023-09-01T08:16:04Z</time>
      </trkpt>
      <trkpt lat="56.401859968900681" lon="-5.35662897862494">
        <ele>65.030000000000001</ele>
        <time>2023-09-01T08:16:05Z</time>
      </trkpt>
      <trkpt lat="56.401814036071301" lon="-5.356479026377201">
        <ele>63.579999999999998</ele>
        <time>2023-09-01T08:16:06Z</time>
      </trkpt>
      <trkpt lat="56.401806995272636" lon="-5.356350028887391">
        <ele>63.100000000000001</ele>
        <time>2023-09-01T08:16:07Z</time>
      </trkpt>
      <trkpt lat="56.401801966130733" lon="-5.356235029175878">
        <ele>62.619999999999997</ele>
        <time>2023-09-01T08:16:08Z</time>
      </trkpt>
      <trkpt lat="56.401796014979482" lon="-5.356122963130474">
        <ele>62.140000000000001</ele>
        <time>2023-09-01T08:16:09Z</time>
      </trkpt>
      <trkpt lat="56.401789980009198" lon="-5.355996983125806">
        <ele>61.659999999999997</ele>
        <time>2023-09-01T08:16:10Z</time>
      </trkpt>
      <trkpt lat="56.401783023029566" lon="-5.355860022827983">
        <ele>60.700000000000003</ele>
        <time>2023-09-01T08:16:11Z</time>
      </trkpt>
      <trkpt lat="56.401775982230902" lon="-5.355722978711128">
        <ele>60.219999999999999</ele>
        <time>2023-09-01T08:16:12Z</time>
      </trkpt>
      <trkpt lat="56.401743041351438" lon="-5.355479987338185">
        <ele>59.740000000000002</ele>
        <time>2023-09-01T08:16:14Z</time>
      </trkpt>
      <trkpt lat="56.401699958369136" lon="-5.355261974036694">
        <ele>59.259999999999998</ele>
        <time>2023-09-01T08:16:16Z</time>
      </trkpt>
      <trkpt lat="56.401478005573153" lon="-5.35372699610889">
        <ele>57.340000000000003</ele>
        <time>2023-09-01T08:16:28Z</time>
      </trkpt>
      <trkpt lat="56.401375997811556" lon="-5.352469040080905">
        <ele>59.259999999999998</ele>
        <time>2023-09-01T08:16:35Z</time>
      </trkpt>
      <trkpt lat="56.401351019740105" lon="-5.352282961830497">
        <ele>59.740000000000002</ele>
        <time>2023-09-01T08:16:36Z</time>
      </trkpt>
      <trkpt lat="56.40129704028368" lon="-5.352132003754377">
        <ele>59.740000000000002</ele>
        <time>2023-09-01T08:16:37Z</time>
      </trkpt>
      <trkpt lat="56.401230990886688" lon="-5.351976016536355">
        <ele>59.740000000000002</ele>
        <time>2023-09-01T08:16:38Z</time>
      </trkpt>
      <trkpt lat="56.401149015873671" lon="-5.351844001561403">
        <ele>59.740000000000002</ele>
        <time>2023-09-01T08:16:39Z</time>
      </trkpt>
      <trkpt lat="56.401063017547131" lon="-5.3517060354352">
        <ele>60.219999999999999</ele>
        <time>2023-09-01T08:16:40Z</time>
      </trkpt>
      <trkpt lat="56.400979030877352" lon="-5.351569997146726">
        <ele>60.219999999999999</ele>
        <time>2023-09-01T08:16:41Z</time>
      </trkpt>
      <trkpt lat="56.400830000638962" lon="-5.351330023258925">
        <ele>61.18</ele>
        <time>2023-09-01T08:16:43Z</time>
      </trkpt>
      <trkpt lat="56.400756994262338" lon="-5.351204965263605">
        <ele>61.659999999999997</ele>
        <time>2023-09-01T08:16:44Z</time>
      </trkpt>
      <trkpt lat="56.400351980701089" lon="-5.349963018670678">
        <ele>62.619999999999997</ele>
        <time>2023-09-01T08:16:51Z</time>
      </trkpt>
      <trkpt lat="56.400136984884739" lon="-5.349303027614951">
        <ele>65.510000000000005</ele>
        <time>2023-09-01T08:16:56Z</time>
      </trkpt>
      <trkpt lat="56.400134973227978" lon="-5.349139999598265">
        <ele>65.989999999999995</ele>
        <time>2023-09-01T08:16:57Z</time>
      </trkpt>
      <trkpt lat="56.400155005976558" lon="-5.349008990451694">
        <ele>66.469999999999999</ele>
        <time>2023-09-01T08:16:58Z</time>
      </trkpt>
      <trkpt lat="56.400228012353182" lon="-5.348532982170582">
        <ele>68.870000000000005</ele>
        <time>2023-09-01T08:17:01Z</time>
      </trkpt>
      <trkpt lat="56.400243015959859" lon="-5.348370037972927">
        <ele>69.349999999999994</ele>
        <time>2023-09-01T08:17:02Z</time>
      </trkpt>
      <trkpt lat="56.400226000696421" lon="-5.348209021613002">
        <ele>70.310000000000002</ele>
        <time>2023-09-01T08:17:03Z</time>
      </trkpt>
      <trkpt lat="56.400208985432982" lon="-5.348042976111174">
        <ele>71.269999999999996</ele>
        <time>2023-09-01T08:17:04Z</time>
      </trkpt>
      <trkpt lat="56.400191970169544" lon="-5.34788397140801">
        <ele>72.239999999999995</ele>
        <time>2023-09-01T08:17:05Z</time>
      </trkpt>
      <trkpt lat="56.400177972391248" lon="-5.347748016938567">
        <ele>72.719999999999999</ele>
        <time>2023-09-01T08:17:06Z</time>
      </trkpt>
      <trkpt lat="56.400164980441332" lon="-5.34762698225677">
        <ele>73.680000000000007</ele>
        <time>2023-09-01T08:17:07Z</time>
      </trkpt>
      <trkpt lat="56.40018199570477" lon="-5.347546013072133">
        <ele>74.640000000000001</ele>
        <time>2023-09-01T08:17:08Z</time>
      </trkpt>
      <trkpt lat="56.400210997089744" lon="-5.347479963675141">
        <ele>75.120000000000005</ele>
        <time>2023-09-01T08:17:09Z</time>
      </trkpt>
      <trkpt lat="56.400247039273381" lon="-5.347396982833743">
        <ele>75.120000000000005</ele>
        <time>2023-09-01T08:17:10Z</time>
      </trkpt>
      <trkpt lat="56.400287020951509" lon="-5.34730302169919">
        <ele>75.599999999999994</ele>
        <time>2023-09-01T08:17:11Z</time>
      </trkpt>
      <trkpt lat="56.400354998186231" lon="-5.347145022824407">
        <ele>76.079999999999998</ele>
        <time>2023-09-01T08:17:12Z</time>
      </trkpt>
      <trkpt lat="56.400354998186231" lon="-5.347030023112893">
        <ele>76.079999999999998</ele>
        <time>2023-09-01T08:17:13Z</time>
      </trkpt>
      <trkpt lat="56.400323985144496" lon="-5.346842017024756">
        <ele>76.079999999999998</ele>
        <time>2023-09-01T08:17:14Z</time>
      </trkpt>
      <trkpt lat="56.400278974324465" lon="-5.346740009263158">
        <ele>75.599999999999994</ele>
        <time>2023-09-01T08:17:15Z</time>
      </trkpt>
      <trkpt lat="56.400232035666704" lon="-5.346634984016419">
        <ele>75.599999999999994</ele>
        <time>2023-09-01T08:17:16Z</time>
      </trkpt>
      <trkpt lat="56.400177972391248" lon="-5.346515038982034">
        <ele>75.120000000000005</ele>
        <time>2023-09-01T08:17:17Z</time>
      </trkpt>
      <trkpt lat="56.400072025135159" lon="-5.346267018467188">
        <ele>74.640000000000001</ele>
        <time>2023-09-01T08:17:19Z</time>
      </trkpt>
      <trkpt lat="56.400045035406947" lon="-5.346118994057179">
        <ele>74.159999999999997</ele>
        <time>2023-09-01T08:17:20Z</time>
      </trkpt>
      <trkpt lat="56.39973096549511" lon="-5.34481099806726">
        <ele>69.349999999999994</ele>
        <time>2023-09-01T08:17:29Z</time>
      </trkpt>
      <trkpt lat="56.399741023778915" lon="-5.344559960067272">
        <ele>68.870000000000005</ele>
        <time>2023-09-01T08:17:30Z</time>
      </trkpt>
      <trkpt lat="56.399754015728831" lon="-5.343981022015214">
        <ele>67.909999999999997</ele>
        <time>2023-09-01T08:17:34Z</time>
      </trkpt>
      <trkpt lat="56.399728031829" lon="-5.343856969848275">
        <ele>67.430000000000007</ele>
        <time>2023-09-01T08:17:35Z</time>
      </trkpt>
      <trkpt lat="56.399691989645362" lon="-5.343749010935426">
        <ele>67.430000000000007</ele>
        <time>2023-09-01T08:17:36Z</time>
      </trkpt>
      <trkpt lat="56.399634992703795" lon="-5.343667035922408">
        <ele>67.430000000000007</ele>
        <time>2023-09-01T08:17:37Z</time>
      </trkpt>
      <trkpt lat="56.399560980498791" lon="-5.343561004847288">
        <ele>67.430000000000007</ele>
        <time>2023-09-01T08:17:38Z</time>
      </trkpt>
      <trkpt lat="56.399496020749211" lon="-5.343485986813903">
        <ele>67.430000000000007</ele>
        <time>2023-09-01T08:17:39Z</time>
      </trkpt>
      <trkpt lat="56.399415973573923" lon="-5.343393031507731">
        <ele>67.430000000000007</ele>
        <time>2023-09-01T08:17:40Z</time>
      </trkpt>
      <trkpt lat="56.399302985519171" lon="-5.343261016532779">
        <ele>67.430000000000007</ele>
        <time>2023-09-01T08:17:41Z</time>
      </trkpt>
      <trkpt lat="56.399260992184281" lon="-5.34315699711442">
        <ele>67.430000000000007</ele>
        <time>2023-09-01T08:17:42Z</time>
      </trkpt>
      <trkpt lat="56.399087989702821" lon="-5.342728011310101">
        <ele>67.430000000000007</ele>
        <time>2023-09-01T08:17:46Z</time>
      </trkpt>
      <trkpt lat="56.399065023288131" lon="-5.342673026025295">
        <ele>67.909999999999997</ele>
        <time>2023-09-01T08:17:47Z</time>
      </trkpt>
      <trkpt lat="56.399007020518184" lon="-5.342530030757189">
        <ele>69.829999999999998</ele>
        <time>2023-09-01T08:17:58Z</time>
      </trkpt>
      <trkpt lat="56.398952035233378" lon="-5.342470016330481">
        <ele>82.329999999999998</ele>
        <time>2023-09-01T08:35:06Z</time>
      </trkpt>
      <trkpt lat="56.398992016911507" lon="-5.342388963326812">
        <ele>70.310000000000002</ele>
        <time>2023-09-01T08:35:41Z</time>
      </trkpt>
      <trkpt lat="56.398997968062758" lon="-5.342387035489082">
        <ele>70.790000000000006</ele>
        <time>2023-09-01T08:36:00Z</time>
      </trkpt>
      <trkpt lat="56.398886991664767" lon="-5.342230964452028">
        <ele>70.790000000000006</ele>
        <time>2023-09-01T08:36:06Z</time>
      </trkpt>
      <trkpt lat="56.398860001936555" lon="-5.342166004702449">
        <ele>70.790000000000006</ele>
        <time>2023-09-01T08:36:07Z</time>
      </trkpt>
      <trkpt lat="56.398669984191656" lon="-5.34169502556324">
        <ele>70.790000000000006</ele>
        <time>2023-09-01T08:36:13Z</time>
      </trkpt>
      <trkpt lat="56.398553978651762" lon="-5.341410040855408">
        <ele>70.310000000000002</ele>
        <time>2023-09-01T08:36:16Z</time>
      </trkpt>
      <trkpt lat="56.398531012237072" lon="-5.34135103225708">
        <ele>70.310000000000002</ele>
        <time>2023-09-01T08:36:17Z</time>
      </trkpt>
      <trkpt lat="56.398446019738913" lon="-5.341241983696818">
        <ele>70.310000000000002</ele>
        <time>2023-09-01T08:36:18Z</time>
      </trkpt>
      <trkpt lat="56.398304030299187" lon="-5.341060012578964">
        <ele>70.310000000000002</ele>
        <time>2023-09-01T08:36:20Z</time>
      </trkpt>
      <trkpt lat="56.398230018094182" lon="-5.340964961796999">
        <ele>70.310000000000002</ele>
        <time>2023-09-01T08:36:21Z</time>
      </trkpt>
      <trkpt lat="56.397545970976353" lon="-5.340259037911892">
        <ele>73.680000000000007</ele>
        <time>2023-09-01T08:36:31Z</time>
      </trkpt>
      <trkpt lat="56.397487968206406" lon="-5.34023598767817">
        <ele>74.159999999999997</ele>
        <time>2023-09-01T08:36:32Z</time>
      </trkpt>
      <trkpt lat="56.397425020113587" lon="-5.3402120154351">
        <ele>74.640000000000001</ele>
        <time>2023-09-01T08:36:33Z</time>
      </trkpt>
      <trkpt lat="56.397357964888215" lon="-5.340187037363648">
        <ele>75.120000000000005</ele>
        <time>2023-09-01T08:36:34Z</time>
      </trkpt>
      <trkpt lat="56.396934008225799" lon="-5.340026021003723">
        <ele>77.040000000000006</ele>
        <time>2023-09-01T08:36:40Z</time>
      </trkpt>
      <trkpt lat="56.396921016275883" lon="-5.34002099186182">
        <ele>77.040000000000006</ele>
        <time>2023-09-01T08:36:41Z</time>
      </trkpt>
      <trkpt lat="56.39685396105051" lon="-5.339828040450811">
        <ele>77.519999999999996</ele>
        <time>2023-09-01T08:36:42Z</time>
      </trkpt>
      <trkpt lat="56.396822025999427" lon="-5.339736007153988">
        <ele>77.519999999999996</ele>
        <time>2023-09-01T08:36:43Z</time>
      </trkpt>
      <trkpt lat="56.39678799547255" lon="-5.339639028534293">
        <ele>78</ele>
        <time>2023-09-01T08:36:44Z</time>
      </trkpt>
      <trkpt lat="56.396753964945674" lon="-5.339540960267186">
        <ele>78</ele>
        <time>2023-09-01T08:36:45Z</time>
      </trkpt>
      <trkpt lat="56.396684981882572" lon="-5.339445993304253">
        <ele>78</ele>
        <time>2023-09-01T08:36:46Z</time>
      </trkpt>
      <trkpt lat="56.39663502573967" lon="-5.339383967220783">
        <ele>78.480000000000004</ele>
        <time>2023-09-01T08:36:47Z</time>
      </trkpt>
      <trkpt lat="56.396581968292594" lon="-5.339316995814443">
        <ele>78.480000000000004</ele>
        <time>2023-09-01T08:36:48Z</time>
      </trkpt>
      <trkpt lat="56.396190030500293" lon="-5.338477967306972">
        <ele>80.409999999999997</ele>
        <time>2023-09-01T08:36:57Z</time>
      </trkpt>
      <trkpt lat="56.395919965580106" lon="-5.337498039007187">
        <ele>79.450000000000003</ele>
        <time>2023-09-01T08:37:03Z</time>
      </trkpt>
      <trkpt lat="56.395875038579106" lon="-5.33733400516212">
        <ele>78.969999999999999</ele>
        <time>2023-09-01T08:37:04Z</time>
      </trkpt>
      <trkpt lat="56.395870009437203" lon="-5.337316989898682">
        <ele>78.969999999999999</ele>
        <time>2023-09-01T08:37:05Z</time>
      </trkpt>
      <trkpt lat="56.395889036357403" lon="-5.337069975212216">
        <ele>78.480000000000004</ele>
        <time>2023-09-01T08:37:06Z</time>
      </trkpt>
      <trkpt lat="56.395903034135699" lon="-5.336882974952459">
        <ele>78</ele>
        <time>2023-09-01T08:37:07Z</time>
      </trkpt>
      <trkpt lat="56.395918037742376" lon="-5.336675019934773">
        <ele>78</ele>
        <time>2023-09-01T08:37:08Z</time>
      </trkpt>
      <trkpt lat="56.395870009437203" lon="-5.33492797985673">
        <ele>78.480000000000004</ele>
        <time>2023-09-01T08:37:16Z</time>
      </trkpt>
      <trkpt lat="56.395824998617172" lon="-5.334803005680442">
        <ele>78.480000000000004</ele>
        <time>2023-09-01T08:37:17Z</time>
      </trkpt>
      <trkpt lat="56.395781999453902" lon="-5.334683982655406">
        <ele>78.480000000000004</ele>
        <time>2023-09-01T08:37:18Z</time>
      </trkpt>
      <trkpt lat="56.395741011947393" lon="-5.334569988772273">
        <ele>78.480000000000004</ele>
        <time>2023-09-01T08:37:19Z</time>
      </trkpt>
      <trkpt lat="56.395685020834208" lon="-5.334525983780623">
        <ele>78.480000000000004</ele>
        <time>2023-09-01T08:37:20Z</time>
      </trkpt>
      <trkpt lat="56.395602962002158" lon="-5.334460018202663">
        <ele>78.480000000000004</ele>
        <time>2023-09-01T08:37:21Z</time>
      </trkpt>
      <trkpt lat="56.395521992817521" lon="-5.334394974634051">
        <ele>78.480000000000004</ele>
        <time>2023-09-01T08:37:22Z</time>
      </trkpt>
      <trkpt lat="56.395444963127375" lon="-5.334333032369614">
        <ele>78.969999999999999</ele>
        <time>2023-09-01T08:37:23Z</time>
      </trkpt>
      <trkpt lat="56.395392995327711" lon="-5.334203029051423">
        <ele>78.480000000000004</ele>
        <time>2023-09-01T08:37:24Z</time>
      </trkpt>
      <trkpt lat="56.395369023084641" lon="-5.334101021289825">
        <ele>78.480000000000004</ele>
        <time>2023-09-01T08:37:25Z</time>
      </trkpt>
      <trkpt lat="56.395343039184809" lon="-5.333993984386325">
        <ele>78.480000000000004</ele>
        <time>2023-09-01T08:37:26Z</time>
      </trkpt>
      <trkpt lat="56.395314037799835" lon="-5.33387403935194">
        <ele>78.480000000000004</ele>
        <time>2023-09-01T08:37:27Z</time>
      </trkpt>
      <trkpt lat="56.395275983959436" lon="-5.333742024376988">
        <ele>78.480000000000004</ele>
        <time>2023-09-01T08:37:28Z</time>
      </trkpt>
      <trkpt lat="56.395222004503012" lon="-5.33361897803843">
        <ele>78.480000000000004</ele>
        <time>2023-09-01T08:37:29Z</time>
      </trkpt>
      <trkpt lat="56.394608030095696" lon="-5.332196988165379">
        <ele>78.969999999999999</ele>
        <time>2023-09-01T08:37:38Z</time>
      </trkpt>
      <trkpt lat="56.394509961828589" lon="-5.331895994022489">
        <ele>78.969999999999999</ele>
        <time>2023-09-01T08:37:40Z</time>
      </trkpt>
      <trkpt lat="56.394478026777506" lon="-5.331741012632847">
        <ele>78.969999999999999</ele>
        <time>2023-09-01T08:37:41Z</time>
      </trkpt>
      <trkpt lat="56.394449025392532" lon="-5.331601034849882">
        <ele>78.969999999999999</ele>
        <time>2023-09-01T08:37:42Z</time>
      </trkpt>
      <trkpt lat="56.394432010129094" lon="-5.331522999331355">
        <ele>78.969999999999999</ele>
        <time>2023-09-01T08:37:43Z</time>
      </trkpt>
      <trkpt lat="56.394480960443616" lon="-5.331419985741377">
        <ele>78.480000000000004</ele>
        <time>2023-09-01T08:37:44Z</time>
      </trkpt>
      <trkpt lat="56.394528988748789" lon="-5.331315966323018">
        <ele>78.480000000000004</ele>
        <time>2023-09-01T08:37:45Z</time>
      </trkpt>
      <trkpt lat="56.394583974033594" lon="-5.331198032945395">
        <ele>78.480000000000004</ele>
        <time>2023-09-01T08:37:46Z</time>
      </trkpt>
      <trkpt lat="56.39463996514678" lon="-5.331079009920359">
        <ele>78.480000000000004</ele>
        <time>2023-09-01T08:37:47Z</time>
      </trkpt>
      <trkpt lat="56.394695034250617" lon="-5.330959986895323">
        <ele>78</ele>
        <time>2023-09-01T08:37:48Z</time>
      </trkpt>
      <trkpt lat="56.394733004271984" lon="-5.330769969150424">
        <ele>78</ele>
        <time>2023-09-01T08:37:49Z</time>
      </trkpt>
      <trkpt lat="56.394733004271984" lon="-5.330620016902685">
        <ele>78</ele>
        <time>2023-09-01T08:37:50Z</time>
      </trkpt>
      <trkpt lat="56.394733004271984" lon="-5.330450031906366">
        <ele>77.519999999999996</ele>
        <time>2023-09-01T08:37:51Z</time>
      </trkpt>
      <trkpt lat="56.394733004271984" lon="-5.330268982797861">
        <ele>78</ele>
        <time>2023-09-01T08:37:52Z</time>
      </trkpt>
      <trkpt lat="56.394733004271984" lon="-5.330078965052962">
        <ele>78</ele>
        <time>2023-09-01T08:37:53Z</time>
      </trkpt>
      <trkpt lat="56.394752031192183" lon="-5.328789995983243">
        <ele>81.370000000000005</ele>
        <time>2023-09-01T08:37:59Z</time>
      </trkpt>
      <trkpt lat="56.394770974293351" lon="-5.32865303568542">
        <ele>81.849999999999994</ele>
        <time>2023-09-01T08:38:00Z</time>
      </trkpt>
      <trkpt lat="56.394787989556789" lon="-5.328528983518481">
        <ele>82.810000000000002</ele>
        <time>2023-09-01T08:38:01Z</time>
      </trkpt>
      <trkpt lat="56.394820008426905" lon="-5.328304013237357">
        <ele>84.730000000000004</ele>
        <time>2023-09-01T08:38:03Z</time>
      </trkpt>
      <trkpt lat="56.39483199454844" lon="-5.328217009082437">
        <ele>85.209999999999994</ele>
        <time>2023-09-01T08:38:04Z</time>
      </trkpt>
      <trkpt lat="56.394848003983498" lon="-5.328106032684445">
        <ele>87.620000000000005</ele>
        <time>2023-09-01T08:38:12Z</time>
      </trkpt>
      <trkpt lat="56.394883040338755" lon="-5.327853988856077">
        <ele>88.099999999999994</ele>
        <time>2023-09-01T08:38:41Z</time>
      </trkpt>
      <trkpt lat="56.394863007590175" lon="-5.327653996646404">
        <ele>87.620000000000005</ele>
        <time>2023-09-01T08:38:42Z</time>
      </trkpt>
      <trkpt lat="56.394851021468639" lon="-5.32753799110651">
        <ele>87.140000000000001</ele>
        <time>2023-09-01T08:38:43Z</time>
      </trkpt>
      <trkpt lat="56.394840041175485" lon="-5.3274280205369">
        <ele>86.659999999999997</ele>
        <time>2023-09-01T08:38:44Z</time>
      </trkpt>
      <trkpt lat="56.394817996770144" lon="-5.327204978093505">
        <ele>85.689999999999998</ele>
        <time>2023-09-01T08:38:46Z</time>
      </trkpt>
      <trkpt lat="56.394805004820228" lon="-5.327072041109204">
        <ele>85.209999999999994</ele>
        <time>2023-09-01T08:38:47Z</time>
      </trkpt>
      <trkpt lat="56.394793018698692" lon="-5.326928962022066">
        <ele>85.209999999999994</ele>
        <time>2023-09-01T08:38:48Z</time>
      </trkpt>
      <trkpt lat="56.394713977351785" lon="-5.325364982709289">
        <ele>83.769999999999996</ele>
        <time>2023-09-01T08:38:59Z</time>
      </trkpt>
      <trkpt lat="56.394716994836926" lon="-5.325241014361382">
        <ele>83.290000000000006</ele>
        <time>2023-09-01T08:39:00Z</time>
      </trkpt>
      <trkpt lat="56.394752031192183" lon="-5.32459401525557">
        <ele>82.329999999999998</ele>
        <time>2023-09-01T08:39:06Z</time>
      </trkpt>
      <trkpt lat="56.394774997606874" lon="-5.324417995288968">
        <ele>82.329999999999998</ele>
        <time>2023-09-01T08:39:08Z</time>
      </trkpt>
      <trkpt lat="56.394796036183834" lon="-5.324255973100662">
        <ele>81.849999999999994</ele>
        <time>2023-09-01T08:39:10Z</time>
      </trkpt>
      <trkpt lat="56.394812967628241" lon="-5.324123958125711">
        <ele>81.849999999999994</ele>
        <time>2023-09-01T08:39:17Z</time>
      </trkpt>
      <trkpt lat="56.394812967628241" lon="-5.324123958125711">
        <ele>81.370000000000005</ele>
        <time>2023-09-01T08:40:04Z</time>
      </trkpt>
      <trkpt lat="56.394860995933414" lon="-5.323754986748099">
        <ele>81.370000000000005</ele>
        <time>2023-09-01T08:40:14Z</time>
      </trkpt>
      <trkpt lat="56.394868958741426" lon="-5.323694972321391">
        <ele>79.450000000000003</ele>
        <time>2023-09-01T08:40:30Z</time>
      </trkpt>
      <trkpt lat="56.394868958741426" lon="-5.323694972321391">
        <ele>79.450000000000003</ele>
        <time>2023-09-01T08:40:49Z</time>
      </trkpt>
      <trkpt lat="56.394868958741426" lon="-5.323694972321391">
        <ele>79.450000000000003</ele>
        <time>2023-09-01T08:41:28Z</time>
      </trkpt>
      <trkpt lat="56.394951017573476" lon="-5.323075968772173">
        <ele>79.450000000000003</ele>
        <time>2023-09-01T08:41:44Z</time>
      </trkpt>
      <trkpt lat="56.395079009234905" lon="-5.322628961876035">
        <ele>78</ele>
        <time>2023-09-01T08:41:50Z</time>
      </trkpt>
      <trkpt lat="56.395111028105021" lon="-5.322516979649663">
        <ele>78</ele>
        <time>2023-09-01T08:41:51Z</time>
      </trkpt>
      <trkpt lat="56.395378997549415" lon="-5.321578960865736">
        <ele>78.480000000000004</ele>
        <time>2023-09-01T08:41:58Z</time>
      </trkpt>
      <trkpt lat="56.395420990884304" lon="-5.321432026103139">
        <ele>78.480000000000004</ele>
        <time>2023-09-01T08:41:59Z</time>
      </trkpt>
      <trkpt lat="56.395462984219193" lon="-5.321287019178271">
        <ele>78.480000000000004</ele>
        <time>2023-09-01T08:42:00Z</time>
      </trkpt>
      <trkpt lat="56.395504977554083" lon="-5.321137988939881">
        <ele>78.480000000000004</ele>
        <time>2023-09-01T08:42:01Z</time>
      </trkpt>
      <trkpt lat="56.395557029172778" lon="-5.32102600671351">
        <ele>78.480000000000004</ele>
        <time>2023-09-01T08:42:02Z</time>
      </trkpt>
      <trkpt lat="56.3956059794873" lon="-5.32091997563839">
        <ele>78.969999999999999</ele>
        <time>2023-09-01T08:42:03Z</time>
      </trkpt>
      <trkpt lat="56.395651996135712" lon="-5.320820985361934">
        <ele>78.969999999999999</ele>
        <time>2023-09-01T08:42:04Z</time>
      </trkpt>
      <trkpt lat="56.395696001127362" lon="-5.32072501257062">
        <ele>78.969999999999999</ele>
        <time>2023-09-01T08:42:05Z</time>
      </trkpt>
      <trkpt lat="56.395741011947393" lon="-5.320629039779306">
        <ele>78.969999999999999</ele>
        <time>2023-09-01T08:42:06Z</time>
      </trkpt>
      <trkpt lat="56.396042006090283" lon="-5.319979023188353">
        <ele>79.930000000000007</ele>
        <time>2023-09-01T08:42:15Z</time>
      </trkpt>
      <trkpt lat="56.396178966388106" lon="-5.319393966346979">
        <ele>80.409999999999997</ele>
        <time>2023-09-01T08:42:25Z</time>
      </trkpt>
      <trkpt lat="56.396195981651545" lon="-5.319321965798736">
        <ele>80.409999999999997</ele>
        <time>2023-09-01T08:42:26Z</time>
      </trkpt>
      <trkpt lat="56.396212996914983" lon="-5.319249965250492">
        <ele>80.409999999999997</ele>
        <time>2023-09-01T08:42:27Z</time>
      </trkpt>
      <trkpt lat="56.396264964714646" lon="-5.319181988015771">
        <ele>80.409999999999997</ele>
        <time>2023-09-01T08:42:28Z</time>
      </trkpt>
      <trkpt lat="56.396319027990103" lon="-5.319109987467527">
        <ele>80.890000000000001</ele>
        <time>2023-09-01T08:42:29Z</time>
      </trkpt>
      <trkpt lat="56.39637996442616" lon="-5.319030024111271">
        <ele>80.890000000000001</ele>
        <time>2023-09-01T08:42:30Z</time>
      </trkpt>
      <trkpt lat="56.396449031308293" lon="-5.318937990814447">
        <ele>81.370000000000005</ele>
        <time>2023-09-01T08:42:31Z</time>
      </trkpt>
      <trkpt lat="56.396714989095926" lon="-5.318587962538004">
        <ele>81.849999999999994</ele>
        <time>2023-09-01T08:42:35Z</time>
      </trkpt>
      <trkpt lat="56.396770980209112" lon="-5.318487966433168">
        <ele>81.849999999999994</ele>
        <time>2023-09-01T08:42:36Z</time>
      </trkpt>
      <trkpt lat="56.396978013217449" lon="-5.31795697286725">
        <ele>81.849999999999994</ele>
        <time>2023-09-01T08:42:40Z</time>
      </trkpt>
      <trkpt lat="56.397083038464189" lon="-5.317690009251237">
        <ele>81.849999999999994</ele>
        <time>2023-09-01T08:42:42Z</time>
      </trkpt>
      <trkpt lat="56.397242965176702" lon="-5.317339980974793">
        <ele>82.810000000000002</ele>
        <time>2023-09-01T08:42:45Z</time>
      </trkpt>
      <trkpt lat="56.397293005138636" lon="-5.317195979878306">
        <ele>82.810000000000002</ele>
        <time>2023-09-01T08:42:46Z</time>
      </trkpt>
      <trkpt lat="56.397510012611747" lon="-5.316395005211234">
        <ele>84.25</ele>
        <time>2023-09-01T08:42:51Z</time>
      </trkpt>
      <trkpt lat="56.397534990683198" lon="-5.316225020214915">
        <ele>84.730000000000004</ele>
        <time>2023-09-01T08:42:52Z</time>
      </trkpt>
      <trkpt lat="56.397583018988371" lon="-5.315900975838304">
        <ele>86.180000000000007</ele>
        <time>2023-09-01T08:42:54Z</time>
      </trkpt>
      <trkpt lat="56.397630041465163" lon="-5.315582966431975">
        <ele>88.099999999999994</ele>
        <time>2023-09-01T08:42:56Z</time>
      </trkpt>
      <trkpt lat="56.397654013708234" lon="-5.31541801057756">
        <ele>89.060000000000002</ele>
        <time>2023-09-01T08:42:57Z</time>
      </trkpt>
      <trkpt lat="56.397907985374331" lon="-5.313696032389998">
        <ele>93.390000000000001</ele>
        <time>2023-09-01T08:43:07Z</time>
      </trkpt>
      <trkpt lat="56.397965988144279" lon="-5.313562005758286">
        <ele>93.390000000000001</ele>
        <time>2023-09-01T08:43:08Z</time>
      </trkpt>
      <trkpt lat="56.398020973429084" lon="-5.313435019925237">
        <ele>93.390000000000001</ele>
        <time>2023-09-01T08:43:09Z</time>
      </trkpt>
      <trkpt lat="56.39807797037065" lon="-5.313306022435427">
        <ele>93.390000000000001</ele>
        <time>2023-09-01T08:43:10Z</time>
      </trkpt>
      <trkpt lat="56.398136978968978" lon="-5.313170989975333">
        <ele>93.390000000000001</ele>
        <time>2023-09-01T08:43:11Z</time>
      </trkpt>
      <trkpt lat="56.398197999224067" lon="-5.313032018020749">
        <ele>93.390000000000001</ele>
        <time>2023-09-01T08:43:12Z</time>
      </trkpt>
      <trkpt lat="56.398258013650775" lon="-5.312894973903894">
        <ele>92.900000000000006</ele>
        <time>2023-09-01T08:43:13Z</time>
      </trkpt>
      <trkpt lat="56.398309981450438" lon="-5.312742004171014">
        <ele>92.420000000000002</ele>
        <time>2023-09-01T08:43:14Z</time>
      </trkpt>
      <trkpt lat="56.398345017805696" lon="-5.312575958669186">
        <ele>92.420000000000002</ele>
        <time>2023-09-01T08:43:15Z</time>
      </trkpt>
      <trkpt lat="56.398380976170301" lon="-5.312408991158009">
        <ele>91.939999999999998</ele>
        <time>2023-09-01T08:43:16Z</time>
      </trkpt>
      <trkpt lat="56.398508967831731" lon="-5.311803985387087">
        <ele>91.459999999999994</ele>
        <time>2023-09-01T08:43:20Z</time>
      </trkpt>
      <trkpt lat="56.398580968379974" lon="-5.311672976240516">
        <ele>91.459999999999994</ele>
        <time>2023-09-01T08:43:21Z</time>
      </trkpt>
      <trkpt lat="56.398924039676785" lon="-5.311048021540046">
        <ele>90.980000000000004</ele>
        <time>2023-09-01T08:43:27Z</time>
      </trkpt>
      <trkpt lat="56.398988999426365" lon="-5.310999993234873">
        <ele>90.980000000000004</ele>
        <time>2023-09-01T08:43:28Z</time>
      </trkpt>
      <trkpt lat="56.399054965004325" lon="-5.3109519649297">
        <ele>90.5</ele>
        <time>2023-09-01T08:43:29Z</time>
      </trkpt>
      <trkpt lat="56.399117996916175" lon="-5.31090603210032">
        <ele>90.5</ele>
        <time>2023-09-01T08:43:30Z</time>
      </trkpt>
      <trkpt lat="56.399173988029361" lon="-5.310864960774779">
        <ele>90.5</ele>
        <time>2023-09-01T08:43:31Z</time>
      </trkpt>
      <trkpt lat="56.399239031597972" lon="-5.310817016288638">
        <ele>90.980000000000004</ele>
        <time>2023-09-01T08:43:32Z</time>
      </trkpt>
      <trkpt lat="56.3992790132761" lon="-5.310763036832213">
        <ele>90.980000000000004</ele>
        <time>2023-09-01T08:43:33Z</time>
      </trkpt>
      <trkpt lat="56.399338021874428" lon="-5.310681983828545">
        <ele>90.980000000000004</ele>
        <time>2023-09-01T08:43:34Z</time>
      </trkpt>
      <trkpt lat="56.399402981624007" lon="-5.310592968016863">
        <ele>90.980000000000004</ele>
        <time>2023-09-01T08:43:35Z</time>
      </trkpt>
      <trkpt lat="56.399696012958884" lon="-5.310196001082659">
        <ele>90.980000000000004</ele>
        <time>2023-09-01T08:43:39Z</time>
      </trkpt>
      <trkpt lat="56.399779999628663" lon="-5.310083013027906">
        <ele>90.980000000000004</ele>
        <time>2023-09-01T08:43:40Z</time>
      </trkpt>
      <trkpt lat="56.400114018470049" lon="-5.309628965333104">
        <ele>91.939999999999998</ele>
        <time>2023-09-01T08:43:45Z</time>
      </trkpt>
      <trkpt lat="56.400149976834655" lon="-5.309550007805228">
        <ele>92.420000000000002</ele>
        <time>2023-09-01T08:43:46Z</time>
      </trkpt>
      <trkpt lat="56.400178978219628" lon="-5.309415981173515">
        <ele>92.900000000000006</ele>
        <time>2023-09-01T08:43:47Z</time>
      </trkpt>
      <trkpt lat="56.400210997089744" lon="-5.309276003390551">
        <ele>92.900000000000006</ele>
        <time>2023-09-01T08:43:48Z</time>
      </trkpt>
      <trkpt lat="56.400242010131478" lon="-5.309133008122444">
        <ele>92.900000000000006</ele>
        <time>2023-09-01T08:43:49Z</time>
      </trkpt>
      <trkpt lat="56.400275034829974" lon="-5.308986995369196">
        <ele>92.900000000000006</ele>
        <time>2023-09-01T08:43:50Z</time>
      </trkpt>
      <trkpt lat="56.400306969881058" lon="-5.308840982615948">
        <ele>92.900000000000006</ele>
        <time>2023-09-01T08:43:51Z</time>
      </trkpt>
      <trkpt lat="56.400338988751173" lon="-5.308697987347841">
        <ele>92.900000000000006</ele>
        <time>2023-09-01T08:43:52Z</time>
      </trkpt>
      <trkpt lat="56.400356004014611" lon="-5.308552980422974">
        <ele>92.900000000000006</ele>
        <time>2023-09-01T08:43:53Z</time>
      </trkpt>
      <trkpt lat="56.400360027328134" lon="-5.308395987376571">
        <ele>93.390000000000001</ele>
        <time>2023-09-01T08:43:54Z</time>
      </trkpt>
      <trkpt lat="56.400375030934811" lon="-5.307814031839371">
        <ele>95.310000000000002</ele>
        <time>2023-09-01T08:43:58Z</time>
      </trkpt>
      <trkpt lat="56.400413000956178" lon="-5.307716969400644">
        <ele>95.790000000000006</ele>
        <time>2023-09-01T08:43:59Z</time>
      </trkpt>
      <trkpt lat="56.400463040918112" lon="-5.307615967467427">
        <ele>95.790000000000006</ele>
        <time>2023-09-01T08:44:00Z</time>
      </trkpt>
      <trkpt lat="56.400569994002581" lon="-5.307402983307838">
        <ele>96.75</ele>
        <time>2023-09-01T08:44:02Z</time>
      </trkpt>
      <trkpt lat="56.400625985115767" lon="-5.307292006909847">
        <ele>97.230000000000004</ele>
        <time>2023-09-01T08:44:03Z</time>
      </trkpt>
      <trkpt lat="56.400680970400572" lon="-5.307181030511856">
        <ele>97.230000000000004</ele>
        <time>2023-09-01T08:44:04Z</time>
      </trkpt>
      <trkpt lat="56.400734027847648" lon="-5.307074999436736">
        <ele>97.709999999999994</ele>
        <time>2023-09-01T08:44:05Z</time>
      </trkpt>
      <trkpt lat="56.400762023404241" lon="-5.30701900832355">
        <ele>98.670000000000002</ele>
        <time>2023-09-01T08:44:06Z</time>
      </trkpt>
      <trkpt lat="56.400750037282705" lon="-5.306834019720554">
        <ele>99.150000000000006</ele>
        <time>2023-09-01T08:44:07Z</time>
      </trkpt>
      <trkpt lat="56.400741990655661" lon="-5.306708039715886">
        <ele>99.150000000000006</ele>
        <time>2023-09-01T08:44:08Z</time>
      </trkpt>
      <trkpt lat="56.400733022019267" lon="-5.306578036397696">
        <ele>99.150000000000006</ele>
        <time>2023-09-01T08:44:09Z</time>
      </trkpt>
      <trkpt lat="56.400723969563842" lon="-5.30643898062408">
        <ele>99.150000000000006</ele>
        <time>2023-09-01T08:44:10Z</time>
      </trkpt>
      <trkpt lat="56.400722963735461" lon="-5.306303026154637">
        <ele>98.670000000000002</ele>
        <time>2023-09-01T08:44:11Z</time>
      </trkpt>
      <trkpt lat="56.400731010362506" lon="-5.306167993694544">
        <ele>98.670000000000002</ele>
        <time>2023-09-01T08:44:12Z</time>
      </trkpt>
      <trkpt lat="56.400737967342138" lon="-5.306044025346637">
        <ele>98.670000000000002</ele>
        <time>2023-09-01T08:44:13Z</time>
      </trkpt>
      <trkpt lat="56.400762023404241" lon="-5.305942017585039">
        <ele>98.670000000000002</ele>
        <time>2023-09-01T08:44:14Z</time>
      </trkpt>
      <trkpt lat="56.400808962062001" lon="-5.305835986509919">
        <ele>98.189999999999998</ele>
        <time>2023-09-01T08:44:15Z</time>
      </trkpt>
      <trkpt lat="56.400861013680696" lon="-5.305720986798406">
        <ele>98.189999999999998</ele>
        <time>2023-09-01T08:44:16Z</time>
      </trkpt>
      <trkpt lat="56.401240965351462" lon="-5.304869972169399">
        <ele>100.59999999999999</ele>
        <time>2023-09-01T08:44:23Z</time>
      </trkpt>
      <trkpt lat="56.401282958686352" lon="-5.304728988558054">
        <ele>101.08</ele>
        <time>2023-09-01T08:44:24Z</time>
      </trkpt>
      <trkpt lat="56.401296034455299" lon="-5.304581969976425">
        <ele>101.56</ele>
        <time>2023-09-01T08:44:25Z</time>
      </trkpt>
      <trkpt lat="56.401310032233596" lon="-5.304436963051558">
        <ele>102.04000000000001</ele>
        <time>2023-09-01T08:44:26Z</time>
      </trkpt>
      <trkpt lat="56.401324030011892" lon="-5.304291034117341">
        <ele>103</ele>
        <time>2023-09-01T08:44:27Z</time>
      </trkpt>
      <trkpt lat="56.401341967284679" lon="-5.304101016372442">
        <ele>103.48</ele>
        <time>2023-09-01T08:44:28Z</time>
      </trkpt>
      <trkpt lat="56.401341967284679" lon="-5.303790969774127">
        <ele>105.40000000000001</ele>
        <time>2023-09-01T08:44:30Z</time>
      </trkpt>
      <trkpt lat="56.401341967284679" lon="-5.303459968417883">
        <ele>106.84</ele>
        <time>2023-09-01T08:44:32Z</time>
      </trkpt>
      <trkpt lat="56.401341967284679" lon="-5.303328037261963">
        <ele>107.81</ele>
        <time>2023-09-01T08:44:33Z</time>
      </trkpt>
      <trkpt lat="56.401371974498034" lon="-5.303079010918737">
        <ele>108.29000000000001</ele>
        <time>2023-09-01T08:44:35Z</time>
      </trkpt>
      <trkpt lat="56.401386978104711" lon="-5.302954958751798">
        <ele>108.77</ele>
        <time>2023-09-01T08:44:36Z</time>
      </trkpt>
      <trkpt lat="56.401446992531419" lon="-5.302389012649655">
        <ele>108.29000000000001</ele>
        <time>2023-09-01T08:44:40Z</time>
      </trkpt>
      <trkpt lat="56.401442969217896" lon="-5.302254986017942">
        <ele>107.81</ele>
        <time>2023-09-01T08:44:41Z</time>
      </trkpt>
      <trkpt lat="56.401439029723406" lon="-5.30211802572012">
        <ele>107.31999999999999</ele>
        <time>2023-09-01T08:44:42Z</time>
      </trkpt>
      <trkpt lat="56.401430983096361" lon="-5.301829017698765">
        <ele>105.88</ele>
        <time>2023-09-01T08:44:44Z</time>
      </trkpt>
      <trkpt lat="56.401445986703038" lon="-5.301672024652362">
        <ele>104.92</ele>
        <time>2023-09-01T08:44:45Z</time>
      </trkpt>
      <trkpt lat="56.401494015008211" lon="-5.301549984142184">
        <ele>104.44</ele>
        <time>2023-09-01T08:44:46Z</time>
      </trkpt>
      <trkpt lat="56.401545982807875" lon="-5.301419980823994">
        <ele>103.95999999999999</ele>
        <time>2023-09-01T08:44:47Z</time>
      </trkpt>
      <trkpt lat="56.40159803442657" lon="-5.301287965849042">
        <ele>103</ele>
        <time>2023-09-01T08:44:48Z</time>
      </trkpt>
      <trkpt lat="56.401753015816212" lon="-5.300897033885121">
        <ele>101.56</ele>
        <time>2023-09-01T08:44:51Z</time>
      </trkpt>
      <trkpt lat="56.401803977787495" lon="-5.300768036395311">
        <ele>101.08</ele>
        <time>2023-09-01T08:44:52Z</time>
      </trkpt>
      <trkpt lat="56.401848988607526" lon="-5.300618000328541">
        <ele>100.11</ele>
        <time>2023-09-01T08:44:53Z</time>
      </trkpt>
      <trkpt lat="56.40194202773273" lon="-5.300151966512203">
        <ele>98.670000000000002</ele>
        <time>2023-09-01T08:44:56Z</time>
      </trkpt>
      <trkpt lat="56.401960970833898" lon="-5.299974018707871">
        <ele>98.189999999999998</ele>
        <time>2023-09-01T08:44:57Z</time>
      </trkpt>
      <trkpt lat="56.401995001360774" lon="-5.299664977937937">
        <ele>97.230000000000004</ele>
        <time>2023-09-01T08:44:59Z</time>
      </trkpt>
      <trkpt lat="56.402006987482309" lon="-5.299551989883184">
        <ele>96.75</ele>
        <time>2023-09-01T08:45:00Z</time>
      </trkpt>
      <trkpt lat="56.402059961110353" lon="-5.299417041242123">
        <ele>96.75</ele>
        <time>2023-09-01T08:45:01Z</time>
      </trkpt>
      <trkpt lat="56.402103966102004" lon="-5.299304975196719">
        <ele>96.269999999999996</ele>
        <time>2023-09-01T08:45:02Z</time>
      </trkpt>
      <trkpt lat="56.402147971093655" lon="-5.299193998798728">
        <ele>95.790000000000006</ele>
        <time>2023-09-01T08:45:03Z</time>
      </trkpt>
      <trkpt lat="56.402191976085305" lon="-5.299083022400737">
        <ele>95.790000000000006</ele>
        <time>2023-09-01T08:45:04Z</time>
      </trkpt>
      <trkpt lat="56.402234975248575" lon="-5.298972968012095">
        <ele>95.790000000000006</ele>
        <time>2023-09-01T08:45:05Z</time>
      </trkpt>
      <trkpt lat="56.402273029088974" lon="-5.2988759893924">
        <ele>95.790000000000006</ele>
        <time>2023-09-01T08:45:06Z</time>
      </trkpt>
      <trkpt lat="56.402271017432213" lon="-5.298761995509267">
        <ele>95.790000000000006</ele>
        <time>2023-09-01T08:45:07Z</time>
      </trkpt>
      <trkpt lat="56.402252996340394" lon="-5.298665016889572">
        <ele>95.790000000000006</ele>
        <time>2023-09-01T08:45:08Z</time>
      </trkpt>
      <trkpt lat="56.402234975248575" lon="-5.298562003299594">
        <ele>95.790000000000006</ele>
        <time>2023-09-01T08:45:09Z</time>
      </trkpt>
      <trkpt lat="56.402214020490646" lon="-5.298451026901603">
        <ele>95.310000000000002</ele>
        <time>2023-09-01T08:45:10Z</time>
      </trkpt>
      <trkpt lat="56.402203040197492" lon="-5.298335021361709">
        <ele>95.310000000000002</ele>
        <time>2023-09-01T08:45:11Z</time>
      </trkpt>
      <trkpt lat="56.402214020490646" lon="-5.298213986679912">
        <ele>95.310000000000002</ele>
        <time>2023-09-01T08:45:12Z</time>
      </trkpt>
      <trkpt lat="56.402232963591814" lon="-5.298094041645527">
        <ele>95.790000000000006</ele>
        <time>2023-09-01T08:45:13Z</time>
      </trkpt>
      <trkpt lat="56.402270011603832" lon="-5.297964960336685">
        <ele>96.269999999999996</ele>
        <time>2023-09-01T08:45:14Z</time>
      </trkpt>
      <trkpt lat="56.402306975796819" lon="-5.297834035009146">
        <ele>96.269999999999996</ele>
        <time>2023-09-01T08:45:15Z</time>
      </trkpt>
      <trkpt lat="56.402543010190129" lon="-5.297002969309688">
        <ele>98.670000000000002</ele>
        <time>2023-09-01T08:45:21Z</time>
      </trkpt>
      <trkpt lat="56.402579974383116" lon="-5.296871038153768">
        <ele>99.629999999999995</ele>
        <time>2023-09-01T08:45:22Z</time>
      </trkpt>
      <trkpt lat="56.402655998244882" lon="-5.296603990718722">
        <ele>100.11</ele>
        <time>2023-09-01T08:45:24Z</time>
      </trkpt>
      <trkpt lat="56.402684999629855" lon="-5.296456972137094">
        <ele>100.59999999999999</ele>
        <time>2023-09-01T08:45:25Z</time>
      </trkpt>
      <trkpt lat="56.402727998793125" lon="-5.2961699757725">
        <ele>100.11</ele>
        <time>2023-09-01T08:45:27Z</time>
      </trkpt>
      <trkpt lat="56.402831012383103" lon="-5.29483599588275">
        <ele>100.11</ele>
        <time>2023-09-01T08:45:36Z</time>
      </trkpt>
      <trkpt lat="56.402840986847878" lon="-5.29468403197825">
        <ele>100.11</ele>
        <time>2023-09-01T08:45:37Z</time>
      </trkpt>
      <trkpt lat="56.402879962697625" lon="-5.29451496899128">
        <ele>99.629999999999995</ele>
        <time>2023-09-01T08:45:38Z</time>
      </trkpt>
      <trkpt lat="56.402924973517656" lon="-5.294361999258399">
        <ele>99.150000000000006</ele>
        <time>2023-09-01T08:45:39Z</time>
      </trkpt>
      <trkpt lat="56.402971995994449" lon="-5.294202994555235">
        <ele>99.150000000000006</ele>
        <time>2023-09-01T08:45:40Z</time>
      </trkpt>
      <trkpt lat="56.403019018471241" lon="-5.294046001508832">
        <ele>98.670000000000002</ele>
        <time>2023-09-01T08:45:41Z</time>
      </trkpt>
      <trkpt lat="56.403094958513975" lon="-5.293785994872451">
        <ele>97.709999999999994</ele>
        <time>2023-09-01T08:45:43Z</time>
      </trkpt>
      <trkpt lat="56.4031230378896" lon="-5.29365498572588">
        <ele>97.709999999999994</ele>
        <time>2023-09-01T08:45:44Z</time>
      </trkpt>
      <trkpt lat="56.4031230378896" lon="-5.293508972972632">
        <ele>97.709999999999994</ele>
        <time>2023-09-01T08:45:45Z</time>
      </trkpt>
      <trkpt lat="56.403084984049201" lon="-5.293190041556954">
        <ele>97.709999999999994</ele>
        <time>2023-09-01T08:45:47Z</time>
      </trkpt>
      <trkpt lat="56.403056988492608" lon="-5.293040005490184">
        <ele>97.709999999999994</ele>
        <time>2023-09-01T08:45:48Z</time>
      </trkpt>
      <trkpt lat="56.403010971844196" lon="-5.29275200329721">
        <ele>97.230000000000004</ele>
        <time>2023-09-01T08:45:50Z</time>
      </trkpt>
      <trkpt lat="56.403003009036183" lon="-5.292616970837116">
        <ele>97.230000000000004</ele>
        <time>2023-09-01T08:45:51Z</time>
      </trkpt>
      <trkpt lat="56.402994962409139" lon="-5.292481016367674">
        <ele>96.75</ele>
        <time>2023-09-01T08:45:52Z</time>
      </trkpt>
      <trkpt lat="56.403029998764396" lon="-5.29236601665616">
        <ele>96.75</ele>
        <time>2023-09-01T08:45:53Z</time>
      </trkpt>
      <trkpt lat="56.403075009584427" lon="-5.292238024994731">
        <ele>96.269999999999996</ele>
        <time>2023-09-01T08:45:54Z</time>
      </trkpt>
      <trkpt lat="56.403122032061219" lon="-5.292103998363018">
        <ele>96.269999999999996</ele>
        <time>2023-09-01T08:45:55Z</time>
      </trkpt>
      <trkpt lat="56.403166959062219" lon="-5.291973995044828">
        <ele>96.269999999999996</ele>
        <time>2023-09-01T08:45:56Z</time>
      </trkpt>
      <trkpt lat="56.40323200263083" lon="-5.29187198728323">
        <ele>96.75</ele>
        <time>2023-09-01T08:45:57Z</time>
      </trkpt>
      <trkpt lat="56.403299979865551" lon="-5.29176402837038">
        <ele>96.75</ele>
        <time>2023-09-01T08:45:58Z</time>
      </trkpt>
      <trkpt lat="56.403423026204109" lon="-5.291568981483579">
        <ele>97.709999999999994</ele>
        <time>2023-09-01T08:46:00Z</time>
      </trkpt>
      <trkpt lat="56.403480023145676" lon="-5.291405031457543">
        <ele>98.189999999999998</ele>
        <time>2023-09-01T08:46:01Z</time>
      </trkpt>
      <trkpt lat="56.403526039794087" lon="-5.291272010654211">
        <ele>98.670000000000002</ele>
        <time>2023-09-01T08:46:02Z</time>
      </trkpt>
      <trkpt lat="56.403569960966706" lon="-5.291142007336021">
        <ele>98.670000000000002</ele>
        <time>2023-09-01T08:46:03Z</time>
      </trkpt>
      <trkpt lat="56.403612960129976" lon="-5.291017033159733">
        <ele>99.150000000000006</ele>
        <time>2023-09-01T08:46:04Z</time>
      </trkpt>
      <trkpt lat="56.403644979000092" lon="-5.290889041498303">
        <ele>99.629999999999995</ele>
        <time>2023-09-01T08:46:05Z</time>
      </trkpt>
      <trkpt lat="56.403804989531636" lon="-5.289677018299699">
        <ele>103.95999999999999</ele>
        <time>2023-09-01T08:46:13Z</time>
      </trkpt>
      <trkpt lat="56.404087962582707" lon="-5.288265002891421">
        <ele>104.44</ele>
        <time>2023-09-01T08:46:21Z</time>
      </trkpt>
      <trkpt lat="56.404084023088217" lon="-5.288064004853368">
        <ele>104.44</ele>
        <time>2023-09-01T08:46:22Z</time>
      </trkpt>
      <trkpt lat="56.404078993946314" lon="-5.287879016250372">
        <ele>104.44</ele>
        <time>2023-09-01T08:46:23Z</time>
      </trkpt>
      <trkpt lat="56.404082011431456" lon="-5.287160016596317">
        <ele>104.44</ele>
        <time>2023-09-01T08:46:27Z</time>
      </trkpt>
      <trkpt lat="56.404097015038133" lon="-5.286978967487812">
        <ele>104.44</ele>
        <time>2023-09-01T08:46:28Z</time>
      </trkpt>
      <trkpt lat="56.404114030301571" lon="-5.286806970834732">
        <ele>104.92</ele>
        <time>2023-09-01T08:46:29Z</time>
      </trkpt>
      <trkpt lat="56.404313016682863" lon="-5.285758981481195">
        <ele>105.88</ele>
        <time>2023-09-01T08:46:35Z</time>
      </trkpt>
      <trkpt lat="56.40460898168385" lon="-5.283588990569115">
        <ele>110.69</ele>
        <time>2023-09-01T08:46:46Z</time>
      </trkpt>
      <trkpt lat="56.404661033302546" lon="-5.283425040543079">
        <ele>110.69</ele>
        <time>2023-09-01T08:46:47Z</time>
      </trkpt>
      <trkpt lat="56.404710989445448" lon="-5.283267963677645">
        <ele>111.17</ele>
        <time>2023-09-01T08:46:48Z</time>
      </trkpt>
      <trkpt lat="56.405232008546591" lon="-5.282215029001236">
        <ele>113.56999999999999</ele>
        <time>2023-09-01T08:46:56Z</time>
      </trkpt>
      <trkpt lat="56.405292022973299" lon="-5.282058035954833">
        <ele>113.56999999999999</ele>
        <time>2023-09-01T08:46:57Z</time>
      </trkpt>
      <trkpt lat="56.405338039621711" lon="-5.281917974352837">
        <ele>113.56999999999999</ele>
        <time>2023-09-01T08:46:58Z</time>
      </trkpt>
      <trkpt lat="56.405353965237737" lon="-5.281739020720124">
        <ele>113.09</ele>
        <time>2023-09-01T08:46:59Z</time>
      </trkpt>
      <trkpt lat="56.405353965237737" lon="-5.281584961339831">
        <ele>113.56999999999999</ele>
        <time>2023-09-01T08:47:00Z</time>
      </trkpt>
      <trkpt lat="56.405353965237737" lon="-5.28143098577857">
        <ele>113.56999999999999</ele>
        <time>2023-09-01T08:47:01Z</time>
      </trkpt>
      <trkpt lat="56.405391013249755" lon="-5.281294025480747">
        <ele>113.56999999999999</ele>
        <time>2023-09-01T08:47:02Z</time>
      </trkpt>
      <trkpt lat="56.405439963564277" lon="-5.281155975535512">
        <ele>114.05</ele>
        <time>2023-09-01T08:47:03Z</time>
      </trkpt>
      <trkpt lat="56.405491009354591" lon="-5.281010968610644">
        <ele>114.05</ele>
        <time>2023-09-01T08:47:04Z</time>
      </trkpt>
      <trkpt lat="56.405540965497494" lon="-5.280869984999299">
        <ele>114.53</ele>
        <time>2023-09-01T08:47:05Z</time>
      </trkpt>
      <trkpt lat="56.405585976317525" lon="-5.280740987509489">
        <ele>114.53</ele>
        <time>2023-09-01T08:47:06Z</time>
      </trkpt>
      <trkpt lat="56.405654959380627" lon="-5.280638979747891">
        <ele>115.01000000000001</ele>
        <time>2023-09-01T08:47:07Z</time>
      </trkpt>
      <trkpt lat="56.405730983242393" lon="-5.280587011948228">
        <ele>115.5</ele>
        <time>2023-09-01T08:47:08Z</time>
      </trkpt>
      <trkpt lat="56.40580901876092" lon="-5.280533032491803">
        <ele>115.5</ele>
        <time>2023-09-01T08:47:09Z</time>
      </trkpt>
      <trkpt lat="56.40621998347342" lon="-5.2802499756217">
        <ele>114.05</ele>
        <time>2023-09-01T08:47:14Z</time>
      </trkpt>
      <trkpt lat="56.40628200955689" lon="-5.28016297146678">
        <ele>113.56999999999999</ele>
        <time>2023-09-01T08:47:15Z</time>
      </trkpt>
      <trkpt lat="56.406344035640359" lon="-5.280061969533563">
        <ele>113.09</ele>
        <time>2023-09-01T08:47:16Z</time>
      </trkpt>
      <trkpt lat="56.406407989561558" lon="-5.279959039762616">
        <ele>112.13</ele>
        <time>2023-09-01T08:47:17Z</time>
      </trkpt>
      <trkpt lat="56.406471021473408" lon="-5.279857032001019">
        <ele>111.65000000000001</ele>
        <time>2023-09-01T08:47:18Z</time>
      </trkpt>
      <trkpt lat="56.406521983444691" lon="-5.279738008975983">
        <ele>110.69</ele>
        <time>2023-09-01T08:47:19Z</time>
      </trkpt>
      <trkpt lat="56.406546961516142" lon="-5.279596019536257">
        <ele>110.20999999999999</ele>
        <time>2023-09-01T08:47:20Z</time>
      </trkpt>
      <trkpt lat="56.406576968729496" lon="-5.279424022883177">
        <ele>109.25</ele>
        <time>2023-09-01T08:47:21Z</time>
      </trkpt>
      <trkpt lat="56.406573029235005" lon="-5.279310029000044">
        <ele>108.29000000000001</ele>
        <time>2023-09-01T08:47:22Z</time>
      </trkpt>
      <trkpt lat="56.406557019799948" lon="-5.278883976861835">
        <ele>106.36</ele>
        <time>2023-09-01T08:47:25Z</time>
      </trkpt>
      <trkpt lat="56.406575040891767" lon="-5.278793033212423">
        <ele>105.88</ele>
        <time>2023-09-01T08:47:26Z</time>
      </trkpt>
      <trkpt lat="56.406612005084753" lon="-5.278690019622445">
        <ele>105.40000000000001</ele>
        <time>2023-09-01T08:47:27Z</time>
      </trkpt>
      <trkpt lat="56.406650980934501" lon="-5.278601003810763">
        <ele>105.40000000000001</ele>
        <time>2023-09-01T08:47:28Z</time>
      </trkpt>
      <trkpt lat="56.406720969825983" lon="-5.278540989384055">
        <ele>105.40000000000001</ele>
        <time>2023-09-01T08:47:29Z</time>
      </trkpt>
      <trkpt lat="56.406802022829652" lon="-5.278477035462856">
        <ele>104.92</ele>
        <time>2023-09-01T08:47:30Z</time>
      </trkpt>
      <trkpt lat="56.40688500367105" lon="-5.278452979400754">
        <ele>104.44</ele>
        <time>2023-09-01T08:47:31Z</time>
      </trkpt>
      <trkpt lat="56.406972007825971" lon="-5.278428001329303">
        <ele>103.48</ele>
        <time>2023-09-01T08:47:32Z</time>
      </trkpt>
      <trkpt lat="56.40714299865067" lon="-5.278377961367369">
        <ele>102.52</ele>
        <time>2023-09-01T08:47:34Z</time>
      </trkpt>
      <trkpt lat="56.407223967835307" lon="-5.278353989124298">
        <ele>102.52</ele>
        <time>2023-09-01T08:47:35Z</time>
      </trkpt>
      <trkpt lat="56.407307032495737" lon="-5.278330016881228">
        <ele>102.04000000000001</ele>
        <time>2023-09-01T08:47:36Z</time>
      </trkpt>
      <trkpt lat="56.407596040517092" lon="-5.277975965291262">
        <ele>101.56</ele>
        <time>2023-09-01T08:47:40Z</time>
      </trkpt>
      <trkpt lat="56.408027037978172" lon="-5.277172978967428">
        <ele>103.48</ele>
        <time>2023-09-01T08:47:47Z</time>
      </trkpt>
      <trkpt lat="56.408291989937425" lon="-5.276534026488662">
        <ele>103</ele>
        <time>2023-09-01T08:47:52Z</time>
      </trkpt>
      <trkpt lat="56.408428028225899" lon="-5.276145022362471">
        <ele>102.04000000000001</ele>
        <time>2023-09-01T08:47:55Z</time>
      </trkpt>
      <trkpt lat="56.408491982147098" lon="-5.27608098462224">
        <ele>101.56</ele>
        <time>2023-09-01T08:47:56Z</time>
      </trkpt>
      <trkpt lat="56.408565994352102" lon="-5.276053994894028">
        <ele>100.59999999999999</ele>
        <time>2023-09-01T08:47:57Z</time>
      </trkpt>
      <trkpt lat="56.408642018213868" lon="-5.276027005165815">
        <ele>100.11</ele>
        <time>2023-09-01T08:47:58Z</time>
      </trkpt>
      <trkpt lat="56.408719969913363" lon="-5.275999009609222">
        <ele>100.11</ele>
        <time>2023-09-01T08:47:59Z</time>
      </trkpt>
      <trkpt lat="56.40879699960351" lon="-5.27597101405263">
        <ele>99.629999999999995</ele>
        <time>2023-09-01T08:48:00Z</time>
      </trkpt>
      <trkpt lat="56.408880986273289" lon="-5.275941006839275">
        <ele>99.150000000000006</ele>
        <time>2023-09-01T08:48:01Z</time>
      </trkpt>
      <trkpt lat="56.408965978771448" lon="-5.275910999625921">
        <ele>98.670000000000002</ele>
        <time>2023-09-01T08:48:02Z</time>
      </trkpt>
      <trkpt lat="56.409029010683298" lon="-5.275785019621253">
        <ele>98.189999999999998</ele>
        <time>2023-09-01T08:48:03Z</time>
      </trkpt>
      <trkpt lat="56.409087013453245" lon="-5.275643030181527">
        <ele>97.709999999999994</ele>
        <time>2023-09-01T08:48:04Z</time>
      </trkpt>
      <trkpt lat="56.409147027879953" lon="-5.275495005771518">
        <ele>97.230000000000004</ele>
        <time>2023-09-01T08:48:05Z</time>
      </trkpt>
      <trkpt lat="56.4092050306499" lon="-5.275352010503411">
        <ele>96.75</ele>
        <time>2023-09-01T08:48:06Z</time>
      </trkpt>
      <trkpt lat="56.409268984571099" lon="-5.275073982775211">
        <ele>95.790000000000006</ele>
        <time>2023-09-01T08:48:08Z</time>
      </trkpt>
      <trkpt lat="56.409277031198144" lon="-5.274931993335486">
        <ele>95.310000000000002</ele>
        <time>2023-09-01T08:48:09Z</time>
      </trkpt>
      <trkpt lat="56.409264039248228" lon="-5.274801990017295">
        <ele>94.349999999999994</ele>
        <time>2023-09-01T08:48:10Z</time>
      </trkpt>
      <trkpt lat="56.409234032034874" lon="-5.274667963385582">
        <ele>93.870000000000005</ele>
        <time>2023-09-01T08:48:11Z</time>
      </trkpt>
      <trkpt lat="56.409202013164759" lon="-5.274531003087759">
        <ele>93.390000000000001</ele>
        <time>2023-09-01T08:48:12Z</time>
      </trkpt>
      <trkpt lat="56.409171000123024" lon="-5.274393958970904">
        <ele>92.900000000000006</ele>
        <time>2023-09-01T08:48:13Z</time>
      </trkpt>
      <trkpt lat="56.409138981252909" lon="-5.27425498701632">
        <ele>92.420000000000002</ele>
        <time>2023-09-01T08:48:14Z</time>
      </trkpt>
      <trkpt lat="56.409110985696316" lon="-5.274096988141537">
        <ele>92.420000000000002</ele>
        <time>2023-09-01T08:48:15Z</time>
      </trkpt>
      <trkpt lat="56.40911802649498" lon="-5.27395298704505">
        <ele>91.939999999999998</ele>
        <time>2023-09-01T08:48:16Z</time>
      </trkpt>
      <trkpt lat="56.409124983474612" lon="-5.273804040625691">
        <ele>91.939999999999998</ele>
        <time>2023-09-01T08:48:17Z</time>
      </trkpt>
      <trkpt lat="56.409133030101657" lon="-5.273644030094147">
        <ele>91.939999999999998</ele>
        <time>2023-09-01T08:48:18Z</time>
      </trkpt>
      <trkpt lat="56.40914099290967" lon="-5.273478990420699">
        <ele>92.420000000000002</ele>
        <time>2023-09-01T08:48:19Z</time>
      </trkpt>
      <trkpt lat="56.409149039536715" lon="-5.273313028737903">
        <ele>92.420000000000002</ele>
        <time>2023-09-01T08:48:20Z</time>
      </trkpt>
      <trkpt lat="56.409139987081289" lon="-5.273155029863119">
        <ele>92.420000000000002</ele>
        <time>2023-09-01T08:48:21Z</time>
      </trkpt>
      <trkpt lat="56.40911903232336" lon="-5.272993007674813">
        <ele>92.900000000000006</ele>
        <time>2023-09-01T08:48:22Z</time>
      </trkpt>
      <trkpt lat="56.4090979937464" lon="-5.272826962172985">
        <ele>92.900000000000006</ele>
        <time>2023-09-01T08:48:23Z</time>
      </trkpt>
      <trkpt lat="56.408876040950418" lon="-5.271131973713636">
        <ele>95.310000000000002</ele>
        <time>2023-09-01T08:48:34Z</time>
      </trkpt>
      <trkpt lat="56.408832035958767" lon="-5.270398976281285">
        <ele>96.75</ele>
        <time>2023-09-01T08:48:39Z</time>
      </trkpt>
      <trkpt lat="56.408844022080302" lon="-5.270282970741391">
        <ele>96.75</ele>
        <time>2023-09-01T08:48:40Z</time>
      </trkpt>
      <trkpt lat="56.408865982666612" lon="-5.270138969644904">
        <ele>96.75</ele>
        <time>2023-09-01T08:48:41Z</time>
      </trkpt>
      <trkpt lat="56.408920967951417" lon="-5.26999999769032">
        <ele>96.269999999999996</ele>
        <time>2023-09-01T08:48:42Z</time>
      </trkpt>
      <trkpt lat="56.40899296849966" lon="-5.269864965230227">
        <ele>96.269999999999996</ele>
        <time>2023-09-01T08:48:43Z</time>
      </trkpt>
      <trkpt lat="56.409063963219523" lon="-5.269729010760784">
        <ele>96.75</ele>
        <time>2023-09-01T08:48:44Z</time>
      </trkpt>
      <trkpt lat="56.409100005403161" lon="-5.269541004672647">
        <ele>97.230000000000004</ele>
        <time>2023-09-01T08:48:45Z</time>
      </trkpt>
      <trkpt lat="56.409134035930037" lon="-5.269359033554792">
        <ele>97.709999999999994</ele>
        <time>2023-09-01T08:48:46Z</time>
      </trkpt>
      <trkpt lat="56.409644996747375" lon="-5.267747025936842">
        <ele>106.36</ele>
        <time>2023-09-01T08:48:56Z</time>
      </trkpt>
      <trkpt lat="56.410202980041504" lon="-5.266231996938586">
        <ele>106.84</ele>
        <time>2023-09-01T08:49:05Z</time>
      </trkpt>
      <trkpt lat="56.41036600805819" lon="-5.265550967305899">
        <ele>107.81</ele>
        <time>2023-09-01T08:49:09Z</time>
      </trkpt>
      <trkpt lat="56.410384029150009" lon="-5.265390034765005">
        <ele>108.29000000000001</ele>
        <time>2023-09-01T08:49:10Z</time>
      </trkpt>
      <trkpt lat="56.410399032756686" lon="-5.265247039496899">
        <ele>108.29000000000001</ele>
        <time>2023-09-01T08:49:11Z</time>
      </trkpt>
      <trkpt lat="56.410413030534983" lon="-5.265117036178708">
        <ele>108.77</ele>
        <time>2023-09-01T08:49:12Z</time>
      </trkpt>
      <trkpt lat="56.410396015271544" lon="-5.264987032860518">
        <ele>109.25</ele>
        <time>2023-09-01T08:49:13Z</time>
      </trkpt>
      <trkpt lat="56.410359973087907" lon="-5.264856023713946">
        <ele>109.73</ele>
        <time>2023-09-01T08:49:14Z</time>
      </trkpt>
      <trkpt lat="56.410304987803102" lon="-5.264744963496923">
        <ele>109.73</ele>
        <time>2023-09-01T08:49:15Z</time>
      </trkpt>
      <trkpt lat="56.410242961719632" lon="-5.264631975442171">
        <ele>110.20999999999999</ele>
        <time>2023-09-01T08:49:16Z</time>
      </trkpt>
      <trkpt lat="56.410028971731663" lon="-5.264243977144361">
        <ele>111.17</ele>
        <time>2023-09-01T08:49:19Z</time>
      </trkpt>
      <trkpt lat="56.409968035295606" lon="-5.2640709746629">
        <ele>111.17</ele>
        <time>2023-09-01T08:49:20Z</time>
      </trkpt>
      <trkpt lat="56.409911038354039" lon="-5.263887997716665">
        <ele>111.65000000000001</ele>
        <time>2023-09-01T08:49:21Z</time>
      </trkpt>
      <trkpt lat="56.409790003672242" lon="-5.263561019673944">
        <ele>112.13</ele>
        <time>2023-09-01T08:49:23Z</time>
      </trkpt>
      <trkpt lat="56.409589005634189" lon="-5.263221971690655">
        <ele>112.61</ele>
        <time>2023-09-01T08:49:26Z</time>
      </trkpt>
      <trkpt lat="56.409521028399467" lon="-5.263142008334398">
        <ele>113.09</ele>
        <time>2023-09-01T08:49:27Z</time>
      </trkpt>
      <trkpt lat="56.409449027851224" lon="-5.263104038313031">
        <ele>113.56999999999999</ele>
        <time>2023-09-01T08:49:28Z</time>
      </trkpt>
      <trkpt lat="56.409373003989458" lon="-5.263065984472632">
        <ele>113.56999999999999</ele>
        <time>2023-09-01T08:49:29Z</time>
      </trkpt>
      <trkpt lat="56.409298991784453" lon="-5.263029020279646">
        <ele>114.05</ele>
        <time>2023-09-01T08:49:30Z</time>
      </trkpt>
      <trkpt lat="56.409231014549732" lon="-5.26299498975277">
        <ele>114.05</ele>
        <time>2023-09-01T08:49:31Z</time>
      </trkpt>
      <trkpt lat="56.409163037315011" lon="-5.262922989204526">
        <ele>114.05</ele>
        <time>2023-09-01T08:49:32Z</time>
      </trkpt>
      <trkpt lat="56.409131018444896" lon="-5.262794997543097">
        <ele>114.05</ele>
        <time>2023-09-01T08:49:33Z</time>
      </trkpt>
      <trkpt lat="56.40911802649498" lon="-5.262662982568145">
        <ele>114.05</ele>
        <time>2023-09-01T08:49:34Z</time>
      </trkpt>
      <trkpt lat="56.409132024273276" lon="-5.262496015056968">
        <ele>114.05</ele>
        <time>2023-09-01T08:49:35Z</time>
      </trkpt>
      <trkpt lat="56.409169994294643" lon="-5.262356959283352">
        <ele>113.56999999999999</ele>
        <time>2023-09-01T08:49:36Z</time>
      </trkpt>
      <trkpt lat="56.409237971529365" lon="-5.262239025905728">
        <ele>113.09</ele>
        <time>2023-09-01T08:49:37Z</time>
      </trkpt>
      <trkpt lat="56.409304020926356" lon="-5.262131989002228">
        <ele>112.13</ele>
        <time>2023-09-01T08:49:38Z</time>
      </trkpt>
      <trkpt lat="56.409373003989458" lon="-5.262017995119095">
        <ele>111.65000000000001</ele>
        <time>2023-09-01T08:49:39Z</time>
      </trkpt>
      <trkpt lat="56.409683972597122" lon="-5.261511979624629">
        <ele>109.25</ele>
        <time>2023-09-01T08:49:43Z</time>
      </trkpt>
      <trkpt lat="56.409767959266901" lon="-5.261367978528142">
        <ele>108.77</ele>
        <time>2023-09-01T08:49:44Z</time>
      </trkpt>
      <trkpt lat="56.409845994785428" lon="-5.261206962168217">
        <ele>108.29000000000001</ele>
        <time>2023-09-01T08:49:45Z</time>
      </trkpt>
      <trkpt lat="56.409919001162052" lon="-5.261054998263717">
        <ele>108.29000000000001</ele>
        <time>2023-09-01T08:49:46Z</time>
      </trkpt>
      <trkpt lat="56.409994019195437" lon="-5.260899011045694">
        <ele>107.81</ele>
        <time>2023-09-01T08:49:47Z</time>
      </trkpt>
      <trkpt lat="56.410222006961703" lon="-5.260427026078105">
        <ele>107.31999999999999</ele>
        <time>2023-09-01T08:49:50Z</time>
      </trkpt>
      <trkpt lat="56.41077496111393" lon="-5.259420024231076">
        <ele>105.40000000000001</ele>
        <time>2023-09-01T08:49:57Z</time>
      </trkpt>
      <trkpt lat="56.410979982465506" lon="-5.259173009544611">
        <ele>104.44</ele>
        <time>2023-09-01T08:49:59Z</time>
      </trkpt>
      <trkpt lat="56.411485997959971" lon="-5.258331969380379">
        <ele>100.11</ele>
        <time>2023-09-01T08:50:04Z</time>
      </trkpt>
      <trkpt lat="56.411767965182662" lon="-5.257855039089918">
        <ele>98.189999999999998</ele>
        <time>2023-09-01T08:50:07Z</time>
      </trkpt>
      <trkpt lat="56.412442959845066" lon="-5.256705963984132">
        <ele>93.390000000000001</ele>
        <time>2023-09-01T08:50:16Z</time>
      </trkpt>
      <trkpt lat="56.412503980100155" lon="-5.256575038656592">
        <ele>92.900000000000006</ele>
        <time>2023-09-01T08:50:17Z</time>
      </trkpt>
      <trkpt lat="56.41262199729681" lon="-5.256299022585154">
        <ele>92.420000000000002</ele>
        <time>2023-09-01T08:50:19Z</time>
      </trkpt>
      <trkpt lat="56.41296599060297" lon="-5.255075013265014">
        <ele>90.5</ele>
        <time>2023-09-01T08:50:27Z</time>
      </trkpt>
      <trkpt lat="56.41302801668644" lon="-5.254951966926456">
        <ele>90.019999999999996</ele>
        <time>2023-09-01T08:50:28Z</time>
      </trkpt>
      <trkpt lat="56.413332028314471" lon="-5.254476964473724">
        <ele>89.060000000000002</ele>
        <time>2023-09-01T08:50:32Z</time>
      </trkpt>
      <trkpt lat="56.413641991093755" lon="-5.253991987556219">
        <ele>89.060000000000002</ele>
        <time>2023-09-01T08:50:36Z</time>
      </trkpt>
      <trkpt lat="56.413731006905437" lon="-5.253871958702803">
        <ele>88.579999999999998</ele>
        <time>2023-09-01T08:50:37Z</time>
      </trkpt>
      <trkpt lat="56.413903003558517" lon="-5.25366903282702">
        <ele>88.099999999999994</ele>
        <time>2023-09-01T08:50:39Z</time>
      </trkpt>
      <trkpt lat="56.413991013541818" lon="-5.2535630017519">
        <ele>88.099999999999994</ele>
        <time>2023-09-01T08:50:40Z</time>
      </trkpt>
      <trkpt lat="56.414080029353499" lon="-5.25345797650516">
        <ele>87.620000000000005</ele>
        <time>2023-09-01T08:50:41Z</time>
      </trkpt>
      <trkpt lat="56.414258982986212" lon="-5.253245998173952">
        <ele>86.659999999999997</ele>
        <time>2023-09-01T08:50:43Z</time>
      </trkpt>
      <trkpt lat="56.41438496299088" lon="-5.253194030374289">
        <ele>86.180000000000007</ele>
        <time>2023-09-01T08:50:44Z</time>
      </trkpt>
      <trkpt lat="56.414495017379522" lon="-5.253148013725877">
        <ele>85.689999999999998</ele>
        <time>2023-09-01T08:50:45Z</time>
      </trkpt>
      <trkpt lat="56.414600964635611" lon="-5.253105014562607">
        <ele>85.209999999999994</ele>
        <time>2023-09-01T08:50:46Z</time>
      </trkpt>
      <trkpt lat="56.414702972397208" lon="-5.253063021227717">
        <ele>85.209999999999994</ele>
        <time>2023-09-01T08:50:47Z</time>
      </trkpt>
      <trkpt lat="56.414956022053957" lon="-5.252922959625721">
        <ele>83.290000000000006</ele>
        <time>2023-09-01T08:50:50Z</time>
      </trkpt>
      <trkpt lat="56.41502701677382" lon="-5.252861017361283">
        <ele>82.810000000000002</ele>
        <time>2023-09-01T08:50:51Z</time>
      </trkpt>
      <trkpt lat="56.415073033422232" lon="-5.252730008214712">
        <ele>81.849999999999994</ele>
        <time>2023-09-01T08:50:52Z</time>
      </trkpt>
      <trkpt lat="56.415099017322063" lon="-5.252582989633083">
        <ele>81.370000000000005</ele>
        <time>2023-09-01T08:50:53Z</time>
      </trkpt>
      <trkpt lat="56.415130030363798" lon="-5.252416022121906">
        <ele>80.409999999999997</ele>
        <time>2023-09-01T08:50:54Z</time>
      </trkpt>
      <trkpt lat="56.415162971243262" lon="-5.25223296135664">
        <ele>79.450000000000003</ele>
        <time>2023-09-01T08:50:55Z</time>
      </trkpt>
      <trkpt lat="56.415325999259949" lon="-5.251723006367683">
        <ele>77.040000000000006</ele>
        <time>2023-09-01T08:50:58Z</time>
      </trkpt>
      <trkpt lat="56.415390959009528" lon="-5.251584034413099">
        <ele>76.079999999999998</ele>
        <time>2023-09-01T08:50:59Z</time>
      </trkpt>
      <trkpt lat="56.41552297398448" lon="-5.251296032220125">
        <ele>74.159999999999997</ele>
        <time>2023-09-01T08:51:01Z</time>
      </trkpt>
      <trkpt lat="56.415582988411188" lon="-5.251165023073554">
        <ele>72.719999999999999</ele>
        <time>2023-09-01T08:51:02Z</time>
      </trkpt>
      <trkpt lat="56.415703017264605" lon="-5.250904010608792">
        <ele>71.269999999999996</ele>
        <time>2023-09-01T08:51:04Z</time>
      </trkpt>
      <trkpt lat="56.415989007800817" lon="-5.250473013147712">
        <ele>69.349999999999994</ele>
        <time>2023-09-01T08:51:08Z</time>
      </trkpt>
      <trkpt lat="56.416063020005822" lon="-5.250418027862907">
        <ele>69.349999999999994</ele>
        <time>2023-09-01T08:51:09Z</time>
      </trkpt>
      <trkpt lat="56.416136026382446" lon="-5.250362958759069">
        <ele>68.870000000000005</ele>
        <time>2023-09-01T08:51:10Z</time>
      </trkpt>
      <trkpt lat="56.416213978081942" lon="-5.250305961817503">
        <ele>68.390000000000001</ele>
        <time>2023-09-01T08:51:11Z</time>
      </trkpt>
      <trkpt lat="56.416299976408482" lon="-5.250279977917671">
        <ele>67.909999999999997</ele>
        <time>2023-09-01T08:51:12Z</time>
      </trkpt>
      <trkpt lat="56.416385974735022" lon="-5.250253994017839">
        <ele>67.430000000000007</ele>
        <time>2023-09-01T08:51:13Z</time>
      </trkpt>
      <trkpt lat="56.416473984718323" lon="-5.250228010118008">
        <ele>66.950000000000003</ele>
        <time>2023-09-01T08:51:14Z</time>
      </trkpt>
      <trkpt lat="56.416762992739677" lon="-5.250141005963087">
        <ele>65.510000000000005</ele>
        <time>2023-09-01T08:51:17Z</time>
      </trkpt>
      <trkpt lat="56.416947981342673" lon="-5.250162966549397">
        <ele>65.030000000000001</ele>
        <time>2023-09-01T08:51:19Z</time>
      </trkpt>
      <trkpt lat="56.41702501103282" lon="-5.250204037874937">
        <ele>64.549999999999997</ele>
        <time>2023-09-01T08:51:20Z</time>
      </trkpt>
      <trkpt lat="56.41713397577405" lon="-5.250262962654233">
        <ele>63.579999999999998</ele>
        <time>2023-09-01T08:51:21Z</time>
      </trkpt>
      <trkpt lat="56.417278982698917" lon="-5.250449040904641">
        <ele>61.18</ele>
        <time>2023-09-01T08:51:23Z</time>
      </trkpt>
      <trkpt lat="56.41743496991694" lon="-5.250650038942695">
        <ele>58.780000000000001</ele>
        <time>2023-09-01T08:51:25Z</time>
      </trkpt>
      <trkpt lat="56.41751803457737" lon="-5.250691026449204">
        <ele>57.340000000000003</ele>
        <time>2023-09-01T08:51:26Z</time>
      </trkpt>
      <trkpt lat="56.417603027075529" lon="-5.25066495873034">
        <ele>56.369999999999997</ele>
        <time>2023-09-01T08:51:27Z</time>
      </trkpt>
      <trkpt lat="56.41771400347352" lon="-5.250627994537354">
        <ele>54.93</ele>
        <time>2023-09-01T08:51:28Z</time>
      </trkpt>
      <trkpt lat="56.417784998193383" lon="-5.250539984554052">
        <ele>53.969999999999999</ele>
        <time>2023-09-01T08:51:29Z</time>
      </trkpt>
      <trkpt lat="56.417882982641459" lon="-5.250419033691287">
        <ele>53.490000000000002</ele>
        <time>2023-09-01T08:51:30Z</time>
      </trkpt>
      <trkpt lat="56.417979961261153" lon="-5.250299004837871">
        <ele>53.490000000000002</ele>
        <time>2023-09-01T08:51:31Z</time>
      </trkpt>
      <trkpt lat="56.418813960626721" lon="-5.249057980254293">
        <ele>56.369999999999997</ele>
        <time>2023-09-01T08:51:41Z</time>
      </trkpt>
      <trkpt lat="56.41960202716291" lon="-5.247538005933166">
        <ele>57.82</ele>
        <time>2023-09-01T08:51:52Z</time>
      </trkpt>
      <trkpt lat="56.420122962445021" lon="-5.246385997161269">
        <ele>57.82</ele>
        <time>2023-09-01T08:52:01Z</time>
      </trkpt>
      <trkpt lat="56.420199992135167" lon="-5.246283989399672">
        <ele>57.340000000000003</ele>
        <time>2023-09-01T08:52:02Z</time>
      </trkpt>
      <trkpt lat="56.420426974073052" lon="-5.24598098360002">
        <ele>57.340000000000003</ele>
        <time>2023-09-01T08:52:05Z</time>
      </trkpt>
      <trkpt lat="56.420498974621296" lon="-5.245875036343932">
        <ele>57.340000000000003</ele>
        <time>2023-09-01T08:52:06Z</time>
      </trkpt>
      <trkpt lat="56.420566029846668" lon="-5.245744027197361">
        <ele>57.340000000000003</ele>
        <time>2023-09-01T08:52:07Z</time>
      </trkpt>
      <trkpt lat="56.420638030394912" lon="-5.245604971423745">
        <ele>57.340000000000003</ele>
        <time>2023-09-01T08:52:08Z</time>
      </trkpt>
      <trkpt lat="56.420713970437646" lon="-5.245457030832768">
        <ele>57.340000000000003</ele>
        <time>2023-09-01T08:52:09Z</time>
      </trkpt>
      <trkpt lat="56.421195007860661" lon="-5.244513982906938">
        <ele>57.82</ele>
        <time>2023-09-01T08:52:16Z</time>
      </trkpt>
      <trkpt lat="56.421234989538789" lon="-5.244366964325309">
        <ele>58.299999999999997</ele>
        <time>2023-09-01T08:52:17Z</time>
      </trkpt>
      <trkpt lat="56.421264996752143" lon="-5.244206031784415">
        <ele>58.780000000000001</ele>
        <time>2023-09-01T08:52:18Z</time>
      </trkpt>
      <trkpt lat="56.421286035329103" lon="-5.244022971019149">
        <ele>59.259999999999998</ele>
        <time>2023-09-01T08:52:19Z</time>
      </trkpt>
      <trkpt lat="56.421307995915413" lon="-5.243831025436521">
        <ele>59.740000000000002</ele>
        <time>2023-09-01T08:52:20Z</time>
      </trkpt>
      <trkpt lat="56.421461971476674" lon="-5.242746993899345">
        <ele>61.659999999999997</ele>
        <time>2023-09-01T08:52:26Z</time>
      </trkpt>
      <trkpt lat="56.421498013660312" lon="-5.242597963660955">
        <ele>62.140000000000001</ele>
        <time>2023-09-01T08:52:27Z</time>
      </trkpt>
      <trkpt lat="56.421848963946104" lon="-5.241753989830613">
        <ele>62.140000000000001</ele>
        <time>2023-09-01T08:52:33Z</time>
      </trkpt>
      <trkpt lat="56.421926999464631" lon="-5.241635972633958">
        <ele>61.659999999999997</ele>
        <time>2023-09-01T08:52:34Z</time>
      </trkpt>
      <trkpt lat="56.422005034983158" lon="-5.241519967094064">
        <ele>60.700000000000003</ele>
        <time>2023-09-01T08:52:35Z</time>
      </trkpt>
      <trkpt lat="56.42222598195076" lon="-5.241147978231311">
        <ele>58.780000000000001</ele>
        <time>2023-09-01T08:52:38Z</time>
      </trkpt>
      <trkpt lat="56.422273004427552" lon="-5.241004982963204">
        <ele>57.82</ele>
        <time>2023-09-01T08:52:39Z</time>
      </trkpt>
      <trkpt lat="56.422414993867278" lon="-5.240580020472407">
        <ele>54.93</ele>
        <time>2023-09-01T08:52:42Z</time>
      </trkpt>
      <trkpt lat="56.422465033829212" lon="-5.240429984405637">
        <ele>53.969999999999999</ele>
        <time>2023-09-01T08:52:43Z</time>
      </trkpt>
      <trkpt lat="56.422538040205836" lon="-5.24035002104938">
        <ele>52.530000000000001</ele>
        <time>2023-09-01T08:52:44Z</time>
      </trkpt>
      <trkpt lat="56.422723028808832" lon="-5.240218006074429">
        <ele>49.649999999999999</ele>
        <time>2023-09-01T08:52:46Z</time>
      </trkpt>
      <trkpt lat="56.423534983769059" lon="-5.239639990031719">
        <ele>41.469999999999999</ele>
        <time>2023-09-01T08:52:55Z</time>
      </trkpt>
      <trkpt lat="56.423704968765378" lon="-5.239550974220038">
        <ele>40.030000000000001</ele>
        <time>2023-09-01T08:52:57Z</time>
      </trkpt>
      <trkpt lat="56.423789961263537" lon="-5.23951300419867">
        <ele>39.07</ele>
        <time>2023-09-01T08:52:58Z</time>
      </trkpt>
      <trkpt lat="56.424035970121622" lon="-5.23940697312355">
        <ele>35.710000000000001</ele>
        <time>2023-09-01T08:53:01Z</time>
      </trkpt>
      <trkpt lat="56.424107970669866" lon="-5.239357016980648">
        <ele>34.740000000000002</ele>
        <time>2023-09-01T08:53:02Z</time>
      </trkpt>
      <trkpt lat="56.424176031723619" lon="-5.239273030310869">
        <ele>33.299999999999997</ele>
        <time>2023-09-01T08:53:03Z</time>
      </trkpt>
      <trkpt lat="56.424248032271862" lon="-5.239183008670807">
        <ele>32.340000000000003</ele>
        <time>2023-09-01T08:53:04Z</time>
      </trkpt>
      <trkpt lat="56.424317015334964" lon="-5.239097010344267">
        <ele>30.899999999999999</ele>
        <time>2023-09-01T08:53:05Z</time>
      </trkpt>
      <trkpt lat="56.424380969256163" lon="-5.239016963168979">
        <ele>30.420000000000002</ele>
        <time>2023-09-01T08:53:06Z</time>
      </trkpt>
      <trkpt lat="56.424466967582703" lon="-5.238936999812722">
        <ele>29.940000000000001</ele>
        <time>2023-09-01T08:53:07Z</time>
      </trkpt>
      <trkpt lat="56.424552965909243" lon="-5.238894000649452">
        <ele>28.98</ele>
        <time>2023-09-01T08:53:08Z</time>
      </trkpt>
      <trkpt lat="56.424639970064163" lon="-5.238849995657802">
        <ele>28.5</ele>
        <time>2023-09-01T08:53:09Z</time>
      </trkpt>
      <trkpt lat="56.424921015277505" lon="-5.238714963197708">
        <ele>26.57</ele>
        <time>2023-09-01T08:53:12Z</time>
      </trkpt>
      <trkpt lat="56.425014976412058" lon="-5.238693002611399">
        <ele>26.09</ele>
        <time>2023-09-01T08:53:13Z</time>
      </trkpt>
      <trkpt lat="56.425100974738598" lon="-5.238672969862819">
        <ele>25.609999999999999</ele>
        <time>2023-09-01T08:53:14Z</time>
      </trkpt>
      <trkpt lat="56.425198037177324" lon="-5.238657966256142">
        <ele>25.129999999999999</ele>
        <time>2023-09-01T08:53:15Z</time>
      </trkpt>
      <trkpt lat="56.425283029675484" lon="-5.238673975691199">
        <ele>24.649999999999999</ele>
        <time>2023-09-01T08:53:16Z</time>
      </trkpt>
      <trkpt lat="56.42536198720336" lon="-5.238688979297876">
        <ele>24.170000000000002</ele>
        <time>2023-09-01T08:53:17Z</time>
      </trkpt>
      <trkpt lat="56.425833972170949" lon="-5.238792998716235">
        <ele>23.690000000000001</ele>
        <time>2023-09-01T08:53:22Z</time>
      </trkpt>
      <trkpt lat="56.426015021279454" lon="-5.238854018971324">
        <ele>22.73</ele>
        <time>2023-09-01T08:53:24Z</time>
      </trkpt>
      <trkpt lat="56.426098002120852" lon="-5.238869022578001">
        <ele>22.25</ele>
        <time>2023-09-01T08:53:25Z</time>
      </trkpt>
      <trkpt lat="56.426191963255405" lon="-5.238869022578001">
        <ele>21.77</ele>
        <time>2023-09-01T08:53:26Z</time>
      </trkpt>
      <trkpt lat="56.426391033455729" lon="-5.238869022578001">
        <ele>20.809999999999999</ele>
        <time>2023-09-01T08:53:28Z</time>
      </trkpt>
      <trkpt lat="56.426497986540198" lon="-5.238876985386014">
        <ele>19.84</ele>
        <time>2023-09-01T08:53:29Z</time>
      </trkpt>
      <trkpt lat="56.426569987088442" lon="-5.238948985934258">
        <ele>19.359999999999999</ele>
        <time>2023-09-01T08:53:30Z</time>
      </trkpt>
      <trkpt lat="56.426853965967894" lon="-5.239232964813709">
        <ele>16.960000000000001</ele>
        <time>2023-09-01T08:53:34Z</time>
      </trkpt>
      <trkpt lat="56.426922027021646" lon="-5.239302031695843">
        <ele>16.48</ele>
        <time>2023-09-01T08:53:35Z</time>
      </trkpt>
      <trkpt lat="56.42699402756989" lon="-5.239352993667126">
        <ele>16</ele>
        <time>2023-09-01T08:53:36Z</time>
      </trkpt>
      <trkpt lat="56.427079020068049" lon="-5.23938300088048">
        <ele>15.039999999999999</ele>
        <time>2023-09-01T08:53:37Z</time>
      </trkpt>
      <trkpt lat="56.42716602422297" lon="-5.239414013922215">
        <ele>14.56</ele>
        <time>2023-09-01T08:53:38Z</time>
      </trkpt>
      <trkpt lat="56.427247999235988" lon="-5.239443015307188">
        <ele>14.56</ele>
        <time>2023-09-01T08:53:39Z</time>
      </trkpt>
      <trkpt lat="56.428013015538454" lon="-5.239463970065117">
        <ele>13.119999999999999</ele>
        <time>2023-09-01T08:53:47Z</time>
      </trkpt>
      <trkpt lat="56.428108988329768" lon="-5.239434968680143">
        <ele>12.630000000000001</ele>
        <time>2023-09-01T08:53:48Z</time>
      </trkpt>
      <trkpt lat="56.428716005757451" lon="-5.239110002294183">
        <ele>9.75</ele>
        <time>2023-09-01T08:53:56Z</time>
      </trkpt>
      <trkpt lat="56.428846009075642" lon="-5.239034984260798">
        <ele>7.35</ele>
        <time>2023-09-01T08:54:03Z</time>
      </trkpt>
      <trkpt lat="56.428865035995841" lon="-5.239024003967643">
        <ele>7.35</ele>
        <time>2023-09-01T08:54:04Z</time>
      </trkpt>
      <trkpt lat="56.428851038217545" lon="-5.238970024511218">
        <ele>7.35</ele>
        <time>2023-09-01T08:54:05Z</time>
      </trkpt>
      <trkpt lat="56.428828993812203" lon="-5.238916967064142">
        <ele>6.87</ele>
        <time>2023-09-01T08:54:06Z</time>
      </trkpt>
      <trkpt lat="56.428792029619217" lon="-5.238829040899873">
        <ele>6.87</ele>
        <time>2023-09-01T08:54:07Z</time>
      </trkpt>
      <trkpt lat="56.428748024627566" lon="-5.238723009824753">
        <ele>6.87</ele>
        <time>2023-09-01T08:54:08Z</time>
      </trkpt>
      <trkpt lat="56.428286014124751" lon="-5.237424988299608">
        <ele>9.27</ele>
        <time>2023-09-01T08:54:16Z</time>
      </trkpt>
      <trkpt lat="56.427624011412263" lon="-5.235419031232595">
        <ele>12.630000000000001</ele>
        <time>2023-09-01T08:54:26Z</time>
      </trkpt>
      <trkpt lat="56.427023028954864" lon="-5.233736028894782">
        <ele>13.119999999999999</ele>
        <time>2023-09-01T08:54:36Z</time>
      </trkpt>
      <trkpt lat="56.426962008699775" lon="-5.233564032241702">
        <ele>13.119999999999999</ele>
        <time>2023-09-01T08:54:37Z</time>
      </trkpt>
      <trkpt lat="56.426493963226676" lon="-5.231857979670167">
        <ele>12.15</ele>
        <time>2023-09-01T08:54:47Z</time>
      </trkpt>
      <trkpt lat="56.42613597214222" lon="-5.229323962703347">
        <ele>12.15</ele>
        <time>2023-09-01T08:55:01Z</time>
      </trkpt>
      <trkpt lat="56.426124991849065" lon="-5.228585014119744">
        <ele>11.67</ele>
        <time>2023-09-01T08:55:05Z</time>
      </trkpt>
      <trkpt lat="56.426125997677445" lon="-5.228414023295045">
        <ele>11.67</ele>
        <time>2023-09-01T08:55:06Z</time>
      </trkpt>
      <trkpt lat="56.42617997713387" lon="-5.228092996403575">
        <ele>12.15</ele>
        <time>2023-09-01T08:55:08Z</time>
      </trkpt>
      <trkpt lat="56.426208978518844" lon="-5.227913958951831">
        <ele>12.15</ele>
        <time>2023-09-01T08:55:09Z</time>
      </trkpt>
      <trkpt lat="56.42628600820899" lon="-5.227558985352516">
        <ele>13.119999999999999</ele>
        <time>2023-09-01T08:55:11Z</time>
      </trkpt>
      <trkpt lat="56.426335964351892" lon="-5.227422025054693">
        <ele>13.6</ele>
        <time>2023-09-01T08:55:12Z</time>
      </trkpt>
      <trkpt lat="56.426988998427987" lon="-5.226244032382965">
        <ele>15.039999999999999</ele>
        <time>2023-09-01T08:55:21Z</time>
      </trkpt>
      <trkpt lat="56.427692994475365" lon="-5.225134016945958">
        <ele>13.6</ele>
        <time>2023-09-01T08:55:29Z</time>
      </trkpt>
      <trkpt lat="56.428479971364141" lon="-5.223922999575734">
        <ele>12.630000000000001</ele>
        <time>2023-09-01T08:55:37Z</time>
      </trkpt>
      <trkpt lat="56.429515974596143" lon="-5.22305496968329">
        <ele>13.119999999999999</ele>
        <time>2023-09-01T08:55:44Z</time>
      </trkpt>
      <trkpt lat="56.430859006941319" lon="-5.221632979810238">
        <ele>15.52</ele>
        <time>2023-09-01T08:55:53Z</time>
      </trkpt>
      <trkpt lat="56.431577000766993" lon="-5.219802958890796">
        <ele>20.32</ele>
        <time>2023-09-01T08:56:00Z</time>
      </trkpt>
      <trkpt lat="56.431902972981334" lon="-5.218744995072484">
        <ele>22.73</ele>
        <time>2023-09-01T08:56:04Z</time>
      </trkpt>
      <trkpt lat="56.431957958266139" lon="-5.218452969565988">
        <ele>22.73</ele>
        <time>2023-09-01T08:56:05Z</time>
      </trkpt>
      <trkpt lat="56.431983020156622" lon="-5.218151975423098">
        <ele>23.210000000000001</ele>
        <time>2023-09-01T08:56:06Z</time>
      </trkpt>
      <trkpt lat="56.431983020156622" lon="-5.217850981280208">
        <ele>23.690000000000001</ele>
        <time>2023-09-01T08:56:07Z</time>
      </trkpt>
      <trkpt lat="56.431970028206706" lon="-5.217546969652176">
        <ele>23.690000000000001</ele>
        <time>2023-09-01T08:56:08Z</time>
      </trkpt>
      <trkpt lat="56.431919988244772" lon="-5.217256033793092">
        <ele>23.210000000000001</ele>
        <time>2023-09-01T08:56:09Z</time>
      </trkpt>
      <trkpt lat="56.431840024888515" lon="-5.216978006064892">
        <ele>23.210000000000001</ele>
        <time>2023-09-01T08:56:10Z</time>
      </trkpt>
      <trkpt lat="56.431757966056466" lon="-5.216695033013821">
        <ele>22.73</ele>
        <time>2023-09-01T08:56:11Z</time>
      </trkpt>
      <trkpt lat="56.431674985215068" lon="-5.216409964486957">
        <ele>22.25</ele>
        <time>2023-09-01T08:56:12Z</time>
      </trkpt>
      <trkpt lat="56.430623978376389" lon="-5.212879003956914">
        <ele>18.399999999999999</ele>
        <time>2023-09-01T08:56:24Z</time>
      </trkpt>
      <trkpt lat="56.429599961265922" lon="-5.210169972851872">
        <ele>17.440000000000001</ele>
        <time>2023-09-01T08:56:34Z</time>
      </trkpt>
      <trkpt lat="56.428900994360447" lon="-5.209290040656924">
        <ele>20.32</ele>
        <time>2023-09-01T08:56:39Z</time>
      </trkpt>
      <trkpt lat="56.428731009364128" lon="-5.209193984046578">
        <ele>20.809999999999999</ele>
        <time>2023-09-01T08:56:40Z</time>
      </trkpt>
      <trkpt lat="56.428558006882668" lon="-5.209095999598503">
        <ele>21.289999999999999</ele>
        <time>2023-09-01T08:56:41Z</time>
      </trkpt>
      <trkpt lat="56.426636958494782" lon="-5.207890011370182">
        <ele>29.940000000000001</ele>
        <time>2023-09-01T08:56:52Z</time>
      </trkpt>
      <trkpt lat="56.426469990983605" lon="-5.207730000838637">
        <ele>31.379999999999999</ele>
        <time>2023-09-01T08:56:53Z</time>
      </trkpt>
      <trkpt lat="56.42630897462368" lon="-5.207568984478712">
        <ele>32.340000000000003</ele>
        <time>2023-09-01T08:56:54Z</time>
      </trkpt>
      <trkpt lat="56.426167991012335" lon="-5.207339990884066">
        <ele>33.780000000000001</ele>
        <time>2023-09-01T08:56:55Z</time>
      </trkpt>
      <trkpt lat="56.426022984087467" lon="-5.207104962319136">
        <ele>35.229999999999997</ele>
        <time>2023-09-01T08:56:56Z</time>
      </trkpt>
      <trkpt lat="56.424806015565991" lon="-5.204818965867162">
        <ele>39.07</ele>
        <time>2023-09-01T08:57:05Z</time>
      </trkpt>
      <trkpt lat="56.424174020066857" lon="-5.203839037567377">
        <ele>40.030000000000001</ele>
        <time>2023-09-01T08:57:11Z</time>
      </trkpt>
      <trkpt lat="56.423400035127997" lon="-5.202691974118352">
        <ele>40.030000000000001</ele>
        <time>2023-09-01T08:57:20Z</time>
      </trkpt>
      <trkpt lat="56.423260979354382" lon="-5.202576974406838">
        <ele>40.030000000000001</ele>
        <time>2023-09-01T08:57:21Z</time>
      </trkpt>
      <trkpt lat="56.423140028491616" lon="-5.202477984130383">
        <ele>39.549999999999997</ele>
        <time>2023-09-01T08:57:22Z</time>
      </trkpt>
      <trkpt lat="56.422107964754105" lon="-5.201631998643279">
        <ele>38.590000000000003</ele>
        <time>2023-09-01T08:57:29Z</time>
      </trkpt>
      <trkpt lat="56.42196798697114" lon="-5.201435023918748">
        <ele>38.590000000000003</ele>
        <time>2023-09-01T08:57:30Z</time>
      </trkpt>
      <trkpt lat="56.421830020844936" lon="-5.20122698508203">
        <ele>38.109999999999999</ele>
        <time>2023-09-01T08:57:31Z</time>
      </trkpt>
      <trkpt lat="56.421727007254958" lon="-5.200971001759172">
        <ele>38.109999999999999</ele>
        <time>2023-09-01T08:57:32Z</time>
      </trkpt>
      <trkpt lat="56.421634973958135" lon="-5.2006880287081">
        <ele>37.630000000000003</ele>
        <time>2023-09-01T08:57:33Z</time>
      </trkpt>
      <trkpt lat="56.421542018651962" lon="-5.200402960181236">
        <ele>37.630000000000003</ele>
        <time>2023-09-01T08:57:34Z</time>
      </trkpt>
      <trkpt lat="56.421476975083351" lon="-5.200105989351869">
        <ele>37.630000000000003</ele>
        <time>2023-09-01T08:57:35Z</time>
      </trkpt>
      <trkpt lat="56.421422995626926" lon="-5.199796026572585">
        <ele>37.149999999999999</ele>
        <time>2023-09-01T08:57:36Z</time>
      </trkpt>
      <trkpt lat="56.421370021998882" lon="-5.199490003287792">
        <ele>36.670000000000002</ele>
        <time>2023-09-01T08:57:37Z</time>
      </trkpt>
      <trkpt lat="56.420969031751156" lon="-5.197491003200412">
        <ele>32.340000000000003</ele>
        <time>2023-09-01T08:57:44Z</time>
      </trkpt>
      <trkpt lat="56.420869035646319" lon="-5.197255974635482">
        <ele>31.379999999999999</ele>
        <time>2023-09-01T08:57:45Z</time>
      </trkpt>
      <trkpt lat="56.420754035934806" lon="-5.197017006576061">
        <ele>30.899999999999999</ele>
        <time>2023-09-01T08:57:46Z</time>
      </trkpt>
      <trkpt lat="56.420318009331822" lon="-5.195955019444227">
        <ele>28.5</ele>
        <time>2023-09-01T08:57:50Z</time>
      </trkpt>
      <trkpt lat="56.420220024883747" lon="-5.19566098228097">
        <ele>27.530000000000001</ele>
        <time>2023-09-01T08:57:51Z</time>
      </trkpt>
      <trkpt lat="56.4201620221138" lon="-5.195326963439584">
        <ele>26.57</ele>
        <time>2023-09-01T08:57:52Z</time>
      </trkpt>
      <trkpt lat="56.420112987980247" lon="-5.19499403424561">
        <ele>26.09</ele>
        <time>2023-09-01T08:57:53Z</time>
      </trkpt>
      <trkpt lat="56.420063031837344" lon="-5.194648029282689">
        <ele>25.129999999999999</ele>
        <time>2023-09-01T08:57:54Z</time>
      </trkpt>
      <trkpt lat="56.419777041301131" lon="-5.193115985020995">
        <ele>22.73</ele>
        <time>2023-09-01T08:57:59Z</time>
      </trkpt>
      <trkpt lat="56.41968802548945" lon="-5.192855978384614">
        <ele>22.73</ele>
        <time>2023-09-01T08:58:00Z</time>
      </trkpt>
      <trkpt lat="56.41960202716291" lon="-5.192607035860419">
        <ele>22.25</ele>
        <time>2023-09-01T08:58:01Z</time>
      </trkpt>
      <trkpt lat="56.419490966945887" lon="-5.19241601228714">
        <ele>22.25</ele>
        <time>2023-09-01T08:58:02Z</time>
      </trkpt>
      <trkpt lat="56.419375967234373" lon="-5.192218031734228">
        <ele>21.77</ele>
        <time>2023-09-01T08:58:03Z</time>
      </trkpt>
      <trkpt lat="56.419264990836382" lon="-5.192055003717542">
        <ele>21.77</ele>
        <time>2023-09-01T08:58:04Z</time>
      </trkpt>
      <trkpt lat="56.41913197003305" lon="-5.191921982914209">
        <ele>21.289999999999999</ele>
        <time>2023-09-01T08:58:05Z</time>
      </trkpt>
      <trkpt lat="56.418989980593324" lon="-5.191779993474484">
        <ele>21.289999999999999</ele>
        <time>2023-09-01T08:58:06Z</time>
      </trkpt>
      <trkpt lat="56.418698038905859" lon="-5.19142996519804">
        <ele>21.289999999999999</ele>
        <time>2023-09-01T08:58:08Z</time>
      </trkpt>
      <trkpt lat="56.41855102032423" lon="-5.191232990473509">
        <ele>21.77</ele>
        <time>2023-09-01T08:58:09Z</time>
      </trkpt>
      <trkpt lat="56.418445995077491" lon="-5.191024029627442">
        <ele>21.77</ele>
        <time>2023-09-01T08:58:10Z</time>
      </trkpt>
      <trkpt lat="56.41749900765717" lon="-5.188626972958446">
        <ele>22.25</ele>
        <time>2023-09-01T08:58:20Z</time>
      </trkpt>
      <trkpt lat="56.416601976379752" lon="-5.185882989317179">
        <ele>30.420000000000002</ele>
        <time>2023-09-01T08:58:30Z</time>
      </trkpt>
      <trkpt lat="56.415920024737716" lon="-5.183498002588749">
        <ele>36.670000000000002</ele>
        <time>2023-09-01T08:58:38Z</time>
      </trkpt>
      <trkpt lat="56.415502019226551" lon="-5.181799996644259">
        <ele>37.630000000000003</ele>
        <time>2023-09-01T08:58:43Z</time>
      </trkpt>
      <trkpt lat="56.415381990373135" lon="-5.181505037471652">
        <ele>37.630000000000003</ele>
        <time>2023-09-01T08:58:44Z</time>
      </trkpt>
      <trkpt lat="56.41431899741292" lon="-5.178758036345244">
        <ele>37.630000000000003</ele>
        <time>2023-09-01T08:58:53Z</time>
      </trkpt>
      <trkpt lat="56.413408974185586" lon="-5.175869967788458">
        <ele>38.590000000000003</ele>
        <time>2023-09-01T08:59:03Z</time>
      </trkpt>
      <trkpt lat="56.413345020264387" lon="-5.175595041364431">
        <ele>38.590000000000003</ele>
        <time>2023-09-01T08:59:04Z</time>
      </trkpt>
      <trkpt lat="56.412912011146545" lon="-5.173513982445002">
        <ele>34.740000000000002</ele>
        <time>2023-09-01T08:59:11Z</time>
      </trkpt>
      <trkpt lat="56.412820983678102" lon="-5.173208964988589">
        <ele>34.259999999999998</ele>
        <time>2023-09-01T08:59:12Z</time>
      </trkpt>
      <trkpt lat="56.41260095871985" lon="-5.172805963084102">
        <ele>33.780000000000001</ele>
        <time>2023-09-01T08:59:14Z</time>
      </trkpt>
      <trkpt lat="56.412466010078788" lon="-5.172609994187951">
        <ele>33.299999999999997</ele>
        <time>2023-09-01T08:59:15Z</time>
      </trkpt>
      <trkpt lat="56.411896962672472" lon="-5.171783035621047">
        <ele>32.340000000000003</ele>
        <time>2023-09-01T08:59:19Z</time>
      </trkpt>
      <trkpt lat="56.411747010424733" lon="-5.171565022319555">
        <ele>32.340000000000003</ele>
        <time>2023-09-01T08:59:20Z</time>
      </trkpt>
      <trkpt lat="56.411602003499866" lon="-5.171352960169315">
        <ele>32.82</ele>
        <time>2023-09-01T08:59:21Z</time>
      </trkpt>
      <trkpt lat="56.410448988899589" lon="-5.169339962303639">
        <ele>36.670000000000002</ele>
        <time>2023-09-01T08:59:30Z</time>
      </trkpt>
      <trkpt lat="56.40896899625659" lon="-5.166812986135483">
        <ele>39.549999999999997</ele>
        <time>2023-09-01T08:59:41Z</time>
      </trkpt>
      <trkpt lat="56.407926036044955" lon="-5.164733016863465">
        <ele>38.109999999999999</ele>
        <time>2023-09-01T08:59:49Z</time>
      </trkpt>
      <trkpt lat="56.406787019222975" lon="-5.162561014294624">
        <ele>40.030000000000001</ele>
        <time>2023-09-01T08:59:59Z</time>
      </trkpt>
      <trkpt lat="56.405418002977967" lon="-5.160028003156185">
        <ele>39.07</ele>
        <time>2023-09-01T09:00:10Z</time>
      </trkpt>
      <trkpt lat="56.404968984425068" lon="-5.159174976870418">
        <ele>38.109999999999999</ele>
        <time>2023-09-01T09:00:14Z</time>
      </trkpt>
      <trkpt lat="56.404385017231107" lon="-5.157315032556653">
        <ele>36.189999999999998</ele>
        <time>2023-09-01T09:00:21Z</time>
      </trkpt>
      <trkpt lat="56.404280997812748" lon="-5.156986964866519">
        <ele>36.189999999999998</ele>
        <time>2023-09-01T09:00:22Z</time>
      </trkpt>
      <trkpt lat="56.404187958687544" lon="-5.156800970435143">
        <ele>35.710000000000001</ele>
        <time>2023-09-01T09:00:23Z</time>
      </trkpt>
      <trkpt lat="56.402849033474922" lon="-5.154141979292035">
        <ele>34.259999999999998</ele>
        <time>2023-09-01T09:00:34Z</time>
      </trkpt>
      <trkpt lat="56.402637977153063" lon="-5.153649961575866">
        <ele>34.740000000000002</ele>
        <time>2023-09-01T09:00:36Z</time>
      </trkpt>
      <trkpt lat="56.40254401601851" lon="-5.15337604098022">
        <ele>34.740000000000002</ele>
        <time>2023-09-01T09:00:37Z</time>
      </trkpt>
      <trkpt lat="56.401804983615875" lon="-5.151156010106206">
        <ele>35.710000000000001</ele>
        <time>2023-09-01T09:00:45Z</time>
      </trkpt>
      <trkpt lat="56.401743041351438" lon="-5.150853004306555">
        <ele>35.710000000000001</ele>
        <time>2023-09-01T09:00:46Z</time>
      </trkpt>
      <trkpt lat="56.401619995012879" lon="-5.150257973000407">
        <ele>35.710000000000001</ele>
        <time>2023-09-01T09:00:48Z</time>
      </trkpt>
      <trkpt lat="56.401558974757791" lon="-5.14996100217104">
        <ele>35.710000000000001</ele>
        <time>2023-09-01T09:00:49Z</time>
      </trkpt>
      <trkpt lat="56.401499966159463" lon="-5.149670988321304">
        <ele>35.710000000000001</ele>
        <time>2023-09-01T09:00:50Z</time>
      </trkpt>
      <trkpt lat="56.401441041380167" lon="-5.149384997785091">
        <ele>35.710000000000001</ele>
        <time>2023-09-01T09:00:51Z</time>
      </trkpt>
      <trkpt lat="56.40138303861022" lon="-5.149108981713653">
        <ele>35.710000000000001</ele>
        <time>2023-09-01T09:00:52Z</time>
      </trkpt>
      <trkpt lat="56.401289999485016" lon="-5.148860961198807">
        <ele>36.189999999999998</ele>
        <time>2023-09-01T09:00:53Z</time>
      </trkpt>
      <trkpt lat="56.401198972016573" lon="-5.148618975654244">
        <ele>36.670000000000002</ele>
        <time>2023-09-01T09:00:54Z</time>
      </trkpt>
      <trkpt lat="56.400605030357838" lon="-5.146770011633635">
        <ele>38.590000000000003</ele>
        <time>2023-09-01T09:01:01Z</time>
      </trkpt>
      <trkpt lat="56.400536969304085" lon="-5.146473962813616">
        <ele>38.590000000000003</ele>
        <time>2023-09-01T09:01:02Z</time>
      </trkpt>
      <trkpt lat="56.400469997897744" lon="-5.146181015297771">
        <ele>38.590000000000003</ele>
        <time>2023-09-01T09:01:03Z</time>
      </trkpt>
      <trkpt lat="56.399929029867053" lon="-5.143857970833778">
        <ele>32.82</ele>
        <time>2023-09-01T09:01:11Z</time>
      </trkpt>
      <trkpt lat="56.399886030703783" lon="-5.143550019711256">
        <ele>31.379999999999999</ele>
        <time>2023-09-01T09:01:12Z</time>
      </trkpt>
      <trkpt lat="56.399496020749211" lon="-5.140720037743449">
        <ele>20.809999999999999</ele>
        <time>2023-09-01T09:01:21Z</time>
      </trkpt>
      <trkpt lat="56.399411028251052" lon="-5.140421977266669">
        <ele>20.32</ele>
        <time>2023-09-01T09:01:22Z</time>
      </trkpt>
      <trkpt lat="56.398782972246408" lon="-5.137998014688492">
        <ele>17.440000000000001</ele>
        <time>2023-09-01T09:01:30Z</time>
      </trkpt>
      <trkpt lat="56.398768974468112" lon="-5.137666007503867">
        <ele>16.960000000000001</ele>
        <time>2023-09-01T09:01:31Z</time>
      </trkpt>
      <trkpt lat="56.398754976689816" lon="-5.137330982834101">
        <ele>16.960000000000001</ele>
        <time>2023-09-01T09:01:32Z</time>
      </trkpt>
      <trkpt lat="56.398727986961603" lon="-5.136679960414767">
        <ele>17.440000000000001</ele>
        <time>2023-09-01T09:01:34Z</time>
      </trkpt>
      <trkpt lat="56.398696973919868" lon="-5.136355999857187">
        <ele>17.920000000000002</ele>
        <time>2023-09-01T09:01:35Z</time>
      </trkpt>
      <trkpt lat="56.398478038609028" lon="-5.133622996509075">
        <ele>21.77</ele>
        <time>2023-09-01T09:01:43Z</time>
      </trkpt>
      <trkpt lat="56.398345017805696" lon="-5.132222967222333">
        <ele>22.25</ele>
        <time>2023-09-01T09:01:47Z</time>
      </trkpt>
      <trkpt lat="56.397614032030106" lon="-5.129709988832474">
        <ele>26.09</ele>
        <time>2023-09-01T09:01:56Z</time>
      </trkpt>
      <trkpt lat="56.396696968004107" lon="-5.126952007412911">
        <ele>28.5</ele>
        <time>2023-09-01T09:02:06Z</time>
      </trkpt>
      <trkpt lat="56.395889958366752" lon="-5.123621039092541">
        <ele>28.02</ele>
        <time>2023-09-01T09:02:17Z</time>
      </trkpt>
      <trkpt lat="56.395536996424198" lon="-5.121493963524699">
        <ele>27.530000000000001</ele>
        <time>2023-09-01T09:02:24Z</time>
      </trkpt>
      <trkpt lat="56.395504977554083" lon="-5.121174026280642">
        <ele>27.530000000000001</ele>
        <time>2023-09-01T09:02:25Z</time>
      </trkpt>
      <trkpt lat="56.395432977005839" lon="-5.119618009775877">
        <ele>27.050000000000001</ele>
        <time>2023-09-01T09:02:32Z</time>
      </trkpt>
      <trkpt lat="56.395382015034556" lon="-5.118727013468742">
        <ele>28.98</ele>
        <time>2023-09-01T09:02:39Z</time>
      </trkpt>
      <trkpt lat="56.395372962579131" lon="-5.118646966293454">
        <ele>28.98</ele>
        <time>2023-09-01T09:02:40Z</time>
      </trkpt>
      <trkpt lat="56.395337004214525" lon="-5.118345972150564">
        <ele>29.460000000000001</ele>
        <time>2023-09-01T09:02:50Z</time>
      </trkpt>
      <trkpt lat="56.395305991172791" lon="-5.118181016296148">
        <ele>29.940000000000001</ele>
        <time>2023-09-01T09:03:21Z</time>
      </trkpt>
      <trkpt lat="56.395166013389826" lon="-5.117547009140253">
        <ele>30.420000000000002</ele>
        <time>2023-09-01T09:03:26Z</time>
      </trkpt>
      <trkpt lat="56.394944982603192" lon="-5.116934962570667">
        <ele>30.899999999999999</ele>
        <time>2023-09-01T09:03:30Z</time>
      </trkpt>
      <trkpt lat="56.39489502646029" lon="-5.116794984787703">
        <ele>30.420000000000002</ele>
        <time>2023-09-01T09:03:31Z</time>
      </trkpt>
      <trkpt lat="56.394834006205201" lon="-5.116627011448145">
        <ele>30.420000000000002</ele>
        <time>2023-09-01T09:03:32Z</time>
      </trkpt>
      <trkpt lat="56.394762005656958" lon="-5.116428025066853">
        <ele>29.940000000000001</ele>
        <time>2023-09-01T09:03:33Z</time>
      </trkpt>
      <trkpt lat="56.394696962088346" lon="-5.116217974573374">
        <ele>29.940000000000001</ele>
        <time>2023-09-01T09:03:34Z</time>
      </trkpt>
      <trkpt lat="56.394145013764501" lon="-5.114106992259622">
        <ele>32.340000000000003</ele>
        <time>2023-09-01T09:03:44Z</time>
      </trkpt>
      <trkpt lat="56.393545959144831" lon="-5.111630978062749">
        <ele>33.780000000000001</ele>
        <time>2023-09-01T09:03:53Z</time>
      </trkpt>
      <trkpt lat="56.392624033614993" lon="-5.108558004721999">
        <ele>32.82</ele>
        <time>2023-09-01T09:04:03Z</time>
      </trkpt>
      <trkpt lat="56.391850970685482" lon="-5.106452973559499">
        <ele>31.379999999999999</ele>
        <time>2023-09-01T09:04:11Z</time>
      </trkpt>
      <trkpt lat="56.391753992065787" lon="-5.106201013550162">
        <ele>30.899999999999999</ele>
        <time>2023-09-01T09:04:12Z</time>
      </trkpt>
      <trkpt lat="56.391259962692857" lon="-5.103908982127905">
        <ele>28.02</ele>
        <time>2023-09-01T09:04:20Z</time>
      </trkpt>
      <trkpt lat="56.390902977436781" lon="-5.100616989657283">
        <ele>23.210000000000001</ele>
        <time>2023-09-01T09:04:30Z</time>
      </trkpt>
      <trkpt lat="56.390810022130609" lon="-5.099988011643291">
        <ele>23.210000000000001</ele>
        <time>2023-09-01T09:04:32Z</time>
      </trkpt>
      <trkpt lat="56.390745984390378" lon="-5.099679976701737">
        <ele>23.210000000000001</ele>
        <time>2023-09-01T09:04:33Z</time>
      </trkpt>
      <trkpt lat="56.390294032171369" lon="-5.097564971074462">
        <ele>23.210000000000001</ele>
        <time>2023-09-01T09:04:40Z</time>
      </trkpt>
      <trkpt lat="56.390248015522957" lon="-5.097291972488165">
        <ele>23.210000000000001</ele>
        <time>2023-09-01T09:04:41Z</time>
      </trkpt>
      <trkpt lat="56.390162017196417" lon="-5.097032971680164">
        <ele>23.210000000000001</ele>
        <time>2023-09-01T09:04:42Z</time>
      </trkpt>
      <trkpt lat="56.389089971780777" lon="-5.094001991674304">
        <ele>24.170000000000002</ele>
        <time>2023-09-01T09:04:53Z</time>
      </trkpt>
      <trkpt lat="56.388006024062634" lon="-5.09081200696528">
        <ele>26.09</ele>
        <time>2023-09-01T09:05:04Z</time>
      </trkpt>
      <trkpt lat="56.387192979454994" lon="-5.08821303024888">
        <ele>26.57</ele>
        <time>2023-09-01T09:05:13Z</time>
      </trkpt>
      <trkpt lat="56.386868013069034" lon="-5.085303001105785">
        <ele>26.57</ele>
        <time>2023-09-01T09:05:22Z</time>
      </trkpt>
      <trkpt lat="56.386807998642325" lon="-5.081696016713977">
        <ele>25.609999999999999</ele>
        <time>2023-09-01T09:05:33Z</time>
      </trkpt>
      <trkpt lat="56.386813027784228" lon="-5.079197958111763">
        <ele>25.609999999999999</ele>
        <time>2023-09-01T09:05:41Z</time>
      </trkpt>
      <trkpt lat="56.387200020253658" lon="-5.076146023347974">
        <ele>28.02</ele>
        <time>2023-09-01T09:05:51Z</time>
      </trkpt>
      <trkpt lat="56.387968976050615" lon="-5.072138970717788">
        <ele>27.050000000000001</ele>
        <time>2023-09-01T09:06:04Z</time>
      </trkpt>
      <trkpt lat="56.388096967712045" lon="-5.071614012122154">
        <ele>27.050000000000001</ele>
        <time>2023-09-01T09:06:06Z</time>
      </trkpt>
      <trkpt lat="56.388223031535745" lon="-5.071096010506153">
        <ele>26.09</ele>
        <time>2023-09-01T09:06:08Z</time>
      </trkpt>
      <trkpt lat="56.388288997113705" lon="-5.070824017748237">
        <ele>26.09</ele>
        <time>2023-09-01T09:06:09Z</time>
      </trkpt>
      <trkpt lat="56.388351023197174" lon="-5.070570968091488">
        <ele>26.09</ele>
        <time>2023-09-01T09:06:10Z</time>
      </trkpt>
      <trkpt lat="56.388593008741736" lon="-5.069099022075534">
        <ele>26.09</ele>
        <time>2023-09-01T09:06:17Z</time>
      </trkpt>
      <trkpt lat="56.388624021783471" lon="-5.068849995732307">
        <ele>26.57</ele>
        <time>2023-09-01T09:06:18Z</time>
      </trkpt>
      <trkpt lat="56.388653023168445" lon="-5.068613039329648">
        <ele>27.530000000000001</ele>
        <time>2023-09-01T09:06:19Z</time>
      </trkpt>
      <trkpt lat="56.388719994574785" lon="-5.068245995789766">
        <ele>28.5</ele>
        <time>2023-09-01T09:06:21Z</time>
      </trkpt>
      <trkpt lat="56.388758970424533" lon="-5.068097971379757">
        <ele>28.98</ele>
        <time>2023-09-01T09:06:22Z</time>
      </trkpt>
      <trkpt lat="56.388803981244564" lon="-5.068013984709978">
        <ele>29.460000000000001</ele>
        <time>2023-09-01T09:06:23Z</time>
      </trkpt>
      <trkpt lat="56.388875981792808" lon="-5.06791097112">
        <ele>29.460000000000001</ele>
        <time>2023-09-01T09:06:24Z</time>
      </trkpt>
      <trkpt lat="56.388955023139715" lon="-5.067798988893628">
        <ele>29.940000000000001</ele>
        <time>2023-09-01T09:06:25Z</time>
      </trkpt>
      <trkpt lat="56.389045966789126" lon="-5.067668985575438">
        <ele>30.420000000000002</ele>
        <time>2023-09-01T09:06:26Z</time>
      </trkpt>
      <trkpt lat="56.389125008136034" lon="-5.067466981709003">
        <ele>30.420000000000002</ele>
        <time>2023-09-01T09:06:27Z</time>
      </trkpt>
      <trkpt lat="56.389194997027516" lon="-5.067247040569782">
        <ele>30.899999999999999</ele>
        <time>2023-09-01T09:06:28Z</time>
      </trkpt>
      <trkpt lat="56.389261968433857" lon="-5.067017963156104">
        <ele>31.379999999999999</ele>
        <time>2023-09-01T09:06:29Z</time>
      </trkpt>
      <trkpt lat="56.38933296315372" lon="-5.066776983439922">
        <ele>31.859999999999999</ele>
        <time>2023-09-01T09:06:30Z</time>
      </trkpt>
      <trkpt lat="56.389404963701963" lon="-5.066532986238599">
        <ele>32.340000000000003</ele>
        <time>2023-09-01T09:06:31Z</time>
      </trkpt>
      <trkpt lat="56.389475958421826" lon="-5.066292006522417">
        <ele>32.340000000000003</ele>
        <time>2023-09-01T09:06:32Z</time>
      </trkpt>
      <trkpt lat="56.389708975329995" lon="-5.065555991604924">
        <ele>32.82</ele>
        <time>2023-09-01T09:06:35Z</time>
      </trkpt>
      <trkpt lat="56.389907039701939" lon="-5.065061040222645">
        <ele>32.82</ele>
        <time>2023-09-01T09:06:37Z</time>
      </trkpt>
      <trkpt lat="56.390011981129646" lon="-5.06481695920229">
        <ele>32.82</ele>
        <time>2023-09-01T09:06:38Z</time>
      </trkpt>
      <trkpt lat="56.390737015753984" lon="-5.063174022361636">
        <ele>35.710000000000001</ele>
        <time>2023-09-01T09:06:46Z</time>
      </trkpt>
      <trkpt lat="56.391646033152938" lon="-5.06112196482718">
        <ele>44.359999999999999</ele>
        <time>2023-09-01T09:06:57Z</time>
      </trkpt>
      <trkpt lat="56.392577011138201" lon="-5.059218015521765">
        <ele>50.609999999999999</ele>
        <time>2023-09-01T09:07:08Z</time>
      </trkpt>
      <trkpt lat="56.393684009090066" lon="-5.057476004585624">
        <ele>54.93</ele>
        <time>2023-09-01T09:07:20Z</time>
      </trkpt>
      <trkpt lat="56.394033031538129" lon="-5.056958002969623">
        <ele>55.409999999999997</ele>
        <time>2023-09-01T09:07:24Z</time>
      </trkpt>
      <trkpt lat="56.394114000722766" lon="-5.056837974116206">
        <ele>55.409999999999997</ele>
        <time>2023-09-01T09:07:25Z</time>
      </trkpt>
      <trkpt lat="56.395121002569795" lon="-5.055338032543659">
        <ele>54.450000000000003</ele>
        <time>2023-09-01T09:07:37Z</time>
      </trkpt>
      <trkpt lat="56.395382015034556" lon="-5.054914997890592">
        <ele>53.009999999999998</ele>
        <time>2023-09-01T09:07:40Z</time>
      </trkpt>
      <trkpt lat="56.395463990047574" lon="-5.054765967652202">
        <ele>53.009999999999998</ele>
        <time>2023-09-01T09:07:41Z</time>
      </trkpt>
      <trkpt lat="56.395542025566101" lon="-5.054620960727334">
        <ele>53.009999999999998</ele>
        <time>2023-09-01T09:07:42Z</time>
      </trkpt>
      <trkpt lat="56.395826004445553" lon="-5.053955018520355">
        <ele>51.57</ele>
        <time>2023-09-01T09:07:46Z</time>
      </trkpt>
      <trkpt lat="56.396306036040187" lon="-5.052529005333781">
        <ele>46.759999999999998</ele>
        <time>2023-09-01T09:07:55Z</time>
      </trkpt>
      <trkpt lat="56.396363032981753" lon="-5.052359020337462">
        <ele>46.280000000000001</ele>
        <time>2023-09-01T09:07:56Z</time>
      </trkpt>
      <trkpt lat="56.396410977467895" lon="-5.052276961505413">
        <ele>45.799999999999997</ele>
        <time>2023-09-01T09:07:57Z</time>
      </trkpt>
      <trkpt lat="56.397052025422454" lon="-5.051158983260393">
        <ele>40.030000000000001</ele>
        <time>2023-09-01T09:08:05Z</time>
      </trkpt>
      <trkpt lat="56.397371962666512" lon="-5.050625978037715">
        <ele>38.590000000000003</ele>
        <time>2023-09-01T09:08:09Z</time>
      </trkpt>
      <trkpt lat="56.397455027326941" lon="-5.05050603300333">
        <ele>38.590000000000003</ele>
        <time>2023-09-01T09:08:10Z</time>
      </trkpt>
      <trkpt lat="56.39753800816834" lon="-5.050386004149914">
        <ele>38.109999999999999</ele>
        <time>2023-09-01T09:08:11Z</time>
      </trkpt>
      <trkpt lat="56.39762501232326" lon="-5.050260024145246">
        <ele>38.109999999999999</ele>
        <time>2023-09-01T09:08:12Z</time>
      </trkpt>
      <trkpt lat="56.397720985114574" lon="-5.05012096837163">
        <ele>38.109999999999999</ele>
        <time>2023-09-01T09:08:13Z</time>
      </trkpt>
      <trkpt lat="56.39781704172492" lon="-5.049981996417046">
        <ele>38.109999999999999</ele>
        <time>2023-09-01T09:08:14Z</time>
      </trkpt>
      <trkpt lat="56.397908991202712" lon="-5.049848975613713">
        <ele>37.630000000000003</ele>
        <time>2023-09-01T09:08:15Z</time>
      </trkpt>
      <trkpt lat="56.397997001186013" lon="-5.049720983952284">
        <ele>37.630000000000003</ele>
        <time>2023-09-01T09:08:16Z</time>
      </trkpt>
      <trkpt lat="56.398260025307536" lon="-5.049341032281518">
        <ele>36.189999999999998</ele>
        <time>2023-09-01T09:08:19Z</time>
      </trkpt>
      <trkpt lat="56.398359015583992" lon="-5.04919895902276">
        <ele>35.710000000000001</ele>
        <time>2023-09-01T09:08:20Z</time>
      </trkpt>
      <trkpt lat="56.398452976718545" lon="-5.049063004553318">
        <ele>35.229999999999997</ele>
        <time>2023-09-01T09:08:21Z</time>
      </trkpt>
      <trkpt lat="56.398537969216704" lon="-5.04893995821476">
        <ele>35.229999999999997</ele>
        <time>2023-09-01T09:08:22Z</time>
      </trkpt>
      <trkpt lat="56.398623967543244" lon="-5.048815989866853">
        <ele>35.229999999999997</ele>
        <time>2023-09-01T09:08:23Z</time>
      </trkpt>
      <trkpt lat="56.39871901832521" lon="-5.048677017912269">
        <ele>34.740000000000002</ele>
        <time>2023-09-01T09:08:24Z</time>
      </trkpt>
      <trkpt lat="56.398813985288143" lon="-5.048540979623795">
        <ele>34.740000000000002</ele>
        <time>2023-09-01T09:08:25Z</time>
      </trkpt>
      <trkpt lat="56.398897971957922" lon="-5.048404019325972">
        <ele>34.259999999999998</ele>
        <time>2023-09-01T09:08:26Z</time>
      </trkpt>
      <trkpt lat="56.398975001648068" lon="-5.048240991309285">
        <ele>34.259999999999998</ele>
        <time>2023-09-01T09:08:27Z</time>
      </trkpt>
      <trkpt lat="56.399067034944892" lon="-5.048046028241515">
        <ele>34.259999999999998</ele>
        <time>2023-09-01T09:08:28Z</time>
      </trkpt>
      <trkpt lat="56.399124031886458" lon="-5.047883000224829">
        <ele>33.780000000000001</ele>
        <time>2023-09-01T09:08:29Z</time>
      </trkpt>
      <trkpt lat="56.399512030184269" lon="-5.046772984787822">
        <ele>34.740000000000002</ele>
        <time>2023-09-01T09:08:35Z</time>
      </trkpt>
      <trkpt lat="56.399585958570242" lon="-5.046596964821219">
        <ele>34.740000000000002</ele>
        <time>2023-09-01T09:08:36Z</time>
      </trkpt>
      <trkpt lat="56.399842025712132" lon="-5.046146018430591">
        <ele>34.740000000000002</ele>
        <time>2023-09-01T09:08:39Z</time>
      </trkpt>
      <trkpt lat="56.399934981018305" lon="-5.046028001233935">
        <ele>34.740000000000002</ele>
        <time>2023-09-01T09:08:40Z</time>
      </trkpt>
      <trkpt lat="56.400123992934823" lon="-5.045786015689373">
        <ele>34.740000000000002</ele>
        <time>2023-09-01T09:08:42Z</time>
      </trkpt>
      <trkpt lat="56.400309987366199" lon="-5.04552299156785">
        <ele>34.740000000000002</ele>
        <time>2023-09-01T09:08:44Z</time>
      </trkpt>
      <trkpt lat="56.400706032291055" lon="-5.044784964993596">
        <ele>35.710000000000001</ele>
        <time>2023-09-01T09:08:49Z</time>
      </trkpt>
      <trkpt lat="56.400808040052652" lon="-5.044659990817308">
        <ele>35.710000000000001</ele>
        <time>2023-09-01T09:08:50Z</time>
      </trkpt>
      <trkpt lat="56.400913987308741" lon="-5.044563012197614">
        <ele>36.189999999999998</ele>
        <time>2023-09-01T09:08:51Z</time>
      </trkpt>
      <trkpt lat="56.401323024183512" lon="-5.044193034991622">
        <ele>38.109999999999999</ele>
        <time>2023-09-01T09:08:55Z</time>
      </trkpt>
      <trkpt lat="56.401426959782839" lon="-5.044097984209657">
        <ele>38.590000000000003</ele>
        <time>2023-09-01T09:08:56Z</time>
      </trkpt>
      <trkpt lat="56.401501977816224" lon="-5.043948031961918">
        <ele>39.07</ele>
        <time>2023-09-01T09:08:57Z</time>
      </trkpt>
      <trkpt lat="56.401810012757778" lon="-5.043333973735571">
        <ele>41.950000000000003</ele>
        <time>2023-09-01T09:09:01Z</time>
      </trkpt>
      <trkpt lat="56.402005981653929" lon="-5.04311503842473">
        <ele>43.399999999999999</ele>
        <time>2023-09-01T09:09:03Z</time>
      </trkpt>
      <trkpt lat="56.402102960273623" lon="-5.043034991249442">
        <ele>44.359999999999999</ele>
        <time>2023-09-01T09:09:04Z</time>
      </trkpt>
      <trkpt lat="56.402203040197492" lon="-5.042951004579663">
        <ele>44.840000000000003</ele>
        <time>2023-09-01T09:09:05Z</time>
      </trkpt>
      <trkpt lat="56.402746019884944" lon="-5.042560994625092">
        <ele>49.649999999999999</ele>
        <time>2023-09-01T09:09:10Z</time>
      </trkpt>
      <trkpt lat="56.402836963534355" lon="-5.042424034327269">
        <ele>50.609999999999999</ele>
        <time>2023-09-01T09:09:11Z</time>
      </trkpt>
      <trkpt lat="56.402927991002798" lon="-5.042286990210414">
        <ele>51.57</ele>
        <time>2023-09-01T09:09:12Z</time>
      </trkpt>
      <trkpt lat="56.403016000986099" lon="-5.042154975235462">
        <ele>52.530000000000001</ele>
        <time>2023-09-01T09:09:13Z</time>
      </trkpt>
      <trkpt lat="56.40308297239244" lon="-5.042003011330962">
        <ele>53.490000000000002</ele>
        <time>2023-09-01T09:09:14Z</time>
      </trkpt>
      <trkpt lat="56.403148015961051" lon="-5.041832020506263">
        <ele>54.450000000000003</ele>
        <time>2023-09-01T09:09:15Z</time>
      </trkpt>
      <trkpt lat="56.403208030387759" lon="-5.041673015803099">
        <ele>54.93</ele>
        <time>2023-09-01T09:09:16Z</time>
      </trkpt>
      <trkpt lat="56.40331800095737" lon="-5.041258027777076">
        <ele>55.890000000000001</ele>
        <time>2023-09-01T09:09:18Z</time>
      </trkpt>
      <trkpt lat="56.403730977326632" lon="-5.039531020447612">
        <ele>58.299999999999997</ele>
        <time>2023-09-01T09:09:27Z</time>
      </trkpt>
      <trkpt lat="56.403871038928628" lon="-5.038807997480035">
        <ele>58.780000000000001</ele>
        <time>2023-09-01T09:09:31Z</time>
      </trkpt>
      <trkpt lat="56.404075976461172" lon="-5.037017958238721">
        <ele>59.740000000000002</ele>
        <time>2023-09-01T09:09:41Z</time>
      </trkpt>
      <trkpt lat="56.404124004766345" lon="-5.036860965192318">
        <ele>59.740000000000002</ele>
        <time>2023-09-01T09:09:42Z</time>
      </trkpt>
      <trkpt lat="56.404173038899899" lon="-5.036699026823044">
        <ele>59.740000000000002</ele>
        <time>2023-09-01T09:09:43Z</time>
      </trkpt>
      <trkpt lat="56.404242021963" lon="-5.036578997969627">
        <ele>59.740000000000002</ele>
        <time>2023-09-01T09:09:44Z</time>
      </trkpt>
      <trkpt lat="56.404317962005734" lon="-5.036451006308198">
        <ele>59.259999999999998</ele>
        <time>2023-09-01T09:09:45Z</time>
      </trkpt>
      <trkpt lat="56.404390968382359" lon="-5.03632896579802">
        <ele>59.259999999999998</ele>
        <time>2023-09-01T09:09:46Z</time>
      </trkpt>
      <trkpt lat="56.405324963852763" lon="-5.035564033314586">
        <ele>60.700000000000003</ele>
        <time>2023-09-01T09:09:54Z</time>
      </trkpt>
      <trkpt lat="56.405787980183959" lon="-5.034786025062203">
        <ele>60.219999999999999</ele>
        <time>2023-09-01T09:09:59Z</time>
      </trkpt>
      <trkpt lat="56.405893005430698" lon="-5.034645041450858">
        <ele>59.740000000000002</ele>
        <time>2023-09-01T09:10:00Z</time>
      </trkpt>
      <trkpt lat="56.406923979520798" lon="-5.033435029909015">
        <ele>57.82</ele>
        <time>2023-09-01T09:10:10Z</time>
      </trkpt>
      <trkpt lat="56.408126028254628" lon="-5.031953025609255">
        <ele>53.490000000000002</ele>
        <time>2023-09-01T09:10:19Z</time>
      </trkpt>
      <trkpt lat="56.409152979031205" lon="-5.030903024598956">
        <ele>49.649999999999999</ele>
        <time>2023-09-01T09:10:26Z</time>
      </trkpt>
      <trkpt lat="56.410085968673229" lon="-5.029513975605369">
        <ele>48.200000000000003</ele>
        <time>2023-09-01T09:10:34Z</time>
      </trkpt>
      <trkpt lat="56.410184958949685" lon="-5.029326975345612">
        <ele>48.200000000000003</ele>
        <time>2023-09-01T09:10:35Z</time>
      </trkpt>
      <trkpt lat="56.410271041095257" lon="-5.0291099678725">
        <ele>48.200000000000003</ele>
        <time>2023-09-01T09:10:36Z</time>
      </trkpt>
      <trkpt lat="56.410346981137991" lon="-5.028883991762996">
        <ele>47.719999999999999</ele>
        <time>2023-09-01T09:10:37Z</time>
      </trkpt>
      <trkpt lat="56.410415964201093" lon="-5.028636977076531">
        <ele>47.240000000000002</ele>
        <time>2023-09-01T09:10:38Z</time>
      </trkpt>
      <trkpt lat="56.410463992506266" lon="-5.028366995975375">
        <ele>46.759999999999998</ele>
        <time>2023-09-01T09:10:39Z</time>
      </trkpt>
      <trkpt lat="56.410482013598084" lon="-5.028092991560698">
        <ele>46.280000000000001</ele>
        <time>2023-09-01T09:10:40Z</time>
      </trkpt>
      <trkpt lat="56.410501040518284" lon="-5.027812030166388">
        <ele>45.32</ele>
        <time>2023-09-01T09:10:41Z</time>
      </trkpt>
      <trkpt lat="56.410501962527633" lon="-5.027512041851878">
        <ele>44.840000000000003</ele>
        <time>2023-09-01T09:10:42Z</time>
      </trkpt>
      <trkpt lat="56.410403978079557" lon="-5.023962976410985">
        <ele>35.229999999999997</ele>
        <time>2023-09-01T09:10:54Z</time>
      </trkpt>
      <trkpt lat="56.409862004220486" lon="-5.021834978833795">
        <ele>33.780000000000001</ele>
        <time>2023-09-01T09:11:02Z</time>
      </trkpt>
      <trkpt lat="56.408790964633226" lon="-5.019645961001515">
        <ele>36.670000000000002</ele>
        <time>2023-09-01T09:11:12Z</time>
      </trkpt>
      <trkpt lat="56.407368974760175" lon="-5.016910023987293">
        <ele>34.259999999999998</ele>
        <time>2023-09-01T09:11:24Z</time>
      </trkpt>
      <trkpt lat="56.406292989850044" lon="-5.014465022832155">
        <ele>33.780000000000001</ele>
        <time>2023-09-01T09:11:34Z</time>
      </trkpt>
      <trkpt lat="56.405752021819353" lon="-5.012912023812532">
        <ele>33.780000000000001</ele>
        <time>2023-09-01T09:11:42Z</time>
      </trkpt>
      <trkpt lat="56.405600979924202" lon="-5.012458981946111">
        <ele>33.780000000000001</ele>
        <time>2023-09-01T09:11:45Z</time>
      </trkpt>
      <trkpt lat="56.405568039044738" lon="-5.012359991669655">
        <ele>33.780000000000001</ele>
        <time>2023-09-01T09:11:46Z</time>
      </trkpt>
      <trkpt lat="56.405494026839733" lon="-5.012312969192863">
        <ele>33.780000000000001</ele>
        <time>2023-09-01T09:11:47Z</time>
      </trkpt>
      <trkpt lat="56.405420014634728" lon="-5.012335013598204">
        <ele>33.780000000000001</ele>
        <time>2023-09-01T09:11:48Z</time>
      </trkpt>
      <trkpt lat="56.405333010479808" lon="-5.012360997498035">
        <ele>33.780000000000001</ele>
        <time>2023-09-01T09:11:49Z</time>
      </trkpt>
      <trkpt lat="56.405236031860113" lon="-5.012389998883009">
        <ele>33.780000000000001</ele>
        <time>2023-09-01T09:11:50Z</time>
      </trkpt>
      <trkpt lat="56.405135029926896" lon="-5.012420006096363">
        <ele>34.259999999999998</ele>
        <time>2023-09-01T09:11:51Z</time>
      </trkpt>
      <trkpt lat="56.405031010508537" lon="-5.012451019138098">
        <ele>34.259999999999998</ele>
        <time>2023-09-01T09:11:52Z</time>
      </trkpt>
      <trkpt lat="56.404931014403701" lon="-5.012514973059297">
        <ele>34.740000000000002</ele>
        <time>2023-09-01T09:11:53Z</time>
      </trkpt>
      <trkpt lat="56.404834035784006" lon="-5.012637013569474">
        <ele>35.229999999999997</ele>
        <time>2023-09-01T09:11:54Z</time>
      </trkpt>
      <trkpt lat="56.404729010537267" lon="-5.012770034372807">
        <ele>35.710000000000001</ele>
        <time>2023-09-01T09:11:55Z</time>
      </trkpt>
      <trkpt lat="56.404614010825753" lon="-5.012913029640913">
        <ele>36.670000000000002</ele>
        <time>2023-09-01T09:11:56Z</time>
      </trkpt>
      <trkpt lat="56.403443980962038" lon="-5.014632996171713">
        <ele>42.920000000000002</ele>
        <time>2023-09-01T09:12:05Z</time>
      </trkpt>
      <trkpt lat="56.402773009613156" lon="-5.016697039827704">
        <ele>46.280000000000001</ele>
        <time>2023-09-01T09:12:13Z</time>
      </trkpt>
      <trkpt lat="56.401954013854265" lon="-5.018568970263004">
        <ele>48.200000000000003</ele>
        <time>2023-09-01T09:12:21Z</time>
      </trkpt>
      <trkpt lat="56.401020018383861" lon="-5.020651035010815">
        <ele>44.840000000000003</ele>
        <time>2023-09-01T09:12:29Z</time>
      </trkpt>
      <trkpt lat="56.400097003206611" lon="-5.02407998777926">
        <ele>42.920000000000002</ele>
        <time>2023-09-01T09:12:41Z</time>
      </trkpt>
      <trkpt lat="56.399268032982945" lon="-5.027123037725687">
        <ele>39.549999999999997</ele>
        <time>2023-09-01T09:12:52Z</time>
      </trkpt>
      <trkpt lat="56.398733016103506" lon="-5.029977997764945">
        <ele>35.229999999999997</ele>
        <time>2023-09-01T09:13:01Z</time>
      </trkpt>
      <trkpt lat="56.39871901832521" lon="-5.032097026705742">
        <ele>32.340000000000003</ele>
        <time>2023-09-01T09:13:07Z</time>
      </trkpt>
      <trkpt lat="56.398703008890152" lon="-5.032433979213238">
        <ele>31.859999999999999</ele>
        <time>2023-09-01T09:13:08Z</time>
      </trkpt>
      <trkpt lat="56.398648023605347" lon="-5.032756011933088">
        <ele>31.859999999999999</ele>
        <time>2023-09-01T09:13:09Z</time>
      </trkpt>
      <trkpt lat="56.398592032492161" lon="-5.033077960833907">
        <ele>31.379999999999999</ele>
        <time>2023-09-01T09:13:10Z</time>
      </trkpt>
      <trkpt lat="56.398525983095169" lon="-5.033400999382138">
        <ele>30.899999999999999</ele>
        <time>2023-09-01T09:13:11Z</time>
      </trkpt>
      <trkpt lat="56.39844099059701" lon="-5.033710040152073">
        <ele>30.899999999999999</ele>
        <time>2023-09-01T09:13:12Z</time>
      </trkpt>
      <trkpt lat="56.397715033963323" lon="-5.035643996670842">
        <ele>30.899999999999999</ele>
        <time>2023-09-01T09:13:19Z</time>
      </trkpt>
      <trkpt lat="56.397028975188732" lon="-5.037575019523501">
        <ele>32.82</ele>
        <time>2023-09-01T09:13:26Z</time>
      </trkpt>
      <trkpt lat="56.396914981305599" lon="-5.03781097009778">
        <ele>33.299999999999997</ele>
        <time>2023-09-01T09:13:27Z</time>
      </trkpt>
      <trkpt lat="56.396811967715621" lon="-5.03802496008575">
        <ele>33.780000000000001</ele>
        <time>2023-09-01T09:13:28Z</time>
      </trkpt>
      <trkpt lat="56.396695962175727" lon="-5.038219001144171">
        <ele>33.780000000000001</ele>
        <time>2023-09-01T09:13:29Z</time>
      </trkpt>
      <trkpt lat="56.396561013534665" lon="-5.038384962826967">
        <ele>33.780000000000001</ele>
        <time>2023-09-01T09:13:30Z</time>
      </trkpt>
      <trkpt lat="56.396419024094939" lon="-5.038557965308428">
        <ele>33.780000000000001</ele>
        <time>2023-09-01T09:13:31Z</time>
      </trkpt>
      <trkpt lat="56.396273011341691" lon="-5.038702972233295">
        <ele>33.780000000000001</ele>
        <time>2023-09-01T09:13:32Z</time>
      </trkpt>
      <trkpt lat="56.395204989239573" lon="-5.039367992430925">
        <ele>34.259999999999998</ele>
        <time>2023-09-01T09:13:39Z</time>
      </trkpt>
      <trkpt lat="56.39382298104465" lon="-5.040135020390153">
        <ele>33.780000000000001</ele>
        <time>2023-09-01T09:13:47Z</time>
      </trkpt>
      <trkpt lat="56.392924021929502" lon="-5.041197007521987">
        <ele>31.859999999999999</ele>
        <time>2023-09-01T09:13:53Z</time>
      </trkpt>
      <trkpt lat="56.392797036096454" lon="-5.041408985853195">
        <ele>31.379999999999999</ele>
        <time>2023-09-01T09:13:54Z</time>
      </trkpt>
      <trkpt lat="56.392673989757895" lon="-5.04163202829659">
        <ele>31.379999999999999</ele>
        <time>2023-09-01T09:13:55Z</time>
      </trkpt>
      <trkpt lat="56.391606973484159" lon="-5.043702023103833">
        <ele>28.5</ele>
        <time>2023-09-01T09:14:05Z</time>
      </trkpt>
      <trkpt lat="56.391560034826398" lon="-5.043778968974948">
        <ele>28.02</ele>
        <time>2023-09-01T09:14:06Z</time>
      </trkpt>
      <trkpt lat="56.391512006521225" lon="-5.043842000886798">
        <ele>28.02</ele>
        <time>2023-09-01T09:14:07Z</time>
      </trkpt>
      <trkpt lat="56.391475964337587" lon="-5.043877959251404">
        <ele>27.530000000000001</ele>
        <time>2023-09-01T09:14:08Z</time>
      </trkpt>
      <trkpt lat="56.391452997922897" lon="-5.043901009485126">
        <ele>27.530000000000001</ele>
        <time>2023-09-01T09:14:09Z</time>
      </trkpt>
      <trkpt lat="56.391452997922897" lon="-5.043901009485126">
        <ele>27.530000000000001</ele>
        <time>2023-09-01T09:14:10Z</time>
      </trkpt>
      <trkpt lat="56.391251999884844" lon="-5.044102007523179">
        <ele>29.460000000000001</ele>
        <time>2023-09-01T09:14:16Z</time>
      </trkpt>
      <trkpt lat="56.391171030700207" lon="-5.044183982536197">
        <ele>29.940000000000001</ele>
        <time>2023-09-01T09:14:17Z</time>
      </trkpt>
      <trkpt lat="56.390451025217772" lon="-5.044325971975923">
        <ele>32.82</ele>
        <time>2023-09-01T09:14:23Z</time>
      </trkpt>
      <trkpt lat="56.390311969444156" lon="-5.044283978641033">
        <ele>32.82</ele>
        <time>2023-09-01T09:14:24Z</time>
      </trkpt>
      <trkpt lat="56.390180960297585" lon="-5.044243996962905">
        <ele>33.299999999999997</ele>
        <time>2023-09-01T09:14:25Z</time>
      </trkpt>
      <trkpt lat="56.389949033036828" lon="-5.044109970331192">
        <ele>34.740000000000002</ele>
        <time>2023-09-01T09:14:27Z</time>
      </trkpt>
      <trkpt lat="56.389839984476566" lon="-5.044011985883117">
        <ele>35.229999999999997</ele>
        <time>2023-09-01T09:14:28Z</time>
      </trkpt>
      <trkpt lat="56.389725990593433" lon="-5.043908972293139">
        <ele>35.710000000000001</ele>
        <time>2023-09-01T09:14:29Z</time>
      </trkpt>
      <trkpt lat="56.38961099088192" lon="-5.043796990066767">
        <ele>36.189999999999998</ele>
        <time>2023-09-01T09:14:30Z</time>
      </trkpt>
      <trkpt lat="56.389506971463561" lon="-5.043641002848744">
        <ele>36.189999999999998</ele>
        <time>2023-09-01T09:14:31Z</time>
      </trkpt>
      <trkpt lat="56.38939599506557" lon="-5.043475041165948">
        <ele>36.670000000000002</ele>
        <time>2023-09-01T09:14:32Z</time>
      </trkpt>
      <trkpt lat="56.389275966212153" lon="-5.04328996874392">
        <ele>37.149999999999999</ele>
        <time>2023-09-01T09:14:33Z</time>
      </trkpt>
      <trkpt lat="56.388389999046922" lon="-5.041430024430156">
        <ele>38.590000000000003</ele>
        <time>2023-09-01T09:14:41Z</time>
      </trkpt>
      <trkpt lat="56.388273993507028" lon="-5.041237995028496">
        <ele>38.590000000000003</ele>
        <time>2023-09-01T09:14:42Z</time>
      </trkpt>
      <trkpt lat="56.388157987967134" lon="-5.041044959798455">
        <ele>38.590000000000003</ele>
        <time>2023-09-01T09:14:43Z</time>
      </trkpt>
      <trkpt lat="56.386878993362188" lon="-5.03972196020186">
        <ele>39.07</ele>
        <time>2023-09-01T09:14:52Z</time>
      </trkpt>
      <trkpt lat="56.386734992265701" lon="-5.039553986862302">
        <ele>39.07</ele>
        <time>2023-09-01T09:14:53Z</time>
      </trkpt>
      <trkpt lat="56.386593002825975" lon="-5.039384001865983">
        <ele>38.590000000000003</ele>
        <time>2023-09-01T09:14:54Z</time>
      </trkpt>
      <trkpt lat="56.386476997286081" lon="-5.039151990786195">
        <ele>38.590000000000003</ele>
        <time>2023-09-01T09:14:55Z</time>
      </trkpt>
      <trkpt lat="56.386361997574568" lon="-5.038921991363168">
        <ele>38.590000000000003</ele>
        <time>2023-09-01T09:14:56Z</time>
      </trkpt>
      <trkpt lat="56.386253032833338" lon="-5.038702972233295">
        <ele>38.109999999999999</ele>
        <time>2023-09-01T09:14:57Z</time>
      </trkpt>
      <trkpt lat="56.386040970683098" lon="-5.03828002139926">
        <ele>37.630000000000003</ele>
        <time>2023-09-01T09:14:59Z</time>
      </trkpt>
      <trkpt lat="56.385931000113487" lon="-5.038078017532826">
        <ele>37.149999999999999</ele>
        <time>2023-09-01T09:15:00Z</time>
      </trkpt>
      <trkpt lat="56.385794961825013" lon="-5.037920018658042">
        <ele>37.149999999999999</ele>
        <time>2023-09-01T09:15:01Z</time>
      </trkpt>
      <trkpt lat="56.385644003748894" lon="-5.037832008674741">
        <ele>36.670000000000002</ele>
        <time>2023-09-01T09:15:02Z</time>
      </trkpt>
      <trkpt lat="56.385494973510504" lon="-5.03774399869144">
        <ele>36.189999999999998</ele>
        <time>2023-09-01T09:15:03Z</time>
      </trkpt>
      <trkpt lat="56.385328005999327" lon="-5.037742992863059">
        <ele>35.710000000000001</ele>
        <time>2023-09-01T09:15:04Z</time>
      </trkpt>
      <trkpt lat="56.38516397215426" lon="-5.037765959277749">
        <ele>35.710000000000001</ele>
        <time>2023-09-01T09:15:05Z</time>
      </trkpt>
      <trkpt lat="56.384990969672799" lon="-5.037789009511471">
        <ele>35.710000000000001</ele>
        <time>2023-09-01T09:15:06Z</time>
      </trkpt>
      <trkpt lat="56.38484001159668" lon="-5.037884982302785">
        <ele>35.710000000000001</ele>
        <time>2023-09-01T09:15:07Z</time>
      </trkpt>
      <trkpt lat="56.384678995236754" lon="-5.037985984236002">
        <ele>35.710000000000001</ele>
        <time>2023-09-01T09:15:08Z</time>
      </trkpt>
      <trkpt lat="56.382983000949025" lon="-5.038772961124778">
        <ele>36.670000000000002</ele>
        <time>2023-09-01T09:15:18Z</time>
      </trkpt>
      <trkpt lat="56.381580037996173" lon="-5.039557004347444">
        <ele>36.670000000000002</ele>
        <time>2023-09-01T09:15:26Z</time>
      </trkpt>
      <trkpt lat="56.381422961130738" lon="-5.039730006828904">
        <ele>36.670000000000002</ele>
        <time>2023-09-01T09:15:27Z</time>
      </trkpt>
      <trkpt lat="56.3805459626019" lon="-5.041351988911629">
        <ele>36.189999999999998</ele>
        <time>2023-09-01T09:15:34Z</time>
      </trkpt>
      <trkpt lat="56.379911033436656" lon="-5.042903982102871">
        <ele>36.670000000000002</ele>
        <time>2023-09-01T09:15:40Z</time>
      </trkpt>
      <trkpt lat="56.37977097183466" lon="-5.04309500567615">
        <ele>37.149999999999999</ele>
        <time>2023-09-01T09:15:41Z</time>
      </trkpt>
      <trkpt lat="56.379482969641685" lon="-5.043486021459103">
        <ele>37.630000000000003</ele>
        <time>2023-09-01T09:15:43Z</time>
      </trkpt>
      <trkpt lat="56.379331005737185" lon="-5.043647037819028">
        <ele>38.109999999999999</ele>
        <time>2023-09-01T09:15:44Z</time>
      </trkpt>
      <trkpt lat="56.379164960235357" lon="-5.043777963146567">
        <ele>38.109999999999999</ele>
        <time>2023-09-01T09:15:45Z</time>
      </trkpt>
      <trkpt lat="56.377070993185043" lon="-5.045401034876704">
        <ele>47.240000000000002</ele>
        <time>2023-09-01T09:15:58Z</time>
      </trkpt>
      <trkpt lat="56.375139970332384" lon="-5.046871975064278">
        <ele>56.369999999999997</ele>
        <time>2023-09-01T09:16:09Z</time>
      </trkpt>
      <trkpt lat="56.374297002330422" lon="-5.047604972496629">
        <ele>58.780000000000001</ele>
        <time>2023-09-01T09:16:14Z</time>
      </trkpt>
      <trkpt lat="56.374146966263652" lon="-5.047766994684935">
        <ele>59.259999999999998</ele>
        <time>2023-09-01T09:16:15Z</time>
      </trkpt>
      <trkpt lat="56.374002965167165" lon="-5.047966986894608">
        <ele>59.259999999999998</ele>
        <time>2023-09-01T09:16:16Z</time>
      </trkpt>
      <trkpt lat="56.373887965455651" lon="-5.04820603877306">
        <ele>59.259999999999998</ele>
        <time>2023-09-01T09:16:17Z</time>
      </trkpt>
      <trkpt lat="56.373769026249647" lon="-5.048453975468874">
        <ele>59.740000000000002</ele>
        <time>2023-09-01T09:16:18Z</time>
      </trkpt>
      <trkpt lat="56.373686967417598" lon="-5.048721022903919">
        <ele>59.740000000000002</ele>
        <time>2023-09-01T09:16:19Z</time>
      </trkpt>
      <trkpt lat="56.373607004061341" lon="-5.049016987904906">
        <ele>59.740000000000002</ele>
        <time>2023-09-01T09:16:20Z</time>
      </trkpt>
      <trkpt lat="56.373556964099407" lon="-5.049337008967996">
        <ele>59.740000000000002</ele>
        <time>2023-09-01T09:16:21Z</time>
      </trkpt>
      <trkpt lat="56.373503990471363" lon="-5.04966901615262">
        <ele>59.740000000000002</ele>
        <time>2023-09-01T09:16:22Z</time>
      </trkpt>
      <trkpt lat="56.372886998578906" lon="-5.052818013355136">
        <ele>56.369999999999997</ele>
        <time>2023-09-01T09:16:32Z</time>
      </trkpt>
      <trkpt lat="56.371634993702173" lon="-5.057236030697823">
        <ele>51.090000000000003</ele>
        <time>2023-09-01T09:16:47Z</time>
      </trkpt>
      <trkpt lat="56.370926974341273" lon="-5.05905699916184">
        <ele>46.280000000000001</ele>
        <time>2023-09-01T09:16:54Z</time>
      </trkpt>
      <trkpt lat="56.370293973013759" lon="-5.059979008510709">
        <ele>43.880000000000003</ele>
        <time>2023-09-01T09:16:59Z</time>
      </trkpt>
      <trkpt lat="56.370155001059175" lon="-5.060103982686997">
        <ele>43.880000000000003</ele>
        <time>2023-09-01T09:17:00Z</time>
      </trkpt>
      <trkpt lat="56.370056010782719" lon="-5.060190986841917">
        <ele>42.920000000000002</ele>
        <time>2023-09-01T09:17:01Z</time>
      </trkpt>
      <trkpt lat="56.369873033836484" lon="-5.06021898239851">
        <ele>41.950000000000003</ele>
        <time>2023-09-01T09:17:02Z</time>
      </trkpt>
      <trkpt lat="56.369731966406107" lon="-5.060240020975471">
        <ele>40.509999999999998</ele>
        <time>2023-09-01T09:17:03Z</time>
      </trkpt>
      <trkpt lat="56.369573967531323" lon="-5.060229040682316">
        <ele>39.549999999999997</ele>
        <time>2023-09-01T09:17:04Z</time>
      </trkpt>
      <trkpt lat="56.369429966434836" lon="-5.060157040134072">
        <ele>38.590000000000003</ele>
        <time>2023-09-01T09:17:05Z</time>
      </trkpt>
      <trkpt lat="56.369279008358717" lon="-5.060068024322391">
        <ele>37.630000000000003</ele>
        <time>2023-09-01T09:17:06Z</time>
      </trkpt>
      <trkpt lat="56.367872022092342" lon="-5.05888600833714">
        <ele>31.859999999999999</ele>
        <time>2023-09-01T09:17:15Z</time>
      </trkpt>
      <trkpt lat="56.367708994075656" lon="-5.058809984475374">
        <ele>31.379999999999999</ele>
        <time>2023-09-01T09:17:16Z</time>
      </trkpt>
      <trkpt lat="56.367541020736098" lon="-5.058732032775879">
        <ele>30.899999999999999</ele>
        <time>2023-09-01T09:17:17Z</time>
      </trkpt>
      <trkpt lat="56.367370029911399" lon="-5.058652991428971">
        <ele>30.899999999999999</ele>
        <time>2023-09-01T09:17:18Z</time>
      </trkpt>
      <trkpt lat="56.366131016984582" lon="-5.058659026399255">
        <ele>29.940000000000001</ele>
        <time>2023-09-01T09:17:25Z</time>
      </trkpt>
      <trkpt lat="56.365587031468749" lon="-5.058745024725795">
        <ele>29.460000000000001</ele>
        <time>2023-09-01T09:17:28Z</time>
      </trkpt>
      <trkpt lat="56.36541998013854" lon="-5.058834040537477">
        <ele>29.460000000000001</ele>
        <time>2023-09-01T09:17:29Z</time>
      </trkpt>
      <trkpt lat="56.365269022062421" lon="-5.058966977521777">
        <ele>29.460000000000001</ele>
        <time>2023-09-01T09:17:30Z</time>
      </trkpt>
      <trkpt lat="56.365126026794314" lon="-5.059094969183207">
        <ele>29.940000000000001</ele>
        <time>2023-09-01T09:17:31Z</time>
      </trkpt>
      <trkpt lat="56.365011027082801" lon="-5.059280041605234">
        <ele>29.940000000000001</ele>
        <time>2023-09-01T09:17:32Z</time>
      </trkpt>
      <trkpt lat="56.364901978522539" lon="-5.059481039643288">
        <ele>30.420000000000002</ele>
        <time>2023-09-01T09:17:33Z</time>
      </trkpt>
      <trkpt lat="56.36481799185276" lon="-5.059700980782509">
        <ele>30.420000000000002</ele>
        <time>2023-09-01T09:17:34Z</time>
      </trkpt>
      <trkpt lat="56.364760994911194" lon="-5.059964004904032">
        <ele>30.899999999999999</ele>
        <time>2023-09-01T09:17:35Z</time>
      </trkpt>
      <trkpt lat="56.364702992141247" lon="-5.060235997661948">
        <ele>30.899999999999999</ele>
        <time>2023-09-01T09:17:36Z</time>
      </trkpt>
      <trkpt lat="56.364641971886158" lon="-5.060516037046909">
        <ele>31.379999999999999</ele>
        <time>2023-09-01T09:17:37Z</time>
      </trkpt>
      <trkpt lat="56.36445295996964" lon="-5.061394041404128">
        <ele>31.379999999999999</ele>
        <time>2023-09-01T09:17:40Z</time>
      </trkpt>
      <trkpt lat="56.363517036661506" lon="-5.064274985343218">
        <ele>31.859999999999999</ele>
        <time>2023-09-01T09:17:50Z</time>
      </trkpt>
      <trkpt lat="56.363129038363695" lon="-5.064968001097441">
        <ele>33.299999999999997</ele>
        <time>2023-09-01T09:17:53Z</time>
      </trkpt>
      <trkpt lat="56.362324040383101" lon="-5.066566010937095">
        <ele>36.670000000000002</ele>
        <time>2023-09-01T09:18:00Z</time>
      </trkpt>
      <trkpt lat="56.361754992976785" lon="-5.06784500554204">
        <ele>40.509999999999998</ele>
        <time>2023-09-01T09:18:05Z</time>
      </trkpt>
      <trkpt lat="56.361211007460952" lon="-5.068632988259196">
        <ele>44.840000000000003</ele>
        <time>2023-09-01T09:18:09Z</time>
      </trkpt>
      <trkpt lat="56.361085027456284" lon="-5.068815965205431">
        <ele>46.280000000000001</ele>
        <time>2023-09-01T09:18:10Z</time>
      </trkpt>
      <trkpt lat="56.36094999499619" lon="-5.069011012092233">
        <ele>47.719999999999999</ele>
        <time>2023-09-01T09:18:11Z</time>
      </trkpt>
      <trkpt lat="56.359809972345829" lon="-5.070507014170289">
        <ele>57.82</ele>
        <time>2023-09-01T09:18:19Z</time>
      </trkpt>
      <trkpt lat="56.358159994706511" lon="-5.072644986212254">
        <ele>65.030000000000001</ele>
        <time>2023-09-01T09:18:30Z</time>
      </trkpt>
      <trkpt lat="56.357655990868807" lon="-5.073511004447937">
        <ele>65.030000000000001</ele>
        <time>2023-09-01T09:18:34Z</time>
      </trkpt>
      <trkpt lat="56.357515007257462" lon="-5.073696998879314">
        <ele>65.030000000000001</ele>
        <time>2023-09-01T09:18:35Z</time>
      </trkpt>
      <trkpt lat="56.356349000707269" lon="-5.07530297152698">
        <ele>63.100000000000001</ele>
        <time>2023-09-01T09:18:43Z</time>
      </trkpt>
      <trkpt lat="56.356225032359362" lon="-5.075481003150344">
        <ele>63.100000000000001</ele>
        <time>2023-09-01T09:18:44Z</time>
      </trkpt>
      <trkpt lat="56.356088994070888" lon="-5.075605977326632">
        <ele>62.619999999999997</ele>
        <time>2023-09-01T09:18:45Z</time>
      </trkpt>
      <trkpt lat="56.3559640198946" lon="-5.075721982866526">
        <ele>61.659999999999997</ele>
        <time>2023-09-01T09:18:46Z</time>
      </trkpt>
      <trkpt lat="56.355748018249869" lon="-5.075919963419437">
        <ele>60.700000000000003</ele>
        <time>2023-09-01T09:18:48Z</time>
      </trkpt>
      <trkpt lat="56.355651961639524" lon="-5.076008979231119">
        <ele>59.740000000000002</ele>
        <time>2023-09-01T09:18:49Z</time>
      </trkpt>
      <trkpt lat="56.355541991069913" lon="-5.076109981164336">
        <ele>59.259999999999998</ele>
        <time>2023-09-01T09:18:50Z</time>
      </trkpt>
      <trkpt lat="56.355421962216496" lon="-5.076220035552979">
        <ele>58.780000000000001</ele>
        <time>2023-09-01T09:18:51Z</time>
      </trkpt>
      <trkpt lat="56.355340993031859" lon="-5.076373005285859">
        <ele>58.299999999999997</ele>
        <time>2023-09-01T09:18:52Z</time>
      </trkpt>
      <trkpt lat="56.355229010805488" lon="-5.076584983617067">
        <ele>57.82</ele>
        <time>2023-09-01T09:18:53Z</time>
      </trkpt>
      <trkpt lat="56.355156004428864" lon="-5.076756980270147">
        <ele>57.340000000000003</ele>
        <time>2023-09-01T09:18:54Z</time>
      </trkpt>
      <trkpt lat="56.354696005582809" lon="-5.077847968786955">
        <ele>55.890000000000001</ele>
        <time>2023-09-01T09:18:59Z</time>
      </trkpt>
      <trkpt lat="56.354582011699677" lon="-5.078039998188615">
        <ele>55.409999999999997</ele>
        <time>2023-09-01T09:19:00Z</time>
      </trkpt>
      <trkpt lat="56.354457037523389" lon="-5.078193973749876">
        <ele>55.409999999999997</ele>
        <time>2023-09-01T09:19:01Z</time>
      </trkpt>
      <trkpt lat="56.354304989799857" lon="-5.078297993168235">
        <ele>55.409999999999997</ele>
        <time>2023-09-01T09:19:02Z</time>
      </trkpt>
      <trkpt lat="56.354155959561467" lon="-5.078401006758213">
        <ele>55.409999999999997</ele>
        <time>2023-09-01T09:19:03Z</time>
      </trkpt>
      <trkpt lat="56.353996032848954" lon="-5.07841500453651">
        <ele>55.409999999999997</ele>
        <time>2023-09-01T09:19:04Z</time>
      </trkpt>
      <trkpt lat="56.353841973468661" lon="-5.07839497178793">
        <ele>55.409999999999997</ele>
        <time>2023-09-01T09:19:05Z</time>
      </trkpt>
      <trkpt lat="56.353692021220922" lon="-5.078376028686762">
        <ele>55.409999999999997</ele>
        <time>2023-09-01T09:19:06Z</time>
      </trkpt>
      <trkpt lat="56.353548020124435" lon="-5.078300004824996">
        <ele>57.340000000000003</ele>
        <time>2023-09-01T09:19:07Z</time>
      </trkpt>
      <trkpt lat="56.353412987664342" lon="-5.078176958486438">
        <ele>58.299999999999997</ele>
        <time>2023-09-01T09:19:08Z</time>
      </trkpt>
      <trkpt lat="56.35328097268939" lon="-5.078019965440035">
        <ele>59.740000000000002</ele>
        <time>2023-09-01T09:19:09Z</time>
      </trkpt>
      <trkpt lat="56.35278501547873" lon="-5.07734396494925">
        <ele>65.510000000000005</ele>
        <time>2023-09-01T09:19:13Z</time>
      </trkpt>
      <trkpt lat="56.352674039080739" lon="-5.077193006873131">
        <ele>66.950000000000003</ele>
        <time>2023-09-01T09:19:14Z</time>
      </trkpt>
      <trkpt lat="56.352560967206955" lon="-5.077064009383321">
        <ele>67.909999999999997</ele>
        <time>2023-09-01T09:19:15Z</time>
      </trkpt>
      <trkpt lat="56.352442028000951" lon="-5.077005000784993">
        <ele>68.870000000000005</ele>
        <time>2023-09-01T09:19:16Z</time>
      </trkpt>
      <trkpt lat="56.352321999147534" lon="-5.076944986358285">
        <ele>69.829999999999998</ele>
        <time>2023-09-01T09:19:17Z</time>
      </trkpt>
      <trkpt lat="56.352199958637357" lon="-5.076882960274816">
        <ele>70.310000000000002</ele>
        <time>2023-09-01T09:19:18Z</time>
      </trkpt>
      <trkpt lat="56.352058975026011" lon="-5.076881032437086">
        <ele>70.790000000000006</ele>
        <time>2023-09-01T09:19:19Z</time>
      </trkpt>
      <trkpt lat="56.351926038041711" lon="-5.076902993023396">
        <ele>71.269999999999996</ele>
        <time>2023-09-01T09:19:20Z</time>
      </trkpt>
      <trkpt lat="56.351792011409998" lon="-5.076925037428737">
        <ele>71.269999999999996</ele>
        <time>2023-09-01T09:19:21Z</time>
      </trkpt>
      <trkpt lat="56.351639041677117" lon="-5.076954960823059">
        <ele>71.760000000000005</ele>
        <time>2023-09-01T09:19:22Z</time>
      </trkpt>
      <trkpt lat="56.351522030308843" lon="-5.077045988291502">
        <ele>72.239999999999995</ele>
        <time>2023-09-01T09:19:23Z</time>
      </trkpt>
      <trkpt lat="56.350886011496186" lon="-5.077544962987304">
        <ele>74.159999999999997</ele>
        <time>2023-09-01T09:19:29Z</time>
      </trkpt>
      <trkpt lat="56.35078702121973" lon="-5.077622998505831">
        <ele>73.680000000000007</ele>
        <time>2023-09-01T09:19:30Z</time>
      </trkpt>
      <trkpt lat="56.350696999579668" lon="-5.077693993225694">
        <ele>73.680000000000007</ele>
        <time>2023-09-01T09:19:31Z</time>
      </trkpt>
      <trkpt lat="56.350540006533265" lon="-5.077817961573601">
        <ele>73.680000000000007</ele>
        <time>2023-09-01T09:19:33Z</time>
      </trkpt>
      <trkpt lat="56.350474962964654" lon="-5.077869007363915">
        <ele>73.680000000000007</ele>
        <time>2023-09-01T09:19:34Z</time>
      </trkpt>
      <trkpt lat="56.350413020700216" lon="-5.077918041497469">
        <ele>74.159999999999997</ele>
        <time>2023-09-01T09:19:35Z</time>
      </trkpt>
      <trkpt lat="56.350234989076853" lon="-5.078058019280434">
        <ele>75.120000000000005</ele>
        <time>2023-09-01T09:19:42Z</time>
      </trkpt>
      <trkpt lat="56.350234989076853" lon="-5.078058019280434">
        <ele>75.599999999999994</ele>
        <time>2023-09-01T09:20:14Z</time>
      </trkpt>
      <trkpt lat="56.349987974390388" lon="-5.078252982348204">
        <ele>80.409999999999997</ele>
        <time>2023-09-01T09:20:50Z</time>
      </trkpt>
      <trkpt lat="56.349919997155666" lon="-5.07830603979528">
        <ele>80.409999999999997</ele>
        <time>2023-09-01T09:20:51Z</time>
      </trkpt>
      <trkpt lat="56.349329994991422" lon="-5.078633017838001">
        <ele>82.329999999999998</ele>
        <time>2023-09-01T09:20:57Z</time>
      </trkpt>
      <trkpt lat="56.349214995279908" lon="-5.078657995909452">
        <ele>82.810000000000002</ele>
        <time>2023-09-01T09:20:58Z</time>
      </trkpt>
      <trkpt lat="56.349107036367059" lon="-5.078656990081072">
        <ele>83.290000000000006</ele>
        <time>2023-09-01T09:20:59Z</time>
      </trkpt>
      <trkpt lat="56.348995976150036" lon="-5.078641986474395">
        <ele>83.769999999999996</ele>
        <time>2023-09-01T09:21:00Z</time>
      </trkpt>
      <trkpt lat="56.348879970610142" lon="-5.078626982867718">
        <ele>84.25</ele>
        <time>2023-09-01T09:21:01Z</time>
      </trkpt>
      <trkpt lat="56.348072038963437" lon="-5.07858800701797">
        <ele>92.420000000000002</ele>
        <time>2023-09-01T09:21:08Z</time>
      </trkpt>
      <trkpt lat="56.347948992624879" lon="-5.078599993139505">
        <ele>93.870000000000005</ele>
        <time>2023-09-01T09:21:09Z</time>
      </trkpt>
      <trkpt lat="56.347826030105352" lon="-5.078670987859368">
        <ele>95.310000000000002</ele>
        <time>2023-09-01T09:21:10Z</time>
      </trkpt>
      <trkpt lat="56.347711030393839" lon="-5.078745000064373">
        <ele>96.75</ele>
        <time>2023-09-01T09:21:11Z</time>
      </trkpt>
      <trkpt lat="56.347593013197184" lon="-5.078840972855687">
        <ele>98.189999999999998</ele>
        <time>2023-09-01T09:21:12Z</time>
      </trkpt>
      <trkpt lat="56.346637979149818" lon="-5.079782009124756">
        <ele>108.77</ele>
        <time>2023-09-01T09:21:21Z</time>
      </trkpt>
      <trkpt lat="56.34651199914515" lon="-5.079790977761149">
        <ele>109.73</ele>
        <time>2023-09-01T09:21:22Z</time>
      </trkpt>
      <trkpt lat="56.34638199582696" lon="-5.079800030216575">
        <ele>110.20999999999999</ele>
        <time>2023-09-01T09:21:23Z</time>
      </trkpt>
      <trkpt lat="56.346246963366866" lon="-5.079757031053305">
        <ele>111.17</ele>
        <time>2023-09-01T09:21:24Z</time>
      </trkpt>
      <trkpt lat="56.346119977533817" lon="-5.079681007191539">
        <ele>111.65000000000001</ele>
        <time>2023-09-01T09:21:25Z</time>
      </trkpt>
      <trkpt lat="56.345988968387246" lon="-5.079595008864999">
        <ele>112.61</ele>
        <time>2023-09-01T09:21:26Z</time>
      </trkpt>
      <trkpt lat="56.34586600586772" lon="-5.079456036910415">
        <ele>113.56999999999999</ele>
        <time>2023-09-01T09:21:27Z</time>
      </trkpt>
      <trkpt lat="56.34573700837791" lon="-5.079308012500405">
        <ele>114.05</ele>
        <time>2023-09-01T09:21:28Z</time>
      </trkpt>
      <trkpt lat="56.344351982697845" lon="-5.077759958803654">
        <ele>118.38</ele>
        <time>2023-09-01T09:21:37Z</time>
      </trkpt>
      <trkpt lat="56.343110958114266" lon="-5.07674097083509">
        <ele>128.47</ele>
        <time>2023-09-01T09:21:45Z</time>
      </trkpt>
      <trkpt lat="56.341977976262569" lon="-5.076752034947276">
        <ele>140.00999999999999</ele>
        <time>2023-09-01T09:21:52Z</time>
      </trkpt>
      <trkpt lat="56.340676015242934" lon="-5.077371038496494">
        <ele>150.58000000000001</ele>
        <time>2023-09-01T09:22:00Z</time>
      </trkpt>
      <trkpt lat="56.340497983619571" lon="-5.077361986041069">
        <ele>152.03</ele>
        <time>2023-09-01T09:22:01Z</time>
      </trkpt>
      <trkpt lat="56.34032104164362" lon="-5.077330972999334">
        <ele>152.99000000000001</ele>
        <time>2023-09-01T09:22:02Z</time>
      </trkpt>
      <trkpt lat="56.340161031112075" lon="-5.077259978279471">
        <ele>153.94999999999999</ele>
        <time>2023-09-01T09:22:03Z</time>
      </trkpt>
      <trkpt lat="56.340010995045304" lon="-5.077142966911197">
        <ele>154.91</ele>
        <time>2023-09-01T09:22:04Z</time>
      </trkpt>
      <trkpt lat="56.339860958978534" lon="-5.077025033533573">
        <ele>155.87</ele>
        <time>2023-09-01T09:22:05Z</time>
      </trkpt>
      <trkpt lat="56.339713018387556" lon="-5.076896036043763">
        <ele>156.83000000000001</ele>
        <time>2023-09-01T09:22:06Z</time>
      </trkpt>
      <trkpt lat="56.33957396261394" lon="-5.076711969450116">
        <ele>158.27000000000001</ele>
        <time>2023-09-01T09:22:07Z</time>
      </trkpt>
      <trkpt lat="56.338192038238049" lon="-5.075037013739348">
        <ele>170.77000000000001</ele>
        <time>2023-09-01T09:22:16Z</time>
      </trkpt>
      <trkpt lat="56.338028004392982" lon="-5.074928971007466">
        <ele>172.21000000000001</ele>
        <time>2023-09-01T09:22:17Z</time>
      </trkpt>
      <trkpt lat="56.337683005258441" lon="-5.074771977961063">
        <ele>175.09999999999999</ele>
        <time>2023-09-01T09:22:19Z</time>
      </trkpt>
      <trkpt lat="56.337504973635077" lon="-5.074715986847878">
        <ele>176.06</ele>
        <time>2023-09-01T09:22:20Z</time>
      </trkpt>
      <trkpt lat="56.336838025599718" lon="-5.074522029608488">
        <ele>181.34999999999999</ele>
        <time>2023-09-01T09:22:24Z</time>
      </trkpt>
      <trkpt lat="56.336684972047806" lon="-5.074427984654903">
        <ele>182.78999999999999</ele>
        <time>2023-09-01T09:22:25Z</time>
      </trkpt>
      <trkpt lat="56.336538959294558" lon="-5.074282977730036">
        <ele>184.22999999999999</ele>
        <time>2023-09-01T09:22:26Z</time>
      </trkpt>
      <trkpt lat="56.336070997640491" lon="-5.07381996139884">
        <ele>187.11000000000001</ele>
        <time>2023-09-01T09:22:29Z</time>
      </trkpt>
      <trkpt lat="56.335907969623804" lon="-5.073716025799513">
        <ele>188.08000000000001</ele>
        <time>2023-09-01T09:22:30Z</time>
      </trkpt>
      <trkpt lat="56.335734967142344" lon="-5.073660034686327">
        <ele>189.03999999999999</ele>
        <time>2023-09-01T09:22:31Z</time>
      </trkpt>
      <trkpt lat="56.335561964660883" lon="-5.07364796474576">
        <ele>189.52000000000001</ele>
        <time>2023-09-01T09:22:32Z</time>
      </trkpt>
      <trkpt lat="56.335383011028171" lon="-5.073669003322721">
        <ele>190.47999999999999</ele>
        <time>2023-09-01T09:22:33Z</time>
      </trkpt>
      <trkpt lat="56.335204979404807" lon="-5.073698004707694">
        <ele>190.96000000000001</ele>
        <time>2023-09-01T09:22:34Z</time>
      </trkpt>
      <trkpt lat="56.332638021558523" lon="-5.073988018557429">
        <ele>202.00999999999999</ele>
        <time>2023-09-01T09:22:48Z</time>
      </trkpt>
      <trkpt lat="56.329912981018424" lon="-5.074083991348743">
        <ele>207.78</ele>
        <time>2023-09-01T09:23:02Z</time>
      </trkpt>
      <trkpt lat="56.329715000465512" lon="-5.074152974411845">
        <ele>207.78</ele>
        <time>2023-09-01T09:23:03Z</time>
      </trkpt>
      <trkpt lat="56.329529006034136" lon="-5.074291024357081">
        <ele>207.78</ele>
        <time>2023-09-01T09:23:04Z</time>
      </trkpt>
      <trkpt lat="56.329343011602759" lon="-5.074437959119678">
        <ele>207.30000000000001</ele>
        <time>2023-09-01T09:23:05Z</time>
      </trkpt>
      <trkpt lat="56.32917202077806" lon="-5.074626971036196">
        <ele>207.30000000000001</ele>
        <time>2023-09-01T09:23:06Z</time>
      </trkpt>
      <trkpt lat="56.329008992761374" lon="-5.074832998216152">
        <ele>207.30000000000001</ele>
        <time>2023-09-01T09:23:07Z</time>
      </trkpt>
      <trkpt lat="56.328841019421816" lon="-5.075045982375741">
        <ele>206.81999999999999</ele>
        <time>2023-09-01T09:23:08Z</time>
      </trkpt>
      <trkpt lat="56.327784983441234" lon="-5.075997998937964">
        <ele>202.49000000000001</ele>
        <time>2023-09-01T09:23:14Z</time>
      </trkpt>
      <trkpt lat="56.325828982517123" lon="-5.077215973287821">
        <ele>194.31999999999999</ele>
        <time>2023-09-01T09:23:25Z</time>
      </trkpt>
      <trkpt lat="56.323747001588345" lon="-5.078306961804628">
        <ele>186.15000000000001</ele>
        <time>2023-09-01T09:23:37Z</time>
      </trkpt>
      <trkpt lat="56.321906000375748" lon="-5.079698022454977">
        <ele>177.97999999999999</ele>
        <time>2023-09-01T09:23:48Z</time>
      </trkpt>
      <trkpt lat="56.320736976340413" lon="-5.081263007596135">
        <ele>173.16999999999999</ele>
        <time>2023-09-01T09:23:56Z</time>
      </trkpt>
      <trkpt lat="56.319949999451637" lon="-5.083295032382011">
        <ele>169.33000000000001</ele>
        <time>2023-09-01T09:24:04Z</time>
      </trkpt>
      <trkpt lat="56.319650011137128" lon="-5.0840899720788">
        <ele>167.41</ele>
        <time>2023-09-01T09:24:07Z</time>
      </trkpt>
      <trkpt lat="56.31952403113246" lon="-5.084314020350575">
        <ele>166.93000000000001</ele>
        <time>2023-09-01T09:24:08Z</time>
      </trkpt>
      <trkpt lat="56.319400984793901" lon="-5.084534967318177">
        <ele>165.96000000000001</ele>
        <time>2023-09-01T09:24:09Z</time>
      </trkpt>
      <trkpt lat="56.319252960383892" lon="-5.08468802087009">
        <ele>165.47999999999999</ele>
        <time>2023-09-01T09:24:10Z</time>
      </trkpt>
      <trkpt lat="56.319100996479392" lon="-5.084838978946209">
        <ele>164.52000000000001</ele>
        <time>2023-09-01T09:24:11Z</time>
      </trkpt>
      <trkpt lat="56.318935034796596" lon="-5.084930006414652">
        <ele>163.56</ele>
        <time>2023-09-01T09:24:12Z</time>
      </trkpt>
      <trkpt lat="56.318766977638006" lon="-5.085019022226334">
        <ele>163.08000000000001</ele>
        <time>2023-09-01T09:24:13Z</time>
      </trkpt>
      <trkpt lat="56.318599004298449" lon="-5.085048023611307">
        <ele>162.12</ele>
        <time>2023-09-01T09:24:14Z</time>
      </trkpt>
      <trkpt lat="56.31842901930213" lon="-5.085059003904462">
        <ele>160.68000000000001</ele>
        <time>2023-09-01T09:24:15Z</time>
      </trkpt>
      <trkpt lat="56.318264985457063" lon="-5.085026985034347">
        <ele>159.24000000000001</ele>
        <time>2023-09-01T09:24:16Z</time>
      </trkpt>
      <trkpt lat="56.318101035431027" lon="-5.08498901501298">
        <ele>158.27000000000001</ele>
        <time>2023-09-01T09:24:17Z</time>
      </trkpt>
      <trkpt lat="56.317940019071102" lon="-5.084917014464736">
        <ele>157.31</ele>
        <time>2023-09-01T09:24:18Z</time>
      </trkpt>
      <trkpt lat="56.317776991054416" lon="-5.084824981167913">
        <ele>156.34999999999999</ele>
        <time>2023-09-01T09:24:19Z</time>
      </trkpt>
      <trkpt lat="56.316353995352983" lon="-5.0843870267272">
        <ele>150.09999999999999</ele>
        <time>2023-09-01T09:24:27Z</time>
      </trkpt>
      <trkpt lat="56.31404897198081" lon="-5.083949994295836">
        <ele>141.44999999999999</ele>
        <time>2023-09-01T09:24:39Z</time>
      </trkpt>
      <trkpt lat="56.313867000862956" lon="-5.083966003730893">
        <ele>140.97</ele>
        <time>2023-09-01T09:24:40Z</time>
      </trkpt>
      <trkpt lat="56.313695004209876" lon="-5.084063988178968">
        <ele>140.49000000000001</ele>
        <time>2023-09-01T09:24:41Z</time>
      </trkpt>
      <trkpt lat="56.313523007556796" lon="-5.084167001768947">
        <ele>140.49000000000001</ele>
        <time>2023-09-01T09:24:42Z</time>
      </trkpt>
      <trkpt lat="56.313346987590194" lon="-5.084273032844067">
        <ele>140.00999999999999</ele>
        <time>2023-09-01T09:24:43Z</time>
      </trkpt>
      <trkpt lat="56.313183959573507" lon="-5.084442012012005">
        <ele>139.53</ele>
        <time>2023-09-01T09:24:44Z</time>
      </trkpt>
      <trkpt lat="56.313025038689375" lon="-5.084619959816337">
        <ele>139.05000000000001</ele>
        <time>2023-09-01T09:24:45Z</time>
      </trkpt>
      <trkpt lat="56.312578031793237" lon="-5.08511801250279">
        <ele>137.61000000000001</ele>
        <time>2023-09-01T09:24:48Z</time>
      </trkpt>
      <trkpt lat="56.312410980463028" lon="-5.085194036364555">
        <ele>137.13</ele>
        <time>2023-09-01T09:24:49Z</time>
      </trkpt>
      <trkpt lat="56.312271002680063" lon="-5.085253966972232">
        <ele>136.63999999999999</ele>
        <time>2023-09-01T09:24:50Z</time>
      </trkpt>
      <trkpt lat="56.312081990763545" lon="-5.085207028314471">
        <ele>136.16</ele>
        <time>2023-09-01T09:24:51Z</time>
      </trkpt>
      <trkpt lat="56.311907982453704" lon="-5.085163023322821">
        <ele>135.68000000000001</ele>
        <time>2023-09-01T09:24:52Z</time>
      </trkpt>
      <trkpt lat="56.311721988022327" lon="-5.085117006674409">
        <ele>135.68000000000001</ele>
        <time>2023-09-01T09:24:53Z</time>
      </trkpt>
      <trkpt lat="56.311535993590951" lon="-5.085069984197617">
        <ele>135.19999999999999</ele>
        <time>2023-09-01T09:24:54Z</time>
      </trkpt>
      <trkpt lat="56.311348993331194" lon="-5.085023967549205">
        <ele>135.19999999999999</ele>
        <time>2023-09-01T09:24:55Z</time>
      </trkpt>
      <trkpt lat="56.311162998899817" lon="-5.085010975599289">
        <ele>135.19999999999999</ele>
        <time>2023-09-01T09:24:56Z</time>
      </trkpt>
      <trkpt lat="56.310970969498158" lon="-5.085046011954546">
        <ele>134.72</ele>
        <time>2023-09-01T09:24:57Z</time>
      </trkpt>
      <trkpt lat="56.310777012258768" lon="-5.085081970319152">
        <ele>134.72</ele>
        <time>2023-09-01T09:24:58Z</time>
      </trkpt>
      <trkpt lat="56.310009984299541" lon="-5.08518397808075">
        <ele>133.28</ele>
        <time>2023-09-01T09:25:02Z</time>
      </trkpt>
      <trkpt lat="56.309838993474841" lon="-5.085120024159551">
        <ele>133.28</ele>
        <time>2023-09-01T09:25:03Z</time>
      </trkpt>
      <trkpt lat="56.309677977114916" lon="-5.085027990862727">
        <ele>132.80000000000001</ele>
        <time>2023-09-01T09:25:04Z</time>
      </trkpt>
      <trkpt lat="56.309524001553655" lon="-5.084892958402634">
        <ele>132.31999999999999</ele>
        <time>2023-09-01T09:25:05Z</time>
      </trkpt>
      <trkpt lat="56.309366002678871" lon="-5.08475398644805">
        <ele>131.84</ele>
        <time>2023-09-01T09:25:06Z</time>
      </trkpt>
      <trkpt lat="56.309048999100924" lon="-5.08447403088212">
        <ele>130.88</ele>
        <time>2023-09-01T09:25:08Z</time>
      </trkpt>
      <trkpt lat="56.308880019932985" lon="-5.084416028112173">
        <ele>130.40000000000001</ele>
        <time>2023-09-01T09:25:09Z</time>
      </trkpt>
      <trkpt lat="56.308703999966383" lon="-5.084386020898819">
        <ele>129.91999999999999</ele>
        <time>2023-09-01T09:25:10Z</time>
      </trkpt>
      <trkpt lat="56.308529991656542" lon="-5.084355007857084">
        <ele>129.43000000000001</ele>
        <time>2023-09-01T09:25:11Z</time>
      </trkpt>
      <trkpt lat="56.308364029973745" lon="-5.084446035325527">
        <ele>128.94999999999999</ele>
        <time>2023-09-01T09:25:12Z</time>
      </trkpt>
      <trkpt lat="56.308193039149046" lon="-5.084550976753235">
        <ele>128.47</ele>
        <time>2023-09-01T09:25:13Z</time>
      </trkpt>
      <trkpt lat="56.308019030839205" lon="-5.084659019485116">
        <ele>127.98999999999999</ele>
        <time>2023-09-01T09:25:14Z</time>
      </trkpt>
      <trkpt lat="56.307283015921712" lon="-5.085112983360887">
        <ele>126.06999999999999</ele>
        <time>2023-09-01T09:25:18Z</time>
      </trkpt>
      <trkpt lat="56.307092998176813" lon="-5.085172997787595">
        <ele>125.59</ele>
        <time>2023-09-01T09:25:19Z</time>
      </trkpt>
      <trkpt lat="56.306898035109043" lon="-5.085210967808962">
        <ele>125.11</ele>
        <time>2023-09-01T09:25:20Z</time>
      </trkpt>
      <trkpt lat="56.3060989882797" lon="-5.085368966683745">
        <ele>123.19</ele>
        <time>2023-09-01T09:25:24Z</time>
      </trkpt>
      <trkpt lat="56.305897990241647" lon="-5.08541900664568">
        <ele>122.70999999999999</ele>
        <time>2023-09-01T09:25:25Z</time>
      </trkpt>
      <trkpt lat="56.30571098998189" lon="-5.085553033277392">
        <ele>122.22</ele>
        <time>2023-09-01T09:25:26Z</time>
      </trkpt>
      <trkpt lat="56.305521978065372" lon="-5.085687981918454">
        <ele>121.73999999999999</ele>
        <time>2023-09-01T09:25:27Z</time>
      </trkpt>
      <trkpt lat="56.305335983633995" lon="-5.085822008550167">
        <ele>121.26000000000001</ele>
        <time>2023-09-01T09:25:28Z</time>
      </trkpt>
      <trkpt lat="56.304181041195989" lon="-5.086648967117071">
        <ele>118.38</ele>
        <time>2023-09-01T09:25:34Z</time>
      </trkpt>
      <trkpt lat="56.304002003744245" lon="-5.086689032614231">
        <ele>118.38</ele>
        <time>2023-09-01T09:25:35Z</time>
      </trkpt>
      <trkpt lat="56.301892027258873" lon="-5.087377019226551">
        <ele>115.98</ele>
        <time>2023-09-01T09:25:46Z</time>
      </trkpt>
      <trkpt lat="56.30003803409636" lon="-5.088376980274916">
        <ele>111.65000000000001</ele>
        <time>2023-09-01T09:25:56Z</time>
      </trkpt>
      <trkpt lat="56.29846902564168" lon="-5.08900897577405">
        <ele>107.31999999999999</ele>
        <time>2023-09-01T09:26:04Z</time>
      </trkpt>
      <trkpt lat="56.296690972521901" lon="-5.089655974879861">
        <ele>102.52</ele>
        <time>2023-09-01T09:26:13Z</time>
      </trkpt>
      <trkpt lat="56.294679986312985" lon="-5.090396013110876">
        <ele>98.189999999999998</ele>
        <time>2023-09-01T09:26:24Z</time>
      </trkpt>
      <trkpt lat="56.293214997276664" lon="-5.090589970350266">
        <ele>95.310000000000002</ele>
        <time>2023-09-01T09:26:32Z</time>
      </trkpt>
      <trkpt lat="56.291344994679093" lon="-5.090568009763956">
        <ele>93.870000000000005</ele>
        <time>2023-09-01T09:26:42Z</time>
      </trkpt>
      <trkpt lat="56.288913991302252" lon="-5.091608036309481">
        <ele>92.900000000000006</ele>
        <time>2023-09-01T09:26:55Z</time>
      </trkpt>
      <trkpt lat="56.28689001314342" lon="-5.092353019863367">
        <ele>88.099999999999994</ele>
        <time>2023-09-01T09:27:05Z</time>
      </trkpt>
      <trkpt lat="56.285742027685046" lon="-5.092390989884734">
        <ele>85.209999999999994</ele>
        <time>2023-09-01T09:27:11Z</time>
      </trkpt>
      <trkpt lat="56.285567013546824" lon="-5.092453015968204">
        <ele>85.209999999999994</ele>
        <time>2023-09-01T09:27:12Z</time>
      </trkpt>
      <trkpt lat="56.285385964438319" lon="-5.092517975717783">
        <ele>84.730000000000004</ele>
        <time>2023-09-01T09:27:13Z</time>
      </trkpt>
      <trkpt lat="56.285208016633987" lon="-5.092626018449664">
        <ele>84.730000000000004</ele>
        <time>2023-09-01T09:27:14Z</time>
      </trkpt>
      <trkpt lat="56.285029985010624" lon="-5.092779994010925">
        <ele>84.25</ele>
        <time>2023-09-01T09:27:15Z</time>
      </trkpt>
      <trkpt lat="56.283621992915869" lon="-5.09397198446095">
        <ele>82.329999999999998</ele>
        <time>2023-09-01T09:27:23Z</time>
      </trkpt>
      <trkpt lat="56.283449996262789" lon="-5.094063011929393">
        <ele>82.329999999999998</ele>
        <time>2023-09-01T09:27:24Z</time>
      </trkpt>
      <trkpt lat="56.283279005438089" lon="-5.094087990000844">
        <ele>82.329999999999998</ele>
        <time>2023-09-01T09:27:25Z</time>
      </trkpt>
      <trkpt lat="56.281769005581737" lon="-5.094212964177132">
        <ele>82.329999999999998</ele>
        <time>2023-09-01T09:27:33Z</time>
      </trkpt>
      <trkpt lat="56.2812390178442" lon="-5.0941869802773">
        <ele>82.810000000000002</ele>
        <time>2023-09-01T09:27:36Z</time>
      </trkpt>
      <trkpt lat="56.28106601536274" lon="-5.094152027741075">
        <ele>82.810000000000002</ele>
        <time>2023-09-01T09:27:37Z</time>
      </trkpt>
      <trkpt lat="56.280892007052898" lon="-5.094115985557437">
        <ele>82.810000000000002</ele>
        <time>2023-09-01T09:27:38Z</time>
      </trkpt>
      <trkpt lat="56.279743015766144" lon="-5.093249967321754">
        <ele>83.769999999999996</ele>
        <time>2023-09-01T09:27:45Z</time>
      </trkpt>
      <trkpt lat="56.279593985527754" lon="-5.093040000647306">
        <ele>83.769999999999996</ele>
        <time>2023-09-01T09:27:46Z</time>
      </trkpt>
      <trkpt lat="56.279453001916409" lon="-5.092813018709421">
        <ele>83.769999999999996</ele>
        <time>2023-09-01T09:27:47Z</time>
      </trkpt>
      <trkpt lat="56.278268974274397" lon="-5.090484023094177">
        <ele>85.209999999999994</ele>
        <time>2023-09-01T09:27:56Z</time>
      </trkpt>
      <trkpt lat="56.276943041011691" lon="-5.088894981890917">
        <ele>83.769999999999996</ele>
        <time>2023-09-01T09:28:04Z</time>
      </trkpt>
      <trkpt lat="56.275057028979063" lon="-5.087622022256255">
        <ele>82.810000000000002</ele>
        <time>2023-09-01T09:28:14Z</time>
      </trkpt>
      <trkpt lat="56.273215021938086" lon="-5.087067978456616">
        <ele>78.480000000000004</ele>
        <time>2023-09-01T09:28:23Z</time>
      </trkpt>
      <trkpt lat="56.271532019600272" lon="-5.08733200840652">
        <ele>73.200000000000003</ele>
        <time>2023-09-01T09:28:31Z</time>
      </trkpt>
      <trkpt lat="56.269404022023082" lon="-5.088142035529017">
        <ele>65.030000000000001</ele>
        <time>2023-09-01T09:28:41Z</time>
      </trkpt>
      <trkpt lat="56.268099965527654" lon="-5.088571021333337">
        <ele>58.780000000000001</ele>
        <time>2023-09-01T09:28:48Z</time>
      </trkpt>
      <trkpt lat="56.26669499091804" lon="-5.088323000818491">
        <ele>53.490000000000002</ele>
        <time>2023-09-01T09:28:55Z</time>
      </trkpt>
      <trkpt lat="56.264920039102435" lon="-5.087682958692312">
        <ele>49.159999999999997</ele>
        <time>2023-09-01T09:29:04Z</time>
      </trkpt>
      <trkpt lat="56.262990022078156" lon="-5.086974017322063">
        <ele>48.200000000000003</ele>
        <time>2023-09-01T09:29:14Z</time>
      </trkpt>
      <trkpt lat="56.261420007795095" lon="-5.086573027074337">
        <ele>47.719999999999999</ele>
        <time>2023-09-01T09:29:22Z</time>
      </trkpt>
      <trkpt lat="56.259854016825557" lon="-5.086932023987174">
        <ele>46.280000000000001</ele>
        <time>2023-09-01T09:29:30Z</time>
      </trkpt>
      <trkpt lat="56.258515007793903" lon="-5.087830983102322">
        <ele>42.439999999999998</ele>
        <time>2023-09-01T09:29:37Z</time>
      </trkpt>
      <trkpt lat="56.257180022075772" lon="-5.089338971301913">
        <ele>36.670000000000002</ele>
        <time>2023-09-01T09:29:44Z</time>
      </trkpt>
      <trkpt lat="56.255681002512574" lon="-5.091319028288126">
        <ele>32.340000000000003</ele>
        <time>2023-09-01T09:29:52Z</time>
      </trkpt>
      <trkpt lat="56.254266975447536" lon="-5.093357004225254">
        <ele>29.460000000000001</ele>
        <time>2023-09-01T09:30:01Z</time>
      </trkpt>
      <trkpt lat="56.254095984622836" lon="-5.093521038070321">
        <ele>28.98</ele>
        <time>2023-09-01T09:30:02Z</time>
      </trkpt>
      <trkpt lat="56.253924993798137" lon="-5.093641988933086">
        <ele>28.5</ele>
        <time>2023-09-01T09:30:03Z</time>
      </trkpt>
      <trkpt lat="56.253741011023521" lon="-5.093747014179826">
        <ele>28.02</ele>
        <time>2023-09-01T09:30:04Z</time>
      </trkpt>
      <trkpt lat="56.253561973571777" lon="-5.093838963657618">
        <ele>27.530000000000001</ele>
        <time>2023-09-01T09:30:05Z</time>
      </trkpt>
      <trkpt lat="56.253369022160769" lon="-5.093857990577817">
        <ele>27.050000000000001</ele>
        <time>2023-09-01T09:30:06Z</time>
      </trkpt>
      <trkpt lat="56.253185961395502" lon="-5.093877017498016">
        <ele>26.57</ele>
        <time>2023-09-01T09:30:07Z</time>
      </trkpt>
      <trkpt lat="56.25302704051137" lon="-5.093836029991508">
        <ele>26.57</ele>
        <time>2023-09-01T09:30:08Z</time>
      </trkpt>
      <trkpt lat="56.252854960039258" lon="-5.093776015564799">
        <ele>26.09</ele>
        <time>2023-09-01T09:30:09Z</time>
      </trkpt>
      <trkpt lat="56.252681035548449" lon="-5.093716001138091">
        <ele>25.609999999999999</ele>
        <time>2023-09-01T09:30:10Z</time>
      </trkpt>
      <trkpt lat="56.252523036673665" lon="-5.093616005033255">
        <ele>25.129999999999999</ele>
        <time>2023-09-01T09:30:11Z</time>
      </trkpt>
      <trkpt lat="56.252357997000217" lon="-5.093459011986852">
        <ele>25.129999999999999</ele>
        <time>2023-09-01T09:30:12Z</time>
      </trkpt>
      <trkpt lat="56.252189017832279" lon="-5.093296989798546">
        <ele>24.649999999999999</ele>
        <time>2023-09-01T09:30:13Z</time>
      </trkpt>
      <trkpt lat="56.252031018957496" lon="-5.093108983710408">
        <ele>24.649999999999999</ele>
        <time>2023-09-01T09:30:14Z</time>
      </trkpt>
      <trkpt lat="56.250832993537188" lon="-5.091548021882772">
        <ele>24.649999999999999</ele>
        <time>2023-09-01T09:30:22Z</time>
      </trkpt>
      <trkpt lat="56.250688992440701" lon="-5.091366972774267">
        <ele>24.649999999999999</ele>
        <time>2023-09-01T09:30:23Z</time>
      </trkpt>
      <trkpt lat="56.250527976080775" lon="-5.091220960021019">
        <ele>24.649999999999999</ele>
        <time>2023-09-01T09:30:24Z</time>
      </trkpt>
      <trkpt lat="56.250178031623363" lon="-5.090991966426373">
        <ele>23.690000000000001</ele>
        <time>2023-09-01T09:30:26Z</time>
      </trkpt>
      <trkpt lat="56.249822974205017" lon="-5.090861041098833">
        <ele>23.210000000000001</ele>
        <time>2023-09-01T09:30:28Z</time>
      </trkpt>
      <trkpt lat="56.249639997258782" lon="-5.090846037492156">
        <ele>23.210000000000001</ele>
        <time>2023-09-01T09:30:29Z</time>
      </trkpt>
      <trkpt lat="56.249486021697521" lon="-5.090832961723208">
        <ele>22.73</ele>
        <time>2023-09-01T09:30:30Z</time>
      </trkpt>
      <trkpt lat="56.248634001240134" lon="-5.091042006388307">
        <ele>19.359999999999999</ele>
        <time>2023-09-01T09:30:35Z</time>
      </trkpt>
      <trkpt lat="56.24722802080214" lon="-5.091404020786285">
        <ele>10.710000000000001</ele>
        <time>2023-09-01T09:30:43Z</time>
      </trkpt>
      <trkpt lat="56.245193984359503" lon="-5.09182495996356">
        <ele>7.35</ele>
        <time>2023-09-01T09:30:54Z</time>
      </trkpt>
      <trkpt lat="56.245008995756507" lon="-5.09180199354887">
        <ele>6.87</ele>
        <time>2023-09-01T09:30:55Z</time>
      </trkpt>
      <trkpt lat="56.24482199549675" lon="-5.09177902713418">
        <ele>6.39</ele>
        <time>2023-09-01T09:30:56Z</time>
      </trkpt>
      <trkpt lat="56.244657039642334" lon="-5.091684982180595">
        <ele>5.91</ele>
        <time>2023-09-01T09:30:57Z</time>
      </trkpt>
      <trkpt lat="56.244495017454028" lon="-5.09158599190414">
        <ele>5.91</ele>
        <time>2023-09-01T09:30:58Z</time>
      </trkpt>
      <trkpt lat="56.244355039671063" lon="-5.091470992192626">
        <ele>5.42</ele>
        <time>2023-09-01T09:30:59Z</time>
      </trkpt>
      <trkpt lat="56.244222018867731" lon="-5.091333026066423">
        <ele>5.42</ele>
        <time>2023-09-01T09:31:00Z</time>
      </trkpt>
      <trkpt lat="56.244085980579257" lon="-5.091191036626697">
        <ele>5.42</ele>
        <time>2023-09-01T09:31:01Z</time>
      </trkpt>
      <trkpt lat="56.243949020281434" lon="-5.09104804135859">
        <ele>4.94</ele>
        <time>2023-09-01T09:31:02Z</time>
      </trkpt>
      <trkpt lat="56.243698988109827" lon="-5.090731959789991">
        <ele>5.42</ele>
        <time>2023-09-01T09:31:04Z</time>
      </trkpt>
      <trkpt lat="56.242648987099528" lon="-5.089442990720272">
        <ele>9.75</ele>
        <time>2023-09-01T09:31:13Z</time>
      </trkpt>
      <trkpt lat="56.242353022098541" lon="-5.089060021564364">
        <ele>11.67</ele>
        <time>2023-09-01T09:31:18Z</time>
      </trkpt>
      <trkpt lat="56.242297030985355" lon="-5.08898701518774">
        <ele>12.15</ele>
        <time>2023-09-01T09:31:19Z</time>
      </trkpt>
      <trkpt lat="56.242267023772001" lon="-5.088935969397426">
        <ele>13.6</ele>
        <time>2023-09-01T09:31:29Z</time>
      </trkpt>
      <trkpt lat="56.242267023772001" lon="-5.088935969397426">
        <ele>14.56</ele>
        <time>2023-09-01T09:32:19Z</time>
      </trkpt>
      <trkpt lat="56.242186976596713" lon="-5.088801020756364">
        <ele>15.039999999999999</ele>
        <time>2023-09-01T09:32:31Z</time>
      </trkpt>
      <trkpt lat="56.242128973826766" lon="-5.088703958317637">
        <ele>16</ele>
        <time>2023-09-01T09:32:32Z</time>
      </trkpt>
      <trkpt lat="56.241953959688544" lon="-5.08840799331665">
        <ele>16.48</ele>
        <time>2023-09-01T09:32:35Z</time>
      </trkpt>
      <trkpt lat="56.241951026022434" lon="-5.088401036337018">
        <ele>16.48</ele>
        <time>2023-09-01T09:32:36Z</time>
      </trkpt>
      <trkpt lat="56.241919007152319" lon="-5.088217975571752">
        <ele>16.960000000000001</ele>
        <time>2023-09-01T09:32:37Z</time>
      </trkpt>
      <trkpt lat="56.241937028244138" lon="-5.0881929975003">
        <ele>16.960000000000001</ele>
        <time>2023-09-01T09:32:38Z</time>
      </trkpt>
      <trkpt lat="56.241954965516925" lon="-5.088168019428849">
        <ele>16.960000000000001</ele>
        <time>2023-09-01T09:32:39Z</time>
      </trkpt>
      <trkpt lat="56.241971980780363" lon="-5.088144969195128">
        <ele>17.440000000000001</ele>
        <time>2023-09-01T09:32:40Z</time>
      </trkpt>
      <trkpt lat="56.241984972730279" lon="-5.08812602609396">
        <ele>17.440000000000001</ele>
        <time>2023-09-01T09:32:52Z</time>
      </trkpt>
      <trkpt lat="56.241984972730279" lon="-5.08812602609396">
        <ele>17.920000000000002</ele>
        <time>2023-09-01T09:33:07Z</time>
      </trkpt>
      <trkpt lat="56.242060996592045" lon="-5.088022006675601">
        <ele>17.920000000000002</ele>
        <time>2023-09-01T09:33:13Z</time>
      </trkpt>
      <trkpt lat="56.242060996592045" lon="-5.088022006675601">
        <ele>18.879999999999999</ele>
        <time>2023-09-01T09:33:28Z</time>
      </trkpt>
      <trkpt lat="56.241865027695894" lon="-5.088203977793455">
        <ele>19.359999999999999</ele>
        <time>2023-09-01T09:33:33Z</time>
      </trkpt>
      <trkpt lat="56.241914983838797" lon="-5.088223004713655">
        <ele>22.25</ele>
        <time>2023-09-01T09:33:38Z</time>
      </trkpt>
      <trkpt lat="56.241914983838797" lon="-5.088223004713655">
        <ele>23.690000000000001</ele>
        <time>2023-09-01T09:33:51Z</time>
      </trkpt>
      <trkpt lat="56.241865027695894" lon="-5.088202971965075">
        <ele>23.210000000000001</ele>
        <time>2023-09-01T09:34:10Z</time>
      </trkpt>
      <trkpt lat="56.241829991340637" lon="-5.08812703192234">
        <ele>23.210000000000001</ele>
        <time>2023-09-01T09:34:11Z</time>
      </trkpt>
      <trkpt lat="56.241780035197735" lon="-5.088015971705318">
        <ele>22.73</ele>
        <time>2023-09-01T09:34:12Z</time>
      </trkpt>
      <trkpt lat="56.24127502553165" lon="-5.086901010945439">
        <ele>22.73</ele>
        <time>2023-09-01T09:34:19Z</time>
      </trkpt>
      <trkpt lat="56.240774961188436" lon="-5.085439961403608">
        <ele>26.09</ele>
        <time>2023-09-01T09:34:27Z</time>
      </trkpt>
      <trkpt lat="56.240261988714337" lon="-5.083638019859791">
        <ele>28.98</ele>
        <time>2023-09-01T09:34:35Z</time>
      </trkpt>
      <trkpt lat="56.239612977951765" lon="-5.082074962556362">
        <ele>32.82</ele>
        <time>2023-09-01T09:34:43Z</time>
      </trkpt>
      <trkpt lat="56.239052983000875" lon="-5.081262001767755">
        <ele>33.299999999999997</ele>
        <time>2023-09-01T09:34:48Z</time>
      </trkpt>
      <trkpt lat="56.238930020481348" lon="-5.081096040084958">
        <ele>33.299999999999997</ele>
        <time>2023-09-01T09:34:49Z</time>
      </trkpt>
      <trkpt lat="56.237572990357876" lon="-5.079945037141442">
        <ele>33.780000000000001</ele>
        <time>2023-09-01T09:34:58Z</time>
      </trkpt>
      <trkpt lat="56.236967984586954" lon="-5.079228971153498">
        <ele>30.899999999999999</ele>
        <time>2023-09-01T09:35:03Z</time>
      </trkpt>
      <trkpt lat="56.236847033724189" lon="-5.079128975048661">
        <ele>30.420000000000002</ele>
        <time>2023-09-01T09:35:04Z</time>
      </trkpt>
      <trkpt lat="56.236713007092476" lon="-5.079067032784224">
        <ele>29.940000000000001</ele>
        <time>2023-09-01T09:35:05Z</time>
      </trkpt>
      <trkpt lat="56.236583003774285" lon="-5.079005006700754">
        <ele>29.460000000000001</ele>
        <time>2023-09-01T09:35:06Z</time>
      </trkpt>
      <trkpt lat="56.236449982970953" lon="-5.079022021964192">
        <ele>28.98</ele>
        <time>2023-09-01T09:35:07Z</time>
      </trkpt>
      <trkpt lat="56.236315034329891" lon="-5.079069966450334">
        <ele>28.02</ele>
        <time>2023-09-01T09:35:08Z</time>
      </trkpt>
      <trkpt lat="56.236176984384656" lon="-5.079119000583887">
        <ele>27.530000000000001</ele>
        <time>2023-09-01T09:35:09Z</time>
      </trkpt>
      <trkpt lat="56.236031977459788" lon="-5.07916996255517">
        <ele>27.050000000000001</ele>
        <time>2023-09-01T09:35:10Z</time>
      </trkpt>
      <trkpt lat="56.235884036868811" lon="-5.079222014173865">
        <ele>26.09</ele>
        <time>2023-09-01T09:35:11Z</time>
      </trkpt>
      <trkpt lat="56.235269978642464" lon="-5.079518985003233">
        <ele>22.73</ele>
        <time>2023-09-01T09:35:15Z</time>
      </trkpt>
      <trkpt lat="56.23511197976768" lon="-5.079598026350141">
        <ele>22.25</ele>
        <time>2023-09-01T09:35:16Z</time>
      </trkpt>
      <trkpt lat="56.233871961012483" lon="-5.080433031544089">
        <ele>17.920000000000002</ele>
        <time>2023-09-01T09:35:25Z</time>
      </trkpt>
      <trkpt lat="56.23375897295773" lon="-5.080468989908695">
        <ele>17.920000000000002</ele>
        <time>2023-09-01T09:35:26Z</time>
      </trkpt>
      <trkpt lat="56.233656965196133" lon="-5.080468989908695">
        <ele>17.440000000000001</ele>
        <time>2023-09-01T09:35:27Z</time>
      </trkpt>
      <trkpt lat="56.233566021546721" lon="-5.080437976866961">
        <ele>16.960000000000001</ele>
        <time>2023-09-01T09:35:28Z</time>
      </trkpt>
      <trkpt lat="56.23349703848362" lon="-5.080339992418885">
        <ele>16.48</ele>
        <time>2023-09-01T09:35:29Z</time>
      </trkpt>
      <trkpt lat="56.233423026278615" lon="-5.080202026292682">
        <ele>15.52</ele>
        <time>2023-09-01T09:35:30Z</time>
      </trkpt>
      <trkpt lat="56.233339961618185" lon="-5.080045033246279">
        <ele>15.039999999999999</ele>
        <time>2023-09-01T09:35:31Z</time>
      </trkpt>
      <trkpt lat="56.233247006312013" lon="-5.079872030764818">
        <ele>14.08</ele>
        <time>2023-09-01T09:35:32Z</time>
      </trkpt>
      <trkpt lat="56.233164025470614" lon="-5.079676983878017">
        <ele>13.119999999999999</ele>
        <time>2023-09-01T09:35:33Z</time>
      </trkpt>
      <trkpt lat="56.23309001326561" lon="-5.079455031082034">
        <ele>11.67</ele>
        <time>2023-09-01T09:35:34Z</time>
      </trkpt>
      <trkpt lat="56.233017006888986" lon="-5.079235006123781">
        <ele>10.23</ele>
        <time>2023-09-01T09:35:35Z</time>
      </trkpt>
      <trkpt lat="56.232945006340742" lon="-5.079019004479051">
        <ele>9.75</ele>
        <time>2023-09-01T09:35:36Z</time>
      </trkpt>
      <trkpt lat="56.232486013323069" lon="-5.07757899351418">
        <ele>4.46</ele>
        <time>2023-09-01T09:35:44Z</time>
      </trkpt>
      <trkpt lat="56.232013022527099" lon="-5.076060025021434">
        <ele>-0.82</ele>
        <time>2023-09-01T09:35:53Z</time>
      </trkpt>
      <trkpt lat="56.231743041425943" lon="-5.075233988463879">
        <ele>-4.19</ele>
        <time>2023-09-01T09:35:58Z</time>
      </trkpt>
      <trkpt lat="56.231685960665345" lon="-5.074989991262555">
        <ele>-4.67</ele>
        <time>2023-09-01T09:36:00Z</time>
      </trkpt>
      <trkpt lat="56.231661988422275" lon="-5.074885971844196">
        <ele>-5.15</ele>
        <time>2023-09-01T09:36:01Z</time>
      </trkpt>
      <trkpt lat="56.23165100812912" lon="-5.074682040140033">
        <ele>-5.63</ele>
        <time>2023-09-01T09:36:02Z</time>
      </trkpt>
      <trkpt lat="56.231672968715429" lon="-5.074585983529687">
        <ele>-5.63</ele>
        <time>2023-09-01T09:36:03Z</time>
      </trkpt>
      <trkpt lat="56.23169501312077" lon="-5.074492022395134">
        <ele>-5.63</ele>
        <time>2023-09-01T09:36:04Z</time>
      </trkpt>
      <trkpt lat="56.23171697370708" lon="-5.074394959956408">
        <ele>-5.63</ele>
        <time>2023-09-01T09:36:05Z</time>
      </trkpt>
      <trkpt lat="56.231771958991885" lon="-5.074178036302328">
        <ele>-5.63</ele>
        <time>2023-09-01T09:36:07Z</time>
      </trkpt>
      <trkpt lat="56.231805989518762" lon="-5.074095977470279">
        <ele>-6.11</ele>
        <time>2023-09-01T09:36:08Z</time>
      </trkpt>
      <trkpt lat="56.231831973418593" lon="-5.074031017720699">
        <ele>-6.11</ele>
        <time>2023-09-01T09:36:09Z</time>
      </trkpt>
      <trkpt lat="56.231863992288709" lon="-5.073953988030553">
        <ele>-6.11</ele>
        <time>2023-09-01T09:36:16Z</time>
      </trkpt>
      <trkpt lat="56.231892993673682" lon="-5.073880981653929">
        <ele>-6.11</ele>
        <time>2023-09-01T09:36:29Z</time>
      </trkpt>
      <trkpt lat="56.231993995606899" lon="-5.073761036619544">
        <ele>-6.11</ele>
        <time>2023-09-01T09:36:30Z</time>
      </trkpt>
      <trkpt lat="56.232054010033607" lon="-5.073805041611195">
        <ele>-6.11</ele>
        <time>2023-09-01T09:36:31Z</time>
      </trkpt>
      <trkpt lat="56.232116036117077" lon="-5.073851980268955">
        <ele>-6.11</ele>
        <time>2023-09-01T09:36:32Z</time>
      </trkpt>
      <trkpt lat="56.232174960896373" lon="-5.074031017720699">
        <ele>-6.11</ele>
        <time>2023-09-01T09:36:33Z</time>
      </trkpt>
      <trkpt lat="56.232204968109727" lon="-5.074135959148407">
        <ele>-6.11</ele>
        <time>2023-09-01T09:36:34Z</time>
      </trkpt>
      <trkpt lat="56.232234975323081" lon="-5.074238972738385">
        <ele>-6.11</ele>
        <time>2023-09-01T09:36:35Z</time>
      </trkpt>
      <trkpt lat="56.232261965051293" lon="-5.07433301769197">
        <ele>-6.59</ele>
        <time>2023-09-01T09:36:36Z</time>
      </trkpt>
      <trkpt lat="56.232283003628254" lon="-5.074409041553736">
        <ele>-6.59</ele>
        <time>2023-09-01T09:36:37Z</time>
      </trkpt>
      <trkpt lat="56.232301024720073" lon="-5.074470983818173">
        <ele>-6.59</ele>
        <time>2023-09-01T09:36:38Z</time>
      </trkpt>
      <trkpt lat="56.232318039983511" lon="-5.074529992416501">
        <ele>-6.59</ele>
        <time>2023-09-01T09:36:39Z</time>
      </trkpt>
      <trkpt lat="56.232341006398201" lon="-5.074610961601138">
        <ele>-6.59</ele>
        <time>2023-09-01T09:36:40Z</time>
      </trkpt>
      <trkpt lat="56.232341006398201" lon="-5.074610961601138">
        <ele>-6.59</ele>
        <time>2023-09-01T09:36:41Z</time>
      </trkpt>
      <trkpt lat="56.232348969206214" lon="-5.07461397908628">
        <ele>-6.59</ele>
        <time>2023-09-01T09:36:42Z</time>
      </trkpt>
      <trkpt lat="56.232376964762807" lon="-5.074626971036196">
        <ele>-7.07</ele>
        <time>2023-09-01T09:36:43Z</time>
      </trkpt>
      <trkpt lat="56.232658009976149" lon="-5.074755968526006">
        <ele>-7.07</ele>
        <time>2023-09-01T09:36:49Z</time>
      </trkpt>
      <trkpt lat="56.232829000800848" lon="-5.074834004044533">
        <ele>-7.07</ele>
        <time>2023-09-01T09:36:52Z</time>
      </trkpt>
      <trkpt lat="56.232884991914034" lon="-5.074842972680926">
        <ele>-6.59</ele>
        <time>2023-09-01T09:36:53Z</time>
      </trkpt>
      <trkpt lat="56.232949029654264" lon="-5.074834004044533">
        <ele>-6.59</ele>
        <time>2023-09-01T09:36:54Z</time>
      </trkpt>
      <trkpt lat="56.233010971918702" lon="-5.07482604123652">
        <ele>-6.59</ele>
        <time>2023-09-01T09:36:55Z</time>
      </trkpt>
      <trkpt lat="56.233075009658933" lon="-5.074817994609475">
        <ele>-6.59</ele>
        <time>2023-09-01T09:36:56Z</time>
      </trkpt>
      <trkpt lat="56.233401987701654" lon="-5.074676005169749">
        <ele>-6.11</ele>
        <time>2023-09-01T09:37:01Z</time>
      </trkpt>
      <trkpt lat="56.233469964936376" lon="-5.074637029320002">
        <ele>-6.11</ele>
        <time>2023-09-01T09:37:02Z</time>
      </trkpt>
      <trkpt lat="56.233536014333367" lon="-5.074598975479603">
        <ele>-6.11</ele>
        <time>2023-09-01T09:37:03Z</time>
      </trkpt>
      <trkpt lat="56.233604997396469" lon="-5.074559999629855">
        <ele>-5.63</ele>
        <time>2023-09-01T09:37:04Z</time>
      </trkpt>
      <trkpt lat="56.23367196880281" lon="-5.074530998244882">
        <ele>-5.63</ele>
        <time>2023-09-01T09:37:05Z</time>
      </trkpt>
      <trkpt lat="56.233742041513324" lon="-5.07450501434505">
        <ele>-5.15</ele>
        <time>2023-09-01T09:37:06Z</time>
      </trkpt>
      <trkpt lat="56.234504962339997" lon="-5.074339974671602">
        <ele>-3.71</ele>
        <time>2023-09-01T09:37:16Z</time>
      </trkpt>
      <trkpt lat="56.234838981181383" lon="-5.074449023231864">
        <ele>-2.27</ele>
        <time>2023-09-01T09:37:20Z</time>
      </trkpt>
      <trkpt lat="56.234918022528291" lon="-5.074486993253231">
        <ele>-1.79</ele>
        <time>2023-09-01T09:37:21Z</time>
      </trkpt>
      <trkpt lat="56.234994968399405" lon="-5.074523035436869">
        <ele>-1.3</ele>
        <time>2023-09-01T09:37:22Z</time>
      </trkpt>
      <trkpt lat="56.235150033608079" lon="-5.074618002399802">
        <ele>-0.82</ele>
        <time>2023-09-01T09:37:24Z</time>
      </trkpt>
      <trkpt lat="56.235293028876185" lon="-5.074734007939696">
        <ele>0.14</ele>
        <time>2023-09-01T09:37:26Z</time>
      </trkpt>
      <trkpt lat="56.235364023596048" lon="-5.074792010709643">
        <ele>1.1</ele>
        <time>2023-09-01T09:37:27Z</time>
      </trkpt>
      <trkpt lat="56.235658982768655" lon="-5.075059980154038">
        <ele>3.5</ele>
        <time>2023-09-01T09:37:31Z</time>
      </trkpt>
      <trkpt lat="56.236063996329904" lon="-5.075490977615118">
        <ele>6.39</ele>
        <time>2023-09-01T09:37:37Z</time>
      </trkpt>
      <trkpt lat="56.236196011304855" lon="-5.075631039217114">
        <ele>7.35</ele>
        <time>2023-09-01T09:37:39Z</time>
      </trkpt>
      <trkpt lat="56.236245967447758" lon="-5.075684012845159">
        <ele>7.83</ele>
        <time>2023-09-01T09:37:40Z</time>
      </trkpt>
      <trkpt lat="56.236338000744581" lon="-5.075725000351667">
        <ele>7.83</ele>
        <time>2023-09-01T09:37:41Z</time>
      </trkpt>
      <trkpt lat="56.236415030434728" lon="-5.075759030878544">
        <ele>8.310000000000001</ele>
        <time>2023-09-01T09:37:42Z</time>
      </trkpt>
      <trkpt lat="56.236488036811352" lon="-5.075790965929627">
        <ele>8.789999999999999</ele>
        <time>2023-09-01T09:37:43Z</time>
      </trkpt>
      <trkpt lat="56.236634971573949" lon="-5.075853997841477">
        <ele>9.27</ele>
        <time>2023-09-01T09:37:45Z</time>
      </trkpt>
      <trkpt lat="56.236712001264095" lon="-5.075818039476872">
        <ele>8.789999999999999</ele>
        <time>2023-09-01T09:37:46Z</time>
      </trkpt>
      <trkpt lat="56.236789030954242" lon="-5.075781997293234">
        <ele>8.789999999999999</ele>
        <time>2023-09-01T09:37:47Z</time>
      </trkpt>
      <trkpt lat="56.236867988482118" lon="-5.075745033100247">
        <ele>9.27</ele>
        <time>2023-09-01T09:37:48Z</time>
      </trkpt>
      <trkpt lat="56.236943006515503" lon="-5.07570999674499">
        <ele>9.27</ele>
        <time>2023-09-01T09:37:49Z</time>
      </trkpt>
      <trkpt lat="56.237020958214998" lon="-5.07564403116703">
        <ele>9.75</ele>
        <time>2023-09-01T09:37:50Z</time>
      </trkpt>
      <trkpt lat="56.237080972641706" lon="-5.075545040890575">
        <ele>10.23</ele>
        <time>2023-09-01T09:37:51Z</time>
      </trkpt>
      <trkpt lat="56.237137969583273" lon="-5.075448984280229">
        <ele>10.23</ele>
        <time>2023-09-01T09:37:52Z</time>
      </trkpt>
      <trkpt lat="56.237188009545207" lon="-5.07536600343883">
        <ele>10.710000000000001</ele>
        <time>2023-09-01T09:37:53Z</time>
      </trkpt>
      <trkpt lat="56.237235032021999" lon="-5.075286962091923">
        <ele>11.19</ele>
        <time>2023-09-01T09:37:54Z</time>
      </trkpt>
      <trkpt lat="56.23728197067976" lon="-5.075209010392427">
        <ele>11.67</ele>
        <time>2023-09-01T09:37:55Z</time>
      </trkpt>
      <trkpt lat="56.237319018691778" lon="-5.075146984308958">
        <ele>11.67</ele>
        <time>2023-09-01T09:37:56Z</time>
      </trkpt>
      <trkpt lat="56.237363023683429" lon="-5.075097028166056">
        <ele>12.15</ele>
        <time>2023-09-01T09:37:57Z</time>
      </trkpt>
      <trkpt lat="56.237403005361557" lon="-5.075052017346025">
        <ele>12.15</ele>
        <time>2023-09-01T09:37:58Z</time>
      </trkpt>
      <trkpt lat="56.237440975382924" lon="-5.075008012354374">
        <ele>12.15</ele>
        <time>2023-09-01T09:37:59Z</time>
      </trkpt>
      <trkpt lat="56.237480035051703" lon="-5.07495797239244">
        <ele>12.15</ele>
        <time>2023-09-01T09:38:00Z</time>
      </trkpt>
      <trkpt lat="56.237511970102787" lon="-5.074908016249538">
        <ele>12.630000000000001</ele>
        <time>2023-09-01T09:38:01Z</time>
      </trkpt>
      <trkpt lat="56.237543988972902" lon="-5.074857976287603">
        <ele>12.630000000000001</ele>
        <time>2023-09-01T09:38:02Z</time>
      </trkpt>
      <trkpt lat="56.237633004784584" lon="-5.074717998504639">
        <ele>13.119999999999999</ele>
        <time>2023-09-01T09:38:11Z</time>
      </trkpt>
      <trkpt lat="56.237644990906119" lon="-5.074698971584439">
        <ele>13.119999999999999</ele>
        <time>2023-09-01T09:38:17Z</time>
      </trkpt>
      <trkpt lat="56.237557986751199" lon="-5.07478698156774">
        <ele>12.630000000000001</ele>
        <time>2023-09-01T09:38:21Z</time>
      </trkpt>
      <trkpt lat="56.237554969266057" lon="-5.074937017634511">
        <ele>14.08</ele>
        <time>2023-09-01T09:38:35Z</time>
      </trkpt>
      <trkpt lat="56.237572990357876" lon="-5.075035002082586">
        <ele>28.02</ele>
        <time>2023-09-01T09:40:26Z</time>
      </trkpt>
      <trkpt lat="56.237468970939517" lon="-5.074975993484259">
        <ele>23.690000000000001</ele>
        <time>2023-09-01T09:40:29Z</time>
      </trkpt>
      <trkpt lat="56.237504007294774" lon="-5.075080012902618">
        <ele>22.73</ele>
        <time>2023-09-01T09:40:30Z</time>
      </trkpt>
      <trkpt lat="56.237529991194606" lon="-5.075206998735666">
        <ele>22.25</ele>
        <time>2023-09-01T09:40:31Z</time>
      </trkpt>
      <trkpt lat="56.237319018691778" lon="-5.075146984308958">
        <ele>20.809999999999999</ele>
        <time>2023-09-01T09:40:32Z</time>
      </trkpt>
      <trkpt lat="56.237265039235353" lon="-5.07523700594902">
        <ele>19.84</ele>
        <time>2023-09-01T09:40:34Z</time>
      </trkpt>
      <trkpt lat="56.236891960725188" lon="-5.07573296315968">
        <ele>17.920000000000002</ele>
        <time>2023-09-01T09:40:40Z</time>
      </trkpt>
      <trkpt lat="56.236682999879122" lon="-5.075831031426787">
        <ele>17.440000000000001</ele>
        <time>2023-09-01T09:40:43Z</time>
      </trkpt>
      <trkpt lat="56.236610999330878" lon="-5.075846035033464">
        <ele>16.960000000000001</ele>
        <time>2023-09-01T09:40:44Z</time>
      </trkpt>
      <trkpt lat="56.236542016267776" lon="-5.07581502199173">
        <ele>16.960000000000001</ele>
        <time>2023-09-01T09:40:45Z</time>
      </trkpt>
      <trkpt lat="56.236473033204675" lon="-5.075784008949995">
        <ele>16.960000000000001</ele>
        <time>2023-09-01T09:40:46Z</time>
      </trkpt>
      <trkpt lat="56.236403966322541" lon="-5.075754001736641">
        <ele>16.960000000000001</ele>
        <time>2023-09-01T09:40:47Z</time>
      </trkpt>
      <trkpt lat="56.236245967447758" lon="-5.075684012845159">
        <ele>16.960000000000001</ele>
        <time>2023-09-01T09:40:49Z</time>
      </trkpt>
      <trkpt lat="56.235395958647132" lon="-5.074817994609475">
        <ele>13.6</ele>
        <time>2023-09-01T09:41:01Z</time>
      </trkpt>
      <trkpt lat="56.23508800752461" lon="-5.074567962437868">
        <ele>13.119999999999999</ele>
        <time>2023-09-01T09:41:05Z</time>
      </trkpt>
      <trkpt lat="56.234844010323286" lon="-5.074452040717006">
        <ele>13.119999999999999</ele>
        <time>2023-09-01T09:41:08Z</time>
      </trkpt>
      <trkpt lat="56.234610993415117" lon="-5.074339974671602">
        <ele>12.630000000000001</ele>
        <time>2023-09-01T09:41:11Z</time>
      </trkpt>
      <trkpt lat="56.23444302007556" lon="-5.074345003813505">
        <ele>12.15</ele>
        <time>2023-09-01T09:41:13Z</time>
      </trkpt>
      <trkpt lat="56.233895011246204" lon="-5.074449023231864">
        <ele>10.23</ele>
        <time>2023-09-01T09:41:19Z</time>
      </trkpt>
      <trkpt lat="56.233366029337049" lon="-5.074696037918329">
        <ele>7.35</ele>
        <time>2023-09-01T09:41:25Z</time>
      </trkpt>
      <trkpt lat="56.233152039349079" lon="-5.07480701431632">
        <ele>5.91</ele>
        <time>2023-09-01T09:41:29Z</time>
      </trkpt>
      <trkpt lat="56.232994040474296" lon="-5.074827969074249">
        <ele>4.94</ele>
        <time>2023-09-01T09:41:32Z</time>
      </trkpt>
      <trkpt lat="56.232935031875968" lon="-5.074836015701294">
        <ele>4.94</ele>
        <time>2023-09-01T09:41:33Z</time>
      </trkpt>
      <trkpt lat="56.23268399387598" lon="-5.074768038466573">
        <ele>3.98</ele>
        <time>2023-09-01T09:41:37Z</time>
      </trkpt>
      <trkpt lat="56.23257502913475" lon="-5.074717998504639">
        <ele>3.5</ele>
        <time>2023-09-01T09:41:39Z</time>
      </trkpt>
      <trkpt lat="56.232436979189515" lon="-5.074654966592789">
        <ele>3.02</ele>
        <time>2023-09-01T09:41:42Z</time>
      </trkpt>
      <trkpt lat="56.232395991683006" lon="-5.074636023491621">
        <ele>3.02</ele>
        <time>2023-09-01T09:41:43Z</time>
      </trkpt>
      <trkpt lat="56.23231602832675" lon="-5.074522029608488">
        <ele>3.02</ele>
        <time>2023-09-01T09:41:45Z</time>
      </trkpt>
      <trkpt lat="56.232294989749789" lon="-5.074449023231864">
        <ele>2.54</ele>
        <time>2023-09-01T09:41:46Z</time>
      </trkpt>
      <trkpt lat="56.232232041656971" lon="-5.074230004101992">
        <ele>1.58</ele>
        <time>2023-09-01T09:41:49Z</time>
      </trkpt>
      <trkpt lat="56.232214020565152" lon="-5.074164038524032">
        <ele>1.58</ele>
        <time>2023-09-01T09:41:50Z</time>
      </trkpt>
      <trkpt lat="56.232198011130095" lon="-5.074110981076956">
        <ele>1.1</ele>
        <time>2023-09-01T09:41:51Z</time>
      </trkpt>
      <trkpt lat="56.232185019180179" lon="-5.074064964428544">
        <ele>1.1</ele>
        <time>2023-09-01T09:41:52Z</time>
      </trkpt>
      <trkpt lat="56.232204968109727" lon="-5.073844017460942">
        <ele>0.62</ele>
        <time>2023-09-01T09:41:53Z</time>
      </trkpt>
      <trkpt lat="56.232248973101377" lon="-5.073834965005517">
        <ele>0.14</ele>
        <time>2023-09-01T09:41:54Z</time>
      </trkpt>
      <trkpt lat="56.232309993356466" lon="-5.073822978883982">
        <ele>-0.34</ele>
        <time>2023-09-01T09:41:55Z</time>
      </trkpt>
      <trkpt lat="56.23238299973309" lon="-5.073808981105685">
        <ele>-0.34</ele>
        <time>2023-09-01T09:41:56Z</time>
      </trkpt>
      <trkpt lat="56.233129994943738" lon="-5.073585016652942">
        <ele>-1.79</ele>
        <time>2023-09-01T09:42:03Z</time>
      </trkpt>
      <trkpt lat="56.234060972929001" lon="-5.073096016421914">
        <ele>-4.19</ele>
        <time>2023-09-01T09:42:10Z</time>
      </trkpt>
      <trkpt lat="56.234786007553339" lon="-5.072189010679722">
        <ele>-3.71</ele>
        <time>2023-09-01T09:42:18Z</time>
      </trkpt>
      <trkpt lat="56.235051965340972" lon="-5.071665979921818">
        <ele>-4.19</ele>
        <time>2023-09-01T09:42:25Z</time>
      </trkpt>
      <trkpt lat="56.235083984211087" lon="-5.071602026000619">
        <ele>-4.19</ele>
        <time>2023-09-01T09:42:35Z</time>
      </trkpt>
      <trkpt lat="56.235268972814083" lon="-5.07123900577426">
        <ele>-2.75</ele>
        <time>2023-09-01T09:42:40Z</time>
      </trkpt>
      <trkpt lat="56.2353699747473" lon="-5.071040019392967">
        <ele>-2.27</ele>
        <time>2023-09-01T09:42:42Z</time>
      </trkpt>
      <trkpt lat="56.23596902936697" lon="-5.069826990365982">
        <ele>3.98</ele>
        <time>2023-09-01T09:42:54Z</time>
      </trkpt>
      <trkpt lat="56.236430034041405" lon="-5.068829040974379">
        <ele>1.1</ele>
        <time>2023-09-01T09:43:01Z</time>
      </trkpt>
      <trkpt lat="56.237309966236353" lon="-5.066947974264622">
        <ele>1.1</ele>
        <time>2023-09-01T09:43:11Z</time>
      </trkpt>
      <trkpt lat="56.237436030060053" lon="-5.066761979833245">
        <ele>1.58</ele>
        <time>2023-09-01T09:43:12Z</time>
      </trkpt>
      <trkpt lat="56.237564021721482" lon="-5.066580008715391">
        <ele>1.58</ele>
        <time>2023-09-01T09:43:13Z</time>
      </trkpt>
      <trkpt lat="56.237713973969221" lon="-5.066423015668988">
        <ele>1.58</ele>
        <time>2023-09-01T09:43:14Z</time>
      </trkpt>
      <trkpt lat="56.238614022731781" lon="-5.065397992730141">
        <ele>2.06</ele>
        <time>2023-09-01T09:43:20Z</time>
      </trkpt>
      <trkpt lat="56.238740002736449" lon="-5.06516195833683">
        <ele>1.58</ele>
        <time>2023-09-01T09:43:21Z</time>
      </trkpt>
      <trkpt lat="56.239838032051921" lon="-5.063277035951614">
        <ele>1.58</ele>
        <time>2023-09-01T09:43:30Z</time>
      </trkpt>
      <trkpt lat="56.241226997226477" lon="-5.061154989525676">
        <ele>4.94</ele>
        <time>2023-09-01T09:43:40Z</time>
      </trkpt>
      <trkpt lat="56.242580004036427" lon="-5.05920602940023">
        <ele>8.310000000000001</ele>
        <time>2023-09-01T09:43:49Z</time>
      </trkpt>
      <trkpt lat="56.243724972009659" lon="-5.058000041171908">
        <ele>9.27</ele>
        <time>2023-09-01T09:43:56Z</time>
      </trkpt>
      <trkpt lat="56.244225958362222" lon="-5.057609025388956">
        <ele>9.27</ele>
        <time>2023-09-01T09:43:59Z</time>
      </trkpt>
      <trkpt lat="56.244373982772231" lon="-5.057409033179283">
        <ele>8.789999999999999</ele>
        <time>2023-09-01T09:44:00Z</time>
      </trkpt>
      <trkpt lat="56.244513038545847" lon="-5.057185990735889">
        <ele>8.789999999999999</ele>
        <time>2023-09-01T09:44:01Z</time>
      </trkpt>
      <trkpt lat="56.24615496955812" lon="-5.054650967940688">
        <ele>7.35</ele>
        <time>2023-09-01T09:44:13Z</time>
      </trkpt>
      <trkpt lat="56.247351989150047" lon="-5.052750036120415">
        <ele>7.35</ele>
        <time>2023-09-01T09:44:22Z</time>
      </trkpt>
      <trkpt lat="56.247626999393106" lon="-5.051988959312439">
        <ele>6.87</ele>
        <time>2023-09-01T09:44:25Z</time>
      </trkpt>
      <trkpt lat="56.247710986062884" lon="-5.051721995696425">
        <ele>6.87</ele>
        <time>2023-09-01T09:44:26Z</time>
      </trkpt>
      <trkpt lat="56.247845012694597" lon="-5.051144985482097">
        <ele>7.35</ele>
        <time>2023-09-01T09:44:28Z</time>
      </trkpt>
      <trkpt lat="56.247962024062872" lon="-5.049870014190674">
        <ele>9.27</ele>
        <time>2023-09-01T09:44:32Z</time>
      </trkpt>
      <trkpt lat="56.247955989092588" lon="-5.049558039754629">
        <ele>10.23</ele>
        <time>2023-09-01T09:44:33Z</time>
      </trkpt>
      <trkpt lat="56.24765801243484" lon="-5.047351000830531">
        <ele>12.630000000000001</ele>
        <time>2023-09-01T09:44:40Z</time>
      </trkpt>
      <trkpt lat="56.247573019936681" lon="-5.047052018344402">
        <ele>12.630000000000001</ele>
        <time>2023-09-01T09:44:41Z</time>
      </trkpt>
      <trkpt lat="56.24746598303318" lon="-5.046780025586486">
        <ele>12.15</ele>
        <time>2023-09-01T09:44:42Z</time>
      </trkpt>
      <trkpt lat="56.247359029948711" lon="-5.046506021171808">
        <ele>12.15</ele>
        <time>2023-09-01T09:44:43Z</time>
      </trkpt>
      <trkpt lat="56.247230032458901" lon="-5.046264035627246">
        <ele>12.15</ele>
        <time>2023-09-01T09:44:44Z</time>
      </trkpt>
      <trkpt lat="56.24709801748395" lon="-5.046029007062316">
        <ele>12.15</ele>
        <time>2023-09-01T09:44:45Z</time>
      </trkpt>
      <trkpt lat="56.246958039700985" lon="-5.045835971832275">
        <ele>12.630000000000001</ele>
        <time>2023-09-01T09:44:46Z</time>
      </trkpt>
      <trkpt lat="56.246810015290976" lon="-5.04565098322928">
        <ele>12.630000000000001</ele>
        <time>2023-09-01T09:44:47Z</time>
      </trkpt>
      <trkpt lat="56.246651010587811" lon="-5.045451996847987">
        <ele>13.119999999999999</ele>
        <time>2023-09-01T09:44:48Z</time>
      </trkpt>
      <trkpt lat="56.246179025620222" lon="-5.045041032135487">
        <ele>12.630000000000001</ele>
        <time>2023-09-01T09:44:51Z</time>
      </trkpt>
      <trkpt lat="56.246021026745439" lon="-5.044944975525141">
        <ele>12.630000000000001</ele>
        <time>2023-09-01T09:44:52Z</time>
      </trkpt>
      <trkpt lat="56.245676027610898" lon="-5.044803991913796">
        <ele>12.630000000000001</ele>
        <time>2023-09-01T09:44:54Z</time>
      </trkpt>
      <trkpt lat="56.244860971346498" lon="-5.044763004407287">
        <ele>13.6</ele>
        <time>2023-09-01T09:44:58Z</time>
      </trkpt>
      <trkpt lat="56.243236977607012" lon="-5.045332973822951">
        <ele>15.52</ele>
        <time>2023-09-01T09:45:05Z</time>
      </trkpt>
      <trkpt lat="56.241408968344331" lon="-5.046028001233935">
        <ele>16.48</ele>
        <time>2023-09-01T09:45:13Z</time>
      </trkpt>
      <trkpt lat="56.239262027665973" lon="-5.046533010900021">
        <ele>16</ele>
        <time>2023-09-01T09:45:22Z</time>
      </trkpt>
      <trkpt lat="56.237739035859704" lon="-5.04676703363657">
        <ele>15.52</ele>
        <time>2023-09-01T09:45:30Z</time>
      </trkpt>
      <trkpt lat="56.235870039090514" lon="-5.046907011419535">
        <ele>12.630000000000001</ele>
        <time>2023-09-01T09:45:40Z</time>
      </trkpt>
      <trkpt lat="56.234587021172047" lon="-5.046518007293344">
        <ele>11.67</ele>
        <time>2023-09-01T09:45:47Z</time>
      </trkpt>
      <trkpt lat="56.234447965398431" lon="-5.046385992318392">
        <ele>11.19</ele>
        <time>2023-09-01T09:45:48Z</time>
      </trkpt>
      <trkpt lat="56.234307987615466" lon="-5.046254983171821">
        <ele>11.19</ele>
        <time>2023-09-01T09:45:49Z</time>
      </trkpt>
      <trkpt lat="56.234212014824152" lon="-5.046093966811895">
        <ele>10.710000000000001</ele>
        <time>2023-09-01T09:45:50Z</time>
      </trkpt>
      <trkpt lat="56.234130961820483" lon="-5.045873019844294">
        <ele>10.710000000000001</ele>
        <time>2023-09-01T09:45:51Z</time>
      </trkpt>
      <trkpt lat="56.234063990414143" lon="-5.045657018199563">
        <ele>10.710000000000001</ele>
        <time>2023-09-01T09:45:52Z</time>
      </trkpt>
      <trkpt lat="56.234012022614479" lon="-5.045405980199575">
        <ele>10.710000000000001</ele>
        <time>2023-09-01T09:45:53Z</time>
      </trkpt>
      <trkpt lat="56.233972040936351" lon="-5.045153014361858">
        <ele>10.710000000000001</ele>
        <time>2023-09-01T09:45:54Z</time>
      </trkpt>
      <trkpt lat="56.233972040936351" lon="-5.044872974976897">
        <ele>10.710000000000001</ele>
        <time>2023-09-01T09:45:55Z</time>
      </trkpt>
      <trkpt lat="56.233972040936351" lon="-5.044591007754207">
        <ele>10.710000000000001</ele>
        <time>2023-09-01T09:45:56Z</time>
      </trkpt>
      <trkpt lat="56.234007999300957" lon="-5.044292025268078">
        <ele>10.710000000000001</ele>
        <time>2023-09-01T09:45:57Z</time>
      </trkpt>
      <trkpt lat="56.234044963493943" lon="-5.043990025296807">
        <ele>10.710000000000001</ele>
        <time>2023-09-01T09:45:58Z</time>
      </trkpt>
      <trkpt lat="56.23435702174902" lon="-5.041336985304952">
        <ele>11.19</ele>
        <time>2023-09-01T09:46:06Z</time>
      </trkpt>
      <trkpt lat="56.234569000080228" lon="-5.039933016523719">
        <ele>11.19</ele>
        <time>2023-09-01T09:46:10Z</time>
      </trkpt>
      <trkpt lat="56.23530300334096" lon="-5.036696009337902">
        <ele>10.710000000000001</ele>
        <time>2023-09-01T09:46:19Z</time>
      </trkpt>
      <trkpt lat="56.236082017421722" lon="-5.033908020704985">
        <ele>11.67</ele>
        <time>2023-09-01T09:46:27Z</time>
      </trkpt>
      <trkpt lat="56.236197017133236" lon="-5.033590011298657">
        <ele>11.67</ele>
        <time>2023-09-01T09:46:28Z</time>
      </trkpt>
      <trkpt lat="56.23631302267313" lon="-5.033269990235567">
        <ele>11.67</ele>
        <time>2023-09-01T09:46:29Z</time>
      </trkpt>
      <trkpt lat="56.236428022384644" lon="-5.032953992486">
        <ele>12.15</ele>
        <time>2023-09-01T09:46:30Z</time>
      </trkpt>
      <trkpt lat="56.236545033752918" lon="-5.03262902610004">
        <ele>12.630000000000001</ele>
        <time>2023-09-01T09:46:31Z</time>
      </trkpt>
      <trkpt lat="56.236790958791971" lon="-5.031950008124113">
        <ele>13.119999999999999</ele>
        <time>2023-09-01T09:46:33Z</time>
      </trkpt>
      <trkpt lat="56.236920040100813" lon="-5.031593022868037">
        <ele>13.119999999999999</ele>
        <time>2023-09-01T09:46:34Z</time>
      </trkpt>
      <trkpt lat="56.237651025876403" lon="-5.029552029445767">
        <ele>14.56</ele>
        <time>2023-09-01T09:46:40Z</time>
      </trkpt>
      <trkpt lat="56.237768037244678" lon="-5.029220022261143">
        <ele>14.08</ele>
        <time>2023-09-01T09:46:41Z</time>
      </trkpt>
      <trkpt lat="56.238775039091706" lon="-5.026370007544756">
        <ele>10.710000000000001</ele>
        <time>2023-09-01T09:46:50Z</time>
      </trkpt>
      <trkpt lat="56.239711968228221" lon="-5.023622000589967">
        <ele>10.710000000000001</ele>
        <time>2023-09-01T09:46:59Z</time>
      </trkpt>
      <trkpt lat="56.240122010931373" lon="-5.022287014871836">
        <ele>10.23</ele>
        <time>2023-09-01T09:47:03Z</time>
      </trkpt>
      <trkpt lat="56.240173978731036" lon="-5.021959031000733">
        <ele>9.75</ele>
        <time>2023-09-01T09:47:04Z</time>
      </trkpt>
      <trkpt lat="56.240208009257913" lon="-5.021605985239148">
        <ele>9.75</ele>
        <time>2023-09-01T09:47:05Z</time>
      </trkpt>
      <trkpt lat="56.240600030869246" lon="-5.018654968589544">
        <ele>7.35</ele>
        <time>2023-09-01T09:47:13Z</time>
      </trkpt>
      <trkpt lat="56.241179974749684" lon="-5.015847031027079">
        <ele>5.91</ele>
        <time>2023-09-01T09:47:21Z</time>
      </trkpt>
      <trkpt lat="56.242067031562328" lon="-5.012194029986858">
        <ele>3.02</ele>
        <time>2023-09-01T09:47:32Z</time>
      </trkpt>
      <trkpt lat="56.242816038429737" lon="-5.009128013625741">
        <ele>3.5</ele>
        <time>2023-09-01T09:47:41Z</time>
      </trkpt>
      <trkpt lat="56.243130024522543" lon="-5.006745038554072">
        <ele>3.98</ele>
        <time>2023-09-01T09:47:48Z</time>
      </trkpt>
      <trkpt lat="56.243229014798999" lon="-5.00454998575151">
        <ele>1.1</ele>
        <time>2023-09-01T09:47:54Z</time>
      </trkpt>
      <trkpt lat="56.243408974260092" lon="-5.001073004677892">
        <ele>-1.3</ele>
        <time>2023-09-01T09:48:04Z</time>
      </trkpt>
      <trkpt lat="56.243587005883455" lon="-4.998500011861324">
        <ele>-1.3</ele>
        <time>2023-09-01T09:48:11Z</time>
      </trkpt>
      <trkpt lat="56.243750033900142" lon="-4.996261959895492">
        <ele>0.62</ele>
        <time>2023-09-01T09:48:17Z</time>
      </trkpt>
      <trkpt lat="56.243991013616323" lon="-4.994944995269179">
        <ele>1.1</ele>
        <time>2023-09-01T09:48:21Z</time>
      </trkpt>
      <trkpt lat="56.244913022965193" lon="-4.992052987217903">
        <ele>3.02</ele>
        <time>2023-09-01T09:48:30Z</time>
      </trkpt>
      <trkpt lat="56.245704023167491" lon="-4.989688033238053">
        <ele>5.42</ele>
        <time>2023-09-01T09:48:38Z</time>
      </trkpt>
      <trkpt lat="56.245808964595199" lon="-4.989407993853092">
        <ele>5.42</ele>
        <time>2023-09-01T09:48:39Z</time>
      </trkpt>
      <trkpt lat="56.246934989467263" lon="-4.986916976049542">
        <ele>11.67</ele>
        <time>2023-09-01T09:48:48Z</time>
      </trkpt>
      <trkpt lat="56.247950037941337" lon="-4.98431297019124">
        <ele>14.08</ele>
        <time>2023-09-01T09:48:56Z</time>
      </trkpt>
      <trkpt lat="56.249272031709552" lon="-4.981107981875539">
        <ele>15.52</ele>
        <time>2023-09-01T09:49:06Z</time>
      </trkpt>
      <trkpt lat="56.249702023342252" lon="-4.980221008881927">
        <ele>15.52</ele>
        <time>2023-09-01T09:49:09Z</time>
      </trkpt>
      <trkpt lat="56.249859016388655" lon="-4.979941975325346">
        <ele>15.52</ele>
        <time>2023-09-01T09:49:10Z</time>
      </trkpt>
      <trkpt lat="56.251086965203285" lon="-4.978244975209236">
        <ele>15.039999999999999</ele>
        <time>2023-09-01T09:49:17Z</time>
      </trkpt>
      <trkpt lat="56.251382008194923" lon="-4.977673999965191">
        <ele>15.52</ele>
        <time>2023-09-01T09:49:19Z</time>
      </trkpt>
      <trkpt lat="56.252165967598557" lon="-4.975817995145917">
        <ele>17.920000000000002</ele>
        <time>2023-09-01T09:49:25Z</time>
      </trkpt>
      <trkpt lat="56.252961996942759" lon="-4.973907005041838">
        <ele>19.359999999999999</ele>
        <time>2023-09-01T09:49:32Z</time>
      </trkpt>
      <trkpt lat="56.253078002482653" lon="-4.973630988970399">
        <ele>19.359999999999999</ele>
        <time>2023-09-01T09:49:33Z</time>
      </trkpt>
      <trkpt lat="56.253193002194166" lon="-4.973360002040863">
        <ele>19.84</ele>
        <time>2023-09-01T09:49:34Z</time>
      </trkpt>
      <trkpt lat="56.253314958885312" lon="-4.973067976534367">
        <ele>20.32</ele>
        <time>2023-09-01T09:49:35Z</time>
      </trkpt>
      <trkpt lat="56.254227999597788" lon="-4.970594979822636">
        <ele>22.25</ele>
        <time>2023-09-01T09:49:43Z</time>
      </trkpt>
      <trkpt lat="56.254987986758351" lon="-4.968781974166632">
        <ele>24.649999999999999</ele>
        <time>2023-09-01T09:49:49Z</time>
      </trkpt>
      <trkpt lat="56.255312031134963" lon="-4.967839010059834">
        <ele>26.57</ele>
        <time>2023-09-01T09:49:52Z</time>
      </trkpt>
      <trkpt lat="56.255761971697211" lon="-4.965471038594842">
        <ele>28.02</ele>
        <time>2023-09-01T09:49:59Z</time>
      </trkpt>
      <trkpt lat="56.255901027470827" lon="-4.964821022003889">
        <ele>28.98</ele>
        <time>2023-09-01T09:50:01Z</time>
      </trkpt>
      <trkpt lat="56.256786994636059" lon="-4.962332015857101">
        <ele>32.340000000000003</ele>
        <time>2023-09-01T09:50:09Z</time>
      </trkpt>
      <trkpt lat="56.257201982662082" lon="-4.960976997390389">
        <ele>33.299999999999997</ele>
        <time>2023-09-01T09:50:13Z</time>
      </trkpt>
      <trkpt lat="56.257267026230693" lon="-4.960614982992411">
        <ele>33.299999999999997</ele>
        <time>2023-09-01T09:50:14Z</time>
      </trkpt>
      <trkpt lat="56.257530972361565" lon="-4.958736011758447">
        <ele>32.340000000000003</ele>
        <time>2023-09-01T09:50:19Z</time>
      </trkpt>
      <trkpt lat="56.257994994521141" lon="-4.955414012074471">
        <ele>30.420000000000002</ele>
        <time>2023-09-01T09:50:28Z</time>
      </trkpt>
      <trkpt lat="56.258362960070372" lon="-4.952411027625203">
        <ele>28.02</ele>
        <time>2023-09-01T09:50:36Z</time>
      </trkpt>
      <trkpt lat="56.258751964196563" lon="-4.950283030048013">
        <ele>23.690000000000001</ele>
        <time>2023-09-01T09:50:42Z</time>
      </trkpt>
      <trkpt lat="56.258834023028612" lon="-4.949989998713136">
        <ele>22.73</ele>
        <time>2023-09-01T09:50:43Z</time>
      </trkpt>
      <trkpt lat="56.25893896445632" lon="-4.949709037318826">
        <ele>21.77</ele>
        <time>2023-09-01T09:50:44Z</time>
      </trkpt>
      <trkpt lat="56.25906502828002" lon="-4.949467973783612">
        <ele>20.809999999999999</ele>
        <time>2023-09-01T09:50:45Z</time>
      </trkpt>
      <trkpt lat="56.259192014113069" lon="-4.949222970753908">
        <ele>19.84</ele>
        <time>2023-09-01T09:50:46Z</time>
      </trkpt>
      <trkpt lat="56.260294988751411" lon="-4.947131015360355">
        <ele>15.52</ele>
        <time>2023-09-01T09:50:54Z</time>
      </trkpt>
      <trkpt lat="56.261784033849835" lon="-4.944264991208911">
        <ele>12.15</ele>
        <time>2023-09-01T09:51:04Z</time>
      </trkpt>
      <trkpt lat="56.263209041208029" lon="-4.941646987572312">
        <ele>9.27</ele>
        <time>2023-09-01T09:51:14Z</time>
      </trkpt>
      <trkpt lat="56.263712039217353" lon="-4.940995965152979">
        <ele>9.27</ele>
        <time>2023-09-01T09:51:17Z</time>
      </trkpt>
      <trkpt lat="56.263870038092136" lon="-4.940737970173359">
        <ele>9.27</ele>
        <time>2023-09-01T09:51:18Z</time>
      </trkpt>
      <trkpt lat="56.265731994062662" lon="-4.938036985695362">
        <ele>7.83</ele>
        <time>2023-09-01T09:51:29Z</time>
      </trkpt>
      <trkpt lat="56.267195977270603" lon="-4.93603496812284">
        <ele>6.39</ele>
        <time>2023-09-01T09:51:38Z</time>
      </trkpt>
      <trkpt lat="56.268726009875536" lon="-4.933759029954672">
        <ele>6.87</ele>
        <time>2023-09-01T09:51:48Z</time>
      </trkpt>
      <trkpt lat="56.269912971183658" lon="-4.931605970486999">
        <ele>6.39</ele>
        <time>2023-09-01T09:51:56Z</time>
      </trkpt>
      <trkpt lat="56.27129103988409" lon="-4.928551018238068">
        <ele>4.94</ele>
        <time>2023-09-01T09:52:07Z</time>
      </trkpt>
      <trkpt lat="56.271878024563193" lon="-4.926402987912297">
        <ele>4.94</ele>
        <time>2023-09-01T09:52:14Z</time>
      </trkpt>
      <trkpt lat="56.272739013656974" lon="-4.921250967308879">
        <ele>5.42</ele>
        <time>2023-09-01T09:52:30Z</time>
      </trkpt>
      <trkpt lat="56.272771032527089" lon="-4.920592987909913">
        <ele>5.42</ele>
        <time>2023-09-01T09:52:32Z</time>
      </trkpt>
      <trkpt lat="56.272741025313735" lon="-4.920271961018443">
        <ele>5.42</ele>
        <time>2023-09-01T09:52:33Z</time>
      </trkpt>
      <trkpt lat="56.272710012272" lon="-4.919945988804102">
        <ele>4.94</ele>
        <time>2023-09-01T09:52:34Z</time>
      </trkpt>
      <trkpt lat="56.272676987573504" lon="-4.919624039903283">
        <ele>4.46</ele>
        <time>2023-09-01T09:52:35Z</time>
      </trkpt>
      <trkpt lat="56.272611021995544" lon="-4.919308964163065">
        <ele>4.46</ele>
        <time>2023-09-01T09:52:36Z</time>
      </trkpt>
      <trkpt lat="56.27251798287034" lon="-4.919020039960742">
        <ele>4.46</ele>
        <time>2023-09-01T09:52:37Z</time>
      </trkpt>
      <trkpt lat="56.272414969280362" lon="-4.918735977262259">
        <ele>4.94</ele>
        <time>2023-09-01T09:52:38Z</time>
      </trkpt>
      <trkpt lat="56.272286977618933" lon="-4.918494997546077">
        <ele>4.94</ele>
        <time>2023-09-01T09:52:39Z</time>
      </trkpt>
      <trkpt lat="56.27215001732111" lon="-4.918253012001514">
        <ele>4.94</ele>
        <time>2023-09-01T09:52:40Z</time>
      </trkpt>
      <trkpt lat="56.271990006789565" lon="-4.918065005913377">
        <ele>5.42</ele>
        <time>2023-09-01T09:52:41Z</time>
      </trkpt>
      <trkpt lat="56.271814992651343" lon="-4.917879011482">
        <ele>5.91</ele>
        <time>2023-09-01T09:52:42Z</time>
      </trkpt>
      <trkpt lat="56.271622963249683" lon="-4.917762000113726">
        <ele>5.91</ele>
        <time>2023-09-01T09:52:43Z</time>
      </trkpt>
      <trkpt lat="56.271416014060378" lon="-4.917674995958805">
        <ele>6.39</ele>
        <time>2023-09-01T09:52:44Z</time>
      </trkpt>
      <trkpt lat="56.271213004365563" lon="-4.917588997632265">
        <ele>6.39</ele>
        <time>2023-09-01T09:52:45Z</time>
      </trkpt>
      <trkpt lat="56.27101200632751" lon="-4.917607018724084">
        <ele>6.39</ele>
        <time>2023-09-01T09:52:46Z</time>
      </trkpt>
      <trkpt lat="56.27079701051116" lon="-4.917634008452296">
        <ele>6.39</ele>
        <time>2023-09-01T09:52:47Z</time>
      </trkpt>
      <trkpt lat="56.270591989159584" lon="-4.917703997343779">
        <ele>6.39</ele>
        <time>2023-09-01T09:52:48Z</time>
      </trkpt>
      <trkpt lat="56.270383028313518" lon="-4.917829977348447">
        <ele>5.91</ele>
        <time>2023-09-01T09:52:49Z</time>
      </trkpt>
      <trkpt lat="56.270197033882141" lon="-4.918028963729739">
        <ele>5.91</ele>
        <time>2023-09-01T09:52:50Z</time>
      </trkpt>
      <trkpt lat="56.270005004480481" lon="-4.918247982859612">
        <ele>5.91</ele>
        <time>2023-09-01T09:52:51Z</time>
      </trkpt>
      <trkpt lat="56.269814986735582" lon="-4.918508995324373">
        <ele>5.91</ele>
        <time>2023-09-01T09:52:52Z</time>
      </trkpt>
      <trkpt lat="56.268129972741008" lon="-4.920875038951635">
        <ele>6.39</ele>
        <time>2023-09-01T09:53:01Z</time>
      </trkpt>
      <trkpt lat="56.265951013192534" lon="-4.923963015899062">
        <ele>6.87</ele>
        <time>2023-09-01T09:53:13Z</time>
      </trkpt>
      <trkpt lat="56.264231968671083" lon="-4.926619995385408">
        <ele>6.39</ele>
        <time>2023-09-01T09:53:24Z</time>
      </trkpt>
      <trkpt lat="56.26224503852427" lon="-4.929288038983941">
        <ele>6.87</ele>
        <time>2023-09-01T09:53:37Z</time>
      </trkpt>
      <trkpt lat="56.260895971208811" lon="-4.931100038811564">
        <ele>6.39</ele>
        <time>2023-09-01T09:53:47Z</time>
      </trkpt>
      <trkpt lat="56.259584035724401" lon="-4.932859987020493">
        <ele>8.789999999999999</ele>
        <time>2023-09-01T09:53:59Z</time>
      </trkpt>
      <trkpt lat="56.259114984422922" lon="-4.933532970026135">
        <ele>9.27</ele>
        <time>2023-09-01T09:54:05Z</time>
      </trkpt>
      <trkpt lat="56.258971989154816" lon="-4.933727011084557">
        <ele>9.27</ele>
        <time>2023-09-01T09:54:08Z</time>
      </trkpt>
      <trkpt lat="56.258935024961829" lon="-4.93377797305584">
        <ele>8.789999999999999</ele>
        <time>2023-09-01T09:54:09Z</time>
      </trkpt>
      <trkpt lat="56.258759004995227" lon="-4.934015013277531">
        <ele>7.83</ele>
        <time>2023-09-01T09:54:15Z</time>
      </trkpt>
      <trkpt lat="56.258720029145479" lon="-4.934067986905575">
        <ele>7.83</ele>
        <time>2023-09-01T09:54:16Z</time>
      </trkpt>
      <trkpt lat="56.258677029982209" lon="-4.934126995503902">
        <ele>7.83</ele>
        <time>2023-09-01T09:54:17Z</time>
      </trkpt>
      <trkpt lat="56.258395984768867" lon="-4.9345070309937">
        <ele>7.35</ele>
        <time>2023-09-01T09:54:22Z</time>
      </trkpt>
      <trkpt lat="56.258267993107438" lon="-4.934680033475161">
        <ele>7.35</ele>
        <time>2023-09-01T09:54:24Z</time>
      </trkpt>
      <trkpt lat="56.258204039186239" lon="-4.934767037630081">
        <ele>7.35</ele>
        <time>2023-09-01T09:54:25Z</time>
      </trkpt>
      <trkpt lat="56.25814201310277" lon="-4.934850018471479">
        <ele>7.35</ele>
        <time>2023-09-01T09:54:26Z</time>
      </trkpt>
      <trkpt lat="56.258081998676062" lon="-4.934931993484497">
        <ele>7.83</ele>
        <time>2023-09-01T09:54:27Z</time>
      </trkpt>
      <trkpt lat="56.258017038926482" lon="-4.935018997639418">
        <ele>8.310000000000001</ele>
        <time>2023-09-01T09:54:28Z</time>
      </trkpt>
      <trkpt lat="56.257946966215968" lon="-4.935114970430732">
        <ele>8.310000000000001</ele>
        <time>2023-09-01T09:54:29Z</time>
      </trkpt>
      <trkpt lat="56.257871026173234" lon="-4.93521798402071">
        <ele>8.789999999999999</ele>
        <time>2023-09-01T09:54:30Z</time>
      </trkpt>
      <trkpt lat="56.256984975188971" lon="-4.936417015269399">
        <ele>5.91</ele>
        <time>2023-09-01T09:54:41Z</time>
      </trkpt>
      <trkpt lat="56.256134966388345" lon="-4.937535999342799">
        <ele>5.42</ele>
        <time>2023-09-01T09:54:52Z</time>
      </trkpt>
      <trkpt lat="56.255174987018108" lon="-4.93861198425293">
        <ele>5.91</ele>
        <time>2023-09-01T09:55:04Z</time>
      </trkpt>
      <trkpt lat="56.254868041723967" lon="-4.9389139842242">
        <ele>5.91</ele>
        <time>2023-09-01T09:55:08Z</time>
      </trkpt>
      <trkpt lat="56.254711970686913" lon="-4.939026972278953">
        <ele>6.39</ele>
        <time>2023-09-01T09:55:10Z</time>
      </trkpt>
      <trkpt lat="56.254633013159037" lon="-4.939044993370771">
        <ele>6.39</ele>
        <time>2023-09-01T09:55:11Z</time>
      </trkpt>
      <trkpt lat="56.25455598346889" lon="-4.93906301446259">
        <ele>6.87</ele>
        <time>2023-09-01T09:55:12Z</time>
      </trkpt>
      <trkpt lat="56.254487000405788" lon="-4.939079023897648">
        <ele>6.87</ele>
        <time>2023-09-01T09:55:13Z</time>
      </trkpt>
      <trkpt lat="56.254427991807461" lon="-4.939093021675944">
        <ele>6.87</ele>
        <time>2023-09-01T09:55:14Z</time>
      </trkpt>
      <trkpt lat="56.254379041492939" lon="-4.939104001969099">
        <ele>7.35</ele>
        <time>2023-09-01T09:55:15Z</time>
      </trkpt>
      <trkpt lat="56.254330007359385" lon="-4.939115988090634">
        <ele>7.35</ele>
        <time>2023-09-01T09:55:16Z</time>
      </trkpt>
      <trkpt lat="56.254196986556053" lon="-4.939147001132369">
        <ele>7.83</ele>
        <time>2023-09-01T09:55:18Z</time>
      </trkpt>
      <trkpt lat="56.25412498600781" lon="-4.939164016395807">
        <ele>7.83</ele>
        <time>2023-09-01T09:55:19Z</time>
      </trkpt>
      <trkpt lat="56.253473041579127" lon="-4.939476996660233">
        <ele>9.75</ele>
        <time>2023-09-01T09:55:27Z</time>
      </trkpt>
      <trkpt lat="56.25341503880918" lon="-4.939504992216826">
        <ele>9.75</ele>
        <time>2023-09-01T09:55:28Z</time>
      </trkpt>
      <trkpt lat="56.253364998847246" lon="-4.939528964459896">
        <ele>10.23</ele>
        <time>2023-09-01T09:55:29Z</time>
      </trkpt>
      <trkpt lat="56.253283023834229" lon="-4.939570035785437">
        <ele>10.710000000000001</ele>
        <time>2023-09-01T09:55:32Z</time>
      </trkpt>
      <trkpt lat="56.253283023834229" lon="-4.939570035785437">
        <ele>11.67</ele>
        <time>2023-09-01T09:55:48Z</time>
      </trkpt>
      <trkpt lat="56.253173975273967" lon="-4.939920986071229">
        <ele>-18.609999999999999</ele>
        <time>2023-09-01T10:03:45Z</time>
      </trkpt>
      <trkpt lat="56.253218986093998" lon="-4.939724011346698">
        <ele>9.27</ele>
        <time>2023-09-01T10:04:03Z</time>
      </trkpt>
      <trkpt lat="56.253185961395502" lon="-4.939616974443197">
        <ele>9.27</ele>
        <time>2023-09-01T10:04:04Z</time>
      </trkpt>
      <trkpt lat="56.252892008051276" lon="-4.939657039940357">
        <ele>10.710000000000001</ele>
        <time>2023-09-01T10:04:10Z</time>
      </trkpt>
      <trkpt lat="56.252832999452949" lon="-4.939645975828171">
        <ele>10.23</ele>
        <time>2023-09-01T10:04:11Z</time>
      </trkpt>
      <trkpt lat="56.252619009464979" lon="-4.939530976116657">
        <ele>9.27</ele>
        <time>2023-09-01T10:04:15Z</time>
      </trkpt>
      <trkpt lat="56.252568969503045" lon="-4.939501974731684">
        <ele>9.27</ele>
        <time>2023-09-01T10:04:16Z</time>
      </trkpt>
      <trkpt lat="56.252351040020585" lon="-4.939375994727016">
        <ele>10.23</ele>
        <time>2023-09-01T10:04:21Z</time>
      </trkpt>
      <trkpt lat="56.252252971753478" lon="-4.939318997785449">
        <ele>10.23</ele>
        <time>2023-09-01T10:04:23Z</time>
      </trkpt>
      <trkpt lat="56.252187006175518" lon="-4.939281027764082">
        <ele>10.710000000000001</ele>
        <time>2023-09-01T10:04:24Z</time>
      </trkpt>
      <trkpt lat="56.251995982602239" lon="-4.939169967547059">
        <ele>13.119999999999999</ele>
        <time>2023-09-01T10:04:28Z</time>
      </trkpt>
      <trkpt lat="56.251821974292397" lon="-4.939169967547059">
        <ele>13.6</ele>
        <time>2023-09-01T10:04:30Z</time>
      </trkpt>
      <trkpt lat="56.251749973744154" lon="-4.939169967547059">
        <ele>14.08</ele>
        <time>2023-09-01T10:04:31Z</time>
      </trkpt>
      <trkpt lat="56.251679984852672" lon="-4.939169967547059">
        <ele>14.56</ele>
        <time>2023-09-01T10:04:32Z</time>
      </trkpt>
      <trkpt lat="56.251613013446331" lon="-4.939169967547059">
        <ele>15.039999999999999</ele>
        <time>2023-09-01T10:04:33Z</time>
      </trkpt>
      <trkpt lat="56.251551993191242" lon="-4.939169967547059">
        <ele>15.039999999999999</ele>
        <time>2023-09-01T10:04:34Z</time>
      </trkpt>
      <trkpt lat="56.251489967107773" lon="-4.939169967547059">
        <ele>15.039999999999999</ele>
        <time>2023-09-01T10:04:35Z</time>
      </trkpt>
      <trkpt lat="56.25131000764668" lon="-4.939169967547059">
        <ele>15.039999999999999</ele>
        <time>2023-09-01T10:04:40Z</time>
      </trkpt>
      <trkpt lat="56.251195007935166" lon="-4.939223024994135">
        <ele>15.039999999999999</ele>
        <time>2023-09-01T10:04:41Z</time>
      </trkpt>
      <trkpt lat="56.251030974090099" lon="-4.939298965036869">
        <ele>15.52</ele>
        <time>2023-09-01T10:04:43Z</time>
      </trkpt>
      <trkpt lat="56.250918991863728" lon="-4.939415976405144">
        <ele>16.960000000000001</ele>
        <time>2023-09-01T10:04:45Z</time>
      </trkpt>
      <trkpt lat="56.250854032114148" lon="-4.939484959468246">
        <ele>17.440000000000001</ele>
        <time>2023-09-01T10:04:46Z</time>
      </trkpt>
      <trkpt lat="56.250789994373918" lon="-4.939553020521998">
        <ele>18.399999999999999</ele>
        <time>2023-09-01T10:04:47Z</time>
      </trkpt>
      <trkpt lat="56.250727968290448" lon="-4.939617980271578">
        <ele>19.359999999999999</ele>
        <time>2023-09-01T10:04:48Z</time>
      </trkpt>
      <trkpt lat="56.250658985227346" lon="-4.939690986648202">
        <ele>19.84</ele>
        <time>2023-09-01T10:04:49Z</time>
      </trkpt>
      <trkpt lat="56.250582961365581" lon="-4.93977103382349">
        <ele>20.809999999999999</ele>
        <time>2023-09-01T10:04:50Z</time>
      </trkpt>
      <trkpt lat="56.250291019678116" lon="-4.940078984946013">
        <ele>24.649999999999999</ele>
        <time>2023-09-01T10:04:54Z</time>
      </trkpt>
      <trkpt lat="56.250204015523195" lon="-4.940091976895928">
        <ele>26.57</ele>
        <time>2023-09-01T10:04:55Z</time>
      </trkpt>
      <trkpt lat="56.250150036066771" lon="-4.940069010481238">
        <ele>27.530000000000001</ele>
        <time>2023-09-01T10:04:56Z</time>
      </trkpt>
      <trkpt lat="56.250084992498159" lon="-4.940042020753026">
        <ele>28.5</ele>
        <time>2023-09-01T10:04:57Z</time>
      </trkpt>
      <trkpt lat="56.250026989728212" lon="-4.940017964690924">
        <ele>29.460000000000001</ele>
        <time>2023-09-01T10:04:58Z</time>
      </trkpt>
      <trkpt lat="56.250001005828381" lon="-4.940006984397769">
        <ele>29.940000000000001</ele>
        <time>2023-09-01T10:04:59Z</time>
      </trkpt>
      <trkpt lat="56.249947026371956" lon="-4.939919980242848">
        <ele>30.899999999999999</ele>
        <time>2023-09-01T10:05:00Z</time>
      </trkpt>
      <trkpt lat="56.249912995845079" lon="-4.939863989129663">
        <ele>32.340000000000003</ele>
        <time>2023-09-01T10:05:01Z</time>
      </trkpt>
      <trkpt lat="56.24987100251019" lon="-4.939795006066561">
        <ele>33.780000000000001</ele>
        <time>2023-09-01T10:05:02Z</time>
      </trkpt>
      <trkpt lat="56.249817023053765" lon="-4.93970800191164">
        <ele>34.740000000000002</ele>
        <time>2023-09-01T10:05:03Z</time>
      </trkpt>
      <trkpt lat="56.249754996970296" lon="-4.939605994150043">
        <ele>36.189999999999998</ele>
        <time>2023-09-01T10:05:04Z</time>
      </trkpt>
      <trkpt lat="56.249687019735575" lon="-4.939496023580432">
        <ele>36.670000000000002</ele>
        <time>2023-09-01T10:05:05Z</time>
      </trkpt>
      <trkpt lat="56.249618036672473" lon="-4.93938303552568">
        <ele>37.630000000000003</ele>
        <time>2023-09-01T10:05:06Z</time>
      </trkpt>
      <trkpt lat="56.249546958133578" lon="-4.939268035814166">
        <ele>38.109999999999999</ele>
        <time>2023-09-01T10:05:07Z</time>
      </trkpt>
      <trkpt lat="56.249479986727238" lon="-4.939157981425524">
        <ele>38.590000000000003</ele>
        <time>2023-09-01T10:05:08Z</time>
      </trkpt>
      <trkpt lat="56.24942097812891" lon="-4.93906301446259">
        <ele>39.07</ele>
        <time>2023-09-01T10:05:09Z</time>
      </trkpt>
      <trkpt lat="56.249399017542601" lon="-4.938990008085966">
        <ele>39.549999999999997</ele>
        <time>2023-09-01T10:05:10Z</time>
      </trkpt>
      <trkpt lat="56.249366998672485" lon="-4.938889006152749">
        <ele>40.030000000000001</ele>
        <time>2023-09-01T10:05:11Z</time>
      </trkpt>
      <trkpt lat="56.249337997287512" lon="-4.938795967027545">
        <ele>40.509999999999998</ele>
        <time>2023-09-01T10:05:12Z</time>
      </trkpt>
      <trkpt lat="56.249314025044441" lon="-4.93871902115643">
        <ele>40.990000000000002</ele>
        <time>2023-09-01T10:05:13Z</time>
      </trkpt>
      <trkpt lat="56.249302960932255" lon="-4.938636040315032">
        <ele>41.469999999999999</ele>
        <time>2023-09-01T10:05:14Z</time>
      </trkpt>
      <trkpt lat="56.249288041144609" lon="-4.938533026725054">
        <ele>41.950000000000003</ele>
        <time>2023-09-01T10:05:15Z</time>
      </trkpt>
      <trkpt lat="56.249229032546282" lon="-4.938055006787181">
        <ele>43.399999999999999</ele>
        <time>2023-09-01T10:05:19Z</time>
      </trkpt>
      <trkpt lat="56.249230960384011" lon="-4.93792399764061">
        <ele>43.880000000000003</ele>
        <time>2023-09-01T10:05:20Z</time>
      </trkpt>
      <trkpt lat="56.249234983697534" lon="-4.937656028196216">
        <ele>44.359999999999999</ele>
        <time>2023-09-01T10:05:22Z</time>
      </trkpt>
      <trkpt lat="56.249245963990688" lon="-4.936887994408608">
        <ele>43.880000000000003</ele>
        <time>2023-09-01T10:05:28Z</time>
      </trkpt>
      <trkpt lat="56.249246969819069" lon="-4.936778023838997">
        <ele>43.399999999999999</ele>
        <time>2023-09-01T10:05:29Z</time>
      </trkpt>
      <trkpt lat="56.24924898147583" lon="-4.936661012470722">
        <ele>42.920000000000002</ele>
        <time>2023-09-01T10:05:30Z</time>
      </trkpt>
      <trkpt lat="56.249249987304211" lon="-4.936616001650691">
        <ele>42.439999999999998</ele>
        <time>2023-09-01T10:05:31Z</time>
      </trkpt>
      <trkpt lat="56.249204976484179" lon="-4.936452973634005">
        <ele>41.950000000000003</ele>
        <time>2023-09-01T10:05:32Z</time>
      </trkpt>
      <trkpt lat="56.249175975099206" lon="-4.936346020549536">
        <ele>40.990000000000002</ele>
        <time>2023-09-01T10:05:33Z</time>
      </trkpt>
      <trkpt lat="56.249146973714232" lon="-4.936235966160893">
        <ele>40.509999999999998</ele>
        <time>2023-09-01T10:05:34Z</time>
      </trkpt>
      <trkpt lat="56.249116966500878" lon="-4.936124989762902">
        <ele>40.030000000000001</ele>
        <time>2023-09-01T10:05:35Z</time>
      </trkpt>
      <trkpt lat="56.249045971781015" lon="-4.935865988954902">
        <ele>40.509999999999998</ele>
        <time>2023-09-01T10:05:39Z</time>
      </trkpt>
      <trkpt lat="56.249014036729932" lon="-4.935745038092136">
        <ele>42.920000000000002</ele>
        <time>2023-09-01T10:05:51Z</time>
      </trkpt>
      <trkpt lat="56.248960979282856" lon="-4.935461981222034">
        <ele>44.359999999999999</ele>
        <time>2023-09-01T10:05:53Z</time>
      </trkpt>
      <trkpt lat="56.248942958191037" lon="-4.935283027589321">
        <ele>44.840000000000003</ele>
        <time>2023-09-01T10:05:54Z</time>
      </trkpt>
      <trkpt lat="56.248569041490555" lon="-4.93371200747788">
        <ele>43.880000000000003</ele>
        <time>2023-09-01T10:06:00Z</time>
      </trkpt>
      <trkpt lat="56.248232005164027" lon="-4.931024014949799">
        <ele>44.359999999999999</ele>
        <time>2023-09-01T10:06:09Z</time>
      </trkpt>
      <trkpt lat="56.247782986611128" lon="-4.927087035030127">
        <ele>44.840000000000003</ele>
        <time>2023-09-01T10:06:22Z</time>
      </trkpt>
      <trkpt lat="56.247331034392118" lon="-4.923014016821981">
        <ele>45.799999999999997</ele>
        <time>2023-09-01T10:06:35Z</time>
      </trkpt>
      <trkpt lat="56.24718401581049" lon="-4.921696968376637">
        <ele>47.719999999999999</ele>
        <time>2023-09-01T10:06:42Z</time>
      </trkpt>
      <trkpt lat="56.247171023860574" lon="-4.921580962836742">
        <ele>47.719999999999999</ele>
        <time>2023-09-01T10:06:43Z</time>
      </trkpt>
      <trkpt lat="56.247159959748387" lon="-4.921480966731906">
        <ele>48.200000000000003</ele>
        <time>2023-09-01T10:06:44Z</time>
      </trkpt>
      <trkpt lat="56.247110003605485" lon="-4.9211669806391">
        <ele>48.200000000000003</ele>
        <time>2023-09-01T10:06:45Z</time>
      </trkpt>
      <trkpt lat="56.247043032199144" lon="-4.9211669806391">
        <ele>49.649999999999999</ele>
        <time>2023-09-01T10:06:46Z</time>
      </trkpt>
      <trkpt lat="56.246958961710334" lon="-4.9211669806391">
        <ele>51.57</ele>
        <time>2023-09-01T10:06:47Z</time>
      </trkpt>
      <trkpt lat="56.246857037767768" lon="-4.9211860075593">
        <ele>52.530000000000001</ele>
        <time>2023-09-01T10:06:48Z</time>
      </trkpt>
      <trkpt lat="56.24675796367228" lon="-4.92120997980237">
        <ele>53.009999999999998</ele>
        <time>2023-09-01T10:06:49Z</time>
      </trkpt>
      <trkpt lat="56.246416987851262" lon="-4.921446014195681">
        <ele>54.93</ele>
        <time>2023-09-01T10:06:52Z</time>
      </trkpt>
      <trkpt lat="56.2462820392102" lon="-4.921642988920212">
        <ele>55.409999999999997</ele>
        <time>2023-09-01T10:06:53Z</time>
      </trkpt>
      <trkpt lat="56.246181037276983" lon="-4.92178900167346">
        <ele>55.409999999999997</ele>
        <time>2023-09-01T10:06:54Z</time>
      </trkpt>
      <trkpt lat="56.246095960959792" lon="-4.922023024410009">
        <ele>55.409999999999997</ele>
        <time>2023-09-01T10:06:55Z</time>
      </trkpt>
      <trkpt lat="56.246013985946774" lon="-4.922249000519514">
        <ele>54.93</ele>
        <time>2023-09-01T10:06:56Z</time>
      </trkpt>
      <trkpt lat="56.245962018147111" lon="-4.922500038519502">
        <ele>54.93</ele>
        <time>2023-09-01T10:06:57Z</time>
      </trkpt>
      <trkpt lat="56.245908960700035" lon="-4.922763984650374">
        <ele>54.93</ele>
        <time>2023-09-01T10:06:58Z</time>
      </trkpt>
      <trkpt lat="56.245893035084009" lon="-4.923046035692096">
        <ele>54.450000000000003</ele>
        <time>2023-09-01T10:06:59Z</time>
      </trkpt>
      <trkpt lat="56.246052961796522" lon="-4.925275035202503">
        <ele>51.090000000000003</ele>
        <time>2023-09-01T10:07:06Z</time>
      </trkpt>
      <trkpt lat="56.246245997026563" lon="-4.927944000810385">
        <ele>45.799999999999997</ele>
        <time>2023-09-01T10:07:14Z</time>
      </trkpt>
      <trkpt lat="56.246308023110032" lon="-4.929658016189933">
        <ele>41.950000000000003</ele>
        <time>2023-09-01T10:07:19Z</time>
      </trkpt>
      <trkpt lat="56.246385974809527" lon="-4.932390013709664">
        <ele>32.82</ele>
        <time>2023-09-01T10:07:27Z</time>
      </trkpt>
      <trkpt lat="56.246420005336404" lon="-4.933613017201424">
        <ele>27.530000000000001</ele>
        <time>2023-09-01T10:07:32Z</time>
      </trkpt>
      <trkpt lat="56.246426962316036" lon="-4.933891966938973">
        <ele>22.25</ele>
        <time>2023-09-01T10:07:37Z</time>
      </trkpt>
      <trkpt lat="56.246427968144417" lon="-4.933899007737637">
        <ele>21.77</ele>
        <time>2023-09-01T10:07:38Z</time>
      </trkpt>
      <trkpt lat="56.246427968144417" lon="-4.933899007737637">
        <ele>19.359999999999999</ele>
        <time>2023-09-01T10:07:49Z</time>
      </trkpt>
      <trkpt lat="56.246427968144417" lon="-4.933899007737637">
        <ele>18.879999999999999</ele>
        <time>2023-09-01T10:08:30Z</time>
      </trkpt>
      <trkpt lat="56.24643299728632" lon="-4.934093970805407">
        <ele>18.399999999999999</ele>
        <time>2023-09-01T10:08:40Z</time>
      </trkpt>
      <trkpt lat="56.246436014771461" lon="-4.934203019365668">
        <ele>18.399999999999999</ele>
        <time>2023-09-01T10:08:41Z</time>
      </trkpt>
      <trkpt lat="56.246440038084984" lon="-4.934345008805394">
        <ele>18.879999999999999</ele>
        <time>2023-09-01T10:08:42Z</time>
      </trkpt>
      <trkpt lat="56.246472978964448" lon="-4.935605982318521">
        <ele>19.359999999999999</ele>
        <time>2023-09-01T10:08:47Z</time>
      </trkpt>
      <trkpt lat="56.24654196202755" lon="-4.938206970691681">
        <ele>18.879999999999999</ele>
        <time>2023-09-01T10:08:56Z</time>
      </trkpt>
      <trkpt lat="56.246502986177802" lon="-4.93962099775672">
        <ele>19.84</ele>
        <time>2023-09-01T10:09:01Z</time>
      </trkpt>
      <trkpt lat="56.246452024206519" lon="-4.940160037949681">
        <ele>19.84</ele>
        <time>2023-09-01T10:09:03Z</time>
      </trkpt>
      <trkpt lat="56.245812987908721" lon="-4.942861022427678">
        <ele>22.25</ele>
        <time>2023-09-01T10:09:12Z</time>
      </trkpt>
      <trkpt lat="56.24478000216186" lon="-4.945571981370449">
        <ele>23.690000000000001</ele>
        <time>2023-09-01T10:09:22Z</time>
      </trkpt>
      <trkpt lat="56.243831003084779" lon="-4.948047995567322">
        <ele>20.809999999999999</ele>
        <time>2023-09-01T10:09:31Z</time>
      </trkpt>
      <trkpt lat="56.242643035948277" lon="-4.951149970293045">
        <ele>14.08</ele>
        <time>2023-09-01T10:09:42Z</time>
      </trkpt>
      <trkpt lat="56.241612983867526" lon="-4.953572005033493">
        <ele>7.35</ele>
        <time>2023-09-01T10:09:51Z</time>
      </trkpt>
      <trkpt lat="56.239868039265275" lon="-4.957296000793576">
        <ele>-0.82</ele>
        <time>2023-09-01T10:10:05Z</time>
      </trkpt>
      <trkpt lat="56.238093003630638" lon="-4.961224012076855">
        <ele>6.39</ele>
        <time>2023-09-01T10:10:19Z</time>
      </trkpt>
      <trkpt lat="56.236486025154591" lon="-4.965108018368483">
        <ele>15.52</ele>
        <time>2023-09-01T10:10:32Z</time>
      </trkpt>
      <trkpt lat="56.235276013612747" lon="-4.969036029651761">
        <ele>20.809999999999999</ele>
        <time>2023-09-01T10:10:44Z</time>
      </trkpt>
      <trkpt lat="56.234210003167391" lon="-4.971341975033283">
        <ele>24.170000000000002</ele>
        <time>2023-09-01T10:10:52Z</time>
      </trkpt>
      <trkpt lat="56.232821037992835" lon="-4.973251959308982">
        <ele>49.649999999999999</ele>
        <time>2023-09-01T10:11:01Z</time>
      </trkpt>
      <trkpt lat="56.231181034818292" lon="-4.974687024950981">
        <ele>68.870000000000005</ele>
        <time>2023-09-01T10:11:11Z</time>
      </trkpt>
      <trkpt lat="56.230079988017678" lon="-4.976102979853749">
        <ele>69.349999999999994</ele>
        <time>2023-09-01T10:11:18Z</time>
      </trkpt>
      <trkpt lat="56.229101987555623" lon="-4.978051017969847">
        <ele>69.829999999999998</ele>
        <time>2023-09-01T10:11:25Z</time>
      </trkpt>
      <trkpt lat="56.227775970473886" lon="-4.980805981904268">
        <ele>65.510000000000005</ele>
        <time>2023-09-01T10:11:35Z</time>
      </trkpt>
      <trkpt lat="56.226752959191799" lon="-4.983049985021353">
        <ele>60.700000000000003</ele>
        <time>2023-09-01T10:11:43Z</time>
      </trkpt>
      <trkpt lat="56.226467974483967" lon="-4.984028991311789">
        <ele>58.780000000000001</ele>
        <time>2023-09-01T10:11:46Z</time>
      </trkpt>
      <trkpt lat="56.226265970617533" lon="-4.985832022503018">
        <ele>56.859999999999999</ele>
        <time>2023-09-01T10:11:51Z</time>
      </trkpt>
      <trkpt lat="56.226252978667617" lon="-4.98617802746594">
        <ele>56.369999999999997</ele>
        <time>2023-09-01T10:11:52Z</time>
      </trkpt>
      <trkpt lat="56.22649303637445" lon="-4.988395962864161">
        <ele>53.009999999999998</ele>
        <time>2023-09-01T10:11:59Z</time>
      </trkpt>
      <trkpt lat="56.22655900195241" lon="-4.988700980320573">
        <ele>52.530000000000001</ele>
        <time>2023-09-01T10:12:00Z</time>
      </trkpt>
      <trkpt lat="56.226627985015512" lon="-4.989013960584998">
        <ele>52.049999999999997</ele>
        <time>2023-09-01T10:12:01Z</time>
      </trkpt>
      <trkpt lat="56.226696968078613" lon="-4.989334987476468">
        <ele>51.57</ele>
        <time>2023-09-01T10:12:02Z</time>
      </trkpt>
      <trkpt lat="56.226768968626857" lon="-4.989664983004332">
        <ele>50.609999999999999</ele>
        <time>2023-09-01T10:12:03Z</time>
      </trkpt>
      <trkpt lat="56.227499032393098" lon="-4.992834012955427">
        <ele>40.030000000000001</ele>
        <time>2023-09-01T10:12:12Z</time>
      </trkpt>
      <trkpt lat="56.227576984092593" lon="-4.993114974349737">
        <ele>38.590000000000003</ele>
        <time>2023-09-01T10:12:13Z</time>
      </trkpt>
      <trkpt lat="56.228005969896913" lon="-4.993977975100279">
        <ele>34.740000000000002</ele>
        <time>2023-09-01T10:12:16Z</time>
      </trkpt>
      <trkpt lat="56.228846004232764" lon="-4.995552012696862">
        <ele>26.57</ele>
        <time>2023-09-01T10:12:23Z</time>
      </trkpt>
      <trkpt lat="56.229328969493508" lon="-4.996849028393626">
        <ele>24.649999999999999</ele>
        <time>2023-09-01T10:12:28Z</time>
      </trkpt>
      <trkpt lat="56.229432988911867" lon="-4.997813031077385">
        <ele>24.649999999999999</ele>
        <time>2023-09-01T10:12:31Z</time>
      </trkpt>
      <trkpt lat="56.229450004175305" lon="-4.998154006898403">
        <ele>24.649999999999999</ele>
        <time>2023-09-01T10:12:32Z</time>
      </trkpt>
      <trkpt lat="56.229464001953602" lon="-4.998503029346466">
        <ele>24.170000000000002</ele>
        <time>2023-09-01T10:12:33Z</time>
      </trkpt>
      <trkpt lat="56.229261998087168" lon="-5.001818994060159">
        <ele>19.84</ele>
        <time>2023-09-01T10:12:42Z</time>
      </trkpt>
      <trkpt lat="56.229031998664141" lon="-5.00558003783226">
        <ele>16.48</ele>
        <time>2023-09-01T10:12:52Z</time>
      </trkpt>
      <trkpt lat="56.228712983429432" lon="-5.008124029263854">
        <ele>16.48</ele>
        <time>2023-09-01T10:12:59Z</time>
      </trkpt>
      <trkpt lat="56.22866302728653" lon="-5.008501969277859">
        <ele>16</ele>
        <time>2023-09-01T10:13:00Z</time>
      </trkpt>
      <trkpt lat="56.22819297015667" lon="-5.011889012530446">
        <ele>9.75</ele>
        <time>2023-09-01T10:13:09Z</time>
      </trkpt>
      <trkpt lat="56.2277199793607" lon="-5.014953017234802">
        <ele>-0.34</ele>
        <time>2023-09-01T10:13:18Z</time>
      </trkpt>
      <trkpt lat="56.227393001317978" lon="-5.017071040347219">
        <ele>-7.55</ele>
        <time>2023-09-01T10:13:25Z</time>
      </trkpt>
      <trkpt lat="56.227019000798464" lon="-5.019070040434599">
        <ele>-13.32</ele>
        <time>2023-09-01T10:13:33Z</time>
      </trkpt>
      <trkpt lat="56.226503010839224" lon="-5.021238019689918">
        <ele>-8.029999999999999</ele>
        <time>2023-09-01T10:13:43Z</time>
      </trkpt>
      <trkpt lat="56.225840002298355" lon="-5.023235008120537">
        <ele>-4.19</ele>
        <time>2023-09-01T10:13:51Z</time>
      </trkpt>
      <trkpt lat="56.225029975175858" lon="-5.025220010429621">
        <ele>-6.59</ele>
        <time>2023-09-01T10:14:00Z</time>
      </trkpt>
      <trkpt lat="56.224408959969878" lon="-5.026984987780452">
        <ele>-8.51</ele>
        <time>2023-09-01T10:14:08Z</time>
      </trkpt>
      <trkpt lat="56.224046023562551" lon="-5.02818301320076">
        <ele>-9.960000000000001</ele>
        <time>2023-09-01T10:14:13Z</time>
      </trkpt>
      <trkpt lat="56.223975028842688" lon="-5.028416030108929">
        <ele>-10.44</ele>
        <time>2023-09-01T10:14:14Z</time>
      </trkpt>
      <trkpt lat="56.223340015858412" lon="-5.030508991330862">
        <ele>-10.44</ele>
        <time>2023-09-01T10:14:23Z</time>
      </trkpt>
      <trkpt lat="56.222796030342579" lon="-5.032118987292051">
        <ele>-7.55</ele>
        <time>2023-09-01T10:14:30Z</time>
      </trkpt>
      <trkpt lat="56.222697040066123" lon="-5.032343035563827">
        <ele>-6.59</ele>
        <time>2023-09-01T10:14:31Z</time>
      </trkpt>
      <trkpt lat="56.222573993727565" lon="-5.032548978924751">
        <ele>-6.11</ele>
        <time>2023-09-01T10:14:32Z</time>
      </trkpt>
      <trkpt lat="56.222436027601361" lon="-5.032713012769818">
        <ele>-5.63</ele>
        <time>2023-09-01T10:14:33Z</time>
      </trkpt>
      <trkpt lat="56.222294960170984" lon="-5.032880986109376">
        <ele>-5.15</ele>
        <time>2023-09-01T10:14:34Z</time>
      </trkpt>
      <trkpt lat="56.221297010779381" lon="-5.034361984580755">
        <ele>-0.34</ele>
        <time>2023-09-01T10:14:42Z</time>
      </trkpt>
      <trkpt lat="56.220618998631835" lon="-5.035708034411073">
        <ele>1.1</ele>
        <time>2023-09-01T10:14:49Z</time>
      </trkpt>
      <trkpt lat="56.219690032303333" lon="-5.037433030083776">
        <ele>0.62</ele>
        <time>2023-09-01T10:14:58Z</time>
      </trkpt>
      <trkpt lat="56.218916969373822" lon="-5.038639018312097">
        <ele>4.46</ele>
        <time>2023-09-01T10:15:05Z</time>
      </trkpt>
      <trkpt lat="56.218819990754128" lon="-5.038826018571854">
        <ele>4.46</ele>
        <time>2023-09-01T10:15:06Z</time>
      </trkpt>
      <trkpt lat="56.218111971393228" lon="-5.040457975119352">
        <ele>4.94</ele>
        <time>2023-09-01T10:15:14Z</time>
      </trkpt>
      <trkpt lat="56.217189040035009" lon="-5.041856998577714">
        <ele>6.87</ele>
        <time>2023-09-01T10:15:22Z</time>
      </trkpt>
      <trkpt lat="56.216043988242745" lon="-5.043475963175297">
        <ele>6.39</ele>
        <time>2023-09-01T10:15:30Z</time>
      </trkpt>
      <trkpt lat="56.214874964207411" lon="-5.045684007927775">
        <ele>7.35</ele>
        <time>2023-09-01T10:15:39Z</time>
      </trkpt>
      <trkpt lat="56.213764026761055" lon="-5.047527020797133">
        <ele>3.5</ele>
        <time>2023-09-01T10:15:47Z</time>
      </trkpt>
      <trkpt lat="56.212762976065278" lon="-5.049660969525576">
        <ele>4.94</ele>
        <time>2023-09-01T10:15:55Z</time>
      </trkpt>
      <trkpt lat="56.211839960888028" lon="-5.052041010931134">
        <ele>-0.34</ele>
        <time>2023-09-01T10:16:03Z</time>
      </trkpt>
      <trkpt lat="56.210849974304438" lon="-5.054105976596475">
        <ele>-4.19</ele>
        <time>2023-09-01T10:16:10Z</time>
      </trkpt>
      <trkpt lat="56.209859987720847" lon="-5.056117968633771">
        <ele>-7.55</ele>
        <time>2023-09-01T10:16:17Z</time>
      </trkpt>
      <trkpt lat="56.208646036684513" lon="-5.0578329898417">
        <ele>-12.359999999999999</ele>
        <time>2023-09-01T10:16:24Z</time>
      </trkpt>
      <trkpt lat="56.207349020987749" lon="-5.058772014454007">
        <ele>-15.720000000000001</ele>
        <time>2023-09-01T10:16:31Z</time>
      </trkpt>
      <trkpt lat="56.206968985497952" lon="-5.058891037479043">
        <ele>-16.690000000000001</ele>
        <time>2023-09-01T10:16:33Z</time>
      </trkpt>
      <trkpt lat="56.206797994673252" lon="-5.058916015550494">
        <ele>-17.170000000000002</ele>
        <time>2023-09-01T10:16:34Z</time>
      </trkpt>
      <trkpt lat="56.205735001713037" lon="-5.058869998902082">
        <ele>-13.32</ele>
        <time>2023-09-01T10:16:40Z</time>
      </trkpt>
      <trkpt lat="56.205555964261293" lon="-5.058853989467025">
        <ele>-13.800000000000001</ele>
        <time>2023-09-01T10:16:41Z</time>
      </trkpt>
      <trkpt lat="56.204954981803894" lon="-5.059016011655331">
        <ele>-17.170000000000002</ele>
        <time>2023-09-01T10:16:44Z</time>
      </trkpt>
      <trkpt lat="56.204704027622938" lon="-5.059118019416928">
        <ele>-18.609999999999999</ele>
        <time>2023-09-01T10:16:45Z</time>
      </trkpt>
      <trkpt lat="56.204529013484716" lon="-5.059280963614583">
        <ele>-19.57</ele>
        <time>2023-09-01T10:16:46Z</time>
      </trkpt>
      <trkpt lat="56.204317035153508" lon="-5.059511968865991">
        <ele>-19.57</ele>
        <time>2023-09-01T10:16:47Z</time>
      </trkpt>
      <trkpt lat="56.204144032672048" lon="-5.059759989380837">
        <ele>-20.530000000000001</ele>
        <time>2023-09-01T10:16:48Z</time>
      </trkpt>
      <trkpt lat="56.203052960336208" lon="-5.061576012521982">
        <ele>-24.859999999999999</ele>
        <time>2023-09-01T10:16:55Z</time>
      </trkpt>
      <trkpt lat="56.202768981456757" lon="-5.062055038288236">
        <ele>-25.82</ele>
        <time>2023-09-01T10:16:57Z</time>
      </trkpt>
      <trkpt lat="56.201581014320254" lon="-5.063652964308858">
        <ele>-28.699999999999999</ele>
        <time>2023-09-01T10:17:04Z</time>
      </trkpt>
      <trkpt lat="56.20011099614203" lon="-5.065574012696743">
        <ele>-32.549999999999997</ele>
        <time>2023-09-01T10:17:13Z</time>
      </trkpt>
      <trkpt lat="56.198867037892342" lon="-5.067003965377808">
        <ele>-33.990000000000002</ele>
        <time>2023-09-01T10:17:20Z</time>
      </trkpt>
      <trkpt lat="56.197477988898754" lon="-5.068412963300943">
        <ele>-33.509999999999998</ele>
        <time>2023-09-01T10:17:28Z</time>
      </trkpt>
      <trkpt lat="56.19645900093019" lon="-5.069443015381694">
        <ele>-33.990000000000002</ele>
        <time>2023-09-01T10:17:34Z</time>
      </trkpt>
      <trkpt lat="56.196292033419013" lon="-5.069610988721252">
        <ele>-33.990000000000002</ele>
        <time>2023-09-01T10:17:35Z</time>
      </trkpt>
      <trkpt lat="56.195332976058125" lon="-5.070415986701846">
        <ele>-35.43</ele>
        <time>2023-09-01T10:17:40Z</time>
      </trkpt>
      <trkpt lat="56.194255985319614" lon="-5.071167005226016">
        <ele>-40.719999999999999</ele>
        <time>2023-09-01T10:17:46Z</time>
      </trkpt>
      <trkpt lat="56.192866014316678" lon="-5.072136037051678">
        <ele>-49.369999999999997</ele>
        <time>2023-09-01T10:17:54Z</time>
      </trkpt>
      <trkpt lat="56.190928034484386" lon="-5.073437998071313">
        <ele>-55.619999999999997</ele>
        <time>2023-09-01T10:18:04Z</time>
      </trkpt>
      <trkpt lat="56.189569998532534" lon="-5.074326982721686">
        <ele>-59.460000000000001</ele>
        <time>2023-09-01T10:18:11Z</time>
      </trkpt>
      <trkpt lat="56.187492040917277" lon="-5.075804963707924">
        <ele>-67.150000000000006</ele>
        <time>2023-09-01T10:18:22Z</time>
      </trkpt>
      <trkpt lat="56.185417016968131" lon="-5.077331978827715">
        <ele>-73.400000000000006</ele>
        <time>2023-09-01T10:18:33Z</time>
      </trkpt>
      <trkpt lat="56.183608034625649" lon="-5.078571997582912">
        <ele>-72.920000000000002</ele>
        <time>2023-09-01T10:18:43Z</time>
      </trkpt>
      <trkpt lat="56.181745994836092" lon="-5.079734986647964">
        <ele>-73.879999999999995</ele>
        <time>2023-09-01T10:18:53Z</time>
      </trkpt>
      <trkpt lat="56.179514983668923" lon="-5.080730002373457">
        <ele>-74.359999999999999</ele>
        <time>2023-09-01T10:19:05Z</time>
      </trkpt>
      <trkpt lat="56.178277982398868" lon="-5.081669026985765">
        <ele>-75.329999999999998</ele>
        <time>2023-09-01T10:19:13Z</time>
      </trkpt>
      <trkpt lat="56.176940985023975" lon="-5.082516018301249">
        <ele>-68.599999999999994</ele>
        <time>2023-09-01T10:19:23Z</time>
      </trkpt>
      <trkpt lat="56.175800040364265" lon="-5.083323027938604">
        <ele>-50.329999999999998</ele>
        <time>2023-09-01T10:19:32Z</time>
      </trkpt>
      <trkpt lat="56.17563801817596" lon="-5.083363009616733">
        <ele>-46.009999999999998</ele>
        <time>2023-09-01T10:19:33Z</time>
      </trkpt>
      <trkpt lat="56.175485970452428" lon="-5.0834009796381">
        <ele>-41.200000000000003</ele>
        <time>2023-09-01T10:19:34Z</time>
      </trkpt>
      <trkpt lat="56.175333000719547" lon="-5.083439033478499">
        <ele>-37.350000000000001</ele>
        <time>2023-09-01T10:19:35Z</time>
      </trkpt>
      <trkpt lat="56.175191011279821" lon="-5.083427969366312">
        <ele>-35.43</ele>
        <time>2023-09-01T10:19:36Z</time>
      </trkpt>
      <trkpt lat="56.175024965777993" lon="-5.083386981859803">
        <ele>-33.509999999999998</ele>
        <time>2023-09-01T10:19:37Z</time>
      </trkpt>
      <trkpt lat="56.174857998266816" lon="-5.083344988524914">
        <ele>-32.549999999999997</ele>
        <time>2023-09-01T10:19:38Z</time>
      </trkpt>
      <trkpt lat="56.173346992582083" lon="-5.082854982465506">
        <ele>-11.880000000000001</ele>
        <time>2023-09-01T10:19:49Z</time>
      </trkpt>
      <trkpt lat="56.171623002737761" lon="-5.082117961719632">
        <ele>-4.19</ele>
        <time>2023-09-01T10:20:01Z</time>
      </trkpt>
      <trkpt lat="56.169784013181925" lon="-5.080893030390143">
        <ele>-2.27</ele>
        <time>2023-09-01T10:20:14Z</time>
      </trkpt>
      <trkpt lat="56.168331010267138" lon="-5.07964001968503">
        <ele>-0.34</ele>
        <time>2023-09-01T10:20:25Z</time>
      </trkpt>
      <trkpt lat="56.16820402443409" lon="-5.079459976404905">
        <ele>-0.34</ele>
        <time>2023-09-01T10:20:26Z</time>
      </trkpt>
      <trkpt lat="56.16811802610755" lon="-5.079256966710091">
        <ele>0.14</ele>
        <time>2023-09-01T10:20:27Z</time>
      </trkpt>
      <trkpt lat="56.168030016124249" lon="-5.079050017520785">
        <ele>0.14</ele>
        <time>2023-09-01T10:20:28Z</time>
      </trkpt>
      <trkpt lat="56.167943011969328" lon="-5.078795962035656">
        <ele>0.62</ele>
        <time>2023-09-01T10:20:29Z</time>
      </trkpt>
      <trkpt lat="56.167888026684523" lon="-5.078561017289758">
        <ele>1.58</ele>
        <time>2023-09-01T10:20:30Z</time>
      </trkpt>
      <trkpt lat="56.16781803779304" lon="-5.078259017318487">
        <ele>2.06</ele>
        <time>2023-09-01T10:20:31Z</time>
      </trkpt>
      <trkpt lat="56.167800016701221" lon="-5.078049972653389">
        <ele>2.54</ele>
        <time>2023-09-01T10:20:32Z</time>
      </trkpt>
      <trkpt lat="56.167779983952641" lon="-5.077804969623685">
        <ele>3.5</ele>
        <time>2023-09-01T10:20:33Z</time>
      </trkpt>
      <trkpt lat="56.167752994224429" lon="-5.077486038208008">
        <ele>3.98</ele>
        <time>2023-09-01T10:20:34Z</time>
      </trkpt>
      <trkpt lat="56.167771015316248" lon="-5.077250003814697">
        <ele>4.46</ele>
        <time>2023-09-01T10:20:35Z</time>
      </trkpt>
      <trkpt lat="56.167789958417416" lon="-5.077000977471471">
        <ele>4.94</ele>
        <time>2023-09-01T10:20:36Z</time>
      </trkpt>
      <trkpt lat="56.167807979509234" lon="-5.076759997755289">
        <ele>5.91</ele>
        <time>2023-09-01T10:20:37Z</time>
      </trkpt>
      <trkpt lat="56.167826000601053" lon="-5.076523963361979">
        <ele>6.39</ele>
        <time>2023-09-01T10:20:38Z</time>
      </trkpt>
      <trkpt lat="56.16792700253427" lon="-5.074655972421169">
        <ele>10.23</ele>
        <time>2023-09-01T10:20:45Z</time>
      </trkpt>
      <trkpt lat="56.167933959513903" lon="-5.074402000755072">
        <ele>10.710000000000001</ele>
        <time>2023-09-01T10:20:46Z</time>
      </trkpt>
      <trkpt lat="56.16781803779304" lon="-5.072915973141789">
        <ele>14.08</ele>
        <time>2023-09-01T10:20:52Z</time>
      </trkpt>
      <trkpt lat="56.167224012315273" lon="-5.070658978074789">
        <ele>19.84</ele>
        <time>2023-09-01T10:21:02Z</time>
      </trkpt>
      <trkpt lat="56.166569972410798" lon="-5.06836200132966">
        <ele>27.530000000000001</ele>
        <time>2023-09-01T10:21:12Z</time>
      </trkpt>
      <trkpt lat="56.165820965543389" lon="-5.06563201546669">
        <ele>39.07</ele>
        <time>2023-09-01T10:21:23Z</time>
      </trkpt>
      <trkpt lat="56.165519971400499" lon="-5.064591988921166">
        <ele>43.880000000000003</ele>
        <time>2023-09-01T10:21:27Z</time>
      </trkpt>
      <trkpt lat="56.164786973968148" lon="-5.063154995441437">
        <ele>49.159999999999997</ele>
        <time>2023-09-01T10:21:34Z</time>
      </trkpt>
      <trkpt lat="56.164185991510749" lon="-5.062591983005405">
        <ele>51.090000000000003</ele>
        <time>2023-09-01T10:21:38Z</time>
      </trkpt>
      <trkpt lat="56.164019023999572" lon="-5.062484024092555">
        <ele>51.090000000000003</ele>
        <time>2023-09-01T10:21:39Z</time>
      </trkpt>
      <trkpt lat="56.163837974891067" lon="-5.06238897331059">
        <ele>51.090000000000003</ele>
        <time>2023-09-01T10:21:40Z</time>
      </trkpt>
      <trkpt lat="56.162522016093135" lon="-5.062113963067532">
        <ele>51.090000000000003</ele>
        <time>2023-09-01T10:21:48Z</time>
      </trkpt>
      <trkpt lat="56.160475993528962" lon="-5.061698975041509">
        <ele>48.68</ele>
        <time>2023-09-01T10:21:59Z</time>
      </trkpt>
      <trkpt lat="56.159068001434207" lon="-5.061030015349388">
        <ele>45.32</ele>
        <time>2023-09-01T10:22:07Z</time>
      </trkpt>
      <trkpt lat="56.156444968655705" lon="-5.05933603271842">
        <ele>40.990000000000002</ele>
        <time>2023-09-01T10:22:21Z</time>
      </trkpt>
      <trkpt lat="56.154662976041436" lon="-5.057818992063403">
        <ele>39.549999999999997</ele>
        <time>2023-09-01T10:22:31Z</time>
      </trkpt>
      <trkpt lat="56.153106959536672" lon="-5.055734999477863">
        <ele>39.07</ele>
        <time>2023-09-01T10:22:41Z</time>
      </trkpt>
      <trkpt lat="56.151515990495682" lon="-5.052736038342118">
        <ele>41.950000000000003</ele>
        <time>2023-09-01T10:22:53Z</time>
      </trkpt>
      <trkpt lat="56.15004999563098" lon="-5.050156004726887">
        <ele>45.32</ele>
        <time>2023-09-01T10:23:03Z</time>
      </trkpt>
      <trkpt lat="56.1498779989779" lon="-5.049918964505196">
        <ele>45.32</ele>
        <time>2023-09-01T10:23:04Z</time>
      </trkpt>
      <trkpt lat="56.148337991908193" lon="-5.048009986057878">
        <ele>45.799999999999997</ele>
        <time>2023-09-01T10:23:13Z</time>
      </trkpt>
      <trkpt lat="56.146391965448856" lon="-5.045604966580868">
        <ele>45.32</ele>
        <time>2023-09-01T10:23:25Z</time>
      </trkpt>
      <trkpt lat="56.144631011411548" lon="-5.043146973475814">
        <ele>44.840000000000003</ele>
        <time>2023-09-01T10:23:36Z</time>
      </trkpt>
      <trkpt lat="56.142796967178583" lon="-5.040617985650897">
        <ele>41.950000000000003</ele>
        <time>2023-09-01T10:23:47Z</time>
      </trkpt>
      <trkpt lat="56.14242397248745" lon="-5.040233004838228">
        <ele>41.469999999999999</ele>
        <time>2023-09-01T10:23:49Z</time>
      </trkpt>
      <trkpt lat="56.140873990952969" lon="-5.039069009944797">
        <ele>39.07</ele>
        <time>2023-09-01T10:23:57Z</time>
      </trkpt>
      <trkpt lat="56.139315962791443" lon="-5.038406001403928">
        <ele>35.229999999999997</ele>
        <time>2023-09-01T10:24:05Z</time>
      </trkpt>
      <trkpt lat="56.137980977073312" lon="-5.037316018715501">
        <ele>31.859999999999999</ele>
        <time>2023-09-01T10:24:12Z</time>
      </trkpt>
      <trkpt lat="56.137817027047276" lon="-5.037088030949235">
        <ele>31.379999999999999</ele>
        <time>2023-09-01T10:24:13Z</time>
      </trkpt>
      <trkpt lat="56.136635011062026" lon="-5.035052988678217">
        <ele>32.340000000000003</ele>
        <time>2023-09-01T10:24:21Z</time>
      </trkpt>
      <trkpt lat="56.135331960394979" lon="-5.032263994216919">
        <ele>32.82</ele>
        <time>2023-09-01T10:24:31Z</time>
      </trkpt>
      <trkpt lat="56.135230958461761" lon="-5.031955959275365">
        <ele>32.82</ele>
        <time>2023-09-01T10:24:32Z</time>
      </trkpt>
      <trkpt lat="56.135110007598996" lon="-5.031278030946851">
        <ele>32.82</ele>
        <time>2023-09-01T10:24:34Z</time>
      </trkpt>
      <trkpt lat="56.134484969079494" lon="-5.027545988559723">
        <ele>32.82</ele>
        <time>2023-09-01T10:24:45Z</time>
      </trkpt>
      <trkpt lat="56.13346598111093" lon="-5.024550966918469">
        <ele>35.710000000000001</ele>
        <time>2023-09-01T10:24:55Z</time>
      </trkpt>
      <trkpt lat="56.132287988439202" lon="-5.021541025489569">
        <ele>40.030000000000001</ele>
        <time>2023-09-01T10:25:05Z</time>
      </trkpt>
      <trkpt lat="56.131031960248947" lon="-5.01954797655344">
        <ele>41.469999999999999</ele>
        <time>2023-09-01T10:25:13Z</time>
      </trkpt>
      <trkpt lat="56.13054002635181" lon="-5.018937019631267">
        <ele>41.469999999999999</ele>
        <time>2023-09-01T10:25:16Z</time>
      </trkpt>
      <trkpt lat="56.129027009010315" lon="-5.017127031460404">
        <ele>37.149999999999999</ele>
        <time>2023-09-01T10:25:25Z</time>
      </trkpt>
      <trkpt lat="56.128676980733871" lon="-5.016840035095811">
        <ele>36.670000000000002</ele>
        <time>2023-09-01T10:25:27Z</time>
      </trkpt>
      <trkpt lat="56.128486040979624" lon="-5.01673299819231">
        <ele>36.189999999999998</ele>
        <time>2023-09-01T10:25:28Z</time>
      </trkpt>
      <trkpt lat="56.12719296477735" lon="-5.015569003298879">
        <ele>34.740000000000002</ele>
        <time>2023-09-01T10:25:35Z</time>
      </trkpt>
      <trkpt lat="56.125587997958064" lon="-5.013906033709645">
        <ele>35.710000000000001</ele>
        <time>2023-09-01T10:25:44Z</time>
      </trkpt>
      <trkpt lat="56.124729020521045" lon="-5.012500975281">
        <ele>34.259999999999998</ele>
        <time>2023-09-01T10:25:50Z</time>
      </trkpt>
      <trkpt lat="56.124572027474642" lon="-5.012223031371832">
        <ele>33.780000000000001</ele>
        <time>2023-09-01T10:25:51Z</time>
      </trkpt>
      <trkpt lat="56.123319016769528" lon="-5.009518023580313">
        <ele>31.859999999999999</ele>
        <time>2023-09-01T10:26:00Z</time>
      </trkpt>
      <trkpt lat="56.123056998476386" lon="-5.008520996198058">
        <ele>31.859999999999999</ele>
        <time>2023-09-01T10:26:03Z</time>
      </trkpt>
      <trkpt lat="56.123015005141497" lon="-5.008276998996735">
        <ele>31.859999999999999</ele>
        <time>2023-09-01T10:26:04Z</time>
      </trkpt>
      <trkpt lat="56.122971000149846" lon="-5.007969969883561">
        <ele>32.340000000000003</ele>
        <time>2023-09-01T10:26:05Z</time>
      </trkpt>
      <trkpt lat="56.122860023751855" lon="-5.00558003783226">
        <ele>32.82</ele>
        <time>2023-09-01T10:26:12Z</time>
      </trkpt>
      <trkpt lat="56.12280797213316" lon="-5.005269991233945">
        <ele>32.82</ele>
        <time>2023-09-01T10:26:13Z</time>
      </trkpt>
      <trkpt lat="56.122731026262045" lon="-5.004997998476028">
        <ele>32.82</ele>
        <time>2023-09-01T10:26:14Z</time>
      </trkpt>
      <trkpt lat="56.122630024328828" lon="-5.004759030416608">
        <ele>32.82</ele>
        <time>2023-09-01T10:26:15Z</time>
      </trkpt>
      <trkpt lat="56.12248401157558" lon="-5.004575969651341">
        <ele>33.299999999999997</ele>
        <time>2023-09-01T10:26:16Z</time>
      </trkpt>
      <trkpt lat="56.122328024357557" lon="-5.004380000755191">
        <ele>33.299999999999997</ele>
        <time>2023-09-01T10:26:17Z</time>
      </trkpt>
      <trkpt lat="56.122154016047716" lon="-5.004245974123478">
        <ele>33.299999999999997</ele>
        <time>2023-09-01T10:26:18Z</time>
      </trkpt>
      <trkpt lat="56.121970033273101" lon="-5.004103984683752">
        <ele>33.299999999999997</ele>
        <time>2023-09-01T10:26:19Z</time>
      </trkpt>
      <trkpt lat="56.120537985116243" lon="-5.00257303006947">
        <ele>34.259999999999998</ele>
        <time>2023-09-01T10:26:27Z</time>
      </trkpt>
      <trkpt lat="56.11962703987956" lon="-5.00124198384583">
        <ele>33.780000000000001</ele>
        <time>2023-09-01T10:26:33Z</time>
      </trkpt>
      <trkpt lat="56.119383964687586" lon="-5.000765975564718">
        <ele>34.259999999999998</ele>
        <time>2023-09-01T10:26:35Z</time>
      </trkpt>
      <trkpt lat="56.119281034916639" lon="-5.00049096532166">
        <ele>34.259999999999998</ele>
        <time>2023-09-01T10:26:36Z</time>
      </trkpt>
      <trkpt lat="56.1191760096699" lon="-5.00021000392735">
        <ele>34.259999999999998</ele>
        <time>2023-09-01T10:26:37Z</time>
      </trkpt>
      <trkpt lat="56.118827993050218" lon="-4.999080039560795">
        <ele>36.670000000000002</ele>
        <time>2023-09-01T10:26:41Z</time>
      </trkpt>
      <trkpt lat="56.118724979460239" lon="-4.998887004330754">
        <ele>37.149999999999999</ele>
        <time>2023-09-01T10:26:42Z</time>
      </trkpt>
      <trkpt lat="56.118605034425855" lon="-4.99874803237617">
        <ele>37.630000000000003</ele>
        <time>2023-09-01T10:26:43Z</time>
      </trkpt>
      <trkpt lat="56.118475031107664" lon="-4.998649964109063">
        <ele>38.590000000000003</ele>
        <time>2023-09-01T10:26:44Z</time>
      </trkpt>
      <trkpt lat="56.118332035839558" lon="-4.998591039329767">
        <ele>39.07</ele>
        <time>2023-09-01T10:26:45Z</time>
      </trkpt>
      <trkpt lat="56.118177976459265" lon="-4.998528007417917">
        <ele>39.549999999999997</ele>
        <time>2023-09-01T10:26:46Z</time>
      </trkpt>
      <trkpt lat="56.117858039215207" lon="-4.998396998271346">
        <ele>40.990000000000002</ele>
        <time>2023-09-01T10:26:48Z</time>
      </trkpt>
      <trkpt lat="56.117689982056618" lon="-4.998327009379864">
        <ele>41.469999999999999</ele>
        <time>2023-09-01T10:26:49Z</time>
      </trkpt>
      <trkpt lat="56.117516979575157" lon="-4.99821200966835">
        <ele>41.950000000000003</ele>
        <time>2023-09-01T10:26:50Z</time>
      </trkpt>
      <trkpt lat="56.115960963070393" lon="-4.99709696508944">
        <ele>40.509999999999998</ele>
        <time>2023-09-01T10:26:58Z</time>
      </trkpt>
      <trkpt lat="56.114019965752959" lon="-4.995843032374978">
        <ele>36.670000000000002</ele>
        <time>2023-09-01T10:27:08Z</time>
      </trkpt>
      <trkpt lat="56.11389197409153" lon="-4.995672963559628">
        <ele>36.670000000000002</ele>
        <time>2023-09-01T10:27:09Z</time>
      </trkpt>
      <trkpt lat="56.113765994086862" lon="-4.995505996048451">
        <ele>36.670000000000002</ele>
        <time>2023-09-01T10:27:10Z</time>
      </trkpt>
      <trkpt lat="56.113636996597052" lon="-4.995335005223751">
        <ele>37.149999999999999</ele>
        <time>2023-09-01T10:27:11Z</time>
      </trkpt>
      <trkpt lat="56.113503975793719" lon="-4.995158985257149">
        <ele>37.630000000000003</ele>
        <time>2023-09-01T10:27:12Z</time>
      </trkpt>
      <trkpt lat="56.113370032981038" lon="-4.994981037452817">
        <ele>38.590000000000003</ele>
        <time>2023-09-01T10:27:13Z</time>
      </trkpt>
      <trkpt lat="56.113237012177706" lon="-4.994805017486215">
        <ele>39.07</ele>
        <time>2023-09-01T10:27:14Z</time>
      </trkpt>
      <trkpt lat="56.112537961453199" lon="-4.993901029229164">
        <ele>43.399999999999999</ele>
        <time>2023-09-01T10:27:19Z</time>
      </trkpt>
      <trkpt lat="56.112405024468899" lon="-4.993673963472247">
        <ele>43.880000000000003</ele>
        <time>2023-09-01T10:27:20Z</time>
      </trkpt>
      <trkpt lat="56.112268986180425" lon="-4.99344295822084">
        <ele>44.359999999999999</ele>
        <time>2023-09-01T10:27:21Z</time>
      </trkpt>
      <trkpt lat="56.112114004790783" lon="-4.993179012089968">
        <ele>44.359999999999999</ele>
        <time>2023-09-01T10:27:22Z</time>
      </trkpt>
      <trkpt lat="56.111975032836199" lon="-4.993000980466604">
        <ele>45.32</ele>
        <time>2023-09-01T10:27:23Z</time>
      </trkpt>
      <trkpt lat="56.111808987334371" lon="-4.992790007963777">
        <ele>45.799999999999997</ele>
        <time>2023-09-01T10:27:24Z</time>
      </trkpt>
      <trkpt lat="56.111639002338052" lon="-4.992571994662285">
        <ele>46.280000000000001</ele>
        <time>2023-09-01T10:27:25Z</time>
      </trkpt>
      <trkpt lat="56.110772984102368" lon="-4.991577984765172">
        <ele>46.280000000000001</ele>
        <time>2023-09-01T10:27:30Z</time>
      </trkpt>
      <trkpt lat="56.110589001327753" lon="-4.991460973396897">
        <ele>46.280000000000001</ele>
        <time>2023-09-01T10:27:31Z</time>
      </trkpt>
      <trkpt lat="56.110395966097713" lon="-4.991387967020273">
        <ele>45.799999999999997</ele>
        <time>2023-09-01T10:27:32Z</time>
      </trkpt>
      <trkpt lat="56.109084030613303" lon="-4.991017989814282">
        <ele>46.280000000000001</ele>
        <time>2023-09-01T10:27:39Z</time>
      </trkpt>
      <trkpt lat="56.108933994546533" lon="-4.990893015637994">
        <ele>45.799999999999997</ele>
        <time>2023-09-01T10:27:40Z</time>
      </trkpt>
      <trkpt lat="56.108794016763568" lon="-4.990741973742843">
        <ele>45.799999999999997</ele>
        <time>2023-09-01T10:27:41Z</time>
      </trkpt>
      <trkpt lat="56.108675999566913" lon="-4.990569977089763">
        <ele>45.799999999999997</ele>
        <time>2023-09-01T10:27:42Z</time>
      </trkpt>
      <trkpt lat="56.108557982370257" lon="-4.990362022072077">
        <ele>45.32</ele>
        <time>2023-09-01T10:27:43Z</time>
      </trkpt>
      <trkpt lat="56.108452035114169" lon="-4.990145014598966">
        <ele>45.32</ele>
        <time>2023-09-01T10:27:44Z</time>
      </trkpt>
      <trkpt lat="56.108353966847062" lon="-4.989887019619346">
        <ele>44.840000000000003</ele>
        <time>2023-09-01T10:27:45Z</time>
      </trkpt>
      <trkpt lat="56.108135031536222" lon="-4.989371029660106">
        <ele>43.399999999999999</ele>
        <time>2023-09-01T10:27:47Z</time>
      </trkpt>
      <trkpt lat="56.107992036268115" lon="-4.98916701413691">
        <ele>42.920000000000002</ele>
        <time>2023-09-01T10:27:48Z</time>
      </trkpt>
      <trkpt lat="56.107844011858106" lon="-4.988984959200025">
        <ele>42.439999999999998</ele>
        <time>2023-09-01T10:27:49Z</time>
      </trkpt>
      <trkpt lat="56.107673021033406" lon="-4.988860990852118">
        <ele>41.950000000000003</ele>
        <time>2023-09-01T10:27:50Z</time>
      </trkpt>
      <trkpt lat="56.107500018551946" lon="-4.988735010847449">
        <ele>41.950000000000003</ele>
        <time>2023-09-01T10:27:51Z</time>
      </trkpt>
      <trkpt lat="56.105523984879255" lon="-4.987317966297269">
        <ele>41.950000000000003</ele>
        <time>2023-09-01T10:28:02Z</time>
      </trkpt>
      <trkpt lat="56.104048015549779" lon="-4.986323034390807">
        <ele>39.07</ele>
        <time>2023-09-01T10:28:10Z</time>
      </trkpt>
      <trkpt lat="56.102712024003267" lon="-4.986125975847244">
        <ele>37.630000000000003</ele>
        <time>2023-09-01T10:28:17Z</time>
      </trkpt>
      <trkpt lat="56.100778989493847" lon="-4.985940987244248">
        <ele>36.670000000000002</ele>
        <time>2023-09-01T10:28:27Z</time>
      </trkpt>
      <trkpt lat="56.098469020798802" lon="-4.98596303164959">
        <ele>36.189999999999998</ele>
        <time>2023-09-01T10:28:39Z</time>
      </trkpt>
      <trkpt lat="56.096804961562157" lon="-4.986462006345391">
        <ele>33.299999999999997</ele>
        <time>2023-09-01T10:28:48Z</time>
      </trkpt>
      <trkpt lat="56.094885002821684" lon="-4.987218976020813">
        <ele>36.189999999999998</ele>
        <time>2023-09-01T10:28:58Z</time>
      </trkpt>
      <trkpt lat="56.092944005504251" lon="-4.987989021465182">
        <ele>36.670000000000002</ele>
        <time>2023-09-01T10:29:07Z</time>
      </trkpt>
      <trkpt lat="56.091165030375123" lon="-4.988522026687861">
        <ele>33.299999999999997</ele>
        <time>2023-09-01T10:29:15Z</time>
      </trkpt>
      <trkpt lat="56.089452020823956" lon="-4.988338965922594">
        <ele>31.379999999999999</ele>
        <time>2023-09-01T10:29:23Z</time>
      </trkpt>
      <trkpt lat="56.087824003770947" lon="-4.988333014771342">
        <ele>29.940000000000001</ele>
        <time>2023-09-01T10:29:31Z</time>
      </trkpt>
      <trkpt lat="56.086343005299568" lon="-4.988281968981028">
        <ele>28.02</ele>
        <time>2023-09-01T10:29:38Z</time>
      </trkpt>
      <trkpt lat="56.08378803357482" lon="-4.988658986985683">
        <ele>27.050000000000001</ele>
        <time>2023-09-01T10:29:50Z</time>
      </trkpt>
      <trkpt lat="56.082454975694418" lon="-4.988719001412392">
        <ele>25.609999999999999</ele>
        <time>2023-09-01T10:29:57Z</time>
      </trkpt>
      <trkpt lat="56.082260012626648" lon="-4.988692011684179">
        <ele>25.129999999999999</ele>
        <time>2023-09-01T10:29:58Z</time>
      </trkpt>
      <trkpt lat="56.081708986312151" lon="-4.988595033064485">
        <ele>24.649999999999999</ele>
        <time>2023-09-01T10:30:01Z</time>
      </trkpt>
      <trkpt lat="56.080276016145945" lon="-4.98895101249218">
        <ele>24.170000000000002</ele>
        <time>2023-09-01T10:30:09Z</time>
      </trkpt>
      <trkpt lat="56.078535011038184" lon="-4.989258963614702">
        <ele>24.170000000000002</ele>
        <time>2023-09-01T10:30:18Z</time>
      </trkpt>
      <trkpt lat="56.078349016606808" lon="-4.989313026890159">
        <ele>24.170000000000002</ele>
        <time>2023-09-01T10:30:19Z</time>
      </trkpt>
      <trkpt lat="56.077974010258913" lon="-4.98942400328815">
        <ele>23.690000000000001</ele>
        <time>2023-09-01T10:30:21Z</time>
      </trkpt>
      <trkpt lat="56.076282039284706" lon="-4.989622989669442">
        <ele>23.690000000000001</ele>
        <time>2023-09-01T10:30:30Z</time>
      </trkpt>
      <trkpt lat="56.07496197335422" lon="-4.989892970770598">
        <ele>24.170000000000002</ele>
        <time>2023-09-01T10:30:37Z</time>
      </trkpt>
      <trkpt lat="56.074409019201994" lon="-4.989871010184288">
        <ele>24.170000000000002</ele>
        <time>2023-09-01T10:30:40Z</time>
      </trkpt>
      <trkpt lat="56.074045998975635" lon="-4.989761039614677">
        <ele>23.690000000000001</ele>
        <time>2023-09-01T10:30:42Z</time>
      </trkpt>
      <trkpt lat="56.073877019807696" lon="-4.989679986611009">
        <ele>23.690000000000001</ele>
        <time>2023-09-01T10:30:43Z</time>
      </trkpt>
      <trkpt lat="56.073702005669475" lon="-4.989539002999663">
        <ele>23.210000000000001</ele>
        <time>2023-09-01T10:30:44Z</time>
      </trkpt>
      <trkpt lat="56.07283397577703" lon="-4.988712966442108">
        <ele>20.809999999999999</ele>
        <time>2023-09-01T10:30:49Z</time>
      </trkpt>
      <trkpt lat="56.071324981749058" lon="-4.988315999507904">
        <ele>20.32</ele>
        <time>2023-09-01T10:30:56Z</time>
      </trkpt>
      <trkpt lat="56.069456990808249" lon="-4.987842002883554">
        <ele>19.359999999999999</ele>
        <time>2023-09-01T10:31:05Z</time>
      </trkpt>
      <trkpt lat="56.069077039137483" lon="-4.987618960440159">
        <ele>19.359999999999999</ele>
        <time>2023-09-01T10:31:07Z</time>
      </trkpt>
      <trkpt lat="56.068885009735823" lon="-4.987506978213787">
        <ele>19.84</ele>
        <time>2023-09-01T10:31:08Z</time>
      </trkpt>
      <trkpt lat="56.068099038675427" lon="-4.987123003229499">
        <ele>22.25</ele>
        <time>2023-09-01T10:31:12Z</time>
      </trkpt>
      <trkpt lat="56.066398015245795" lon="-4.987070029601455">
        <ele>22.73</ele>
        <time>2023-09-01T10:31:20Z</time>
      </trkpt>
      <trkpt lat="56.065256986767054" lon="-4.987135995179415">
        <ele>23.210000000000001</ele>
        <time>2023-09-01T10:31:26Z</time>
      </trkpt>
      <trkpt lat="56.065087001770735" lon="-4.987087966874242">
        <ele>23.210000000000001</ele>
        <time>2023-09-01T10:31:27Z</time>
      </trkpt>
      <trkpt lat="56.064934032037854" lon="-4.986962992697954">
        <ele>23.210000000000001</ele>
        <time>2023-09-01T10:31:28Z</time>
      </trkpt>
      <trkpt lat="56.064786007627845" lon="-4.986829971894622">
        <ele>23.210000000000001</ele>
        <time>2023-09-01T10:31:29Z</time>
      </trkpt>
      <trkpt lat="56.064653992652893" lon="-4.986636014655232">
        <ele>23.690000000000001</ele>
        <time>2023-09-01T10:31:30Z</time>
      </trkpt>
      <trkpt lat="56.064518038183451" lon="-4.986438034102321">
        <ele>23.690000000000001</ele>
        <time>2023-09-01T10:31:31Z</time>
      </trkpt>
      <trkpt lat="56.063394024968147" lon="-4.985207989811897">
        <ele>23.690000000000001</ele>
        <time>2023-09-01T10:31:38Z</time>
      </trkpt>
      <trkpt lat="56.062126010656357" lon="-4.983971994370222">
        <ele>23.210000000000001</ele>
        <time>2023-09-01T10:31:45Z</time>
      </trkpt>
      <trkpt lat="56.061935992911458" lon="-4.983893958851695">
        <ele>22.73</ele>
        <time>2023-09-01T10:31:46Z</time>
      </trkpt>
      <trkpt lat="56.061744969338179" lon="-4.983815001323819">
        <ele>22.73</ele>
        <time>2023-09-01T10:31:47Z</time>
      </trkpt>
      <trkpt lat="56.060504028573632" lon="-4.983499003574252">
        <ele>23.210000000000001</ele>
        <time>2023-09-01T10:31:54Z</time>
      </trkpt>
      <trkpt lat="56.060352986678481" lon="-4.983588019385934">
        <ele>23.690000000000001</ele>
        <time>2023-09-01T10:31:55Z</time>
      </trkpt>
      <trkpt lat="56.060186019167304" lon="-4.983716011047363">
        <ele>23.690000000000001</ele>
        <time>2023-09-01T10:31:56Z</time>
      </trkpt>
      <trkpt lat="56.060065990313888" lon="-4.983870992437005">
        <ele>24.170000000000002</ele>
        <time>2023-09-01T10:31:57Z</time>
      </trkpt>
      <trkpt lat="56.059942021965981" lon="-4.984028991311789">
        <ele>24.170000000000002</ele>
        <time>2023-09-01T10:31:58Z</time>
      </trkpt>
      <trkpt lat="56.059696013107896" lon="-4.984347000718117">
        <ele>24.170000000000002</ele>
        <time>2023-09-01T10:32:00Z</time>
      </trkpt>
      <trkpt lat="56.059567015618086" lon="-4.984496030956507">
        <ele>24.170000000000002</ele>
        <time>2023-09-01T10:32:01Z</time>
      </trkpt>
      <trkpt lat="56.059416979551315" lon="-4.984560990706086">
        <ele>24.170000000000002</ele>
        <time>2023-09-01T10:32:02Z</time>
      </trkpt>
      <trkpt lat="56.058507962152362" lon="-4.984744973480701">
        <ele>24.170000000000002</ele>
        <time>2023-09-01T10:32:08Z</time>
      </trkpt>
      <trkpt lat="56.058361027389765" lon="-4.984714966267347">
        <ele>24.170000000000002</ele>
        <time>2023-09-01T10:32:09Z</time>
      </trkpt>
      <trkpt lat="56.058215014636517" lon="-4.984650006517768">
        <ele>23.690000000000001</ele>
        <time>2023-09-01T10:32:10Z</time>
      </trkpt>
      <trkpt lat="56.057236008346081" lon="-4.984152959659696">
        <ele>23.210000000000001</ele>
        <time>2023-09-01T10:32:18Z</time>
      </trkpt>
      <trkpt lat="56.056339982897043" lon="-4.983502021059394">
        <ele>21.289999999999999</ele>
        <time>2023-09-01T10:32:26Z</time>
      </trkpt>
      <trkpt lat="56.056220959872007" lon="-4.983448963612318">
        <ele>21.289999999999999</ele>
        <time>2023-09-01T10:32:27Z</time>
      </trkpt>
      <trkpt lat="56.056092968210578" lon="-4.98343002051115">
        <ele>21.289999999999999</ele>
        <time>2023-09-01T10:32:28Z</time>
      </trkpt>
      <trkpt lat="56.055960031226277" lon="-4.98343002051115">
        <ele>21.289999999999999</ele>
        <time>2023-09-01T10:32:29Z</time>
      </trkpt>
      <trkpt lat="56.055827010422945" lon="-4.983474025502801">
        <ele>21.77</ele>
        <time>2023-09-01T10:32:30Z</time>
      </trkpt>
      <trkpt lat="56.055688038468361" lon="-4.983519958332181">
        <ele>22.25</ele>
        <time>2023-09-01T10:32:31Z</time>
      </trkpt>
      <trkpt lat="56.054693022742867" lon="-4.983837967738509">
        <ele>24.170000000000002</ele>
        <time>2023-09-01T10:32:38Z</time>
      </trkpt>
      <trkpt lat="56.053585018962622" lon="-4.984055981040001">
        <ele>24.649999999999999</ele>
        <time>2023-09-01T10:32:45Z</time>
      </trkpt>
      <trkpt lat="56.052152970805764" lon="-4.984843963757157">
        <ele>23.210000000000001</ele>
        <time>2023-09-01T10:32:53Z</time>
      </trkpt>
      <trkpt lat="56.051308996975422" lon="-4.984929040074348">
        <ele>23.690000000000001</ele>
        <time>2023-09-01T10:32:58Z</time>
      </trkpt>
      <trkpt lat="56.051158960908651" lon="-4.984827032312751">
        <ele>23.210000000000001</ele>
        <time>2023-09-01T10:32:59Z</time>
      </trkpt>
      <trkpt lat="56.051001967862248" lon="-4.98471999540925">
        <ele>23.210000000000001</ele>
        <time>2023-09-01T10:33:00Z</time>
      </trkpt>
      <trkpt lat="56.050841035321355" lon="-4.984606001526117">
        <ele>23.210000000000001</ele>
        <time>2023-09-01T10:33:01Z</time>
      </trkpt>
      <trkpt lat="56.050684964284301" lon="-4.984440039843321">
        <ele>23.210000000000001</ele>
        <time>2023-09-01T10:33:02Z</time>
      </trkpt>
      <trkpt lat="56.049848031252623" lon="-4.983553988859057">
        <ele>22.73</ele>
        <time>2023-09-01T10:33:07Z</time>
      </trkpt>
      <trkpt lat="56.04967201128602" lon="-4.983410993590951">
        <ele>22.73</ele>
        <time>2023-09-01T10:33:08Z</time>
      </trkpt>
      <trkpt lat="56.049481993541121" lon="-4.983304040506482">
        <ele>22.73</ele>
        <time>2023-09-01T10:33:09Z</time>
      </trkpt>
      <trkpt lat="56.049288036301732" lon="-4.983221981674433">
        <ele>22.73</ele>
        <time>2023-09-01T10:33:10Z</time>
      </trkpt>
      <trkpt lat="56.049089971929789" lon="-4.983152998611331">
        <ele>22.73</ele>
        <time>2023-09-01T10:33:11Z</time>
      </trkpt>
      <trkpt lat="56.048894003033638" lon="-4.98308602720499">
        <ele>22.73</ele>
        <time>2023-09-01T10:33:12Z</time>
      </trkpt>
      <trkpt lat="56.048695016652346" lon="-4.983072029426694">
        <ele>23.210000000000001</ele>
        <time>2023-09-01T10:33:13Z</time>
      </trkpt>
      <trkpt lat="56.048497958108783" lon="-4.983072029426694">
        <ele>23.690000000000001</ele>
        <time>2023-09-01T10:33:14Z</time>
      </trkpt>
      <trkpt lat="56.048299977555871" lon="-4.983132965862751">
        <ele>23.690000000000001</ele>
        <time>2023-09-01T10:33:15Z</time>
      </trkpt>
      <trkpt lat="56.04672996327281" lon="-4.983696984127164">
        <ele>23.690000000000001</ele>
        <time>2023-09-01T10:33:23Z</time>
      </trkpt>
      <trkpt lat="56.046562995761633" lon="-4.983755992725492">
        <ele>23.690000000000001</ele>
        <time>2023-09-01T10:33:24Z</time>
      </trkpt>
      <trkpt lat="56.046398039907217" lon="-4.983770996332169">
        <ele>23.210000000000001</ele>
        <time>2023-09-01T10:33:25Z</time>
      </trkpt>
      <trkpt lat="56.04524502530694" lon="-4.983694972470403">
        <ele>22.25</ele>
        <time>2023-09-01T10:33:31Z</time>
      </trkpt>
      <trkpt lat="56.0450519900769" lon="-4.983739983290434">
        <ele>22.25</ele>
        <time>2023-09-01T10:33:32Z</time>
      </trkpt>
      <trkpt lat="56.044506998732686" lon="-4.983813995495439">
        <ele>22.73</ele>
        <time>2023-09-01T10:33:35Z</time>
      </trkpt>
      <trkpt lat="56.04434497654438" lon="-4.983765967190266">
        <ele>22.73</ele>
        <time>2023-09-01T10:33:36Z</time>
      </trkpt>
      <trkpt lat="56.042971014976501" lon="-4.983350979164243">
        <ele>21.289999999999999</ele>
        <time>2023-09-01T10:33:43Z</time>
      </trkpt>
      <trkpt lat="56.042758030816913" lon="-4.983287025243044">
        <ele>21.289999999999999</ele>
        <time>2023-09-01T10:33:44Z</time>
      </trkpt>
      <trkpt lat="56.042547980323434" lon="-4.983222987502813">
        <ele>21.289999999999999</ele>
        <time>2023-09-01T10:33:45Z</time>
      </trkpt>
      <trkpt lat="56.040486032143235" lon="-4.982583029195666">
        <ele>21.77</ele>
        <time>2023-09-01T10:33:55Z</time>
      </trkpt>
      <trkpt lat="56.038910988718271" lon="-4.981738971546292">
        <ele>24.649999999999999</ele>
        <time>2023-09-01T10:34:03Z</time>
      </trkpt>
      <trkpt lat="56.03744599968195" lon="-4.980286974459887">
        <ele>26.57</ele>
        <time>2023-09-01T10:34:11Z</time>
      </trkpt>
      <trkpt lat="56.036592973396182" lon="-4.97992898337543">
        <ele>27.050000000000001</ele>
        <time>2023-09-01T10:34:15Z</time>
      </trkpt>
      <trkpt lat="56.034724982455373" lon="-4.979633018374443">
        <ele>28.98</ele>
        <time>2023-09-01T10:34:24Z</time>
      </trkpt>
      <trkpt lat="56.033007027581334" lon="-4.979873998090625">
        <ele>31.859999999999999</ele>
        <time>2023-09-01T10:34:33Z</time>
      </trkpt>
      <trkpt lat="56.031389990821481" lon="-4.980518985539675">
        <ele>28.98</ele>
        <time>2023-09-01T10:34:41Z</time>
      </trkpt>
      <trkpt lat="56.031180024147034" lon="-4.980499036610127">
        <ele>28.02</ele>
        <time>2023-09-01T10:34:42Z</time>
      </trkpt>
      <trkpt lat="56.030973996967077" lon="-4.980480009689927">
        <ele>27.530000000000001</ele>
        <time>2023-09-01T10:34:43Z</time>
      </trkpt>
      <trkpt lat="56.03076595813036" lon="-4.980460982769728">
        <ele>26.57</ele>
        <time>2023-09-01T10:34:44Z</time>
      </trkpt>
      <trkpt lat="56.030560014769435" lon="-4.980404991656542">
        <ele>26.09</ele>
        <time>2023-09-01T10:34:45Z</time>
      </trkpt>
      <trkpt lat="56.028760001063347" lon="-4.980210028588772">
        <ele>27.050000000000001</ele>
        <time>2023-09-01T10:34:54Z</time>
      </trkpt>
      <trkpt lat="56.027309009805322" lon="-4.980560978874564">
        <ele>25.609999999999999</ele>
        <time>2023-09-01T10:35:01Z</time>
      </trkpt>
      <trkpt lat="56.027095019817352" lon="-4.980509011074901">
        <ele>24.649999999999999</ele>
        <time>2023-09-01T10:35:02Z</time>
      </trkpt>
      <trkpt lat="56.026307037100196" lon="-4.98039904050529">
        <ele>21.77</ele>
        <time>2023-09-01T10:35:06Z</time>
      </trkpt>
      <trkpt lat="56.026111990213394" lon="-4.980408009141684">
        <ele>21.77</ele>
        <time>2023-09-01T10:35:07Z</time>
      </trkpt>
      <trkpt lat="56.02494296617806" lon="-4.980706991627812">
        <ele>19.84</ele>
        <time>2023-09-01T10:35:13Z</time>
      </trkpt>
      <trkpt lat="56.024575000628829" lon="-4.980698022991419">
        <ele>19.359999999999999</ele>
        <time>2023-09-01T10:35:15Z</time>
      </trkpt>
      <trkpt lat="56.024392023682594" lon="-4.980672961100936">
        <ele>18.879999999999999</ele>
        <time>2023-09-01T10:35:16Z</time>
      </trkpt>
      <trkpt lat="56.022689994424582" lon="-4.979907022789121">
        <ele>17.440000000000001</ele>
        <time>2023-09-01T10:35:25Z</time>
      </trkpt>
      <trkpt lat="56.020359992980957" lon="-4.978653006255627">
        <ele>17.440000000000001</ele>
        <time>2023-09-01T10:35:36Z</time>
      </trkpt>
      <trkpt lat="56.017882972955704" lon="-4.977115010842681">
        <ele>16</ele>
        <time>2023-09-01T10:35:48Z</time>
      </trkpt>
      <trkpt lat="56.015834016725421" lon="-4.976170035079122">
        <ele>14.08</ele>
        <time>2023-09-01T10:35:58Z</time>
      </trkpt>
      <trkpt lat="56.014744034036994" lon="-4.97606098651886">
        <ele>12.630000000000001</ele>
        <time>2023-09-01T10:36:04Z</time>
      </trkpt>
      <trkpt lat="56.014454020187259" lon="-4.97593198902905">
        <ele>11.67</ele>
        <time>2023-09-01T10:36:06Z</time>
      </trkpt>
      <trkpt lat="56.013122973963618" lon="-4.975105030462146">
        <ele>8.310000000000001</ele>
        <time>2023-09-01T10:36:15Z</time>
      </trkpt>
      <trkpt lat="56.012165006250143" lon="-4.974856004118919">
        <ele>6.87</ele>
        <time>2023-09-01T10:36:23Z</time>
      </trkpt>
      <trkpt lat="56.012041037902236" lon="-4.974823985248804">
        <ele>6.39</ele>
        <time>2023-09-01T10:36:25Z</time>
      </trkpt>
      <trkpt lat="56.011998038738966" lon="-4.974813004955649">
        <ele>6.39</ele>
        <time>2023-09-01T10:36:26Z</time>
      </trkpt>
      <trkpt lat="56.011960990726948" lon="-4.974803030490875">
        <ele>6.39</ele>
        <time>2023-09-01T10:36:27Z</time>
      </trkpt>
      <trkpt lat="56.011930983513594" lon="-4.974794983863831">
        <ele>6.39</ele>
        <time>2023-09-01T10:36:28Z</time>
      </trkpt>
      <trkpt lat="56.011936012655497" lon="-4.97459901496768">
        <ele>5.91</ele>
        <time>2023-09-01T10:36:30Z</time>
      </trkpt>
      <trkpt lat="56.011972976848483" lon="-4.974330039694905">
        <ele>5.91</ele>
        <time>2023-09-01T10:36:34Z</time>
      </trkpt>
      <trkpt lat="56.012040032073855" lon="-4.974244963377714">
        <ele>4.46</ele>
        <time>2023-09-01T10:36:44Z</time>
      </trkpt>
      <trkpt lat="56.012076996266842" lon="-4.974233983084559">
        <ele>3.02</ele>
        <time>2023-09-01T10:37:00Z</time>
      </trkpt>
      <trkpt lat="56.012076996266842" lon="-4.974233983084559">
        <ele>3.02</ele>
        <time>2023-09-01T10:37:19Z</time>
      </trkpt>
      <trkpt lat="56.012081019580364" lon="-4.97423498891294">
        <ele>3.5</ele>
        <time>2023-09-01T10:37:42Z</time>
      </trkpt>
      <trkpt lat="56.012081019580364" lon="-4.97423498891294">
        <ele>3.5</ele>
        <time>2023-09-01T10:38:01Z</time>
      </trkpt>
      <trkpt lat="56.012119995430112" lon="-4.974401034414768">
        <ele>6.87</ele>
        <time>2023-09-01T11:27:37Z</time>
      </trkpt>
      <trkpt lat="56.012183027341962" lon="-4.97453598305583">
        <ele>30.899999999999999</ele>
        <time>2023-09-01T11:28:23Z</time>
      </trkpt>
      <trkpt lat="56.012118989601731" lon="-4.974373960867524">
        <ele>24.170000000000002</ele>
        <time>2023-09-01T11:29:16Z</time>
      </trkpt>
      <trkpt lat="56.012118989601731" lon="-4.974373960867524">
        <ele>24.170000000000002</ele>
        <time>2023-09-01T11:29:32Z</time>
      </trkpt>
      <trkpt lat="56.011886978521943" lon="-4.974784003570676">
        <ele>21.77</ele>
        <time>2023-09-01T11:29:43Z</time>
      </trkpt>
      <trkpt lat="56.011781031265855" lon="-4.974756008014083">
        <ele>14.08</ele>
        <time>2023-09-01T11:29:50Z</time>
      </trkpt>
      <trkpt lat="56.011235034093261" lon="-4.974549980834127">
        <ele>5.91</ele>
        <time>2023-09-01T11:29:56Z</time>
      </trkpt>
      <trkpt lat="56.010595997795463" lon="-4.974125018343329">
        <ele>0.14</ele>
        <time>2023-09-01T11:30:01Z</time>
      </trkpt>
      <trkpt lat="56.010469011962414" lon="-4.97401898726821">
        <ele>-0.82</ele>
        <time>2023-09-01T11:30:02Z</time>
      </trkpt>
      <trkpt lat="56.010081013664603" lon="-4.973584972321987">
        <ele>-3.71</ele>
        <time>2023-09-01T11:30:05Z</time>
      </trkpt>
      <trkpt lat="56.009970037266612" lon="-4.973409036174417">
        <ele>-4.67</ele>
        <time>2023-09-01T11:30:06Z</time>
      </trkpt>
      <trkpt lat="56.00985998287797" lon="-4.973235027864575">
        <ele>-5.63</ele>
        <time>2023-09-01T11:30:07Z</time>
      </trkpt>
      <trkpt lat="56.009455975145102" lon="-4.971745982766151">
        <ele>-9.960000000000001</ele>
        <time>2023-09-01T11:30:13Z</time>
      </trkpt>
      <trkpt lat="56.009241985157132" lon="-4.969198973849416">
        <ele>-13.800000000000001</ele>
        <time>2023-09-01T11:30:22Z</time>
      </trkpt>
      <trkpt lat="56.008685007691383" lon="-4.966941978782415">
        <ele>-16.690000000000001</ele>
        <time>2023-09-01T11:30:30Z</time>
      </trkpt>
      <trkpt lat="56.008178992196918" lon="-4.965207008644939">
        <ele>-17.649999999999999</ele>
        <time>2023-09-01T11:30:36Z</time>
      </trkpt>
      <trkpt lat="56.008096011355519" lon="-4.964916994795203">
        <ele>-17.649999999999999</ele>
        <time>2023-09-01T11:30:37Z</time>
      </trkpt>
      <trkpt lat="56.007894007489085" lon="-4.964425982907414">
        <ele>-17.649999999999999</ele>
        <time>2023-09-01T11:30:39Z</time>
      </trkpt>
      <trkpt lat="56.007756041362882" lon="-4.964185003191233">
        <ele>-17.170000000000002</ele>
        <time>2023-09-01T11:30:40Z</time>
      </trkpt>
      <trkpt lat="56.007628971710801" lon="-4.963961960747838">
        <ele>-17.170000000000002</ele>
        <time>2023-09-01T11:30:41Z</time>
      </trkpt>
      <trkpt lat="56.007207026705146" lon="-4.963439013808966">
        <ele>-17.649999999999999</ele>
        <time>2023-09-01T11:30:44Z</time>
      </trkpt>
      <trkpt lat="56.005695015192032" lon="-4.962713979184628">
        <ele>-17.170000000000002</ele>
        <time>2023-09-01T11:30:54Z</time>
      </trkpt>
      <trkpt lat="56.005545984953642" lon="-4.962667962536216">
        <ele>-17.649999999999999</ele>
        <time>2023-09-01T11:30:55Z</time>
      </trkpt>
      <trkpt lat="56.005392009392381" lon="-4.962700987234712">
        <ele>-17.170000000000002</ele>
        <time>2023-09-01T11:30:56Z</time>
      </trkpt>
      <trkpt lat="56.0052390396595" lon="-4.962735017761588">
        <ele>-17.649999999999999</ele>
        <time>2023-09-01T11:30:57Z</time>
      </trkpt>
      <trkpt lat="56.005093026906252" lon="-4.962766030803323">
        <ele>-17.170000000000002</ele>
        <time>2023-09-01T11:30:58Z</time>
      </trkpt>
      <trkpt lat="56.0049610119313" lon="-4.96284699998796">
        <ele>-17.170000000000002</ele>
        <time>2023-09-01T11:30:59Z</time>
      </trkpt>
      <trkpt lat="56.004833020269871" lon="-4.962941966950893">
        <ele>-17.170000000000002</ele>
        <time>2023-09-01T11:31:00Z</time>
      </trkpt>
      <trkpt lat="56.004708968102932" lon="-4.963032994419336">
        <ele>-16.690000000000001</ele>
        <time>2023-09-01T11:31:01Z</time>
      </trkpt>
      <trkpt lat="56.004592040553689" lon="-4.963155034929514">
        <ele>-16.690000000000001</ele>
        <time>2023-09-01T11:31:02Z</time>
      </trkpt>
      <trkpt lat="56.004367992281914" lon="-4.963478995487094">
        <ele>-15.24</ele>
        <time>2023-09-01T11:31:04Z</time>
      </trkpt>
      <trkpt lat="56.0042720194906" lon="-4.963694997131825">
        <ele>-14.76</ele>
        <time>2023-09-01T11:31:05Z</time>
      </trkpt>
      <trkpt lat="56.004175040870905" lon="-4.963910998776555">
        <ele>-14.279999999999999</ele>
        <time>2023-09-01T11:31:06Z</time>
      </trkpt>
      <trkpt lat="56.00408099591732" lon="-4.964121971279383">
        <ele>-13.800000000000001</ele>
        <time>2023-09-01T11:31:07Z</time>
      </trkpt>
      <trkpt lat="56.004013018682599" lon="-4.964326992630959">
        <ele>-13.32</ele>
        <time>2023-09-01T11:31:08Z</time>
      </trkpt>
      <trkpt lat="56.003962978720665" lon="-4.964583981782198">
        <ele>-12.84</ele>
        <time>2023-09-01T11:31:09Z</time>
      </trkpt>
      <trkpt lat="56.003911010921001" lon="-4.964848011732101">
        <ele>-12.359999999999999</ele>
        <time>2023-09-01T11:31:10Z</time>
      </trkpt>
      <trkpt lat="56.003859965130687" lon="-4.965112041682005">
        <ele>-11.4</ele>
        <time>2023-09-01T11:31:11Z</time>
      </trkpt>
      <trkpt lat="56.003846973180771" lon="-4.96538202278316">
        <ele>-9.960000000000001</ele>
        <time>2023-09-01T11:31:12Z</time>
      </trkpt>
      <trkpt lat="56.003833981230855" lon="-4.965667007490993">
        <ele>-9</ele>
        <time>2023-09-01T11:31:13Z</time>
      </trkpt>
      <trkpt lat="56.003727028146386" lon="-4.968553986400366">
        <ele>-0.34</ele>
        <time>2023-09-01T11:31:23Z</time>
      </trkpt>
      <trkpt lat="56.003254959359765" lon="-4.970788015052676">
        <ele>3.02</ele>
        <time>2023-09-01T11:31:31Z</time>
      </trkpt>
      <trkpt lat="56.002615001052618" lon="-4.97257998213172">
        <ele>3.5</ele>
        <time>2023-09-01T11:31:38Z</time>
      </trkpt>
      <trkpt lat="56.002502012997866" lon="-4.97281601652503">
        <ele>3.5</ele>
        <time>2023-09-01T11:31:39Z</time>
      </trkpt>
      <trkpt lat="56.002391036599874" lon="-4.973048027604818">
        <ele>3.5</ele>
        <time>2023-09-01T11:31:40Z</time>
      </trkpt>
      <trkpt lat="56.002262039110065" lon="-4.97322203591466">
        <ele>3.5</ele>
        <time>2023-09-01T11:31:41Z</time>
      </trkpt>
      <trkpt lat="56.002127006649971" lon="-4.97339503839612">
        <ele>3.98</ele>
        <time>2023-09-01T11:31:42Z</time>
      </trkpt>
      <trkpt lat="56.001992980018258" lon="-4.9735670350492">
        <ele>3.98</ele>
        <time>2023-09-01T11:31:43Z</time>
      </trkpt>
      <trkpt lat="56.001840010285378" lon="-4.973670970648527">
        <ele>3.98</ele>
        <time>2023-09-01T11:31:44Z</time>
      </trkpt>
      <trkpt lat="56.001685028895736" lon="-4.973777001723647">
        <ele>3.98</ele>
        <time>2023-09-01T11:31:45Z</time>
      </trkpt>
      <trkpt lat="56.001520995050669" lon="-4.973887978121638">
        <ele>3.98</ele>
        <time>2023-09-01T11:31:46Z</time>
      </trkpt>
      <trkpt lat="56.001362996175885" lon="-4.973922008648515">
        <ele>4.46</ele>
        <time>2023-09-01T11:31:47Z</time>
      </trkpt>
      <trkpt lat="56.001190999522805" lon="-4.973957967013121">
        <ele>4.46</ele>
        <time>2023-09-01T11:31:48Z</time>
      </trkpt>
      <trkpt lat="56.001020008698106" lon="-4.973968025296927">
        <ele>4.94</ele>
        <time>2023-09-01T11:31:49Z</time>
      </trkpt>
      <trkpt lat="56.000844994559884" lon="-4.973955033347011">
        <ele>4.94</ele>
        <time>2023-09-01T11:31:50Z</time>
      </trkpt>
      <trkpt lat="55.999558959156275" lon="-4.973472990095615">
        <ele>5.91</ele>
        <time>2023-09-01T11:31:57Z</time>
      </trkpt>
      <trkpt lat="55.998169993981719" lon="-4.972661035135388">
        <ele>6.39</ele>
        <time>2023-09-01T11:32:04Z</time>
      </trkpt>
      <trkpt lat="55.997960027307272" lon="-4.97264301404357">
        <ele>6.39</ele>
        <time>2023-09-01T11:32:05Z</time>
      </trkpt>
      <trkpt lat="55.997749976813793" lon="-4.97262398712337">
        <ele>6.39</ele>
        <time>2023-09-01T11:32:06Z</time>
      </trkpt>
      <trkpt lat="55.99754897877574" lon="-4.972606971859932">
        <ele>6.87</ele>
        <time>2023-09-01T11:32:07Z</time>
      </trkpt>
      <trkpt lat="55.997358961030841" lon="-4.972624992951751">
        <ele>6.87</ele>
        <time>2023-09-01T11:32:08Z</time>
      </trkpt>
      <trkpt lat="55.996329998597503" lon="-4.972788020968437">
        <ele>8.789999999999999</ele>
        <time>2023-09-01T11:32:15Z</time>
      </trkpt>
      <trkpt lat="55.99587201140821" lon="-4.972702022641897">
        <ele>11.19</ele>
        <time>2023-09-01T11:32:20Z</time>
      </trkpt>
      <trkpt lat="55.995831023901701" lon="-4.972691964358091">
        <ele>11.19</ele>
        <time>2023-09-01T11:32:21Z</time>
      </trkpt>
      <trkpt lat="55.995807973667979" lon="-4.972777962684631">
        <ele>11.19</ele>
        <time>2023-09-01T11:32:22Z</time>
      </trkpt>
      <trkpt lat="55.995804034173489" lon="-4.972834037616849">
        <ele>11.67</ele>
        <time>2023-09-01T11:32:23Z</time>
      </trkpt>
      <trkpt lat="55.995800010859966" lon="-4.972909977659583">
        <ele>11.67</ele>
        <time>2023-09-01T11:32:24Z</time>
      </trkpt>
      <trkpt lat="55.995793975889683" lon="-4.973006034269929">
        <ele>12.15</ele>
        <time>2023-09-01T11:32:25Z</time>
      </trkpt>
      <trkpt lat="55.995805962011218" lon="-4.973250031471252">
        <ele>12.630000000000001</ele>
        <time>2023-09-01T11:32:27Z</time>
      </trkpt>
      <trkpt lat="55.995840998366475" lon="-4.973706007003784">
        <ele>13.6</ele>
        <time>2023-09-01T11:32:30Z</time>
      </trkpt>
      <trkpt lat="55.99585298448801" lon="-4.97386802919209">
        <ele>14.08</ele>
        <time>2023-09-01T11:32:31Z</time>
      </trkpt>
      <trkpt lat="55.995834963396192" lon="-4.974031979218125">
        <ele>14.08</ele>
        <time>2023-09-01T11:32:32Z</time>
      </trkpt>
      <trkpt lat="55.995805040001869" lon="-4.974205987527967">
        <ele>14.08</ele>
        <time>2023-09-01T11:32:33Z</time>
      </trkpt>
      <trkpt lat="55.995770003646612" lon="-4.974402962252498">
        <ele>14.08</ele>
        <time>2023-09-01T11:32:34Z</time>
      </trkpt>
      <trkpt lat="55.995721975341439" lon="-4.974564984440804">
        <ele>14.08</ele>
        <time>2023-09-01T11:32:35Z</time>
      </trkpt>
      <trkpt lat="55.995666990056634" lon="-4.974751984700561">
        <ele>14.08</ele>
        <time>2023-09-01T11:32:36Z</time>
      </trkpt>
      <trkpt lat="55.995546961203218" lon="-4.975153980776668">
        <ele>14.08</ele>
        <time>2023-09-01T11:32:38Z</time>
      </trkpt>
      <trkpt lat="55.995516031980515" lon="-4.975385991856456">
        <ele>14.56</ele>
        <time>2023-09-01T11:32:39Z</time>
      </trkpt>
      <trkpt lat="55.995492981746793" lon="-4.975633006542921">
        <ele>14.56</ele>
        <time>2023-09-01T11:32:40Z</time>
      </trkpt>
      <trkpt lat="55.995173966512084" lon="-4.978026039898396">
        <ele>15.52</ele>
        <time>2023-09-01T11:32:49Z</time>
      </trkpt>
      <trkpt lat="55.994389001280069" lon="-4.980319999158382">
        <ele>14.56</ele>
        <time>2023-09-01T11:32:58Z</time>
      </trkpt>
      <trkpt lat="55.99391701631248" lon="-4.982268959283829">
        <ele>14.56</ele>
        <time>2023-09-01T11:33:05Z</time>
      </trkpt>
      <trkpt lat="55.993421981111169" lon="-4.985897988080978">
        <ele>12.630000000000001</ele>
        <time>2023-09-01T11:33:17Z</time>
      </trkpt>
      <trkpt lat="55.993268005549908" lon="-4.986766017973423">
        <ele>11.67</ele>
        <time>2023-09-01T11:33:20Z</time>
      </trkpt>
      <trkpt lat="55.993190975859761" lon="-4.987040022388101">
        <ele>11.67</ele>
        <time>2023-09-01T11:33:21Z</time>
      </trkpt>
      <trkpt lat="55.993111012503505" lon="-4.987320983782411">
        <ele>11.67</ele>
        <time>2023-09-01T11:33:22Z</time>
      </trkpt>
      <trkpt lat="55.992493014782667" lon="-4.989264998584986">
        <ele>10.710000000000001</ele>
        <time>2023-09-01T11:33:29Z</time>
      </trkpt>
      <trkpt lat="55.991773009300232" lon="-4.99110097065568">
        <ele>9.27</ele>
        <time>2023-09-01T11:33:37Z</time>
      </trkpt>
      <trkpt lat="55.990970022976398" lon="-4.992178967222571">
        <ele>10.710000000000001</ele>
        <time>2023-09-01T11:33:43Z</time>
      </trkpt>
      <trkpt lat="55.989946005865932" lon="-4.993064012378454">
        <ele>16.960000000000001</ele>
        <time>2023-09-01T11:33:50Z</time>
      </trkpt>
      <trkpt lat="55.989591032266617" lon="-4.993366012349725">
        <ele>18.879999999999999</ele>
        <time>2023-09-01T11:33:53Z</time>
      </trkpt>
      <trkpt lat="55.989501010626554" lon="-4.993524011224508">
        <ele>19.84</ele>
        <time>2023-09-01T11:33:54Z</time>
      </trkpt>
      <trkpt lat="55.989401014521718" lon="-4.993698019534349">
        <ele>20.32</ele>
        <time>2023-09-01T11:33:55Z</time>
      </trkpt>
      <trkpt lat="55.988924000412226" lon="-4.994733016937971">
        <ele>22.73</ele>
        <time>2023-09-01T11:34:00Z</time>
      </trkpt>
      <trkpt lat="55.98886901512742" lon="-4.99496603384614">
        <ele>23.210000000000001</ele>
        <time>2023-09-01T11:34:01Z</time>
      </trkpt>
      <trkpt lat="55.988839007914066" lon="-4.995199972763658">
        <ele>23.690000000000001</ele>
        <time>2023-09-01T11:34:02Z</time>
      </trkpt>
      <trkpt lat="55.988839007914066" lon="-4.995451010763645">
        <ele>24.170000000000002</ele>
        <time>2023-09-01T11:34:03Z</time>
      </trkpt>
      <trkpt lat="55.988839007914066" lon="-4.995711017400026">
        <ele>24.649999999999999</ele>
        <time>2023-09-01T11:34:04Z</time>
      </trkpt>
      <trkpt lat="55.988839007914066" lon="-4.995982004329562">
        <ele>25.129999999999999</ele>
        <time>2023-09-01T11:34:05Z</time>
      </trkpt>
      <trkpt lat="55.988905979320407" lon="-4.996995963156223">
        <ele>27.050000000000001</ele>
        <time>2023-09-01T11:34:09Z</time>
      </trkpt>
      <trkpt lat="55.988943027332425" lon="-4.997210036963224">
        <ele>28.5</ele>
        <time>2023-09-01T11:34:10Z</time>
      </trkpt>
      <trkpt lat="55.989023996517062" lon="-4.997388990595937">
        <ele>30.420000000000002</ele>
        <time>2023-09-01T11:34:11Z</time>
      </trkpt>
      <trkpt lat="55.989172020927072" lon="-4.997792998328805">
        <ele>33.299999999999997</ele>
        <time>2023-09-01T11:34:13Z</time>
      </trkpt>
      <trkpt lat="55.989230023697019" lon="-4.998025009408593">
        <ele>33.780000000000001</ele>
        <time>2023-09-01T11:34:14Z</time>
      </trkpt>
      <trkpt lat="55.98925600759685" lon="-4.998285016044974">
        <ele>34.740000000000002</ele>
        <time>2023-09-01T11:34:15Z</time>
      </trkpt>
      <trkpt lat="55.989506961777806" lon="-5.000558020547032">
        <ele>44.359999999999999</ele>
        <time>2023-09-01T11:34:23Z</time>
      </trkpt>
      <trkpt lat="55.98996402695775" lon="-5.002891039475799">
        <ele>57.82</ele>
        <time>2023-09-01T11:34:31Z</time>
      </trkpt>
      <trkpt lat="55.990314977243543" lon="-5.005828980356455">
        <ele>73.680000000000007</ele>
        <time>2023-09-01T11:34:41Z</time>
      </trkpt>
      <trkpt lat="55.990299973636866" lon="-5.007577026262879">
        <ele>82.810000000000002</ele>
        <time>2023-09-01T11:34:48Z</time>
      </trkpt>
      <trkpt lat="55.989927984774113" lon="-5.009609973058105">
        <ele>90.019999999999996</ele>
        <time>2023-09-01T11:34:56Z</time>
      </trkpt>
      <trkpt lat="55.989733021706343" lon="-5.011667981743813">
        <ele>95.310000000000002</ele>
        <time>2023-09-01T11:35:06Z</time>
      </trkpt>
      <trkpt lat="55.989712988957763" lon="-5.013173036277294">
        <ele>96.269999999999996</ele>
        <time>2023-09-01T11:35:14Z</time>
      </trkpt>
      <trkpt lat="55.989719023928046" lon="-5.013520969077945">
        <ele>96.269999999999996</ele>
        <time>2023-09-01T11:35:16Z</time>
      </trkpt>
      <trkpt lat="55.98940696567297" lon="-5.015414021909237">
        <ele>96.269999999999996</ele>
        <time>2023-09-01T11:35:27Z</time>
      </trkpt>
      <trkpt lat="55.989306969568133" lon="-5.015943003818393">
        <ele>96.269999999999996</ele>
        <time>2023-09-01T11:35:30Z</time>
      </trkpt>
      <trkpt lat="55.98929900676012" lon="-5.016116006299853">
        <ele>96.269999999999996</ele>
        <time>2023-09-01T11:35:31Z</time>
      </trkpt>
      <trkpt lat="55.989290960133076" lon="-5.016288002952933">
        <ele>96.75</ele>
        <time>2023-09-01T11:35:32Z</time>
      </trkpt>
      <trkpt lat="55.98931803368032" lon="-5.016437033191323">
        <ele>96.75</ele>
        <time>2023-09-01T11:35:33Z</time>
      </trkpt>
      <trkpt lat="55.989353992044926" lon="-5.016598971560597">
        <ele>96.75</ele>
        <time>2023-09-01T11:35:34Z</time>
      </trkpt>
      <trkpt lat="55.989391040056944" lon="-5.016769962385297">
        <ele>96.75</ele>
        <time>2023-09-01T11:35:35Z</time>
      </trkpt>
      <trkpt lat="55.989432027563453" lon="-5.016953023150563">
        <ele>96.75</ele>
        <time>2023-09-01T11:35:36Z</time>
      </trkpt>
      <trkpt lat="55.989475026726723" lon="-5.017146980389953">
        <ele>96.269999999999996</ele>
        <time>2023-09-01T11:35:37Z</time>
      </trkpt>
      <trkpt lat="55.989820025861263" lon="-5.018711965531111">
        <ele>97.709999999999994</ele>
        <time>2023-09-01T11:35:45Z</time>
      </trkpt>
      <trkpt lat="55.989990010857582" lon="-5.019742017611861">
        <ele>98.670000000000002</ele>
        <time>2023-09-01T11:35:50Z</time>
      </trkpt>
      <trkpt lat="55.989999985322356" lon="-5.019958019256592">
        <ele>98.670000000000002</ele>
        <time>2023-09-01T11:35:51Z</time>
      </trkpt>
      <trkpt lat="55.990085983648896" lon="-5.02277098596096">
        <ele>99.629999999999995</ele>
        <time>2023-09-01T11:36:03Z</time>
      </trkpt>
      <trkpt lat="55.990090006962419" lon="-5.023312037810683">
        <ele>99.150000000000006</ele>
        <time>2023-09-01T11:36:05Z</time>
      </trkpt>
      <trkpt lat="55.990148009732366" lon="-5.025772964581847">
        <ele>96.75</ele>
        <time>2023-09-01T11:36:14Z</time>
      </trkpt>
      <trkpt lat="55.990266026929021" lon="-5.027147009968758">
        <ele>95.790000000000006</ele>
        <time>2023-09-01T11:36:19Z</time>
      </trkpt>
      <trkpt lat="55.990225039422512" lon="-5.029476005584002">
        <ele>98.670000000000002</ele>
        <time>2023-09-01T11:36:28Z</time>
      </trkpt>
      <trkpt lat="55.990248005837202" lon="-5.030811997130513">
        <ele>100.11</ele>
        <time>2023-09-01T11:36:33Z</time>
      </trkpt>
      <trkpt lat="55.990288993343711" lon="-5.031573995947838">
        <ele>100.59999999999999</ele>
        <time>2023-09-01T11:36:36Z</time>
      </trkpt>
      <trkpt lat="55.990312965586782" lon="-5.031809024512768">
        <ele>101.08</ele>
        <time>2023-09-01T11:36:37Z</time>
      </trkpt>
      <trkpt lat="55.990340961143374" lon="-5.032082023099065">
        <ele>101.08</ele>
        <time>2023-09-01T11:36:38Z</time>
      </trkpt>
      <trkpt lat="55.990467024967074" lon="-5.032444959506393">
        <ele>101.08</ele>
        <time>2023-09-01T11:36:40Z</time>
      </trkpt>
      <trkpt lat="55.991215026006103" lon="-5.034453012049198">
        <ele>103</ele>
        <time>2023-09-01T11:36:49Z</time>
      </trkpt>
      <trkpt lat="55.99204701371491" lon="-5.036702966317534">
        <ele>106.36</ele>
        <time>2023-09-01T11:36:59Z</time>
      </trkpt>
      <trkpt lat="55.992529978975654" lon="-5.038326038047671">
        <ele>108.29000000000001</ele>
        <time>2023-09-01T11:37:06Z</time>
      </trkpt>
      <trkpt lat="55.99254297092557" lon="-5.038589984178543">
        <ele>108.77</ele>
        <time>2023-09-01T11:37:07Z</time>
      </trkpt>
      <trkpt lat="55.992555040866137" lon="-5.03883901052177">
        <ele>108.77</ele>
        <time>2023-09-01T11:37:08Z</time>
      </trkpt>
      <trkpt lat="55.99265000782907" lon="-5.039932010695338">
        <ele>109.73</ele>
        <time>2023-09-01T11:37:13Z</time>
      </trkpt>
      <trkpt lat="55.992708010599017" lon="-5.040066037327051">
        <ele>109.73</ele>
        <time>2023-09-01T11:37:14Z</time>
      </trkpt>
      <trkpt lat="55.992784034460783" lon="-5.040204003453255">
        <ele>109.73</ele>
        <time>2023-09-01T11:37:15Z</time>
      </trkpt>
      <trkpt lat="55.993521977216005" lon="-5.041577965021133">
        <ele>113.09</ele>
        <time>2023-09-01T11:37:23Z</time>
      </trkpt>
      <trkpt lat="55.993615016341209" lon="-5.04178499802947">
        <ele>113.09</ele>
        <time>2023-09-01T11:37:24Z</time>
      </trkpt>
      <trkpt lat="55.993708977475762" lon="-5.041993036866188">
        <ele>113.09</ele>
        <time>2023-09-01T11:37:25Z</time>
      </trkpt>
      <trkpt lat="55.993766980245709" lon="-5.042241979390383">
        <ele>113.09</ele>
        <time>2023-09-01T11:37:26Z</time>
      </trkpt>
      <trkpt lat="55.993824983015656" lon="-5.04249301739037">
        <ele>113.56999999999999</ele>
        <time>2023-09-01T11:37:27Z</time>
      </trkpt>
      <trkpt lat="55.993863036856055" lon="-5.042756963521242">
        <ele>114.05</ele>
        <time>2023-09-01T11:37:28Z</time>
      </trkpt>
      <trkpt lat="55.993893966078758" lon="-5.043029962107539">
        <ele>114.05</ele>
        <time>2023-09-01T11:37:29Z</time>
      </trkpt>
      <trkpt lat="55.994171993806958" lon="-5.045303972437978">
        <ele>117.90000000000001</ele>
        <time>2023-09-01T11:37:38Z</time>
      </trkpt>
      <trkpt lat="55.994223961606622" lon="-5.045552998781204">
        <ele>118.86</ele>
        <time>2023-09-01T11:37:39Z</time>
      </trkpt>
      <trkpt lat="55.994299985468388" lon="-5.045787021517754">
        <ele>118.86</ele>
        <time>2023-09-01T11:37:40Z</time>
      </trkpt>
      <trkpt lat="55.994379026815295" lon="-5.046031018719077">
        <ele>119.34</ele>
        <time>2023-09-01T11:37:41Z</time>
      </trkpt>
      <trkpt lat="55.995171032845974" lon="-5.048446012660861">
        <ele>117.90000000000001</ele>
        <time>2023-09-01T11:37:50Z</time>
      </trkpt>
      <trkpt lat="55.996219022199512" lon="-5.051362998783588">
        <ele>117.90000000000001</ele>
        <time>2023-09-01T11:38:01Z</time>
      </trkpt>
      <trkpt lat="55.996684972196817" lon="-5.052660014480352">
        <ele>116.45999999999999</ele>
        <time>2023-09-01T11:38:08Z</time>
      </trkpt>
      <trkpt lat="55.99671296775341" lon="-5.052721034735441">
        <ele>116.45999999999999</ele>
        <time>2023-09-01T11:38:09Z</time>
      </trkpt>
      <trkpt lat="55.997090991586447" lon="-5.053489990532398">
        <ele>115.5</ele>
        <time>2023-09-01T11:38:16Z</time>
      </trkpt>
      <trkpt lat="55.997835975140333" lon="-5.054874010384083">
        <ele>115.5</ele>
        <time>2023-09-01T11:38:23Z</time>
      </trkpt>
      <trkpt lat="55.999409006908536" lon="-5.057793008163571">
        <ele>116.94</ele>
        <time>2023-09-01T11:38:36Z</time>
      </trkpt>
      <trkpt lat="56.000419026240706" lon="-5.059413984417915">
        <ele>117.42</ele>
        <time>2023-09-01T11:38:44Z</time>
      </trkpt>
      <trkpt lat="56.001851996406913" lon="-5.061510968953371">
        <ele>119.81999999999999</ele>
        <time>2023-09-01T11:38:54Z</time>
      </trkpt>
      <trkpt lat="56.003074999898672" lon="-5.063896961510181">
        <ele>122.22</ele>
        <time>2023-09-01T11:39:04Z</time>
      </trkpt>
      <trkpt lat="56.004437981173396" lon="-5.067120976746082">
        <ele>123.19</ele>
        <time>2023-09-01T11:39:17Z</time>
      </trkpt>
      <trkpt lat="56.005792999640107" lon="-5.07081001996994">
        <ele>123.19</ele>
        <time>2023-09-01T11:39:31Z</time>
      </trkpt>
      <trkpt lat="56.005902970209718" lon="-5.071020992472768">
        <ele>123.19</ele>
        <time>2023-09-01T11:39:32Z</time>
      </trkpt>
      <trkpt lat="56.006029034033418" lon="-5.071203969419003">
        <ele>123.67</ele>
        <time>2023-09-01T11:39:33Z</time>
      </trkpt>
      <trkpt lat="56.006693970412016" lon="-5.07231499068439">
        <ele>129.91999999999999</ele>
        <time>2023-09-01T11:39:40Z</time>
      </trkpt>
      <trkpt lat="56.00685004144907" lon="-5.072644986212254">
        <ele>130.88</ele>
        <time>2023-09-01T11:39:43Z</time>
      </trkpt>
      <trkpt lat="56.006952971220016" lon="-5.072979005053639">
        <ele>131.36000000000001</ele>
        <time>2023-09-01T11:39:45Z</time>
      </trkpt>
      <trkpt lat="56.007327977567911" lon="-5.074964007362723">
        <ele>135.19999999999999</ele>
        <time>2023-09-01T11:39:54Z</time>
      </trkpt>
      <trkpt lat="56.007465021684766" lon="-5.077218990772963">
        <ele>140.00999999999999</ele>
        <time>2023-09-01T11:40:03Z</time>
      </trkpt>
      <trkpt lat="56.007350021973252" lon="-5.079976972192526">
        <ele>144.81999999999999</ele>
        <time>2023-09-01T11:40:12Z</time>
      </trkpt>
      <trkpt lat="56.006951965391636" lon="-5.082334969192743">
        <ele>147.22</ele>
        <time>2023-09-01T11:40:20Z</time>
      </trkpt>
      <trkpt lat="56.006163982674479" lon="-5.085224965587258">
        <ele>147.22</ele>
        <time>2023-09-01T11:40:31Z</time>
      </trkpt>
      <trkpt lat="56.005231998860836" lon="-5.088646039366722">
        <ele>145.78</ele>
        <time>2023-09-01T11:40:43Z</time>
      </trkpt>
      <trkpt lat="56.004734029993415" lon="-5.090343961492181">
        <ele>143.84999999999999</ele>
        <time>2023-09-01T11:40:50Z</time>
      </trkpt>
      <trkpt lat="56.004150984808803" lon="-5.091835018247366">
        <ele>140.49000000000001</ele>
        <time>2023-09-01T11:40:57Z</time>
      </trkpt>
      <trkpt lat="56.004097005352378" lon="-5.091965021565557">
        <ele>140.49000000000001</ele>
        <time>2023-09-01T11:40:58Z</time>
      </trkpt>
      <trkpt lat="56.00367296487093" lon="-5.092816036194563">
        <ele>140.00999999999999</ele>
        <time>2023-09-01T11:41:04Z</time>
      </trkpt>
      <trkpt lat="56.0035640001297" lon="-5.092955008149147">
        <ele>139.53</ele>
        <time>2023-09-01T11:41:05Z</time>
      </trkpt>
      <trkpt lat="56.00320097990334" lon="-5.09341299533844">
        <ele>139.05000000000001</ele>
        <time>2023-09-01T11:41:08Z</time>
      </trkpt>
      <trkpt lat="56.003080029040575" lon="-5.093565965071321">
        <ele>139.05000000000001</ele>
        <time>2023-09-01T11:41:09Z</time>
      </trkpt>
      <trkpt lat="56.002966035157442" lon="-5.093733016401529">
        <ele>139.05000000000001</ele>
        <time>2023-09-01T11:41:10Z</time>
      </trkpt>
      <trkpt lat="56.001883009448647" lon="-5.09579898789525">
        <ele>135.19999999999999</ele>
        <time>2023-09-01T11:41:20Z</time>
      </trkpt>
      <trkpt lat="56.001069964841008" lon="-5.097849033772945">
        <ele>127.03</ele>
        <time>2023-09-01T11:41:27Z</time>
      </trkpt>
      <trkpt lat="56.000806018710136" lon="-5.098812030628324">
        <ele>123.67</ele>
        <time>2023-09-01T11:41:30Z</time>
      </trkpt>
      <trkpt lat="56.000733012333512" lon="-5.099130040034652">
        <ele>123.19</ele>
        <time>2023-09-01T11:41:31Z</time>
      </trkpt>
      <trkpt lat="56.000709962099791" lon="-5.099459029734135">
        <ele>121.73999999999999</ele>
        <time>2023-09-01T11:41:32Z</time>
      </trkpt>
      <trkpt lat="56.000690013170242" lon="-5.099791036918759">
        <ele>120.78</ele>
        <time>2023-09-01T11:41:33Z</time>
      </trkpt>
      <trkpt lat="56.000670986250043" lon="-5.100122038275003">
        <ele>119.81999999999999</ele>
        <time>2023-09-01T11:41:34Z</time>
      </trkpt>
      <trkpt lat="56.000677021220326" lon="-5.100453961640596">
        <ele>118.38</ele>
        <time>2023-09-01T11:41:35Z</time>
      </trkpt>
      <trkpt lat="56.0007060226053" lon="-5.100797032937408">
        <ele>116.94</ele>
        <time>2023-09-01T11:41:36Z</time>
      </trkpt>
      <trkpt lat="56.000734018161893" lon="-5.101143959909678">
        <ele>115.5</ele>
        <time>2023-09-01T11:41:37Z</time>
      </trkpt>
      <trkpt lat="56.000812975689769" lon="-5.10217702947557">
        <ele>111.65000000000001</ele>
        <time>2023-09-01T11:41:40Z</time>
      </trkpt>
      <trkpt lat="56.000800989568233" lon="-5.102491015568376">
        <ele>110.20999999999999</ele>
        <time>2023-09-01T11:41:42Z</time>
      </trkpt>
      <trkpt lat="56.00072898901999" lon="-5.103066014125943">
        <ele>109.25</ele>
        <time>2023-09-01T11:41:43Z</time>
      </trkpt>
      <trkpt lat="56.000330010429025" lon="-5.104930987581611">
        <ele>99.629999999999995</ele>
        <time>2023-09-01T11:41:50Z</time>
      </trkpt>
      <trkpt lat="56.00010696798563" lon="-5.105821983888745">
        <ele>92.900000000000006</ele>
        <time>2023-09-01T11:41:55Z</time>
      </trkpt>
      <trkpt lat="56.000082995742559" lon="-5.105917034670711">
        <ele>91.939999999999998</ele>
        <time>2023-09-01T11:41:56Z</time>
      </trkpt>
      <trkpt lat="56.000062040984631" lon="-5.106001021340489">
        <ele>90.5</ele>
        <time>2023-09-01T11:41:57Z</time>
      </trkpt>
      <trkpt lat="56.000005966052413" lon="-5.106228003278375">
        <ele>88.099999999999994</ele>
        <time>2023-09-01T11:41:59Z</time>
      </trkpt>
      <trkpt lat="55.99997797049582" lon="-5.106367981061339">
        <ele>86.659999999999997</ele>
        <time>2023-09-01T11:42:00Z</time>
      </trkpt>
      <trkpt lat="55.999947041273117" lon="-5.106542995199561">
        <ele>85.209999999999994</ele>
        <time>2023-09-01T11:42:01Z</time>
      </trkpt>
      <trkpt lat="55.999908987432718" lon="-5.106760002672672">
        <ele>83.769999999999996</ele>
        <time>2023-09-01T11:42:02Z</time>
      </trkpt>
      <trkpt lat="55.999866994097829" lon="-5.106994025409222">
        <ele>82.329999999999998</ele>
        <time>2023-09-01T11:42:03Z</time>
      </trkpt>
      <trkpt lat="55.999533981084824" lon="-5.109059996902943">
        <ele>68.870000000000005</ele>
        <time>2023-09-01T11:42:11Z</time>
      </trkpt>
      <trkpt lat="55.999517971649766" lon="-5.109314974397421">
        <ele>67.430000000000007</ele>
        <time>2023-09-01T11:42:12Z</time>
      </trkpt>
      <trkpt lat="55.999476984143257" lon="-5.111259995028377">
        <ele>57.82</ele>
        <time>2023-09-01T11:42:19Z</time>
      </trkpt>
      <trkpt lat="55.999509003013372" lon="-5.111540034413338">
        <ele>56.369999999999997</ele>
        <time>2023-09-01T11:42:20Z</time>
      </trkpt>
      <trkpt lat="55.999760963022709" lon="-5.112547958269715">
        <ele>51.090000000000003</ele>
        <time>2023-09-01T11:42:24Z</time>
      </trkpt>
      <trkpt lat="55.999803962185979" lon="-5.112831015139818">
        <ele>49.649999999999999</ele>
        <time>2023-09-01T11:42:25Z</time>
      </trkpt>
      <trkpt lat="55.999803962185979" lon="-5.113080041483045">
        <ele>48.68</ele>
        <time>2023-09-01T11:42:26Z</time>
      </trkpt>
      <trkpt lat="55.999803962185979" lon="-5.113308029249311">
        <ele>47.240000000000002</ele>
        <time>2023-09-01T11:42:27Z</time>
      </trkpt>
      <trkpt lat="55.999803962185979" lon="-5.113555965945125">
        <ele>46.280000000000001</ele>
        <time>2023-09-01T11:42:28Z</time>
      </trkpt>
      <trkpt lat="55.999818965792656" lon="-5.113828964531422">
        <ele>44.840000000000003</ele>
        <time>2023-09-01T11:42:29Z</time>
      </trkpt>
      <trkpt lat="55.999956009909511" lon="-5.115116005763412">
        <ele>40.509999999999998</ele>
        <time>2023-09-01T11:42:34Z</time>
      </trkpt>
      <trkpt lat="56.000022981315851" lon="-5.11530501767993">
        <ele>40.030000000000001</ele>
        <time>2023-09-01T11:42:35Z</time>
      </trkpt>
      <trkpt lat="56.000117026269436" lon="-5.115501992404461">
        <ele>39.07</ele>
        <time>2023-09-01T11:42:36Z</time>
      </trkpt>
      <trkpt lat="56.000211993232369" lon="-5.115701984614134">
        <ele>38.109999999999999</ele>
        <time>2023-09-01T11:42:37Z</time>
      </trkpt>
      <trkpt lat="56.000314000993967" lon="-5.115852020680904">
        <ele>37.630000000000003</ele>
        <time>2023-09-01T11:42:38Z</time>
      </trkpt>
      <trkpt lat="56.000417014583945" lon="-5.116000967100263">
        <ele>37.149999999999999</ele>
        <time>2023-09-01T11:42:39Z</time>
      </trkpt>
      <trkpt lat="56.00049102678895" lon="-5.116110015660524">
        <ele>36.670000000000002</ele>
        <time>2023-09-01T11:42:40Z</time>
      </trkpt>
      <trkpt lat="56.000592028722167" lon="-5.116152008995414">
        <ele>36.189999999999998</ele>
        <time>2023-09-01T11:42:41Z</time>
      </trkpt>
      <trkpt lat="56.000707028433681" lon="-5.116200037300587">
        <ele>35.710000000000001</ele>
        <time>2023-09-01T11:42:42Z</time>
      </trkpt>
      <trkpt lat="56.000939961522818" lon="-5.116297015920281">
        <ele>34.740000000000002</ele>
        <time>2023-09-01T11:42:44Z</time>
      </trkpt>
      <trkpt lat="56.001054961234331" lon="-5.116389971226454">
        <ele>34.259999999999998</ele>
        <time>2023-09-01T11:42:45Z</time>
      </trkpt>
      <trkpt lat="56.001235004514456" lon="-5.116631034761667">
        <ele>33.299999999999997</ele>
        <time>2023-09-01T11:42:47Z</time>
      </trkpt>
      <trkpt lat="56.001520995050669" lon="-5.117010986432433">
        <ele>30.420000000000002</ele>
        <time>2023-09-01T11:42:50Z</time>
      </trkpt>
      <trkpt lat="56.001816960051656" lon="-5.117173008620739">
        <ele>28.02</ele>
        <time>2023-09-01T11:42:52Z</time>
      </trkpt>
      <trkpt lat="56.001990968361497" lon="-5.117268981412053">
        <ele>27.050000000000001</ele>
        <time>2023-09-01T11:42:53Z</time>
      </trkpt>
      <trkpt lat="56.002897974103689" lon="-5.117765022441745">
        <ele>20.32</ele>
        <time>2023-09-01T11:42:59Z</time>
      </trkpt>
      <trkpt lat="56.003599036484957" lon="-5.118093006312847">
        <ele>12.15</ele>
        <time>2023-09-01T11:43:05Z</time>
      </trkpt>
      <trkpt lat="56.004980960860848" lon="-5.118698012083769">
        <ele>5.42</ele>
        <time>2023-09-01T11:43:14Z</time>
      </trkpt>
      <trkpt lat="56.005127979442477" lon="-5.118761966004968">
        <ele>4.46</ele>
        <time>2023-09-01T11:43:15Z</time>
      </trkpt>
      <trkpt lat="56.005405001342297" lon="-5.118953995406628">
        <ele>2.54</ele>
        <time>2023-09-01T11:43:17Z</time>
      </trkpt>
      <trkpt lat="56.005545984953642" lon="-5.119053991511464">
        <ele>1.58</ele>
        <time>2023-09-01T11:43:18Z</time>
      </trkpt>
      <trkpt lat="56.006032973527908" lon="-5.119436960667372">
        <ele>-2.27</ele>
        <time>2023-09-01T11:43:22Z</time>
      </trkpt>
      <trkpt lat="56.006131041795015" lon="-5.119561012834311">
        <ele>-3.71</ele>
        <time>2023-09-01T11:43:23Z</time>
      </trkpt>
      <trkpt lat="56.006463970988989" lon="-5.119925038889051">
        <ele>-6.59</ele>
        <time>2023-09-01T11:43:26Z</time>
      </trkpt>
      <trkpt lat="56.006564972922206" lon="-5.120019000023603">
        <ele>-7.55</ele>
        <time>2023-09-01T11:43:27Z</time>
      </trkpt>
      <trkpt lat="56.006706040352583" lon="-5.120022017508745">
        <ele>-8.029999999999999</ele>
        <time>2023-09-01T11:43:28Z</time>
      </trkpt>
      <trkpt lat="56.006797989830375" lon="-5.12001003138721">
        <ele>-8.029999999999999</ele>
        <time>2023-09-01T11:43:29Z</time>
      </trkpt>
      <trkpt lat="56.006917012855411" lon="-5.119995027780533">
        <ele>-8.51</ele>
        <time>2023-09-01T11:43:30Z</time>
      </trkpt>
      <trkpt lat="56.007016003131866" lon="-5.119983041658998">
        <ele>-7.55</ele>
        <time>2023-09-01T11:43:31Z</time>
      </trkpt>
      <trkpt lat="56.008189972490072" lon="-5.119564030319452">
        <ele>-7.55</ele>
        <time>2023-09-01T11:43:39Z</time>
      </trkpt>
      <trkpt lat="56.009313985705376" lon="-5.119179971516132">
        <ele>-5.63</ele>
        <time>2023-09-01T11:43:47Z</time>
      </trkpt>
      <trkpt lat="56.01005301810801" lon="-5.119179971516132">
        <ele>-2.75</ele>
        <time>2023-09-01T11:43:52Z</time>
      </trkpt>
      <trkpt lat="56.010200958698988" lon="-5.119226993992925">
        <ele>-2.75</ele>
        <time>2023-09-01T11:43:53Z</time>
      </trkpt>
      <trkpt lat="56.010345965623856" lon="-5.119288014248014">
        <ele>-2.75</ele>
        <time>2023-09-01T11:43:54Z</time>
      </trkpt>
      <trkpt lat="56.010476974770427" lon="-5.119402008131146">
        <ele>-2.75</ele>
        <time>2023-09-01T11:43:55Z</time>
      </trkpt>
      <trkpt lat="56.010609995573759" lon="-5.11951700784266">
        <ele>-2.27</ele>
        <time>2023-09-01T11:43:56Z</time>
      </trkpt>
      <trkpt lat="56.011005034670234" lon="-5.119928978383541">
        <ele>-1.3</ele>
        <time>2023-09-01T11:43:59Z</time>
      </trkpt>
      <trkpt lat="56.011110981926322" lon="-5.120125031098723">
        <ele>-0.82</ele>
        <time>2023-09-01T11:44:00Z</time>
      </trkpt>
      <trkpt lat="56.01121298968792" lon="-5.12031395919621">
        <ele>-0.34</ele>
        <time>2023-09-01T11:44:01Z</time>
      </trkpt>
      <trkpt lat="56.011302005499601" lon="-5.120515963062644">
        <ele>0.14</ele>
        <time>2023-09-01T11:44:02Z</time>
      </trkpt>
      <trkpt lat="56.011350033804774" lon="-5.120705980807543">
        <ele>0.62</ele>
        <time>2023-09-01T11:44:03Z</time>
      </trkpt>
      <trkpt lat="56.011420022696257" lon="-5.120987026020885">
        <ele>1.58</ele>
        <time>2023-09-01T11:44:05Z</time>
      </trkpt>
      <trkpt lat="56.011477019637823" lon="-5.121217025443912">
        <ele>3.5</ele>
        <time>2023-09-01T11:44:11Z</time>
      </trkpt>
      <trkpt lat="56.011532004922628" lon="-5.121797975152731">
        <ele>3.98</ele>
        <time>2023-09-01T11:44:18Z</time>
      </trkpt>
      <trkpt lat="56.011538961902261" lon="-5.121980030089617">
        <ele>3.98</ele>
        <time>2023-09-01T11:44:19Z</time>
      </trkpt>
      <trkpt lat="56.011529993265867" lon="-5.122199971228838">
        <ele>4.46</ele>
        <time>2023-09-01T11:44:20Z</time>
      </trkpt>
      <trkpt lat="56.011520018801093" lon="-5.122440028935671">
        <ele>4.46</ele>
        <time>2023-09-01T11:44:21Z</time>
      </trkpt>
      <trkpt lat="56.011474002152681" lon="-5.122686037793756">
        <ele>4.94</ele>
        <time>2023-09-01T11:44:22Z</time>
      </trkpt>
      <trkpt lat="56.011423040181398" lon="-5.122950989753008">
        <ele>4.94</ele>
        <time>2023-09-01T11:44:23Z</time>
      </trkpt>
      <trkpt lat="56.011369982734323" lon="-5.123233962804079">
        <ele>4.94</ele>
        <time>2023-09-01T11:44:24Z</time>
      </trkpt>
      <trkpt lat="56.01127996109426" lon="-5.123463962227106">
        <ele>4.94</ele>
        <time>2023-09-01T11:44:25Z</time>
      </trkpt>
      <trkpt lat="56.011185999959707" lon="-5.123704019933939">
        <ele>4.46</ele>
        <time>2023-09-01T11:44:26Z</time>
      </trkpt>
      <trkpt lat="56.010815016925335" lon="-5.124507006257772">
        <ele>4.94</ele>
        <time>2023-09-01T11:44:30Z</time>
      </trkpt>
      <trkpt lat="56.009942963719368" lon="-5.125510990619659">
        <ele>5.91</ele>
        <time>2023-09-01T11:44:37Z</time>
      </trkpt>
      <trkpt lat="56.009123967960477" lon="-5.126342978328466">
        <ele>5.42</ele>
        <time>2023-09-01T11:44:43Z</time>
      </trkpt>
      <trkpt lat="56.00897703319788" lon="-5.126456972211599">
        <ele>5.42</ele>
        <time>2023-09-01T11:44:44Z</time>
      </trkpt>
      <trkpt lat="56.008824985474348" lon="-5.126515980809927">
        <ele>4.94</ele>
        <time>2023-09-01T11:44:45Z</time>
      </trkpt>
      <trkpt lat="56.007387991994619" lon="-5.127261970192194">
        <ele>4.94</ele>
        <time>2023-09-01T11:44:55Z</time>
      </trkpt>
      <trkpt lat="56.006431030109525" lon="-5.127774020656943">
        <ele>5.42</ele>
        <time>2023-09-01T11:45:02Z</time>
      </trkpt>
      <trkpt lat="56.006305972114205" lon="-5.127895977348089">
        <ele>5.91</ele>
        <time>2023-09-01T11:45:03Z</time>
      </trkpt>
      <trkpt lat="56.005159998312593" lon="-5.129229035228491">
        <ele>8.789999999999999</ele>
        <time>2023-09-01T11:45:12Z</time>
      </trkpt>
      <trkpt lat="56.004927987232804" lon="-5.129460962489247">
        <ele>11.19</ele>
        <time>2023-09-01T11:45:14Z</time>
      </trkpt>
      <trkpt lat="56.004822039976716" lon="-5.129527011886239">
        <ele>12.15</ele>
        <time>2023-09-01T11:45:15Z</time>
      </trkpt>
      <trkpt lat="56.004697987809777" lon="-5.129542015492916">
        <ele>13.119999999999999</ele>
        <time>2023-09-01T11:45:16Z</time>
      </trkpt>
      <trkpt lat="56.004563961178064" lon="-5.129559030756354">
        <ele>14.08</ele>
        <time>2023-09-01T11:45:17Z</time>
      </trkpt>
      <trkpt lat="56.004418032243848" lon="-5.129563976079226">
        <ele>15.039999999999999</ele>
        <time>2023-09-01T11:45:18Z</time>
      </trkpt>
      <trkpt lat="56.004270007833838" lon="-5.129563976079226">
        <ele>16</ele>
        <time>2023-09-01T11:45:19Z</time>
      </trkpt>
      <trkpt lat="56.00412298925221" lon="-5.129574034363031">
        <ele>16.960000000000001</ele>
        <time>2023-09-01T11:45:20Z</time>
      </trkpt>
      <trkpt lat="56.002841982990503" lon="-5.130307031795383">
        <ele>29.940000000000001</ele>
        <time>2023-09-01T11:45:28Z</time>
      </trkpt>
      <trkpt lat="56.001273980364203" lon="-5.130679020658135">
        <ele>40.990000000000002</ele>
        <time>2023-09-01T11:45:38Z</time>
      </trkpt>
      <trkpt lat="55.999505985528231" lon="-5.131112029775977">
        <ele>45.799999999999997</ele>
        <time>2023-09-01T11:45:48Z</time>
      </trkpt>
      <trkpt lat="55.998244006186724" lon="-5.131337000057101">
        <ele>50.130000000000003</ele>
        <time>2023-09-01T11:45:56Z</time>
      </trkpt>
      <trkpt lat="55.997972013428807" lon="-5.13131101615727">
        <ele>50.609999999999999</ele>
        <time>2023-09-01T11:45:58Z</time>
      </trkpt>
      <trkpt lat="55.99782801233232" lon="-5.131314033642411">
        <ele>51.090000000000003</ele>
        <time>2023-09-01T11:45:59Z</time>
      </trkpt>
      <trkpt lat="55.996953025460243" lon="-5.13154897838831">
        <ele>51.090000000000003</ele>
        <time>2023-09-01T11:46:04Z</time>
      </trkpt>
      <trkpt lat="55.996423959732056" lon="-5.131697002798319">
        <ele>51.090000000000003</ele>
        <time>2023-09-01T11:46:07Z</time>
      </trkpt>
      <trkpt lat="55.996263027191162" lon="-5.131823988631368">
        <ele>51.57</ele>
        <time>2023-09-01T11:46:08Z</time>
      </trkpt>
      <trkpt lat="55.996101005002856" lon="-5.131951980292797">
        <ele>52.049999999999997</ele>
        <time>2023-09-01T11:46:09Z</time>
      </trkpt>
      <trkpt lat="55.995243033394217" lon="-5.132897039875388">
        <ele>58.299999999999997</ele>
        <time>2023-09-01T11:46:15Z</time>
      </trkpt>
      <trkpt lat="55.995017979294062" lon="-5.133195016533136">
        <ele>61.18</ele>
        <time>2023-09-01T11:46:17Z</time>
      </trkpt>
      <trkpt lat="55.994899040088058" lon="-5.133330971002579">
        <ele>62.619999999999997</ele>
        <time>2023-09-01T11:46:18Z</time>
      </trkpt>
      <trkpt lat="55.993689028546214" lon="-5.134522961452603">
        <ele>77.519999999999996</ele>
        <time>2023-09-01T11:46:27Z</time>
      </trkpt>
      <trkpt lat="55.993559025228024" lon="-5.134651958942413">
        <ele>79.450000000000003</ele>
        <time>2023-09-01T11:46:28Z</time>
      </trkpt>
      <trkpt lat="55.993455005809665" lon="-5.13485899195075">
        <ele>81.370000000000005</ele>
        <time>2023-09-01T11:46:29Z</time>
      </trkpt>
      <trkpt lat="55.993352998048067" lon="-5.135096032172442">
        <ele>83.290000000000006</ele>
        <time>2023-09-01T11:46:30Z</time>
      </trkpt>
      <trkpt lat="55.993264988064766" lon="-5.135348998010159">
        <ele>85.209999999999994</ele>
        <time>2023-09-01T11:46:31Z</time>
      </trkpt>
      <trkpt lat="55.993090979754925" lon="-5.135851996019483">
        <ele>89.540000000000006</ele>
        <time>2023-09-01T11:46:33Z</time>
      </trkpt>
      <trkpt lat="55.993001963943243" lon="-5.136107979342341">
        <ele>91.459999999999994</ele>
        <time>2023-09-01T11:46:34Z</time>
      </trkpt>
      <trkpt lat="55.992859974503517" lon="-5.13629799708724">
        <ele>94.349999999999994</ele>
        <time>2023-09-01T11:46:35Z</time>
      </trkpt>
      <trkpt lat="55.991778960451484" lon="-5.137739013880491">
        <ele>113.09</ele>
        <time>2023-09-01T11:46:43Z</time>
      </trkpt>
      <trkpt lat="55.991729004308581" lon="-5.137920984998345">
        <ele>115.01000000000001</ele>
        <time>2023-09-01T11:46:44Z</time>
      </trkpt>
      <trkpt lat="55.991662032902241" lon="-5.13816699385643">
        <ele>117.90000000000001</ele>
        <time>2023-09-01T11:46:45Z</time>
      </trkpt>
      <trkpt lat="55.991289960220456" lon="-5.139526035636663">
        <ele>127.98999999999999</ele>
        <time>2023-09-01T11:46:50Z</time>
      </trkpt>
      <trkpt lat="55.991218965500593" lon="-5.139824012294412">
        <ele>129.91999999999999</ele>
        <time>2023-09-01T11:46:51Z</time>
      </trkpt>
      <trkpt lat="55.991204967722297" lon="-5.140134980902076">
        <ele>131.84</ele>
        <time>2023-09-01T11:46:52Z</time>
      </trkpt>
      <trkpt lat="55.991134978830814" lon="-5.141857964918017">
        <ele>140.97</ele>
        <time>2023-09-01T11:46:59Z</time>
      </trkpt>
      <trkpt lat="55.991079993546009" lon="-5.143211977556348">
        <ele>145.30000000000001</ele>
        <time>2023-09-01T11:47:06Z</time>
      </trkpt>
      <trkpt lat="55.991053003817797" lon="-5.143742971122265">
        <ele>145.78</ele>
        <time>2023-09-01T11:47:08Z</time>
      </trkpt>
      <trkpt lat="55.990969017148018" lon="-5.146084036678076">
        <ele>144.34</ele>
        <time>2023-09-01T11:47:16Z</time>
      </trkpt>
      <trkpt lat="55.991012016311288" lon="-5.146349994465709">
        <ele>143.84999999999999</ele>
        <time>2023-09-01T11:47:17Z</time>
      </trkpt>
      <trkpt lat="55.9910580329597" lon="-5.146636990830302">
        <ele>142.41</ele>
        <time>2023-09-01T11:47:18Z</time>
      </trkpt>
      <trkpt lat="55.991373024880886" lon="-5.148601038381457">
        <ele>137.13</ele>
        <time>2023-09-01T11:47:25Z</time>
      </trkpt>
      <trkpt lat="55.991377970203757" lon="-5.148798013105989">
        <ele>136.63999999999999</ele>
        <time>2023-09-01T11:47:26Z</time>
      </trkpt>
      <trkpt lat="55.991341006010771" lon="-5.148984007537365">
        <ele>135.68000000000001</ele>
        <time>2023-09-01T11:47:27Z</time>
      </trkpt>
      <trkpt lat="55.99129599519074" lon="-5.149177964776754">
        <ele>134.24000000000001</ele>
        <time>2023-09-01T11:47:28Z</time>
      </trkpt>
      <trkpt lat="55.991199016571045" lon="-5.149378962814808">
        <ele>132.80000000000001</ele>
        <time>2023-09-01T11:47:29Z</time>
      </trkpt>
      <trkpt lat="55.991089968010783" lon="-5.149603011086583">
        <ele>131.36000000000001</ele>
        <time>2023-09-01T11:47:30Z</time>
      </trkpt>
      <trkpt lat="55.990976979956031" lon="-5.149838961660862">
        <ele>129.91999999999999</ele>
        <time>2023-09-01T11:47:31Z</time>
      </trkpt>
      <trkpt lat="55.98977199755609" lon="-5.152311958372593">
        <ele>116.45999999999999</ele>
        <time>2023-09-01T11:47:41Z</time>
      </trkpt>
      <trkpt lat="55.988705987110734" lon="-5.154628967866302">
        <ele>104.44</ele>
        <time>2023-09-01T11:47:51Z</time>
      </trkpt>
      <trkpt lat="55.988143980503082" lon="-5.156217003241181">
        <ele>95.790000000000006</ele>
        <time>2023-09-01T11:47:58Z</time>
      </trkpt>
      <trkpt lat="55.988105004653335" lon="-5.156480027362704">
        <ele>94.349999999999994</ele>
        <time>2023-09-01T11:47:59Z</time>
      </trkpt>
      <trkpt lat="55.988081032410264" lon="-5.156747996807098">
        <ele>92.900000000000006</ele>
        <time>2023-09-01T11:48:00Z</time>
      </trkpt>
      <trkpt lat="55.988065022975206" lon="-5.157016972079873">
        <ele>91.939999999999998</ele>
        <time>2023-09-01T11:48:01Z</time>
      </trkpt>
      <trkpt lat="55.988058988004923" lon="-5.157301034778357">
        <ele>90.980000000000004</ele>
        <time>2023-09-01T11:48:02Z</time>
      </trkpt>
      <trkpt lat="55.98805395886302" lon="-5.157595993950963">
        <ele>90.5</ele>
        <time>2023-09-01T11:48:03Z</time>
      </trkpt>
      <trkpt lat="55.98800802603364" lon="-5.159957008436322">
        <ele>88.099999999999994</ele>
        <time>2023-09-01T11:48:11Z</time>
      </trkpt>
      <trkpt lat="55.987970978021622" lon="-5.163225028663874">
        <ele>82.329999999999998</ele>
        <time>2023-09-01T11:48:21Z</time>
      </trkpt>
      <trkpt lat="55.988005008548498" lon="-5.165398959070444">
        <ele>73.200000000000003</ele>
        <time>2023-09-01T11:48:28Z</time>
      </trkpt>
      <trkpt lat="55.988023029640317" lon="-5.166557002812624">
        <ele>68.870000000000005</ele>
        <time>2023-09-01T11:48:34Z</time>
      </trkpt>
      <trkpt lat="55.988021017983556" lon="-5.166695974767208">
        <ele>68.390000000000001</ele>
        <time>2023-09-01T11:48:35Z</time>
      </trkpt>
      <trkpt lat="55.988015988841653" lon="-5.166855985298753">
        <ele>67.909999999999997</ele>
        <time>2023-09-01T11:48:36Z</time>
      </trkpt>
      <trkpt lat="55.987933008000255" lon="-5.168558014556766">
        <ele>65.510000000000005</ele>
        <time>2023-09-01T11:48:44Z</time>
      </trkpt>
      <trkpt lat="55.987748019397259" lon="-5.170644018799067">
        <ele>61.659999999999997</ele>
        <time>2023-09-01T11:48:51Z</time>
      </trkpt>
      <trkpt lat="55.987359015271068" lon="-5.172569006681442">
        <ele>56.369999999999997</ele>
        <time>2023-09-01T11:48:57Z</time>
      </trkpt>
      <trkpt lat="55.987283997237682" lon="-5.173181975260377">
        <ele>54.450000000000003</ele>
        <time>2023-09-01T11:48:59Z</time>
      </trkpt>
      <trkpt lat="55.987254995852709" lon="-5.173479029908776">
        <ele>53.490000000000002</ele>
        <time>2023-09-01T11:49:00Z</time>
      </trkpt>
      <trkpt lat="55.987271005287766" lon="-5.173771977424622">
        <ele>52.530000000000001</ele>
        <time>2023-09-01T11:49:01Z</time>
      </trkpt>
      <trkpt lat="55.987291960045695" lon="-5.174070037901402">
        <ele>51.57</ele>
        <time>2023-09-01T11:49:02Z</time>
      </trkpt>
      <trkpt lat="55.987316016107798" lon="-5.174388969317079">
        <ele>50.609999999999999</ele>
        <time>2023-09-01T11:49:03Z</time>
      </trkpt>
      <trkpt lat="55.987361026927829" lon="-5.174672026187182">
        <ele>49.159999999999997</ele>
        <time>2023-09-01T11:49:04Z</time>
      </trkpt>
      <trkpt lat="55.987407965585589" lon="-5.174958016723394">
        <ele>48.200000000000003</ele>
        <time>2023-09-01T11:49:05Z</time>
      </trkpt>
      <trkpt lat="55.987452976405621" lon="-5.175240989774466">
        <ele>46.759999999999998</ele>
        <time>2023-09-01T11:49:06Z</time>
      </trkpt>
      <trkpt lat="55.987498993054032" lon="-5.175523040816188">
        <ele>45.799999999999997</ele>
        <time>2023-09-01T11:49:07Z</time>
      </trkpt>
      <trkpt lat="55.987534029409289" lon="-5.17580802552402">
        <ele>44.840000000000003</ele>
        <time>2023-09-01T11:49:08Z</time>
      </trkpt>
      <trkpt lat="55.987536963075399" lon="-5.177800990641117">
        <ele>39.07</ele>
        <time>2023-09-01T11:49:15Z</time>
      </trkpt>
      <trkpt lat="55.987538974732161" lon="-5.178060997277498">
        <ele>38.109999999999999</ele>
        <time>2023-09-01T11:49:16Z</time>
      </trkpt>
      <trkpt lat="55.987571999430656" lon="-5.178308011963964">
        <ele>37.149999999999999</ele>
        <time>2023-09-01T11:49:17Z</time>
      </trkpt>
      <trkpt lat="55.987604018300772" lon="-5.178555026650429">
        <ele>36.189999999999998</ele>
        <time>2023-09-01T11:49:18Z</time>
      </trkpt>
      <trkpt lat="55.987636959180236" lon="-5.178806986659765">
        <ele>35.229999999999997</ele>
        <time>2023-09-01T11:49:19Z</time>
      </trkpt>
      <trkpt lat="55.987710971385241" lon="-5.179023994132876">
        <ele>34.259999999999998</ele>
        <time>2023-09-01T11:49:20Z</time>
      </trkpt>
      <trkpt lat="55.987780038267374" lon="-5.179225997999311">
        <ele>33.299999999999997</ele>
        <time>2023-09-01T11:49:21Z</time>
      </trkpt>
      <trkpt lat="55.987841980531812" lon="-5.179405035451055">
        <ele>32.340000000000003</ele>
        <time>2023-09-01T11:49:22Z</time>
      </trkpt>
      <trkpt lat="55.987895037978888" lon="-5.179560016840696">
        <ele>31.379999999999999</ele>
        <time>2023-09-01T11:49:23Z</time>
      </trkpt>
      <trkpt lat="55.987895037978888" lon="-5.179698988795281">
        <ele>30.420000000000002</ele>
        <time>2023-09-01T11:49:24Z</time>
      </trkpt>
      <trkpt lat="55.987895037978888" lon="-5.179818011820316">
        <ele>29.940000000000001</ele>
        <time>2023-09-01T11:49:25Z</time>
      </trkpt>
      <trkpt lat="55.987867964431643" lon="-5.17989001236856">
        <ele>28.98</ele>
        <time>2023-09-01T11:49:26Z</time>
      </trkpt>
      <trkpt lat="55.987839968875051" lon="-5.179966036230326">
        <ele>27.530000000000001</ele>
        <time>2023-09-01T11:49:27Z</time>
      </trkpt>
      <trkpt lat="55.987822031602263" lon="-5.180013980716467">
        <ele>26.57</ele>
        <time>2023-09-01T11:49:28Z</time>
      </trkpt>
      <trkpt lat="55.987788001075387" lon="-5.180104002356529">
        <ele>22.73</ele>
        <time>2023-09-01T11:49:33Z</time>
      </trkpt>
      <trkpt lat="55.987798981368542" lon="-5.180215984582901">
        <ele>22.25</ele>
        <time>2023-09-01T11:49:34Z</time>
      </trkpt>
      <trkpt lat="55.987838041037321" lon="-5.180282033979893">
        <ele>21.77</ele>
        <time>2023-09-01T11:49:35Z</time>
      </trkpt>
      <trkpt lat="55.987886991351843" lon="-5.180366020649672">
        <ele>21.289999999999999</ele>
        <time>2023-09-01T11:49:36Z</time>
      </trkpt>
      <trkpt lat="55.987951029092073" lon="-5.180473979562521">
        <ele>20.32</ele>
        <time>2023-09-01T11:49:37Z</time>
      </trkpt>
      <trkpt lat="55.988548994064331" lon="-5.181511994451284">
        <ele>17.440000000000001</ele>
        <time>2023-09-01T11:49:43Z</time>
      </trkpt>
      <trkpt lat="55.989529006183147" lon="-5.18375800922513">
        <ele>13.6</ele>
        <time>2023-09-01T11:49:51Z</time>
      </trkpt>
      <trkpt lat="55.990289999172091" lon="-5.186418006196618">
        <ele>14.56</ele>
        <time>2023-09-01T11:49:59Z</time>
      </trkpt>
      <trkpt lat="55.990356970578432" lon="-5.186740038916469">
        <ele>15.039999999999999</ele>
        <time>2023-09-01T11:50:00Z</time>
      </trkpt>
      <trkpt lat="55.990723008289933" lon="-5.188980018720031">
        <ele>19.359999999999999</ele>
        <time>2023-09-01T11:50:08Z</time>
      </trkpt>
      <trkpt lat="55.990830967202783" lon="-5.189700024202466">
        <ele>23.210000000000001</ele>
        <time>2023-09-01T11:50:11Z</time>
      </trkpt>
      <trkpt lat="55.991375036537647" lon="-5.192104037851095">
        <ele>28.98</ele>
        <time>2023-09-01T11:50:20Z</time>
      </trkpt>
      <trkpt lat="55.992187997326255" lon="-5.194205967709422">
        <ele>31.379999999999999</ele>
        <time>2023-09-01T11:50:28Z</time>
      </trkpt>
      <trkpt lat="55.992751009762287" lon="-5.196569999679923">
        <ele>33.780000000000001</ele>
        <time>2023-09-01T11:50:36Z</time>
      </trkpt>
      <trkpt lat="55.992820998653769" lon="-5.197224961593747">
        <ele>34.740000000000002</ele>
        <time>2023-09-01T11:50:38Z</time>
      </trkpt>
      <trkpt lat="55.992922000586987" lon="-5.199800971895456">
        <ele>36.189999999999998</ele>
        <time>2023-09-01T11:50:46Z</time>
      </trkpt>
      <trkpt lat="55.992963993921876" lon="-5.200442019850016">
        <ele>35.710000000000001</ele>
        <time>2023-09-01T11:50:48Z</time>
      </trkpt>
      <trkpt lat="55.992985032498837" lon="-5.200761035084724">
        <ele>35.710000000000001</ele>
        <time>2023-09-01T11:50:49Z</time>
      </trkpt>
      <trkpt lat="55.993114029988647" lon="-5.201668962836266">
        <ele>35.710000000000001</ele>
        <time>2023-09-01T11:50:52Z</time>
      </trkpt>
      <trkpt lat="55.993216959759593" lon="-5.202261982485652">
        <ele>35.229999999999997</ele>
        <time>2023-09-01T11:50:54Z</time>
      </trkpt>
      <trkpt lat="55.993305975571275" lon="-5.20255601964891">
        <ele>35.229999999999997</ele>
        <time>2023-09-01T11:50:55Z</time>
      </trkpt>
      <trkpt lat="55.993580985814333" lon="-5.203464031219482">
        <ele>34.259999999999998</ele>
        <time>2023-09-01T11:50:58Z</time>
      </trkpt>
      <trkpt lat="55.994042996317148" lon="-5.204575974494219">
        <ele>33.299999999999997</ele>
        <time>2023-09-01T11:51:02Z</time>
      </trkpt>
      <trkpt lat="55.994213987141848" lon="-5.204828018322587">
        <ele>33.780000000000001</ele>
        <time>2023-09-01T11:51:03Z</time>
      </trkpt>
      <trkpt lat="55.995192993432283" lon="-5.205798977985978">
        <ele>34.259999999999998</ele>
        <time>2023-09-01T11:51:08Z</time>
      </trkpt>
      <trkpt lat="55.995412012562156" lon="-5.205888999626041">
        <ele>34.740000000000002</ele>
        <time>2023-09-01T11:51:09Z</time>
      </trkpt>
      <trkpt lat="55.995635977014899" lon="-5.205941973254085">
        <ele>34.740000000000002</ele>
        <time>2023-09-01T11:51:10Z</time>
      </trkpt>
      <trkpt lat="55.99653703160584" lon="-5.206308010965586">
        <ele>34.740000000000002</ele>
        <time>2023-09-01T11:51:14Z</time>
      </trkpt>
      <trkpt lat="55.996743980795145" lon="-5.206471038982272">
        <ele>34.259999999999998</ele>
        <time>2023-09-01T11:51:15Z</time>
      </trkpt>
      <trkpt lat="55.996930981054902" lon="-5.2066629845649">
        <ele>34.259999999999998</ele>
        <time>2023-09-01T11:51:16Z</time>
      </trkpt>
      <trkpt lat="55.997114041820168" lon="-5.206879992038012">
        <ele>33.780000000000001</ele>
        <time>2023-09-01T11:51:17Z</time>
      </trkpt>
      <trkpt lat="55.997283020988107" lon="-5.207089958712459">
        <ele>34.259999999999998</ele>
        <time>2023-09-01T11:51:18Z</time>
      </trkpt>
      <trkpt lat="55.997430961579084" lon="-5.207372009754181">
        <ele>34.259999999999998</ele>
        <time>2023-09-01T11:51:19Z</time>
      </trkpt>
      <trkpt lat="55.997577980160713" lon="-5.20765095949173">
        <ele>34.259999999999998</ele>
        <time>2023-09-01T11:51:20Z</time>
      </trkpt>
      <trkpt lat="55.997713012620807" lon="-5.207921024411917">
        <ele>34.259999999999998</ele>
        <time>2023-09-01T11:51:21Z</time>
      </trkpt>
      <trkpt lat="55.997821977362037" lon="-5.208245990797877">
        <ele>34.259999999999998</ele>
        <time>2023-09-01T11:51:22Z</time>
      </trkpt>
      <trkpt lat="55.997931025922298" lon="-5.208571963012219">
        <ele>34.259999999999998</ele>
        <time>2023-09-01T11:51:23Z</time>
      </trkpt>
      <trkpt lat="55.99802297540009" lon="-5.208849990740418">
        <ele>34.259999999999998</ele>
        <time>2023-09-01T11:51:24Z</time>
      </trkpt>
      <trkpt lat="55.998080978170037" lon="-5.20921602845192">
        <ele>34.259999999999998</ele>
        <time>2023-09-01T11:51:25Z</time>
      </trkpt>
      <trkpt lat="55.998136969283223" lon="-5.209569996222854">
        <ele>34.259999999999998</ele>
        <time>2023-09-01T11:51:26Z</time>
      </trkpt>
      <trkpt lat="55.998192960396409" lon="-5.20992698147893">
        <ele>33.780000000000001</ele>
        <time>2023-09-01T11:51:27Z</time>
      </trkpt>
      <trkpt lat="55.998626975342631" lon="-5.212367959320545">
        <ele>33.780000000000001</ele>
        <time>2023-09-01T11:51:34Z</time>
      </trkpt>
      <trkpt lat="55.998700987547636" lon="-5.212689992040396">
        <ele>34.259999999999998</ele>
        <time>2023-09-01T11:51:35Z</time>
      </trkpt>
      <trkpt lat="55.998805006965995" lon="-5.21299903281033">
        <ele>34.259999999999998</ele>
        <time>2023-09-01T11:51:36Z</time>
      </trkpt>
      <trkpt lat="55.999161992222071" lon="-5.213770000264049">
        <ele>36.189999999999998</ele>
        <time>2023-09-01T11:51:39Z</time>
      </trkpt>
      <trkpt lat="55.999302975833416" lon="-5.213977033272386">
        <ele>36.670000000000002</ele>
        <time>2023-09-01T11:51:40Z</time>
      </trkpt>
      <trkpt lat="55.999469021335244" lon="-5.214163027703762">
        <ele>37.630000000000003</ele>
        <time>2023-09-01T11:51:41Z</time>
      </trkpt>
      <trkpt lat="55.99961101077497" lon="-5.214322032406926">
        <ele>37.630000000000003</ele>
        <time>2023-09-01T11:51:42Z</time>
      </trkpt>
      <trkpt lat="55.999802034348249" lon="-5.214469972997904">
        <ele>38.109999999999999</ele>
        <time>2023-09-01T11:51:43Z</time>
      </trkpt>
      <trkpt lat="55.999980987980962" lon="-5.21460902877152">
        <ele>38.109999999999999</ele>
        <time>2023-09-01T11:51:44Z</time>
      </trkpt>
      <trkpt lat="56.000160025432706" lon="-5.214683962985873">
        <ele>38.590000000000003</ele>
        <time>2023-09-01T11:51:45Z</time>
      </trkpt>
      <trkpt lat="56.000340990722179" lon="-5.214753029868007">
        <ele>38.590000000000003</ele>
        <time>2023-09-01T11:51:46Z</time>
      </trkpt>
      <trkpt lat="56.000518016517162" lon="-5.214798040688038">
        <ele>39.07</ele>
        <time>2023-09-01T11:51:47Z</time>
      </trkpt>
      <trkpt lat="56.000700993463397" lon="-5.214809020981193">
        <ele>39.07</ele>
        <time>2023-09-01T11:51:48Z</time>
      </trkpt>
      <trkpt lat="56.000884976238012" lon="-5.214821007102728">
        <ele>39.07</ele>
        <time>2023-09-01T11:51:49Z</time>
      </trkpt>
      <trkpt lat="56.002502012997866" lon="-5.2146100345999">
        <ele>39.549999999999997</ele>
        <time>2023-09-01T11:51:58Z</time>
      </trkpt>
      <trkpt lat="56.004477040842175" lon="-5.214101001620293">
        <ele>40.509999999999998</ele>
        <time>2023-09-01T11:52:09Z</time>
      </trkpt>
      <trkpt lat="56.006092987954617" lon="-5.213668998330832">
        <ele>43.399999999999999</ele>
        <time>2023-09-01T11:52:18Z</time>
      </trkpt>
      <trkpt lat="56.008232971653342" lon="-5.21310799755156">
        <ele>48.200000000000003</ele>
        <time>2023-09-01T11:52:30Z</time>
      </trkpt>
      <trkpt lat="56.010043965652585" lon="-5.212823012843728">
        <ele>52.530000000000001</ele>
        <time>2023-09-01T11:52:40Z</time>
      </trkpt>
      <trkpt lat="56.012100968509912" lon="-5.212903982028365">
        <ele>48.68</ele>
        <time>2023-09-01T11:52:51Z</time>
      </trkpt>
      <trkpt lat="56.01243699900806" lon="-5.212917979806662">
        <ele>47.240000000000002</ele>
        <time>2023-09-01T11:52:53Z</time>
      </trkpt>
      <trkpt lat="56.014060992747545" lon="-5.21278697066009">
        <ele>40.030000000000001</ele>
        <time>2023-09-01T11:53:02Z</time>
      </trkpt>
      <trkpt lat="56.015524975955486" lon="-5.211859010159969">
        <ele>39.549999999999997</ele>
        <time>2023-09-01T11:53:10Z</time>
      </trkpt>
      <trkpt lat="56.017406964674592" lon="-5.210242979228497">
        <ele>40.990000000000002</ele>
        <time>2023-09-01T11:53:19Z</time>
      </trkpt>
      <trkpt lat="56.018838007003069" lon="-5.209123995155096">
        <ele>43.399999999999999</ele>
        <time>2023-09-01T11:53:26Z</time>
      </trkpt>
      <trkpt lat="56.02101101540029" lon="-5.207471000030637">
        <ele>45.799999999999997</ele>
        <time>2023-09-01T11:53:39Z</time>
      </trkpt>
      <trkpt lat="56.022936003282666" lon="-5.206656027585268">
        <ele>48.200000000000003</ele>
        <time>2023-09-01T11:53:50Z</time>
      </trkpt>
      <trkpt lat="56.024567959830165" lon="-5.206284960731864">
        <ele>49.649999999999999</ele>
        <time>2023-09-01T11:53:59Z</time>
      </trkpt>
      <trkpt lat="56.026365961879492" lon="-5.205853041261435">
        <ele>51.57</ele>
        <time>2023-09-01T11:54:09Z</time>
      </trkpt>
      <trkpt lat="56.027992973104119" lon="-5.205418020486832">
        <ele>52.049999999999997</ele>
        <time>2023-09-01T11:54:18Z</time>
      </trkpt>
      <trkpt lat="56.029629036784172" lon="-5.205092970281839">
        <ele>52.049999999999997</ele>
        <time>2023-09-01T11:54:27Z</time>
      </trkpt>
      <trkpt lat="56.031226962804794" lon="-5.204905970022082">
        <ele>48.68</ele>
        <time>2023-09-01T11:54:36Z</time>
      </trkpt>
      <trkpt lat="56.032477961853147" lon="-5.204467009752989">
        <ele>47.719999999999999</ele>
        <time>2023-09-01T11:54:44Z</time>
      </trkpt>
      <trkpt lat="56.03400900028646" lon="-5.203443998470902">
        <ele>45.799999999999997</ele>
        <time>2023-09-01T11:54:53Z</time>
      </trkpt>
      <trkpt lat="56.03446003049612" lon="-5.202979976311326">
        <ele>44.359999999999999</ele>
        <time>2023-09-01T11:54:56Z</time>
      </trkpt>
      <trkpt lat="56.034604031592607" lon="-5.202823989093304">
        <ele>44.359999999999999</ele>
        <time>2023-09-01T11:54:57Z</time>
      </trkpt>
      <trkpt lat="56.036066003143787" lon="-5.201050965115428">
        <ele>42.920000000000002</ele>
        <time>2023-09-01T11:55:07Z</time>
      </trkpt>
      <trkpt lat="56.037514982745051" lon="-5.19918498583138">
        <ele>42.920000000000002</ele>
        <time>2023-09-01T11:55:17Z</time>
      </trkpt>
      <trkpt lat="56.038727005943656" lon="-5.197297967970371">
        <ele>44.840000000000003</ele>
        <time>2023-09-01T11:55:26Z</time>
      </trkpt>
      <trkpt lat="56.039552036672831" lon="-5.194883979856968">
        <ele>45.32</ele>
        <time>2023-09-01T11:55:35Z</time>
      </trkpt>
      <trkpt lat="56.040430041030049" lon="-5.191758032888174">
        <ele>42.920000000000002</ele>
        <time>2023-09-01T11:55:46Z</time>
      </trkpt>
      <trkpt lat="56.04129496961832" lon="-5.188711965456605">
        <ele>42.920000000000002</ele>
        <time>2023-09-01T11:55:57Z</time>
      </trkpt>
      <trkpt lat="56.042269030585885" lon="-5.185260968282819">
        <ele>40.030000000000001</ele>
        <time>2023-09-01T11:56:09Z</time>
      </trkpt>
      <trkpt lat="56.043153991922736" lon="-5.182681018486619">
        <ele>40.990000000000002</ele>
        <time>2023-09-01T11:56:19Z</time>
      </trkpt>
      <trkpt lat="56.04380501434207" lon="-5.181353995576501">
        <ele>41.950000000000003</ele>
        <time>2023-09-01T11:56:25Z</time>
      </trkpt>
      <trkpt lat="56.045093983411789" lon="-5.179708041250706">
        <ele>43.880000000000003</ele>
        <time>2023-09-01T11:56:34Z</time>
      </trkpt>
      <trkpt lat="56.046818979084492" lon="-5.177430007606745">
        <ele>44.840000000000003</ele>
        <time>2023-09-01T11:56:45Z</time>
      </trkpt>
      <trkpt lat="56.04838396422565" lon="-5.175150968134403">
        <ele>44.359999999999999</ele>
        <time>2023-09-01T11:56:55Z</time>
      </trkpt>
      <trkpt lat="56.049139006063342" lon="-5.174171039834619">
        <ele>44.840000000000003</ele>
        <time>2023-09-01T11:57:00Z</time>
      </trkpt>
      <trkpt lat="56.050554038956761" lon="-5.172964967787266">
        <ele>45.799999999999997</ele>
        <time>2023-09-01T11:57:09Z</time>
      </trkpt>
      <trkpt lat="56.052048029378057" lon="-5.171714974567294">
        <ele>45.799999999999997</ele>
        <time>2023-09-01T11:57:18Z</time>
      </trkpt>
      <trkpt lat="56.053684009239078" lon="-5.170183014124632">
        <ele>43.399999999999999</ele>
        <time>2023-09-01T11:57:29Z</time>
      </trkpt>
      <trkpt lat="56.05480601079762" lon="-5.169106023386121">
        <ele>41.469999999999999</ele>
        <time>2023-09-01T11:57:36Z</time>
      </trkpt>
      <trkpt lat="56.056557996198535" lon="-5.167426038533449">
        <ele>40.509999999999998</ele>
        <time>2023-09-01T11:57:47Z</time>
      </trkpt>
      <trkpt lat="56.058319034054875" lon="-5.165735995396972">
        <ele>41.950000000000003</ele>
        <time>2023-09-01T11:57:58Z</time>
      </trkpt>
      <trkpt lat="56.05848197825253" lon="-5.165580008178949">
        <ele>41.950000000000003</ele>
        <time>2023-09-01T11:57:59Z</time>
      </trkpt>
      <trkpt lat="56.060015028342605" lon="-5.163831962272525">
        <ele>44.840000000000003</ele>
        <time>2023-09-01T11:58:09Z</time>
      </trkpt>
      <trkpt lat="56.060162968933582" lon="-5.163639010861516">
        <ele>45.32</ele>
        <time>2023-09-01T11:58:10Z</time>
      </trkpt>
      <trkpt lat="56.061786962673068" lon="-5.161528028547764">
        <ele>46.280000000000001</ele>
        <time>2023-09-01T11:58:21Z</time>
      </trkpt>
      <trkpt lat="56.063109040260315" lon="-5.159809989854693">
        <ele>48.68</ele>
        <time>2023-09-01T11:58:30Z</time>
      </trkpt>
      <trkpt lat="56.0649040248245" lon="-5.157541008666158">
        <ele>56.369999999999997</ele>
        <time>2023-09-01T11:58:42Z</time>
      </trkpt>
      <trkpt lat="56.066243033856153" lon="-5.156433004885912">
        <ele>54.450000000000003</ele>
        <time>2023-09-01T11:58:50Z</time>
      </trkpt>
      <trkpt lat="56.066421987488866" lon="-5.156351029872894">
        <ele>53.969999999999999</ele>
        <time>2023-09-01T11:58:51Z</time>
      </trkpt>
      <trkpt lat="56.067673992365599" lon="-5.155996978282929">
        <ele>51.57</ele>
        <time>2023-09-01T11:58:58Z</time>
      </trkpt>
      <trkpt lat="56.067857975140214" lon="-5.155962025746703">
        <ele>51.57</ele>
        <time>2023-09-01T11:58:59Z</time>
      </trkpt>
      <trkpt lat="56.069453973323107" lon="-5.155662037432194">
        <ele>51.090000000000003</ele>
        <time>2023-09-01T11:59:08Z</time>
      </trkpt>
      <trkpt lat="56.070532975718379" lon="-5.15544000081718">
        <ele>55.890000000000001</ele>
        <time>2023-09-01T11:59:14Z</time>
      </trkpt>
      <trkpt lat="56.070703966543078" lon="-5.155375963076949">
        <ele>56.859999999999999</ele>
        <time>2023-09-01T11:59:15Z</time>
      </trkpt>
      <trkpt lat="56.070874035358429" lon="-5.15529097057879">
        <ele>57.82</ele>
        <time>2023-09-01T11:59:16Z</time>
      </trkpt>
      <trkpt lat="56.071289023384452" lon="-5.154956029728055">
        <ele>60.700000000000003</ele>
        <time>2023-09-01T11:59:19Z</time>
      </trkpt>
      <trkpt lat="56.072023026645184" lon="-5.154143990948796">
        <ele>69.349999999999994</ele>
        <time>2023-09-01T11:59:26Z</time>
      </trkpt>
      <trkpt lat="56.072136014699936" lon="-5.153991021215916">
        <ele>71.269999999999996</ele>
        <time>2023-09-01T11:59:27Z</time>
      </trkpt>
      <trkpt lat="56.073029022663832" lon="-5.152527038007975">
        <ele>82.810000000000002</ele>
        <time>2023-09-01T11:59:35Z</time>
      </trkpt>
      <trkpt lat="56.073114015161991" lon="-5.152345988899469">
        <ele>84.25</ele>
        <time>2023-09-01T11:59:36Z</time>
      </trkpt>
      <trkpt lat="56.073401011526585" lon="-5.151737965643406">
        <ele>89.540000000000006</ele>
        <time>2023-09-01T11:59:40Z</time>
      </trkpt>
      <trkpt lat="56.073465971276164" lon="-5.151599999517202">
        <ele>90.5</ele>
        <time>2023-09-01T11:59:41Z</time>
      </trkpt>
      <trkpt lat="56.07369102537632" lon="-5.151147041469812">
        <ele>94.349999999999994</ele>
        <time>2023-09-01T11:59:45Z</time>
      </trkpt>
      <trkpt lat="56.074285972863436" lon="-5.150039959698916">
        <ele>98.189999999999998</ele>
        <time>2023-09-01T11:59:52Z</time>
      </trkpt>
      <trkpt lat="56.074532987549901" lon="-5.149602005258203">
        <ele>99.629999999999995</ele>
        <time>2023-09-01T11:59:55Z</time>
      </trkpt>
      <trkpt lat="56.074600964784622" lon="-5.149480970576406">
        <ele>99.629999999999995</ele>
        <time>2023-09-01T11:59:56Z</time>
      </trkpt>
      <trkpt lat="56.074652010574937" lon="-5.149390026926994">
        <ele>99.629999999999995</ele>
        <time>2023-09-01T11:59:57Z</time>
      </trkpt>
      <trkpt lat="56.074762986972928" lon="-5.149193974211812">
        <ele>100.11</ele>
        <time>2023-09-01T12:00:03Z</time>
      </trkpt>
      <trkpt lat="56.074784025549889" lon="-5.149156004190445">
        <ele>100.11</ele>
        <time>2023-09-01T12:00:04Z</time>
      </trkpt>
      <trkpt lat="56.07480900362134" lon="-5.149110993370414">
        <ele>100.11</ele>
        <time>2023-09-01T12:00:05Z</time>
      </trkpt>
      <trkpt lat="56.074833981692791" lon="-5.149067994207144">
        <ele>100.11</ele>
        <time>2023-09-01T12:00:06Z</time>
      </trkpt>
      <trkpt lat="56.074838005006313" lon="-5.149060031399131">
        <ele>99.150000000000006</ele>
        <time>2023-09-01T12:00:07Z</time>
      </trkpt>
      <trkpt lat="56.074838005006313" lon="-5.149060031399131">
        <ele>98.670000000000002</ele>
        <time>2023-09-01T12:00:08Z</time>
      </trkpt>
      <trkpt lat="56.074739014729857" lon="-5.14892902225256">
        <ele>98.189999999999998</ele>
        <time>2023-09-01T12:00:09Z</time>
      </trkpt>
      <trkpt lat="56.074706995859742" lon="-5.148932039737701">
        <ele>97.230000000000004</ele>
        <time>2023-09-01T12:00:25Z</time>
      </trkpt>
      <trkpt lat="56.074619991704822" lon="-5.148811005055904">
        <ele>64.549999999999997</ele>
        <time>2023-09-01T12:11:18Z</time>
      </trkpt>
      <trkpt lat="56.074604988098145" lon="-5.149086015298963">
        <ele>92.900000000000006</ele>
        <time>2023-09-01T12:11:47Z</time>
      </trkpt>
      <trkpt lat="56.074601970613003" lon="-5.149193974211812">
        <ele>90.980000000000004</ele>
        <time>2023-09-01T12:12:10Z</time>
      </trkpt>
      <trkpt lat="56.074628038331866" lon="-5.149234039708972">
        <ele>87.140000000000001</ele>
        <time>2023-09-01T12:12:15Z</time>
      </trkpt>
      <trkpt lat="56.074708001688123" lon="-5.149291036650538">
        <ele>85.689999999999998</ele>
        <time>2023-09-01T12:12:18Z</time>
      </trkpt>
      <trkpt lat="56.074726022779942" lon="-5.149260023608804">
        <ele>85.209999999999994</ele>
        <time>2023-09-01T12:12:19Z</time>
      </trkpt>
      <trkpt lat="56.074754018336535" lon="-5.149208977818489">
        <ele>84.730000000000004</ele>
        <time>2023-09-01T12:12:20Z</time>
      </trkpt>
      <trkpt lat="56.074792994186282" lon="-5.149139994755387">
        <ele>84.25</ele>
        <time>2023-09-01T12:12:21Z</time>
      </trkpt>
      <trkpt lat="56.074897013604641" lon="-5.148956011980772">
        <ele>83.769999999999996</ele>
        <time>2023-09-01T12:12:23Z</time>
      </trkpt>
      <trkpt lat="56.07495903968811" lon="-5.148845035582781">
        <ele>83.290000000000006</ele>
        <time>2023-09-01T12:12:24Z</time>
      </trkpt>
      <trkpt lat="56.075028022751212" lon="-5.148722995072603">
        <ele>82.810000000000002</ele>
        <time>2023-09-01T12:12:25Z</time>
      </trkpt>
      <trkpt lat="56.07579899020493" lon="-5.147431008517742">
        <ele>81.849999999999994</ele>
        <time>2023-09-01T12:12:33Z</time>
      </trkpt>
      <trkpt lat="56.077274037525058" lon="-5.145033029839397">
        <ele>82.810000000000002</ele>
        <time>2023-09-01T12:12:45Z</time>
      </trkpt>
      <trkpt lat="56.078618997707963" lon="-5.143160009756684">
        <ele>89.540000000000006</ele>
        <time>2023-09-01T12:12:56Z</time>
      </trkpt>
      <trkpt lat="56.080093961209059" lon="-5.141500979661942">
        <ele>94.349999999999994</ele>
        <time>2023-09-01T12:13:07Z</time>
      </trkpt>
      <trkpt lat="56.081490973010659" lon="-5.139981005340815">
        <ele>99.150000000000006</ele>
        <time>2023-09-01T12:13:17Z</time>
      </trkpt>
      <trkpt lat="56.08263099566102" lon="-5.138533031567931">
        <ele>106.84</ele>
        <time>2023-09-01T12:13:25Z</time>
      </trkpt>
      <trkpt lat="56.082764016464353" lon="-5.138328010216355">
        <ele>107.81</ele>
        <time>2023-09-01T12:13:26Z</time>
      </trkpt>
      <trkpt lat="56.084161028265953" lon="-5.136173022910953">
        <ele>112.61</ele>
        <time>2023-09-01T12:13:35Z</time>
      </trkpt>
      <trkpt lat="56.085871020331979" lon="-5.133343040943146">
        <ele>116.94</ele>
        <time>2023-09-01T12:13:46Z</time>
      </trkpt>
      <trkpt lat="56.087112966924906" lon="-5.130987977609038">
        <ele>122.22</ele>
        <time>2023-09-01T12:13:55Z</time>
      </trkpt>
      <trkpt lat="56.088218037039042" lon="-5.128641966730356">
        <ele>127.98999999999999</ele>
        <time>2023-09-01T12:14:04Z</time>
      </trkpt>
      <trkpt lat="56.089596021920443" lon="-5.125660020858049">
        <ele>139.05000000000001</ele>
        <time>2023-09-01T12:14:16Z</time>
      </trkpt>
      <trkpt lat="56.091413972899318" lon="-5.122357970103622">
        <ele>146.25999999999999</ele>
        <time>2023-09-01T12:14:30Z</time>
      </trkpt>
      <trkpt lat="56.093254974111915" lon="-5.119852032512426">
        <ele>156.83000000000001</ele>
        <time>2023-09-01T12:14:43Z</time>
      </trkpt>
      <trkpt lat="56.094910986721516" lon="-5.117886979132891">
        <ele>168.37</ele>
        <time>2023-09-01T12:14:54Z</time>
      </trkpt>
      <trkpt lat="56.096528023481369" lon="-5.115283979102969">
        <ele>186.15000000000001</ele>
        <time>2023-09-01T12:15:06Z</time>
      </trkpt>
      <trkpt lat="56.098238015547395" lon="-5.113012986257672">
        <ele>207.30000000000001</ele>
        <time>2023-09-01T12:15:18Z</time>
      </trkpt>
      <trkpt lat="56.099897967651486" lon="-5.111730974167585">
        <ele>223.16</ele>
        <time>2023-09-01T12:15:28Z</time>
      </trkpt>
      <trkpt lat="56.102283960208297" lon="-5.110145034268498">
        <ele>243.34999999999999</ele>
        <time>2023-09-01T12:15:42Z</time>
      </trkpt>
      <trkpt lat="56.10394299030304" lon="-5.109513960778713">
        <ele>255.84999999999999</ele>
        <time>2023-09-01T12:15:51Z</time>
      </trkpt>
      <trkpt lat="56.105506969615817" lon="-5.10943902656436">
        <ele>262.57999999999998</ele>
        <time>2023-09-01T12:15:59Z</time>
      </trkpt>
      <trkpt lat="56.107494989410043" lon="-5.109382029622793">
        <ele>267.38</ele>
        <time>2023-09-01T12:16:10Z</time>
      </trkpt>
      <trkpt lat="56.109272036701441" lon="-5.109616974368691">
        <ele>269.31</ele>
        <time>2023-09-01T12:16:20Z</time>
      </trkpt>
      <trkpt lat="56.111067021265626" lon="-5.110548958182335">
        <ele>270.26999999999998</ele>
        <time>2023-09-01T12:16:30Z</time>
      </trkpt>
      <trkpt lat="56.112926965579391" lon="-5.112413009628654">
        <ele>265.94</ele>
        <time>2023-09-01T12:16:41Z</time>
      </trkpt>
      <trkpt lat="56.115199970081449" lon="-5.11492196470499">
        <ele>255.37</ele>
        <time>2023-09-01T12:16:54Z</time>
      </trkpt>
      <trkpt lat="56.117140967398882" lon="-5.117064965888858">
        <ele>246.22999999999999</ele>
        <time>2023-09-01T12:17:05Z</time>
      </trkpt>
      <trkpt lat="56.119811022654176" lon="-5.120029980316758">
        <ele>240.94999999999999</ele>
        <time>2023-09-01T12:17:21Z</time>
      </trkpt>
      <trkpt lat="56.122082015499473" lon="-5.122638009488583">
        <ele>234.69999999999999</ele>
        <time>2023-09-01T12:17:34Z</time>
      </trkpt>
      <trkpt lat="56.123697040602565" lon="-5.125070018693805">
        <ele>226.53</ele>
        <time>2023-09-01T12:17:44Z</time>
      </trkpt>
      <trkpt lat="56.125268982723355" lon="-5.127519965171814">
        <ele>212.59</ele>
        <time>2023-09-01T12:17:54Z</time>
      </trkpt>
      <trkpt lat="56.126299034804106" lon="-5.129828006029129">
        <ele>200.09</ele>
        <time>2023-09-01T12:18:02Z</time>
      </trkpt>
      <trkpt lat="56.126932958140969" lon="-5.132554974406958">
        <ele>184.71000000000001</ele>
        <time>2023-09-01T12:18:10Z</time>
      </trkpt>
      <trkpt lat="56.127626979723573" lon="-5.137560982257128">
        <ele>154.43000000000001</ele>
        <time>2023-09-01T12:18:24Z</time>
      </trkpt>
      <trkpt lat="56.127955969423056" lon="-5.139138959348202">
        <ele>144.34</ele>
        <time>2023-09-01T12:18:29Z</time>
      </trkpt>
      <trkpt lat="56.128053031861782" lon="-5.139392009004951">
        <ele>142.41</ele>
        <time>2023-09-01T12:18:30Z</time>
      </trkpt>
      <trkpt lat="56.128167025744915" lon="-5.139635000377893">
        <ele>140.49000000000001</ele>
        <time>2023-09-01T12:18:31Z</time>
      </trkpt>
      <trkpt lat="56.128281019628048" lon="-5.139877991750836">
        <ele>138.56999999999999</ele>
        <time>2023-09-01T12:18:32Z</time>
      </trkpt>
      <trkpt lat="56.128404987975955" lon="-5.140058035030961">
        <ele>136.63999999999999</ele>
        <time>2023-09-01T12:18:33Z</time>
      </trkpt>
      <trkpt lat="56.128547983244061" lon="-5.140230031684041">
        <ele>134.72</ele>
        <time>2023-09-01T12:18:34Z</time>
      </trkpt>
      <trkpt lat="56.12869500182569" lon="-5.140405967831612">
        <ele>133.28</ele>
        <time>2023-09-01T12:18:35Z</time>
      </trkpt>
      <trkpt lat="56.12884403206408" lon="-5.140533959493041">
        <ele>131.84</ele>
        <time>2023-09-01T12:18:36Z</time>
      </trkpt>
      <trkpt lat="56.129012005403638" lon="-5.140648959204555">
        <ele>129.91999999999999</ele>
        <time>2023-09-01T12:18:37Z</time>
      </trkpt>
      <trkpt lat="56.129176961258054" lon="-5.1407450158149">
        <ele>127.98999999999999</ele>
        <time>2023-09-01T12:18:38Z</time>
      </trkpt>
      <trkpt lat="56.130782011896372" lon="-5.141535010188818">
        <ele>115.01000000000001</ele>
        <time>2023-09-01T12:18:47Z</time>
      </trkpt>
      <trkpt lat="56.132151028141379" lon="-5.142072960734367">
        <ele>108.77</ele>
        <time>2023-09-01T12:18:55Z</time>
      </trkpt>
      <trkpt lat="56.13363403826952" lon="-5.142110008746386">
        <ele>102.04000000000001</ele>
        <time>2023-09-01T12:19:03Z</time>
      </trkpt>
      <trkpt lat="56.135163987055421" lon="-5.141483964398503">
        <ele>92.900000000000006</ele>
        <time>2023-09-01T12:19:11Z</time>
      </trkpt>
      <trkpt lat="56.136855036020279" lon="-5.140645019710064">
        <ele>80.890000000000001</ele>
        <time>2023-09-01T12:19:20Z</time>
      </trkpt>
      <trkpt lat="56.138067981228232" lon="-5.139972036704421">
        <ele>69.349999999999994</ele>
        <time>2023-09-01T12:19:27Z</time>
      </trkpt>
      <trkpt lat="56.139304982498288" lon="-5.138793960213661">
        <ele>55.890000000000001</ele>
        <time>2023-09-01T12:19:35Z</time>
      </trkpt>
      <trkpt lat="56.141121005639434" lon="-5.136445015668869">
        <ele>35.710000000000001</ele>
        <time>2023-09-01T12:19:48Z</time>
      </trkpt>
      <trkpt lat="56.142267985269427" lon="-5.134846000000835">
        <ele>22.73</ele>
        <time>2023-09-01T12:19:57Z</time>
      </trkpt>
      <trkpt lat="56.143270963802934" lon="-5.133209014311433">
        <ele>15.039999999999999</ele>
        <time>2023-09-01T12:20:04Z</time>
      </trkpt>
      <trkpt lat="56.144812982529402" lon="-5.130207035690546">
        <ele>10.710000000000001</ele>
        <time>2023-09-01T12:20:15Z</time>
      </trkpt>
      <trkpt lat="56.146229021251202" lon="-5.127001963555813">
        <ele>8.789999999999999</ele>
        <time>2023-09-01T12:20:26Z</time>
      </trkpt>
      <trkpt lat="56.14635500125587" lon="-5.1267159730196">
        <ele>8.789999999999999</ele>
        <time>2023-09-01T12:20:27Z</time>
      </trkpt>
      <trkpt lat="56.147237028926611" lon="-5.124424025416374">
        <ele>10.710000000000001</ele>
        <time>2023-09-01T12:20:35Z</time>
      </trkpt>
      <trkpt lat="56.14775201305747" lon="-5.123120974749327">
        <ele>11.67</ele>
        <time>2023-09-01T12:20:40Z</time>
      </trkpt>
      <trkpt lat="56.148764966055751" lon="-5.120950983837247">
        <ele>12.15</ele>
        <time>2023-09-01T12:20:49Z</time>
      </trkpt>
      <trkpt lat="56.149380030110478" lon="-5.119765028357506">
        <ele>11.67</ele>
        <time>2023-09-01T12:20:54Z</time>
      </trkpt>
      <trkpt lat="56.149487989023328" lon="-5.119499992579222">
        <ele>11.19</ele>
        <time>2023-09-01T12:20:55Z</time>
      </trkpt>
      <trkpt lat="56.150062987580895" lon="-5.11747500859201">
        <ele>9.75</ele>
        <time>2023-09-01T12:21:02Z</time>
      </trkpt>
      <trkpt lat="56.150743011385202" lon="-5.115662002936006">
        <ele>10.710000000000001</ele>
        <time>2023-09-01T12:21:09Z</time>
      </trkpt>
      <trkpt lat="56.151816984638572" lon="-5.112844007089734">
        <ele>12.630000000000001</ele>
        <time>2023-09-01T12:21:20Z</time>
      </trkpt>
      <trkpt lat="56.152518969029188" lon="-5.110304038971663">
        <ele>12.630000000000001</ele>
        <time>2023-09-01T12:21:29Z</time>
      </trkpt>
      <trkpt lat="56.153424968943" lon="-5.10800396092236">
        <ele>13.6</ele>
        <time>2023-09-01T12:21:38Z</time>
      </trkpt>
      <trkpt lat="56.154530039057136" lon="-5.104860998690128">
        <ele>12.15</ele>
        <time>2023-09-01T12:21:50Z</time>
      </trkpt>
      <trkpt lat="56.155495969578624" lon="-5.102294040843844">
        <ele>10.23</ele>
        <time>2023-09-01T12:21:59Z</time>
      </trkpt>
      <trkpt lat="56.156768007203937" lon="-5.100100999698043">
        <ele>10.23</ele>
        <time>2023-09-01T12:22:08Z</time>
      </trkpt>
      <trkpt lat="56.157635031268001" lon="-5.098538026213646">
        <ele>10.710000000000001</ele>
        <time>2023-09-01T12:22:16Z</time>
      </trkpt>
      <trkpt lat="56.158663993701339" lon="-5.096536008641124">
        <ele>11.19</ele>
        <time>2023-09-01T12:22:27Z</time>
      </trkpt>
      <trkpt lat="56.159854978322983" lon="-5.094505995512009">
        <ele>12.630000000000001</ele>
        <time>2023-09-01T12:22:38Z</time>
      </trkpt>
      <trkpt lat="56.161120980978012" lon="-5.091997962445021">
        <ele>12.630000000000001</ele>
        <time>2023-09-01T12:22:49Z</time>
      </trkpt>
      <trkpt lat="56.162422019988298" lon="-5.089533012360334">
        <ele>11.19</ele>
        <time>2023-09-01T12:23:01Z</time>
      </trkpt>
      <trkpt lat="56.163904024288058" lon="-5.086981980130076">
        <ele>11.67</ele>
        <time>2023-09-01T12:23:15Z</time>
      </trkpt>
      <trkpt lat="56.165365995839238" lon="-5.08436699397862">
        <ele>11.67</ele>
        <time>2023-09-01T12:23:28Z</time>
      </trkpt>
      <trkpt lat="56.166366040706635" lon="-5.082216029986739">
        <ele>12.630000000000001</ele>
        <time>2023-09-01T12:23:38Z</time>
      </trkpt>
      <trkpt lat="56.166956964880228" lon="-5.080664036795497">
        <ele>11.19</ele>
        <time>2023-09-01T12:23:45Z</time>
      </trkpt>
      <trkpt lat="56.16771200671792" lon="-5.07923299446702">
        <ele>12.630000000000001</ele>
        <time>2023-09-01T12:23:53Z</time>
      </trkpt>
      <trkpt lat="56.16779699921608" lon="-5.07912402972579">
        <ele>13.119999999999999</ele>
        <time>2023-09-01T12:23:54Z</time>
      </trkpt>
      <trkpt lat="56.167846033349633" lon="-5.07905999198556">
        <ele>13.119999999999999</ele>
        <time>2023-09-01T12:23:55Z</time>
      </trkpt>
      <trkpt lat="56.167877968400717" lon="-5.079019004479051">
        <ele>13.119999999999999</ele>
        <time>2023-09-01T12:23:56Z</time>
      </trkpt>
      <trkpt lat="56.168002020567656" lon="-5.078982962295413">
        <ele>13.119999999999999</ele>
        <time>2023-09-01T12:23:57Z</time>
      </trkpt>
      <trkpt lat="56.16803303360939" lon="-5.079054962843657">
        <ele>12.630000000000001</ele>
        <time>2023-09-01T12:23:58Z</time>
      </trkpt>
      <trkpt lat="56.168081983923912" lon="-5.079170968383551">
        <ele>12.15</ele>
        <time>2023-09-01T12:23:59Z</time>
      </trkpt>
      <trkpt lat="56.16814199835062" lon="-5.079313963651657">
        <ele>11.67</ele>
        <time>2023-09-01T12:24:00Z</time>
      </trkpt>
      <trkpt lat="56.168208969756961" lon="-5.079467017203569">
        <ele>11.67</ele>
        <time>2023-09-01T12:24:01Z</time>
      </trkpt>
      <trkpt lat="56.168310977518559" lon="-5.079612024128437">
        <ele>11.19</ele>
        <time>2023-09-01T12:24:02Z</time>
      </trkpt>
      <trkpt lat="56.168425977230072" lon="-5.079774968326092">
        <ele>10.710000000000001</ele>
        <time>2023-09-01T12:24:03Z</time>
      </trkpt>
      <trkpt lat="56.168556986376643" lon="-5.079902959987521">
        <ele>10.710000000000001</ele>
        <time>2023-09-01T12:24:04Z</time>
      </trkpt>
      <trkpt lat="56.168708028271794" lon="-5.080028017982841">
        <ele>10.710000000000001</ele>
        <time>2023-09-01T12:24:05Z</time>
      </trkpt>
      <trkpt lat="56.168867032974958" lon="-5.080158021301031">
        <ele>10.710000000000001</ele>
        <time>2023-09-01T12:24:06Z</time>
      </trkpt>
      <trkpt lat="56.170621030032635" lon="-5.081450007855892">
        <ele>10.710000000000001</ele>
        <time>2023-09-01T12:24:16Z</time>
      </trkpt>
      <trkpt lat="56.172633022069931" lon="-5.082645015791059">
        <ele>11.67</ele>
        <time>2023-09-01T12:24:28Z</time>
      </trkpt>
      <trkpt lat="56.174396993592381" lon="-5.083177015185356">
        <ele>12.15</ele>
        <time>2023-09-01T12:24:38Z</time>
      </trkpt>
      <trkpt lat="56.175500974059105" lon="-5.083397040143609">
        <ele>12.630000000000001</ele>
        <time>2023-09-01T12:24:45Z</time>
      </trkpt>
      <trkpt lat="56.175669031217694" lon="-5.083355968818069">
        <ele>12.630000000000001</ele>
        <time>2023-09-01T12:24:46Z</time>
      </trkpt>
      <trkpt lat="56.175837004557252" lon="-5.08329201489687">
        <ele>12.630000000000001</ele>
        <time>2023-09-01T12:24:47Z</time>
      </trkpt>
      <trkpt lat="56.177163021638989" lon="-5.082388026639819">
        <ele>13.6</ele>
        <time>2023-09-01T12:24:55Z</time>
      </trkpt>
      <trkpt lat="56.178473029285669" lon="-5.081522008404136">
        <ele>15.039999999999999</ele>
        <time>2023-09-01T12:25:04Z</time>
      </trkpt>
      <trkpt lat="56.179768033325672" lon="-5.080599999055266">
        <ele>17.440000000000001</ele>
        <time>2023-09-01T12:25:13Z</time>
      </trkpt>
      <trkpt lat="56.180993970483541" lon="-5.080063976347446">
        <ele>18.399999999999999</ele>
        <time>2023-09-01T12:25:20Z</time>
      </trkpt>
      <trkpt lat="56.182958018034697" lon="-5.079050017520785">
        <ele>18.399999999999999</ele>
        <time>2023-09-01T12:25:30Z</time>
      </trkpt>
      <trkpt lat="56.184300966560841" lon="-5.078062964603305">
        <ele>16.960000000000001</ele>
        <time>2023-09-01T12:25:37Z</time>
      </trkpt>
      <trkpt lat="56.186039038002491" lon="-5.076927971094847">
        <ele>15.52</ele>
        <time>2023-09-01T12:25:47Z</time>
      </trkpt>
      <trkpt lat="56.187751041725278" lon="-5.075604971498251">
        <ele>16.960000000000001</ele>
        <time>2023-09-01T12:25:57Z</time>
      </trkpt>
      <trkpt lat="56.189502021297812" lon="-5.074371993541718">
        <ele>17.440000000000001</ele>
        <time>2023-09-01T12:26:07Z</time>
      </trkpt>
      <trkpt lat="56.190540958195925" lon="-5.073691969737411">
        <ele>18.399999999999999</ele>
        <time>2023-09-01T12:26:13Z</time>
      </trkpt>
      <trkpt lat="56.191590959206223" lon="-5.073003983125091">
        <ele>19.359999999999999</ele>
        <time>2023-09-01T12:26:19Z</time>
      </trkpt>
      <trkpt lat="56.192736010998487" lon="-5.072226980701089">
        <ele>20.32</ele>
        <time>2023-09-01T12:26:26Z</time>
      </trkpt>
      <trkpt lat="56.193780982866883" lon="-5.071499012410641">
        <ele>21.77</ele>
        <time>2023-09-01T12:26:32Z</time>
      </trkpt>
      <trkpt lat="56.194630991667509" lon="-5.070905992761254">
        <ele>23.690000000000001</ele>
        <time>2023-09-01T12:26:37Z</time>
      </trkpt>
      <trkpt lat="56.194788990542293" lon="-5.070796022191644">
        <ele>24.170000000000002</ele>
        <time>2023-09-01T12:26:38Z</time>
      </trkpt>
      <trkpt lat="56.195795992389321" lon="-5.070060007274151">
        <ele>26.57</ele>
        <time>2023-09-01T12:26:44Z</time>
      </trkpt>
      <trkpt lat="56.195946028456092" lon="-5.069923968985677">
        <ele>27.050000000000001</ele>
        <time>2023-09-01T12:26:45Z</time>
      </trkpt>
      <trkpt lat="56.196106960996985" lon="-5.069778962060809">
        <ele>27.530000000000001</ele>
        <time>2023-09-01T12:26:46Z</time>
      </trkpt>
      <trkpt lat="56.197456028312445" lon="-5.068436013534665">
        <ele>31.379999999999999</ele>
        <time>2023-09-01T12:26:54Z</time>
      </trkpt>
      <trkpt lat="56.197797004133463" lon="-5.068092020228505">
        <ele>31.859999999999999</ele>
        <time>2023-09-01T12:26:56Z</time>
      </trkpt>
      <trkpt lat="56.198123982176185" lon="-5.067762024700642">
        <ele>31.859999999999999</ele>
        <time>2023-09-01T12:26:58Z</time>
      </trkpt>
      <trkpt lat="56.19828499853611" lon="-5.067598996683955">
        <ele>32.340000000000003</ele>
        <time>2023-09-01T12:26:59Z</time>
      </trkpt>
      <trkpt lat="56.199383027851582" lon="-5.066455034539104">
        <ele>32.340000000000003</ele>
        <time>2023-09-01T12:27:06Z</time>
      </trkpt>
      <trkpt lat="56.199529962614179" lon="-5.06627700291574">
        <ele>31.859999999999999</ele>
        <time>2023-09-01T12:27:07Z</time>
      </trkpt>
      <trkpt lat="56.20099101215601" lon="-5.06442703306675">
        <ele>35.710000000000001</ele>
        <time>2023-09-01T12:27:17Z</time>
      </trkpt>
      <trkpt lat="56.202590027824044" lon="-5.062328036874533">
        <ele>39.07</ele>
        <time>2023-09-01T12:27:28Z</time>
      </trkpt>
      <trkpt lat="56.203633993864059" lon="-5.060594994574785">
        <ele>40.030000000000001</ele>
        <time>2023-09-01T12:27:36Z</time>
      </trkpt>
      <trkpt lat="56.204162975773215" lon="-5.059732999652624">
        <ele>40.509999999999998</ele>
        <time>2023-09-01T12:27:40Z</time>
      </trkpt>
      <trkpt lat="56.204609982669353" lon="-5.059205023571849">
        <ele>40.509999999999998</ele>
        <time>2023-09-01T12:27:43Z</time>
      </trkpt>
      <trkpt lat="56.204769993200898" lon="-5.059091029688716">
        <ele>40.030000000000001</ele>
        <time>2023-09-01T12:27:44Z</time>
      </trkpt>
      <trkpt lat="56.204948024824262" lon="-5.059019029140472">
        <ele>39.549999999999997</ele>
        <time>2023-09-01T12:27:45Z</time>
      </trkpt>
      <trkpt lat="56.205128990113735" lon="-5.058946022763848">
        <ele>39.07</ele>
        <time>2023-09-01T12:27:46Z</time>
      </trkpt>
      <trkpt lat="56.205314984545112" lon="-5.058869998902082">
        <ele>38.109999999999999</ele>
        <time>2023-09-01T12:27:47Z</time>
      </trkpt>
      <trkpt lat="56.205496033653617" lon="-5.058848960325122">
        <ele>37.630000000000003</ele>
        <time>2023-09-01T12:27:48Z</time>
      </trkpt>
      <trkpt lat="56.205683033913374" lon="-5.05886496976018">
        <ele>37.149999999999999</ele>
        <time>2023-09-01T12:27:49Z</time>
      </trkpt>
      <trkpt lat="56.205862993374467" lon="-5.058881985023618">
        <ele>37.149999999999999</ele>
        <time>2023-09-01T12:27:50Z</time>
      </trkpt>
      <trkpt lat="56.206811992451549" lon="-5.058914003893733">
        <ele>36.670000000000002</ele>
        <time>2023-09-01T12:27:55Z</time>
      </trkpt>
      <trkpt lat="56.206993963569403" lon="-5.058887014165521">
        <ele>36.670000000000002</ele>
        <time>2023-09-01T12:27:56Z</time>
      </trkpt>
      <trkpt lat="56.207572985440493" lon="-5.058660032227635">
        <ele>35.710000000000001</ele>
        <time>2023-09-01T12:27:59Z</time>
      </trkpt>
      <trkpt lat="56.207755962386727" lon="-5.058569004759193">
        <ele>35.710000000000001</ele>
        <time>2023-09-01T12:28:00Z</time>
      </trkpt>
      <trkpt lat="56.207914967089891" lon="-5.058454005047679">
        <ele>35.229999999999997</ele>
        <time>2023-09-01T12:28:01Z</time>
      </trkpt>
      <trkpt lat="56.209246013313532" lon="-5.057151960209012">
        <ele>34.259999999999998</ele>
        <time>2023-09-01T12:28:09Z</time>
      </trkpt>
      <trkpt lat="56.209379034116864" lon="-5.056958002969623">
        <ele>34.259999999999998</ele>
        <time>2023-09-01T12:28:10Z</time>
      </trkpt>
      <trkpt lat="56.210447978228331" lon="-5.054930001497269">
        <ele>33.299999999999997</ele>
        <time>2023-09-01T12:28:19Z</time>
      </trkpt>
      <trkpt lat="56.211891006678343" lon="-5.051932968199253">
        <ele>31.379999999999999</ele>
        <time>2023-09-01T12:28:31Z</time>
      </trkpt>
      <trkpt lat="56.212454019114375" lon="-5.050542997196317">
        <ele>30.899999999999999</ele>
        <time>2023-09-01T12:28:36Z</time>
      </trkpt>
      <trkpt lat="56.213600998744369" lon="-5.04779901355505">
        <ele>28.02</ele>
        <time>2023-09-01T12:28:46Z</time>
      </trkpt>
      <trkpt lat="56.214795000851154" lon="-5.045845024287701">
        <ele>23.690000000000001</ele>
        <time>2023-09-01T12:28:55Z</time>
      </trkpt>
      <trkpt lat="56.21586000546813" lon="-5.043791960924864">
        <ele>23.690000000000001</ele>
        <time>2023-09-01T12:29:04Z</time>
      </trkpt>
      <trkpt lat="56.217132965102792" lon="-5.041936039924622">
        <ele>22.25</ele>
        <time>2023-09-01T12:29:13Z</time>
      </trkpt>
      <trkpt lat="56.218097973614931" lon="-5.040489993989468">
        <ele>21.289999999999999</ele>
        <time>2023-09-01T12:29:21Z</time>
      </trkpt>
      <trkpt lat="56.219020988792181" lon="-5.038442965596914">
        <ele>19.359999999999999</ele>
        <time>2023-09-01T12:29:32Z</time>
      </trkpt>
      <trkpt lat="56.219128025695682" lon="-5.038274992257357">
        <ele>19.84</ele>
        <time>2023-09-01T12:29:33Z</time>
      </trkpt>
      <trkpt lat="56.219240007922053" lon="-5.038107018917799">
        <ele>19.359999999999999</ele>
        <time>2023-09-01T12:29:34Z</time>
      </trkpt>
      <trkpt lat="56.220381036400795" lon="-5.036182031035423">
        <ele>17.920000000000002</ele>
        <time>2023-09-01T12:29:44Z</time>
      </trkpt>
      <trkpt lat="56.221717027947307" lon="-5.033628987148404">
        <ele>20.32</ele>
        <time>2023-09-01T12:29:56Z</time>
      </trkpt>
      <trkpt lat="56.221833033487201" lon="-5.033437963575125">
        <ele>20.32</ele>
        <time>2023-09-01T12:29:57Z</time>
      </trkpt>
      <trkpt lat="56.222095973789692" lon="-5.033117020502687">
        <ele>19.84</ele>
        <time>2023-09-01T12:29:59Z</time>
      </trkpt>
      <trkpt lat="56.222823020070791" lon="-5.032057967036963">
        <ele>19.84</ele>
        <time>2023-09-01T12:30:05Z</time>
      </trkpt>
      <trkpt lat="56.222918992862105" lon="-5.031840037554503">
        <ele>19.359999999999999</ele>
        <time>2023-09-01T12:30:06Z</time>
      </trkpt>
      <trkpt lat="56.223004991188645" lon="-5.031606014817953">
        <ele>18.879999999999999</ele>
        <time>2023-09-01T12:30:07Z</time>
      </trkpt>
      <trkpt lat="56.223738994449377" lon="-5.02919496037066">
        <ele>18.879999999999999</ele>
        <time>2023-09-01T12:30:17Z</time>
      </trkpt>
      <trkpt lat="56.223808983340859" lon="-5.028963033109903">
        <ele>18.879999999999999</ele>
        <time>2023-09-01T12:30:18Z</time>
      </trkpt>
      <trkpt lat="56.223877966403961" lon="-5.028734961524606">
        <ele>18.879999999999999</ele>
        <time>2023-09-01T12:30:19Z</time>
      </trkpt>
      <trkpt lat="56.224590009078383" lon="-5.026389034464955">
        <ele>19.84</ele>
        <time>2023-09-01T12:30:29Z</time>
      </trkpt>
      <trkpt lat="56.225419985130429" lon="-5.024237986654043">
        <ele>18.879999999999999</ele>
        <time>2023-09-01T12:30:38Z</time>
      </trkpt>
      <trkpt lat="56.226292038336396" lon="-5.021946039050818">
        <ele>19.84</ele>
        <time>2023-09-01T12:30:48Z</time>
      </trkpt>
      <trkpt lat="56.226870976388454" lon="-5.019754003733397">
        <ele>17.440000000000001</ele>
        <time>2023-09-01T12:30:57Z</time>
      </trkpt>
      <trkpt lat="56.22733399271965" lon="-5.01744001172483">
        <ele>13.6</ele>
        <time>2023-09-01T12:31:06Z</time>
      </trkpt>
      <trkpt lat="56.227799020707607" lon="-5.014439960941672">
        <ele>14.08</ele>
        <time>2023-09-01T12:31:17Z</time>
      </trkpt>
      <trkpt lat="56.228046035394073" lon="-5.01284102909267">
        <ele>16</ele>
        <time>2023-09-01T12:31:23Z</time>
      </trkpt>
      <trkpt lat="56.228087022900581" lon="-5.012576999142766">
        <ele>16.48</ele>
        <time>2023-09-01T12:31:24Z</time>
      </trkpt>
      <trkpt lat="56.228452976793051" lon="-5.010076006874442">
        <ele>24.649999999999999</ele>
        <time>2023-09-01T12:31:33Z</time>
      </trkpt>
      <trkpt lat="56.228824965655804" lon="-5.007287012413144">
        <ele>30.899999999999999</ele>
        <time>2023-09-01T12:31:43Z</time>
      </trkpt>
      <trkpt lat="56.229099975898862" lon="-5.004471028223634">
        <ele>36.670000000000002</ele>
        <time>2023-09-01T12:31:53Z</time>
      </trkpt>
      <trkpt lat="56.229261998087168" lon="-5.001812959089875">
        <ele>38.590000000000003</ele>
        <time>2023-09-01T12:32:02Z</time>
      </trkpt>
      <trkpt lat="56.229466013610363" lon="-4.998478973284364">
        <ele>43.399999999999999</ele>
        <time>2023-09-01T12:32:14Z</time>
      </trkpt>
      <trkpt lat="56.229251017794013" lon="-4.996505035087466">
        <ele>48.200000000000003</ele>
        <time>2023-09-01T12:32:21Z</time>
      </trkpt>
      <trkpt lat="56.229162001982331" lon="-4.99623597599566">
        <ele>48.68</ele>
        <time>2023-09-01T12:32:22Z</time>
      </trkpt>
      <trkpt lat="56.228303024545312" lon="-4.994534030556679">
        <ele>52.049999999999997</ele>
        <time>2023-09-01T12:32:30Z</time>
      </trkpt>
      <trkpt lat="56.227417979389429" lon="-4.992543999105692">
        <ele>52.049999999999997</ele>
        <time>2023-09-01T12:32:39Z</time>
      </trkpt>
      <trkpt lat="56.226765029132366" lon="-4.989644028246403">
        <ele>58.780000000000001</ele>
        <time>2023-09-01T12:32:50Z</time>
      </trkpt>
      <trkpt lat="56.226249961182475" lon="-4.986375002190471">
        <ele>69.829999999999998</ele>
        <time>2023-09-01T12:33:02Z</time>
      </trkpt>
      <trkpt lat="56.2262780405581" lon="-4.985516024753451">
        <ele>73.200000000000003</ele>
        <time>2023-09-01T12:33:05Z</time>
      </trkpt>
      <trkpt lat="56.226504016667604" lon="-4.983856994658709">
        <ele>78.969999999999999</ele>
        <time>2023-09-01T12:33:11Z</time>
      </trkpt>
      <trkpt lat="56.227371962741017" lon="-4.98164601624012">
        <ele>86.180000000000007</ele>
        <time>2023-09-01T12:33:20Z</time>
      </trkpt>
      <trkpt lat="56.228720024228096" lon="-4.978846963495016">
        <ele>96.269999999999996</ele>
        <time>2023-09-01T12:33:33Z</time>
      </trkpt>
      <trkpt lat="56.230075964704156" lon="-4.976111026480794">
        <ele>103</ele>
        <time>2023-09-01T12:33:44Z</time>
      </trkpt>
      <trkpt lat="56.231367029249668" lon="-4.974531037732959">
        <ele>107.81</ele>
        <time>2023-09-01T12:33:52Z</time>
      </trkpt>
      <trkpt lat="56.232621967792511" lon="-4.97343996539712">
        <ele>111.65000000000001</ele>
        <time>2023-09-01T12:34:00Z</time>
      </trkpt>
      <trkpt lat="56.232949029654264" lon="-4.973122961819172">
        <ele>113.09</ele>
        <time>2023-09-01T12:34:04Z</time>
      </trkpt>
      <trkpt lat="56.232883986085653" lon="-4.973064959049225">
        <ele>113.09</ele>
        <time>2023-09-01T12:34:05Z</time>
      </trkpt>
      <trkpt lat="56.23285599052906" lon="-4.972992036491633">
        <ele>113.09</ele>
        <time>2023-09-01T12:34:06Z</time>
      </trkpt>
      <trkpt lat="56.232821037992835" lon="-4.972900003194809">
        <ele>113.56999999999999</ele>
        <time>2023-09-01T12:34:07Z</time>
      </trkpt>
      <trkpt lat="56.232775021344423" lon="-4.972806964069605">
        <ele>114.05</ele>
        <time>2023-09-01T12:34:08Z</time>
      </trkpt>
      <trkpt lat="56.232705032452941" lon="-4.972671009600163">
        <ele>114.05</ele>
        <time>2023-09-01T12:34:09Z</time>
      </trkpt>
      <trkpt lat="56.232622973620892" lon="-4.972513010725379">
        <ele>114.53</ele>
        <time>2023-09-01T12:34:10Z</time>
      </trkpt>
      <trkpt lat="56.23253496363759" lon="-4.972344031557441">
        <ele>115.01000000000001</ele>
        <time>2023-09-01T12:34:11Z</time>
      </trkpt>
      <trkpt lat="56.232289960607886" lon="-4.972103973850608">
        <ele>116.45999999999999</ele>
        <time>2023-09-01T12:34:13Z</time>
      </trkpt>
      <trkpt lat="56.231734994798899" lon="-4.971594018861651">
        <ele>119.81999999999999</ele>
        <time>2023-09-01T12:34:17Z</time>
      </trkpt>
      <trkpt lat="56.231611026450992" lon="-4.97139897197485">
        <ele>120.78</ele>
        <time>2023-09-01T12:34:18Z</time>
      </trkpt>
      <trkpt lat="56.231589987874031" lon="-4.971213983371854">
        <ele>121.26000000000001</ele>
        <time>2023-09-01T12:34:19Z</time>
      </trkpt>
      <trkpt lat="56.231578001752496" lon="-4.97096898034215">
        <ele>122.22</ele>
        <time>2023-09-01T12:34:20Z</time>
      </trkpt>
      <trkpt lat="56.23160800896585" lon="-4.970767982304096">
        <ele>123.19</ele>
        <time>2023-09-01T12:34:21Z</time>
      </trkpt>
      <trkpt lat="56.231641033664346" lon="-4.97053999453783">
        <ele>124.15000000000001</ele>
        <time>2023-09-01T12:34:22Z</time>
      </trkpt>
      <trkpt lat="56.231745975092053" lon="-4.969833986833692">
        <ele>127.51000000000001</ele>
        <time>2023-09-01T12:34:25Z</time>
      </trkpt>
      <trkpt lat="56.231749998405576" lon="-4.969669030979276">
        <ele>128.47</ele>
        <time>2023-09-01T12:34:26Z</time>
      </trkpt>
      <trkpt lat="56.231715967878699" lon="-4.969496028497815">
        <ele>128.94999999999999</ele>
        <time>2023-09-01T12:34:27Z</time>
      </trkpt>
      <trkpt lat="56.231697024777532" lon="-4.969403995200992">
        <ele>129.43000000000001</ele>
        <time>2023-09-01T12:34:28Z</time>
      </trkpt>
      <trkpt lat="56.231638016179204" lon="-4.969359990209341">
        <ele>129.91999999999999</ele>
        <time>2023-09-01T12:34:29Z</time>
      </trkpt>
      <trkpt lat="56.231607003137469" lon="-4.969340041279793">
        <ele>130.40000000000001</ele>
        <time>2023-09-01T12:34:30Z</time>
      </trkpt>
      <trkpt lat="56.231516981497407" lon="-4.969356972724199">
        <ele>131.36000000000001</ele>
        <time>2023-09-01T12:34:31Z</time>
      </trkpt>
      <trkpt lat="56.231409022584558" lon="-4.96937801130116">
        <ele>132.31999999999999</ele>
        <time>2023-09-01T12:34:32Z</time>
      </trkpt>
      <trkpt lat="56.230374025180936" lon="-4.969523018226028">
        <ele>137.13</ele>
        <time>2023-09-01T12:34:39Z</time>
      </trkpt>
      <trkpt lat="56.229208018630743" lon="-4.969703983515501">
        <ele>141.93000000000001</ele>
        <time>2023-09-01T12:34:46Z</time>
      </trkpt>
      <trkpt lat="56.229071980342269" lon="-4.969840021803975">
        <ele>142.41</ele>
        <time>2023-09-01T12:34:47Z</time>
      </trkpt>
      <trkpt lat="56.228953041136265" lon="-4.969958961009979">
        <ele>143.37</ele>
        <time>2023-09-01T12:34:48Z</time>
      </trkpt>
      <trkpt lat="56.228757994249463" lon="-4.970155013725162">
        <ele>145.30000000000001</ele>
        <time>2023-09-01T12:34:50Z</time>
      </trkpt>
      <trkpt lat="56.228622039780021" lon="-4.97021796181798">
        <ele>145.78</ele>
        <time>2023-09-01T12:34:51Z</time>
      </trkpt>
      <trkpt lat="56.228505028411746" lon="-4.970273030921817">
        <ele>146.74000000000001</ele>
        <time>2023-09-01T12:34:52Z</time>
      </trkpt>
      <trkpt lat="56.228390028700233" lon="-4.97030203230679">
        <ele>147.69999999999999</ele>
        <time>2023-09-01T12:34:53Z</time>
      </trkpt>
      <trkpt lat="56.228269999846816" lon="-4.970291974022985">
        <ele>148.18000000000001</ele>
        <time>2023-09-01T12:34:54Z</time>
      </trkpt>
      <trkpt lat="56.228157011792064" lon="-4.970284011214972">
        <ele>149.13999999999999</ele>
        <time>2023-09-01T12:34:55Z</time>
      </trkpt>
      <trkpt lat="56.22806497849524" lon="-4.970213016495109">
        <ele>149.62</ele>
        <time>2023-09-01T12:34:56Z</time>
      </trkpt>
      <trkpt lat="56.227965988218784" lon="-4.970134980976582">
        <ele>150.58000000000001</ele>
        <time>2023-09-01T12:34:57Z</time>
      </trkpt>
      <trkpt lat="56.227929024025798" lon="-4.970018975436688">
        <ele>151.53999999999999</ele>
        <time>2023-09-01T12:34:58Z</time>
      </trkpt>
      <trkpt lat="56.227882001549006" lon="-4.969861982390285">
        <ele>152.50999999999999</ele>
        <time>2023-09-01T12:34:59Z</time>
      </trkpt>
      <trkpt lat="56.227834979072213" lon="-4.969703983515501">
        <ele>152.99000000000001</ele>
        <time>2023-09-01T12:35:00Z</time>
      </trkpt>
      <trkpt lat="56.227845037356019" lon="-4.969547996297479">
        <ele>154.43000000000001</ele>
        <time>2023-09-01T12:35:01Z</time>
      </trkpt>
      <trkpt lat="56.227859035134315" lon="-4.969371976330876">
        <ele>155.38999999999999</ele>
        <time>2023-09-01T12:35:02Z</time>
      </trkpt>
      <trkpt lat="56.227914020419121" lon="-4.969181036576629">
        <ele>156.34999999999999</ele>
        <time>2023-09-01T12:35:03Z</time>
      </trkpt>
      <trkpt lat="56.227973029017448" lon="-4.968978026881814">
        <ele>157.31</ele>
        <time>2023-09-01T12:35:04Z</time>
      </trkpt>
      <trkpt lat="56.228619022294879" lon="-4.96673796325922">
        <ele>169.33000000000001</ele>
        <time>2023-09-01T12:35:13Z</time>
      </trkpt>
      <trkpt lat="56.228780960664153" lon="-4.966146033257246">
        <ele>173.16999999999999</ele>
        <time>2023-09-01T12:35:16Z</time>
      </trkpt>
      <trkpt lat="56.228791018947959" lon="-4.96598300524056">
        <ele>174.13999999999999</ele>
        <time>2023-09-01T12:35:17Z</time>
      </trkpt>
      <trkpt lat="56.228799987584352" lon="-4.965819977223873">
        <ele>175.09999999999999</ele>
        <time>2023-09-01T12:35:18Z</time>
      </trkpt>
      <trkpt lat="56.228757994249463" lon="-4.965627025812864">
        <ele>176.06</ele>
        <time>2023-09-01T12:35:19Z</time>
      </trkpt>
      <trkpt lat="56.228682976216078" lon="-4.965528035536408">
        <ele>177.02000000000001</ele>
        <time>2023-09-01T12:35:20Z</time>
      </trkpt>
      <trkpt lat="56.228570993989706" lon="-4.965422004461289">
        <ele>177.5</ele>
        <time>2023-09-01T12:35:21Z</time>
      </trkpt>
      <trkpt lat="56.228458005934954" lon="-4.965356038883328">
        <ele>178.46000000000001</ele>
        <time>2023-09-01T12:35:22Z</time>
      </trkpt>
      <trkpt lat="56.227489979937673" lon="-4.964793026447296">
        <ele>186.63</ele>
        <time>2023-09-01T12:35:29Z</time>
      </trkpt>
      <trkpt lat="56.227361988276243" lon="-4.964666040614247">
        <ele>188.08000000000001</ele>
        <time>2023-09-01T12:35:30Z</time>
      </trkpt>
      <trkpt lat="56.22660300694406" lon="-4.963831035420299">
        <ele>194.80000000000001</ele>
        <time>2023-09-01T12:35:36Z</time>
      </trkpt>
      <trkpt lat="56.226506028324366" lon="-4.963678987696767">
        <ele>195.77000000000001</ele>
        <time>2023-09-01T12:35:37Z</time>
      </trkpt>
      <trkpt lat="56.226436961442232" lon="-4.963495004922152">
        <ele>196.72999999999999</ele>
        <time>2023-09-01T12:35:38Z</time>
      </trkpt>
      <trkpt lat="56.226391028612852" lon="-4.963283026590943">
        <ele>198.16999999999999</ele>
        <time>2023-09-01T12:35:39Z</time>
      </trkpt>
      <trkpt lat="56.22634501196444" lon="-4.963067024946213">
        <ele>199.61000000000001</ele>
        <time>2023-09-01T12:35:40Z</time>
      </trkpt>
      <trkpt lat="56.226325985044241" lon="-4.962831996381283">
        <ele>200.56999999999999</ele>
        <time>2023-09-01T12:35:41Z</time>
      </trkpt>
      <trkpt lat="56.226316010579467" lon="-4.962583975866437">
        <ele>202.00999999999999</ele>
        <time>2023-09-01T12:35:42Z</time>
      </trkpt>
      <trkpt lat="56.226306036114693" lon="-4.962330004200339">
        <ele>202.97999999999999</ele>
        <time>2023-09-01T12:35:43Z</time>
      </trkpt>
      <trkpt lat="56.226250967010856" lon="-4.960767030715942">
        <ele>207.78</ele>
        <time>2023-09-01T12:35:49Z</time>
      </trkpt>
      <trkpt lat="56.226266976445913" lon="-4.960544994100928">
        <ele>208.74000000000001</ele>
        <time>2023-09-01T12:35:50Z</time>
      </trkpt>
      <trkpt lat="56.22628198005259" lon="-4.960334021598101">
        <ele>209.22</ele>
        <time>2023-09-01T12:35:51Z</time>
      </trkpt>
      <trkpt lat="56.226312993094325" lon="-4.960121959447861">
        <ele>209.69999999999999</ele>
        <time>2023-09-01T12:35:52Z</time>
      </trkpt>
      <trkpt lat="56.226363033056259" lon="-4.959904029965401">
        <ele>210.19</ele>
        <time>2023-09-01T12:35:53Z</time>
      </trkpt>
      <trkpt lat="56.226469986140728" lon="-4.959439001977444">
        <ele>211.63</ele>
        <time>2023-09-01T12:35:55Z</time>
      </trkpt>
      <trkpt lat="56.226522037759423" lon="-4.959212020039558">
        <ele>212.11000000000001</ele>
        <time>2023-09-01T12:35:56Z</time>
      </trkpt>
      <trkpt lat="56.226547015830874" lon="-4.958994006738067">
        <ele>212.11000000000001</ele>
        <time>2023-09-01T12:35:57Z</time>
      </trkpt>
      <trkpt lat="56.226547015830874" lon="-4.958782028406858">
        <ele>212.59</ele>
        <time>2023-09-01T12:35:58Z</time>
      </trkpt>
      <trkpt lat="56.226504016667604" lon="-4.958595028147101">
        <ele>212.59</ele>
        <time>2023-09-01T12:35:59Z</time>
      </trkpt>
      <trkpt lat="56.226433021947742" lon="-4.958413979038596">
        <ele>213.06999999999999</ele>
        <time>2023-09-01T12:36:00Z</time>
      </trkpt>
      <trkpt lat="56.226340988650918" lon="-4.958252040669322">
        <ele>213.55000000000001</ele>
        <time>2023-09-01T12:36:01Z</time>
      </trkpt>
      <trkpt lat="56.226247027516365" lon="-4.958083983510733">
        <ele>214.03</ele>
        <time>2023-09-01T12:36:02Z</time>
      </trkpt>
      <trkpt lat="56.225718967616558" lon="-4.957312010228634">
        <ele>215.94999999999999</ele>
        <time>2023-09-01T12:36:07Z</time>
      </trkpt>
      <trkpt lat="56.225575972348452" lon="-4.957248978316784">
        <ele>216.43000000000001</ele>
        <time>2023-09-01T12:36:08Z</time>
      </trkpt>
      <trkpt lat="56.225439012050629" lon="-4.957194998860359">
        <ele>216.91</ele>
        <time>2023-09-01T12:36:09Z</time>
      </trkpt>
      <trkpt lat="56.225298028439283" lon="-4.957139007747173">
        <ele>217.88</ele>
        <time>2023-09-01T12:36:10Z</time>
      </trkpt>
      <trkpt lat="56.225161990150809" lon="-4.957086034119129">
        <ele>218.36000000000001</ele>
        <time>2023-09-01T12:36:11Z</time>
      </trkpt>
      <trkpt lat="56.225032992660999" lon="-4.957034988328815">
        <ele>219.31999999999999</ele>
        <time>2023-09-01T12:36:12Z</time>
      </trkpt>
      <trkpt lat="56.224921010434628" lon="-4.956946978345513">
        <ele>219.80000000000001</ele>
        <time>2023-09-01T12:36:13Z</time>
      </trkpt>
      <trkpt lat="56.224808022379875" lon="-4.956841031089425">
        <ele>220.28</ele>
        <time>2023-09-01T12:36:14Z</time>
      </trkpt>
      <trkpt lat="56.224232017993927" lon="-4.956406010314822">
        <ele>222.19999999999999</ele>
        <time>2023-09-01T12:36:19Z</time>
      </trkpt>
      <trkpt lat="56.224121041595936" lon="-4.95637902058661">
        <ele>222.68000000000001</ele>
        <time>2023-09-01T12:36:20Z</time>
      </trkpt>
      <trkpt lat="56.223126025870442" lon="-4.956378014758229">
        <ele>224.12</ele>
        <time>2023-09-01T12:36:27Z</time>
      </trkpt>
      <trkpt lat="56.222020033746958" lon="-4.956111973151565">
        <ele>221.24000000000001</ele>
        <time>2023-09-01T12:36:35Z</time>
      </trkpt>
      <trkpt lat="56.221885001286864" lon="-4.956051958724856">
        <ele>220.75999999999999</ele>
        <time>2023-09-01T12:36:36Z</time>
      </trkpt>
      <trkpt lat="56.221780981868505" lon="-4.955952968448401">
        <ele>220.28</ele>
        <time>2023-09-01T12:36:37Z</time>
      </trkpt>
      <trkpt lat="56.221685009077191" lon="-4.955836040899158">
        <ele>219.31999999999999</ele>
        <time>2023-09-01T12:36:38Z</time>
      </trkpt>
      <trkpt lat="56.221599010750651" lon="-4.955701008439064">
        <ele>218.84</ele>
        <time>2023-09-01T12:36:39Z</time>
      </trkpt>
      <trkpt lat="56.221516029909253" lon="-4.955554995685816">
        <ele>217.88</ele>
        <time>2023-09-01T12:36:40Z</time>
      </trkpt>
      <trkpt lat="56.221054019406438" lon="-4.954738011583686">
        <ele>213.06999999999999</ele>
        <time>2023-09-01T12:36:45Z</time>
      </trkpt>
      <trkpt lat="56.220955029129982" lon="-4.954602979123592">
        <ele>212.11000000000001</ele>
        <time>2023-09-01T12:36:46Z</time>
      </trkpt>
      <trkpt lat="56.220052968710661" lon="-4.953573010861874">
        <ele>204.41999999999999</ele>
        <time>2023-09-01T12:36:54Z</time>
      </trkpt>
      <trkpt lat="56.219967976212502" lon="-4.95339103974402">
        <ele>203.46000000000001</ele>
        <time>2023-09-01T12:36:55Z</time>
      </trkpt>
      <trkpt lat="56.219199020415545" lon="-4.952008025720716">
        <ele>193.84</ele>
        <time>2023-09-01T12:37:03Z</time>
      </trkpt>
      <trkpt lat="56.2188680190593" lon="-4.951523970812559">
        <ele>190.47999999999999</ele>
        <time>2023-09-01T12:37:06Z</time>
      </trkpt>
      <trkpt lat="56.218255972489715" lon="-4.950414961203933">
        <ele>182.78999999999999</ele>
        <time>2023-09-01T12:37:12Z</time>
      </trkpt>
      <trkpt lat="56.218210039660335" lon="-4.950267020612955">
        <ele>181.83000000000001</ele>
        <time>2023-09-01T12:37:13Z</time>
      </trkpt>
      <trkpt lat="56.218170979991555" lon="-4.950120002031326">
        <ele>177.5</ele>
        <time>2023-09-01T12:37:19Z</time>
      </trkpt>
      <trkpt lat="56.218156982213259" lon="-4.950069962069392">
        <ele>177.5</ele>
        <time>2023-09-01T12:37:22Z</time>
      </trkpt>
      <trkpt lat="56.218152958899736" lon="-4.95004003867507">
        <ele>176.06</ele>
        <time>2023-09-01T12:37:23Z</time>
      </trkpt>
      <trkpt lat="56.218139966949821" lon="-4.949946999549866">
        <ele>175.09999999999999</ele>
        <time>2023-09-01T12:37:24Z</time>
      </trkpt>
      <trkpt lat="56.21809596195817" lon="-4.949638964608312">
        <ele>172.21000000000001</ele>
        <time>2023-09-01T12:37:26Z</time>
      </trkpt>
      <trkpt lat="56.21772900223732" lon="-4.947744989767671">
        <ele>162.59999999999999</ele>
        <time>2023-09-01T12:37:34Z</time>
      </trkpt>
      <trkpt lat="56.217535967007279" lon="-4.947317009791732">
        <ele>159.24000000000001</ele>
        <time>2023-09-01T12:37:37Z</time>
      </trkpt>
      <trkpt lat="56.217503026127815" lon="-4.947264958173037">
        <ele>154.91</ele>
        <time>2023-09-01T12:37:42Z</time>
      </trkpt>
      <trkpt lat="56.217288030311465" lon="-4.946944015100598">
        <ele>150.58000000000001</ele>
        <time>2023-09-01T12:37:55Z</time>
      </trkpt>
      <trkpt lat="56.216594008728862" lon="-4.946157960221171">
        <ele>144.34</ele>
        <time>2023-09-01T12:38:02Z</time>
      </trkpt>
      <trkpt lat="56.215310990810394" lon="-4.944452997297049">
        <ele>132.31999999999999</ele>
        <time>2023-09-01T12:38:13Z</time>
      </trkpt>
      <trkpt lat="56.214681006968021" lon="-4.9436179921031">
        <ele>126.06999999999999</ele>
        <time>2023-09-01T12:38:19Z</time>
      </trkpt>
      <trkpt lat="56.214609006419778" lon="-4.943484971299768">
        <ele>125.11</ele>
        <time>2023-09-01T12:38:20Z</time>
      </trkpt>
      <trkpt lat="56.214551003649831" lon="-4.943322027102113">
        <ele>124.15000000000001</ele>
        <time>2023-09-01T12:38:21Z</time>
      </trkpt>
      <trkpt lat="56.214212039485574" lon="-4.941953010857105">
        <ele>116.94</ele>
        <time>2023-09-01T12:38:30Z</time>
      </trkpt>
      <trkpt lat="56.214195024222136" lon="-4.941865000873804">
        <ele>115.98</ele>
        <time>2023-09-01T12:38:31Z</time>
      </trkpt>
      <trkpt lat="56.214183960109949" lon="-4.941809009760618">
        <ele>115.01000000000001</ele>
        <time>2023-09-01T12:38:32Z</time>
      </trkpt>
      <trkpt lat="56.214180020615458" lon="-4.941793000325561">
        <ele>115.01000000000001</ele>
        <time>2023-09-01T12:38:33Z</time>
      </trkpt>
      <trkpt lat="56.214178008958697" lon="-4.941783025860786">
        <ele>115.01000000000001</ele>
        <time>2023-09-01T12:38:34Z</time>
      </trkpt>
      <trkpt lat="56.214175997301936" lon="-4.941772967576981">
        <ele>114.53</ele>
        <time>2023-09-01T12:38:35Z</time>
      </trkpt>
      <trkpt lat="56.214064015075564" lon="-4.941267035901547">
        <ele>110.20999999999999</ele>
        <time>2023-09-01T12:38:41Z</time>
      </trkpt>
      <trkpt lat="56.213526986539364" lon="-4.939583027735353">
        <ele>111.17</ele>
        <time>2023-09-01T12:38:50Z</time>
      </trkpt>
      <trkpt lat="56.21282902546227" lon="-4.937831964343786">
        <ele>114.05</ele>
        <time>2023-09-01T12:38:59Z</time>
      </trkpt>
      <trkpt lat="56.211826968938112" lon="-4.935650993138552">
        <ele>115.98</ele>
        <time>2023-09-01T12:39:10Z</time>
      </trkpt>
      <trkpt lat="56.211761003360152" lon="-4.935452006757259">
        <ele>115.98</ele>
        <time>2023-09-01T12:39:11Z</time>
      </trkpt>
      <trkpt lat="56.211677016690373" lon="-4.935199962928891">
        <ele>115.98</ele>
        <time>2023-09-01T12:39:12Z</time>
      </trkpt>
      <trkpt lat="56.211637035012245" lon="-4.934960994869471">
        <ele>115.98</ele>
        <time>2023-09-01T12:39:13Z</time>
      </trkpt>
      <trkpt lat="56.211164966225624" lon="-4.93319702334702">
        <ele>116.45999999999999</ele>
        <time>2023-09-01T12:39:21Z</time>
      </trkpt>
      <trkpt lat="56.210770010948181" lon="-4.932457990944386">
        <ele>116.45999999999999</ele>
        <time>2023-09-01T12:39:25Z</time>
      </trkpt>
      <trkpt lat="56.209854036569595" lon="-4.930708017200232">
        <ele>114.53</ele>
        <time>2023-09-01T12:39:34Z</time>
      </trkpt>
      <trkpt lat="56.20885600335896" lon="-4.928593011572957">
        <ele>114.05</ele>
        <time>2023-09-01T12:39:45Z</time>
      </trkpt>
      <trkpt lat="56.208690963685513" lon="-4.928242983296514">
        <ele>114.05</ele>
        <time>2023-09-01T12:39:47Z</time>
      </trkpt>
      <trkpt lat="56.208602031692863" lon="-4.928100993856788">
        <ele>114.05</ele>
        <time>2023-09-01T12:39:48Z</time>
      </trkpt>
      <trkpt lat="56.208506980910897" lon="-4.927964033558965">
        <ele>114.05</ele>
        <time>2023-09-01T12:39:49Z</time>
      </trkpt>
      <trkpt lat="56.208182014524937" lon="-4.927571006119251">
        <ele>113.56999999999999</ele>
        <time>2023-09-01T12:39:52Z</time>
      </trkpt>
      <trkpt lat="56.208090987056494" lon="-4.927418036386371">
        <ele>113.56999999999999</ele>
        <time>2023-09-01T12:39:53Z</time>
      </trkpt>
      <trkpt lat="56.208014963194728" lon="-4.927234975621104">
        <ele>113.09</ele>
        <time>2023-09-01T12:39:54Z</time>
      </trkpt>
      <trkpt lat="56.207957966253161" lon="-4.927050992846489">
        <ele>113.09</ele>
        <time>2023-09-01T12:39:55Z</time>
      </trkpt>
      <trkpt lat="56.207905998453498" lon="-4.926886036992073">
        <ele>113.56999999999999</ele>
        <time>2023-09-01T12:39:56Z</time>
      </trkpt>
      <trkpt lat="56.207743976265192" lon="-4.926443975418806">
        <ele>114.53</ele>
        <time>2023-09-01T12:39:59Z</time>
      </trkpt>
      <trkpt lat="56.207684967666864" lon="-4.926307015120983">
        <ele>115.01000000000001</ele>
        <time>2023-09-01T12:40:00Z</time>
      </trkpt>
      <trkpt lat="56.207506014034152" lon="-4.925890015438199">
        <ele>115.5</ele>
        <time>2023-09-01T12:40:03Z</time>
      </trkpt>
      <trkpt lat="56.20743996463716" lon="-4.925711983814836">
        <ele>115.98</ele>
        <time>2023-09-01T12:40:04Z</time>
      </trkpt>
      <trkpt lat="56.207397971302271" lon="-4.925525989383459">
        <ele>115.5</ele>
        <time>2023-09-01T12:40:05Z</time>
      </trkpt>
      <trkpt lat="56.207355977967381" lon="-4.92533496581018">
        <ele>115.5</ele>
        <time>2023-09-01T12:40:06Z</time>
      </trkpt>
      <trkpt lat="56.207312978804111" lon="-4.92514100857079">
        <ele>115.5</ele>
        <time>2023-09-01T12:40:07Z</time>
      </trkpt>
      <trkpt lat="56.207269979640841" lon="-4.924946967512369">
        <ele>115.98</ele>
        <time>2023-09-01T12:40:08Z</time>
      </trkpt>
      <trkpt lat="56.206914000213146" lon="-4.923947006464005">
        <ele>116.94</ele>
        <time>2023-09-01T12:40:14Z</time>
      </trkpt>
      <trkpt lat="56.206561038270593" lon="-4.923206968232989">
        <ele>118.86</ele>
        <time>2023-09-01T12:40:19Z</time>
      </trkpt>
      <trkpt lat="56.206481996923685" lon="-4.92305601015687">
        <ele>118.86</ele>
        <time>2023-09-01T12:40:20Z</time>
      </trkpt>
      <trkpt lat="56.205832986161113" lon="-4.921735022217035">
        <ele>120.78</ele>
        <time>2023-09-01T12:40:28Z</time>
      </trkpt>
      <trkpt lat="56.205723015591502" lon="-4.921479038894177">
        <ele>120.3</ele>
        <time>2023-09-01T12:40:30Z</time>
      </trkpt>
      <trkpt lat="56.205690996721387" lon="-4.921403015032411">
        <ele>119.81999999999999</ele>
        <time>2023-09-01T12:40:31Z</time>
      </trkpt>
      <trkpt lat="56.205622013658285" lon="-4.921191036701202">
        <ele>119.81999999999999</ele>
        <time>2023-09-01T12:40:32Z</time>
      </trkpt>
      <trkpt lat="56.205162014812231" lon="-4.919776003807783">
        <ele>115.01000000000001</ele>
        <time>2023-09-01T12:40:40Z</time>
      </trkpt>
      <trkpt lat="56.205119015648961" lon="-4.919590009376407">
        <ele>114.05</ele>
        <time>2023-09-01T12:40:41Z</time>
      </trkpt>
      <trkpt lat="56.20509403757751" lon="-4.919418012723327">
        <ele>112.61</ele>
        <time>2023-09-01T12:40:42Z</time>
      </trkpt>
      <trkpt lat="56.205067969858646" lon="-4.919236041605473">
        <ele>111.17</ele>
        <time>2023-09-01T12:40:43Z</time>
      </trkpt>
      <trkpt lat="56.205083979293704" lon="-4.919091034680605">
        <ele>110.20999999999999</ele>
        <time>2023-09-01T12:40:44Z</time>
      </trkpt>
      <trkpt lat="56.205100994557142" lon="-4.918945021927357">
        <ele>108.77</ele>
        <time>2023-09-01T12:40:45Z</time>
      </trkpt>
      <trkpt lat="56.205126978456974" lon="-4.918796997517347">
        <ele>107.81</ele>
        <time>2023-09-01T12:40:46Z</time>
      </trkpt>
      <trkpt lat="56.205170983448625" lon="-4.918655008077622">
        <ele>106.84</ele>
        <time>2023-09-01T12:40:47Z</time>
      </trkpt>
      <trkpt lat="56.205831980332732" lon="-4.917542980983853">
        <ele>97.709999999999994</ele>
        <time>2023-09-01T12:40:55Z</time>
      </trkpt>
      <trkpt lat="56.206034990027547" lon="-4.917328990995884">
        <ele>94.829999999999998</ele>
        <time>2023-09-01T12:40:57Z</time>
      </trkpt>
      <trkpt lat="56.206125011667609" lon="-4.917252967134118">
        <ele>93.390000000000001</ele>
        <time>2023-09-01T12:40:58Z</time>
      </trkpt>
      <trkpt lat="56.206218972802162" lon="-4.917223965749145">
        <ele>91.939999999999998</ele>
        <time>2023-09-01T12:40:59Z</time>
      </trkpt>
      <trkpt lat="56.206446960568428" lon="-4.917151965200901">
        <ele>87.620000000000005</ele>
        <time>2023-09-01T12:41:02Z</time>
      </trkpt>
      <trkpt lat="56.206502029672265" lon="-4.917134027928114">
        <ele>86.659999999999997</ele>
        <time>2023-09-01T12:41:03Z</time>
      </trkpt>
      <trkpt lat="56.206505969166756" lon="-4.917133022099733">
        <ele>85.689999999999998</ele>
        <time>2023-09-01T12:41:04Z</time>
      </trkpt>
      <trkpt lat="56.206526001915336" lon="-4.917039982974529">
        <ele>84.730000000000004</ele>
        <time>2023-09-01T12:41:05Z</time>
      </trkpt>
      <trkpt lat="56.206538993865252" lon="-4.916984997689724">
        <ele>82.810000000000002</ele>
        <time>2023-09-01T12:41:06Z</time>
      </trkpt>
      <trkpt lat="56.206548968330026" lon="-4.916939986869693">
        <ele>80.890000000000001</ele>
        <time>2023-09-01T12:41:07Z</time>
      </trkpt>
      <trkpt lat="56.20653597638011" lon="-4.916920037940145">
        <ele>79.450000000000003</ele>
        <time>2023-09-01T12:41:08Z</time>
      </trkpt>
      <trkpt lat="56.206490965560079" lon="-4.91684602573514">
        <ele>78</ele>
        <time>2023-09-01T12:41:09Z</time>
      </trkpt>
      <trkpt lat="56.206438997760415" lon="-4.9167600274086">
        <ele>76.560000000000002</ele>
        <time>2023-09-01T12:41:10Z</time>
      </trkpt>
      <trkpt lat="56.206313017755747" lon="-4.916554000228643">
        <ele>75.120000000000005</ele>
        <time>2023-09-01T12:41:11Z</time>
      </trkpt>
      <trkpt lat="56.20629801414907" lon="-4.916541008278728">
        <ele>74.159999999999997</ele>
        <time>2023-09-01T12:41:12Z</time>
      </trkpt>
      <trkpt lat="56.206076983362436" lon="-4.916359959170222">
        <ele>72.719999999999999</ele>
        <time>2023-09-01T12:41:13Z</time>
      </trkpt>
      <trkpt lat="56.206034990027547" lon="-4.91637303493917">
        <ele>71.760000000000005</ele>
        <time>2023-09-01T12:41:14Z</time>
      </trkpt>
      <trkpt lat="56.205940023064613" lon="-4.916402958333492">
        <ele>70.790000000000006</ele>
        <time>2023-09-01T12:41:15Z</time>
      </trkpt>
      <trkpt lat="56.205833991989493" lon="-4.916435983031988">
        <ele>69.829999999999998</ele>
        <time>2023-09-01T12:41:16Z</time>
      </trkpt>
      <trkpt lat="56.205713963136077" lon="-4.916473031044006">
        <ele>68.870000000000005</ele>
        <time>2023-09-01T12:41:17Z</time>
      </trkpt>
      <trkpt lat="56.205600975081325" lon="-4.916507983580232">
        <ele>67.430000000000007</ele>
        <time>2023-09-01T12:41:18Z</time>
      </trkpt>
      <trkpt lat="56.205454962328076" lon="-4.916554000228643">
        <ele>65.989999999999995</ele>
        <time>2023-09-01T12:41:19Z</time>
      </trkpt>
      <trkpt lat="56.204965962097049" lon="-4.916806966066361">
        <ele>58.780000000000001</ele>
        <time>2023-09-01T12:41:23Z</time>
      </trkpt>
      <trkpt lat="56.204823972657323" lon="-4.916879972442985">
        <ele>57.340000000000003</ele>
        <time>2023-09-01T12:41:24Z</time>
      </trkpt>
      <trkpt lat="56.204672008752823" lon="-4.916959013789892">
        <ele>54.450000000000003</ele>
        <time>2023-09-01T12:41:25Z</time>
      </trkpt>
      <trkpt lat="56.204521972686052" lon="-4.917036965489388">
        <ele>52.049999999999997</ele>
        <time>2023-09-01T12:41:26Z</time>
      </trkpt>
      <trkpt lat="56.204360034316778" lon="-4.917121035978198">
        <ele>48.200000000000003</ele>
        <time>2023-09-01T12:41:27Z</time>
      </trkpt>
      <trkpt lat="56.203773971647024" lon="-4.917424041777849">
        <ele>36.670000000000002</ele>
        <time>2023-09-01T12:41:32Z</time>
      </trkpt>
      <trkpt lat="56.203645979985595" lon="-4.917439967393875">
        <ele>33.780000000000001</ele>
        <time>2023-09-01T12:41:33Z</time>
      </trkpt>
      <trkpt lat="56.203585965558887" lon="-4.91736201569438">
        <ele>31.379999999999999</ele>
        <time>2023-09-01T12:41:34Z</time>
      </trkpt>
      <trkpt lat="56.20346300303936" lon="-4.917202005162835">
        <ele>27.050000000000001</ele>
        <time>2023-09-01T12:41:36Z</time>
      </trkpt>
      <trkpt lat="56.203388990834355" lon="-4.917109971866012">
        <ele>25.129999999999999</ele>
        <time>2023-09-01T12:41:37Z</time>
      </trkpt>
      <trkpt lat="56.203181035816669" lon="-4.917060015723109">
        <ele>21.289999999999999</ele>
        <time>2023-09-01T12:41:39Z</time>
      </trkpt>
      <trkpt lat="56.202615005895495" lon="-4.91686899214983">
        <ele>14.56</ele>
        <time>2023-09-01T12:41:44Z</time>
      </trkpt>
      <trkpt lat="56.202529007568955" lon="-4.91678299382329">
        <ele>13.119999999999999</ele>
        <time>2023-09-01T12:41:45Z</time>
      </trkpt>
      <trkpt lat="56.202492965385318" lon="-4.916747035458684">
        <ele>12.15</ele>
        <time>2023-09-01T12:41:46Z</time>
      </trkpt>
      <trkpt lat="56.202414007857442" lon="-4.916561963036656">
        <ele>10.710000000000001</ele>
        <time>2023-09-01T12:41:47Z</time>
      </trkpt>
      <trkpt lat="56.202361034229398" lon="-4.916436988860369">
        <ele>9.75</ele>
        <time>2023-09-01T12:41:48Z</time>
      </trkpt>
      <trkpt lat="56.202310994267464" lon="-4.916320983320475">
        <ele>8.789999999999999</ele>
        <time>2023-09-01T12:41:49Z</time>
      </trkpt>
      <trkpt lat="56.202175039798021" lon="-4.916004985570908">
        <ele>6.39</ele>
        <time>2023-09-01T12:41:52Z</time>
      </trkpt>
      <trkpt lat="56.202143020927906" lon="-4.915929967537522">
        <ele>5.91</ele>
        <time>2023-09-01T12:41:53Z</time>
      </trkpt>
      <trkpt lat="56.202119970694184" lon="-4.915874982252717">
        <ele>7.83</ele>
        <time>2023-09-01T12:41:54Z</time>
      </trkpt>
      <trkpt lat="56.202111002057791" lon="-4.915843969210982">
        <ele>7.83</ele>
        <time>2023-09-01T12:41:55Z</time>
      </trkpt>
      <trkpt lat="56.202166993170977" lon="-4.915819996967912">
        <ele>7.35</ele>
        <time>2023-09-01T12:41:56Z</time>
      </trkpt>
      <trkpt lat="56.202246034517884" lon="-4.915785966441035">
        <ele>6.87</ele>
        <time>2023-09-01T12:41:57Z</time>
      </trkpt>
      <trkpt lat="56.202337983995676" lon="-4.915746990591288">
        <ele>6.39</ele>
        <time>2023-09-01T12:41:58Z</time>
      </trkpt>
      <trkpt lat="56.202810974791646" lon="-4.915554039180279">
        <ele>4.46</ele>
        <time>2023-09-01T12:42:02Z</time>
      </trkpt>
      <trkpt lat="56.203051032498479" lon="-4.915458988398314">
        <ele>4.46</ele>
        <time>2023-09-01T12:42:03Z</time>
      </trkpt>
      <trkpt lat="56.203107023611665" lon="-4.915418000891805">
        <ele>3.98</ele>
        <time>2023-09-01T12:42:04Z</time>
      </trkpt>
      <trkpt lat="56.203252030536532" lon="-4.915311969816685">
        <ele>3.98</ele>
        <time>2023-09-01T12:42:05Z</time>
      </trkpt>
      <trkpt lat="56.203402988612652" lon="-4.915201999247074">
        <ele>3.98</ele>
        <time>2023-09-01T12:42:06Z</time>
      </trkpt>
      <trkpt lat="56.204446032643318" lon="-4.914466990157962">
        <ele>3.98</ele>
        <time>2023-09-01T12:42:13Z</time>
      </trkpt>
      <trkpt lat="56.204565977677703" lon="-4.91439700126648">
        <ele>4.46</ele>
        <time>2023-09-01T12:42:14Z</time>
      </trkpt>
      <trkpt lat="56.204672008752823" lon="-4.91433497518301">
        <ele>4.94</ele>
        <time>2023-09-01T12:42:15Z</time>
      </trkpt>
      <trkpt lat="56.20477301068604" lon="-4.914276972413063">
        <ele>5.91</ele>
        <time>2023-09-01T12:42:16Z</time>
      </trkpt>
      <trkpt lat="56.20488197542727" lon="-4.914213018491864">
        <ele>7.35</ele>
        <time>2023-09-01T12:42:17Z</time>
      </trkpt>
      <trkpt lat="56.204994041472673" lon="-4.914148980751634">
        <ele>8.789999999999999</ele>
        <time>2023-09-01T12:42:18Z</time>
      </trkpt>
      <trkpt lat="56.205109041184187" lon="-4.914081003516913">
        <ele>9.75</ele>
        <time>2023-09-01T12:42:19Z</time>
      </trkpt>
      <trkpt lat="56.205224962905049" lon="-4.914014032110572">
        <ele>10.23</ele>
        <time>2023-09-01T12:42:20Z</time>
      </trkpt>
      <trkpt lat="56.206155018880963" lon="-4.913251027464867">
        <ele>15.039999999999999</ele>
        <time>2023-09-01T12:42:28Z</time>
      </trkpt>
      <trkpt lat="56.207064036279917" lon="-4.912112010642886">
        <ele>23.690000000000001</ele>
        <time>2023-09-01T12:42:36Z</time>
      </trkpt>
      <trkpt lat="56.20774095878005" lon="-4.911210034042597">
        <ele>29.460000000000001</ele>
        <time>2023-09-01T12:42:43Z</time>
      </trkpt>
      <trkpt lat="56.208390975371003" lon="-4.910264974460006">
        <ele>34.740000000000002</ele>
        <time>2023-09-01T12:42:51Z</time>
      </trkpt>
      <trkpt lat="56.208483008667827" lon="-4.910123990848661">
        <ele>35.710000000000001</ele>
        <time>2023-09-01T12:42:52Z</time>
      </trkpt>
      <trkpt lat="56.208795988932252" lon="-4.909552009776235">
        <ele>39.549999999999997</ele>
        <time>2023-09-01T12:42:56Z</time>
      </trkpt>
      <trkpt lat="56.208992963656783" lon="-4.909187983721495">
        <ele>42.439999999999998</ele>
        <time>2023-09-01T12:42:59Z</time>
      </trkpt>
      <trkpt lat="56.209673993289471" lon="-4.907931033521891">
        <ele>49.649999999999999</ele>
        <time>2023-09-01T12:43:06Z</time>
      </trkpt>
      <trkpt lat="56.209941962733865" lon="-4.907438009977341">
        <ele>50.609999999999999</ele>
        <time>2023-09-01T12:43:09Z</time>
      </trkpt>
      <trkpt lat="56.210026033222675" lon="-4.907280011102557">
        <ele>51.57</ele>
        <time>2023-09-01T12:43:10Z</time>
      </trkpt>
      <trkpt lat="56.210504975169897" lon="-4.905896997079253">
        <ele>54.450000000000003</ele>
        <time>2023-09-01T12:43:17Z</time>
      </trkpt>
      <trkpt lat="56.210563983768225" lon="-4.905728017911315">
        <ele>54.450000000000003</ele>
        <time>2023-09-01T12:43:18Z</time>
      </trkpt>
      <trkpt lat="56.210620980709791" lon="-4.905562978237867">
        <ele>54.93</ele>
        <time>2023-09-01T12:43:19Z</time>
      </trkpt>
      <trkpt lat="56.210677977651358" lon="-4.90539601072669">
        <ele>55.409999999999997</ele>
        <time>2023-09-01T12:43:20Z</time>
      </trkpt>
      <trkpt lat="56.210735980421305" lon="-4.905228959396482">
        <ele>55.890000000000001</ele>
        <time>2023-09-01T12:43:21Z</time>
      </trkpt>
      <trkpt lat="56.210802029818296" lon="-4.905045982450247">
        <ele>56.369999999999997</ele>
        <time>2023-09-01T12:43:22Z</time>
      </trkpt>
      <trkpt lat="56.210903031751513" lon="-4.904904998838902">
        <ele>56.859999999999999</ele>
        <time>2023-09-01T12:43:23Z</time>
      </trkpt>
      <trkpt lat="56.211845995858312" lon="-4.903419977054">
        <ele>67.909999999999997</ele>
        <time>2023-09-01T12:43:32Z</time>
      </trkpt>
      <trkpt lat="56.212152019143105" lon="-4.902893006801605">
        <ele>73.200000000000003</ele>
        <time>2023-09-01T12:43:35Z</time>
      </trkpt>
      <trkpt lat="56.212236005812883" lon="-4.902697959914804">
        <ele>74.640000000000001</ele>
        <time>2023-09-01T12:43:36Z</time>
      </trkpt>
      <trkpt lat="56.213220963254571" lon="-4.90032596513629">
        <ele>88.099999999999994</ele>
        <time>2023-09-01T12:43:49Z</time>
      </trkpt>
      <trkpt lat="56.213333029299974" lon="-4.900033017620444">
        <ele>90.019999999999996</ele>
        <time>2023-09-01T12:43:51Z</time>
      </trkpt>
      <trkpt lat="56.213376028463244" lon="-4.899922041222453">
        <ele>90.5</ele>
        <time>2023-09-01T12:43:52Z</time>
      </trkpt>
      <trkpt lat="56.213778024539351" lon="-4.898870028555393">
        <ele>94.829999999999998</ele>
        <time>2023-09-01T12:44:01Z</time>
      </trkpt>
      <trkpt lat="56.214304994791746" lon="-4.897397998720408">
        <ele>100.59999999999999</ele>
        <time>2023-09-01T12:44:11Z</time>
      </trkpt>
      <trkpt lat="56.214987030252814" lon="-4.895231025293469">
        <ele>109.73</ele>
        <time>2023-09-01T12:44:22Z</time>
      </trkpt>
      <trkpt lat="56.215051990002394" lon="-4.8950170353055">
        <ele>110.69</ele>
        <time>2023-09-01T12:44:23Z</time>
      </trkpt>
      <trkpt lat="56.215132037177682" lon="-4.894753005355597">
        <ele>111.65000000000001</ele>
        <time>2023-09-01T12:44:24Z</time>
      </trkpt>
      <trkpt lat="56.215539984405041" lon="-4.893776010721922">
        <ele>115.5</ele>
        <time>2023-09-01T12:44:30Z</time>
      </trkpt>
      <trkpt lat="56.2156249769032" lon="-4.893571995198727">
        <ele>116.45999999999999</ele>
        <time>2023-09-01T12:44:31Z</time>
      </trkpt>
      <trkpt lat="56.215648027136922" lon="-4.893436040729284">
        <ele>116.94</ele>
        <time>2023-09-01T12:44:32Z</time>
      </trkpt>
      <trkpt lat="56.2157510407269" lon="-4.892228040844202">
        <ele>120.78</ele>
        <time>2023-09-01T12:44:37Z</time>
      </trkpt>
      <trkpt lat="56.215719021856785" lon="-4.890447976067662">
        <ele>128.47</ele>
        <time>2023-09-01T12:44:44Z</time>
      </trkpt>
      <trkpt lat="56.215735031291842" lon="-4.890213031321764">
        <ele>129.91999999999999</ele>
        <time>2023-09-01T12:44:45Z</time>
      </trkpt>
      <trkpt lat="56.215784987434745" lon="-4.889455977827311">
        <ele>133.75999999999999</ele>
        <time>2023-09-01T12:44:48Z</time>
      </trkpt>
      <trkpt lat="56.215734025463462" lon="-4.887383971363306">
        <ele>144.34</ele>
        <time>2023-09-01T12:44:56Z</time>
      </trkpt>
      <trkpt lat="56.215738970786333" lon="-4.886600011959672">
        <ele>148.66</ele>
        <time>2023-09-01T12:44:59Z</time>
      </trkpt>
      <trkpt lat="56.215751962736249" lon="-4.884782982990146">
        <ele>159.72</ele>
        <time>2023-09-01T12:45:06Z</time>
      </trkpt>
      <trkpt lat="56.21575397439301" lon="-4.884495986625552">
        <ele>161.16</ele>
        <time>2023-09-01T12:45:07Z</time>
      </trkpt>
      <trkpt lat="56.215428002178669" lon="-4.882691027596593">
        <ele>168.84999999999999</ele>
        <time>2023-09-01T12:45:15Z</time>
      </trkpt>
      <trkpt lat="56.215392965823412" lon="-4.882432026788592">
        <ele>169.81</ele>
        <time>2023-09-01T12:45:16Z</time>
      </trkpt>
      <trkpt lat="56.215373016893864" lon="-4.882169002667069">
        <ele>170.77000000000001</ele>
        <time>2023-09-01T12:45:17Z</time>
      </trkpt>
      <trkpt lat="56.215391959995031" lon="-4.881902039051056">
        <ele>171.72999999999999</ele>
        <time>2023-09-01T12:45:18Z</time>
      </trkpt>
      <trkpt lat="56.215445017442107" lon="-4.881142973899841">
        <ele>174.62</ele>
        <time>2023-09-01T12:45:21Z</time>
      </trkpt>
      <trkpt lat="56.21543001383543" lon="-4.880863018333912">
        <ele>175.58000000000001</ele>
        <time>2023-09-01T12:45:22Z</time>
      </trkpt>
      <trkpt lat="56.215223986655474" lon="-4.878785982728005">
        <ele>183.75</ele>
        <time>2023-09-01T12:45:30Z</time>
      </trkpt>
      <trkpt lat="56.215182999148965" lon="-4.878614991903305">
        <ele>185.19</ele>
        <time>2023-09-01T12:45:31Z</time>
      </trkpt>
      <trkpt lat="56.215132037177682" lon="-4.87843201495707">
        <ele>185.66999999999999</ele>
        <time>2023-09-01T12:45:32Z</time>
      </trkpt>
      <trkpt lat="56.214944031089544" lon="-4.877946032211185">
        <ele>188.56</ele>
        <time>2023-09-01T12:45:35Z</time>
      </trkpt>
      <trkpt lat="56.214888039976358" lon="-4.87778602167964">
        <ele>189.03999999999999</ele>
        <time>2023-09-01T12:45:36Z</time>
      </trkpt>
      <trkpt lat="56.21465602889657" lon="-4.876039987429977">
        <ele>197.69</ele>
        <time>2023-09-01T12:45:44Z</time>
      </trkpt>
      <trkpt lat="56.214643958956003" lon="-4.875809988006949">
        <ele>199.13</ele>
        <time>2023-09-01T12:45:45Z</time>
      </trkpt>
      <trkpt lat="56.214730963110924" lon="-4.875096017494798">
        <ele>203.94</ele>
        <time>2023-09-01T12:45:48Z</time>
      </trkpt>
      <trkpt lat="56.214787038043141" lon="-4.874875992536545">
        <ele>204.90000000000001</ele>
        <time>2023-09-01T12:45:49Z</time>
      </trkpt>
      <trkpt lat="56.21489298529923" lon="-4.874462010338903">
        <ele>206.34</ele>
        <time>2023-09-01T12:45:51Z</time>
      </trkpt>
      <trkpt lat="56.2149359844625" lon="-4.874291019514203">
        <ele>207.30000000000001</ele>
        <time>2023-09-01T12:45:52Z</time>
      </trkpt>
      <trkpt lat="56.21495702303946" lon="-4.874114999547601">
        <ele>208.25999999999999</ele>
        <time>2023-09-01T12:45:53Z</time>
      </trkpt>
      <trkpt lat="56.214947970584035" lon="-4.87389799207449">
        <ele>208.74000000000001</ele>
        <time>2023-09-01T12:45:54Z</time>
      </trkpt>
      <trkpt lat="56.21493699029088" lon="-4.87366396933794">
        <ele>209.69999999999999</ele>
        <time>2023-09-01T12:45:55Z</time>
      </trkpt>
      <trkpt lat="56.214788965880871" lon="-4.87243702635169">
        <ele>218.36000000000001</ele>
        <time>2023-09-01T12:46:01Z</time>
      </trkpt>
      <trkpt lat="56.214788965880871" lon="-4.872357985004783">
        <ele>219.80000000000001</ele>
        <time>2023-09-01T12:46:02Z</time>
      </trkpt>
      <trkpt lat="56.214788965880871" lon="-4.8721360322088">
        <ele>221.24000000000001</ele>
        <time>2023-09-01T12:46:03Z</time>
      </trkpt>
      <trkpt lat="56.214790977537632" lon="-4.872129997238517">
        <ele>222.68000000000001</ele>
        <time>2023-09-01T12:46:04Z</time>
      </trkpt>
      <trkpt lat="56.21487001888454" lon="-4.871990019455552">
        <ele>224.12</ele>
        <time>2023-09-01T12:46:05Z</time>
      </trkpt>
      <trkpt lat="56.214940007776022" lon="-4.871959006413817">
        <ele>225.56999999999999</ele>
        <time>2023-09-01T12:46:06Z</time>
      </trkpt>
      <trkpt lat="56.215027011930943" lon="-4.87192003056407">
        <ele>227.00999999999999</ele>
        <time>2023-09-01T12:46:07Z</time>
      </trkpt>
      <trkpt lat="56.215126002207398" lon="-4.871875019744039">
        <ele>228.44999999999999</ele>
        <time>2023-09-01T12:46:08Z</time>
      </trkpt>
      <trkpt lat="56.215222980827093" lon="-4.871831014752388">
        <ele>229.88999999999999</ele>
        <time>2023-09-01T12:46:09Z</time>
      </trkpt>
      <trkpt lat="56.215285006910563" lon="-4.87177200615406">
        <ele>231.33000000000001</ele>
        <time>2023-09-01T12:46:10Z</time>
      </trkpt>
      <trkpt lat="56.21534300968051" lon="-4.871669998392463">
        <ele>232.78</ele>
        <time>2023-09-01T12:46:11Z</time>
      </trkpt>
      <trkpt lat="56.215432025492191" lon="-4.87151401117444">
        <ele>233.74000000000001</ele>
        <time>2023-09-01T12:46:12Z</time>
      </trkpt>
      <trkpt lat="56.215432025492191" lon="-4.871463971212506">
        <ele>235.18000000000001</ele>
        <time>2023-09-01T12:46:13Z</time>
      </trkpt>
      <trkpt lat="56.215425990521908" lon="-4.871293986216188">
        <ele>236.62</ele>
        <time>2023-09-01T12:46:14Z</time>
      </trkpt>
      <trkpt lat="56.21538701467216" lon="-4.87112701870501">
        <ele>238.06</ele>
        <time>2023-09-01T12:46:15Z</time>
      </trkpt>
      <trkpt lat="56.215345021337271" lon="-4.870945969596505">
        <ele>239.99000000000001</ele>
        <time>2023-09-01T12:46:16Z</time>
      </trkpt>
      <trkpt lat="56.215307973325253" lon="-4.870787970721722">
        <ele>241.43000000000001</ele>
        <time>2023-09-01T12:46:17Z</time>
      </trkpt>
      <trkpt lat="56.215281989425421" lon="-4.870668025687337">
        <ele>242.38999999999999</ele>
        <time>2023-09-01T12:46:18Z</time>
      </trkpt>
      <trkpt lat="56.215281989425421" lon="-4.87044095993042">
        <ele>243.34999999999999</ele>
        <time>2023-09-01T12:46:19Z</time>
      </trkpt>
      <trkpt lat="56.215320965275168" lon="-4.870333001017571">
        <ele>244.31</ele>
        <time>2023-09-01T12:46:20Z</time>
      </trkpt>
      <trkpt lat="56.215377962216735" lon="-4.870172990486026">
        <ele>244.78999999999999</ele>
        <time>2023-09-01T12:46:21Z</time>
      </trkpt>
      <trkpt lat="56.215459015220404" lon="-4.870039969682694">
        <ele>245.75</ele>
        <time>2023-09-01T12:46:22Z</time>
      </trkpt>
      <trkpt lat="56.21553503908217" lon="-4.869931004941464">
        <ele>246.72</ele>
        <time>2023-09-01T12:46:23Z</time>
      </trkpt>
      <trkpt lat="56.215631011873484" lon="-4.86983603797853">
        <ele>248.16</ele>
        <time>2023-09-01T12:46:24Z</time>
      </trkpt>
      <trkpt lat="56.215828992426395" lon="-4.869729001075029">
        <ele>250.08000000000001</ele>
        <time>2023-09-01T12:46:26Z</time>
      </trkpt>
      <trkpt lat="56.215918008238077" lon="-4.869649959728122">
        <ele>251.52000000000001</ele>
        <time>2023-09-01T12:46:27Z</time>
      </trkpt>
      <trkpt lat="56.21601196937263" lon="-4.869547029957175">
        <ele>252.96000000000001</ele>
        <time>2023-09-01T12:46:28Z</time>
      </trkpt>
      <trkpt lat="56.21609503403306" lon="-4.869425995275378">
        <ele>254.41</ele>
        <time>2023-09-01T12:46:29Z</time>
      </trkpt>
      <trkpt lat="56.216158987954259" lon="-4.869256010279059">
        <ele>255.84999999999999</ele>
        <time>2023-09-01T12:46:30Z</time>
      </trkpt>
      <trkpt lat="56.216431986540556" lon="-4.868532987311482">
        <ele>261.62</ele>
        <time>2023-09-01T12:46:34Z</time>
      </trkpt>
      <trkpt lat="56.216472974047065" lon="-4.86833400093019">
        <ele>263.06</ele>
        <time>2023-09-01T12:46:35Z</time>
      </trkpt>
      <trkpt lat="56.216511027887464" lon="-4.868123028427362">
        <ele>264.5</ele>
        <time>2023-09-01T12:46:36Z</time>
      </trkpt>
      <trkpt lat="56.216648994013667" lon="-4.866707995533943">
        <ele>272.67000000000002</ele>
        <time>2023-09-01T12:46:43Z</time>
      </trkpt>
      <trkpt lat="56.216685036197305" lon="-4.86653096973896">
        <ele>273.14999999999998</ele>
        <time>2023-09-01T12:46:44Z</time>
      </trkpt>
      <trkpt lat="56.216747984290123" lon="-4.866375988349319">
        <ele>274.11000000000001</ele>
        <time>2023-09-01T12:46:45Z</time>
      </trkpt>
      <trkpt lat="56.216829037293792" lon="-4.866225030273199">
        <ele>274.58999999999997</ele>
        <time>2023-09-01T12:46:46Z</time>
      </trkpt>
      <trkpt lat="56.216915035620332" lon="-4.866064013913274">
        <ele>275.06999999999999</ele>
        <time>2023-09-01T12:46:47Z</time>
      </trkpt>
      <trkpt lat="56.217203959822655" lon="-4.865523967891932">
        <ele>277.48000000000002</ele>
        <time>2023-09-01T12:46:50Z</time>
      </trkpt>
      <trkpt lat="56.217395989224315" lon="-4.865191038697958">
        <ele>279.39999999999998</ele>
        <time>2023-09-01T12:46:52Z</time>
      </trkpt>
      <trkpt lat="56.217606961727142" lon="-4.864970007911325">
        <ele>282.27999999999997</ele>
        <time>2023-09-01T12:46:54Z</time>
      </trkpt>
      <trkpt lat="56.21796696446836" lon="-4.864705977961421">
        <ele>286.61000000000001</ele>
        <time>2023-09-01T12:46:57Z</time>
      </trkpt>
      <trkpt lat="56.218090010806918" lon="-4.86461503431201">
        <ele>288.05000000000001</ele>
        <time>2023-09-01T12:46:58Z</time>
      </trkpt>
      <trkpt lat="56.218227976933122" lon="-4.864512020722032">
        <ele>289.00999999999999</ele>
        <time>2023-09-01T12:46:59Z</time>
      </trkpt>
      <trkpt lat="56.218950999900699" lon="-4.863660000264645">
        <ele>295.74000000000001</ele>
        <time>2023-09-01T12:47:05Z</time>
      </trkpt>
      <trkpt lat="56.219048984348774" lon="-4.86360602080822">
        <ele>297.18000000000001</ele>
        <time>2023-09-01T12:47:06Z</time>
      </trkpt>
      <trkpt lat="56.21940303593874" lon="-4.863407034426928">
        <ele>300.06999999999999</ele>
        <time>2023-09-01T12:47:09Z</time>
      </trkpt>
      <trkpt lat="56.219527004286647" lon="-4.863336039707065">
        <ele>301.02999999999997</ele>
        <time>2023-09-01T12:47:10Z</time>
      </trkpt>
      <trkpt lat="56.219648960977793" lon="-4.863261021673679">
        <ele>301.50999999999999</ele>
        <time>2023-09-01T12:47:11Z</time>
      </trkpt>
      <trkpt lat="56.21974803507328" lon="-4.863145016133785">
        <ele>301.99000000000001</ele>
        <time>2023-09-01T12:47:12Z</time>
      </trkpt>
      <trkpt lat="56.219847025349736" lon="-4.863029010593891">
        <ele>302.94999999999999</ele>
        <time>2023-09-01T12:47:13Z</time>
      </trkpt>
      <trkpt lat="56.220169980078936" lon="-4.862583009526134">
        <ele>302.94999999999999</ele>
        <time>2023-09-01T12:47:16Z</time>
      </trkpt>
      <trkpt lat="56.220240974798799" lon="-4.862377988174558">
        <ele>302.94999999999999</ele>
        <time>2023-09-01T12:47:17Z</time>
      </trkpt>
      <trkpt lat="56.220301995053887" lon="-4.862200962379575">
        <ele>302.47000000000003</ele>
        <time>2023-09-01T12:47:18Z</time>
      </trkpt>
      <trkpt lat="56.220353962853551" lon="-4.862064002081752">
        <ele>302.47000000000003</ele>
        <time>2023-09-01T12:47:19Z</time>
      </trkpt>
      <trkpt lat="56.220430992543697" lon="-4.86197498627007">
        <ele>302.47000000000003</ele>
        <time>2023-09-01T12:47:20Z</time>
      </trkpt>
      <trkpt lat="56.22052202001214" lon="-4.861884964630008">
        <ele>302.47000000000003</ele>
        <time>2023-09-01T12:47:21Z</time>
      </trkpt>
      <trkpt lat="56.22063098475337" lon="-4.861817993223667">
        <ele>301.99000000000001</ele>
        <time>2023-09-01T12:47:22Z</time>
      </trkpt>
      <trkpt lat="56.220864001661539" lon="-4.861709028482437">
        <ele>301.50999999999999</ele>
        <time>2023-09-01T12:47:24Z</time>
      </trkpt>
      <trkpt lat="56.220991993322968" lon="-4.861678015440702">
        <ele>301.02999999999997</ele>
        <time>2023-09-01T12:47:25Z</time>
      </trkpt>
      <trkpt lat="56.221259040758014" lon="-4.861615989357233">
        <ele>300.06999999999999</ele>
        <time>2023-09-01T12:47:27Z</time>
      </trkpt>
      <trkpt lat="56.221519969403744" lon="-4.861547006294131">
        <ele>299.58999999999997</ele>
        <time>2023-09-01T12:47:29Z</time>
      </trkpt>
      <trkpt lat="56.221631029620767" lon="-4.861466037109494">
        <ele>299.58999999999997</ele>
        <time>2023-09-01T12:47:30Z</time>
      </trkpt>
      <trkpt lat="56.22174602933228" lon="-4.861378027126193">
        <ele>299.11000000000001</ele>
        <time>2023-09-01T12:47:31Z</time>
      </trkpt>
      <trkpt lat="56.221835967153311" lon="-4.861245006322861">
        <ele>299.11000000000001</ele>
        <time>2023-09-01T12:47:32Z</time>
      </trkpt>
      <trkpt lat="56.22192095965147" lon="-4.861118020489812">
        <ele>298.63</ele>
        <time>2023-09-01T12:47:33Z</time>
      </trkpt>
      <trkpt lat="56.222376013174653" lon="-4.860442019999027">
        <ele>296.69999999999999</ele>
        <time>2023-09-01T12:47:39Z</time>
      </trkpt>
      <trkpt lat="56.222937013953924" lon="-4.859630987048149">
        <ele>294.77999999999997</ele>
        <time>2023-09-01T12:47:46Z</time>
      </trkpt>
      <trkpt lat="56.223093001171947" lon="-4.859368968755007">
        <ele>296.69999999999999</ele>
        <time>2023-09-01T12:47:49Z</time>
      </trkpt>
      <trkpt lat="56.223326018080115" lon="-4.859135029837489">
        <ele>297.18000000000001</ele>
        <time>2023-09-01T12:47:52Z</time>
      </trkpt>
      <trkpt lat="56.223425008356571" lon="-4.859025981277227">
        <ele>297.18000000000001</ele>
        <time>2023-09-01T12:47:53Z</time>
      </trkpt>
      <trkpt lat="56.224189018830657" lon="-4.857561998069286">
        <ele>293.81999999999999</ele>
        <time>2023-09-01T12:48:04Z</time>
      </trkpt>
      <trkpt lat="56.224266970530152" lon="-4.857468036934733">
        <ele>292.86000000000001</ele>
        <time>2023-09-01T12:48:05Z</time>
      </trkpt>
      <trkpt lat="56.224741972982883" lon="-4.857061011716723">
        <ele>287.56999999999999</ele>
        <time>2023-09-01T12:48:10Z</time>
      </trkpt>
      <trkpt lat="56.224849009886384" lon="-4.857019018381834">
        <ele>286.13</ele>
        <time>2023-09-01T12:48:11Z</time>
      </trkpt>
      <trkpt lat="56.224958980455995" lon="-4.857013989239931">
        <ele>285.17000000000002</ele>
        <time>2023-09-01T12:48:12Z</time>
      </trkpt>
      <trkpt lat="56.225064005702734" lon="-4.857022035866976">
        <ele>283.73000000000002</ele>
        <time>2023-09-01T12:48:13Z</time>
      </trkpt>
      <trkpt lat="56.225177999585867" lon="-4.857033016160131">
        <ele>282.27999999999997</ele>
        <time>2023-09-01T12:48:14Z</time>
      </trkpt>
      <trkpt lat="56.225276989862323" lon="-4.857099987566471">
        <ele>281.31999999999999</ele>
        <time>2023-09-01T12:48:15Z</time>
      </trkpt>
      <trkpt lat="56.22535896487534" lon="-4.857156984508038">
        <ele>280.83999999999997</ele>
        <time>2023-09-01T12:48:16Z</time>
      </trkpt>
      <trkpt lat="56.225438006222248" lon="-4.857210963964462">
        <ele>280.36000000000001</ele>
        <time>2023-09-01T12:48:17Z</time>
      </trkpt>
      <trkpt lat="56.225789040327072" lon="-4.857451021671295">
        <ele>277.95999999999998</ele>
        <time>2023-09-01T12:48:21Z</time>
      </trkpt>
      <trkpt lat="56.225947039201856" lon="-4.857552023604512">
        <ele>276.04000000000002</ele>
        <time>2023-09-01T12:48:23Z</time>
      </trkpt>
      <trkpt lat="56.226029014214873" lon="-4.857579013332725">
        <ele>275.06999999999999</ele>
        <time>2023-09-01T12:48:24Z</time>
      </trkpt>
      <trkpt lat="56.226105960085988" lon="-4.857566021382809">
        <ele>274.58999999999997</ele>
        <time>2023-09-01T12:48:25Z</time>
      </trkpt>
      <trkpt lat="56.226204028353095" lon="-4.857523022219539">
        <ele>273.63</ele>
        <time>2023-09-01T12:48:26Z</time>
      </trkpt>
      <trkpt lat="56.226257001981139" lon="-4.857438029721379">
        <ele>272.67000000000002</ele>
        <time>2023-09-01T12:48:27Z</time>
      </trkpt>
      <trkpt lat="56.226319028064609" lon="-4.857339039444923">
        <ele>271.70999999999998</ele>
        <time>2023-09-01T12:48:28Z</time>
      </trkpt>
      <trkpt lat="56.226376025006175" lon="-4.857248011976481">
        <ele>271.23000000000002</ele>
        <time>2023-09-01T12:48:29Z</time>
      </trkpt>
      <trkpt lat="56.22643101029098" lon="-4.857146004214883">
        <ele>270.26999999999998</ele>
        <time>2023-09-01T12:48:30Z</time>
      </trkpt>
      <trkpt lat="56.226531006395817" lon="-4.856863031163812">
        <ele>266.89999999999998</ele>
        <time>2023-09-01T12:48:36Z</time>
      </trkpt>
      <trkpt lat="56.226548021659255" lon="-4.856803016737104">
        <ele>265.45999999999998</ele>
        <time>2023-09-01T12:48:53Z</time>
      </trkpt>
      <trkpt lat="56.226522037759423" lon="-4.856659015640616">
        <ele>264.5</ele>
        <time>2023-09-01T12:48:54Z</time>
      </trkpt>
      <trkpt lat="56.226469986140728" lon="-4.856580980122089">
        <ele>263.54000000000002</ele>
        <time>2023-09-01T12:48:55Z</time>
      </trkpt>
      <trkpt lat="56.226251972839236" lon="-4.856254002079368">
        <ele>263.06</ele>
        <time>2023-09-01T12:48:58Z</time>
      </trkpt>
      <trkpt lat="56.226178966462612" lon="-4.856079993769527">
        <ele>262.57999999999998</ele>
        <time>2023-09-01T12:48:59Z</time>
      </trkpt>
      <trkpt lat="56.22610998339951" lon="-4.855878995731473">
        <ele>262.57999999999998</ele>
        <time>2023-09-01T12:49:00Z</time>
      </trkpt>
      <trkpt lat="56.225976962596178" lon="-4.855454033240676">
        <ele>261.62</ele>
        <time>2023-09-01T12:49:02Z</time>
      </trkpt>
      <trkpt lat="56.22593698091805" lon="-4.855219004675746">
        <ele>261.13999999999999</ele>
        <time>2023-09-01T12:49:03Z</time>
      </trkpt>
      <trkpt lat="56.225668005645275" lon="-4.853572966530919">
        <ele>256.81</ele>
        <time>2023-09-01T12:49:10Z</time>
      </trkpt>
      <trkpt lat="56.225668005645275" lon="-4.853344978764653">
        <ele>256.32999999999998</ele>
        <time>2023-09-01T12:49:11Z</time>
      </trkpt>
      <trkpt lat="56.225668005645275" lon="-4.853108022361994">
        <ele>255.37</ele>
        <time>2023-09-01T12:49:12Z</time>
      </trkpt>
      <trkpt lat="56.225687032565475" lon="-4.852858996018767">
        <ele>254.41</ele>
        <time>2023-09-01T12:49:13Z</time>
      </trkpt>
      <trkpt lat="56.225709998980165" lon="-4.852614998817444">
        <ele>253.93000000000001</ele>
        <time>2023-09-01T12:49:14Z</time>
      </trkpt>
      <trkpt lat="56.225838996469975" lon="-4.851257968693972">
        <ele>248.63999999999999</ele>
        <time>2023-09-01T12:49:20Z</time>
      </trkpt>
      <trkpt lat="56.225805971771479" lon="-4.85103702172637">
        <ele>248.16</ele>
        <time>2023-09-01T12:49:21Z</time>
      </trkpt>
      <trkpt lat="56.225770013406873" lon="-4.850812973454595">
        <ele>247.68000000000001</ele>
        <time>2023-09-01T12:49:22Z</time>
      </trkpt>
      <trkpt lat="56.225703964009881" lon="-4.85058699734509">
        <ele>247.19999999999999</ele>
        <time>2023-09-01T12:49:23Z</time>
      </trkpt>
      <trkpt lat="56.225621988996863" lon="-4.850379964336753">
        <ele>246.22999999999999</ele>
        <time>2023-09-01T12:49:24Z</time>
      </trkpt>
      <trkpt lat="56.225518975406885" lon="-4.850190030410886">
        <ele>245.27000000000001</ele>
        <time>2023-09-01T12:49:25Z</time>
      </trkpt>
      <trkpt lat="56.225414033979177" lon="-4.849994983524084">
        <ele>244.78999999999999</ele>
        <time>2023-09-01T12:49:26Z</time>
      </trkpt>
      <trkpt lat="56.225298028439283" lon="-4.849809994921088">
        <ele>243.83000000000001</ele>
        <time>2023-09-01T12:49:27Z</time>
      </trkpt>
      <trkpt lat="56.224006963893771" lon="-4.847703035920858">
        <ele>233.74000000000001</ele>
        <time>2023-09-01T12:49:38Z</time>
      </trkpt>
      <trkpt lat="56.222561001777649" lon="-4.845348978415132">
        <ele>221.72</ele>
        <time>2023-09-01T12:49:49Z</time>
      </trkpt>
      <trkpt lat="56.221286030486226" lon="-4.843426002189517">
        <ele>210.19</ele>
        <time>2023-09-01T12:49:58Z</time>
      </trkpt>
      <trkpt lat="56.220270982012153" lon="-4.841976016759872">
        <ele>202.00999999999999</ele>
        <time>2023-09-01T12:50:07Z</time>
      </trkpt>
      <trkpt lat="56.219129031524062" lon="-4.840099979192019">
        <ele>193.84</ele>
        <time>2023-09-01T12:50:16Z</time>
      </trkpt>
      <trkpt lat="56.217592963948846" lon="-4.838264007121325">
        <ele>183.75</ele>
        <time>2023-09-01T12:50:26Z</time>
      </trkpt>
      <trkpt lat="56.21635596267879" lon="-4.837058018893004">
        <ele>176.06</ele>
        <time>2023-09-01T12:50:36Z</time>
      </trkpt>
      <trkpt lat="56.214458970353007" lon="-4.835810037329793">
        <ele>165.96000000000001</ele>
        <time>2023-09-01T12:50:49Z</time>
      </trkpt>
      <trkpt lat="56.214297031983733" lon="-4.835704006254673">
        <ele>165</ele>
        <time>2023-09-01T12:50:50Z</time>
      </trkpt>
      <trkpt lat="56.212984006851912" lon="-4.834500029683113">
        <ele>157.31</ele>
        <time>2023-09-01T12:50:58Z</time>
      </trkpt>
      <trkpt lat="56.211183993145823" lon="-4.832611000165343">
        <ele>146.25999999999999</ele>
        <time>2023-09-01T12:51:08Z</time>
      </trkpt>
      <trkpt lat="56.209201002493501" lon="-4.831297975033522">
        <ele>134.72</ele>
        <time>2023-09-01T12:51:18Z</time>
      </trkpt>
      <trkpt lat="56.20756602846086" lon="-4.830546034500003">
        <ele>123.19</ele>
        <time>2023-09-01T12:51:28Z</time>
      </trkpt>
      <trkpt lat="56.205937005579472" lon="-4.82946895994246">
        <ele>113.09</ele>
        <time>2023-09-01T12:51:38Z</time>
      </trkpt>
      <trkpt lat="56.204174039885402" lon="-4.827936999499798">
        <ele>103.48</ele>
        <time>2023-09-01T12:51:49Z</time>
      </trkpt>
      <trkpt lat="56.202656999230385" lon="-4.827526034787297">
        <ele>95.310000000000002</ele>
        <time>2023-09-01T12:51:58Z</time>
      </trkpt>
      <trkpt lat="56.201996002346277" lon="-4.827355965971947">
        <ele>91.939999999999998</ele>
        <time>2023-09-01T12:52:02Z</time>
      </trkpt>
      <trkpt lat="56.201849989593029" lon="-4.827268039807677">
        <ele>91.459999999999994</ele>
        <time>2023-09-01T12:52:03Z</time>
      </trkpt>
      <trkpt lat="56.201698025688529" lon="-4.827108029276133">
        <ele>90.980000000000004</ele>
        <time>2023-09-01T12:52:04Z</time>
      </trkpt>
      <trkpt lat="56.201556036248803" lon="-4.826956987380981">
        <ele>90.5</ele>
        <time>2023-09-01T12:52:05Z</time>
      </trkpt>
      <trkpt lat="56.201427038758993" lon="-4.82678197324276">
        <ele>90.019999999999996</ele>
        <time>2023-09-01T12:52:06Z</time>
      </trkpt>
      <trkpt lat="56.201306004077196" lon="-4.826576029881835">
        <ele>89.060000000000002</ele>
        <time>2023-09-01T12:52:07Z</time>
      </trkpt>
      <trkpt lat="56.201182035729289" lon="-4.826361034065485">
        <ele>89.060000000000002</ele>
        <time>2023-09-01T12:52:08Z</time>
      </trkpt>
      <trkpt lat="56.201095031574368" lon="-4.826097004115582">
        <ele>89.060000000000002</ele>
        <time>2023-09-01T12:52:09Z</time>
      </trkpt>
      <trkpt lat="56.201007021591067" lon="-4.825833979994059">
        <ele>88.579999999999998</ele>
        <time>2023-09-01T12:52:10Z</time>
      </trkpt>
      <trkpt lat="56.200360022485256" lon="-4.823954002931714">
        <ele>87.140000000000001</ele>
        <time>2023-09-01T12:52:17Z</time>
      </trkpt>
      <trkpt lat="56.200176039710641" lon="-4.823020007461309">
        <ele>86.659999999999997</ele>
        <time>2023-09-01T12:52:20Z</time>
      </trkpt>
      <trkpt lat="56.200165981426835" lon="-4.822684982791543">
        <ele>86.180000000000007</ele>
        <time>2023-09-01T12:52:21Z</time>
      </trkpt>
      <trkpt lat="56.20015500113368" lon="-4.822350963950157">
        <ele>86.180000000000007</ele>
        <time>2023-09-01T12:52:22Z</time>
      </trkpt>
      <trkpt lat="56.200051987543702" lon="-4.819995984435082">
        <ele>84.730000000000004</ele>
        <time>2023-09-01T12:52:29Z</time>
      </trkpt>
      <trkpt lat="56.200000019744039" lon="-4.819672023877502">
        <ele>84.730000000000004</ele>
        <time>2023-09-01T12:52:30Z</time>
      </trkpt>
      <trkpt lat="56.199931036680937" lon="-4.819362983107567">
        <ele>84.730000000000004</ele>
        <time>2023-09-01T12:52:31Z</time>
      </trkpt>
      <trkpt lat="56.199207007884979" lon="-4.816681025549769">
        <ele>83.290000000000006</ele>
        <time>2023-09-01T12:52:40Z</time>
      </trkpt>
      <trkpt lat="56.198163963854313" lon="-4.813993033021689">
        <ele>78.969999999999999</ele>
        <time>2023-09-01T12:52:50Z</time>
      </trkpt>
      <trkpt lat="56.197991967201233" lon="-4.813458016142249">
        <ele>77.519999999999996</ele>
        <time>2023-09-01T12:52:52Z</time>
      </trkpt>
      <trkpt lat="56.197922984138131" lon="-4.813169008120894">
        <ele>76.560000000000002</ele>
        <time>2023-09-01T12:52:53Z</time>
      </trkpt>
      <trkpt lat="56.197922984138131" lon="-4.81288000009954">
        <ele>75.599999999999994</ele>
        <time>2023-09-01T12:52:54Z</time>
      </trkpt>
      <trkpt lat="56.197936981916428" lon="-4.812568025663495">
        <ele>74.640000000000001</ele>
        <time>2023-09-01T12:52:55Z</time>
      </trkpt>
      <trkpt lat="56.197976963594556" lon="-4.812259990721941">
        <ele>73.680000000000007</ele>
        <time>2023-09-01T12:52:56Z</time>
      </trkpt>
      <trkpt lat="56.198020968586206" lon="-4.811929995194078">
        <ele>72.719999999999999</ele>
        <time>2023-09-01T12:52:57Z</time>
      </trkpt>
      <trkpt lat="56.198361022397876" lon="-4.809244014322758">
        <ele>62.140000000000001</ele>
        <time>2023-09-01T12:53:05Z</time>
      </trkpt>
      <trkpt lat="56.198574006557465" lon="-4.806160982698202">
        <ele>54.450000000000003</ele>
        <time>2023-09-01T12:53:15Z</time>
      </trkpt>
      <trkpt lat="56.198418019339442" lon="-4.80297401547432">
        <ele>48.200000000000003</ele>
        <time>2023-09-01T12:53:25Z</time>
      </trkpt>
      <trkpt lat="56.197978975251317" lon="-4.800567990168929">
        <ele>46.280000000000001</ele>
        <time>2023-09-01T12:53:34Z</time>
      </trkpt>
      <trkpt lat="56.197386961430311" lon="-4.797460986301303">
        <ele>44.359999999999999</ele>
        <time>2023-09-01T12:53:44Z</time>
      </trkpt>
      <trkpt lat="56.196858985349536" lon="-4.7953250259161">
        <ele>42.439999999999998</ele>
        <time>2023-09-01T12:53:51Z</time>
      </trkpt>
      <trkpt lat="56.196024985983968" lon="-4.792406028136611">
        <ele>36.189999999999998</ele>
        <time>2023-09-01T12:54:02Z</time>
      </trkpt>
      <trkpt lat="56.195243038237095" lon="-4.790639961138368">
        <ele>31.379999999999999</ele>
        <time>2023-09-01T12:54:09Z</time>
      </trkpt>
      <trkpt lat="56.19394501671195" lon="-4.789340011775494">
        <ele>25.609999999999999</ele>
        <time>2023-09-01T12:54:17Z</time>
      </trkpt>
      <trkpt lat="56.192545993253589" lon="-4.78797803632915">
        <ele>23.690000000000001</ele>
        <time>2023-09-01T12:54:26Z</time>
      </trkpt>
      <trkpt lat="56.191357020288706" lon="-4.786713039502502">
        <ele>21.289999999999999</ele>
        <time>2023-09-01T12:54:34Z</time>
      </trkpt>
      <trkpt lat="56.190025974065065" lon="-4.784653019160032">
        <ele>15.039999999999999</ele>
        <time>2023-09-01T12:54:43Z</time>
      </trkpt>
      <trkpt lat="56.189934024587274" lon="-4.784394018352032">
        <ele>14.56</ele>
        <time>2023-09-01T12:54:44Z</time>
      </trkpt>
      <trkpt lat="56.189854983240366" lon="-4.784130994230509">
        <ele>13.6</ele>
        <time>2023-09-01T12:54:45Z</time>
      </trkpt>
      <trkpt lat="56.189777031540871" lon="-4.783864030614495">
        <ele>13.119999999999999</ele>
        <time>2023-09-01T12:54:46Z</time>
      </trkpt>
      <trkpt lat="56.189719028770924" lon="-4.783604023978114">
        <ele>12.15</ele>
        <time>2023-09-01T12:54:47Z</time>
      </trkpt>
      <trkpt lat="56.189693966880441" lon="-4.783305041491985">
        <ele>11.67</ele>
        <time>2023-09-01T12:54:48Z</time>
      </trkpt>
      <trkpt lat="56.189667982980609" lon="-4.783004969358444">
        <ele>11.19</ele>
        <time>2023-09-01T12:54:49Z</time>
      </trkpt>
      <trkpt lat="56.189641999080777" lon="-4.782700035721064">
        <ele>10.710000000000001</ele>
        <time>2023-09-01T12:54:50Z</time>
      </trkpt>
      <trkpt lat="56.189651973545551" lon="-4.781851032748818">
        <ele>10.23</ele>
        <time>2023-09-01T12:54:53Z</time>
      </trkpt>
      <trkpt lat="56.18969296105206" lon="-4.781571999192238">
        <ele>10.23</ele>
        <time>2023-09-01T12:54:54Z</time>
      </trkpt>
      <trkpt lat="56.189735038205981" lon="-4.781290031969547">
        <ele>9.75</ele>
        <time>2023-09-01T12:54:55Z</time>
      </trkpt>
      <trkpt lat="56.189778037369251" lon="-4.781001023948193">
        <ele>9.27</ele>
        <time>2023-09-01T12:54:56Z</time>
      </trkpt>
      <trkpt lat="56.189851965755224" lon="-4.780730037018657">
        <ele>9.27</ele>
        <time>2023-09-01T12:54:57Z</time>
      </trkpt>
      <trkpt lat="56.189941987395287" lon="-4.780451003462076">
        <ele>8.789999999999999</ele>
        <time>2023-09-01T12:54:58Z</time>
      </trkpt>
      <trkpt lat="56.190049024298787" lon="-4.780182028189302">
        <ele>8.310000000000001</ele>
        <time>2023-09-01T12:54:59Z</time>
      </trkpt>
      <trkpt lat="56.19018598459661" lon="-4.779953034594655">
        <ele>7.83</ele>
        <time>2023-09-01T12:55:00Z</time>
      </trkpt>
      <trkpt lat="56.190324034541845" lon="-4.779722029343247">
        <ele>7.35</ele>
        <time>2023-09-01T12:55:01Z</time>
      </trkpt>
      <trkpt lat="56.190467029809952" lon="-4.779516002163291">
        <ele>6.39</ele>
        <time>2023-09-01T12:55:02Z</time>
      </trkpt>
      <trkpt lat="56.190607007592916" lon="-4.779313998296857">
        <ele>5.91</ele>
        <time>2023-09-01T12:55:03Z</time>
      </trkpt>
      <trkpt lat="56.192026985809207" lon="-4.777136966586113">
        <ele>5.42</ele>
        <time>2023-09-01T12:55:14Z</time>
      </trkpt>
      <trkpt lat="56.193210007622838" lon="-4.774949038401246">
        <ele>6.39</ele>
        <time>2023-09-01T12:55:24Z</time>
      </trkpt>
      <trkpt lat="56.193575039505959" lon="-4.774195002391934">
        <ele>6.87</ele>
        <time>2023-09-01T12:55:27Z</time>
      </trkpt>
      <trkpt lat="56.194810029119253" lon="-4.771125968545675">
        <ele>7.83</ele>
        <time>2023-09-01T12:55:37Z</time>
      </trkpt>
      <trkpt lat="56.195661965757608" lon="-4.769109031185508">
        <ele>9.27</ele>
        <time>2023-09-01T12:55:44Z</time>
      </trkpt>
      <trkpt lat="56.196622028946877" lon="-4.766868967562914">
        <ele>12.630000000000001</ele>
        <time>2023-09-01T12:55:52Z</time>
      </trkpt>
      <trkpt lat="56.197607992216945" lon="-4.764488004148006">
        <ele>16.960000000000001</ele>
        <time>2023-09-01T12:56:01Z</time>
      </trkpt>
      <trkpt lat="56.197704970836639" lon="-4.764215005561709">
        <ele>16.960000000000001</ele>
        <time>2023-09-01T12:56:02Z</time>
      </trkpt>
      <trkpt lat="56.198364961892366" lon="-4.761961027979851">
        <ele>20.809999999999999</ele>
        <time>2023-09-01T12:56:10Z</time>
      </trkpt>
      <trkpt lat="56.198872989043593" lon="-4.759380994364619">
        <ele>26.09</ele>
        <time>2023-09-01T12:56:19Z</time>
      </trkpt>
      <trkpt lat="56.199439018964767" lon="-4.758019018918276">
        <ele>27.050000000000001</ele>
        <time>2023-09-01T12:56:24Z</time>
      </trkpt>
      <trkpt lat="56.200464963912964" lon="-4.756580013781786">
        <ele>24.170000000000002</ele>
        <time>2023-09-01T12:56:31Z</time>
      </trkpt>
      <trkpt lat="56.200807029381394" lon="-4.756301986053586">
        <ele>22.25</ele>
        <time>2023-09-01T12:56:33Z</time>
      </trkpt>
      <trkpt lat="56.202479973435402" lon="-4.754987033084035">
        <ele>17.440000000000001</ele>
        <time>2023-09-01T12:56:43Z</time>
      </trkpt>
      <trkpt lat="56.204034984111786" lon="-4.753180984407663">
        <ele>10.710000000000001</ele>
        <time>2023-09-01T12:56:54Z</time>
      </trkpt>
      <trkpt lat="56.205336023122072" lon="-4.751724964007735">
        <ele>9.75</ele>
        <time>2023-09-01T12:57:03Z</time>
      </trkpt>
      <trkpt lat="56.206473028287292" lon="-4.750567004084587">
        <ele>9.75</ele>
        <time>2023-09-01T12:57:12Z</time>
      </trkpt>
      <trkpt lat="56.207117009907961" lon="-4.749015010893345">
        <ele>9.27</ele>
        <time>2023-09-01T12:57:19Z</time>
      </trkpt>
      <trkpt lat="56.207152968272567" lon="-4.748743018135428">
        <ele>8.789999999999999</ele>
        <time>2023-09-01T12:57:20Z</time>
      </trkpt>
      <trkpt lat="56.207186998799443" lon="-4.748473959043622">
        <ele>8.789999999999999</ele>
        <time>2023-09-01T12:57:21Z</time>
      </trkpt>
      <trkpt lat="56.207196973264217" lon="-4.748213030397892">
        <ele>9.27</ele>
        <time>2023-09-01T12:57:22Z</time>
      </trkpt>
      <trkpt lat="56.207203008234501" lon="-4.747943971306086">
        <ele>8.789999999999999</ele>
        <time>2023-09-01T12:57:23Z</time>
      </trkpt>
      <trkpt lat="56.207208037376404" lon="-4.747671978548169">
        <ele>8.789999999999999</ele>
        <time>2023-09-01T12:57:24Z</time>
      </trkpt>
      <trkpt lat="56.207041991874576" lon="-4.745836006477475">
        <ele>7.35</ele>
        <time>2023-09-01T12:57:31Z</time>
      </trkpt>
      <trkpt lat="56.2069440074265" lon="-4.745342982932925">
        <ele>6.87</ele>
        <time>2023-09-01T12:57:33Z</time>
      </trkpt>
      <trkpt lat="56.206897990778089" lon="-4.745114995166659">
        <ele>6.87</ele>
        <time>2023-09-01T12:57:34Z</time>
      </trkpt>
      <trkpt lat="56.206844011321664" lon="-4.744909973815084">
        <ele>6.39</ele>
        <time>2023-09-01T12:57:35Z</time>
      </trkpt>
      <trkpt lat="56.206769999116659" lon="-4.744737977162004">
        <ele>5.91</ele>
        <time>2023-09-01T12:57:36Z</time>
      </trkpt>
      <trkpt lat="56.206689029932022" lon="-4.744591964408755">
        <ele>5.42</ele>
        <time>2023-09-01T12:57:37Z</time>
      </trkpt>
      <trkpt lat="56.206610994413495" lon="-4.744452992454171">
        <ele>5.42</ele>
        <time>2023-09-01T12:57:38Z</time>
      </trkpt>
      <trkpt lat="56.206526001915336" lon="-4.744365988299251">
        <ele>4.94</ele>
        <time>2023-09-01T12:57:39Z</time>
      </trkpt>
      <trkpt lat="56.206462970003486" lon="-4.744313014671207">
        <ele>4.94</ele>
        <time>2023-09-01T12:57:40Z</time>
      </trkpt>
      <trkpt lat="56.206337995827198" lon="-4.744285019114614">
        <ele>4.46</ele>
        <time>2023-09-01T12:57:41Z</time>
      </trkpt>
      <trkpt lat="56.20623498223722" lon="-4.744260963052511">
        <ele>4.46</ele>
        <time>2023-09-01T12:57:42Z</time>
      </trkpt>
      <trkpt lat="56.206129034981132" lon="-4.744236990809441">
        <ele>4.46</ele>
        <time>2023-09-01T12:57:43Z</time>
      </trkpt>
      <trkpt lat="56.206021998077631" lon="-4.74421301856637">
        <ele>4.46</ele>
        <time>2023-09-01T12:57:44Z</time>
      </trkpt>
      <trkpt lat="56.205909010022879" lon="-4.744186028838158">
        <ele>4.46</ele>
        <time>2023-09-01T12:57:45Z</time>
      </trkpt>
      <trkpt lat="56.2055469956249" lon="-4.744058959186077">
        <ele>4.94</ele>
        <time>2023-09-01T12:57:48Z</time>
      </trkpt>
      <trkpt lat="56.205429984256625" lon="-4.743970027193427">
        <ele>4.94</ele>
        <time>2023-09-01T12:57:49Z</time>
      </trkpt>
      <trkpt lat="56.204936038702726" lon="-4.743593009188771">
        <ele>5.91</ele>
        <time>2023-09-01T12:57:53Z</time>
      </trkpt>
      <trkpt lat="56.204812992364168" lon="-4.743499970063567">
        <ele>5.91</ele>
        <time>2023-09-01T12:57:54Z</time>
      </trkpt>
      <trkpt lat="56.204679971560836" lon="-4.743506005033851">
        <ele>5.42</ele>
        <time>2023-09-01T12:57:55Z</time>
      </trkpt>
      <trkpt lat="56.204553991556168" lon="-4.743513967841864">
        <ele>5.42</ele>
        <time>2023-09-01T12:57:56Z</time>
      </trkpt>
      <trkpt lat="56.204432034865022" lon="-4.743521008640528">
        <ele>5.42</ele>
        <time>2023-09-01T12:57:57Z</time>
      </trkpt>
      <trkpt lat="56.203265022486448" lon="-4.743643971160054">
        <ele>6.39</ele>
        <time>2023-09-01T12:58:07Z</time>
      </trkpt>
      <trkpt lat="56.203154968097806" lon="-4.743730975314975">
        <ele>6.87</ele>
        <time>2023-09-01T12:58:08Z</time>
      </trkpt>
      <trkpt lat="56.203044997528195" lon="-4.743816973641515">
        <ele>7.35</ele>
        <time>2023-09-01T12:58:09Z</time>
      </trkpt>
      <trkpt lat="56.202936032786965" lon="-4.743902971968055">
        <ele>7.35</ele>
        <time>2023-09-01T12:58:10Z</time>
      </trkpt>
      <trkpt lat="56.202831007540226" lon="-4.744001040235162">
        <ele>7.35</ele>
        <time>2023-09-01T12:58:11Z</time>
      </trkpt>
      <trkpt lat="56.20273201726377" lon="-4.744111010804772">
        <ele>7.83</ele>
        <time>2023-09-01T12:58:12Z</time>
      </trkpt>
      <trkpt lat="56.20191696099937" lon="-4.744852976873517">
        <ele>8.789999999999999</ele>
        <time>2023-09-01T12:58:20Z</time>
      </trkpt>
      <trkpt lat="56.200636038556695" lon="-4.745494024828076">
        <ele>10.23</ele>
        <time>2023-09-01T12:58:31Z</time>
      </trkpt>
      <trkpt lat="56.20038902387023" lon="-4.745546998456121">
        <ele>10.710000000000001</ele>
        <time>2023-09-01T12:58:33Z</time>
      </trkpt>
      <trkpt lat="56.200268995016813" lon="-4.745572982355952">
        <ele>11.19</ele>
        <time>2023-09-01T12:58:34Z</time>
      </trkpt>
      <trkpt lat="56.199334999546409" lon="-4.745388999581337">
        <ele>16</ele>
        <time>2023-09-01T12:58:41Z</time>
      </trkpt>
      <trkpt lat="56.198365967720747" lon="-4.74483503960073">
        <ele>20.32</ele>
        <time>2023-09-01T12:58:48Z</time>
      </trkpt>
      <trkpt lat="56.198248034343123" lon="-4.744736971333623">
        <ele>21.289999999999999</ele>
        <time>2023-09-01T12:58:49Z</time>
      </trkpt>
      <trkpt lat="56.198151977732778" lon="-4.744576038792729">
        <ele>22.25</ele>
        <time>2023-09-01T12:58:50Z</time>
      </trkpt>
      <trkpt lat="56.198072014376521" lon="-4.744379986077547">
        <ele>23.210000000000001</ele>
        <time>2023-09-01T12:58:51Z</time>
      </trkpt>
      <trkpt lat="56.197992973029613" lon="-4.744186028838158">
        <ele>24.170000000000002</ele>
        <time>2023-09-01T12:58:52Z</time>
      </trkpt>
      <trkpt lat="56.197950979694724" lon="-4.743959968909621">
        <ele>25.129999999999999</ele>
        <time>2023-09-01T12:58:53Z</time>
      </trkpt>
      <trkpt lat="56.197930024936795" lon="-4.743722006678581">
        <ele>25.609999999999999</ele>
        <time>2023-09-01T12:58:54Z</time>
      </trkpt>
      <trkpt lat="56.197907980531454" lon="-4.743483038619161">
        <ele>26.57</ele>
        <time>2023-09-01T12:58:55Z</time>
      </trkpt>
      <trkpt lat="56.197919966652989" lon="-4.74324599839747">
        <ele>27.530000000000001</ele>
        <time>2023-09-01T12:58:56Z</time>
      </trkpt>
      <trkpt lat="56.197947040200233" lon="-4.743005018681288">
        <ele>27.530000000000001</ele>
        <time>2023-09-01T12:58:57Z</time>
      </trkpt>
      <trkpt lat="56.198482979089022" lon="-4.740799991413951">
        <ele>31.379999999999999</ele>
        <time>2023-09-01T12:59:06Z</time>
      </trkpt>
      <trkpt lat="56.199067030102015" lon="-4.738555988296866">
        <ele>39.549999999999997</ele>
        <time>2023-09-01T12:59:14Z</time>
      </trkpt>
      <trkpt lat="56.199385961517692" lon="-4.737432980909944">
        <ele>42.920000000000002</ele>
        <time>2023-09-01T12:59:18Z</time>
      </trkpt>
      <trkpt lat="56.199471959844232" lon="-4.737167023122311">
        <ele>44.359999999999999</ele>
        <time>2023-09-01T12:59:19Z</time>
      </trkpt>
      <trkpt lat="56.199969006702304" lon="-4.735545963048935">
        <ele>49.159999999999997</ele>
        <time>2023-09-01T12:59:25Z</time>
      </trkpt>
      <trkpt lat="56.200035978108644" lon="-4.735271958634257">
        <ele>49.649999999999999</ele>
        <time>2023-09-01T12:59:26Z</time>
      </trkpt>
      <trkpt lat="56.200435040518641" lon="-4.733157036826015">
        <ele>54.450000000000003</ele>
        <time>2023-09-01T12:59:33Z</time>
      </trkpt>
      <trkpt lat="56.200718013569713" lon="-4.730961984023452">
        <ele>56.859999999999999</ele>
        <time>2023-09-01T12:59:40Z</time>
      </trkpt>
      <trkpt lat="56.200753971934319" lon="-4.730679010972381">
        <ele>56.859999999999999</ele>
        <time>2023-09-01T12:59:41Z</time>
      </trkpt>
      <trkpt lat="56.200822032988071" lon="-4.730133013799787">
        <ele>56.859999999999999</ele>
        <time>2023-09-01T12:59:43Z</time>
      </trkpt>
      <trkpt lat="56.200854973867536" lon="-4.729866972193122">
        <ele>56.859999999999999</ele>
        <time>2023-09-01T12:59:44Z</time>
      </trkpt>
      <trkpt lat="56.201179018244147" lon="-4.727827990427613">
        <ele>58.299999999999997</ele>
        <time>2023-09-01T12:59:51Z</time>
      </trkpt>
      <trkpt lat="56.201283959671855" lon="-4.727275958284736">
        <ele>58.299999999999997</ele>
        <time>2023-09-01T12:59:53Z</time>
      </trkpt>
      <trkpt lat="56.201483029872179" lon="-4.726226963102818">
        <ele>56.859999999999999</ele>
        <time>2023-09-01T12:59:57Z</time>
      </trkpt>
      <trkpt lat="56.201654020696878" lon="-4.725392041727901">
        <ele>56.859999999999999</ele>
        <time>2023-09-01T13:00:01Z</time>
      </trkpt>
      <trkpt lat="56.201752005144954" lon="-4.724995996803045">
        <ele>56.859999999999999</ele>
        <time>2023-09-01T13:00:03Z</time>
      </trkpt>
      <trkpt lat="56.201800033450127" lon="-4.724804973229766">
        <ele>57.340000000000003</ele>
        <time>2023-09-01T13:00:04Z</time>
      </trkpt>
      <trkpt lat="56.202209992334247" lon="-4.723105961456895">
        <ele>56.859999999999999</ele>
        <time>2023-09-01T13:00:12Z</time>
      </trkpt>
      <trkpt lat="56.20264501310885" lon="-4.721105033531785">
        <ele>51.57</ele>
        <time>2023-09-01T13:00:21Z</time>
      </trkpt>
      <trkpt lat="56.202923962846398" lon="-4.718904029577971">
        <ele>43.880000000000003</ele>
        <time>2023-09-01T13:00:30Z</time>
      </trkpt>
      <trkpt lat="56.203154968097806" lon="-4.716525999829173">
        <ele>37.630000000000003</ele>
        <time>2023-09-01T13:00:41Z</time>
      </trkpt>
      <trkpt lat="56.203438024967909" lon="-4.71460897475481">
        <ele>34.259999999999998</ele>
        <time>2023-09-01T13:00:50Z</time>
      </trkpt>
      <trkpt lat="56.203905986621976" lon="-4.713052036240697">
        <ele>32.340000000000003</ele>
        <time>2023-09-01T13:00:58Z</time>
      </trkpt>
      <trkpt lat="56.204099021852016" lon="-4.712213007733226">
        <ele>31.379999999999999</ele>
        <time>2023-09-01T13:01:03Z</time>
      </trkpt>
      <trkpt lat="56.204102961346507" lon="-4.712169002741575">
        <ele>30.899999999999999</ele>
        <time>2023-09-01T13:01:04Z</time>
      </trkpt>
      <trkpt lat="56.204041019082069" lon="-4.712023995816708">
        <ele>30.420000000000002</ele>
        <time>2023-09-01T13:01:05Z</time>
      </trkpt>
      <trkpt lat="56.203993996605277" lon="-4.711916036903858">
        <ele>30.420000000000002</ele>
        <time>2023-09-01T13:01:06Z</time>
      </trkpt>
      <trkpt lat="56.203958038240671" lon="-4.711848981678486">
        <ele>29.940000000000001</ele>
        <time>2023-09-01T13:01:07Z</time>
      </trkpt>
      <trkpt lat="56.203884026035666" lon="-4.711758960038424">
        <ele>28.98</ele>
        <time>2023-09-01T13:01:08Z</time>
      </trkpt>
      <trkpt lat="56.203795010223985" lon="-4.711651001125574">
        <ele>28.5</ele>
        <time>2023-09-01T13:01:09Z</time>
      </trkpt>
      <trkpt lat="56.203699037432671" lon="-4.711533989757299">
        <ele>27.530000000000001</ele>
        <time>2023-09-01T13:01:10Z</time>
      </trkpt>
      <trkpt lat="56.20344003662467" lon="-4.711221009492874">
        <ele>25.129999999999999</ele>
        <time>2023-09-01T13:01:13Z</time>
      </trkpt>
      <trkpt lat="56.203380022197962" lon="-4.711149008944631">
        <ele>24.649999999999999</ele>
        <time>2023-09-01T13:01:14Z</time>
      </trkpt>
      <trkpt lat="56.203335011377931" lon="-4.711095029488206">
        <ele>24.170000000000002</ele>
        <time>2023-09-01T13:01:15Z</time>
      </trkpt>
      <trkpt lat="56.203355966135859" lon="-4.710684986785054">
        <ele>24.170000000000002</ele>
        <time>2023-09-01T13:01:16Z</time>
      </trkpt>
      <trkpt lat="56.203389996662736" lon="-4.710660008713603">
        <ele>24.170000000000002</ele>
        <time>2023-09-01T13:01:17Z</time>
      </trkpt>
      <trkpt lat="56.203436013311148" lon="-4.710626984015107">
        <ele>23.690000000000001</ele>
        <time>2023-09-01T13:01:18Z</time>
      </trkpt>
      <trkpt lat="56.203496027737856" lon="-4.710583984851837">
        <ele>23.210000000000001</ele>
        <time>2023-09-01T13:01:19Z</time>
      </trkpt>
      <trkpt lat="56.203568028286099" lon="-4.710532017052174">
        <ele>22.73</ele>
        <time>2023-09-01T13:01:20Z</time>
      </trkpt>
      <trkpt lat="56.20365503244102" lon="-4.710469990968704">
        <ele>22.25</ele>
        <time>2023-09-01T13:01:21Z</time>
      </trkpt>
      <trkpt lat="56.203755028545856" lon="-4.7103959787637">
        <ele>21.289999999999999</ele>
        <time>2023-09-01T13:01:22Z</time>
      </trkpt>
      <trkpt lat="56.203860975801945" lon="-4.710315009579063">
        <ele>19.84</ele>
        <time>2023-09-01T13:01:23Z</time>
      </trkpt>
      <trkpt lat="56.204016963019967" lon="-4.710194980725646">
        <ele>18.399999999999999</ele>
        <time>2023-09-01T13:01:24Z</time>
      </trkpt>
      <trkpt lat="56.204110002145171" lon="-4.710082998499274">
        <ele>17.440000000000001</ele>
        <time>2023-09-01T13:01:25Z</time>
      </trkpt>
      <trkpt lat="56.204572012647986" lon="-4.709502970799804">
        <ele>12.15</ele>
        <time>2023-09-01T13:01:29Z</time>
      </trkpt>
      <trkpt lat="56.204959005117416" lon="-4.708743989467621">
        <ele>8.310000000000001</ele>
        <time>2023-09-01T13:01:34Z</time>
      </trkpt>
      <trkpt lat="56.205005021765828" lon="-4.708640975877643">
        <ele>7.83</ele>
        <time>2023-09-01T13:01:35Z</time>
      </trkpt>
      <trkpt lat="56.205230997875333" lon="-4.708144012838602">
        <ele>3.98</ele>
        <time>2023-09-01T13:01:41Z</time>
      </trkpt>
      <trkpt lat="56.205423027276993" lon="-4.707717038691044">
        <ele>-0.82</ele>
        <time>2023-09-01T13:01:49Z</time>
      </trkpt>
      <trkpt lat="56.205618996173143" lon="-4.707564990967512">
        <ele>-5.15</ele>
        <time>2023-09-01T13:01:56Z</time>
      </trkpt>
      <trkpt lat="56.205638023093343" lon="-4.707547975704074">
        <ele>-5.15</ele>
        <time>2023-09-01T13:02:03Z</time>
      </trkpt>
      <trkpt lat="56.20593499392271" lon="-4.707284029573202">
        <ele>-9.48</ele>
        <time>2023-09-01T13:02:10Z</time>
      </trkpt>
      <trkpt lat="56.206046976149082" lon="-4.707185039296746">
        <ele>-10.92</ele>
        <time>2023-09-01T13:02:13Z</time>
      </trkpt>
      <trkpt lat="56.206524996086955" lon="-4.706760998815298">
        <ele>-17.170000000000002</ele>
        <time>2023-09-01T13:02:23Z</time>
      </trkpt>
      <trkpt lat="56.206400021910667" lon="-4.704469973221421">
        <ele>-16.690000000000001</ele>
        <time>2023-09-01T13:02:33Z</time>
      </trkpt>
      <trkpt lat="56.206565983593464" lon="-4.703622981905937">
        <ele>-15.24</ele>
        <time>2023-09-01T13:02:38Z</time>
      </trkpt>
      <trkpt lat="56.206604037433863" lon="-4.703437993302941">
        <ele>-15.24</ele>
        <time>2023-09-01T13:02:39Z</time>
      </trkpt>
      <trkpt lat="56.206699004396796" lon="-4.70324101857841">
        <ele>-14.76</ele>
        <time>2023-09-01T13:02:40Z</time>
      </trkpt>
      <trkpt lat="56.206777039915323" lon="-4.703101040795445">
        <ele>-14.76</ele>
        <time>2023-09-01T13:02:41Z</time>
      </trkpt>
      <trkpt lat="56.20685700327158" lon="-4.702957961708307">
        <ele>-14.76</ele>
        <time>2023-09-01T13:02:42Z</time>
      </trkpt>
      <trkpt lat="56.207022964954376" lon="-4.702771967276931">
        <ele>-13.800000000000001</ele>
        <time>2023-09-01T13:02:44Z</time>
      </trkpt>
      <trkpt lat="56.207104017958045" lon="-4.702708013355732">
        <ele>-13.32</ele>
        <time>2023-09-01T13:02:45Z</time>
      </trkpt>
      <trkpt lat="56.20717903599143" lon="-4.70268102362752">
        <ele>-12.84</ele>
        <time>2023-09-01T13:02:46Z</time>
      </trkpt>
      <trkpt lat="56.2072669621557" lon="-4.702650010585785">
        <ele>-12.84</ele>
        <time>2023-09-01T13:02:47Z</time>
      </trkpt>
      <trkpt lat="56.207364024594426" lon="-4.702615980058909">
        <ele>-12.359999999999999</ele>
        <time>2023-09-01T13:02:48Z</time>
      </trkpt>
      <trkpt lat="56.207471983507276" lon="-4.702578010037541">
        <ele>-11.880000000000001</ele>
        <time>2023-09-01T13:02:49Z</time>
      </trkpt>
      <trkpt lat="56.207879008725286" lon="-4.702592007815838">
        <ele>-10.44</ele>
        <time>2023-09-01T13:02:53Z</time>
      </trkpt>
      <trkpt lat="56.208205986768007" lon="-4.702629977837205">
        <ele>-10.92</ele>
        <time>2023-09-01T13:02:56Z</time>
      </trkpt>
      <trkpt lat="56.208312017843127" lon="-4.702659985050559">
        <ele>-10.44</ele>
        <time>2023-09-01T13:02:57Z</time>
      </trkpt>
      <trkpt lat="56.208479991182685" lon="-4.702706001698971">
        <ele>-9.960000000000001</ele>
        <time>2023-09-01T13:02:58Z</time>
      </trkpt>
      <trkpt lat="56.208561966195703" lon="-4.702658979222179">
        <ele>-9.960000000000001</ele>
        <time>2023-09-01T13:02:59Z</time>
      </trkpt>
      <trkpt lat="56.208686018362641" lon="-4.702586978673935">
        <ele>-9.48</ele>
        <time>2023-09-01T13:03:00Z</time>
      </trkpt>
      <trkpt lat="56.209312984719872" lon="-4.702094038948417">
        <ele>-6.59</ele>
        <time>2023-09-01T13:03:05Z</time>
      </trkpt>
      <trkpt lat="56.209470983594656" lon="-4.701934028416872">
        <ele>-5.63</ele>
        <time>2023-09-01T13:03:06Z</time>
      </trkpt>
      <trkpt lat="56.210069032385945" lon="-4.70092199742794">
        <ele>-0.82</ele>
        <time>2023-09-01T13:03:12Z</time>
      </trkpt>
      <trkpt lat="56.210416965186596" lon="-4.700329983606935">
        <ele>1.58</ele>
        <time>2023-09-01T13:03:18Z</time>
      </trkpt>
      <trkpt lat="56.210503969341516" lon="-4.700181037187576">
        <ele>1.58</ele>
        <time>2023-09-01T13:03:20Z</time>
      </trkpt>
      <trkpt lat="56.210715025663376" lon="-4.699822962284088">
        <ele>2.06</ele>
        <time>2023-09-01T13:03:23Z</time>
      </trkpt>
      <trkpt lat="56.210803035646677" lon="-4.69967401586473">
        <ele>2.54</ele>
        <time>2023-09-01T13:03:24Z</time>
      </trkpt>
      <trkpt lat="56.210913006216288" lon="-4.699534038081765">
        <ele>2.54</ele>
        <time>2023-09-01T13:03:25Z</time>
      </trkpt>
      <trkpt lat="56.211048038676381" lon="-4.699428007006645">
        <ele>2.54</ele>
        <time>2023-09-01T13:03:26Z</time>
      </trkpt>
      <trkpt lat="56.211191033944488" lon="-4.699317030608654">
        <ele>2.54</ele>
        <time>2023-09-01T13:03:27Z</time>
      </trkpt>
      <trkpt lat="56.211340986192226" lon="-4.699200019240379">
        <ele>2.54</ele>
        <time>2023-09-01T13:03:28Z</time>
      </trkpt>
      <trkpt lat="56.211962001398206" lon="-4.698740020394325">
        <ele>1.58</ele>
        <time>2023-09-01T13:03:32Z</time>
      </trkpt>
      <trkpt lat="56.212110025808215" lon="-4.698641030117869">
        <ele>1.58</ele>
        <time>2023-09-01T13:03:33Z</time>
      </trkpt>
      <trkpt lat="56.212254026904702" lon="-4.698501974344254">
        <ele>1.58</ele>
        <time>2023-09-01T13:03:34Z</time>
      </trkpt>
      <trkpt lat="56.212363997474313" lon="-4.698350010439754">
        <ele>1.58</ele>
        <time>2023-09-01T13:03:35Z</time>
      </trkpt>
      <trkpt lat="56.212510010227561" lon="-4.698164016008377">
        <ele>2.06</ele>
        <time>2023-09-01T13:03:36Z</time>
      </trkpt>
      <trkpt lat="56.21263699606061" lon="-4.69795698300004">
        <ele>1.58</ele>
        <time>2023-09-01T13:03:37Z</time>
      </trkpt>
      <trkpt lat="56.212725006043911" lon="-4.697733018547297">
        <ele>2.06</ele>
        <time>2023-09-01T13:03:38Z</time>
      </trkpt>
      <trkpt lat="56.213191039860249" lon="-4.696701038628817">
        <ele>2.54</ele>
        <time>2023-09-01T13:03:43Z</time>
      </trkpt>
      <trkpt lat="56.213522963225842" lon="-4.696076000109315">
        <ele>2.06</ele>
        <time>2023-09-01T13:03:46Z</time>
      </trkpt>
      <trkpt lat="56.213579960167408" lon="-4.696039035916328">
        <ele>2.06</ele>
        <time>2023-09-01T13:03:47Z</time>
      </trkpt>
      <trkpt lat="56.213683979585767" lon="-4.695971980690956">
        <ele>2.54</ele>
        <time>2023-09-01T13:03:48Z</time>
      </trkpt>
      <trkpt lat="56.213823035359383" lon="-4.695882964879274">
        <ele>2.54</ele>
        <time>2023-09-01T13:03:49Z</time>
      </trkpt>
      <trkpt lat="56.213961001485586" lon="-4.695896040648222">
        <ele>2.54</ele>
        <time>2023-09-01T13:03:50Z</time>
      </trkpt>
      <trkpt lat="56.21411900036037" lon="-4.695910960435867">
        <ele>3.02</ele>
        <time>2023-09-01T13:03:51Z</time>
      </trkpt>
      <trkpt lat="56.214793995022774" lon="-4.695973992347717">
        <ele>3.5</ele>
        <time>2023-09-01T13:03:55Z</time>
      </trkpt>
      <trkpt lat="56.214960040524602" lon="-4.695990001782775">
        <ele>3.5</ele>
        <time>2023-09-01T13:03:56Z</time>
      </trkpt>
      <trkpt lat="56.215067999437451" lon="-4.695947002619505">
        <ele>3.98</ele>
        <time>2023-09-01T13:03:57Z</time>
      </trkpt>
      <trkpt lat="56.21517101302743" lon="-4.695803001523018">
        <ele>4.46</ele>
        <time>2023-09-01T13:03:58Z</time>
      </trkpt>
      <trkpt lat="56.215274026617408" lon="-4.695660006254911">
        <ele>4.94</ele>
        <time>2023-09-01T13:03:59Z</time>
      </trkpt>
      <trkpt lat="56.215380979701877" lon="-4.695511981844902">
        <ele>4.94</ele>
        <time>2023-09-01T13:04:00Z</time>
      </trkpt>
      <trkpt lat="56.21549497358501" lon="-4.695351971313357">
        <ele>4.94</ele>
        <time>2023-09-01T13:04:01Z</time>
      </trkpt>
      <trkpt lat="56.215633023530245" lon="-4.695222973823547">
        <ele>4.94</ele>
        <time>2023-09-01T13:04:02Z</time>
      </trkpt>
      <trkpt lat="56.215800996869802" lon="-4.695135969668627">
        <ele>4.94</ele>
        <time>2023-09-01T13:04:03Z</time>
      </trkpt>
      <trkpt lat="56.216513039544225" lon="-4.694846961647272">
        <ele>4.46</ele>
        <time>2023-09-01T13:04:07Z</time>
      </trkpt>
      <trkpt lat="56.216665003448725" lon="-4.694803962484002">
        <ele>4.94</ele>
        <time>2023-09-01T13:04:08Z</time>
      </trkpt>
      <trkpt lat="56.216813027858734" lon="-4.694788958877325">
        <ele>4.46</ele>
        <time>2023-09-01T13:04:09Z</time>
      </trkpt>
      <trkpt lat="56.216954011470079" lon="-4.694788958877325">
        <ele>4.46</ele>
        <time>2023-09-01T13:04:10Z</time>
      </trkpt>
      <trkpt lat="56.217148974537849" lon="-4.694788958877325">
        <ele>4.46</ele>
        <time>2023-09-01T13:04:11Z</time>
      </trkpt>
      <trkpt lat="56.217433959245682" lon="-4.69490303657949">
        <ele>3.98</ele>
        <time>2023-09-01T13:04:13Z</time>
      </trkpt>
      <trkpt lat="56.217611990869045" lon="-4.69499297440052">
        <ele>3.5</ele>
        <time>2023-09-01T13:04:14Z</time>
      </trkpt>
      <trkpt lat="56.218897020444274" lon="-4.696156969293952">
        <ele>2.54</ele>
        <time>2023-09-01T13:04:22Z</time>
      </trkpt>
      <trkpt lat="56.219161972403526" lon="-4.696380011737347">
        <ele>2.54</ele>
        <time>2023-09-01T13:04:24Z</time>
      </trkpt>
      <trkpt lat="56.219282001256943" lon="-4.696439020335674">
        <ele>2.54</ele>
        <time>2023-09-01T13:04:25Z</time>
      </trkpt>
      <trkpt lat="56.219445029273629" lon="-4.696484031155706">
        <ele>3.02</ele>
        <time>2023-09-01T13:04:26Z</time>
      </trkpt>
      <trkpt lat="56.21955499984324" lon="-4.696441031992436">
        <ele>3.02</ele>
        <time>2023-09-01T13:04:27Z</time>
      </trkpt>
      <trkpt lat="56.219710987061262" lon="-4.696381017565727">
        <ele>3.5</ele>
        <time>2023-09-01T13:04:28Z</time>
      </trkpt>
      <trkpt lat="56.219878038391471" lon="-4.696315973997116">
        <ele>3.98</ele>
        <time>2023-09-01T13:04:29Z</time>
      </trkpt>
      <trkpt lat="56.220038970932364" lon="-4.696254031732678">
        <ele>4.46</ele>
        <time>2023-09-01T13:04:30Z</time>
      </trkpt>
      <trkpt lat="56.220198981463909" lon="-4.696192005649209">
        <ele>4.94</ele>
        <time>2023-09-01T13:04:31Z</time>
      </trkpt>
      <trkpt lat="56.22071698307991" lon="-4.695991007611156">
        <ele>5.91</ele>
        <time>2023-09-01T13:04:34Z</time>
      </trkpt>
      <trkpt lat="56.220899960026145" lon="-4.695980027318001">
        <ele>6.39</ele>
        <time>2023-09-01T13:04:35Z</time>
      </trkpt>
      <trkpt lat="56.221074974164367" lon="-4.695996958762407">
        <ele>6.39</ele>
        <time>2023-09-01T13:04:36Z</time>
      </trkpt>
      <trkpt lat="56.221610996872187" lon="-4.6960439812392">
        <ele>8.310000000000001</ele>
        <time>2023-09-01T13:04:39Z</time>
      </trkpt>
      <trkpt lat="56.221782993525267" lon="-4.696035012602806">
        <ele>8.789999999999999</ele>
        <time>2023-09-01T13:04:40Z</time>
      </trkpt>
      <trkpt lat="56.222210973501205" lon="-4.695836026221514">
        <ele>11.19</ele>
        <time>2023-09-01T13:04:43Z</time>
      </trkpt>
      <trkpt lat="56.222341982647777" lon="-4.695776011794806">
        <ele>12.15</ele>
        <time>2023-09-01T13:04:44Z</time>
      </trkpt>
      <trkpt lat="56.22245698235929" lon="-4.695810964331031">
        <ele>13.119999999999999</ele>
        <time>2023-09-01T13:04:45Z</time>
      </trkpt>
      <trkpt lat="56.222755964845419" lon="-4.695904003456235">
        <ele>14.08</ele>
        <time>2023-09-01T13:04:47Z</time>
      </trkpt>
      <trkpt lat="56.223622988909483" lon="-4.696003999561071">
        <ele>14.08</ele>
        <time>2023-09-01T13:04:52Z</time>
      </trkpt>
      <trkpt lat="56.223782999441028" lon="-4.696025038138032">
        <ele>13.6</ele>
        <time>2023-09-01T13:04:53Z</time>
      </trkpt>
      <trkpt lat="56.223930018022656" lon="-4.696102989837527">
        <ele>13.6</ele>
        <time>2023-09-01T13:04:54Z</time>
      </trkpt>
      <trkpt lat="56.224079970270395" lon="-4.696183037012816">
        <ele>13.119999999999999</ele>
        <time>2023-09-01T13:04:55Z</time>
      </trkpt>
      <trkpt lat="56.224191030487418" lon="-4.696326032280922">
        <ele>13.6</ele>
        <time>2023-09-01T13:04:56Z</time>
      </trkpt>
      <trkpt lat="56.224308041855693" lon="-4.69647497870028">
        <ele>13.6</ele>
        <time>2023-09-01T13:04:57Z</time>
      </trkpt>
      <trkpt lat="56.224563019350171" lon="-4.696802040562034">
        <ele>13.6</ele>
        <time>2023-09-01T13:04:59Z</time>
      </trkpt>
      <trkpt lat="56.224710959941149" lon="-4.696946041658521">
        <ele>13.119999999999999</ele>
        <time>2023-09-01T13:05:00Z</time>
      </trkpt>
      <trkpt lat="56.226359009742737" lon="-4.69774098135531">
        <ele>10.710000000000001</ele>
        <time>2023-09-01T13:05:09Z</time>
      </trkpt>
      <trkpt lat="56.226908024400473" lon="-4.698011968284845">
        <ele>10.23</ele>
        <time>2023-09-01T13:05:12Z</time>
      </trkpt>
      <trkpt lat="56.227516969665885" lon="-4.698531981557608">
        <ele>9.27</ele>
        <time>2023-09-01T13:05:16Z</time>
      </trkpt>
      <trkpt lat="56.228382987901568" lon="-4.699635962024331">
        <ele>9.27</ele>
        <time>2023-09-01T13:05:22Z</time>
      </trkpt>
      <trkpt lat="56.228669984266162" lon="-4.699977021664381">
        <ele>9.27</ele>
        <time>2023-09-01T13:05:24Z</time>
      </trkpt>
      <trkpt lat="56.228813985362649" lon="-4.700139965862036">
        <ele>8.789999999999999</ele>
        <time>2023-09-01T13:05:25Z</time>
      </trkpt>
      <trkpt lat="56.228983970358968" lon="-4.700253959745169">
        <ele>8.789999999999999</ele>
        <time>2023-09-01T13:05:26Z</time>
      </trkpt>
      <trkpt lat="56.229165019467473" lon="-4.700329983606935">
        <ele>8.789999999999999</ele>
        <time>2023-09-01T13:05:27Z</time>
      </trkpt>
      <trkpt lat="56.229354031383991" lon="-4.700377006083727">
        <ele>8.310000000000001</ele>
        <time>2023-09-01T13:05:28Z</time>
      </trkpt>
      <trkpt lat="56.229546982795" lon="-4.7004250343889">
        <ele>8.310000000000001</ele>
        <time>2023-09-01T13:05:29Z</time>
      </trkpt>
      <trkpt lat="56.231282036751509" lon="-4.701068010181189">
        <ele>7.35</ele>
        <time>2023-09-01T13:05:38Z</time>
      </trkpt>
      <trkpt lat="56.23300401493907" lon="-4.701542006805539">
        <ele>6.39</ele>
        <time>2023-09-01T13:05:47Z</time>
      </trkpt>
      <trkpt lat="56.234435979276896" lon="-4.70182397402823">
        <ele>6.39</ele>
        <time>2023-09-01T13:05:55Z</time>
      </trkpt>
      <trkpt lat="56.234930008649826" lon="-4.701967975124717">
        <ele>7.35</ele>
        <time>2023-09-01T13:05:58Z</time>
      </trkpt>
      <trkpt lat="56.235090019181371" lon="-4.70203896984458">
        <ele>8.310000000000001</ele>
        <time>2023-09-01T13:05:59Z</time>
      </trkpt>
      <trkpt lat="56.235258998349309" lon="-4.702169978991151">
        <ele>8.789999999999999</ele>
        <time>2023-09-01T13:06:00Z</time>
      </trkpt>
      <trkpt lat="56.235394030809402" lon="-4.702368965372443">
        <ele>8.310000000000001</ele>
        <time>2023-09-01T13:06:01Z</time>
      </trkpt>
      <trkpt lat="56.235543983057141" lon="-4.702592007815838">
        <ele>8.310000000000001</ele>
        <time>2023-09-01T13:06:02Z</time>
      </trkpt>
      <trkpt lat="56.236720969900489" lon="-4.703918024897575">
        <ele>6.39</ele>
        <time>2023-09-01T13:06:09Z</time>
      </trkpt>
      <trkpt lat="56.237955037504435" lon="-4.70493801869452">
        <ele>3.02</ele>
        <time>2023-09-01T13:06:17Z</time>
      </trkpt>
      <trkpt lat="56.238502040505409" lon="-4.705421989783645">
        <ele>2.54</ele>
        <time>2023-09-01T13:06:21Z</time>
      </trkpt>
      <trkpt lat="56.238648975268006" lon="-4.705599015578628">
        <ele>2.54</ele>
        <time>2023-09-01T13:06:22Z</time>
      </trkpt>
      <trkpt lat="56.238780990242958" lon="-4.705810993909836">
        <ele>1.58</ele>
        <time>2023-09-01T13:06:23Z</time>
      </trkpt>
      <trkpt lat="56.239264961332083" lon="-4.706754041835666">
        <ele>-0.82</ele>
        <time>2023-09-01T13:06:27Z</time>
      </trkpt>
      <trkpt lat="56.239367974922061" lon="-4.707009019330144">
        <ele>-1.79</ele>
        <time>2023-09-01T13:06:28Z</time>
      </trkpt>
      <trkpt lat="56.239567967131734" lon="-4.707506988197565">
        <ele>-2.75</ele>
        <time>2023-09-01T13:06:30Z</time>
      </trkpt>
      <trkpt lat="56.239663017913699" lon="-4.707742016762495">
        <ele>-3.23</ele>
        <time>2023-09-01T13:06:31Z</time>
      </trkpt>
      <trkpt lat="56.239757984876633" lon="-4.707957012578845">
        <ele>-3.71</ele>
        <time>2023-09-01T13:06:32Z</time>
      </trkpt>
      <trkpt lat="56.2399029918015" lon="-4.708115011453629">
        <ele>-4.19</ele>
        <time>2023-09-01T13:06:33Z</time>
      </trkpt>
      <trkpt lat="56.240055961534381" lon="-4.708281978964806">
        <ele>-4.67</ele>
        <time>2023-09-01T13:06:34Z</time>
      </trkpt>
      <trkpt lat="56.240214966237545" lon="-4.708455987274647">
        <ele>-5.15</ele>
        <time>2023-09-01T13:06:35Z</time>
      </trkpt>
      <trkpt lat="56.241539977490902" lon="-4.709734981879592">
        <ele>-7.55</ele>
        <time>2023-09-01T13:06:43Z</time>
      </trkpt>
      <trkpt lat="56.241682972759008" lon="-4.709851993247867">
        <ele>-7.55</ele>
        <time>2023-09-01T13:06:44Z</time>
      </trkpt>
      <trkpt lat="56.241820016875863" lon="-4.710018960759044">
        <ele>-7.55</ele>
        <time>2023-09-01T13:06:45Z</time>
      </trkpt>
      <trkpt lat="56.241933004930615" lon="-4.710214007645845">
        <ele>-7.55</ele>
        <time>2023-09-01T13:06:46Z</time>
      </trkpt>
      <trkpt lat="56.242045992985368" lon="-4.710447024554014">
        <ele>-7.55</ele>
        <time>2023-09-01T13:06:47Z</time>
      </trkpt>
      <trkpt lat="56.242141965776682" lon="-4.710686998441815">
        <ele>-7.55</ele>
        <time>2023-09-01T13:06:48Z</time>
      </trkpt>
      <trkpt lat="56.242443965747952" lon="-4.711490990594029">
        <ele>-7.55</ele>
        <time>2023-09-01T13:06:51Z</time>
      </trkpt>
      <trkpt lat="56.242540022358298" lon="-4.711755020543933">
        <ele>-7.55</ele>
        <time>2023-09-01T13:06:52Z</time>
      </trkpt>
      <trkpt lat="56.243156008422375" lon="-4.712995961308479">
        <ele>-5.63</ele>
        <time>2023-09-01T13:06:58Z</time>
      </trkpt>
      <trkpt lat="56.244460986927152" lon="-4.714970989152789">
        <ele>1.1</ele>
        <time>2023-09-01T13:07:08Z</time>
      </trkpt>
      <trkpt lat="56.245117960497737" lon="-4.716053009033203">
        <ele>3.02</ele>
        <time>2023-09-01T13:07:15Z</time>
      </trkpt>
      <trkpt lat="56.245236983522773" lon="-4.716182006523013">
        <ele>3.02</ele>
        <time>2023-09-01T13:07:16Z</time>
      </trkpt>
      <trkpt lat="56.245305966585875" lon="-4.716182006523013">
        <ele>3.02</ele>
        <time>2023-09-01T13:07:17Z</time>
      </trkpt>
      <trkpt lat="56.245456002652645" lon="-4.716122997924686">
        <ele>2.54</ele>
        <time>2023-09-01T13:07:18Z</time>
      </trkpt>
      <trkpt lat="56.245593968778849" lon="-4.715978996828198">
        <ele>2.06</ele>
        <time>2023-09-01T13:07:19Z</time>
      </trkpt>
      <trkpt lat="56.245751967653632" lon="-4.715773975476623">
        <ele>1.58</ele>
        <time>2023-09-01T13:07:20Z</time>
      </trkpt>
      <trkpt lat="56.246703984215856" lon="-4.71460897475481">
        <ele>-2.27</ele>
        <time>2023-09-01T13:07:26Z</time>
      </trkpt>
      <trkpt lat="56.247940985485911" lon="-4.713131999596953">
        <ele>-1.79</ele>
        <time>2023-09-01T13:07:34Z</time>
      </trkpt>
      <trkpt lat="56.249403962865472" lon="-4.711853004992008">
        <ele>-2.75</ele>
        <time>2023-09-01T13:07:42Z</time>
      </trkpt>
      <trkpt lat="56.250653034076095" lon="-4.710973994806409">
        <ele>-3.23</ele>
        <time>2023-09-01T13:07:49Z</time>
      </trkpt>
      <trkpt lat="56.250970037654042" lon="-4.710623966529965">
        <ele>-1.79</ele>
        <time>2023-09-01T13:07:51Z</time>
      </trkpt>
      <trkpt lat="56.252135038375854" lon="-4.709023023024201">
        <ele>3.02</ele>
        <time>2023-09-01T13:07:59Z</time>
      </trkpt>
      <trkpt lat="56.252301000058651" lon="-4.708898970857263">
        <ele>3.5</ele>
        <time>2023-09-01T13:08:00Z</time>
      </trkpt>
      <trkpt lat="56.252467967569828" lon="-4.708773996680975">
        <ele>3.98</ele>
        <time>2023-09-01T13:08:01Z</time>
      </trkpt>
      <trkpt lat="56.252647005021572" lon="-4.708639970049262">
        <ele>4.46</ele>
        <time>2023-09-01T13:08:02Z</time>
      </trkpt>
      <trkpt lat="56.252825036644936" lon="-4.708506027236581">
        <ele>4.94</ele>
        <time>2023-09-01T13:08:03Z</time>
      </trkpt>
      <trkpt lat="56.253188978880644" lon="-4.708338975906372">
        <ele>5.42</ele>
        <time>2023-09-01T13:08:05Z</time>
      </trkpt>
      <trkpt lat="56.253799013793468" lon="-4.708233028650284">
        <ele>5.91</ele>
        <time>2023-09-01T13:08:08Z</time>
      </trkpt>
      <trkpt lat="56.25421098433435" lon="-4.708221964538097">
        <ele>6.39</ele>
        <time>2023-09-01T13:08:10Z</time>
      </trkpt>
      <trkpt lat="56.254372000694275" lon="-4.708292037248612">
        <ele>6.87</ele>
        <time>2023-09-01T13:08:11Z</time>
      </trkpt>
      <trkpt lat="56.254539974033833" lon="-4.708391027525067">
        <ele>6.87</ele>
        <time>2023-09-01T13:08:12Z</time>
      </trkpt>
      <trkpt lat="56.255261991173029" lon="-4.708758993074298">
        <ele>7.35</ele>
        <time>2023-09-01T13:08:16Z</time>
      </trkpt>
      <trkpt lat="56.256493041291833" lon="-4.709111033007503">
        <ele>9.75</ele>
        <time>2023-09-01T13:08:23Z</time>
      </trkpt>
      <trkpt lat="56.258089961484075" lon="-4.709100974723697">
        <ele>8.789999999999999</ele>
        <time>2023-09-01T13:08:33Z</time>
      </trkpt>
      <trkpt lat="56.258173026144505" lon="-4.708983041346073">
        <ele>8.789999999999999</ele>
        <time>2023-09-01T13:08:34Z</time>
      </trkpt>
      <trkpt lat="56.258247960358858" lon="-4.708876004442573">
        <ele>8.310000000000001</ele>
        <time>2023-09-01T13:08:35Z</time>
      </trkpt>
      <trkpt lat="56.258321972563863" lon="-4.708769973367453">
        <ele>8.310000000000001</ele>
        <time>2023-09-01T13:08:36Z</time>
      </trkpt>
      <trkpt lat="56.258391961455345" lon="-4.708666037768126">
        <ele>8.310000000000001</ele>
        <time>2023-09-01T13:08:37Z</time>
      </trkpt>
      <trkpt lat="56.258437978103757" lon="-4.708480965346098">
        <ele>8.310000000000001</ele>
        <time>2023-09-01T13:08:38Z</time>
      </trkpt>
      <trkpt lat="56.258492041379213" lon="-4.708266975358129">
        <ele>8.310000000000001</ele>
        <time>2023-09-01T13:08:39Z</time>
      </trkpt>
      <trkpt lat="56.258549960330129" lon="-4.70803496427834">
        <ele>7.83</ele>
        <time>2023-09-01T13:08:40Z</time>
      </trkpt>
      <trkpt lat="56.258690021932125" lon="-4.707611007615924">
        <ele>7.83</ele>
        <time>2023-09-01T13:08:42Z</time>
      </trkpt>
      <trkpt lat="56.258778031915426" lon="-4.70745200291276">
        <ele>7.83</ele>
        <time>2023-09-01T13:08:43Z</time>
      </trkpt>
      <trkpt lat="56.258990010246634" lon="-4.70706501044333">
        <ele>8.310000000000001</ele>
        <time>2023-09-01T13:08:45Z</time>
      </trkpt>
      <trkpt lat="56.259043989703059" lon="-4.706846997141838">
        <ele>8.789999999999999</ele>
        <time>2023-09-01T13:08:46Z</time>
      </trkpt>
      <trkpt lat="56.259267032146454" lon="-4.706010986119509">
        <ele>10.710000000000001</ele>
        <time>2023-09-01T13:08:49Z</time>
      </trkpt>
      <trkpt lat="56.259354036301374" lon="-4.705821974202991">
        <ele>11.19</ele>
        <time>2023-09-01T13:08:50Z</time>
      </trkpt>
      <trkpt lat="56.259438022971153" lon="-4.705637991428375">
        <ele>11.19</ele>
        <time>2023-09-01T13:08:51Z</time>
      </trkpt>
      <trkpt lat="56.259532989934087" lon="-4.705430958420038">
        <ele>11.19</ele>
        <time>2023-09-01T13:08:52Z</time>
      </trkpt>
      <trkpt lat="56.259591998532414" lon="-4.705302966758609">
        <ele>11.19</ele>
        <time>2023-09-01T13:08:53Z</time>
      </trkpt>
      <trkpt lat="56.259641032665968" lon="-4.704970037564635">
        <ele>11.19</ele>
        <time>2023-09-01T13:08:54Z</time>
      </trkpt>
      <trkpt lat="56.259682020172477" lon="-4.704689998179674">
        <ele>11.67</ele>
        <time>2023-09-01T13:08:55Z</time>
      </trkpt>
      <trkpt lat="56.259720996022224" lon="-4.704423034563661">
        <ele>11.67</ele>
        <time>2023-09-01T13:08:56Z</time>
      </trkpt>
      <trkpt lat="56.2598189804703" lon="-4.704179037362337">
        <ele>11.19</ele>
        <time>2023-09-01T13:08:57Z</time>
      </trkpt>
      <trkpt lat="56.259849993512034" lon="-4.70410100184381">
        <ele>11.19</ele>
        <time>2023-09-01T13:08:58Z</time>
      </trkpt>
      <trkpt lat="56.260027019307017" lon="-4.703982984647155">
        <ele>11.19</ele>
        <time>2023-09-01T13:08:59Z</time>
      </trkpt>
      <trkpt lat="56.260139001533389" lon="-4.703932022675872">
        <ele>10.710000000000001</ele>
        <time>2023-09-01T13:09:00Z</time>
      </trkpt>
      <trkpt lat="56.260287025943398" lon="-4.703941997140646">
        <ele>10.710000000000001</ele>
        <time>2023-09-01T13:09:01Z</time>
      </trkpt>
      <trkpt lat="56.260462962090969" lon="-4.703954989090562">
        <ele>9.75</ele>
        <time>2023-09-01T13:09:02Z</time>
      </trkpt>
      <trkpt lat="56.261503994464874" lon="-4.703981978818774">
        <ele>7.35</ele>
        <time>2023-09-01T13:09:07Z</time>
      </trkpt>
      <trkpt lat="56.262777037918568" lon="-4.703762959688902">
        <ele>3.5</ele>
        <time>2023-09-01T13:09:14Z</time>
      </trkpt>
      <trkpt lat="56.263065040111542" lon="-4.703657012432814">
        <ele>3.02</ele>
        <time>2023-09-01T13:09:16Z</time>
      </trkpt>
      <trkpt lat="56.263200994580984" lon="-4.70360797829926">
        <ele>2.54</ele>
        <time>2023-09-01T13:09:17Z</time>
      </trkpt>
      <trkpt lat="56.263344995677471" lon="-4.70364703796804">
        <ele>2.06</ele>
        <time>2023-09-01T13:09:18Z</time>
      </trkpt>
      <trkpt lat="56.263519003987312" lon="-4.70369297079742">
        <ele>2.06</ele>
        <time>2023-09-01T13:09:19Z</time>
      </trkpt>
      <trkpt lat="56.2636439781636" lon="-4.703766983002424">
        <ele>1.58</ele>
        <time>2023-09-01T13:09:20Z</time>
      </trkpt>
      <trkpt lat="56.263784961774945" lon="-4.703849963843823">
        <ele>1.58</ele>
        <time>2023-09-01T13:09:21Z</time>
      </trkpt>
      <trkpt lat="56.264407988637686" lon="-4.704180965200067">
        <ele>-0.34</ele>
        <time>2023-09-01T13:09:25Z</time>
      </trkpt>
      <trkpt lat="56.265049958601594" lon="-4.704521019011736">
        <ele>-3.23</ele>
        <time>2023-09-01T13:09:30Z</time>
      </trkpt>
      <trkpt lat="56.265171999111772" lon="-4.704552032053471">
        <ele>-3.23</ele>
        <time>2023-09-01T13:09:31Z</time>
      </trkpt>
      <trkpt lat="56.265295967459679" lon="-4.7045539598912">
        <ele>-3.71</ele>
        <time>2023-09-01T13:09:32Z</time>
      </trkpt>
      <trkpt lat="56.265444997698069" lon="-4.704466033726931">
        <ele>-3.71</ele>
        <time>2023-09-01T13:09:33Z</time>
      </trkpt>
      <trkpt lat="56.265566032379866" lon="-4.70431599766016">
        <ele>-3.23</ele>
        <time>2023-09-01T13:09:34Z</time>
      </trkpt>
      <trkpt lat="56.265673991292715" lon="-4.704125979915261">
        <ele>-3.71</ele>
        <time>2023-09-01T13:09:35Z</time>
      </trkpt>
      <trkpt lat="56.265777004882693" lon="-4.703920036554337">
        <ele>-2.75</ele>
        <time>2023-09-01T13:09:36Z</time>
      </trkpt>
      <trkpt lat="56.265872977674007" lon="-4.703728007152677">
        <ele>-1.79</ele>
        <time>2023-09-01T13:09:37Z</time>
      </trkpt>
      <trkpt lat="56.265959981828928" lon="-4.703553998842835">
        <ele>-0.82</ele>
        <time>2023-09-01T13:09:38Z</time>
      </trkpt>
      <trkpt lat="56.266039023175836" lon="-4.703394994139671">
        <ele>-0.82</ele>
        <time>2023-09-01T13:09:39Z</time>
      </trkpt>
      <trkpt lat="56.266202973201871" lon="-4.703166000545025">
        <ele>-0.34</ele>
        <time>2023-09-01T13:09:41Z</time>
      </trkpt>
      <trkpt lat="56.266299029812217" lon="-4.703059969469905">
        <ele>-0.34</ele>
        <time>2023-09-01T13:09:42Z</time>
      </trkpt>
      <trkpt lat="56.266388967633247" lon="-4.70296198502183">
        <ele>-0.34</ele>
        <time>2023-09-01T13:09:43Z</time>
      </trkpt>
      <trkpt lat="56.266475971788168" lon="-4.702865006402135">
        <ele>-0.34</ele>
        <time>2023-09-01T13:09:44Z</time>
      </trkpt>
      <trkpt lat="56.266569010913372" lon="-4.702786970883608">
        <ele>0.14</ele>
        <time>2023-09-01T13:09:45Z</time>
      </trkpt>
      <trkpt lat="56.266659032553434" lon="-4.702733997255564">
        <ele>0.14</ele>
        <time>2023-09-01T13:09:46Z</time>
      </trkpt>
      <trkpt lat="56.266749976202846" lon="-4.70268102362752">
        <ele>0.14</ele>
        <time>2023-09-01T13:09:47Z</time>
      </trkpt>
      <trkpt lat="56.266848966479301" lon="-4.702663002535701">
        <ele>0.14</ele>
        <time>2023-09-01T13:09:48Z</time>
      </trkpt>
      <trkpt lat="56.267033033072948" lon="-4.702700972557068">
        <ele>0.62</ele>
        <time>2023-09-01T13:09:50Z</time>
      </trkpt>
      <trkpt lat="56.267120037227869" lon="-4.702756963670254">
        <ele>0.14</ele>
        <time>2023-09-01T13:09:51Z</time>
      </trkpt>
      <trkpt lat="56.26781196333468" lon="-4.70345601439476">
        <ele>-1.3</ele>
        <time>2023-09-01T13:09:58Z</time>
      </trkpt>
      <trkpt lat="56.268576979637146" lon="-4.704200997948647">
        <ele>-3.71</ele>
        <time>2023-09-01T13:10:04Z</time>
      </trkpt>
      <trkpt lat="56.268720980733633" lon="-4.704307029023767">
        <ele>-4.19</ele>
        <time>2023-09-01T13:10:05Z</time>
      </trkpt>
      <trkpt lat="56.269692024216056" lon="-4.704899964854121">
        <ele>-4.67</ele>
        <time>2023-09-01T13:10:12Z</time>
      </trkpt>
      <trkpt lat="56.270731966942549" lon="-4.705422995612025">
        <ele>-2.27</ele>
        <time>2023-09-01T13:10:21Z</time>
      </trkpt>
      <trkpt lat="56.271607959643006" lon="-4.705752991139889">
        <ele>-1.79</ele>
        <time>2023-09-01T13:10:29Z</time>
      </trkpt>
      <trkpt lat="56.271724971011281" lon="-4.705752991139889">
        <ele>-1.3</ele>
        <time>2023-09-01T13:10:30Z</time>
      </trkpt>
      <trkpt lat="56.271866038441658" lon="-4.705752991139889">
        <ele>-0.82</ele>
        <time>2023-09-01T13:10:31Z</time>
      </trkpt>
      <trkpt lat="56.271972991526127" lon="-4.705695994198322">
        <ele>-0.34</ele>
        <time>2023-09-01T13:10:32Z</time>
      </trkpt>
      <trkpt lat="56.272093020379543" lon="-4.705631034448743">
        <ele>-0.34</ele>
        <time>2023-09-01T13:10:33Z</time>
      </trkpt>
      <trkpt lat="56.272214977070689" lon="-4.705554004758596">
        <ele>0.14</ele>
        <time>2023-09-01T13:10:34Z</time>
      </trkpt>
      <trkpt lat="56.272558970376849" lon="-4.705371027812362">
        <ele>0.62</ele>
        <time>2023-09-01T13:10:37Z</time>
      </trkpt>
      <trkpt lat="56.272672964259982" lon="-4.70532501116395">
        <ele>0.14</ele>
        <time>2023-09-01T13:10:38Z</time>
      </trkpt>
      <trkpt lat="56.272784024477005" lon="-4.705278994515538">
        <ele>0.14</ele>
        <time>2023-09-01T13:10:39Z</time>
      </trkpt>
      <trkpt lat="56.272892989218235" lon="-4.70528201200068">
        <ele>-0.34</ele>
        <time>2023-09-01T13:10:40Z</time>
      </trkpt>
      <trkpt lat="56.273005977272987" lon="-4.705321993678808">
        <ele>-0.82</ele>
        <time>2023-09-01T13:10:41Z</time>
      </trkpt>
      <trkpt lat="56.273135980591178" lon="-4.705372033640742">
        <ele>-1.3</ele>
        <time>2023-09-01T13:10:42Z</time>
      </trkpt>
      <trkpt lat="56.273243017494678" lon="-4.705508993938565">
        <ele>-1.3</ele>
        <time>2023-09-01T13:10:43Z</time>
      </trkpt>
      <trkpt lat="56.273351982235909" lon="-4.705646960064769">
        <ele>-0.82</ele>
        <time>2023-09-01T13:10:44Z</time>
      </trkpt>
      <trkpt lat="56.273444015532732" lon="-4.705829015001655">
        <ele>-1.3</ele>
        <time>2023-09-01T13:10:45Z</time>
      </trkpt>
      <trkpt lat="56.273520039394498" lon="-4.70599003136158">
        <ele>-1.3</ele>
        <time>2023-09-01T13:10:46Z</time>
      </trkpt>
      <trkpt lat="56.273597991093993" lon="-4.706155993044376">
        <ele>-1.79</ele>
        <time>2023-09-01T13:10:47Z</time>
      </trkpt>
      <trkpt lat="56.273670997470617" lon="-4.706310974434018">
        <ele>-2.27</ele>
        <time>2023-09-01T13:10:48Z</time>
      </trkpt>
      <trkpt lat="56.273736963048577" lon="-4.706426979973912">
        <ele>-2.75</ele>
        <time>2023-09-01T13:10:49Z</time>
      </trkpt>
      <trkpt lat="56.273823967203498" lon="-4.706525970250368">
        <ele>-3.23</ele>
        <time>2023-09-01T13:10:50Z</time>
      </trkpt>
      <trkpt lat="56.273918012157083" lon="-4.706596964970231">
        <ele>-3.71</ele>
        <time>2023-09-01T13:10:51Z</time>
      </trkpt>
      <trkpt lat="56.274032006040215" lon="-4.706653961911798">
        <ele>-4.19</ele>
        <time>2023-09-01T13:10:52Z</time>
      </trkpt>
      <trkpt lat="56.274145999923348" lon="-4.706710958853364">
        <ele>-4.19</ele>
        <time>2023-09-01T13:10:53Z</time>
      </trkpt>
      <trkpt lat="56.274262005463243" lon="-4.706760998815298">
        <ele>-4.67</ele>
        <time>2023-09-01T13:10:54Z</time>
      </trkpt>
      <trkpt lat="56.27528702840209" lon="-4.706441983580589">
        <ele>-6.11</ele>
        <time>2023-09-01T13:11:03Z</time>
      </trkpt>
      <trkpt lat="56.276387991383672" lon="-4.705821974202991">
        <ele>-7.55</ele>
        <time>2023-09-01T13:11:13Z</time>
      </trkpt>
      <trkpt lat="56.276673981919885" lon="-4.705761037766933">
        <ele>-8.51</ele>
        <time>2023-09-01T13:11:16Z</time>
      </trkpt>
      <trkpt lat="56.277648964896798" lon="-4.705403968691826">
        <ele>-8.029999999999999</ele>
        <time>2023-09-01T13:11:25Z</time>
      </trkpt>
      <trkpt lat="56.278538033366203" lon="-4.704791000112891">
        <ele>-8.029999999999999</ele>
        <time>2023-09-01T13:11:33Z</time>
      </trkpt>
      <trkpt lat="56.278736013919115" lon="-4.70453099347651">
        <ele>-8.029999999999999</ele>
        <time>2023-09-01T13:11:35Z</time>
      </trkpt>
      <trkpt lat="56.278836010023952" lon="-4.704374000430107">
        <ele>-7.07</ele>
        <time>2023-09-01T13:11:36Z</time>
      </trkpt>
      <trkpt lat="56.278911028057337" lon="-4.704162022098899">
        <ele>-6.59</ele>
        <time>2023-09-01T13:11:37Z</time>
      </trkpt>
      <trkpt lat="56.279448978602886" lon="-4.702664008364081">
        <ele>-5.15</ele>
        <time>2023-09-01T13:11:43Z</time>
      </trkpt>
      <trkpt lat="56.279944013804197" lon="-4.701648037880659">
        <ele>-4.19</ele>
        <time>2023-09-01T13:11:49Z</time>
      </trkpt>
      <trkpt lat="56.280283983796835" lon="-4.701214022934437">
        <ele>-5.15</ele>
        <time>2023-09-01T13:11:52Z</time>
      </trkpt>
      <trkpt lat="56.280696038156748" lon="-4.70090095885098">
        <ele>-6.11</ele>
        <time>2023-09-01T13:11:55Z</time>
      </trkpt>
      <trkpt lat="56.281744027510285" lon="-4.700486976653338">
        <ele>-6.59</ele>
        <time>2023-09-01T13:12:03Z</time>
      </trkpt>
      <trkpt lat="56.281953994184732" lon="-4.700431991368532">
        <ele>-7.07</ele>
        <time>2023-09-01T13:12:05Z</time>
      </trkpt>
      <trkpt lat="56.282053990289569" lon="-4.700414976105094">
        <ele>-7.07</ele>
        <time>2023-09-01T13:12:06Z</time>
      </trkpt>
      <trkpt lat="56.282165972515941" lon="-4.70044900663197">
        <ele>-7.55</ele>
        <time>2023-09-01T13:12:07Z</time>
      </trkpt>
      <trkpt lat="56.282278960570693" lon="-4.700510026887059">
        <ele>-7.55</ele>
        <time>2023-09-01T13:12:08Z</time>
      </trkpt>
      <trkpt lat="56.282382979989052" lon="-4.700644975528121">
        <ele>-7.55</ele>
        <time>2023-09-01T13:12:09Z</time>
      </trkpt>
      <trkpt lat="56.282491022720933" lon="-4.700785037130117">
        <ele>-7.55</ele>
        <time>2023-09-01T13:12:10Z</time>
      </trkpt>
      <trkpt lat="56.282601999118924" lon="-4.700929038226605">
        <ele>-8.029999999999999</ele>
        <time>2023-09-01T13:12:11Z</time>
      </trkpt>
      <trkpt lat="56.282825041562319" lon="-4.701217040419579">
        <ele>-8.029999999999999</ele>
        <time>2023-09-01T13:12:13Z</time>
      </trkpt>
      <trkpt lat="56.283492995426059" lon="-4.701979961246252">
        <ele>-8.029999999999999</ele>
        <time>2023-09-01T13:12:20Z</time>
      </trkpt>
      <trkpt lat="56.28424996510148" lon="-4.702917980030179">
        <ele>-3.71</ele>
        <time>2023-09-01T13:12:29Z</time>
      </trkpt>
      <trkpt lat="56.284868968650699" lon="-4.70410100184381">
        <ele>-2.27</ele>
        <time>2023-09-01T13:12:36Z</time>
      </trkpt>
      <trkpt lat="56.284962007775903" lon="-4.704175014048815">
        <ele>-2.27</ele>
        <time>2023-09-01T13:12:37Z</time>
      </trkpt>
      <trkpt lat="56.285084970295429" lon="-4.70427299849689">
        <ele>-1.79</ele>
        <time>2023-09-01T13:12:38Z</time>
      </trkpt>
      <trkpt lat="56.285203993320465" lon="-4.70431499183178">
        <ele>-1.79</ele>
        <time>2023-09-01T13:12:39Z</time>
      </trkpt>
      <trkpt lat="56.285316981375217" lon="-4.704355979338288">
        <ele>-2.27</ele>
        <time>2023-09-01T13:12:40Z</time>
      </trkpt>
      <trkpt lat="56.285534994676709" lon="-4.704433009028435">
        <ele>-1.79</ele>
        <time>2023-09-01T13:12:42Z</time>
      </trkpt>
      <trkpt lat="56.285633984953165" lon="-4.70446796156466">
        <ele>-1.79</ele>
        <time>2023-09-01T13:12:43Z</time>
      </trkpt>
      <trkpt lat="56.28575200214982" lon="-4.704511966556311">
        <ele>-0.34</ele>
        <time>2023-09-01T13:12:44Z</time>
      </trkpt>
      <trkpt lat="56.285832971334457" lon="-4.704620009288192">
        <ele>0.14</ele>
        <time>2023-09-01T13:12:45Z</time>
      </trkpt>
      <trkpt lat="56.285904971882701" lon="-4.704716987907887">
        <ele>0.62</ele>
        <time>2023-09-01T13:12:46Z</time>
      </trkpt>
      <trkpt lat="56.286019971594214" lon="-4.704936007037759">
        <ele>0.62</ele>
        <time>2023-09-01T13:12:47Z</time>
      </trkpt>
      <trkpt lat="56.286046961322427" lon="-4.705106997862458">
        <ele>1.58</ele>
        <time>2023-09-01T13:12:48Z</time>
      </trkpt>
      <trkpt lat="56.286064982414246" lon="-4.705365998670459">
        <ele>2.54</ele>
        <time>2023-09-01T13:12:49Z</time>
      </trkpt>
      <trkpt lat="56.286054002121091" lon="-4.705545958131552">
        <ele>3.98</ele>
        <time>2023-09-01T13:12:50Z</time>
      </trkpt>
      <trkpt lat="56.286042015999556" lon="-4.70573497004807">
        <ele>4.94</ele>
        <time>2023-09-01T13:12:51Z</time>
      </trkpt>
      <trkpt lat="56.286028018221259" lon="-4.705967986956239">
        <ele>5.91</ele>
        <time>2023-09-01T13:12:52Z</time>
      </trkpt>
      <trkpt lat="56.28603296354413" lon="-4.706106958910823">
        <ele>6.39</ele>
        <time>2023-09-01T13:12:53Z</time>
      </trkpt>
      <trkpt lat="56.286041010171175" lon="-4.706294964998961">
        <ele>6.39</ele>
        <time>2023-09-01T13:12:54Z</time>
      </trkpt>
      <trkpt lat="56.286049978807569" lon="-4.706525970250368">
        <ele>7.35</ele>
        <time>2023-09-01T13:12:55Z</time>
      </trkpt>
      <trkpt lat="56.286128014326096" lon="-4.70667902380228">
        <ele>7.35</ele>
        <time>2023-09-01T13:12:56Z</time>
      </trkpt>
      <trkpt lat="56.286237984895706" lon="-4.706896031275392">
        <ele>7.83</ele>
        <time>2023-09-01T13:12:57Z</time>
      </trkpt>
      <trkpt lat="56.286364970728755" lon="-4.707143967971206">
        <ele>7.83</ele>
        <time>2023-09-01T13:12:58Z</time>
      </trkpt>
      <trkpt lat="56.287135016173124" lon="-4.708560006693006">
        <ele>9.27</ele>
        <time>2023-09-01T13:13:05Z</time>
      </trkpt>
      <trkpt lat="56.287302989512682" lon="-4.708880027756095">
        <ele>9.27</ele>
        <time>2023-09-01T13:13:07Z</time>
      </trkpt>
      <trkpt lat="56.287670033052564" lon="-4.70958000048995">
        <ele>10.23</ele>
        <time>2023-09-01T13:13:12Z</time>
      </trkpt>
      <trkpt lat="56.287742033600807" lon="-4.709716960787773">
        <ele>10.710000000000001</ele>
        <time>2023-09-01T13:13:13Z</time>
      </trkpt>
      <trkpt lat="56.288037998601794" lon="-4.710281984880567">
        <ele>11.67</ele>
        <time>2023-09-01T13:13:17Z</time>
      </trkpt>
      <trkpt lat="56.288117039948702" lon="-4.710432020947337">
        <ele>11.67</ele>
        <time>2023-09-01T13:13:18Z</time>
      </trkpt>
      <trkpt lat="56.288211001083255" lon="-4.71058901399374">
        <ele>12.15</ele>
        <time>2023-09-01T13:13:19Z</time>
      </trkpt>
      <trkpt lat="56.288338992744684" lon="-4.710652967914939">
        <ele>12.15</ele>
        <time>2023-09-01T13:13:20Z</time>
      </trkpt>
      <trkpt lat="56.288492968305945" lon="-4.710729997605085">
        <ele>11.67</ele>
        <time>2023-09-01T13:13:21Z</time>
      </trkpt>
      <trkpt lat="56.288662031292915" lon="-4.710813984274864">
        <ele>11.67</ele>
        <time>2023-09-01T13:13:22Z</time>
      </trkpt>
      <trkpt lat="56.289571970701218" lon="-4.710897970944643">
        <ele>10.710000000000001</ele>
        <time>2023-09-01T13:13:28Z</time>
      </trkpt>
      <trkpt lat="56.290739988908172" lon="-4.711080025881529">
        <ele>7.83</ele>
        <time>2023-09-01T13:13:36Z</time>
      </trkpt>
      <trkpt lat="56.292201960459352" lon="-4.711346989497542">
        <ele>5.91</ele>
        <time>2023-09-01T13:13:45Z</time>
      </trkpt>
      <trkpt lat="56.293856967240572" lon="-4.711638009175658">
        <ele>8.789999999999999</ele>
        <time>2023-09-01T13:13:55Z</time>
      </trkpt>
      <trkpt lat="56.295250039547682" lon="-4.712771996855736">
        <ele>16.960000000000001</ele>
        <time>2023-09-01T13:14:04Z</time>
      </trkpt>
      <trkpt lat="56.296512018889189" lon="-4.714332036674023">
        <ele>22.25</ele>
        <time>2023-09-01T13:14:13Z</time>
      </trkpt>
      <trkpt lat="56.29765497520566" lon="-4.716101037338376">
        <ele>24.170000000000002</ele>
        <time>2023-09-01T13:14:22Z</time>
      </trkpt>
      <trkpt lat="56.298848977312446" lon="-4.717947989702225">
        <ele>21.289999999999999</ele>
        <time>2023-09-01T13:14:31Z</time>
      </trkpt>
      <trkpt lat="56.299828989431262" lon="-4.719058005139232">
        <ele>19.359999999999999</ele>
        <time>2023-09-01T13:14:39Z</time>
      </trkpt>
      <trkpt lat="56.299896966665983" lon="-4.719134029000998">
        <ele>19.359999999999999</ele>
        <time>2023-09-01T13:14:40Z</time>
      </trkpt>
      <trkpt lat="56.299950024113059" lon="-4.719193037599325">
        <ele>19.359999999999999</ele>
        <time>2023-09-01T13:14:41Z</time>
      </trkpt>
      <trkpt lat="56.300010038539767" lon="-4.719260009005666">
        <ele>19.359999999999999</ele>
        <time>2023-09-01T13:14:42Z</time>
      </trkpt>
      <trkpt lat="56.300065023824573" lon="-4.719322035089135">
        <ele>18.879999999999999</ele>
        <time>2023-09-01T13:14:43Z</time>
      </trkpt>
      <trkpt lat="56.300114979967475" lon="-4.719377020373941">
        <ele>18.879999999999999</ele>
        <time>2023-09-01T13:14:44Z</time>
      </trkpt>
      <trkpt lat="56.300159990787506" lon="-4.719427982345223">
        <ele>18.879999999999999</ele>
        <time>2023-09-01T13:14:45Z</time>
      </trkpt>
      <trkpt lat="56.30051001906395" lon="-4.719817992299795">
        <ele>19.359999999999999</ele>
        <time>2023-09-01T13:14:50Z</time>
      </trkpt>
      <trkpt lat="56.301319962367415" lon="-4.720702031627297">
        <ele>16.48</ele>
        <time>2023-09-01T13:14:58Z</time>
      </trkpt>
      <trkpt lat="56.301650041714311" lon="-4.721017023548484">
        <ele>15.52</ele>
        <time>2023-09-01T13:15:01Z</time>
      </trkpt>
      <trkpt lat="56.301769986748695" lon="-4.721097992733121">
        <ele>15.039999999999999</ele>
        <time>2023-09-01T13:15:02Z</time>
      </trkpt>
      <trkpt lat="56.301895966753364" lon="-4.721135040745139">
        <ele>15.039999999999999</ele>
        <time>2023-09-01T13:15:03Z</time>
      </trkpt>
      <trkpt lat="56.302008032798767" lon="-4.721154989674687">
        <ele>15.039999999999999</ele>
        <time>2023-09-01T13:15:04Z</time>
      </trkpt>
      <trkpt lat="56.302116997539997" lon="-4.721175022423267">
        <ele>15.039999999999999</ele>
        <time>2023-09-01T13:15:05Z</time>
      </trkpt>
      <trkpt lat="56.302224034443498" lon="-4.721193965524435">
        <ele>14.56</ele>
        <time>2023-09-01T13:15:06Z</time>
      </trkpt>
      <trkpt lat="56.302335010841489" lon="-4.721201006323099">
        <ele>14.56</ele>
        <time>2023-09-01T13:15:07Z</time>
      </trkpt>
      <trkpt lat="56.302554029971361" lon="-4.721194971352816">
        <ele>14.08</ele>
        <time>2023-09-01T13:15:09Z</time>
      </trkpt>
      <trkpt lat="56.303048981353641" lon="-4.721170999109745">
        <ele>13.6</ele>
        <time>2023-09-01T13:15:13Z</time>
      </trkpt>
      <trkpt lat="56.304040979593992" lon="-4.720931025221944">
        <ele>12.630000000000001</ele>
        <time>2023-09-01T13:15:21Z</time>
      </trkpt>
      <trkpt lat="56.304165031760931" lon="-4.720942005515099">
        <ele>12.630000000000001</ele>
        <time>2023-09-01T13:15:22Z</time>
      </trkpt>
      <trkpt lat="56.304291011765599" lon="-4.720980981364846">
        <ele>13.119999999999999</ele>
        <time>2023-09-01T13:15:23Z</time>
      </trkpt>
      <trkpt lat="56.304412968456745" lon="-4.72103102132678">
        <ele>13.119999999999999</ele>
        <time>2023-09-01T13:15:24Z</time>
      </trkpt>
      <trkpt lat="56.304538026452065" lon="-4.721082989126444">
        <ele>13.119999999999999</ele>
        <time>2023-09-01T13:15:25Z</time>
      </trkpt>
      <trkpt lat="56.304671969264746" lon="-4.721136968582869">
        <ele>13.6</ele>
        <time>2023-09-01T13:15:26Z</time>
      </trkpt>
      <trkpt lat="56.304812030866742" lon="-4.721210980787873">
        <ele>13.6</ele>
        <time>2023-09-01T13:15:27Z</time>
      </trkpt>
      <trkpt lat="56.306052971631289" lon="-4.721862003207207">
        <ele>17.920000000000002</ele>
        <time>2023-09-01T13:15:35Z</time>
      </trkpt>
      <trkpt lat="56.30661397241056" lon="-4.722162997350097">
        <ele>18.879999999999999</ele>
        <time>2023-09-01T13:15:39Z</time>
      </trkpt>
      <trkpt lat="56.306741964071989" lon="-4.722301969304681">
        <ele>19.359999999999999</ele>
        <time>2023-09-01T13:15:40Z</time>
      </trkpt>
      <trkpt lat="56.307284021750093" lon="-4.722887026146054">
        <ele>19.84</ele>
        <time>2023-09-01T13:15:44Z</time>
      </trkpt>
      <trkpt lat="56.307435985654593" lon="-4.723023986443877">
        <ele>19.84</ele>
        <time>2023-09-01T13:15:45Z</time>
      </trkpt>
      <trkpt lat="56.308439970016479" lon="-4.723695041611791">
        <ele>19.84</ele>
        <time>2023-09-01T13:15:50Z</time>
      </trkpt>
      <trkpt lat="56.309256032109261" lon="-4.724262999370694">
        <ele>20.809999999999999</ele>
        <time>2023-09-01T13:15:55Z</time>
      </trkpt>
      <trkpt lat="56.310580037534237" lon="-4.725044025108218">
        <ele>22.25</ele>
        <time>2023-09-01T13:16:03Z</time>
      </trkpt>
      <trkpt lat="56.312209982424974" lon="-4.725809041410685">
        <ele>23.690000000000001</ele>
        <time>2023-09-01T13:16:11Z</time>
      </trkpt>
      <trkpt lat="56.313275992870331" lon="-4.726255964487791">
        <ele>25.129999999999999</ele>
        <time>2023-09-01T13:16:17Z</time>
      </trkpt>
      <trkpt lat="56.313461987301707" lon="-4.726241966709495">
        <ele>25.609999999999999</ele>
        <time>2023-09-01T13:16:18Z</time>
      </trkpt>
      <trkpt lat="56.313655022531748" lon="-4.726211959496141">
        <ele>25.129999999999999</ele>
        <time>2023-09-01T13:16:19Z</time>
      </trkpt>
      <trkpt lat="56.315354034304619" lon="-4.725942984223366">
        <ele>21.77</ele>
        <time>2023-09-01T13:16:28Z</time>
      </trkpt>
      <trkpt lat="56.317376000806689" lon="-4.725601002573967">
        <ele>18.879999999999999</ele>
        <time>2023-09-01T13:16:39Z</time>
      </trkpt>
      <trkpt lat="56.318766977638006" lon="-4.724719980731607">
        <ele>18.399999999999999</ele>
        <time>2023-09-01T13:16:47Z</time>
      </trkpt>
      <trkpt lat="56.319582033902407" lon="-4.72404096275568">
        <ele>17.920000000000002</ele>
        <time>2023-09-01T13:16:52Z</time>
      </trkpt>
      <trkpt lat="56.319747995585203" lon="-4.723896039649844">
        <ele>17.920000000000002</ele>
        <time>2023-09-01T13:16:53Z</time>
      </trkpt>
      <trkpt lat="56.319918986409903" lon="-4.723839964717627">
        <ele>17.920000000000002</ele>
        <time>2023-09-01T13:16:54Z</time>
      </trkpt>
      <trkpt lat="56.320100035518408" lon="-4.723787996917963">
        <ele>17.920000000000002</ele>
        <time>2023-09-01T13:16:55Z</time>
      </trkpt>
      <trkpt lat="56.320276977494359" lon="-4.723738040775061">
        <ele>17.920000000000002</ele>
        <time>2023-09-01T13:16:56Z</time>
      </trkpt>
      <trkpt lat="56.322453003376722" lon="-4.723247028887272">
        <ele>18.399999999999999</ele>
        <time>2023-09-01T13:17:08Z</time>
      </trkpt>
      <trkpt lat="56.322636986151338" lon="-4.723221966996789">
        <ele>18.399999999999999</ele>
        <time>2023-09-01T13:17:09Z</time>
      </trkpt>
      <trkpt lat="56.322814011946321" lon="-4.723234958946705">
        <ele>17.920000000000002</ele>
        <time>2023-09-01T13:17:10Z</time>
      </trkpt>
      <trkpt lat="56.322992965579033" lon="-4.723249040544033">
        <ele>16.960000000000001</ele>
        <time>2023-09-01T13:17:11Z</time>
      </trkpt>
      <trkpt lat="56.323170997202396" lon="-4.72326303832233">
        <ele>16.48</ele>
        <time>2023-09-01T13:17:12Z</time>
      </trkpt>
      <trkpt lat="56.323323966935277" lon="-4.723230013623834">
        <ele>16</ele>
        <time>2023-09-01T13:17:13Z</time>
      </trkpt>
      <trkpt lat="56.323481965810061" lon="-4.723188020288944">
        <ele>15.52</ele>
        <time>2023-09-01T13:17:14Z</time>
      </trkpt>
      <trkpt lat="56.323619009926915" lon="-4.723048964515328">
        <ele>15.039999999999999</ele>
        <time>2023-09-01T13:17:15Z</time>
      </trkpt>
      <trkpt lat="56.323765022680163" lon="-4.722902029752731">
        <ele>14.56</ele>
        <time>2023-09-01T13:17:16Z</time>
      </trkpt>
      <trkpt lat="56.323916986584663" lon="-4.722747970372438">
        <ele>14.08</ele>
        <time>2023-09-01T13:17:17Z</time>
      </trkpt>
      <trkpt lat="56.324064005166292" lon="-4.72259902395308">
        <ele>13.6</ele>
        <time>2023-09-01T13:17:18Z</time>
      </trkpt>
      <trkpt lat="56.324514029547572" lon="-4.722142964601517">
        <ele>12.15</ele>
        <time>2023-09-01T13:17:21Z</time>
      </trkpt>
      <trkpt lat="56.324666999280453" lon="-4.721987983211875">
        <ele>12.15</ele>
        <time>2023-09-01T13:17:22Z</time>
      </trkpt>
      <trkpt lat="56.32481100037694" lon="-4.721842976287007">
        <ele>12.15</ele>
        <time>2023-09-01T13:17:23Z</time>
      </trkpt>
      <trkpt lat="56.32493999786675" lon="-4.721711967140436">
        <ele>11.67</ele>
        <time>2023-09-01T13:17:24Z</time>
      </trkpt>
      <trkpt lat="56.325058015063405" lon="-4.721593027934432">
        <ele>11.67</ele>
        <time>2023-09-01T13:17:25Z</time>
      </trkpt>
      <trkpt lat="56.325168991461396" lon="-4.72148003987968">
        <ele>11.67</ele>
        <time>2023-09-01T13:17:26Z</time>
      </trkpt>
      <trkpt lat="56.32528399117291" lon="-4.721468975767493">
        <ele>11.19</ele>
        <time>2023-09-01T13:17:27Z</time>
      </trkpt>
      <trkpt lat="56.325420029461384" lon="-4.721480961889029">
        <ele>11.19</ele>
        <time>2023-09-01T13:17:28Z</time>
      </trkpt>
      <trkpt lat="56.32666097022593" lon="-4.72169604152441">
        <ele>9.27</ele>
        <time>2023-09-01T13:17:35Z</time>
      </trkpt>
      <trkpt lat="56.327034970745444" lon="-4.721771981567144">
        <ele>8.789999999999999</ele>
        <time>2023-09-01T13:17:37Z</time>
      </trkpt>
      <trkpt lat="56.328646978363395" lon="-4.722093008458614">
        <ele>6.39</ele>
        <time>2023-09-01T13:17:46Z</time>
      </trkpt>
      <trkpt lat="56.330006020143628" lon="-4.72221395932138">
        <ele>4.94</ele>
        <time>2023-09-01T13:17:53Z</time>
      </trkpt>
      <trkpt lat="56.330196959897876" lon="-4.722199039533734">
        <ele>4.94</ele>
        <time>2023-09-01T13:17:54Z</time>
      </trkpt>
      <trkpt lat="56.330387983471155" lon="-4.722142964601517">
        <ele>4.94</ele>
        <time>2023-09-01T13:17:55Z</time>
      </trkpt>
      <trkpt lat="56.330566015094519" lon="-4.722026959061623">
        <ele>4.94</ele>
        <time>2023-09-01T13:17:56Z</time>
      </trkpt>
      <trkpt lat="56.330747986212373" lon="-4.721908019855619">
        <ele>4.94</ele>
        <time>2023-09-01T13:17:57Z</time>
      </trkpt>
      <trkpt lat="56.330927023664117" lon="-4.721767958253622">
        <ele>5.42</ele>
        <time>2023-09-01T13:17:58Z</time>
      </trkpt>
      <trkpt lat="56.33188096806407" lon="-4.720820970833302">
        <ele>4.94</ele>
        <time>2023-09-01T13:18:04Z</time>
      </trkpt>
      <trkpt lat="56.332060005515814" lon="-4.720718963071704">
        <ele>4.94</ele>
        <time>2023-09-01T13:18:05Z</time>
      </trkpt>
      <trkpt lat="56.332239964976907" lon="-4.720616033300757">
        <ele>4.94</ele>
        <time>2023-09-01T13:18:06Z</time>
      </trkpt>
      <trkpt lat="56.332412967458367" lon="-4.720529029145837">
        <ele>4.46</ele>
        <time>2023-09-01T13:18:07Z</time>
      </trkpt>
      <trkpt lat="56.332606002688408" lon="-4.720481000840664">
        <ele>4.46</ele>
        <time>2023-09-01T13:18:08Z</time>
      </trkpt>
      <trkpt lat="56.332796020433307" lon="-4.720461973920465">
        <ele>3.98</ele>
        <time>2023-09-01T13:18:09Z</time>
      </trkpt>
      <trkpt lat="56.33299701847136" lon="-4.720448981970549">
        <ele>3.98</ele>
        <time>2023-09-01T13:18:10Z</time>
      </trkpt>
      <trkpt lat="56.333202039822936" lon="-4.720433978363872">
        <ele>3.98</ele>
        <time>2023-09-01T13:18:11Z</time>
      </trkpt>
      <trkpt lat="56.334526967257261" lon="-4.720575967803598">
        <ele>3.98</ele>
        <time>2023-09-01T13:18:18Z</time>
      </trkpt>
      <trkpt lat="56.335827000439167" lon="-4.720642017200589">
        <ele>5.42</ele>
        <time>2023-09-01T13:18:25Z</time>
      </trkpt>
      <trkpt lat="56.337706977501512" lon="-4.720491981133819">
        <ele>7.35</ele>
        <time>2023-09-01T13:18:34Z</time>
      </trkpt>
      <trkpt lat="56.339458962902427" lon="-4.720672024413943">
        <ele>12.630000000000001</ele>
        <time>2023-09-01T13:18:43Z</time>
      </trkpt>
      <trkpt lat="56.339660966768861" lon="-4.720609998330474">
        <ele>13.119999999999999</ele>
        <time>2023-09-01T13:18:44Z</time>
      </trkpt>
      <trkpt lat="56.341025959700346" lon="-4.719585981220007">
        <ele>18.399999999999999</ele>
        <time>2023-09-01T13:18:51Z</time>
      </trkpt>
      <trkpt lat="56.342199007049203" lon="-4.718135995790362">
        <ele>22.25</ele>
        <time>2023-09-01T13:18:58Z</time>
      </trkpt>
      <trkpt lat="56.343354033306241" lon="-4.716288037598133">
        <ele>26.09</ele>
        <time>2023-09-01T13:19:06Z</time>
      </trkpt>
      <trkpt lat="56.343462998047471" lon="-4.716002969071269">
        <ele>26.57</ele>
        <time>2023-09-01T13:19:07Z</time>
      </trkpt>
      <trkpt lat="56.343743037432432" lon="-4.715109961107373">
        <ele>28.02</ele>
        <time>2023-09-01T13:19:10Z</time>
      </trkpt>
      <trkpt lat="56.344231031835079" lon="-4.712390033528209">
        <ele>33.299999999999997</ele>
        <time>2023-09-01T13:19:18Z</time>
      </trkpt>
      <trkpt lat="56.344744004309177" lon="-4.709044983610511">
        <ele>43.880000000000003</ele>
        <time>2023-09-01T13:19:27Z</time>
      </trkpt>
      <trkpt lat="56.345391003414989" lon="-4.705501031130552">
        <ele>56.859999999999999</ele>
        <time>2023-09-01T13:19:37Z</time>
      </trkpt>
      <trkpt lat="56.345900958403945" lon="-4.704289007931948">
        <ele>60.219999999999999</ele>
        <time>2023-09-01T13:19:41Z</time>
      </trkpt>
      <trkpt lat="56.346069015562534" lon="-4.704050039872527">
        <ele>61.18</ele>
        <time>2023-09-01T13:19:42Z</time>
      </trkpt>
      <trkpt lat="56.347150029614568" lon="-4.70274799503386">
        <ele>64.549999999999997</ele>
        <time>2023-09-01T13:19:48Z</time>
      </trkpt>
      <trkpt lat="56.348861027508974" lon="-4.700208026915789">
        <ele>69.829999999999998</ele>
        <time>2023-09-01T13:19:58Z</time>
      </trkpt>
      <trkpt lat="56.349897030740976" lon="-4.697462031617761">
        <ele>78</ele>
        <time>2023-09-01T13:20:07Z</time>
      </trkpt>
      <trkpt lat="56.350416960194707" lon="-4.694385034963489">
        <ele>87.140000000000001</ele>
        <time>2023-09-01T13:20:16Z</time>
      </trkpt>
      <trkpt lat="56.350843012332916" lon="-4.691251963376999">
        <ele>96.75</ele>
        <time>2023-09-01T13:20:25Z</time>
      </trkpt>
      <trkpt lat="56.351215001195669" lon="-4.690019991248846">
        <ele>100.59999999999999</ele>
        <time>2023-09-01T13:20:29Z</time>
      </trkpt>
      <trkpt lat="56.351595958694816" lon="-4.689240977168083">
        <ele>103.95999999999999</ele>
        <time>2023-09-01T13:20:32Z</time>
      </trkpt>
      <trkpt lat="56.352214962244034" lon="-4.688284015282989">
        <ele>107.81</ele>
        <time>2023-09-01T13:20:36Z</time>
      </trkpt>
      <trkpt lat="56.352378996089101" lon="-4.688098020851612">
        <ele>108.29000000000001</ele>
        <time>2023-09-01T13:20:37Z</time>
      </trkpt>
      <trkpt lat="56.35400902479887" lon="-4.686603024601936">
        <ele>112.13</ele>
        <time>2023-09-01T13:20:45Z</time>
      </trkpt>
      <trkpt lat="56.355288019403815" lon="-4.684732016175985">
        <ele>114.53</ele>
        <time>2023-09-01T13:20:52Z</time>
      </trkpt>
      <trkpt lat="56.356720989570022" lon="-4.682106971740723">
        <ele>115.5</ele>
        <time>2023-09-01T13:21:01Z</time>
      </trkpt>
      <trkpt lat="56.357669988647103" lon="-4.679982997477055">
        <ele>118.38</ele>
        <time>2023-09-01T13:21:08Z</time>
      </trkpt>
      <trkpt lat="56.358009036630392" lon="-4.679481005296111">
        <ele>119.34</ele>
        <time>2023-09-01T13:21:10Z</time>
      </trkpt>
      <trkpt lat="56.359486011788249" lon="-4.67758703045547">
        <ele>123.19</ele>
        <time>2023-09-01T13:21:18Z</time>
      </trkpt>
      <trkpt lat="56.359957996755838" lon="-4.67670600861311">
        <ele>124.15000000000001</ele>
        <time>2023-09-01T13:21:21Z</time>
      </trkpt>
      <trkpt lat="56.360597033053637" lon="-4.674769034609199">
        <ele>126.55</ele>
        <time>2023-09-01T13:21:27Z</time>
      </trkpt>
      <trkpt lat="56.361272027716041" lon="-4.6714430116117">
        <ele>132.31999999999999</ele>
        <time>2023-09-01T13:21:36Z</time>
      </trkpt>
      <trkpt lat="56.361907040700316" lon="-4.668502975255251">
        <ele>140.97</ele>
        <time>2023-09-01T13:21:44Z</time>
      </trkpt>
      <trkpt lat="56.362651018425822" lon="-4.66701895929873">
        <ele>146.25999999999999</ele>
        <time>2023-09-01T13:21:49Z</time>
      </trkpt>
      <trkpt lat="56.362815974280238" lon="-4.666788037866354">
        <ele>147.22</ele>
        <time>2023-09-01T13:21:50Z</time>
      </trkpt>
      <trkpt lat="56.363004986196756" lon="-4.666556026786566">
        <ele>148.66</ele>
        <time>2023-09-01T13:21:51Z</time>
      </trkpt>
      <trkpt lat="56.363196009770036" lon="-4.666357040405273">
        <ele>149.62</ele>
        <time>2023-09-01T13:21:52Z</time>
      </trkpt>
      <trkpt lat="56.363403964787722" lon="-4.666157970204949">
        <ele>150.09999999999999</ele>
        <time>2023-09-01T13:21:53Z</time>
      </trkpt>
      <trkpt lat="56.3636140152812" lon="-4.665978010743856">
        <ele>151.06</ele>
        <time>2023-09-01T13:21:54Z</time>
      </trkpt>
      <trkpt lat="56.363832028582692" lon="-4.665845995768905">
        <ele>152.03</ele>
        <time>2023-09-01T13:21:55Z</time>
      </trkpt>
      <trkpt lat="56.36509601958096" lon="-4.664861960336566">
        <ele>156.34999999999999</ele>
        <time>2023-09-01T13:22:01Z</time>
      </trkpt>
      <trkpt lat="56.366932997480035" lon="-4.662628015503287">
        <ele>159.24000000000001</ele>
        <time>2023-09-01T13:22:11Z</time>
      </trkpt>
      <trkpt lat="56.368485996499658" lon="-4.660604037344456">
        <ele>165</ele>
        <time>2023-09-01T13:22:20Z</time>
      </trkpt>
      <trkpt lat="56.370759001001716" lon="-4.657145999372006">
        <ele>175.09999999999999</ele>
        <time>2023-09-01T13:22:33Z</time>
      </trkpt>
      <trkpt lat="56.372421970590949" lon="-4.65440696105361">
        <ele>179.90000000000001</ele>
        <time>2023-09-01T13:22:43Z</time>
      </trkpt>
      <trkpt lat="56.373716974630952" lon="-4.652230013161898">
        <ele>183.27000000000001</ele>
        <time>2023-09-01T13:22:51Z</time>
      </trkpt>
      <trkpt lat="56.375444987788796" lon="-4.649324007332325">
        <ele>187.11000000000001</ele>
        <time>2023-09-01T13:23:02Z</time>
      </trkpt>
      <trkpt lat="56.37667897157371" lon="-4.647249989211559">
        <ele>189.03999999999999</ele>
        <time>2023-09-01T13:23:10Z</time>
      </trkpt>
      <trkpt lat="56.377866016700864" lon="-4.645254006609321">
        <ele>190</ele>
        <time>2023-09-01T13:23:17Z</time>
      </trkpt>
      <trkpt lat="56.379852024838328" lon="-4.641893031075597">
        <ele>189.52000000000001</ele>
        <time>2023-09-01T13:23:29Z</time>
      </trkpt>
      <trkpt lat="56.381320031359792" lon="-4.638855010271072">
        <ele>187.59</ele>
        <time>2023-09-01T13:23:39Z</time>
      </trkpt>
      <trkpt lat="56.381788998842239" lon="-4.636556021869183">
        <ele>187.11000000000001</ele>
        <time>2023-09-01T13:23:45Z</time>
      </trkpt>
      <trkpt lat="56.382227037101984" lon="-4.632732030004263">
        <ele>192.40000000000001</ele>
        <time>2023-09-01T13:23:55Z</time>
      </trkpt>
      <trkpt lat="56.383041003718972" lon="-4.628547029569745">
        <ele>197.69</ele>
        <time>2023-09-01T13:24:06Z</time>
      </trkpt>
      <trkpt lat="56.383880032226443" lon="-4.625360984355211">
        <ele>200.56999999999999</ele>
        <time>2023-09-01T13:24:15Z</time>
      </trkpt>
      <trkpt lat="56.384929027408361" lon="-4.623354021459818">
        <ele>200.56999999999999</ele>
        <time>2023-09-01T13:24:22Z</time>
      </trkpt>
      <trkpt lat="56.385983973741531" lon="-4.621707983314991">
        <ele>198.16999999999999</ele>
        <time>2023-09-01T13:24:30Z</time>
      </trkpt>
      <trkpt lat="56.386877987533808" lon="-4.62065395899117">
        <ele>195.77000000000001</ele>
        <time>2023-09-01T13:24:37Z</time>
      </trkpt>
      <trkpt lat="56.387047972530127" lon="-4.620530996471643">
        <ele>195.28</ele>
        <time>2023-09-01T13:24:39Z</time>
      </trkpt>
      <trkpt lat="56.38711896724999" lon="-4.620513981208205">
        <ele>195.28</ele>
        <time>2023-09-01T13:24:40Z</time>
      </trkpt>
      <trkpt lat="56.387175964191556" lon="-4.620539965108037">
        <ele>194.80000000000001</ele>
        <time>2023-09-01T13:24:41Z</time>
      </trkpt>
      <trkpt lat="56.387232039123774" lon="-4.62056502699852">
        <ele>194.80000000000001</ele>
        <time>2023-09-01T13:24:42Z</time>
      </trkpt>
      <trkpt lat="56.387285012751818" lon="-4.620588999241591">
        <ele>194.80000000000001</ele>
        <time>2023-09-01T13:24:43Z</time>
      </trkpt>
      <trkpt lat="56.387347960844636" lon="-4.620627975091338">
        <ele>194.80000000000001</ele>
        <time>2023-09-01T13:24:44Z</time>
      </trkpt>
      <trkpt lat="56.387405963614583" lon="-4.620684972032905">
        <ele>194.31999999999999</ele>
        <time>2023-09-01T13:24:45Z</time>
      </trkpt>
      <trkpt lat="56.387479975819588" lon="-4.62075999006629">
        <ele>194.31999999999999</ele>
        <time>2023-09-01T13:24:46Z</time>
      </trkpt>
      <trkpt lat="56.387542001903057" lon="-4.620705004781485">
        <ele>193.84</ele>
        <time>2023-09-01T13:24:47Z</time>
      </trkpt>
      <trkpt lat="56.387602016329765" lon="-4.620653036981821">
        <ele>193.84</ele>
        <time>2023-09-01T13:24:48Z</time>
      </trkpt>
      <trkpt lat="56.387651972472668" lon="-4.620499983429909">
        <ele>193.36000000000001</ele>
        <time>2023-09-01T13:24:49Z</time>
      </trkpt>
      <trkpt lat="56.387651972472668" lon="-4.620380960404873">
        <ele>193.36000000000001</ele>
        <time>2023-09-01T13:24:50Z</time>
      </trkpt>
      <trkpt lat="56.387651972472668" lon="-4.620265960693359">
        <ele>192.88</ele>
        <time>2023-09-01T13:24:51Z</time>
      </trkpt>
      <trkpt lat="56.387651972472668" lon="-4.620265960693359">
        <ele>192.88</ele>
        <time>2023-09-01T13:24:52Z</time>
      </trkpt>
      <trkpt lat="56.387592041864991" lon="-4.62000603787601">
        <ele>192.40000000000001</ele>
        <time>2023-09-01T13:24:53Z</time>
      </trkpt>
      <trkpt lat="56.387610984966159" lon="-4.619912998750806">
        <ele>191.91999999999999</ele>
        <time>2023-09-01T13:24:54Z</time>
      </trkpt>
      <trkpt lat="56.387630011886358" lon="-4.619815014302731">
        <ele>191.91999999999999</ele>
        <time>2023-09-01T13:24:55Z</time>
      </trkpt>
      <trkpt lat="56.387664964422584" lon="-4.619724992662668">
        <ele>191.44</ele>
        <time>2023-09-01T13:24:56Z</time>
      </trkpt>
      <trkpt lat="56.387702012434602" lon="-4.619629019871354">
        <ele>191.44</ele>
        <time>2023-09-01T13:24:57Z</time>
      </trkpt>
      <trkpt lat="56.387737970799208" lon="-4.61953598074615">
        <ele>190.96000000000001</ele>
        <time>2023-09-01T13:24:58Z</time>
      </trkpt>
      <trkpt lat="56.387799996882677" lon="-4.619474960491061">
        <ele>190.96000000000001</ele>
        <time>2023-09-01T13:24:59Z</time>
      </trkpt>
      <trkpt lat="56.387871997430921" lon="-4.619417963549495">
        <ele>190.47999999999999</ele>
        <time>2023-09-01T13:25:00Z</time>
      </trkpt>
      <trkpt lat="56.387951960787177" lon="-4.619387034326792">
        <ele>190.47999999999999</ele>
        <time>2023-09-01T13:25:01Z</time>
      </trkpt>
      <trkpt lat="56.388396034017205" lon="-4.619213026016951">
        <ele>189.03999999999999</ele>
        <time>2023-09-01T13:25:06Z</time>
      </trkpt>
      <trkpt lat="56.388484966009855" lon="-4.619177989661694">
        <ele>189.03999999999999</ele>
        <time>2023-09-01T13:25:07Z</time>
      </trkpt>
      <trkpt lat="56.388571970164776" lon="-4.619143959134817">
        <ele>189.03999999999999</ele>
        <time>2023-09-01T13:25:08Z</time>
      </trkpt>
      <trkpt lat="56.389300022274256" lon="-4.618987971916795">
        <ele>189.03999999999999</ele>
        <time>2023-09-01T13:25:16Z</time>
      </trkpt>
      <trkpt lat="56.389394989237189" lon="-4.619015967473388">
        <ele>189.03999999999999</ele>
        <time>2023-09-01T13:25:17Z</time>
      </trkpt>
      <trkpt lat="56.389489034190774" lon="-4.619044968858361">
        <ele>189.03999999999999</ele>
        <time>2023-09-01T13:25:18Z</time>
      </trkpt>
      <trkpt lat="56.389776030555367" lon="-4.619130967184901">
        <ele>189.03999999999999</ele>
        <time>2023-09-01T13:25:21Z</time>
      </trkpt>
      <trkpt lat="56.389979040250182" lon="-4.619145970791578">
        <ele>188.56</ele>
        <time>2023-09-01T13:25:23Z</time>
      </trkpt>
      <trkpt lat="56.39029897749424" lon="-4.619137002155185">
        <ele>187.59</ele>
        <time>2023-09-01T13:25:26Z</time>
      </trkpt>
      <trkpt lat="56.390536017715931" lon="-4.619130967184901">
        <ele>187.11000000000001</ele>
        <time>2023-09-01T13:25:28Z</time>
      </trkpt>
      <trkpt lat="56.390654034912586" lon="-4.61908302269876">
        <ele>186.15000000000001</ele>
        <time>2023-09-01T13:25:29Z</time>
      </trkpt>
      <trkpt lat="56.390768028795719" lon="-4.619000041857362">
        <ele>186.15000000000001</ele>
        <time>2023-09-01T13:25:30Z</time>
      </trkpt>
      <trkpt lat="56.39087900519371" lon="-4.618917983025312">
        <ele>185.66999999999999</ele>
        <time>2023-09-01T13:25:31Z</time>
      </trkpt>
      <trkpt lat="56.390983024612069" lon="-4.618841959163547">
        <ele>185.19</ele>
        <time>2023-09-01T13:25:32Z</time>
      </trkpt>
      <trkpt lat="56.391074974089861" lon="-4.618774987757206">
        <ele>184.71000000000001</ele>
        <time>2023-09-01T13:25:33Z</time>
      </trkpt>
      <trkpt lat="56.391164995729923" lon="-4.618720002472401">
        <ele>184.22999999999999</ele>
        <time>2023-09-01T13:25:34Z</time>
      </trkpt>
      <trkpt lat="56.391261974349618" lon="-4.618713967502117">
        <ele>183.75</ele>
        <time>2023-09-01T13:25:35Z</time>
      </trkpt>
      <trkpt lat="56.391357025131583" lon="-4.618708016350865">
        <ele>183.27000000000001</ele>
        <time>2023-09-01T13:25:36Z</time>
      </trkpt>
      <trkpt lat="56.391452997922897" lon="-4.618701981380582">
        <ele>182.78999999999999</ele>
        <time>2023-09-01T13:25:37Z</time>
      </trkpt>
      <trkpt lat="56.391655001789331" lon="-4.618754032999277">
        <ele>181.34999999999999</ele>
        <time>2023-09-01T13:25:39Z</time>
      </trkpt>
      <trkpt lat="56.39175801537931" lon="-4.618787979707122">
        <ele>180.87</ele>
        <time>2023-09-01T13:25:40Z</time>
      </trkpt>
      <trkpt lat="56.392049035057425" lon="-4.619014961645007">
        <ele>178.94</ele>
        <time>2023-09-01T13:25:43Z</time>
      </trkpt>
      <trkpt lat="56.392115000635386" lon="-4.619088973850012">
        <ele>178.46000000000001</ele>
        <time>2023-09-01T13:25:44Z</time>
      </trkpt>
      <trkpt lat="56.392252966761589" lon="-4.619236998260021">
        <ele>175.58000000000001</ele>
        <time>2023-09-01T13:25:49Z</time>
      </trkpt>
      <trkpt lat="56.392283979803324" lon="-4.619241021573544">
        <ele>174.62</ele>
        <time>2023-09-01T13:25:50Z</time>
      </trkpt>
      <trkpt lat="56.392322033643723" lon="-4.619245966896415">
        <ele>174.13999999999999</ele>
        <time>2023-09-01T13:25:51Z</time>
      </trkpt>
      <trkpt lat="56.392414988949895" lon="-4.619258036836982">
        <ele>173.16999999999999</ele>
        <time>2023-09-01T13:25:52Z</time>
      </trkpt>
      <trkpt lat="56.39242404140532" lon="-4.619250996038318">
        <ele>172.69</ele>
        <time>2023-09-01T13:25:53Z</time>
      </trkpt>
      <trkpt lat="56.392500987276435" lon="-4.619192993268371">
        <ele>171.72999999999999</ele>
        <time>2023-09-01T13:25:54Z</time>
      </trkpt>
      <trkpt lat="56.392544992268085" lon="-4.619155023247004">
        <ele>171.25</ele>
        <time>2023-09-01T13:25:55Z</time>
      </trkpt>
      <trkpt lat="56.392663009464741" lon="-4.619060978293419">
        <ele>169.81</ele>
        <time>2023-09-01T13:25:57Z</time>
      </trkpt>
      <trkpt lat="56.39272796921432" lon="-4.61903901770711">
        <ele>168.84999999999999</ele>
        <time>2023-09-01T13:25:58Z</time>
      </trkpt>
      <trkpt lat="56.392788989469409" lon="-4.61901999078691">
        <ele>167.88999999999999</ele>
        <time>2023-09-01T13:25:59Z</time>
      </trkpt>
      <trkpt lat="56.392839029431343" lon="-4.619011022150517">
        <ele>167.41</ele>
        <time>2023-09-01T13:26:00Z</time>
      </trkpt>
      <trkpt lat="56.392878005281091" lon="-4.619003981351852">
        <ele>166.93000000000001</ele>
        <time>2023-09-01T13:26:01Z</time>
      </trkpt>
      <trkpt lat="56.39294296503067" lon="-4.618993001058698">
        <ele>164.52000000000001</ele>
        <time>2023-09-01T13:26:10Z</time>
      </trkpt>
      <trkpt lat="56.39294296503067" lon="-4.618993001058698">
        <ele>165.47999999999999</ele>
        <time>2023-09-01T13:26:27Z</time>
      </trkpt>
      <trkpt lat="56.393033992499113" lon="-4.61897699162364">
        <ele>165.47999999999999</ele>
        <time>2023-09-01T13:26:39Z</time>
      </trkpt>
      <trkpt lat="56.393115967512131" lon="-4.618871966376901">
        <ele>165</ele>
        <time>2023-09-01T13:26:40Z</time>
      </trkpt>
      <trkpt lat="56.393097024410963" lon="-4.618814969435334">
        <ele>165</ele>
        <time>2023-09-01T13:26:41Z</time>
      </trkpt>
      <trkpt lat="56.39306802302599" lon="-4.618727965280414">
        <ele>164.52000000000001</ele>
        <time>2023-09-01T13:26:42Z</time>
      </trkpt>
      <trkpt lat="56.393033992499113" lon="-4.618623023852706">
        <ele>164.03999999999999</ele>
        <time>2023-09-01T13:26:43Z</time>
      </trkpt>
      <trkpt lat="56.392995016649365" lon="-4.618508024141192">
        <ele>163.56</ele>
        <time>2023-09-01T13:26:44Z</time>
      </trkpt>
      <trkpt lat="56.392952017486095" lon="-4.618378020823002">
        <ele>163.08000000000001</ele>
        <time>2023-09-01T13:26:45Z</time>
      </trkpt>
      <trkpt lat="56.392916981130838" lon="-4.61826503276825">
        <ele>162.59999999999999</ele>
        <time>2023-09-01T13:26:46Z</time>
      </trkpt>
      <trkpt lat="56.392395040020347" lon="-4.616669034585357">
        <ele>158.75</ele>
        <time>2023-09-01T13:26:57Z</time>
      </trkpt>
      <trkpt lat="56.392149031162262" lon="-4.615938970819116">
        <ele>158.75</ele>
        <time>2023-09-01T13:27:02Z</time>
      </trkpt>
      <trkpt lat="56.392116006463766" lon="-4.615795975551009">
        <ele>158.75</ele>
        <time>2023-09-01T13:27:03Z</time>
      </trkpt>
      <trkpt lat="56.392083987593651" lon="-4.615661026909947">
        <ele>159.24000000000001</ele>
        <time>2023-09-01T13:27:04Z</time>
      </trkpt>
      <trkpt lat="56.392072001472116" lon="-4.615505961701274">
        <ele>159.72</ele>
        <time>2023-09-01T13:27:05Z</time>
      </trkpt>
      <trkpt lat="56.392072001472116" lon="-4.615374030545354">
        <ele>160.19999999999999</ele>
        <time>2023-09-01T13:27:06Z</time>
      </trkpt>
      <trkpt lat="56.392072001472116" lon="-4.615288032218814">
        <ele>160.19999999999999</ele>
        <time>2023-09-01T13:27:07Z</time>
      </trkpt>
      <trkpt lat="56.39208197593689" lon="-4.615168003365398">
        <ele>160.68000000000001</ele>
        <time>2023-09-01T13:27:08Z</time>
      </trkpt>
      <trkpt lat="56.392088010907173" lon="-4.615102037787437">
        <ele>160.68000000000001</ele>
        <time>2023-09-01T13:27:09Z</time>
      </trkpt>
      <trkpt lat="56.392092034220695" lon="-4.615061972290278">
        <ele>161.16</ele>
        <time>2023-09-01T13:27:10Z</time>
      </trkpt>
      <trkpt lat="56.392093040049076" lon="-4.615040011703968">
        <ele>161.16</ele>
        <time>2023-09-01T13:27:11Z</time>
      </trkpt>
      <trkpt lat="56.392093962058425" lon="-4.615028025582433">
        <ele>161.16</ele>
        <time>2023-09-01T13:27:12Z</time>
      </trkpt>
      <trkpt lat="56.391851976513863" lon="-4.614898022264242">
        <ele>162.59999999999999</ele>
        <time>2023-09-01T13:27:21Z</time>
      </trkpt>
      <trkpt lat="56.391843007877469" lon="-4.614883018657565">
        <ele>161.63999999999999</ele>
        <time>2023-09-01T13:30:23Z</time>
      </trkpt>
      <trkpt lat="56.392072001472116" lon="-4.615609981119633">
        <ele>169.33000000000001</ele>
        <time>2023-09-01T13:30:35Z</time>
      </trkpt>
      <trkpt lat="56.392093962058425" lon="-4.615035988390446">
        <ele>169.33000000000001</ele>
        <time>2023-09-01T13:30:36Z</time>
      </trkpt>
      <trkpt lat="56.392091028392315" lon="-4.615073958411813">
        <ele>169.33000000000001</ele>
        <time>2023-09-01T13:30:37Z</time>
      </trkpt>
      <trkpt lat="56.392088010907173" lon="-4.615101031959057">
        <ele>169.81</ele>
        <time>2023-09-01T13:30:38Z</time>
      </trkpt>
      <trkpt lat="56.392087005078793" lon="-4.615119975060225">
        <ele>169.81</ele>
        <time>2023-09-01T13:30:39Z</time>
      </trkpt>
      <trkpt lat="56.392084993422031" lon="-4.615143025293946">
        <ele>172.21000000000001</ele>
        <time>2023-09-01T13:30:48Z</time>
      </trkpt>
      <trkpt lat="56.392079964280128" lon="-4.615198010578752">
        <ele>172.21000000000001</ele>
        <time>2023-09-01T13:30:49Z</time>
      </trkpt>
      <trkpt lat="56.392072001472116" lon="-4.615288032218814">
        <ele>172.69</ele>
        <time>2023-09-01T13:30:50Z</time>
      </trkpt>
      <trkpt lat="56.392089016735554" lon="-4.615683993324637">
        <ele>171.72999999999999</ele>
        <time>2023-09-01T13:30:53Z</time>
      </trkpt>
      <trkpt lat="56.39212497510016" lon="-4.615836041048169">
        <ele>171.25</ele>
        <time>2023-09-01T13:30:54Z</time>
      </trkpt>
      <trkpt lat="56.39216898009181" lon="-4.616008959710598">
        <ele>170.77000000000001</ele>
        <time>2023-09-01T13:30:55Z</time>
      </trkpt>
      <trkpt lat="56.392230000346899" lon="-4.6161849796772">
        <ele>170.77000000000001</ele>
        <time>2023-09-01T13:30:56Z</time>
      </trkpt>
      <trkpt lat="56.392291020601988" lon="-4.616363011300564">
        <ele>170.28999999999999</ele>
        <time>2023-09-01T13:30:57Z</time>
      </trkpt>
      <trkpt lat="56.392841041088104" lon="-4.618022963404656">
        <ele>167.41</ele>
        <time>2023-09-01T13:31:07Z</time>
      </trkpt>
      <trkpt lat="56.393237002193928" lon="-4.619319979101419">
        <ele>165.96000000000001</ele>
        <time>2023-09-01T13:31:15Z</time>
      </trkpt>
      <trkpt lat="56.393360970541835" lon="-4.619808979332447">
        <ele>165.47999999999999</ele>
        <time>2023-09-01T13:31:20Z</time>
      </trkpt>
      <trkpt lat="56.39336901716888" lon="-4.619839992374182">
        <ele>165.47999999999999</ele>
        <time>2023-09-01T13:31:21Z</time>
      </trkpt>
      <trkpt lat="56.393376979976892" lon="-4.619869999587536">
        <ele>165.47999999999999</ele>
        <time>2023-09-01T13:31:22Z</time>
      </trkpt>
      <trkpt lat="56.393546964973211" lon="-4.620542982593179">
        <ele>164.03999999999999</ele>
        <time>2023-09-01T13:31:31Z</time>
      </trkpt>
      <trkpt lat="56.393629023805261" lon="-4.620872978121042">
        <ele>164.52000000000001</ele>
        <time>2023-09-01T13:31:36Z</time>
      </trkpt>
      <trkpt lat="56.393691971898079" lon="-4.62112502194941">
        <ele>164.52000000000001</ele>
        <time>2023-09-01T13:31:39Z</time>
      </trkpt>
      <trkpt lat="56.393718039616942" lon="-4.621229963377118">
        <ele>164.52000000000001</ele>
        <time>2023-09-01T13:31:40Z</time>
      </trkpt>
      <trkpt lat="56.393707981333137" lon="-4.62138201110065">
        <ele>165</ele>
        <time>2023-09-01T13:31:41Z</time>
      </trkpt>
      <trkpt lat="56.393691971898079" lon="-4.62151100859046">
        <ele>165</ele>
        <time>2023-09-01T13:31:42Z</time>
      </trkpt>
      <trkpt lat="56.393675040453672" lon="-4.621645035222173">
        <ele>164.52000000000001</ele>
        <time>2023-09-01T13:31:43Z</time>
      </trkpt>
      <trkpt lat="56.393659031018615" lon="-4.621775038540363">
        <ele>164.52000000000001</ele>
        <time>2023-09-01T13:31:44Z</time>
      </trkpt>
      <trkpt lat="56.393643021583557" lon="-4.621901018545032">
        <ele>164.03999999999999</ele>
        <time>2023-09-01T13:31:45Z</time>
      </trkpt>
      <trkpt lat="56.393647966906428" lon="-4.621979976072907">
        <ele>164.03999999999999</ele>
        <time>2023-09-01T13:31:46Z</time>
      </trkpt>
      <trkpt lat="56.393681997433305" lon="-4.622115008533001">
        <ele>164.03999999999999</ele>
        <time>2023-09-01T13:31:47Z</time>
      </trkpt>
      <trkpt lat="56.393718961626291" lon="-4.622264038771391">
        <ele>163.56</ele>
        <time>2023-09-01T13:31:48Z</time>
      </trkpt>
      <trkpt lat="56.393766989931464" lon="-4.622454978525639">
        <ele>163.56</ele>
        <time>2023-09-01T13:31:49Z</time>
      </trkpt>
      <trkpt lat="56.393821975216269" lon="-4.622569978237152">
        <ele>163.56</ele>
        <time>2023-09-01T13:31:50Z</time>
      </trkpt>
      <trkpt lat="56.394136967137456" lon="-4.623389979824424">
        <ele>163.56</ele>
        <time>2023-09-01T13:31:55Z</time>
      </trkpt>
      <trkpt lat="56.394452964887023" lon="-4.625024031847715">
        <ele>171.25</ele>
        <time>2023-09-01T13:32:05Z</time>
      </trkpt>
      <trkpt lat="56.394457994028926" lon="-4.625569023191929">
        <ele>173.66</ele>
        <time>2023-09-01T13:32:11Z</time>
      </trkpt>
      <trkpt lat="56.394456988200545" lon="-4.625583020970225">
        <ele>173.66</ele>
        <time>2023-09-01T13:32:14Z</time>
      </trkpt>
      <trkpt lat="56.394453970715404" lon="-4.625618979334831">
        <ele>173.66</ele>
        <time>2023-09-01T13:32:15Z</time>
      </trkpt>
      <trkpt lat="56.394435027614236" lon="-4.625843027606607">
        <ele>174.62</ele>
        <time>2023-09-01T13:32:18Z</time>
      </trkpt>
      <trkpt lat="56.394426980987191" lon="-4.625931959599257">
        <ele>175.09999999999999</ele>
        <time>2023-09-01T13:32:19Z</time>
      </trkpt>
      <trkpt lat="56.394324973225594" lon="-4.626060035079718">
        <ele>175.58000000000001</ele>
        <time>2023-09-01T13:32:20Z</time>
      </trkpt>
      <trkpt lat="56.394271999597549" lon="-4.626073027029634">
        <ele>176.06</ele>
        <time>2023-09-01T13:32:22Z</time>
      </trkpt>
      <trkpt lat="56.394223971292377" lon="-4.626139998435974">
        <ele>176.06</ele>
        <time>2023-09-01T13:32:23Z</time>
      </trkpt>
      <trkpt lat="56.394180972129107" lon="-4.626285005360842">
        <ele>176.53999999999999</ele>
        <time>2023-09-01T13:32:24Z</time>
      </trkpt>
      <trkpt lat="56.394190024584532" lon="-4.626397993415594">
        <ele>176.53999999999999</ele>
        <time>2023-09-01T13:32:25Z</time>
      </trkpt>
      <trkpt lat="56.39423000626266" lon="-4.626507963985205">
        <ele>176.53999999999999</ele>
        <time>2023-09-01T13:32:26Z</time>
      </trkpt>
      <trkpt lat="56.394284991547465" lon="-4.626574013382196">
        <ele>176.53999999999999</ele>
        <time>2023-09-01T13:32:27Z</time>
      </trkpt>
      <trkpt lat="56.394360009580851" lon="-4.626622963696718">
        <ele>176.06</ele>
        <time>2023-09-01T13:32:28Z</time>
      </trkpt>
      <trkpt lat="56.394443996250629" lon="-4.626663029193878">
        <ele>176.06</ele>
        <time>2023-09-01T13:32:29Z</time>
      </trkpt>
      <trkpt lat="56.394539969041944" lon="-4.626708962023258">
        <ele>176.06</ele>
        <time>2023-09-01T13:32:30Z</time>
      </trkpt>
      <trkpt lat="56.394641976803541" lon="-4.626756990328431">
        <ele>176.06</ele>
        <time>2023-09-01T13:32:31Z</time>
      </trkpt>
      <trkpt lat="56.394753959029913" lon="-4.626810969784856">
        <ele>175.58000000000001</ele>
        <time>2023-09-01T13:32:32Z</time>
      </trkpt>
      <trkpt lat="56.394836017861962" lon="-4.626927981153131">
        <ele>175.58000000000001</ele>
        <time>2023-09-01T13:32:33Z</time>
      </trkpt>
      <trkpt lat="56.394923022016883" lon="-4.62705303914845">
        <ele>175.09999999999999</ele>
        <time>2023-09-01T13:32:34Z</time>
      </trkpt>
      <trkpt lat="56.395012037828565" lon="-4.62718203663826">
        <ele>175.09999999999999</ele>
        <time>2023-09-01T13:32:35Z</time>
      </trkpt>
      <trkpt lat="56.395102981477976" lon="-4.627316985279322">
        <ele>175.09999999999999</ele>
        <time>2023-09-01T13:32:36Z</time>
      </trkpt>
      <trkpt lat="56.395817035809159" lon="-4.628926981240511">
        <ele>175.09999999999999</ele>
        <time>2023-09-01T13:32:44Z</time>
      </trkpt>
      <trkpt lat="56.396733010187745" lon="-4.631425039842725">
        <ele>172.21000000000001</ele>
        <time>2023-09-01T13:32:54Z</time>
      </trkpt>
      <trkpt lat="56.3976039737463" lon="-4.633568041026592">
        <ele>167.41</ele>
        <time>2023-09-01T13:33:03Z</time>
      </trkpt>
      <trkpt lat="56.398788001388311" lon="-4.635968031361699">
        <ele>168.37</ele>
        <time>2023-09-01T13:33:12Z</time>
      </trkpt>
      <trkpt lat="56.400147965177894" lon="-4.637514995411038">
        <ele>169.81</ele>
        <time>2023-09-01T13:33:20Z</time>
      </trkpt>
      <trkpt lat="56.401903973892331" lon="-4.63958197273314">
        <ele>167.88999999999999</ele>
        <time>2023-09-01T13:33:30Z</time>
      </trkpt>
      <trkpt lat="56.403177017346025" lon="-4.64200702495873">
        <ele>167.41</ele>
        <time>2023-09-01T13:33:39Z</time>
      </trkpt>
      <trkpt lat="56.403996013104916" lon="-4.644466023892164">
        <ele>169.81</ele>
        <time>2023-09-01T13:33:47Z</time>
      </trkpt>
      <trkpt lat="56.405026987195015" lon="-4.647324001416564">
        <ele>174.13999999999999</ele>
        <time>2023-09-01T13:33:56Z</time>
      </trkpt>
      <trkpt lat="56.406500022858381" lon="-4.650651030242443">
        <ele>180.38</ele>
        <time>2023-09-01T13:34:07Z</time>
      </trkpt>
      <trkpt lat="56.407777005806565" lon="-4.653857024386525">
        <ele>187.11000000000001</ele>
        <time>2023-09-01T13:34:18Z</time>
      </trkpt>
      <trkpt lat="56.408887021243572" lon="-4.65535000897944">
        <ele>190.47999999999999</ele>
        <time>2023-09-01T13:34:25Z</time>
      </trkpt>
      <trkpt lat="56.410442031919956" lon="-4.656910970807076">
        <ele>191.91999999999999</ele>
        <time>2023-09-01T13:34:34Z</time>
      </trkpt>
      <trkpt lat="56.411930993199348" lon="-4.659335017204285">
        <ele>187.11000000000001</ele>
        <time>2023-09-01T13:34:44Z</time>
      </trkpt>
      <trkpt lat="56.413060035556555" lon="-4.660678971558809">
        <ele>184.71000000000001</ele>
        <time>2023-09-01T13:34:51Z</time>
      </trkpt>
      <trkpt lat="56.414896007627249" lon="-4.663039986044169">
        <ele>183.75</ele>
        <time>2023-09-01T13:35:03Z</time>
      </trkpt>
      <trkpt lat="56.416226970031857" lon="-4.665463026612997">
        <ele>183.27000000000001</ele>
        <time>2023-09-01T13:35:13Z</time>
      </trkpt>
      <trkpt lat="56.416892996057868" lon="-4.667026000097394">
        <ele>183.27000000000001</ele>
        <time>2023-09-01T13:35:19Z</time>
      </trkpt>
      <trkpt lat="56.417003972455859" lon="-4.667302016168833">
        <ele>183.27000000000001</ele>
        <time>2023-09-01T13:35:20Z</time>
      </trkpt>
      <trkpt lat="56.418182970955968" lon="-4.67002403922379">
        <ele>182.78999999999999</ele>
        <time>2023-09-01T13:35:30Z</time>
      </trkpt>
      <trkpt lat="56.419161977246404" lon="-4.6717210393399">
        <ele>181.34999999999999</ele>
        <time>2023-09-01T13:35:38Z</time>
      </trkpt>
      <trkpt lat="56.420525964349508" lon="-4.67423602938652">
        <ele>180.38</ele>
        <time>2023-09-01T13:35:49Z</time>
      </trkpt>
      <trkpt lat="56.421226020902395" lon="-4.67545903287828">
        <ele>181.34999999999999</ele>
        <time>2023-09-01T13:35:55Z</time>
      </trkpt>
      <trkpt lat="56.421331968158484" lon="-4.675637986510992">
        <ele>181.83000000000001</ele>
        <time>2023-09-01T13:35:57Z</time>
      </trkpt>
      <trkpt lat="56.421369016170502" lon="-4.675701018422842">
        <ele>182.31</ele>
        <time>2023-09-01T13:35:58Z</time>
      </trkpt>
      <trkpt lat="56.421397011727095" lon="-4.675749968737364">
        <ele>182.31</ele>
        <time>2023-09-01T13:35:59Z</time>
      </trkpt>
      <trkpt lat="56.421392988413572" lon="-4.675883995369077">
        <ele>182.78999999999999</ele>
        <time>2023-09-01T13:36:00Z</time>
      </trkpt>
      <trkpt lat="56.421374967321754" lon="-4.675930012017489">
        <ele>182.78999999999999</ele>
        <time>2023-09-01T13:36:01Z</time>
      </trkpt>
      <trkpt lat="56.421359041705728" lon="-4.675973011180759">
        <ele>182.78999999999999</ele>
        <time>2023-09-01T13:36:02Z</time>
      </trkpt>
      <trkpt lat="56.421318976208568" lon="-4.676077030599117">
        <ele>182.78999999999999</ele>
        <time>2023-09-01T13:36:03Z</time>
      </trkpt>
      <trkpt lat="56.421328028663993" lon="-4.676175015047193">
        <ele>182.78999999999999</ele>
        <time>2023-09-01T13:36:04Z</time>
      </trkpt>
      <trkpt lat="56.42134596593678" lon="-4.676317004486918">
        <ele>182.78999999999999</ele>
        <time>2023-09-01T13:36:05Z</time>
      </trkpt>
      <trkpt lat="56.421376978978515" lon="-4.676446001976728">
        <ele>182.78999999999999</ele>
        <time>2023-09-01T13:36:06Z</time>
      </trkpt>
      <trkpt lat="56.421677973121405" lon="-4.677703035995364">
        <ele>185.66999999999999</ele>
        <time>2023-09-01T13:36:16Z</time>
      </trkpt>
      <trkpt lat="56.421747040003538" lon="-4.677991960197687">
        <ele>187.59</ele>
        <time>2023-09-01T13:36:21Z</time>
      </trkpt>
      <trkpt lat="56.421757014468312" lon="-4.678033031523228">
        <ele>187.59</ele>
        <time>2023-09-01T13:36:22Z</time>
      </trkpt>
      <trkpt lat="56.421764977276325" lon="-4.678065972402692">
        <ele>188.08000000000001</ele>
        <time>2023-09-01T13:36:23Z</time>
      </trkpt>
      <trkpt lat="56.421764977276325" lon="-4.678065972402692">
        <ele>188.08000000000001</ele>
        <time>2023-09-01T13:36:36Z</time>
      </trkpt>
      <trkpt lat="56.421737987548113" lon="-4.678119029849768">
        <ele>172.21000000000001</ele>
        <time>2023-09-01T14:27:51Z</time>
      </trkpt>
      <trkpt lat="56.421739999204874" lon="-4.678105032071471">
        <ele>181.34999999999999</ele>
        <time>2023-09-01T14:28:37Z</time>
      </trkpt>
      <trkpt lat="56.421751985326409" lon="-4.678108971565962">
        <ele>178.94</ele>
        <time>2023-09-01T14:29:16Z</time>
      </trkpt>
      <trkpt lat="56.421756008639932" lon="-4.678112994879484">
        <ele>178.46000000000001</ele>
        <time>2023-09-01T14:29:56Z</time>
      </trkpt>
      <trkpt lat="56.421766988933086" lon="-4.678087010979652">
        <ele>178.46000000000001</ele>
        <time>2023-09-01T14:30:01Z</time>
      </trkpt>
      <trkpt lat="56.421732036396861" lon="-4.677925994619727">
        <ele>177.97999999999999</ele>
        <time>2023-09-01T14:30:05Z</time>
      </trkpt>
      <trkpt lat="56.421714015305042" lon="-4.677850976586342">
        <ele>177.97999999999999</ele>
        <time>2023-09-01T14:30:06Z</time>
      </trkpt>
      <trkpt lat="56.421587029471993" lon="-4.677319983020425">
        <ele>176.06</ele>
        <time>2023-09-01T14:30:12Z</time>
      </trkpt>
      <trkpt lat="56.421498013660312" lon="-4.676951011642814">
        <ele>175.58000000000001</ele>
        <time>2023-09-01T14:30:16Z</time>
      </trkpt>
      <trkpt lat="56.421331968158484" lon="-4.676211979240179">
        <ele>174.62</ele>
        <time>2023-09-01T14:30:23Z</time>
      </trkpt>
      <trkpt lat="56.421321993693709" lon="-4.676108965650201">
        <ele>174.62</ele>
        <time>2023-09-01T14:30:24Z</time>
      </trkpt>
      <trkpt lat="56.421332973986864" lon="-4.676039982587099">
        <ele>174.62</ele>
        <time>2023-09-01T14:30:25Z</time>
      </trkpt>
      <trkpt lat="56.421353006735444" lon="-4.675989020615816">
        <ele>174.62</ele>
        <time>2023-09-01T14:30:26Z</time>
      </trkpt>
      <trkpt lat="56.421369016170502" lon="-4.675948033109307">
        <ele>174.13999999999999</ele>
        <time>2023-09-01T14:30:27Z</time>
      </trkpt>
      <trkpt lat="56.421369016170502" lon="-4.675948033109307">
        <ele>173.66</ele>
        <time>2023-09-01T14:30:36Z</time>
      </trkpt>
      <trkpt lat="56.421435987576842" lon="-4.675811994820833">
        <ele>173.16999999999999</ele>
        <time>2023-09-01T14:30:46Z</time>
      </trkpt>
      <trkpt lat="56.421464988961816" lon="-4.675853988155723">
        <ele>172.21000000000001</ele>
        <time>2023-09-01T14:30:47Z</time>
      </trkpt>
      <trkpt lat="56.42151502892375" lon="-4.675924982875586">
        <ele>171.25</ele>
        <time>2023-09-01T14:30:48Z</time>
      </trkpt>
      <trkpt lat="56.422153981402516" lon="-4.676838023588061">
        <ele>170.28999999999999</ele>
        <time>2023-09-01T14:30:56Z</time>
      </trkpt>
      <trkpt lat="56.423201970756054" lon="-4.678408959880471">
        <ele>170.28999999999999</ele>
        <time>2023-09-01T14:31:05Z</time>
      </trkpt>
      <trkpt lat="56.424216013401747" lon="-4.680721024051309">
        <ele>173.16999999999999</ele>
        <time>2023-09-01T14:31:14Z</time>
      </trkpt>
      <trkpt lat="56.42497600056231" lon="-4.683744041249156">
        <ele>178.94</ele>
        <time>2023-09-01T14:31:24Z</time>
      </trkpt>
      <trkpt lat="56.42585601657629" lon="-4.687273995950818">
        <ele>187.59</ele>
        <time>2023-09-01T14:31:36Z</time>
      </trkpt>
      <trkpt lat="56.426906017586589" lon="-4.691475005820394">
        <ele>198.65000000000001</ele>
        <time>2023-09-01T14:31:51Z</time>
      </trkpt>
      <trkpt lat="56.427948977798223" lon="-4.695522962138057">
        <ele>209.22</ele>
        <time>2023-09-01T14:32:06Z</time>
      </trkpt>
      <trkpt lat="56.428978024050593" lon="-4.698064019903541">
        <ele>214.03</ele>
        <time>2023-09-01T14:32:16Z</time>
      </trkpt>
      <trkpt lat="56.42983197234571" lon="-4.700135020539165">
        <ele>218.84</ele>
        <time>2023-09-01T14:32:24Z</time>
      </trkpt>
      <trkpt lat="56.430480983108282" lon="-4.701891029253602">
        <ele>223.16</ele>
        <time>2023-09-01T14:32:31Z</time>
      </trkpt>
      <trkpt lat="56.430580979213119" lon="-4.702022960409522">
        <ele>223.63999999999999</ele>
        <time>2023-09-01T14:32:32Z</time>
      </trkpt>
      <trkpt lat="56.431472981348634" lon="-4.703373033553362">
        <ele>226.05000000000001</ele>
        <time>2023-09-01T14:32:40Z</time>
      </trkpt>
      <trkpt lat="56.432277979329228" lon="-4.705163994804025">
        <ele>226.05000000000001</ele>
        <time>2023-09-01T14:32:49Z</time>
      </trkpt>
      <trkpt lat="56.433564014732838" lon="-4.707153020426631">
        <ele>227.49000000000001</ele>
        <time>2023-09-01T14:33:02Z</time>
      </trkpt>
      <trkpt lat="56.433867020532489" lon="-4.707619976252317">
        <ele>227.97</ele>
        <time>2023-09-01T14:33:07Z</time>
      </trkpt>
      <trkpt lat="56.433902978897095" lon="-4.707674961537123">
        <ele>227.97</ele>
        <time>2023-09-01T14:33:08Z</time>
      </trkpt>
      <trkpt lat="56.433928040787578" lon="-4.707713015377522">
        <ele>227.97</ele>
        <time>2023-09-01T14:33:09Z</time>
      </trkpt>
      <trkpt lat="56.433942038565874" lon="-4.707735981792212">
        <ele>228.44999999999999</ele>
        <time>2023-09-01T14:33:10Z</time>
      </trkpt>
      <trkpt lat="56.433951007202268" lon="-4.707748973742127">
        <ele>228.44999999999999</ele>
        <time>2023-09-01T14:33:11Z</time>
      </trkpt>
      <trkpt lat="56.433960981667042" lon="-4.707763977348805">
        <ele>228.44999999999999</ele>
        <time>2023-09-01T14:33:12Z</time>
      </trkpt>
      <trkpt lat="56.433970034122467" lon="-4.707778980955482">
        <ele>228.44999999999999</ele>
        <time>2023-09-01T14:33:13Z</time>
      </trkpt>
      <trkpt lat="56.433970034122467" lon="-4.707778980955482">
        <ele>228.93000000000001</ele>
        <time>2023-09-01T14:33:25Z</time>
      </trkpt>
      <trkpt lat="56.433970034122467" lon="-4.707778980955482">
        <ele>228.93000000000001</ele>
        <time>2023-09-01T14:34:06Z</time>
      </trkpt>
      <trkpt lat="56.433980008587241" lon="-4.707793984562159">
        <ele>229.41</ele>
        <time>2023-09-01T14:34:26Z</time>
      </trkpt>
      <trkpt lat="56.433979002758861" lon="-4.707791972905397">
        <ele>229.41</ele>
        <time>2023-09-01T14:34:27Z</time>
      </trkpt>
      <trkpt lat="56.433979002758861" lon="-4.707791972905397">
        <ele>229.41</ele>
        <time>2023-09-01T14:34:28Z</time>
      </trkpt>
      <trkpt lat="56.433898033574224" lon="-4.70766800455749">
        <ele>229.41</ele>
        <time>2023-09-01T14:34:29Z</time>
      </trkpt>
      <trkpt lat="56.433843970298767" lon="-4.707584017887712">
        <ele>229.41</ele>
        <time>2023-09-01T14:34:30Z</time>
      </trkpt>
      <trkpt lat="56.433778004720807" lon="-4.707483015954495">
        <ele>229.41</ele>
        <time>2023-09-01T14:34:31Z</time>
      </trkpt>
      <trkpt lat="56.433700975030661" lon="-4.707363992929459">
        <ele>229.41</ele>
        <time>2023-09-01T14:34:32Z</time>
      </trkpt>
      <trkpt lat="56.432830011472106" lon="-4.706019032746553">
        <ele>228.44999999999999</ele>
        <time>2023-09-01T14:34:40Z</time>
      </trkpt>
      <trkpt lat="56.431932980194688" lon="-4.704557983204722">
        <ele>226.05000000000001</ele>
        <time>2023-09-01T14:34:47Z</time>
      </trkpt>
      <trkpt lat="56.431818986311555" lon="-4.704317003488541">
        <ele>226.05000000000001</ele>
        <time>2023-09-01T14:34:48Z</time>
      </trkpt>
      <trkpt lat="56.431081965565681" lon="-4.70268496312201">
        <ele>224.12</ele>
        <time>2023-09-01T14:34:55Z</time>
      </trkpt>
      <trkpt lat="56.430449970066547" lon="-4.701806958764792">
        <ele>222.68000000000001</ele>
        <time>2023-09-01T14:35:00Z</time>
      </trkpt>
      <trkpt lat="56.430362965911627" lon="-4.701572014018893">
        <ele>222.68000000000001</ele>
        <time>2023-09-01T14:35:01Z</time>
      </trkpt>
      <trkpt lat="56.429472975432873" lon="-4.699197001755238">
        <ele>218.84</ele>
        <time>2023-09-01T14:35:10Z</time>
      </trkpt>
      <trkpt lat="56.428507966920733" lon="-4.696928020566702">
        <ele>214.50999999999999</ele>
        <time>2023-09-01T14:35:18Z</time>
      </trkpt>
      <trkpt lat="56.427587969228625" lon="-4.694141959771514">
        <ele>211.63</ele>
        <time>2023-09-01T14:35:27Z</time>
      </trkpt>
      <trkpt lat="56.426531011238694" lon="-4.689972968772054">
        <ele>202.97999999999999</ele>
        <time>2023-09-01T14:35:39Z</time>
      </trkpt>
      <trkpt lat="56.425359975546598" lon="-4.685282958671451">
        <ele>193.36000000000001</ele>
        <time>2023-09-01T14:35:52Z</time>
      </trkpt>
      <trkpt lat="56.424534022808075" lon="-4.681969005614519">
        <ele>186.63</ele>
        <time>2023-09-01T14:36:01Z</time>
      </trkpt>
      <trkpt lat="56.423588041216135" lon="-4.679118990898132">
        <ele>179.41999999999999</ele>
        <time>2023-09-01T14:36:09Z</time>
      </trkpt>
      <trkpt lat="56.422293037176132" lon="-4.677038015797734">
        <ele>174.62</ele>
        <time>2023-09-01T14:36:16Z</time>
      </trkpt>
      <trkpt lat="56.420859983190894" lon="-4.674833994358778">
        <ele>170.77000000000001</ele>
        <time>2023-09-01T14:36:24Z</time>
      </trkpt>
      <trkpt lat="56.419257028028369" lon="-4.671879960224032">
        <ele>168.37</ele>
        <time>2023-09-01T14:36:35Z</time>
      </trkpt>
      <trkpt lat="56.417888011783361" lon="-4.669374022632837">
        <ele>166.93000000000001</ele>
        <time>2023-09-01T14:36:44Z</time>
      </trkpt>
      <trkpt lat="56.416783025488257" lon="-4.666750989854336">
        <ele>168.37</ele>
        <time>2023-09-01T14:36:53Z</time>
      </trkpt>
      <trkpt lat="56.415669992566109" lon="-4.66433297842741">
        <ele>167.88999999999999</ele>
        <time>2023-09-01T14:37:02Z</time>
      </trkpt>
      <trkpt lat="56.414156975224614" lon="-4.661984033882618">
        <ele>166.44999999999999</ele>
        <time>2023-09-01T14:37:12Z</time>
      </trkpt>
      <trkpt lat="56.41229996457696" lon="-4.659774983301759">
        <ele>167.88999999999999</ele>
        <time>2023-09-01T14:37:23Z</time>
      </trkpt>
      <trkpt lat="56.410887027159333" lon="-4.657641034573317">
        <ele>172.21000000000001</ele>
        <time>2023-09-01T14:37:32Z</time>
      </trkpt>
      <trkpt lat="56.409471994265914" lon="-4.655877985060215">
        <ele>178.94</ele>
        <time>2023-09-01T14:37:41Z</time>
      </trkpt>
      <trkpt lat="56.408105995506048" lon="-4.654391035437584">
        <ele>182.78999999999999</ele>
        <time>2023-09-01T14:37:50Z</time>
      </trkpt>
      <trkpt lat="56.407167976722121" lon="-4.652444003149867">
        <ele>182.31</ele>
        <time>2023-09-01T14:37:58Z</time>
      </trkpt>
      <trkpt lat="56.406959015876055" lon="-4.651884008198977">
        <ele>180.87</ele>
        <time>2023-09-01T14:38:00Z</time>
      </trkpt>
      <trkpt lat="56.406853990629315" lon="-4.651601035147905">
        <ele>179.90000000000001</ele>
        <time>2023-09-01T14:38:01Z</time>
      </trkpt>
      <trkpt lat="56.405781023204327" lon="-4.648900972679257">
        <ele>172.21000000000001</ele>
        <time>2023-09-01T14:38:10Z</time>
      </trkpt>
      <trkpt lat="56.404242021963" lon="-4.645303040742874">
        <ele>166.44999999999999</ele>
        <time>2023-09-01T14:38:22Z</time>
      </trkpt>
      <trkpt lat="56.403205012902617" lon="-4.642078019678593">
        <ele>159.72</ele>
        <time>2023-09-01T14:38:32Z</time>
      </trkpt>
      <trkpt lat="56.402098014950752" lon="-4.639909034594894">
        <ele>159.24000000000001</ele>
        <time>2023-09-01T14:38:40Z</time>
      </trkpt>
      <trkpt lat="56.400812985375524" lon="-4.638170963153243">
        <ele>162.12</ele>
        <time>2023-09-01T14:38:49Z</time>
      </trkpt>
      <trkpt lat="56.399178011342883" lon="-4.636501036584377">
        <ele>165.47999999999999</ele>
        <time>2023-09-01T14:39:00Z</time>
      </trkpt>
      <trkpt lat="56.398257007822394" lon="-4.635037975385785">
        <ele>167.41</ele>
        <time>2023-09-01T14:39:07Z</time>
      </trkpt>
      <trkpt lat="56.39706501737237" lon="-4.632294997572899">
        <ele>168.84999999999999</ele>
        <time>2023-09-01T14:39:18Z</time>
      </trkpt>
      <trkpt lat="56.396157005801797" lon="-4.629854019731283">
        <ele>169.33000000000001</ele>
        <time>2023-09-01T14:39:27Z</time>
      </trkpt>
      <trkpt lat="56.39521898701787" lon="-4.6275719627738">
        <ele>169.81</ele>
        <time>2023-09-01T14:39:36Z</time>
      </trkpt>
      <trkpt lat="56.394820008426905" lon="-4.626906020566821">
        <ele>170.77000000000001</ele>
        <time>2023-09-01T14:39:40Z</time>
      </trkpt>
      <trkpt lat="56.394526977092028" lon="-4.626452978700399">
        <ele>172.21000000000001</ele>
        <time>2023-09-01T14:39:44Z</time>
      </trkpt>
      <trkpt lat="56.394453970715404" lon="-4.626338984817267">
        <ele>172.21000000000001</ele>
        <time>2023-09-01T14:39:45Z</time>
      </trkpt>
      <trkpt lat="56.394437039270997" lon="-4.626254998147488">
        <ele>172.69</ele>
        <time>2023-09-01T14:39:46Z</time>
      </trkpt>
      <trkpt lat="56.394414994865656" lon="-4.626079984009266">
        <ele>172.69</ele>
        <time>2023-09-01T14:39:47Z</time>
      </trkpt>
      <trkpt lat="56.394427986815572" lon="-4.625919973477721">
        <ele>173.16999999999999</ele>
        <time>2023-09-01T14:39:48Z</time>
      </trkpt>
      <trkpt lat="56.394376019015908" lon="-4.624359011650085">
        <ele>173.66</ele>
        <time>2023-09-01T14:39:55Z</time>
      </trkpt>
      <trkpt lat="56.394039988517761" lon="-4.623068030923605">
        <ele>173.66</ele>
        <time>2023-09-01T14:40:01Z</time>
      </trkpt>
      <trkpt lat="56.393965976312757" lon="-4.622870972380042">
        <ele>173.66</ele>
        <time>2023-09-01T14:40:02Z</time>
      </trkpt>
      <trkpt lat="56.393723990768194" lon="-4.622283987700939">
        <ele>174.13999999999999</ele>
        <time>2023-09-01T14:40:06Z</time>
      </trkpt>
      <trkpt lat="56.393689038231969" lon="-4.622144009917975">
        <ele>174.13999999999999</ele>
        <time>2023-09-01T14:40:07Z</time>
      </trkpt>
      <trkpt lat="56.39365098439157" lon="-4.62183496914804">
        <ele>174.62</ele>
        <time>2023-09-01T14:40:12Z</time>
      </trkpt>
      <trkpt lat="56.393663976341486" lon="-4.621737990528345">
        <ele>174.62</ele>
        <time>2023-09-01T14:40:13Z</time>
      </trkpt>
      <trkpt lat="56.393676968291402" lon="-4.621630031615496">
        <ele>174.62</ele>
        <time>2023-09-01T14:40:14Z</time>
      </trkpt>
      <trkpt lat="56.393690966069698" lon="-4.621517965570092">
        <ele>174.62</ele>
        <time>2023-09-01T14:40:15Z</time>
      </trkpt>
      <trkpt lat="56.393705969676375" lon="-4.621399026364088">
        <ele>174.62</ele>
        <time>2023-09-01T14:40:16Z</time>
      </trkpt>
      <trkpt lat="56.393721979111433" lon="-4.621269023045898">
        <ele>174.62</ele>
        <time>2023-09-01T14:40:17Z</time>
      </trkpt>
      <trkpt lat="56.39369398355484" lon="-4.621132984757423">
        <ele>174.13999999999999</ele>
        <time>2023-09-01T14:40:18Z</time>
      </trkpt>
      <trkpt lat="56.393657019361854" lon="-4.620984038338065">
        <ele>174.13999999999999</ele>
        <time>2023-09-01T14:40:19Z</time>
      </trkpt>
      <trkpt lat="56.393617959693074" lon="-4.620828973129392">
        <ele>174.13999999999999</ele>
        <time>2023-09-01T14:40:20Z</time>
      </trkpt>
      <trkpt lat="56.393171036615968" lon="-4.6190619841218">
        <ele>170.77000000000001</ele>
        <time>2023-09-01T14:40:30Z</time>
      </trkpt>
      <trkpt lat="56.392691005021334" lon="-4.617542009800673">
        <ele>167.41</ele>
        <time>2023-09-01T14:40:39Z</time>
      </trkpt>
      <trkpt lat="56.392098991200328" lon="-4.615725986659527">
        <ele>164.52000000000001</ele>
        <time>2023-09-01T14:40:50Z</time>
      </trkpt>
      <trkpt lat="56.392072001472116" lon="-4.615583997219801">
        <ele>164.52000000000001</ele>
        <time>2023-09-01T14:40:51Z</time>
      </trkpt>
      <trkpt lat="56.392072001472116" lon="-4.615444019436836">
        <ele>164.52000000000001</ele>
        <time>2023-09-01T14:40:52Z</time>
      </trkpt>
      <trkpt lat="56.392072001472116" lon="-4.615300018340349">
        <ele>165</ele>
        <time>2023-09-01T14:40:53Z</time>
      </trkpt>
      <trkpt lat="56.39208298176527" lon="-4.615158028900623">
        <ele>165</ele>
        <time>2023-09-01T14:40:54Z</time>
      </trkpt>
      <trkpt lat="56.392179960384965" lon="-4.6139279846102">
        <ele>164.03999999999999</ele>
        <time>2023-09-01T14:41:01Z</time>
      </trkpt>
      <trkpt lat="56.392193036153913" lon="-4.613707037642598">
        <ele>163.56</ele>
        <time>2023-09-01T14:41:02Z</time>
      </trkpt>
      <trkpt lat="56.392190018668771" lon="-4.613473014906049">
        <ele>163.08000000000001</ele>
        <time>2023-09-01T14:41:03Z</time>
      </trkpt>
      <trkpt lat="56.392164034768939" lon="-4.61323999799788">
        <ele>162.59999999999999</ele>
        <time>2023-09-01T14:41:04Z</time>
      </trkpt>
      <trkpt lat="56.392137967050076" lon="-4.613003041595221">
        <ele>162.12</ele>
        <time>2023-09-01T14:41:05Z</time>
      </trkpt>
      <trkpt lat="56.392076024785638" lon="-4.612778993323445">
        <ele>161.63999999999999</ele>
        <time>2023-09-01T14:41:06Z</time>
      </trkpt>
      <trkpt lat="56.392010981217027" lon="-4.612554023042321">
        <ele>161.16</ele>
        <time>2023-09-01T14:41:07Z</time>
      </trkpt>
      <trkpt lat="56.391918025910854" lon="-4.612362999469042">
        <ele>160.68000000000001</ele>
        <time>2023-09-01T14:41:08Z</time>
      </trkpt>
      <trkpt lat="56.391820041462779" lon="-4.61216501891613">
        <ele>160.19999999999999</ele>
        <time>2023-09-01T14:41:09Z</time>
      </trkpt>
      <trkpt lat="56.391719039529562" lon="-4.611973995342851">
        <ele>159.72</ele>
        <time>2023-09-01T14:41:10Z</time>
      </trkpt>
      <trkpt lat="56.390681024640799" lon="-4.60982303135097">
        <ele>161.16</ele>
        <time>2023-09-01T14:41:21Z</time>
      </trkpt>
      <trkpt lat="56.39059703797102" lon="-4.609600994735956">
        <ele>161.63999999999999</ele>
        <time>2023-09-01T14:41:22Z</time>
      </trkpt>
      <trkpt lat="56.39053501188755" lon="-4.60935196839273">
        <ele>161.63999999999999</ele>
        <time>2023-09-01T14:41:23Z</time>
      </trkpt>
      <trkpt lat="56.390075013041496" lon="-4.607195975258946">
        <ele>164.52000000000001</ele>
        <time>2023-09-01T14:41:31Z</time>
      </trkpt>
      <trkpt lat="56.389832021668553" lon="-4.604302039369941">
        <ele>164.52000000000001</ele>
        <time>2023-09-01T14:41:40Z</time>
      </trkpt>
      <trkpt lat="56.38989295810461" lon="-4.601752012968063">
        <ele>165.96000000000001</ele>
        <time>2023-09-01T14:41:47Z</time>
      </trkpt>
      <trkpt lat="56.390349017456174" lon="-4.598446022719145">
        <ele>165</ele>
        <time>2023-09-01T14:41:55Z</time>
      </trkpt>
      <trkpt lat="56.391131971031427" lon="-4.595079012215138">
        <ele>163.08000000000001</ele>
        <time>2023-09-01T14:42:04Z</time>
      </trkpt>
      <trkpt lat="56.391822975128889" lon="-4.592436030507088">
        <ele>161.63999999999999</ele>
        <time>2023-09-01T14:42:12Z</time>
      </trkpt>
      <trkpt lat="56.392757976427674" lon="-4.590411968529224">
        <ele>160.19999999999999</ele>
        <time>2023-09-01T14:42:20Z</time>
      </trkpt>
      <trkpt lat="56.394111989066005" lon="-4.587620040401816">
        <ele>157.78999999999999</ele>
        <time>2023-09-01T14:42:31Z</time>
      </trkpt>
      <trkpt lat="56.395139023661613" lon="-4.585468992590904">
        <ele>152.50999999999999</ele>
        <time>2023-09-01T14:42:39Z</time>
      </trkpt>
      <trkpt lat="56.396082993596792" lon="-4.582640016451478">
        <ele>147.69999999999999</ele>
        <time>2023-09-01T14:42:48Z</time>
      </trkpt>
      <trkpt lat="56.397055964916945" lon="-4.579331008717418">
        <ele>145.30000000000001</ele>
        <time>2023-09-01T14:42:59Z</time>
      </trkpt>
      <trkpt lat="56.39768703840673" lon="-4.57652298733592">
        <ele>151.53999999999999</ele>
        <time>2023-09-01T14:43:08Z</time>
      </trkpt>
      <trkpt lat="56.398191964253783" lon="-4.573066039010882">
        <ele>159.72</ele>
        <time>2023-09-01T14:43:18Z</time>
      </trkpt>
      <trkpt lat="56.398901995271444" lon="-4.570150980725884">
        <ele>163.08000000000001</ele>
        <time>2023-09-01T14:43:28Z</time>
      </trkpt>
      <trkpt lat="56.399955013766885" lon="-4.567504981532693">
        <ele>163.08000000000001</ele>
        <time>2023-09-01T14:43:38Z</time>
      </trkpt>
      <trkpt lat="56.401102999225259" lon="-4.564663013443351">
        <ele>161.16</ele>
        <time>2023-09-01T14:43:47Z</time>
      </trkpt>
      <trkpt lat="56.402139002457261" lon="-4.562097983434796">
        <ele>158.75</ele>
        <time>2023-09-01T14:43:55Z</time>
      </trkpt>
      <trkpt lat="56.403327975422144" lon="-4.55942097119987">
        <ele>157.31</ele>
        <time>2023-09-01T14:44:04Z</time>
      </trkpt>
      <trkpt lat="56.404619039967656" lon="-4.557219967246056">
        <ele>154.91</ele>
        <time>2023-09-01T14:44:13Z</time>
      </trkpt>
      <trkpt lat="56.405991995707154" lon="-4.555187020450831">
        <ele>154.43000000000001</ele>
        <time>2023-09-01T14:44:23Z</time>
      </trkpt>
      <trkpt lat="56.406468003988266" lon="-4.554334999993444">
        <ele>154.91</ele>
        <time>2023-09-01T14:44:27Z</time>
      </trkpt>
      <trkpt lat="56.407390013337135" lon="-4.551739962771535">
        <ele>156.83000000000001</ele>
        <time>2023-09-01T14:44:36Z</time>
      </trkpt>
      <trkpt lat="56.408050004392862" lon="-4.549279036000371">
        <ele>158.75</ele>
        <time>2023-09-01T14:44:44Z</time>
      </trkpt>
      <trkpt lat="56.408151006326079" lon="-4.547565020620823">
        <ele>159.24000000000001</ele>
        <time>2023-09-01T14:44:49Z</time>
      </trkpt>
      <trkpt lat="56.408139020204544" lon="-4.545929040759802">
        <ele>159.72</ele>
        <time>2023-09-01T14:44:54Z</time>
      </trkpt>
      <trkpt lat="56.408155029639602" lon="-4.545666016638279">
        <ele>160.19999999999999</ele>
        <time>2023-09-01T14:44:55Z</time>
      </trkpt>
      <trkpt lat="56.408208003267646" lon="-4.545399975031614">
        <ele>160.19999999999999</ele>
        <time>2023-09-01T14:44:56Z</time>
      </trkpt>
      <trkpt lat="56.40901199541986" lon="-4.542621960863471">
        <ele>156.34999999999999</ele>
        <time>2023-09-01T14:45:07Z</time>
      </trkpt>
      <trkpt lat="56.409068992361426" lon="-4.542391039431095">
        <ele>156.83000000000001</ele>
        <time>2023-09-01T14:45:08Z</time>
      </trkpt>
      <trkpt lat="56.409416003152728" lon="-4.539894992485642">
        <ele>159.72</ele>
        <time>2023-09-01T14:45:17Z</time>
      </trkpt>
      <trkpt lat="56.409950014203787" lon="-4.537506988272071">
        <ele>163.56</ele>
        <time>2023-09-01T14:45:25Z</time>
      </trkpt>
      <trkpt lat="56.410900019109249" lon="-4.534713970497251">
        <ele>167.88999999999999</ele>
        <time>2023-09-01T14:45:34Z</time>
      </trkpt>
      <trkpt lat="56.411411985754967" lon="-4.531946014612913">
        <ele>167.41</ele>
        <time>2023-09-01T14:45:41Z</time>
      </trkpt>
      <trkpt lat="56.412335000932217" lon="-4.527271008118987">
        <ele>162.59999999999999</ele>
        <time>2023-09-01T14:45:53Z</time>
      </trkpt>
      <trkpt lat="56.412963978946209" lon="-4.524319991469383">
        <ele>162.12</ele>
        <time>2023-09-01T14:46:00Z</time>
      </trkpt>
      <trkpt lat="56.413601003587246" lon="-4.521657982841134">
        <ele>162.12</ele>
        <time>2023-09-01T14:46:06Z</time>
      </trkpt>
      <trkpt lat="56.414832975715399" lon="-4.516310999169946">
        <ele>165.47999999999999</ele>
        <time>2023-09-01T14:46:19Z</time>
      </trkpt>
      <trkpt lat="56.415342008695006" lon="-4.512459011748433">
        <ele>164.03999999999999</ele>
        <time>2023-09-01T14:46:28Z</time>
      </trkpt>
      <trkpt lat="56.415548035874963" lon="-4.50856301933527">
        <ele>163.08000000000001</ele>
        <time>2023-09-01T14:46:37Z</time>
      </trkpt>
      <trkpt lat="56.415448961779475" lon="-4.507144968956709">
        <ele>165.47999999999999</ele>
        <time>2023-09-01T14:46:41Z</time>
      </trkpt>
      <trkpt lat="56.415406968444586" lon="-4.50688797980547">
        <ele>165.96000000000001</ele>
        <time>2023-09-01T14:46:42Z</time>
      </trkpt>
      <trkpt lat="56.415342008695006" lon="-4.506652029231191">
        <ele>165.96000000000001</ele>
        <time>2023-09-01T14:46:43Z</time>
      </trkpt>
      <trkpt lat="56.414996003732085" lon="-4.50557897798717">
        <ele>166.44999999999999</ele>
        <time>2023-09-01T14:46:47Z</time>
      </trkpt>
      <trkpt lat="56.414924003183842" lon="-4.505274966359139">
        <ele>166.44999999999999</ele>
        <time>2023-09-01T14:46:48Z</time>
      </trkpt>
      <trkpt lat="56.414881004020572" lon="-4.504973972216249">
        <ele>166.44999999999999</ele>
        <time>2023-09-01T14:46:49Z</time>
      </trkpt>
      <trkpt lat="56.414869017899036" lon="-4.504655040800571">
        <ele>165.96000000000001</ele>
        <time>2023-09-01T14:46:50Z</time>
      </trkpt>
      <trkpt lat="56.414870023727417" lon="-4.504353040829301">
        <ele>165.96000000000001</ele>
        <time>2023-09-01T14:46:51Z</time>
      </trkpt>
      <trkpt lat="56.414917968213558" lon="-4.504042994230986">
        <ele>166.44999999999999</ele>
        <time>2023-09-01T14:46:52Z</time>
      </trkpt>
      <trkpt lat="56.414967002347112" lon="-4.50372900813818">
        <ele>167.41</ele>
        <time>2023-09-01T14:46:53Z</time>
      </trkpt>
      <trkpt lat="56.415053000673652" lon="-4.50342801399529">
        <ele>167.88999999999999</ele>
        <time>2023-09-01T14:46:54Z</time>
      </trkpt>
      <trkpt lat="56.415138999000192" lon="-4.503129031509161">
        <ele>168.84999999999999</ele>
        <time>2023-09-01T14:46:55Z</time>
      </trkpt>
      <trkpt lat="56.415248969569802" lon="-4.502847986295819">
        <ele>170.28999999999999</ele>
        <time>2023-09-01T14:46:56Z</time>
      </trkpt>
      <trkpt lat="56.415357012301683" lon="-4.502572976052761">
        <ele>171.25</ele>
        <time>2023-09-01T14:46:57Z</time>
      </trkpt>
      <trkpt lat="56.41618900001049" lon="-4.500283962115645">
        <ele>177.97999999999999</ele>
        <time>2023-09-01T14:47:05Z</time>
      </trkpt>
      <trkpt lat="56.416683029383421" lon="-4.497703006491065">
        <ele>180.38</ele>
        <time>2023-09-01T14:47:12Z</time>
      </trkpt>
      <trkpt lat="56.417277976870537" lon="-4.493722021579742">
        <ele>178.94</ele>
        <time>2023-09-01T14:47:22Z</time>
      </trkpt>
      <trkpt lat="56.418128991499543" lon="-4.487886959686875">
        <ele>176.53999999999999</ele>
        <time>2023-09-01T14:47:37Z</time>
      </trkpt>
      <trkpt lat="56.418731985613704" lon="-4.482884975150228">
        <ele>175.58000000000001</ele>
        <time>2023-09-01T14:47:49Z</time>
      </trkpt>
      <trkpt lat="56.41930497251451" lon="-4.478781027719379">
        <ele>170.28999999999999</ele>
        <time>2023-09-01T14:47:59Z</time>
      </trkpt>
      <trkpt lat="56.419941997155547" lon="-4.474689988419414">
        <ele>162.12</ele>
        <time>2023-09-01T14:48:09Z</time>
      </trkpt>
      <trkpt lat="56.420223964378238" lon="-4.470497025176883">
        <ele>155.87</ele>
        <time>2023-09-01T14:48:19Z</time>
      </trkpt>
      <trkpt lat="56.420037969946861" lon="-4.466311018913984">
        <ele>151.53999999999999</ele>
        <time>2023-09-01T14:48:29Z</time>
      </trkpt>
      <trkpt lat="56.419537989422679" lon="-4.462275970727205">
        <ele>152.99000000000001</ele>
        <time>2023-09-01T14:48:39Z</time>
      </trkpt>
      <trkpt lat="56.419139010831714" lon="-4.458338990807533">
        <ele>153.47</ele>
        <time>2023-09-01T14:48:49Z</time>
      </trkpt>
      <trkpt lat="56.419306984171271" lon="-4.454738041386008">
        <ele>153.47</ele>
        <time>2023-09-01T14:48:58Z</time>
      </trkpt>
      <trkpt lat="56.419545030221343" lon="-4.451099960133433">
        <ele>152.50999999999999</ele>
        <time>2023-09-01T14:49:07Z</time>
      </trkpt>
      <trkpt lat="56.419234983623028" lon="-4.447836969047785">
        <ele>153.94999999999999</ele>
        <time>2023-09-01T14:49:15Z</time>
      </trkpt>
      <trkpt lat="56.419190978631377" lon="-4.443626990541816">
        <ele>156.34999999999999</ele>
        <time>2023-09-01T14:49:25Z</time>
      </trkpt>
      <trkpt lat="56.419547041878104" lon="-4.440329968929291">
        <ele>157.31</ele>
        <time>2023-09-01T14:49:33Z</time>
      </trkpt>
      <trkpt lat="56.420389004051685" lon="-4.434091988950968">
        <ele>159.72</ele>
        <time>2023-09-01T14:49:49Z</time>
      </trkpt>
      <trkpt lat="56.420677006244659" lon="-4.430764960125089">
        <ele>159.24000000000001</ele>
        <time>2023-09-01T14:49:58Z</time>
      </trkpt>
      <trkpt lat="56.420940030366182" lon="-4.427945036441088">
        <ele>156.83000000000001</ele>
        <time>2023-09-01T14:50:06Z</time>
      </trkpt>
      <trkpt lat="56.421612007543445" lon="-4.425579998642206">
        <ele>153.94999999999999</ele>
        <time>2023-09-01T14:50:13Z</time>
      </trkpt>
      <trkpt lat="56.422829981893301" lon="-4.423369020223618">
        <ele>149.13999999999999</ele>
        <time>2023-09-01T14:50:21Z</time>
      </trkpt>
      <trkpt lat="56.424236968159676" lon="-4.421084029600024">
        <ele>148.66</ele>
        <time>2023-09-01T14:50:31Z</time>
      </trkpt>
      <trkpt lat="56.425238018855453" lon="-4.41867196932435">
        <ele>149.13999999999999</ele>
        <time>2023-09-01T14:50:39Z</time>
      </trkpt>
      <trkpt lat="56.427010959014297" lon="-4.413950024172664">
        <ele>149.62</ele>
        <time>2023-09-01T14:50:53Z</time>
      </trkpt>
      <trkpt lat="56.428148970007896" lon="-4.410233991220594">
        <ele>152.03</ele>
        <time>2023-09-01T14:51:03Z</time>
      </trkpt>
      <trkpt lat="56.429389994591475" lon="-4.40522002056241">
        <ele>155.87</ele>
        <time>2023-09-01T14:51:16Z</time>
      </trkpt>
      <trkpt lat="56.42989500425756" lon="-4.401580011472106">
        <ele>153.94999999999999</ele>
        <time>2023-09-01T14:51:25Z</time>
      </trkpt>
      <trkpt lat="56.430605035275221" lon="-4.396465038880706">
        <ele>152.50999999999999</ele>
        <time>2023-09-01T14:51:38Z</time>
      </trkpt>
      <trkpt lat="56.430998984724283" lon="-4.393417965620756">
        <ele>156.83000000000001</ele>
        <time>2023-09-01T14:51:46Z</time>
      </trkpt>
      <trkpt lat="56.431578006595373" lon="-4.390457980334759">
        <ele>160.68000000000001</ele>
        <time>2023-09-01T14:51:54Z</time>
      </trkpt>
      <trkpt lat="56.433034026995301" lon="-4.385953964665532">
        <ele>165</ele>
        <time>2023-09-01T14:52:07Z</time>
      </trkpt>
      <trkpt lat="56.433795019984245" lon="-4.382624002173543">
        <ele>166.93000000000001</ele>
        <time>2023-09-01T14:52:16Z</time>
      </trkpt>
      <trkpt lat="56.433909013867378" lon="-4.382298029959202">
        <ele>166.93000000000001</ele>
        <time>2023-09-01T14:52:17Z</time>
      </trkpt>
      <trkpt lat="56.43402099609375" lon="-4.381980020552874">
        <ele>167.41</ele>
        <time>2023-09-01T14:52:18Z</time>
      </trkpt>
      <trkpt lat="56.434129038825631" lon="-4.3816729914397">
        <ele>167.41</ele>
        <time>2023-09-01T14:52:19Z</time>
      </trkpt>
      <trkpt lat="56.434212019667029" lon="-4.381336960941553">
        <ele>168.37</ele>
        <time>2023-09-01T14:52:20Z</time>
      </trkpt>
      <trkpt lat="56.434277985244989" lon="-4.380986010655761">
        <ele>168.84999999999999</ele>
        <time>2023-09-01T14:52:21Z</time>
      </trkpt>
      <trkpt lat="56.434346968308091" lon="-4.380622990429401">
        <ele>169.33000000000001</ele>
        <time>2023-09-01T14:52:22Z</time>
      </trkpt>
      <trkpt lat="56.435115002095699" lon="-4.376888014376164">
        <ele>173.16999999999999</ele>
        <time>2023-09-01T14:52:32Z</time>
      </trkpt>
      <trkpt lat="56.436387039721012" lon="-4.3725620303303">
        <ele>173.66</ele>
        <time>2023-09-01T14:52:44Z</time>
      </trkpt>
      <trkpt lat="56.437174016609788" lon="-4.370362032204866">
        <ele>174.13999999999999</ele>
        <time>2023-09-01T14:52:51Z</time>
      </trkpt>
      <trkpt lat="56.437317011877894" lon="-4.370122980326414">
        <ele>174.13999999999999</ele>
        <time>2023-09-01T14:52:52Z</time>
      </trkpt>
      <trkpt lat="56.43748196773231" lon="-4.369916031137109">
        <ele>173.66</ele>
        <time>2023-09-01T14:52:53Z</time>
      </trkpt>
      <trkpt lat="56.43797499127686" lon="-4.369272971525788">
        <ele>172.69</ele>
        <time>2023-09-01T14:52:56Z</time>
      </trkpt>
      <trkpt lat="56.438119998201728" lon="-4.369045989587903">
        <ele>172.21000000000001</ele>
        <time>2023-09-01T14:52:57Z</time>
      </trkpt>
      <trkpt lat="56.438246984034777" lon="-4.368781037628651">
        <ele>171.72999999999999</ele>
        <time>2023-09-01T14:52:58Z</time>
      </trkpt>
      <trkpt lat="56.438345974311233" lon="-4.368462022393942">
        <ele>171.72999999999999</ele>
        <time>2023-09-01T14:52:59Z</time>
      </trkpt>
      <trkpt lat="56.438448987901211" lon="-4.368134960532188">
        <ele>171.25</ele>
        <time>2023-09-01T14:53:00Z</time>
      </trkpt>
      <trkpt lat="56.439425982534885" lon="-4.364913962781429">
        <ele>169.81</ele>
        <time>2023-09-01T14:53:10Z</time>
      </trkpt>
      <trkpt lat="56.440393002703786" lon="-4.36173495836556">
        <ele>171.25</ele>
        <time>2023-09-01T14:53:20Z</time>
      </trkpt>
      <trkpt lat="56.440491992980242" lon="-4.361155014485121">
        <ele>172.69</ele>
        <time>2023-09-01T14:53:22Z</time>
      </trkpt>
      <trkpt lat="56.440511019900441" lon="-4.360868018120527">
        <ele>173.66</ele>
        <time>2023-09-01T14:53:23Z</time>
      </trkpt>
      <trkpt lat="56.44059500657022" lon="-4.35849099420011">
        <ele>182.78999999999999</ele>
        <time>2023-09-01T14:53:33Z</time>
      </trkpt>
      <trkpt lat="56.440606992691755" lon="-4.357426995411515">
        <ele>187.11000000000001</ele>
        <time>2023-09-01T14:53:39Z</time>
      </trkpt>
      <trkpt lat="56.440682010725141" lon="-4.357204958796501">
        <ele>188.08000000000001</ele>
        <time>2023-09-01T14:53:40Z</time>
      </trkpt>
      <trkpt lat="56.440742025151849" lon="-4.357176963239908">
        <ele>188.08000000000001</ele>
        <time>2023-09-01T14:53:41Z</time>
      </trkpt>
      <trkpt lat="56.441363040357828" lon="-4.356600036844611">
        <ele>187.59</ele>
        <time>2023-09-01T14:53:47Z</time>
      </trkpt>
      <trkpt lat="56.442580008879304" lon="-4.35520201921463">
        <ele>181.34999999999999</ele>
        <time>2023-09-01T14:53:55Z</time>
      </trkpt>
      <trkpt lat="56.444392008706927" lon="-4.353106040507555">
        <ele>174.62</ele>
        <time>2023-09-01T14:54:06Z</time>
      </trkpt>
      <trkpt lat="56.445719031617045" lon="-4.351166971027851">
        <ele>171.72999999999999</ele>
        <time>2023-09-01T14:54:15Z</time>
      </trkpt>
      <trkpt lat="56.447015963494778" lon="-4.34922899119556">
        <ele>168.37</ele>
        <time>2023-09-01T14:54:24Z</time>
      </trkpt>
      <trkpt lat="56.448578014969826" lon="-4.347032010555267">
        <ele>158.75</ele>
        <time>2023-09-01T14:54:34Z</time>
      </trkpt>
      <trkpt lat="56.450556982308626" lon="-4.343609008938074">
        <ele>151.06</ele>
        <time>2023-09-01T14:54:48Z</time>
      </trkpt>
      <trkpt lat="56.451902026310563" lon="-4.34016102924943">
        <ele>142.41</ele>
        <time>2023-09-01T14:54:59Z</time>
      </trkpt>
      <trkpt lat="56.452957978472114" lon="-4.338067984208465">
        <ele>140.97</ele>
        <time>2023-09-01T14:55:07Z</time>
      </trkpt>
      <trkpt lat="56.454427996650338" lon="-4.336089016869664">
        <ele>138.09</ele>
        <time>2023-09-01T14:55:16Z</time>
      </trkpt>
      <trkpt lat="56.456826981157064" lon="-4.333018977195025">
        <ele>135.68000000000001</ele>
        <time>2023-09-01T14:55:30Z</time>
      </trkpt>
      <trkpt lat="56.457918975502253" lon="-4.330791989341378">
        <ele>136.16</ele>
        <time>2023-09-01T14:55:38Z</time>
      </trkpt>
      <trkpt lat="56.458655996248126" lon="-4.328150013461709">
        <ele>135.68000000000001</ele>
        <time>2023-09-01T14:55:46Z</time>
      </trkpt>
      <trkpt lat="56.459376001730561" lon="-4.326016986742616">
        <ele>134.72</ele>
        <time>2023-09-01T14:55:53Z</time>
      </trkpt>
      <trkpt lat="56.460064994171262" lon="-4.324750984087586">
        <ele>133.75999999999999</ele>
        <time>2023-09-01T14:56:00Z</time>
      </trkpt>
      <trkpt lat="56.460634963586926" lon="-4.323514988645911">
        <ele>134.24000000000001</ele>
        <time>2023-09-01T14:56:08Z</time>
      </trkpt>
      <trkpt lat="56.461295960471034" lon="-4.321469971910119">
        <ele>134.72</ele>
        <time>2023-09-01T14:56:21Z</time>
      </trkpt>
      <trkpt lat="56.461667027324438" lon="-4.320380995050073">
        <ele>133.28</ele>
        <time>2023-09-01T14:56:29Z</time>
      </trkpt>
      <trkpt lat="56.461724024266005" lon="-4.320222996175289">
        <ele>132.80000000000001</ele>
        <time>2023-09-01T14:56:30Z</time>
      </trkpt>
      <trkpt lat="56.461794013157487" lon="-4.320131968706846">
        <ele>132.31999999999999</ele>
        <time>2023-09-01T14:56:31Z</time>
      </trkpt>
      <trkpt lat="56.462118979543447" lon="-4.319727038964629">
        <ele>130.88</ele>
        <time>2023-09-01T14:56:35Z</time>
      </trkpt>
      <trkpt lat="56.462374040856957" lon="-4.319523023441434">
        <ele>129.43000000000001</ele>
        <time>2023-09-01T14:56:39Z</time>
      </trkpt>
      <trkpt lat="56.462429026141763" lon="-4.319511037319899">
        <ele>129.43000000000001</ele>
        <time>2023-09-01T14:56:40Z</time>
      </trkpt>
      <trkpt lat="56.46248803474009" lon="-4.319565016776323">
        <ele>128.94999999999999</ele>
        <time>2023-09-01T14:56:41Z</time>
      </trkpt>
      <trkpt lat="56.462549977004528" lon="-4.31962201371789">
        <ele>128.94999999999999</ele>
        <time>2023-09-01T14:56:42Z</time>
      </trkpt>
      <trkpt lat="56.462609991431236" lon="-4.319676999002695">
        <ele>128.47</ele>
        <time>2023-09-01T14:56:43Z</time>
      </trkpt>
      <trkpt lat="56.462667994201183" lon="-4.319729972630739">
        <ele>127.98999999999999</ele>
        <time>2023-09-01T14:56:44Z</time>
      </trkpt>
      <trkpt lat="56.462728008627892" lon="-4.319836003705859">
        <ele>127.98999999999999</ele>
        <time>2023-09-01T14:56:45Z</time>
      </trkpt>
      <trkpt lat="56.462777964770794" lon="-4.319927031174302">
        <ele>127.51000000000001</ele>
        <time>2023-09-01T14:56:46Z</time>
      </trkpt>
      <trkpt lat="56.46306898444891" lon="-4.320341013371944">
        <ele>124.63</ele>
        <time>2023-09-01T14:56:56Z</time>
      </trkpt>
      <trkpt lat="56.463195970281959" lon="-4.32048300281167">
        <ele>124.63</ele>
        <time>2023-09-01T14:57:01Z</time>
      </trkpt>
      <trkpt lat="56.463228994980454" lon="-4.320500018075109">
        <ele>124.63</ele>
        <time>2023-09-01T14:57:02Z</time>
      </trkpt>
      <trkpt lat="56.463280040770769" lon="-4.320470010861754">
        <ele>124.63</ele>
        <time>2023-09-01T14:57:03Z</time>
      </trkpt>
      <trkpt lat="56.463336031883955" lon="-4.320434974506497">
        <ele>124.63</ele>
        <time>2023-09-01T14:57:04Z</time>
      </trkpt>
      <trkpt lat="56.463387999683619" lon="-4.320386024191976">
        <ele>124.63</ele>
        <time>2023-09-01T14:57:05Z</time>
      </trkpt>
      <trkpt lat="56.463435022160411" lon="-4.320341013371944">
        <ele>124.63</ele>
        <time>2023-09-01T14:57:06Z</time>
      </trkpt>
      <trkpt lat="56.463469974696636" lon="-4.320307988673449">
        <ele>124.15000000000001</ele>
        <time>2023-09-01T14:57:07Z</time>
      </trkpt>
      <trkpt lat="56.46349897608161" lon="-4.320280998945236">
        <ele>124.15000000000001</ele>
        <time>2023-09-01T14:57:08Z</time>
      </trkpt>
      <trkpt lat="56.463524037972093" lon="-4.320257026702166">
        <ele>123.67</ele>
        <time>2023-09-01T14:57:09Z</time>
      </trkpt>
      <trkpt lat="56.463550021871924" lon="-4.320232970640063">
        <ele>123.67</ele>
        <time>2023-09-01T14:57:10Z</time>
      </trkpt>
      <trkpt lat="56.463616993278265" lon="-4.320170022547245">
        <ele>123.67</ele>
        <time>2023-09-01T14:57:12Z</time>
      </trkpt>
      <trkpt lat="56.464133989065886" lon="-4.319706000387669">
        <ele>122.22</ele>
        <time>2023-09-01T14:57:21Z</time>
      </trkpt>
      <trkpt lat="56.464947033673525" lon="-4.319147011265159">
        <ele>121.73999999999999</ele>
        <time>2023-09-01T14:57:31Z</time>
      </trkpt>
      <trkpt lat="56.465757982805371" lon="-4.318593973293901">
        <ele>120.78</ele>
        <time>2023-09-01T14:57:41Z</time>
      </trkpt>
      <trkpt lat="56.466265004128218" lon="-4.318417031317949">
        <ele>119.34</ele>
        <time>2023-09-01T14:57:47Z</time>
      </trkpt>
      <trkpt lat="56.466349996626377" lon="-4.318402027711272">
        <ele>118.86</ele>
        <time>2023-09-01T14:57:48Z</time>
      </trkpt>
      <trkpt lat="56.466431971639395" lon="-4.318388029932976">
        <ele>118.86</ele>
        <time>2023-09-01T14:57:49Z</time>
      </trkpt>
      <trkpt lat="56.46753896959126" lon="-4.31816297583282">
        <ele>116.94</ele>
        <time>2023-09-01T14:58:02Z</time>
      </trkpt>
      <trkpt lat="56.467668972909451" lon="-4.318082006648183">
        <ele>116.94</ele>
        <time>2023-09-01T14:58:04Z</time>
      </trkpt>
      <trkpt lat="56.467925040051341" lon="-4.317756034433842">
        <ele>115.98</ele>
        <time>2023-09-01T14:58:11Z</time>
      </trkpt>
      <trkpt lat="56.46796896122396" lon="-4.317702976986766">
        <ele>115.98</ele>
        <time>2023-09-01T14:58:12Z</time>
      </trkpt>
      <trkpt lat="56.468023024499416" lon="-4.317636005580425">
        <ele>115.98</ele>
        <time>2023-09-01T14:58:13Z</time>
      </trkpt>
      <trkpt lat="56.468196026980877" lon="-4.317426960915327">
        <ele>115.5</ele>
        <time>2023-09-01T14:58:16Z</time>
      </trkpt>
      <trkpt lat="56.468385038897395" lon="-4.317228980362415">
        <ele>115.01000000000001</ele>
        <time>2023-09-01T14:58:19Z</time>
      </trkpt>
      <trkpt lat="56.468460978940129" lon="-4.317180030047894">
        <ele>115.01000000000001</ele>
        <time>2023-09-01T14:58:20Z</time>
      </trkpt>
      <trkpt lat="56.468539014458656" lon="-4.31713099591434">
        <ele>115.01000000000001</ele>
        <time>2023-09-01T14:58:21Z</time>
      </trkpt>
      <trkpt lat="56.468716962262988" lon="-4.317111968994141">
        <ele>115.01000000000001</ele>
        <time>2023-09-01T14:58:23Z</time>
      </trkpt>
      <trkpt lat="56.468807989731431" lon="-4.317125966772437">
        <ele>115.01000000000001</ele>
        <time>2023-09-01T14:58:24Z</time>
      </trkpt>
      <trkpt lat="56.468899017199874" lon="-4.317179024219513">
        <ele>114.53</ele>
        <time>2023-09-01T14:58:25Z</time>
      </trkpt>
      <trkpt lat="56.469690017402172" lon="-4.318068008869886">
        <ele>115.01000000000001</ele>
        <time>2023-09-01T14:58:34Z</time>
      </trkpt>
      <trkpt lat="56.469753971323371" lon="-4.318237993866205">
        <ele>115.01000000000001</ele>
        <time>2023-09-01T14:58:35Z</time>
      </trkpt>
      <trkpt lat="56.47015898488462" lon="-4.31966501288116">
        <ele>114.53</ele>
        <time>2023-09-01T14:58:42Z</time>
      </trkpt>
      <trkpt lat="56.470240959897637" lon="-4.319831980392337">
        <ele>114.05</ele>
        <time>2023-09-01T14:58:43Z</time>
      </trkpt>
      <trkpt lat="56.470337016507983" lon="-4.31998897343874">
        <ele>114.05</ele>
        <time>2023-09-01T14:58:44Z</time>
      </trkpt>
      <trkpt lat="56.470448998734355" lon="-4.320103973150253">
        <ele>113.56999999999999</ele>
        <time>2023-09-01T14:58:45Z</time>
      </trkpt>
      <trkpt lat="56.470577996224165" lon="-4.320227019488812">
        <ele>113.09</ele>
        <time>2023-09-01T14:58:46Z</time>
      </trkpt>
      <trkpt lat="56.470712022855878" lon="-4.320355011150241">
        <ele>113.09</ele>
        <time>2023-09-01T14:58:47Z</time>
      </trkpt>
      <trkpt lat="56.471518026664853" lon="-4.320963034406304">
        <ele>111.65000000000001</ele>
        <time>2023-09-01T14:58:53Z</time>
      </trkpt>
      <trkpt lat="56.471652975305915" lon="-4.321034029126167">
        <ele>111.17</ele>
        <time>2023-09-01T14:58:54Z</time>
      </trkpt>
      <trkpt lat="56.471793036907911" lon="-4.321089014410973">
        <ele>111.17</ele>
        <time>2023-09-01T14:58:55Z</time>
      </trkpt>
      <trkpt lat="56.472906991839409" lon="-4.321307027712464">
        <ele>111.65000000000001</ele>
        <time>2023-09-01T14:59:03Z</time>
      </trkpt>
      <trkpt lat="56.473031966015697" lon="-4.321378022432327">
        <ele>112.13</ele>
        <time>2023-09-01T14:59:04Z</time>
      </trkpt>
      <trkpt lat="56.474193027243018" lon="-4.322069026529789">
        <ele>113.09</ele>
        <time>2023-09-01T14:59:13Z</time>
      </trkpt>
      <trkpt lat="56.47443501278758" lon="-4.322128035128117">
        <ele>113.56999999999999</ele>
        <time>2023-09-01T14:59:15Z</time>
      </trkpt>
      <trkpt lat="56.475719036534429" lon="-4.322363985702395">
        <ele>115.5</ele>
        <time>2023-09-01T14:59:25Z</time>
      </trkpt>
      <trkpt lat="56.47613100707531" lon="-4.322434980422258">
        <ele>115.98</ele>
        <time>2023-09-01T14:59:28Z</time>
      </trkpt>
      <trkpt lat="56.476263022050261" lon="-4.322470016777515">
        <ele>116.45999999999999</ele>
        <time>2023-09-01T14:59:29Z</time>
      </trkpt>
      <trkpt lat="56.47636896930635" lon="-4.322601025924087">
        <ele>116.94</ele>
        <time>2023-09-01T14:59:30Z</time>
      </trkpt>
      <trkpt lat="56.477253008633852" lon="-4.323622025549412">
        <ele>117.42</ele>
        <time>2023-09-01T14:59:37Z</time>
      </trkpt>
      <trkpt lat="56.477626003324986" lon="-4.323845990002155">
        <ele>116.94</ele>
        <time>2023-09-01T14:59:40Z</time>
      </trkpt>
      <trkpt lat="56.477747960016131" lon="-4.323894018307328">
        <ele>116.94</ele>
        <time>2023-09-01T14:59:41Z</time>
      </trkpt>
      <trkpt lat="56.477874023839831" lon="-4.32389996945858">
        <ele>116.94</ele>
        <time>2023-09-01T14:59:42Z</time>
      </trkpt>
      <trkpt lat="56.478530997410417" lon="-4.323927965015173">
        <ele>119.34</ele>
        <time>2023-09-01T14:59:48Z</time>
      </trkpt>
      <trkpt lat="56.478612972423434" lon="-4.323930982500315">
        <ele>119.34</ele>
        <time>2023-09-01T14:59:49Z</time>
      </trkpt>
      <trkpt lat="56.478717997670174" lon="-4.323936011642218">
        <ele>119.34</ele>
        <time>2023-09-01T14:59:50Z</time>
      </trkpt>
      <trkpt lat="56.478915978223085" lon="-4.323836015537381">
        <ele>119.81999999999999</ele>
        <time>2023-09-01T14:59:52Z</time>
      </trkpt>
      <trkpt lat="56.479023015126586" lon="-4.323783041909337">
        <ele>119.81999999999999</ele>
        <time>2023-09-01T14:59:53Z</time>
      </trkpt>
      <trkpt lat="56.479128040373325" lon="-4.323707018047571">
        <ele>119.81999999999999</ele>
        <time>2023-09-01T14:59:54Z</time>
      </trkpt>
      <trkpt lat="56.479212027043104" lon="-4.323635017499328">
        <ele>119.81999999999999</ele>
        <time>2023-09-01T14:59:55Z</time>
      </trkpt>
      <trkpt lat="56.479303976520896" lon="-4.323504008352757">
        <ele>119.81999999999999</ele>
        <time>2023-09-01T14:59:56Z</time>
      </trkpt>
      <trkpt lat="56.479388969019055" lon="-4.32338297367096">
        <ele>119.34</ele>
        <time>2023-09-01T14:59:57Z</time>
      </trkpt>
      <trkpt lat="56.479469016194344" lon="-4.323269985616207">
        <ele>119.81999999999999</ele>
        <time>2023-09-01T14:59:58Z</time>
      </trkpt>
      <trkpt lat="56.479530036449432" lon="-4.323119027540088">
        <ele>119.81999999999999</ele>
        <time>2023-09-01T14:59:59Z</time>
      </trkpt>
      <trkpt lat="56.479588039219379" lon="-4.322972008958459">
        <ele>119.81999999999999</ele>
        <time>2023-09-01T15:00:00Z</time>
      </trkpt>
      <trkpt lat="56.479645958170295" lon="-4.322829013690352">
        <ele>119.81999999999999</ele>
        <time>2023-09-01T15:00:01Z</time>
      </trkpt>
      <trkpt lat="56.479702033102512" lon="-4.322688030079007">
        <ele>119.81999999999999</ele>
        <time>2023-09-01T15:00:02Z</time>
      </trkpt>
      <trkpt lat="56.479734973981977" lon="-4.322548974305391">
        <ele>119.34</ele>
        <time>2023-09-01T15:00:03Z</time>
      </trkpt>
      <trkpt lat="56.479750983417034" lon="-4.322391981258988">
        <ele>119.34</ele>
        <time>2023-09-01T15:00:04Z</time>
      </trkpt>
      <trkpt lat="56.479766992852092" lon="-4.322244040668011">
        <ele>119.34</ele>
        <time>2023-09-01T15:00:05Z</time>
      </trkpt>
      <trkpt lat="56.479757018387318" lon="-4.32211403734982">
        <ele>119.34</ele>
        <time>2023-09-01T15:00:06Z</time>
      </trkpt>
      <trkpt lat="56.479740003123879" lon="-4.32196500711143">
        <ele>119.34</ele>
        <time>2023-09-01T15:00:07Z</time>
      </trkpt>
      <trkpt lat="56.479718964546919" lon="-4.321839027106762">
        <ele>119.81999999999999</ele>
        <time>2023-09-01T15:00:08Z</time>
      </trkpt>
      <trkpt lat="56.479658028110862" lon="-4.321715980768204">
        <ele>119.81999999999999</ele>
        <time>2023-09-01T15:00:09Z</time>
      </trkpt>
      <trkpt lat="56.479590972885489" lon="-4.321583965793252">
        <ele>119.81999999999999</ele>
        <time>2023-09-01T15:00:10Z</time>
      </trkpt>
      <trkpt lat="56.479525007307529" lon="-4.321451028808951">
        <ele>120.3</ele>
        <time>2023-09-01T15:00:11Z</time>
      </trkpt>
      <trkpt lat="56.47933398373425" lon="-4.321068981662393">
        <ele>121.26000000000001</ele>
        <time>2023-09-01T15:00:14Z</time>
      </trkpt>
      <trkpt lat="56.479281010106206" lon="-4.320905031636357">
        <ele>121.73999999999999</ele>
        <time>2023-09-01T15:00:15Z</time>
      </trkpt>
      <trkpt lat="56.479253014549613" lon="-4.320753989741206">
        <ele>122.22</ele>
        <time>2023-09-01T15:00:16Z</time>
      </trkpt>
      <trkpt lat="56.479226024821401" lon="-4.3206109944731">
        <ele>122.22</ele>
        <time>2023-09-01T15:00:17Z</time>
      </trkpt>
      <trkpt lat="56.479189982637763" lon="-4.32041703723371">
        <ele>122.22</ele>
        <time>2023-09-01T15:00:18Z</time>
      </trkpt>
      <trkpt lat="56.479210015386343" lon="-4.320277981460095">
        <ele>122.22</ele>
        <time>2023-09-01T15:00:19Z</time>
      </trkpt>
      <trkpt lat="56.479232981801033" lon="-4.32011503726244">
        <ele>122.22</ele>
        <time>2023-09-01T15:00:20Z</time>
      </trkpt>
      <trkpt lat="56.479257959872484" lon="-4.319941028952599">
        <ele>121.73999999999999</ele>
        <time>2023-09-01T15:00:21Z</time>
      </trkpt>
      <trkpt lat="56.479530958458781" lon="-4.318995969370008">
        <ele>123.67</ele>
        <time>2023-09-01T15:00:26Z</time>
      </trkpt>
      <trkpt lat="56.479589967057109" lon="-4.318825984373689">
        <ele>124.63</ele>
        <time>2023-09-01T15:00:27Z</time>
      </trkpt>
      <trkpt lat="56.479646963998675" lon="-4.318660022690892">
        <ele>125.59</ele>
        <time>2023-09-01T15:00:28Z</time>
      </trkpt>
      <trkpt lat="56.480047032237053" lon="-4.317482030019164">
        <ele>131.84</ele>
        <time>2023-09-01T15:00:34Z</time>
      </trkpt>
      <trkpt lat="56.480404017493129" lon="-4.316054005175829">
        <ele>139.53</ele>
        <time>2023-09-01T15:00:40Z</time>
      </trkpt>
      <trkpt lat="56.480671986937523" lon="-4.31498003192246">
        <ele>144.81999999999999</ele>
        <time>2023-09-01T15:00:45Z</time>
      </trkpt>
      <trkpt lat="56.481328038498759" lon="-4.313136013224721">
        <ele>154.91</ele>
        <time>2023-09-01T15:00:53Z</time>
      </trkpt>
      <trkpt lat="56.481620986014605" lon="-4.312301008030772">
        <ele>159.72</ele>
        <time>2023-09-01T15:00:57Z</time>
      </trkpt>
      <trkpt lat="56.481831036508083" lon="-4.311692984774709">
        <ele>162.59999999999999</ele>
        <time>2023-09-01T15:01:00Z</time>
      </trkpt>
      <trkpt lat="56.481866994872689" lon="-4.311469020321965">
        <ele>163.56</ele>
        <time>2023-09-01T15:01:01Z</time>
      </trkpt>
      <trkpt lat="56.482123984023929" lon="-4.309916021302342">
        <ele>169.33000000000001</ele>
        <time>2023-09-01T15:01:07Z</time>
      </trkpt>
      <trkpt lat="56.482571996748447" lon="-4.307730020955205">
        <ele>177.02000000000001</ele>
        <time>2023-09-01T15:01:16Z</time>
      </trkpt>
      <trkpt lat="56.482818005606532" lon="-4.306090017780662">
        <ele>177.97999999999999</ele>
        <time>2023-09-01T15:01:22Z</time>
      </trkpt>
      <trkpt lat="56.483024032786489" lon="-4.303741995245218">
        <ele>178.46000000000001</ele>
        <time>2023-09-01T15:01:28Z</time>
      </trkpt>
      <trkpt lat="56.483383029699326" lon="-4.30073699913919">
        <ele>183.75</ele>
        <time>2023-09-01T15:01:37Z</time>
      </trkpt>
      <trkpt lat="56.483773961663246" lon="-4.297245014458895">
        <ele>187.11000000000001</ele>
        <time>2023-09-01T15:01:48Z</time>
      </trkpt>
      <trkpt lat="56.484024999663234" lon="-4.294873019680381">
        <ele>183.75</ele>
        <time>2023-09-01T15:01:56Z</time>
      </trkpt>
      <trkpt lat="56.484048971906304" lon="-4.294650983065367">
        <ele>183.27000000000001</ele>
        <time>2023-09-01T15:01:57Z</time>
      </trkpt>
      <trkpt lat="56.484090965241194" lon="-4.294448979198933">
        <ele>182.78999999999999</ele>
        <time>2023-09-01T15:01:58Z</time>
      </trkpt>
      <trkpt lat="56.484158020466566" lon="-4.294247981160879">
        <ele>181.83000000000001</ele>
        <time>2023-09-01T15:01:59Z</time>
      </trkpt>
      <trkpt lat="56.484241001307964" lon="-4.294050000607967">
        <ele>181.34999999999999</ele>
        <time>2023-09-01T15:02:00Z</time>
      </trkpt>
      <trkpt lat="56.48433898575604" lon="-4.293853025883436">
        <ele>180.87</ele>
        <time>2023-09-01T15:02:01Z</time>
      </trkpt>
      <trkpt lat="56.484444011002779" lon="-4.293643981218338">
        <ele>179.90000000000001</ele>
        <time>2023-09-01T15:02:02Z</time>
      </trkpt>
      <trkpt lat="56.484750034287572" lon="-4.292952977120876">
        <ele>177.97999999999999</ele>
        <time>2023-09-01T15:02:05Z</time>
      </trkpt>
      <trkpt lat="56.484821029007435" lon="-4.292684001848102">
        <ele>177.5</ele>
        <time>2023-09-01T15:02:06Z</time>
      </trkpt>
      <trkpt lat="56.484892023727298" lon="-4.292414020746946">
        <ele>177.02000000000001</ele>
        <time>2023-09-01T15:02:07Z</time>
      </trkpt>
      <trkpt lat="56.484911972656846" lon="-4.292106991633773">
        <ele>176.53999999999999</ele>
        <time>2023-09-01T15:02:08Z</time>
      </trkpt>
      <trkpt lat="56.484928987920284" lon="-4.291787976399064">
        <ele>176.06</ele>
        <time>2023-09-01T15:02:09Z</time>
      </trkpt>
      <trkpt lat="56.484937034547329" lon="-4.291468039155006">
        <ele>175.58000000000001</ele>
        <time>2023-09-01T15:02:10Z</time>
      </trkpt>
      <trkpt lat="56.484923958778381" lon="-4.291140977293253">
        <ele>175.58000000000001</ele>
        <time>2023-09-01T15:02:11Z</time>
      </trkpt>
      <trkpt lat="56.484930999577045" lon="-4.288226002827287">
        <ele>174.62</ele>
        <time>2023-09-01T15:02:20Z</time>
      </trkpt>
      <trkpt lat="56.485400972887874" lon="-4.286061963066459">
        <ele>173.66</ele>
        <time>2023-09-01T15:02:27Z</time>
      </trkpt>
      <trkpt lat="56.485987035557628" lon="-4.284044019877911">
        <ele>174.62</ele>
        <time>2023-09-01T15:02:34Z</time>
      </trkpt>
      <trkpt lat="56.487018009647727" lon="-4.281455017626286">
        <ele>173.66</ele>
        <time>2023-09-01T15:02:43Z</time>
      </trkpt>
      <trkpt lat="56.487483959645033" lon="-4.280309965834022">
        <ele>171.25</ele>
        <time>2023-09-01T15:02:47Z</time>
      </trkpt>
      <trkpt lat="56.487589990720153" lon="-4.28004995919764">
        <ele>170.28999999999999</ele>
        <time>2023-09-01T15:02:48Z</time>
      </trkpt>
      <trkpt lat="56.487719994038343" lon="-4.279797999188304">
        <ele>169.81</ele>
        <time>2023-09-01T15:02:49Z</time>
      </trkpt>
      <trkpt lat="56.488392977043986" lon="-4.278576001524925">
        <ele>165.96000000000001</ele>
        <time>2023-09-01T15:02:54Z</time>
      </trkpt>
      <trkpt lat="56.488502025604248" lon="-4.278313983231783">
        <ele>165</ele>
        <time>2023-09-01T15:02:55Z</time>
      </trkpt>
      <trkpt lat="56.488837972283363" lon="-4.277308993041515">
        <ele>164.03999999999999</ele>
        <time>2023-09-01T15:02:59Z</time>
      </trkpt>
      <trkpt lat="56.48889496922493" lon="-4.277033982798457">
        <ele>164.03999999999999</ele>
        <time>2023-09-01T15:03:00Z</time>
      </trkpt>
      <trkpt lat="56.488945009186864" lon="-4.276753021404147">
        <ele>164.52000000000001</ele>
        <time>2023-09-01T15:03:01Z</time>
      </trkpt>
      <trkpt lat="56.48902203887701" lon="-4.276153966784477">
        <ele>165.47999999999999</ele>
        <time>2023-09-01T15:03:03Z</time>
      </trkpt>
      <trkpt lat="56.489061014726758" lon="-4.275851966813207">
        <ele>165.96000000000001</ele>
        <time>2023-09-01T15:03:04Z</time>
      </trkpt>
      <trkpt lat="56.489458987489343" lon="-4.272930035367608">
        <ele>168.84999999999999</ele>
        <time>2023-09-01T15:03:13Z</time>
      </trkpt>
      <trkpt lat="56.48996802046895" lon="-4.269420029595494">
        <ele>172.69</ele>
        <time>2023-09-01T15:03:24Z</time>
      </trkpt>
      <trkpt lat="56.490571014583111" lon="-4.266652995720506">
        <ele>175.09999999999999</ele>
        <time>2023-09-01T15:03:33Z</time>
      </trkpt>
      <trkpt lat="56.491587990894914" lon="-4.263785965740681">
        <ele>173.16999999999999</ele>
        <time>2023-09-01T15:03:43Z</time>
      </trkpt>
      <trkpt lat="56.492658024653792" lon="-4.261530982330442">
        <ele>169.33000000000001</ele>
        <time>2023-09-01T15:03:52Z</time>
      </trkpt>
      <trkpt lat="56.494004996493459" lon="-4.258730001747608">
        <ele>165.96000000000001</ele>
        <time>2023-09-01T15:04:03Z</time>
      </trkpt>
      <trkpt lat="56.495255995541811" lon="-4.256388014182448">
        <ele>166.44999999999999</ele>
        <time>2023-09-01T15:04:13Z</time>
      </trkpt>
      <trkpt lat="56.496218992397189" lon="-4.25443603657186">
        <ele>170.77000000000001</ele>
        <time>2023-09-01T15:04:21Z</time>
      </trkpt>
      <trkpt lat="56.49684595875442" lon="-4.252830985933542">
        <ele>174.62</ele>
        <time>2023-09-01T15:04:27Z</time>
      </trkpt>
      <trkpt lat="56.496952995657921" lon="-4.252557987347245">
        <ele>175.09999999999999</ele>
        <time>2023-09-01T15:04:28Z</time>
      </trkpt>
      <trkpt lat="56.497469991445541" lon="-4.251243034377694">
        <ele>178.46000000000001</ele>
        <time>2023-09-01T15:04:33Z</time>
      </trkpt>
      <trkpt lat="56.497819013893604" lon="-4.250368969514966">
        <ele>181.34999999999999</ele>
        <time>2023-09-01T15:04:37Z</time>
      </trkpt>
      <trkpt lat="56.497906018048525" lon="-4.250134024769068">
        <ele>182.31</ele>
        <time>2023-09-01T15:04:38Z</time>
      </trkpt>
      <trkpt lat="56.49823903106153" lon="-4.248122032731772">
        <ele>185.19</ele>
        <time>2023-09-01T15:04:45Z</time>
      </trkpt>
      <trkpt lat="56.498279012739658" lon="-4.24784098751843">
        <ele>185.19</ele>
        <time>2023-09-01T15:04:46Z</time>
      </trkpt>
      <trkpt lat="56.498589981347322" lon="-4.245117958635092">
        <ele>188.08000000000001</ele>
        <time>2023-09-01T15:04:55Z</time>
      </trkpt>
      <trkpt lat="56.498627029359341" lon="-4.24457598477602">
        <ele>188.56</ele>
        <time>2023-09-01T15:04:57Z</time>
      </trkpt>
      <trkpt lat="56.498618982732296" lon="-4.24431698396802">
        <ele>189.03999999999999</ele>
        <time>2023-09-01T15:04:58Z</time>
      </trkpt>
      <trkpt lat="56.498611019924283" lon="-4.244052032008767">
        <ele>189.52000000000001</ele>
        <time>2023-09-01T15:04:59Z</time>
      </trkpt>
      <trkpt lat="56.498555028811097" lon="-4.24354400485754">
        <ele>190</ele>
        <time>2023-09-01T15:05:01Z</time>
      </trkpt>
      <trkpt lat="56.498366016894579" lon="-4.242085972800851">
        <ele>190.96000000000001</ele>
        <time>2023-09-01T15:05:07Z</time>
      </trkpt>
      <trkpt lat="56.498356964439154" lon="-4.241816997528076">
        <ele>191.44</ele>
        <time>2023-09-01T15:05:08Z</time>
      </trkpt>
      <trkpt lat="56.498537007719278" lon="-4.239501999691129">
        <ele>193.36000000000001</ele>
        <time>2023-09-01T15:05:15Z</time>
      </trkpt>
      <trkpt lat="56.498825009912252" lon="-4.237295966595411">
        <ele>197.21000000000001</ele>
        <time>2023-09-01T15:05:22Z</time>
      </trkpt>
      <trkpt lat="56.499664038419724" lon="-4.234559023752809">
        <ele>202.49000000000001</ele>
        <time>2023-09-01T15:05:32Z</time>
      </trkpt>
      <trkpt lat="56.50068998336792" lon="-4.230604022741318">
        <ele>214.50999999999999</ele>
        <time>2023-09-01T15:05:45Z</time>
      </trkpt>
      <trkpt lat="56.501477966085076" lon="-4.227918041869998">
        <ele>223.63999999999999</ele>
        <time>2023-09-01T15:05:55Z</time>
      </trkpt>
      <trkpt lat="56.502775987610221" lon="-4.225657023489475">
        <ele>232.30000000000001</ele>
        <time>2023-09-01T15:06:05Z</time>
      </trkpt>
      <trkpt lat="56.504542976617813" lon="-4.222545996308327">
        <ele>245.75</ele>
        <time>2023-09-01T15:06:19Z</time>
      </trkpt>
      <trkpt lat="56.505312016233802" lon="-4.220709018409252">
        <ele>252.96000000000001</ele>
        <time>2023-09-01T15:06:26Z</time>
      </trkpt>
      <trkpt lat="56.506165964528918" lon="-4.218400977551937">
        <ele>256.81</ele>
        <time>2023-09-01T15:06:34Z</time>
      </trkpt>
      <trkpt lat="56.506926035508513" lon="-4.216583026573062">
        <ele>256.32999999999998</ele>
        <time>2023-09-01T15:06:41Z</time>
      </trkpt>
      <trkpt lat="56.508246017619967" lon="-4.214250007644296">
        <ele>249.59999999999999</ele>
        <time>2023-09-01T15:06:51Z</time>
      </trkpt>
      <trkpt lat="56.509389979764819" lon="-4.211765024811029">
        <ele>243.83000000000001</ele>
        <time>2023-09-01T15:07:01Z</time>
      </trkpt>
      <trkpt lat="56.510262032970786" lon="-4.208513014018536">
        <ele>238.06</ele>
        <time>2023-09-01T15:07:12Z</time>
      </trkpt>
      <trkpt lat="56.510908026248217" lon="-4.205826027318835">
        <ele>237.09999999999999</ele>
        <time>2023-09-01T15:07:21Z</time>
      </trkpt>
      <trkpt lat="56.511461986228824" lon="-4.202708965167403">
        <ele>236.62</ele>
        <time>2023-09-01T15:07:31Z</time>
      </trkpt>
      <trkpt lat="56.512029021978378" lon="-4.199218992143869">
        <ele>234.69999999999999</ele>
        <time>2023-09-01T15:07:42Z</time>
      </trkpt>
      <trkpt lat="56.512929992750287" lon="-4.19496601447463">
        <ele>232.30000000000001</ele>
        <time>2023-09-01T15:07:56Z</time>
      </trkpt>
      <trkpt lat="56.513814032077789" lon="-4.191970992833376">
        <ele>231.33000000000001</ele>
        <time>2023-09-01T15:08:06Z</time>
      </trkpt>
      <trkpt lat="56.51508598588407" lon="-4.187980033457279">
        <ele>221.72</ele>
        <time>2023-09-01T15:08:19Z</time>
      </trkpt>
      <trkpt lat="56.51611402630806" lon="-4.184003993868828">
        <ele>216.91</ele>
        <time>2023-09-01T15:08:32Z</time>
      </trkpt>
      <trkpt lat="56.516821961849928" lon="-4.180967984721065">
        <ele>220.75999999999999</ele>
        <time>2023-09-01T15:08:42Z</time>
      </trkpt>
      <trkpt lat="56.517522018402815" lon="-4.177850000560284">
        <ele>224.12</ele>
        <time>2023-09-01T15:08:52Z</time>
      </trkpt>
      <trkpt lat="56.518591968342662" lon="-4.173663994297385">
        <ele>227.49000000000001</ele>
        <time>2023-09-01T15:09:06Z</time>
      </trkpt>
      <trkpt lat="56.519710030406713" lon="-4.16993698105216">
        <ele>230.84999999999999</ele>
        <time>2023-09-01T15:09:18Z</time>
      </trkpt>
      <trkpt lat="56.520647965371609" lon="-4.16722702793777">
        <ele>230.84999999999999</ele>
        <time>2023-09-01T15:09:28Z</time>
      </trkpt>
      <trkpt lat="56.520746033638716" lon="-4.166989987716079">
        <ele>230.84999999999999</ele>
        <time>2023-09-01T15:09:29Z</time>
      </trkpt>
      <trkpt lat="56.5208659786731" lon="-4.166796030476689">
        <ele>230.84999999999999</ele>
        <time>2023-09-01T15:09:30Z</time>
      </trkpt>
      <trkpt lat="56.522127036005259" lon="-4.164861990138888">
        <ele>227.49000000000001</ele>
        <time>2023-09-01T15:09:40Z</time>
      </trkpt>
      <trkpt lat="56.52247304096818" lon="-4.164206022396684">
        <ele>226.05000000000001</ele>
        <time>2023-09-01T15:09:43Z</time>
      </trkpt>
      <trkpt lat="56.522676972672343" lon="-4.163700006902218">
        <ele>224.61000000000001</ele>
        <time>2023-09-01T15:09:45Z</time>
      </trkpt>
      <trkpt lat="56.523338975384831" lon="-4.161053001880646">
        <ele>220.28</ele>
        <time>2023-09-01T15:09:53Z</time>
      </trkpt>
      <trkpt lat="56.523985974490643" lon="-4.158107014372945">
        <ele>216.91</ele>
        <time>2023-09-01T15:10:02Z</time>
      </trkpt>
      <trkpt lat="56.524081025272608" lon="-4.157843990251422">
        <ele>216.43000000000001</ele>
        <time>2023-09-01T15:10:03Z</time>
      </trkpt>
      <trkpt lat="56.524993982166052" lon="-4.155966024845839">
        <ele>212.59</ele>
        <time>2023-09-01T15:10:11Z</time>
      </trkpt>
      <trkpt lat="56.526004001498222" lon="-4.154516961425543">
        <ele>206.81999999999999</ele>
        <time>2023-09-01T15:10:20Z</time>
      </trkpt>
      <trkpt lat="56.526854010298848" lon="-4.153429996222258">
        <ele>200.09</ele>
        <time>2023-09-01T15:10:30Z</time>
      </trkpt>
      <trkpt lat="56.527595976367593" lon="-4.152555009350181">
        <ele>194.31999999999999</ele>
        <time>2023-09-01T15:10:41Z</time>
      </trkpt>
      <trkpt lat="56.527816001325846" lon="-4.152348982170224">
        <ele>192.88</ele>
        <time>2023-09-01T15:10:44Z</time>
      </trkpt>
      <trkpt lat="56.527903005480766" lon="-4.152311012148857">
        <ele>192.40000000000001</ele>
        <time>2023-09-01T15:10:45Z</time>
      </trkpt>
      <trkpt lat="56.528646983206272" lon="-4.152098027989268">
        <ele>190.47999999999999</ele>
        <time>2023-09-01T15:10:54Z</time>
      </trkpt>
      <trkpt lat="56.529675023630261" lon="-4.151985961943865">
        <ele>190.47999999999999</ele>
        <time>2023-09-01T15:11:05Z</time>
      </trkpt>
      <trkpt lat="56.53072795830667" lon="-4.151807008311153">
        <ele>187.59</ele>
        <time>2023-09-01T15:11:15Z</time>
      </trkpt>
      <trkpt lat="56.531397001817822" lon="-4.15141498669982">
        <ele>185.19</ele>
        <time>2023-09-01T15:11:23Z</time>
      </trkpt>
      <trkpt lat="56.531486017629504" lon="-4.151314990594983">
        <ele>184.71000000000001</ele>
        <time>2023-09-01T15:11:24Z</time>
      </trkpt>
      <trkpt lat="56.531926989555359" lon="-4.150504963472486">
        <ele>183.75</ele>
        <time>2023-09-01T15:11:30Z</time>
      </trkpt>
      <trkpt lat="56.531993038952351" lon="-4.150373032316566">
        <ele>184.22999999999999</ele>
        <time>2023-09-01T15:11:31Z</time>
      </trkpt>
      <trkpt lat="56.532700974494219" lon="-4.148976020514965">
        <ele>182.31</ele>
        <time>2023-09-01T15:11:43Z</time>
      </trkpt>
      <trkpt lat="56.532869031652808" lon="-4.148590033873916">
        <ele>181.83000000000001</ele>
        <time>2023-09-01T15:11:46Z</time>
      </trkpt>
      <trkpt lat="56.532965004444122" lon="-4.148265989497304">
        <ele>181.34999999999999</ele>
        <time>2023-09-01T15:11:48Z</time>
      </trkpt>
      <trkpt lat="56.533140018582344" lon="-4.147532992064953">
        <ele>181.34999999999999</ele>
        <time>2023-09-01T15:11:52Z</time>
      </trkpt>
      <trkpt lat="56.53358300216496" lon="-4.145840015262365">
        <ele>183.75</ele>
        <time>2023-09-01T15:12:01Z</time>
      </trkpt>
      <trkpt lat="56.533657014369965" lon="-4.145625019446015">
        <ele>183.75</ele>
        <time>2023-09-01T15:12:02Z</time>
      </trkpt>
      <trkpt lat="56.533831022679806" lon="-4.145189998671413">
        <ele>184.71000000000001</ele>
        <time>2023-09-01T15:12:04Z</time>
      </trkpt>
      <trkpt lat="56.534514985978603" lon="-4.143993984907866">
        <ele>186.15000000000001</ele>
        <time>2023-09-01T15:12:10Z</time>
      </trkpt>
      <trkpt lat="56.534629985690117" lon="-4.14383196271956">
        <ele>186.63</ele>
        <time>2023-09-01T15:12:11Z</time>
      </trkpt>
      <trkpt lat="56.535745030269027" lon="-4.142320035025477">
        <ele>187.11000000000001</ele>
        <time>2023-09-01T15:12:21Z</time>
      </trkpt>
      <trkpt lat="56.537248995155096" lon="-4.140374008566141">
        <ele>190</ele>
        <time>2023-09-01T15:12:32Z</time>
      </trkpt>
      <trkpt lat="56.538872988894582" lon="-4.138107039034367">
        <ele>194.31999999999999</ele>
        <time>2023-09-01T15:12:43Z</time>
      </trkpt>
      <trkpt lat="56.54039497487247" lon="-4.135441007092595">
        <ele>197.69</ele>
        <time>2023-09-01T15:12:54Z</time>
      </trkpt>
      <trkpt lat="56.541975969448686" lon="-4.132484961301088">
        <ele>191.91999999999999</ele>
        <time>2023-09-01T15:13:07Z</time>
      </trkpt>
      <trkpt lat="56.543840020895004" lon="-4.129261029884219">
        <ele>183.27000000000001</ele>
        <time>2023-09-01T15:13:22Z</time>
      </trkpt>
      <trkpt lat="56.545713040977716" lon="-4.126976039260626">
        <ele>176.53999999999999</ele>
        <time>2023-09-01T15:13:35Z</time>
      </trkpt>
      <trkpt lat="56.54752504080534" lon="-4.125240985304117">
        <ele>174.62</ele>
        <time>2023-09-01T15:13:47Z</time>
      </trkpt>
      <trkpt lat="56.548243034631014" lon="-4.124590968713164">
        <ele>172.69</ele>
        <time>2023-09-01T15:13:52Z</time>
      </trkpt>
      <trkpt lat="56.548817027360201" lon="-4.124081013724208">
        <ele>171.25</ele>
        <time>2023-09-01T15:13:56Z</time>
      </trkpt>
      <trkpt lat="56.548964967951179" lon="-4.123961990699172">
        <ele>171.25</ele>
        <time>2023-09-01T15:13:57Z</time>
      </trkpt>
      <trkpt lat="56.550353011116385" lon="-4.122843006625772">
        <ele>170.28999999999999</ele>
        <time>2023-09-01T15:14:06Z</time>
      </trkpt>
      <trkpt lat="56.552112959325314" lon="-4.121564012020826">
        <ele>166.93000000000001</ele>
        <time>2023-09-01T15:14:17Z</time>
      </trkpt>
      <trkpt lat="56.552948970347643" lon="-4.121075011789799">
        <ele>165.96000000000001</ele>
        <time>2023-09-01T15:14:22Z</time>
      </trkpt>
      <trkpt lat="56.553119961172342" lon="-4.120976021513343">
        <ele>165.96000000000001</ele>
        <time>2023-09-01T15:14:23Z</time>
      </trkpt>
      <trkpt lat="56.55345699749887" lon="-4.12077896296978">
        <ele>165.47999999999999</ele>
        <time>2023-09-01T15:14:25Z</time>
      </trkpt>
      <trkpt lat="56.55472400598228" lon="-4.119658973067999">
        <ele>164.03999999999999</ele>
        <time>2023-09-01T15:14:33Z</time>
      </trkpt>
      <trkpt lat="56.55571399256587" lon="-4.118367992341518">
        <ele>163.08000000000001</ele>
        <time>2023-09-01T15:14:40Z</time>
      </trkpt>
      <trkpt lat="56.557376040145755" lon="-4.115731967613101">
        <ele>160.19999999999999</ele>
        <time>2023-09-01T15:14:52Z</time>
      </trkpt>
      <trkpt lat="56.558360997587442" lon="-4.114291034638882">
        <ele>157.31</ele>
        <time>2023-09-01T15:14:59Z</time>
      </trkpt>
      <trkpt lat="56.559134982526302" lon="-4.113380005583167">
        <ele>153.47</ele>
        <time>2023-09-01T15:15:04Z</time>
      </trkpt>
      <trkpt lat="56.55945198610425" lon="-4.113006005063653">
        <ele>152.03</ele>
        <time>2023-09-01T15:15:06Z</time>
      </trkpt>
      <trkpt lat="56.560867018997669" lon="-4.111144971102476">
        <ele>143.37</ele>
        <time>2023-09-01T15:15:15Z</time>
      </trkpt>
      <trkpt lat="56.562060015276074" lon="-4.109301036223769">
        <ele>133.28</ele>
        <time>2023-09-01T15:15:24Z</time>
      </trkpt>
      <trkpt lat="56.562611041590571" lon="-4.108459996059537">
        <ele>128.47</ele>
        <time>2023-09-01T15:15:28Z</time>
      </trkpt>
      <trkpt lat="56.563458032906055" lon="-4.107167003676295">
        <ele>123.67</ele>
        <time>2023-09-01T15:15:34Z</time>
      </trkpt>
      <trkpt lat="56.564446007832885" lon="-4.105658009648323">
        <ele>116.45999999999999</ele>
        <time>2023-09-01T15:15:41Z</time>
      </trkpt>
      <trkpt lat="56.565466001629829" lon="-4.10412697121501">
        <ele>109.73</ele>
        <time>2023-09-01T15:15:48Z</time>
      </trkpt>
      <trkpt lat="56.566624967381358" lon="-4.102431982755661">
        <ele>103.95999999999999</ele>
        <time>2023-09-01T15:15:56Z</time>
      </trkpt>
      <trkpt lat="56.566773997619748" lon="-4.102229978889227">
        <ele>103.48</ele>
        <time>2023-09-01T15:15:57Z</time>
      </trkpt>
      <trkpt lat="56.567934975028038" lon="-4.100654013454914">
        <ele>101.08</ele>
        <time>2023-09-01T15:16:05Z</time>
      </trkpt>
      <trkpt lat="56.569255962967873" lon="-4.098731959238648">
        <ele>101.08</ele>
        <time>2023-09-01T15:16:14Z</time>
      </trkpt>
      <trkpt lat="56.570002036169171" lon="-4.097340982407332">
        <ele>101.56</ele>
        <time>2023-09-01T15:16:20Z</time>
      </trkpt>
      <trkpt lat="56.570233963429928" lon="-4.096852988004684">
        <ele>101.08</ele>
        <time>2023-09-01T15:16:22Z</time>
      </trkpt>
      <trkpt lat="56.570362038910389" lon="-4.096646960824728">
        <ele>101.08</ele>
        <time>2023-09-01T15:16:23Z</time>
      </trkpt>
      <trkpt lat="56.570497993379831" lon="-4.096442023292184">
        <ele>100.59999999999999</ele>
        <time>2023-09-01T15:16:24Z</time>
      </trkpt>
      <trkpt lat="56.570632020011544" lon="-4.09624001942575">
        <ele>100.59999999999999</ele>
        <time>2023-09-01T15:16:25Z</time>
      </trkpt>
      <trkpt lat="56.570764034986496" lon="-4.096042038872838">
        <ele>100.11</ele>
        <time>2023-09-01T15:16:26Z</time>
      </trkpt>
      <trkpt lat="56.571541959419847" lon="-4.094867985695601">
        <ele>95.310000000000002</ele>
        <time>2023-09-01T15:16:33Z</time>
      </trkpt>
      <trkpt lat="56.572114024311304" lon="-4.093931978568435">
        <ele>92.900000000000006</ele>
        <time>2023-09-01T15:16:39Z</time>
      </trkpt>
      <trkpt lat="56.572204967960715" lon="-4.093754030764103">
        <ele>92.900000000000006</ele>
        <time>2023-09-01T15:16:40Z</time>
      </trkpt>
      <trkpt lat="56.572614004835486" lon="-4.092426002025604">
        <ele>91.459999999999994</ele>
        <time>2023-09-01T15:16:46Z</time>
      </trkpt>
      <trkpt lat="56.572660021483898" lon="-4.092167001217604">
        <ele>91.939999999999998</ele>
        <time>2023-09-01T15:16:47Z</time>
      </trkpt>
      <trkpt lat="56.572680976241827" lon="-4.091896014288068">
        <ele>92.420000000000002</ele>
        <time>2023-09-01T15:16:48Z</time>
      </trkpt>
      <trkpt lat="56.572680976241827" lon="-4.09162100404501">
        <ele>93.390000000000001</ele>
        <time>2023-09-01T15:16:49Z</time>
      </trkpt>
      <trkpt lat="56.572680976241827" lon="-4.091362003237009">
        <ele>94.349999999999994</ele>
        <time>2023-09-01T15:16:50Z</time>
      </trkpt>
      <trkpt lat="56.572700003162026" lon="-4.090689020231366">
        <ele>96.75</ele>
        <time>2023-09-01T15:16:53Z</time>
      </trkpt>
      <trkpt lat="56.572721963748336" lon="-4.090517023578286">
        <ele>96.75</ele>
        <time>2023-09-01T15:16:54Z</time>
      </trkpt>
      <trkpt lat="56.572741996496916" lon="-4.090356007218361">
        <ele>97.230000000000004</ele>
        <time>2023-09-01T15:16:55Z</time>
      </trkpt>
      <trkpt lat="56.5728360414505" lon="-4.089791988953948">
        <ele>99.150000000000006</ele>
        <time>2023-09-01T15:16:59Z</time>
      </trkpt>
      <trkpt lat="56.572863031178713" lon="-4.089649999514222">
        <ele>99.629999999999995</ele>
        <time>2023-09-01T15:17:00Z</time>
      </trkpt>
      <trkpt lat="56.572891026735306" lon="-4.089503986760974">
        <ele>100.11</ele>
        <time>2023-09-01T15:17:01Z</time>
      </trkpt>
      <trkpt lat="56.573214987292886" lon="-4.087812015786767">
        <ele>105.88</ele>
        <time>2023-09-01T15:17:11Z</time>
      </trkpt>
      <trkpt lat="56.573655037209392" lon="-4.085808992385864">
        <ele>105.88</ele>
        <time>2023-09-01T15:17:23Z</time>
      </trkpt>
      <trkpt lat="56.573834996670485" lon="-4.084652038291097">
        <ele>106.84</ele>
        <time>2023-09-01T15:17:30Z</time>
      </trkpt>
      <trkpt lat="56.573851006105542" lon="-4.084486998617649">
        <ele>106.84</ele>
        <time>2023-09-01T15:17:31Z</time>
      </trkpt>
      <trkpt lat="56.573820998892188" lon="-4.082859987393022">
        <ele>107.31999999999999</ele>
        <time>2023-09-01T15:17:40Z</time>
      </trkpt>
      <trkpt lat="56.573812030255795" lon="-4.082529991865158">
        <ele>107.81</ele>
        <time>2023-09-01T15:17:42Z</time>
      </trkpt>
      <trkpt lat="56.573807001113892" lon="-4.082353971898556">
        <ele>108.29000000000001</ele>
        <time>2023-09-01T15:17:43Z</time>
      </trkpt>
      <trkpt lat="56.573801971971989" lon="-4.082176024094224">
        <ele>108.29000000000001</ele>
        <time>2023-09-01T15:17:44Z</time>
      </trkpt>
      <trkpt lat="56.573756039142609" lon="-4.080475000664592">
        <ele>109.73</ele>
        <time>2023-09-01T15:17:53Z</time>
      </trkpt>
      <trkpt lat="56.573708010837436" lon="-4.078486980870366">
        <ele>111.17</ele>
        <time>2023-09-01T15:18:04Z</time>
      </trkpt>
      <trkpt lat="56.573670962825418" lon="-4.076718986034393">
        <ele>116.45999999999999</ele>
        <time>2023-09-01T15:18:14Z</time>
      </trkpt>
      <trkpt lat="56.573683032765985" lon="-4.07634599134326">
        <ele>117.42</ele>
        <time>2023-09-01T15:18:16Z</time>
      </trkpt>
      <trkpt lat="56.573687978088856" lon="-4.076156979426742">
        <ele>118.38</ele>
        <time>2023-09-01T15:18:17Z</time>
      </trkpt>
      <trkpt lat="56.573699964210391" lon="-4.075777027755976">
        <ele>119.81999999999999</ele>
        <time>2023-09-01T15:18:19Z</time>
      </trkpt>
      <trkpt lat="56.573751010000706" lon="-4.074048008769751">
        <ele>125.11</ele>
        <time>2023-09-01T15:18:28Z</time>
      </trkpt>
      <trkpt lat="56.573756961151958" lon="-4.073858996853232">
        <ele>125.59</ele>
        <time>2023-09-01T15:18:29Z</time>
      </trkpt>
      <trkpt lat="56.57376199029386" lon="-4.073673002421856">
        <ele>126.06999999999999</ele>
        <time>2023-09-01T15:18:30Z</time>
      </trkpt>
      <trkpt lat="56.573773976415396" lon="-4.073262959718704">
        <ele>127.03</ele>
        <time>2023-09-01T15:18:32Z</time>
      </trkpt>
      <trkpt lat="56.573786968365312" lon="-4.072837997227907">
        <ele>127.98999999999999</ele>
        <time>2023-09-01T15:18:34Z</time>
      </trkpt>
      <trkpt lat="56.573845976963639" lon="-4.071330009028316">
        <ele>131.84</ele>
        <time>2023-09-01T15:18:40Z</time>
      </trkpt>
      <trkpt lat="56.573877995833755" lon="-4.07080396078527">
        <ele>133.28</ele>
        <time>2023-09-01T15:18:42Z</time>
      </trkpt>
      <trkpt lat="56.573894005268812" lon="-4.070542026311159">
        <ele>133.75999999999999</ele>
        <time>2023-09-01T15:18:43Z</time>
      </trkpt>
      <trkpt lat="56.573947984725237" lon="-4.069864014163613">
        <ele>135.19999999999999</ele>
        <time>2023-09-01T15:18:46Z</time>
      </trkpt>
      <trkpt lat="56.574183013290167" lon="-4.06856800429523">
        <ele>137.13</ele>
        <time>2023-09-01T15:18:52Z</time>
      </trkpt>
      <trkpt lat="56.574418963864446" lon="-4.066065000370145">
        <ele>133.75999999999999</ele>
        <time>2023-09-01T15:19:01Z</time>
      </trkpt>
      <trkpt lat="56.574418963864446" lon="-4.065568959340453">
        <ele>134.72</ele>
        <time>2023-09-01T15:19:03Z</time>
      </trkpt>
      <trkpt lat="56.574464980512857" lon="-4.064807966351509">
        <ele>136.63999999999999</ele>
        <time>2023-09-01T15:19:07Z</time>
      </trkpt>
      <trkpt lat="56.574489958584309" lon="-4.064607974141836">
        <ele>137.13</ele>
        <time>2023-09-01T15:19:08Z</time>
      </trkpt>
      <trkpt lat="56.574541004374623" lon="-4.064199021086097">
        <ele>137.13</ele>
        <time>2023-09-01T15:19:10Z</time>
      </trkpt>
      <trkpt lat="56.574567994102836" lon="-4.063986036926508">
        <ele>137.13</ele>
        <time>2023-09-01T15:19:11Z</time>
      </trkpt>
      <trkpt lat="56.574594983831048" lon="-4.063767017796636">
        <ele>137.13</ele>
        <time>2023-09-01T15:19:12Z</time>
      </trkpt>
      <trkpt lat="56.574680982157588" lon="-4.063082970678806">
        <ele>137.13</ele>
        <time>2023-09-01T15:19:15Z</time>
      </trkpt>
      <trkpt lat="56.574709983542562" lon="-4.062850037589669">
        <ele>137.13</ele>
        <time>2023-09-01T15:19:16Z</time>
      </trkpt>
      <trkpt lat="56.574739990755916" lon="-4.062606962397695">
        <ele>137.13</ele>
        <time>2023-09-01T15:19:17Z</time>
      </trkpt>
      <trkpt lat="56.57489899545908" lon="-4.060285007581115">
        <ele>140.49000000000001</ele>
        <time>2023-09-01T15:19:26Z</time>
      </trkpt>
      <trkpt lat="56.575090019032359" lon="-4.05791200697422">
        <ele>143.84999999999999</ele>
        <time>2023-09-01T15:19:34Z</time>
      </trkpt>
      <trkpt lat="56.575159002095461" lon="-4.057230977341533">
        <ele>143.84999999999999</ele>
        <time>2023-09-01T15:19:36Z</time>
      </trkpt>
      <trkpt lat="56.575193032622337" lon="-4.056894024834037">
        <ele>143.84999999999999</ele>
        <time>2023-09-01T15:19:37Z</time>
      </trkpt>
      <trkpt lat="56.575224967673421" lon="-4.056570986285806">
        <ele>143.84999999999999</ele>
        <time>2023-09-01T15:19:38Z</time>
      </trkpt>
      <trkpt lat="56.575379027053714" lon="-4.055043971166015">
        <ele>143.37</ele>
        <time>2023-09-01T15:19:43Z</time>
      </trkpt>
      <trkpt lat="56.575410040095448" lon="-4.054738031700254">
        <ele>143.84999999999999</ele>
        <time>2023-09-01T15:19:44Z</time>
      </trkpt>
      <trkpt lat="56.575684966519475" lon="-4.05211198143661">
        <ele>144.81999999999999</ele>
        <time>2023-09-01T15:19:52Z</time>
      </trkpt>
      <trkpt lat="56.575856041163206" lon="-4.050845978781581">
        <ele>146.74000000000001</ele>
        <time>2023-09-01T15:19:56Z</time>
      </trkpt>
      <trkpt lat="56.575915971770883" lon="-4.050526041537523">
        <ele>147.22</ele>
        <time>2023-09-01T15:19:57Z</time>
      </trkpt>
      <trkpt lat="56.576301036402583" lon="-4.048082968220115">
        <ele>150.09999999999999</ele>
        <time>2023-09-01T15:20:05Z</time>
      </trkpt>
      <trkpt lat="56.576388040557504" lon="-4.047261038795114">
        <ele>150.58000000000001</ele>
        <time>2023-09-01T15:20:08Z</time>
      </trkpt>
      <trkpt lat="56.576439002528787" lon="-4.046989968046546">
        <ele>150.09999999999999</ele>
        <time>2023-09-01T15:20:09Z</time>
      </trkpt>
      <trkpt lat="56.576670007780194" lon="-4.045756990090013">
        <ele>148.66</ele>
        <time>2023-09-01T15:20:13Z</time>
      </trkpt>
      <trkpt lat="56.576708983629942" lon="-4.045421965420246">
        <ele>147.69999999999999</ele>
        <time>2023-09-01T15:20:14Z</time>
      </trkpt>
      <trkpt lat="56.576759023591876" lon="-4.044733978807926">
        <ele>145.78</ele>
        <time>2023-09-01T15:20:16Z</time>
      </trkpt>
      <trkpt lat="56.576785007491708" lon="-4.044387973845005">
        <ele>145.30000000000001</ele>
        <time>2023-09-01T15:20:17Z</time>
      </trkpt>
      <trkpt lat="56.576829012483358" lon="-4.043783973902464">
        <ele>144.34</ele>
        <time>2023-09-01T15:20:19Z</time>
      </trkpt>
      <trkpt lat="56.576850973069668" lon="-4.043489014729857">
        <ele>143.84999999999999</ele>
        <time>2023-09-01T15:20:20Z</time>
      </trkpt>
      <trkpt lat="56.57687796279788" lon="-4.043186008930206">
        <ele>142.88999999999999</ele>
        <time>2023-09-01T15:20:21Z</time>
      </trkpt>
      <trkpt lat="56.576992040500045" lon="-4.042267017066479">
        <ele>139.53</ele>
        <time>2023-09-01T15:20:24Z</time>
      </trkpt>
      <trkpt lat="56.577030010521412" lon="-4.041961999610066">
        <ele>138.56999999999999</ele>
        <time>2023-09-01T15:20:25Z</time>
      </trkpt>
      <trkpt lat="56.577067980542779" lon="-4.041654970496893">
        <ele>137.61000000000001</ele>
        <time>2023-09-01T15:20:26Z</time>
      </trkpt>
      <trkpt lat="56.577104022726417" lon="-4.041364034637809">
        <ele>136.63999999999999</ele>
        <time>2023-09-01T15:20:27Z</time>
      </trkpt>
      <trkpt lat="56.577142998576164" lon="-4.041096987202764">
        <ele>136.16</ele>
        <time>2023-09-01T15:20:28Z</time>
      </trkpt>
      <trkpt lat="56.577185997739434" lon="-4.040850978344679">
        <ele>135.19999999999999</ele>
        <time>2023-09-01T15:20:29Z</time>
      </trkpt>
      <trkpt lat="56.577225979417562" lon="-4.040626008063555">
        <ele>134.72</ele>
        <time>2023-09-01T15:20:30Z</time>
      </trkpt>
      <trkpt lat="56.577270990237594" lon="-4.040419980883598">
        <ele>133.75999999999999</ele>
        <time>2023-09-01T15:20:31Z</time>
      </trkpt>
      <trkpt lat="56.577340979129076" lon="-4.040200039744377">
        <ele>132.80000000000001</ele>
        <time>2023-09-01T15:20:32Z</time>
      </trkpt>
      <trkpt lat="56.577572990208864" lon="-4.039470981806517">
        <ele>129.91999999999999</ele>
        <time>2023-09-01T15:20:35Z</time>
      </trkpt>
      <trkpt lat="56.577644990757108" lon="-4.039202006533742">
        <ele>129.43000000000001</ele>
        <time>2023-09-01T15:20:36Z</time>
      </trkpt>
      <trkpt lat="56.577856969088316" lon="-4.038397008553147">
        <ele>127.98999999999999</ele>
        <time>2023-09-01T15:20:39Z</time>
      </trkpt>
      <trkpt lat="56.577970962971449" lon="-4.037837013602257">
        <ele>127.03</ele>
        <time>2023-09-01T15:20:41Z</time>
      </trkpt>
      <trkpt lat="56.578024020418525" lon="-4.037574995309115">
        <ele>126.55</ele>
        <time>2023-09-01T15:20:42Z</time>
      </trkpt>
      <trkpt lat="56.578120999038219" lon="-4.037110973149538">
        <ele>126.06999999999999</ele>
        <time>2023-09-01T15:20:44Z</time>
      </trkpt>
      <trkpt lat="56.578384023159742" lon="-4.036141019314528">
        <ele>127.03</ele>
        <time>2023-09-01T15:20:48Z</time>
      </trkpt>
      <trkpt lat="56.578458035364747" lon="-4.035899033769965">
        <ele>127.03</ele>
        <time>2023-09-01T15:20:49Z</time>
      </trkpt>
      <trkpt lat="56.578534981235862" lon="-4.035647995769978">
        <ele>127.03</ele>
        <time>2023-09-01T15:20:50Z</time>
      </trkpt>
      <trkpt lat="56.578841004520655" lon="-4.034652980044484">
        <ele>127.03</ele>
        <time>2023-09-01T15:20:54Z</time>
      </trkpt>
      <trkpt lat="56.578915016725659" lon="-4.034391967579722">
        <ele>127.03</ele>
        <time>2023-09-01T15:20:55Z</time>
      </trkpt>
      <trkpt lat="56.57938901335001" lon="-4.032347034662962">
        <ele>127.98999999999999</ele>
        <time>2023-09-01T15:21:03Z</time>
      </trkpt>
      <trkpt lat="56.579453973099589" lon="-4.032104965299368">
        <ele>127.98999999999999</ele>
        <time>2023-09-01T15:21:04Z</time>
      </trkpt>
      <trkpt lat="56.579523961991072" lon="-4.031846970319748">
        <ele>127.98999999999999</ele>
        <time>2023-09-01T15:21:05Z</time>
      </trkpt>
      <trkpt lat="56.579595040529966" lon="-4.031584030017257">
        <ele>127.98999999999999</ele>
        <time>2023-09-01T15:21:06Z</time>
      </trkpt>
      <trkpt lat="56.579661006107926" lon="-4.031323017552495">
        <ele>127.98999999999999</ele>
        <time>2023-09-01T15:21:07Z</time>
      </trkpt>
      <trkpt lat="56.579708028584719" lon="-4.03105697594583">
        <ele>127.98999999999999</ele>
        <time>2023-09-01T15:21:08Z</time>
      </trkpt>
      <trkpt lat="56.579751027747989" lon="-4.030807027593255">
        <ele>127.98999999999999</ele>
        <time>2023-09-01T15:21:09Z</time>
      </trkpt>
      <trkpt lat="56.579932998865843" lon="-4.029763983562589">
        <ele>128.94999999999999</ele>
        <time>2023-09-01T15:21:13Z</time>
      </trkpt>
      <trkpt lat="56.579980021342635" lon="-4.029494002461433">
        <ele>129.43000000000001</ele>
        <time>2023-09-01T15:21:14Z</time>
      </trkpt>
      <trkpt lat="56.580027965828776" lon="-4.029218992218375">
        <ele>129.43000000000001</ele>
        <time>2023-09-01T15:21:15Z</time>
      </trkpt>
      <trkpt lat="56.58007800579071" lon="-4.028936019167304">
        <ele>129.91999999999999</ele>
        <time>2023-09-01T15:21:16Z</time>
      </trkpt>
      <trkpt lat="56.580127039924264" lon="-4.028652040287852">
        <ele>130.40000000000001</ele>
        <time>2023-09-01T15:21:17Z</time>
      </trkpt>
      <trkpt lat="56.580326026305556" lon="-4.02755199931562">
        <ele>131.84</ele>
        <time>2023-09-01T15:21:21Z</time>
      </trkpt>
      <trkpt lat="56.580390986055136" lon="-4.027266008779407">
        <ele>131.84</ele>
        <time>2023-09-01T15:21:22Z</time>
      </trkpt>
      <trkpt lat="56.580691980198026" lon="-4.025960024446249">
        <ele>132.31999999999999</ele>
        <time>2023-09-01T15:21:27Z</time>
      </trkpt>
      <trkpt lat="56.580792982131243" lon="-4.025522992014885">
        <ele>132.31999999999999</ele>
        <time>2023-09-01T15:21:29Z</time>
      </trkpt>
      <trkpt lat="56.581062041223049" lon="-4.02439696714282">
        <ele>134.72</ele>
        <time>2023-09-01T15:21:35Z</time>
      </trkpt>
      <trkpt lat="56.581111997365952" lon="-4.024212984368205">
        <ele>134.72</ele>
        <time>2023-09-01T15:21:36Z</time>
      </trkpt>
      <trkpt lat="56.581523967906833" lon="-4.022919991984963">
        <ele>134.24000000000001</ele>
        <time>2023-09-01T15:21:43Z</time>
      </trkpt>
      <trkpt lat="56.581838959828019" lon="-4.022011980414391">
        <ele>132.31999999999999</ele>
        <time>2023-09-01T15:21:48Z</time>
      </trkpt>
      <trkpt lat="56.581894028931856" lon="-4.021831015124917">
        <ele>132.31999999999999</ele>
        <time>2023-09-01T15:21:49Z</time>
      </trkpt>
      <trkpt lat="56.58205202780664" lon="-4.021302033215761">
        <ele>130.88</ele>
        <time>2023-09-01T15:21:52Z</time>
      </trkpt>
      <trkpt lat="56.582102989777923" lon="-4.021133976057172">
        <ele>130.88</ele>
        <time>2023-09-01T15:21:53Z</time>
      </trkpt>
      <trkpt lat="56.582155963405967" lon="-4.02095502242446">
        <ele>130.40000000000001</ele>
        <time>2023-09-01T15:21:54Z</time>
      </trkpt>
      <trkpt lat="56.58280597999692" lon="-4.018725017085671">
        <ele>127.51000000000001</ele>
        <time>2023-09-01T15:22:06Z</time>
      </trkpt>
      <trkpt lat="56.583179980516434" lon="-4.017190039157867">
        <ele>124.63</ele>
        <time>2023-09-01T15:22:14Z</time>
      </trkpt>
      <trkpt lat="56.583274025470018" lon="-4.016802040860057">
        <ele>123.67</ele>
        <time>2023-09-01T15:22:16Z</time>
      </trkpt>
      <trkpt lat="56.583318030461669" lon="-4.016620991751552">
        <ele>123.19</ele>
        <time>2023-09-01T15:22:17Z</time>
      </trkpt>
      <trkpt lat="56.583453984931111" lon="-4.016063008457422">
        <ele>121.26000000000001</ele>
        <time>2023-09-01T15:22:20Z</time>
      </trkpt>
      <trkpt lat="56.583500001579523" lon="-4.015876008197665">
        <ele>120.3</ele>
        <time>2023-09-01T15:22:21Z</time>
      </trkpt>
      <trkpt lat="56.583568984642625" lon="-4.015698982402682">
        <ele>119.81999999999999</ele>
        <time>2023-09-01T15:22:22Z</time>
      </trkpt>
      <trkpt lat="56.583649031817913" lon="-4.015539977699518">
        <ele>119.34</ele>
        <time>2023-09-01T15:22:23Z</time>
      </trkpt>
      <trkpt lat="56.583716003224254" lon="-4.015407040715218">
        <ele>118.86</ele>
        <time>2023-09-01T15:22:24Z</time>
      </trkpt>
      <trkpt lat="56.583779035136104" lon="-4.015279971063137">
        <ele>117.90000000000001</ele>
        <time>2023-09-01T15:22:25Z</time>
      </trkpt>
      <trkpt lat="56.583855981007218" lon="-4.015125995501876">
        <ele>117.42</ele>
        <time>2023-09-01T15:22:26Z</time>
      </trkpt>
      <trkpt lat="56.583933010697365" lon="-4.014972019940615">
        <ele>116.45999999999999</ele>
        <time>2023-09-01T15:22:27Z</time>
      </trkpt>
      <trkpt lat="56.584011968225241" lon="-4.014813015237451">
        <ele>115.98</ele>
        <time>2023-09-01T15:22:28Z</time>
      </trkpt>
      <trkpt lat="56.584105007350445" lon="-4.014628026634455">
        <ele>115.5</ele>
        <time>2023-09-01T15:22:29Z</time>
      </trkpt>
      <trkpt lat="56.584207015112042" lon="-4.01442501693964">
        <ele>114.53</ele>
        <time>2023-09-01T15:22:30Z</time>
      </trkpt>
      <trkpt lat="56.585016958415508" lon="-4.012803034856916">
        <ele>110.20999999999999</ele>
        <time>2023-09-01T15:22:37Z</time>
      </trkpt>
      <trkpt lat="56.585135981440544" lon="-4.012565994635224">
        <ele>110.20999999999999</ele>
        <time>2023-09-01T15:22:38Z</time>
      </trkpt>
      <trkpt lat="56.585257016122341" lon="-4.012323003262281">
        <ele>109.73</ele>
        <time>2023-09-01T15:22:39Z</time>
      </trkpt>
      <trkpt lat="56.585373021662235" lon="-4.012090992182493">
        <ele>109.73</ele>
        <time>2023-09-01T15:22:40Z</time>
      </trkpt>
      <trkpt lat="56.58570502884686" lon="-4.011426977813244">
        <ele>109.25</ele>
        <time>2023-09-01T15:22:43Z</time>
      </trkpt>
      <trkpt lat="56.585811981931329" lon="-4.011212987825275">
        <ele>109.25</ele>
        <time>2023-09-01T15:22:44Z</time>
      </trkpt>
      <trkpt lat="56.586794005706906" lon="-4.008906036615372">
        <ele>107.81</ele>
        <time>2023-09-01T15:22:54Z</time>
      </trkpt>
      <trkpt lat="56.58744603395462" lon="-4.007298974320293">
        <ele>108.77</ele>
        <time>2023-09-01T15:23:01Z</time>
      </trkpt>
      <trkpt lat="56.587523985654116" lon="-4.007041985169053">
        <ele>108.77</ele>
        <time>2023-09-01T15:23:02Z</time>
      </trkpt>
      <trkpt lat="56.587710985913873" lon="-4.006249979138374">
        <ele>109.73</ele>
        <time>2023-09-01T15:23:05Z</time>
      </trkpt>
      <trkpt lat="56.587762031704187" lon="-4.006032971665263">
        <ele>109.73</ele>
        <time>2023-09-01T15:23:06Z</time>
      </trkpt>
      <trkpt lat="56.587894968688488" lon="-4.005037033930421">
        <ele>111.17</ele>
        <time>2023-09-01T15:23:11Z</time>
      </trkpt>
      <trkpt lat="56.587894968688488" lon="-4.004658004269004">
        <ele>110.69</ele>
        <time>2023-09-01T15:23:13Z</time>
      </trkpt>
      <trkpt lat="56.587894968688488" lon="-4.004473015666008">
        <ele>110.20999999999999</ele>
        <time>2023-09-01T15:23:14Z</time>
      </trkpt>
      <trkpt lat="56.587872002273798" lon="-4.004276962950826">
        <ele>110.20999999999999</ele>
        <time>2023-09-01T15:23:15Z</time>
      </trkpt>
      <trkpt lat="56.587841995060444" lon="-4.00409298017621">
        <ele>109.73</ele>
        <time>2023-09-01T15:23:16Z</time>
      </trkpt>
      <trkpt lat="56.58781299367547" lon="-4.003917966037989">
        <ele>109.25</ele>
        <time>2023-09-01T15:23:17Z</time>
      </trkpt>
      <trkpt lat="56.587763037532568" lon="-4.003756027668715">
        <ele>109.25</ele>
        <time>2023-09-01T15:23:18Z</time>
      </trkpt>
      <trkpt lat="56.587712997570634" lon="-4.003608003258705">
        <ele>108.29000000000001</ele>
        <time>2023-09-01T15:23:19Z</time>
      </trkpt>
      <trkpt lat="56.587653988972306" lon="-4.003490991890431">
        <ele>107.81</ele>
        <time>2023-09-01T15:23:20Z</time>
      </trkpt>
      <trkpt lat="56.587587017565966" lon="-4.003376998007298">
        <ele>107.31999999999999</ele>
        <time>2023-09-01T15:23:21Z</time>
      </trkpt>
      <trkpt lat="56.587516022846103" lon="-4.003256969153881">
        <ele>106.84</ele>
        <time>2023-09-01T15:23:22Z</time>
      </trkpt>
      <trkpt lat="56.58744896762073" lon="-4.003142975270748">
        <ele>106.84</ele>
        <time>2023-09-01T15:23:23Z</time>
      </trkpt>
      <trkpt lat="56.587385013699532" lon="-4.003033004701138">
        <ele>105.88</ele>
        <time>2023-09-01T15:23:24Z</time>
      </trkpt>
      <trkpt lat="56.587321981787682" lon="-4.00293099693954">
        <ele>105.40000000000001</ele>
        <time>2023-09-01T15:23:25Z</time>
      </trkpt>
      <trkpt lat="56.58725400455296" lon="-4.002848016098142">
        <ele>104.92</ele>
        <time>2023-09-01T15:23:26Z</time>
      </trkpt>
      <trkpt lat="56.587176974862814" lon="-4.002780038863421">
        <ele>104.44</ele>
        <time>2023-09-01T15:23:27Z</time>
      </trkpt>
      <trkpt lat="56.587094999849796" lon="-4.002707032486796">
        <ele>103.95999999999999</ele>
        <time>2023-09-01T15:23:28Z</time>
      </trkpt>
      <trkpt lat="56.58676098100841" lon="-4.002475021407008">
        <ele>100.11</ele>
        <time>2023-09-01T15:23:32Z</time>
      </trkpt>
      <trkpt lat="56.586682023480535" lon="-4.002422969788313">
        <ele>99.629999999999995</ele>
        <time>2023-09-01T15:23:33Z</time>
      </trkpt>
      <trkpt lat="56.586340041831136" lon="-4.002197999507189">
        <ele>95.790000000000006</ele>
        <time>2023-09-01T15:23:39Z</time>
      </trkpt>
      <trkpt lat="56.586074000224471" lon="-4.002022985368967">
        <ele>91.939999999999998</ele>
        <time>2023-09-01T15:23:49Z</time>
      </trkpt>
      <trkpt lat="56.585497995838523" lon="-4.001639010384679">
        <ele>94.829999999999998</ele>
        <time>2023-09-01T15:23:58Z</time>
      </trkpt>
      <trkpt lat="56.585417026653886" lon="-4.001585030928254">
        <ele>94.829999999999998</ele>
        <time>2023-09-01T15:23:59Z</time>
      </trkpt>
      <trkpt lat="56.585352988913655" lon="-4.001518981531262">
        <ele>94.829999999999998</ele>
        <time>2023-09-01T15:24:00Z</time>
      </trkpt>
      <trkpt lat="56.585299009457231" lon="-4.001457961276174">
        <ele>94.829999999999998</ele>
        <time>2023-09-01T15:24:01Z</time>
      </trkpt>
      <trkpt lat="56.585257016122341" lon="-4.001412028446794">
        <ele>94.349999999999994</ele>
        <time>2023-09-01T15:24:02Z</time>
      </trkpt>
      <trkpt lat="56.58521200530231" lon="-4.00136198848486">
        <ele>94.349999999999994</ele>
        <time>2023-09-01T15:24:03Z</time>
      </trkpt>
      <trkpt lat="56.585202030837536" lon="-4.001333992928267">
        <ele>94.349999999999994</ele>
        <time>2023-09-01T15:24:04Z</time>
      </trkpt>
      <trkpt lat="56.585190966725349" lon="-4.001303985714912">
        <ele>94.349999999999994</ele>
        <time>2023-09-01T15:24:05Z</time>
      </trkpt>
      <trkpt lat="56.585190966725349" lon="-4.001303985714912">
        <ele>94.349999999999994</ele>
        <time>2023-09-01T15:24:17Z</time>
      </trkpt>
      <trkpt lat="56.585186021402478" lon="-4.001289987936616">
        <ele>94.349999999999994</ele>
        <time>2023-09-01T15:24:25Z</time>
      </trkpt>
      <trkpt lat="56.58521200530231" lon="-4.00136198848486">
        <ele>95.790000000000006</ele>
        <time>2023-09-01T15:24:26Z</time>
      </trkpt>
      <trkpt lat="56.585217034444213" lon="-4.001354025676847">
        <ele>100.59999999999999</ele>
        <time>2023-09-01T15:24:29Z</time>
      </trkpt>
      <trkpt lat="56.585286017507315" lon="-4.001485034823418">
        <ele>102.04000000000001</ele>
        <time>2023-09-01T15:24:44Z</time>
      </trkpt>
      <trkpt lat="56.585286017507315" lon="-4.001485034823418">
        <ele>102.04000000000001</ele>
        <time>2023-09-01T15:25:02Z</time>
      </trkpt>
      <trkpt lat="56.585327005013824" lon="-4.001488974317908">
        <ele>101.56</ele>
        <time>2023-09-01T15:25:04Z</time>
      </trkpt>
      <trkpt lat="56.585865039378405" lon="-4.001883007586002">
        <ele>99.150000000000006</ele>
        <time>2023-09-01T15:25:11Z</time>
      </trkpt>
      <trkpt lat="56.586626032367349" lon="-4.002386005595326">
        <ele>99.150000000000006</ele>
        <time>2023-09-01T15:25:20Z</time>
      </trkpt>
      <trkpt lat="56.586851002648473" lon="-4.002534030005336">
        <ele>100.59999999999999</ele>
        <time>2023-09-01T15:25:23Z</time>
      </trkpt>
      <trkpt lat="56.587456008419394" lon="-4.003154039382935">
        <ele>104.92</ele>
        <time>2023-09-01T15:25:32Z</time>
      </trkpt>
      <trkpt lat="56.587505964562297" lon="-4.003240037709475">
        <ele>105.40000000000001</ele>
        <time>2023-09-01T15:25:33Z</time>
      </trkpt>
      <trkpt lat="56.587548963725567" lon="-4.003312038257718">
        <ele>105.88</ele>
        <time>2023-09-01T15:25:34Z</time>
      </trkpt>
      <trkpt lat="56.587584000080824" lon="-4.003371968865395">
        <ele>106.84</ele>
        <time>2023-09-01T15:25:35Z</time>
      </trkpt>
      <trkpt lat="56.587614007294178" lon="-4.00342402048409">
        <ele>107.31999999999999</ele>
        <time>2023-09-01T15:25:36Z</time>
      </trkpt>
      <trkpt lat="56.587645020335913" lon="-4.003475988283753">
        <ele>108.29000000000001</ele>
        <time>2023-09-01T15:25:37Z</time>
      </trkpt>
      <trkpt lat="56.587738981470466" lon="-4.003519993275404">
        <ele>108.77</ele>
        <time>2023-09-01T15:25:38Z</time>
      </trkpt>
      <trkpt lat="56.587776029482484" lon="-4.003469031304121">
        <ele>109.25</ele>
        <time>2023-09-01T15:25:39Z</time>
      </trkpt>
      <trkpt lat="56.587821040302515" lon="-4.003404993563891">
        <ele>109.73</ele>
        <time>2023-09-01T15:25:40Z</time>
      </trkpt>
      <trkpt lat="56.587924975901842" lon="-4.003269961103797">
        <ele>110.69</ele>
        <time>2023-09-01T15:25:42Z</time>
      </trkpt>
      <trkpt lat="56.588012985885143" lon="-4.003258980810642">
        <ele>111.17</ele>
        <time>2023-09-01T15:25:43Z</time>
      </trkpt>
      <trkpt lat="56.588085992261767" lon="-4.003311032429338">
        <ele>111.17</ele>
        <time>2023-09-01T15:25:44Z</time>
      </trkpt>
      <trkpt lat="56.588164027780294" lon="-4.003366017714143">
        <ele>111.65000000000001</ele>
        <time>2023-09-01T15:25:45Z</time>
      </trkpt>
      <trkpt lat="56.588246002793312" lon="-4.00342502631247">
        <ele>112.13</ele>
        <time>2023-09-01T15:25:46Z</time>
      </trkpt>
      <trkpt lat="56.588667025789618" lon="-4.003830039873719">
        <ele>113.56999999999999</ele>
        <time>2023-09-01T15:25:51Z</time>
      </trkpt>
      <trkpt lat="56.588703989982605" lon="-4.003836996853352">
        <ele>114.05</ele>
        <time>2023-09-01T15:25:52Z</time>
      </trkpt>
      <trkpt lat="56.588773978874087" lon="-4.003850994631648">
        <ele>114.53</ele>
        <time>2023-09-01T15:25:53Z</time>
      </trkpt>
      <trkpt lat="56.588859977200627" lon="-4.003744041547179">
        <ele>114.53</ele>
        <time>2023-09-01T15:25:54Z</time>
      </trkpt>
      <trkpt lat="56.588925020769238" lon="-4.003608003258705">
        <ele>115.01000000000001</ele>
        <time>2023-09-01T15:25:55Z</time>
      </trkpt>
      <trkpt lat="56.588991992175579" lon="-4.00346701964736">
        <ele>115.01000000000001</ele>
        <time>2023-09-01T15:25:56Z</time>
      </trkpt>
      <trkpt lat="56.589652989059687" lon="-4.002017034217715">
        <ele>116.45999999999999</ele>
        <time>2023-09-01T15:26:04Z</time>
      </trkpt>
      <trkpt lat="56.590502997860312" lon="-3.999977968633175">
        <ele>115.01000000000001</ele>
        <time>2023-09-01T15:26:13Z</time>
      </trkpt>
      <trkpt lat="56.591239012777805" lon="-3.998273005709052">
        <ele>114.05</ele>
        <time>2023-09-01T15:26:22Z</time>
      </trkpt>
      <trkpt lat="56.591300033032894" lon="-3.998130010440946">
        <ele>114.05</ele>
        <time>2023-09-01T15:26:23Z</time>
      </trkpt>
      <trkpt lat="56.591420983895659" lon="-3.997848965227604">
        <ele>114.05</ele>
        <time>2023-09-01T15:26:25Z</time>
      </trkpt>
      <trkpt lat="56.591557022184134" lon="-3.997476976364851">
        <ele>113.09</ele>
        <time>2023-09-01T15:26:27Z</time>
      </trkpt>
      <trkpt lat="56.592005034908652" lon="-3.995809983462095">
        <ele>109.25</ele>
        <time>2023-09-01T15:26:34Z</time>
      </trkpt>
      <trkpt lat="56.592096984386444" lon="-3.995588030666113">
        <ele>108.77</ele>
        <time>2023-09-01T15:26:35Z</time>
      </trkpt>
      <trkpt lat="56.592362020164728" lon="-3.994947988539934">
        <ele>107.81</ele>
        <time>2023-09-01T15:26:38Z</time>
      </trkpt>
      <trkpt lat="56.592922015115619" lon="-3.993145041167736">
        <ele>108.29000000000001</ele>
        <time>2023-09-01T15:26:46Z</time>
      </trkpt>
      <trkpt lat="56.593716032803059" lon="-3.991532027721405">
        <ele>111.17</ele>
        <time>2023-09-01T15:26:54Z</time>
      </trkpt>
      <trkpt lat="56.59427803941071" lon="-3.989776019006968">
        <ele>112.13</ele>
        <time>2023-09-01T15:27:01Z</time>
      </trkpt>
      <trkpt lat="56.594352973625064" lon="-3.989559011533856">
        <ele>112.61</ele>
        <time>2023-09-01T15:27:02Z</time>
      </trkpt>
      <trkpt lat="56.594467973336577" lon="-3.989379974082112">
        <ele>112.61</ele>
        <time>2023-09-01T15:27:03Z</time>
      </trkpt>
      <trkpt lat="56.594547014683485" lon="-3.989281989634037">
        <ele>112.61</ele>
        <time>2023-09-01T15:27:04Z</time>
      </trkpt>
      <trkpt lat="56.59470803104341" lon="-3.9892010204494">
        <ele>113.09</ele>
        <time>2023-09-01T15:27:05Z</time>
      </trkpt>
      <trkpt lat="56.594839040189981" lon="-3.989134971052408">
        <ele>113.56999999999999</ele>
        <time>2023-09-01T15:27:06Z</time>
      </trkpt>
      <trkpt lat="56.594976000487804" lon="-3.989066993817687">
        <ele>113.56999999999999</ele>
        <time>2023-09-01T15:27:07Z</time>
      </trkpt>
      <trkpt lat="56.59511698409915" lon="-3.988997004926205">
        <ele>114.05</ele>
        <time>2023-09-01T15:27:08Z</time>
      </trkpt>
      <trkpt lat="56.595846964046359" lon="-3.988571036607027">
        <ele>115.98</ele>
        <time>2023-09-01T15:27:13Z</time>
      </trkpt>
      <trkpt lat="56.595961041748524" lon="-3.988390993326902">
        <ele>115.98</ele>
        <time>2023-09-01T15:27:14Z</time>
      </trkpt>
      <trkpt lat="56.596081992611289" lon="-3.988200975582004">
        <ele>116.45999999999999</ele>
        <time>2023-09-01T15:27:15Z</time>
      </trkpt>
      <trkpt lat="56.596209984272718" lon="-3.98799897171557">
        <ele>116.45999999999999</ele>
        <time>2023-09-01T15:27:16Z</time>
      </trkpt>
      <trkpt lat="56.59634199924767" lon="-3.987791016697884">
        <ele>116.45999999999999</ele>
        <time>2023-09-01T15:27:17Z</time>
      </trkpt>
      <trkpt lat="56.59668498672545" lon="-3.987037986516953">
        <ele>115.98</ele>
        <time>2023-09-01T15:27:20Z</time>
      </trkpt>
      <trkpt lat="56.596772996708751" lon="-3.986801030114293">
        <ele>115.98</ele>
        <time>2023-09-01T15:27:21Z</time>
      </trkpt>
      <trkpt lat="56.5968999825418" lon="-3.986634984612465">
        <ele>116.45999999999999</ele>
        <time>2023-09-01T15:27:22Z</time>
      </trkpt>
      <trkpt lat="56.597162000834942" lon="-3.986391993239522">
        <ele>116.45999999999999</ele>
        <time>2023-09-01T15:27:24Z</time>
      </trkpt>
      <trkpt lat="56.597293009981513" lon="-3.986270036548376">
        <ele>116.94</ele>
        <time>2023-09-01T15:27:25Z</time>
      </trkpt>
      <trkpt lat="56.598127009347081" lon="-3.984867995604873">
        <ele>117.42</ele>
        <time>2023-09-01T15:27:33Z</time>
      </trkpt>
      <trkpt lat="56.598793035373092" lon="-3.983984962105751">
        <ele>116.45999999999999</ele>
        <time>2023-09-01T15:27:39Z</time>
      </trkpt>
      <trkpt lat="56.598904011771083" lon="-3.983821012079716">
        <ele>116.45999999999999</ele>
        <time>2023-09-01T15:27:40Z</time>
      </trkpt>
      <trkpt lat="56.600093990564346" lon="-3.982008006423712">
        <ele>117.90000000000001</ele>
        <time>2023-09-01T15:27:51Z</time>
      </trkpt>
      <trkpt lat="56.600355003029108" lon="-3.981461003422737">
        <ele>118.86</ele>
        <time>2023-09-01T15:27:54Z</time>
      </trkpt>
      <trkpt lat="56.600484000518918" lon="-3.981351032853127">
        <ele>118.86</ele>
        <time>2023-09-01T15:27:55Z</time>
      </trkpt>
      <trkpt lat="56.601602984592319" lon="-3.98004999384284">
        <ele>119.34</ele>
        <time>2023-09-01T15:28:05Z</time>
      </trkpt>
      <trkpt lat="56.60274401307106" lon="-3.979049026966095">
        <ele>114.05</ele>
        <time>2023-09-01T15:28:15Z</time>
      </trkpt>
      <trkpt lat="56.602972000837326" lon="-3.978947019204497">
        <ele>113.09</ele>
        <time>2023-09-01T15:28:17Z</time>
      </trkpt>
      <trkpt lat="56.603493019938469" lon="-3.978519961237907">
        <ele>109.73</ele>
        <time>2023-09-01T15:28:21Z</time>
      </trkpt>
      <trkpt lat="56.603613970801234" lon="-3.978407979011536">
        <ele>108.77</ele>
        <time>2023-09-01T15:28:22Z</time>
      </trkpt>
      <trkpt lat="56.603916976600885" lon="-3.978129029273987">
        <ele>106.84</ele>
        <time>2023-09-01T15:28:25Z</time>
      </trkpt>
      <trkpt lat="56.604270022362471" lon="-3.977734996005893">
        <ele>104.44</ele>
        <time>2023-09-01T15:28:29Z</time>
      </trkpt>
      <trkpt lat="56.604362977668643" lon="-3.977629970759153">
        <ele>103.95999999999999</ele>
        <time>2023-09-01T15:28:30Z</time>
      </trkpt>
      <trkpt lat="56.604442019015551" lon="-3.977539027109742">
        <ele>103</ele>
        <time>2023-09-01T15:28:31Z</time>
      </trkpt>
      <trkpt lat="56.604632036760449" lon="-3.977253958582878">
        <ele>101.56</ele>
        <time>2023-09-01T15:28:33Z</time>
      </trkpt>
      <trkpt lat="56.604724992066622" lon="-3.977114986628294">
        <ele>101.08</ele>
        <time>2023-09-01T15:28:34Z</time>
      </trkpt>
      <trkpt lat="56.604816019535065" lon="-3.976969979703426">
        <ele>101.08</ele>
        <time>2023-09-01T15:28:35Z</time>
      </trkpt>
      <trkpt lat="56.605333015322685" lon="-3.976074960082769">
        <ele>100.59999999999999</ele>
        <time>2023-09-01T15:28:41Z</time>
      </trkpt>
      <trkpt lat="56.605423958972096" lon="-3.975942023098469">
        <ele>101.08</ele>
        <time>2023-09-01T15:28:42Z</time>
      </trkpt>
      <trkpt lat="56.605519009754062" lon="-3.975805984809995">
        <ele>101.56</ele>
        <time>2023-09-01T15:28:43Z</time>
      </trkpt>
      <trkpt lat="56.606155028566718" lon="-3.974893027916551">
        <ele>105.88</ele>
        <time>2023-09-01T15:28:49Z</time>
      </trkpt>
      <trkpt lat="56.606253013014793" lon="-3.974751038476825">
        <ele>106.36</ele>
        <time>2023-09-01T15:28:50Z</time>
      </trkpt>
      <trkpt lat="56.607400998473167" lon="-3.973399959504604">
        <ele>109.73</ele>
        <time>2023-09-01T15:29:01Z</time>
      </trkpt>
      <trkpt lat="56.607699980959296" lon="-3.973187981173396">
        <ele>110.20999999999999</ele>
        <time>2023-09-01T15:29:04Z</time>
      </trkpt>
      <trkpt lat="56.607816992327571" lon="-3.973187981173396">
        <ele>110.20999999999999</ele>
        <time>2023-09-01T15:29:05Z</time>
      </trkpt>
      <trkpt lat="56.607914976775646" lon="-3.973187981173396">
        <ele>110.20999999999999</ele>
        <time>2023-09-01T15:29:06Z</time>
      </trkpt>
      <trkpt lat="56.608000975102186" lon="-3.973232991993427">
        <ele>109.73</ele>
        <time>2023-09-01T15:29:07Z</time>
      </trkpt>
      <trkpt lat="56.608112035319209" lon="-3.973310021683574">
        <ele>109.73</ele>
        <time>2023-09-01T15:29:08Z</time>
      </trkpt>
      <trkpt lat="56.608234997838736" lon="-3.973394008353353">
        <ele>109.25</ele>
        <time>2023-09-01T15:29:09Z</time>
      </trkpt>
      <trkpt lat="56.608366006985307" lon="-3.973485035821796">
        <ele>108.77</ele>
        <time>2023-09-01T15:29:10Z</time>
      </trkpt>
      <trkpt lat="56.60850003361702" lon="-3.973576985299587">
        <ele>108.29000000000001</ele>
        <time>2023-09-01T15:29:11Z</time>
      </trkpt>
      <trkpt lat="56.609097998589277" lon="-3.974201017990708">
        <ele>109.25</ele>
        <time>2023-09-01T15:29:17Z</time>
      </trkpt>
      <trkpt lat="56.609161030501127" lon="-3.974296990782023">
        <ele>109.25</ele>
        <time>2023-09-01T15:29:18Z</time>
      </trkpt>
      <trkpt lat="56.609353981912136" lon="-3.974585998803377">
        <ele>108.77</ele>
        <time>2023-09-01T15:29:21Z</time>
      </trkpt>
      <trkpt lat="56.609757989645004" lon="-3.975345985963941">
        <ele>108.29000000000001</ele>
        <time>2023-09-01T15:29:27Z</time>
      </trkpt>
      <trkpt lat="56.609928980469704" lon="-3.975815959274769">
        <ele>108.77</ele>
        <time>2023-09-01T15:29:30Z</time>
      </trkpt>
      <trkpt lat="56.610084967687726" lon="-3.976356005296111">
        <ele>109.73</ele>
        <time>2023-09-01T15:29:36Z</time>
      </trkpt>
      <trkpt lat="56.610150011256337" lon="-3.976581981405616">
        <ele>110.20999999999999</ele>
        <time>2023-09-01T15:29:40Z</time>
      </trkpt>
      <trkpt lat="56.610426027327776" lon="-3.977539027109742">
        <ele>110.20999999999999</ele>
        <time>2023-09-01T15:29:46Z</time>
      </trkpt>
      <trkpt lat="56.610619984567165" lon="-3.978119976818562">
        <ele>109.25</ele>
        <time>2023-09-01T15:29:49Z</time>
      </trkpt>
      <trkpt lat="56.610712017863989" lon="-3.978273030370474">
        <ele>108.77</ele>
        <time>2023-09-01T15:29:50Z</time>
      </trkpt>
      <trkpt lat="56.610810002312064" lon="-3.978417031466961">
        <ele>108.29000000000001</ele>
        <time>2023-09-01T15:29:51Z</time>
      </trkpt>
      <trkpt lat="56.611788002774119" lon="-3.979234015569091">
        <ele>106.36</ele>
        <time>2023-09-01T15:30:00Z</time>
      </trkpt>
      <trkpt lat="56.611896967515349" lon="-3.979267040267587">
        <ele>106.84</ele>
        <time>2023-09-01T15:30:01Z</time>
      </trkpt>
      <trkpt lat="56.613373020663857" lon="-3.979419004172087">
        <ele>105.88</ele>
        <time>2023-09-01T15:30:13Z</time>
      </trkpt>
      <trkpt lat="56.614125967025757" lon="-3.979463009163737">
        <ele>103.95999999999999</ele>
        <time>2023-09-01T15:30:21Z</time>
      </trkpt>
      <trkpt lat="56.61441296339035" lon="-3.979364018887281">
        <ele>102.52</ele>
        <time>2023-09-01T15:30:26Z</time>
      </trkpt>
      <trkpt lat="56.614450011402369" lon="-3.979352032765746">
        <ele>102.04000000000001</ele>
        <time>2023-09-01T15:30:27Z</time>
      </trkpt>
      <trkpt lat="56.614469960331917" lon="-3.979344991967082">
        <ele>102.04000000000001</ele>
        <time>2023-09-01T15:30:28Z</time>
      </trkpt>
      <trkpt lat="56.614486975595355" lon="-3.97933904081583">
        <ele>101.08</ele>
        <time>2023-09-01T15:30:39Z</time>
      </trkpt>
      <trkpt lat="56.614507008343935" lon="-3.979332000017166">
        <ele>100.59999999999999</ele>
        <time>2023-09-01T15:30:40Z</time>
      </trkpt>
      <trkpt lat="56.614523017778993" lon="-3.979325965046883">
        <ele>100.11</ele>
        <time>2023-09-01T15:30:41Z</time>
      </trkpt>
      <trkpt lat="56.614587977528572" lon="-3.979304004460573">
        <ele>99.150000000000006</ele>
        <time>2023-09-01T15:30:45Z</time>
      </trkpt>
      <trkpt lat="56.614595018327236" lon="-3.97938103415072">
        <ele>98.670000000000002</ele>
        <time>2023-09-01T15:30:46Z</time>
      </trkpt>
      <trkpt lat="56.614608010277152" lon="-3.97951296530664">
        <ele>98.670000000000002</ele>
        <time>2023-09-01T15:30:47Z</time>
      </trkpt>
      <trkpt lat="56.614623013883829" lon="-3.979669036343694">
        <ele>98.670000000000002</ele>
        <time>2023-09-01T15:30:48Z</time>
      </trkpt>
      <trkpt lat="56.614641034975648" lon="-3.979847989976406">
        <ele>98.189999999999998</ele>
        <time>2023-09-01T15:30:49Z</time>
      </trkpt>
      <trkpt lat="56.614633994176984" lon="-3.981104018166661">
        <ele>97.709999999999994</ele>
        <time>2023-09-01T15:30:55Z</time>
      </trkpt>
      <trkpt lat="56.614666013047099" lon="-3.981570973992348">
        <ele>97.230000000000004</ele>
        <time>2023-09-01T15:30:58Z</time>
      </trkpt>
      <trkpt lat="56.614686967805028" lon="-3.981729978695512">
        <ele>97.230000000000004</ele>
        <time>2023-09-01T15:30:59Z</time>
      </trkpt>
      <trkpt lat="56.614717980846763" lon="-3.981884038075805">
        <ele>96.75</ele>
        <time>2023-09-01T15:31:00Z</time>
      </trkpt>
      <trkpt lat="56.615090975537896" lon="-3.983395965769887">
        <ele>102.04000000000001</ele>
        <time>2023-09-01T15:31:11Z</time>
      </trkpt>
      <trkpt lat="56.615616017952561" lon="-3.985477024689317">
        <ele>105.88</ele>
        <time>2023-09-01T15:31:23Z</time>
      </trkpt>
      <trkpt lat="56.616263017058372" lon="-3.98804297670722">
        <ele>107.31999999999999</ele>
        <time>2023-09-01T15:31:32Z</time>
      </trkpt>
      <trkpt lat="56.617101961746812" lon="-3.990584034472704">
        <ele>105.88</ele>
        <time>2023-09-01T15:31:42Z</time>
      </trkpt>
      <trkpt lat="56.617806041613221" lon="-3.992480020970106">
        <ele>108.77</ele>
        <time>2023-09-01T15:31:51Z</time>
      </trkpt>
      <trkpt lat="56.617874018847942" lon="-3.99266098625958">
        <ele>108.77</ele>
        <time>2023-09-01T15:31:52Z</time>
      </trkpt>
      <trkpt lat="56.618349021300673" lon="-3.993765972554684">
        <ele>112.13</ele>
        <time>2023-09-01T15:31:58Z</time>
      </trkpt>
      <trkpt lat="56.619066009297967" lon="-3.994951006025076">
        <ele>117.42</ele>
        <time>2023-09-01T15:32:05Z</time>
      </trkpt>
      <trkpt lat="56.619144966825843" lon="-3.995129959657788">
        <ele>117.90000000000001</ele>
        <time>2023-09-01T15:32:06Z</time>
      </trkpt>
      <trkpt lat="56.619205987080932" lon="-3.995330035686493">
        <ele>118.38</ele>
        <time>2023-09-01T15:32:07Z</time>
      </trkpt>
      <trkpt lat="56.619269018992782" lon="-3.995546037331224">
        <ele>119.34</ele>
        <time>2023-09-01T15:32:08Z</time>
      </trkpt>
      <trkpt lat="56.619303971529007" lon="-3.995796991512179">
        <ele>119.34</ele>
        <time>2023-09-01T15:32:09Z</time>
      </trkpt>
      <trkpt lat="56.619342025369406" lon="-3.996065966784954">
        <ele>119.81999999999999</ele>
        <time>2023-09-01T15:32:10Z</time>
      </trkpt>
      <trkpt lat="56.619726000353694" lon="-3.998507028445602">
        <ele>124.63</ele>
        <time>2023-09-01T15:32:19Z</time>
      </trkpt>
      <trkpt lat="56.619784003123641" lon="-3.998705008998513">
        <ele>125.11</ele>
        <time>2023-09-01T15:32:20Z</time>
      </trkpt>
      <trkpt lat="56.61984502337873" lon="-3.998915981501341">
        <ele>125.59</ele>
        <time>2023-09-01T15:32:21Z</time>
      </trkpt>
      <trkpt lat="56.619936972856522" lon="-3.999012960121036">
        <ele>126.06999999999999</ele>
        <time>2023-09-01T15:32:22Z</time>
      </trkpt>
      <trkpt lat="56.6200399864465" lon="-3.999121002852917">
        <ele>126.55</ele>
        <time>2023-09-01T15:32:23Z</time>
      </trkpt>
      <trkpt lat="56.620140988379717" lon="-3.999227033928037">
        <ele>127.03</ele>
        <time>2023-09-01T15:32:24Z</time>
      </trkpt>
      <trkpt lat="56.620235033333302" lon="-3.999326024204493">
        <ele>127.03</ele>
        <time>2023-09-01T15:32:25Z</time>
      </trkpt>
      <trkpt lat="56.620316002517939" lon="-3.999467007815838">
        <ele>127.51000000000001</ele>
        <time>2023-09-01T15:32:26Z</time>
      </trkpt>
      <trkpt lat="56.620399989187717" lon="-3.999628024175763">
        <ele>127.98999999999999</ele>
        <time>2023-09-01T15:32:27Z</time>
      </trkpt>
      <trkpt lat="56.62115603685379" lon="-4.000682970508933">
        <ele>132.80000000000001</ele>
        <time>2023-09-01T15:32:34Z</time>
      </trkpt>
      <trkpt lat="56.621361980214715" lon="-4.000914981588721">
        <ele>134.24000000000001</ele>
        <time>2023-09-01T15:32:36Z</time>
      </trkpt>
      <trkpt lat="56.621558032929897" lon="-4.001086978241801">
        <ele>136.63999999999999</ele>
        <time>2023-09-01T15:32:38Z</time>
      </trkpt>
      <trkpt lat="56.622068993747234" lon="-4.001423008739948">
        <ele>140.49000000000001</ele>
        <time>2023-09-01T15:32:42Z</time>
      </trkpt>
      <trkpt lat="56.622198997065425" lon="-4.001560974866152">
        <ele>141.44999999999999</ele>
        <time>2023-09-01T15:32:43Z</time>
      </trkpt>
      <trkpt lat="56.622306033968925" lon="-4.001728026196361">
        <ele>142.88999999999999</ele>
        <time>2023-09-01T15:32:44Z</time>
      </trkpt>
      <trkpt lat="56.622615996748209" lon="-4.002249967306852">
        <ele>146.25999999999999</ele>
        <time>2023-09-01T15:32:47Z</time>
      </trkpt>
      <trkpt lat="56.622685985639691" lon="-4.002453982830048">
        <ele>147.69999999999999</ele>
        <time>2023-09-01T15:32:48Z</time>
      </trkpt>
      <trkpt lat="56.622756980359554" lon="-4.002662021666765">
        <ele>148.66</ele>
        <time>2023-09-01T15:32:49Z</time>
      </trkpt>
      <trkpt lat="56.623312029987574" lon="-4.00428500957787">
        <ele>157.78999999999999</ele>
        <time>2023-09-01T15:32:56Z</time>
      </trkpt>
      <trkpt lat="56.623392999172211" lon="-4.00452196598053">
        <ele>159.24000000000001</ele>
        <time>2023-09-01T15:32:57Z</time>
      </trkpt>
      <trkpt lat="56.62347698584199" lon="-4.004748025909066">
        <ele>160.19999999999999</ele>
        <time>2023-09-01T15:32:58Z</time>
      </trkpt>
      <trkpt lat="56.623581005260348" lon="-4.004975007846952">
        <ele>161.63999999999999</ele>
        <time>2023-09-01T15:32:59Z</time>
      </trkpt>
      <trkpt lat="56.623688964173198" lon="-4.005209030583501">
        <ele>162.59999999999999</ele>
        <time>2023-09-01T15:33:00Z</time>
      </trkpt>
      <trkpt lat="56.624583983793855" lon="-4.007156984880567">
        <ele>170.28999999999999</ele>
        <time>2023-09-01T15:33:09Z</time>
      </trkpt>
      <trkpt lat="56.624953960999846" lon="-4.007965000346303">
        <ele>174.62</ele>
        <time>2023-09-01T15:33:13Z</time>
      </trkpt>
      <trkpt lat="56.625067032873631" lon="-4.008138002827764">
        <ele>176.06</ele>
        <time>2023-09-01T15:33:14Z</time>
      </trkpt>
      <trkpt lat="56.62517499178648" lon="-4.008218972012401">
        <ele>177.97999999999999</ele>
        <time>2023-09-01T15:33:15Z</time>
      </trkpt>
      <trkpt lat="56.625301977619529" lon="-4.008298013359308">
        <ele>179.90000000000001</ele>
        <time>2023-09-01T15:33:16Z</time>
      </trkpt>
      <trkpt lat="56.6254329867661" lon="-4.008319973945618">
        <ele>180.87</ele>
        <time>2023-09-01T15:33:17Z</time>
      </trkpt>
      <trkpt lat="56.625574976205826" lon="-4.00834403000772">
        <ele>182.31</ele>
        <time>2023-09-01T15:33:18Z</time>
      </trkpt>
      <trkpt lat="56.627372978255153" lon="-4.008649969473481">
        <ele>195.77000000000001</ele>
        <time>2023-09-01T15:33:29Z</time>
      </trkpt>
      <trkpt lat="56.627643965184689" lon="-4.00875398889184">
        <ele>198.16999999999999</ele>
        <time>2023-09-01T15:33:31Z</time>
      </trkpt>
      <trkpt lat="56.627778997644782" lon="-4.008859014138579">
        <ele>199.61000000000001</ele>
        <time>2023-09-01T15:33:32Z</time>
      </trkpt>
      <trkpt lat="56.627934984862804" lon="-4.008979965001345">
        <ele>201.05000000000001</ele>
        <time>2023-09-01T15:33:33Z</time>
      </trkpt>
      <trkpt lat="56.628703018650413" lon="-4.009794015437365">
        <ele>210.66999999999999</ele>
        <time>2023-09-01T15:33:39Z</time>
      </trkpt>
      <trkpt lat="56.628952967002988" lon="-4.009809019044042">
        <ele>214.50999999999999</ele>
        <time>2023-09-01T15:33:41Z</time>
      </trkpt>
      <trkpt lat="56.629087999463081" lon="-4.009774988517165">
        <ele>216.43000000000001</ele>
        <time>2023-09-01T15:33:42Z</time>
      </trkpt>
      <trkpt lat="56.629179026931524" lon="-4.009752022102475">
        <ele>218.36000000000001</ele>
        <time>2023-09-01T15:33:43Z</time>
      </trkpt>
      <trkpt lat="56.62934297695756" lon="-4.009777000173926">
        <ele>220.28</ele>
        <time>2023-09-01T15:33:44Z</time>
      </trkpt>
      <trkpt lat="56.629457976669073" lon="-4.009795021265745">
        <ele>222.19999999999999</ele>
        <time>2023-09-01T15:33:45Z</time>
      </trkpt>
      <trkpt lat="56.629595020785928" lon="-4.009901974350214">
        <ele>223.63999999999999</ele>
        <time>2023-09-01T15:33:46Z</time>
      </trkpt>
      <trkpt lat="56.629716977477074" lon="-4.010027032345533">
        <ele>225.56999999999999</ele>
        <time>2023-09-01T15:33:47Z</time>
      </trkpt>
      <trkpt lat="56.62983600050211" lon="-4.010176984593272">
        <ele>227.00999999999999</ele>
        <time>2023-09-01T15:33:48Z</time>
      </trkpt>
      <trkpt lat="56.629955023527145" lon="-4.010325009003282">
        <ele>228.44999999999999</ele>
        <time>2023-09-01T15:33:49Z</time>
      </trkpt>
      <trkpt lat="56.630331035703421" lon="-4.010664978995919">
        <ele>235.18000000000001</ele>
        <time>2023-09-01T15:33:53Z</time>
      </trkpt>
      <trkpt lat="56.630417034029961" lon="-4.010655004531145">
        <ele>236.62</ele>
        <time>2023-09-01T15:33:54Z</time>
      </trkpt>
      <trkpt lat="56.630486017093062" lon="-4.010590966790915">
        <ele>238.06</ele>
        <time>2023-09-01T15:33:55Z</time>
      </trkpt>
      <trkpt lat="56.630578972399235" lon="-4.010498011484742">
        <ele>239.50999999999999</ele>
        <time>2023-09-01T15:33:56Z</time>
      </trkpt>
      <trkpt lat="56.630675029009581" lon="-4.010402038693428">
        <ele>240.47</ele>
        <time>2023-09-01T15:33:57Z</time>
      </trkpt>
      <trkpt lat="56.630746023729444" lon="-4.010331965982914">
        <ele>241.43000000000001</ele>
        <time>2023-09-01T15:33:58Z</time>
      </trkpt>
      <trkpt lat="56.63086898624897" lon="-4.010282009840012">
        <ele>242.38999999999999</ele>
        <time>2023-09-01T15:33:59Z</time>
      </trkpt>
      <trkpt lat="56.630968982353806" lon="-4.010242028161883">
        <ele>243.83000000000001</ele>
        <time>2023-09-01T15:34:00Z</time>
      </trkpt>
      <trkpt lat="56.631073001772165" lon="-4.010202968493104">
        <ele>244.78999999999999</ele>
        <time>2023-09-01T15:34:01Z</time>
      </trkpt>
      <trkpt lat="56.631191018968821" lon="-4.01019399985671">
        <ele>245.75</ele>
        <time>2023-09-01T15:34:02Z</time>
      </trkpt>
      <trkpt lat="56.631641965359449" lon="-4.010161980986595">
        <ele>250.08000000000001</ele>
        <time>2023-09-01T15:34:06Z</time>
      </trkpt>
      <trkpt lat="56.631740033626556" lon="-4.010233981534839">
        <ele>251.03999999999999</ele>
        <time>2023-09-01T15:34:07Z</time>
      </trkpt>
      <trkpt lat="56.631842963397503" lon="-4.010341018438339">
        <ele>252</ele>
        <time>2023-09-01T15:34:08Z</time>
      </trkpt>
      <trkpt lat="56.631950000301003" lon="-4.01045199483633">
        <ele>252.47999999999999</ele>
        <time>2023-09-01T15:34:09Z</time>
      </trkpt>
      <trkpt lat="56.632057037204504" lon="-4.010562971234322">
        <ele>253.44</ele>
        <time>2023-09-01T15:34:10Z</time>
      </trkpt>
      <trkpt lat="56.632166001945734" lon="-4.010675959289074">
        <ele>253.93000000000001</ele>
        <time>2023-09-01T15:34:11Z</time>
      </trkpt>
      <trkpt lat="56.632271027192473" lon="-4.010767992585897">
        <ele>254.88999999999999</ele>
        <time>2023-09-01T15:34:12Z</time>
      </trkpt>
      <trkpt lat="56.632401030510664" lon="-4.010807974264026">
        <ele>255.37</ele>
        <time>2023-09-01T15:34:13Z</time>
      </trkpt>
      <trkpt lat="56.632550982758403" lon="-4.010852985084057">
        <ele>256.32999999999998</ele>
        <time>2023-09-01T15:34:14Z</time>
      </trkpt>
      <trkpt lat="56.632707975804806" lon="-4.01090101338923">
        <ele>256.81</ele>
        <time>2023-09-01T15:34:15Z</time>
      </trkpt>
      <trkpt lat="56.633923016488552" lon="-4.011270990595222">
        <ele>262.57999999999998</ele>
        <time>2023-09-01T15:34:23Z</time>
      </trkpt>
      <trkpt lat="56.634054025635123" lon="-4.011278031393886">
        <ele>263.54000000000002</ele>
        <time>2023-09-01T15:34:24Z</time>
      </trkpt>
      <trkpt lat="56.634183023124933" lon="-4.011223968118429">
        <ele>264.5</ele>
        <time>2023-09-01T15:34:25Z</time>
      </trkpt>
      <trkpt lat="56.63430598564446" lon="-4.011152973398566">
        <ele>265.45999999999998</ele>
        <time>2023-09-01T15:34:26Z</time>
      </trkpt>
      <trkpt lat="56.634429031983018" lon="-4.011045014485717">
        <ele>266.42000000000002</ele>
        <time>2023-09-01T15:34:27Z</time>
      </trkpt>
      <trkpt lat="56.634551994502544" lon="-4.010935965925455">
        <ele>267.38</ele>
        <time>2023-09-01T15:34:28Z</time>
      </trkpt>
      <trkpt lat="56.634679986163974" lon="-4.010822977870703">
        <ele>268.82999999999998</ele>
        <time>2023-09-01T15:34:29Z</time>
      </trkpt>
      <trkpt lat="56.634956002235413" lon="-4.010627008974552">
        <ele>271.23000000000002</ele>
        <time>2023-09-01T15:34:31Z</time>
      </trkpt>
      <trkpt lat="56.63546402938664" lon="-4.010427016764879">
        <ele>274.58999999999997</ele>
        <time>2023-09-01T15:34:35Z</time>
      </trkpt>
      <trkpt lat="56.635565031319857" lon="-4.010476972907782">
        <ele>274.58999999999997</ele>
        <time>2023-09-01T15:34:36Z</time>
      </trkpt>
      <trkpt lat="56.63565899245441" lon="-4.010546039789915">
        <ele>275.06999999999999</ele>
        <time>2023-09-01T15:34:37Z</time>
      </trkpt>
      <trkpt lat="56.63576502352953" lon="-4.010651987046003">
        <ele>275.56</ele>
        <time>2023-09-01T15:34:38Z</time>
      </trkpt>
      <trkpt lat="56.635879017412663" lon="-4.010765980929136">
        <ele>276.04000000000002</ele>
        <time>2023-09-01T15:34:39Z</time>
      </trkpt>
      <trkpt lat="56.636004997417331" lon="-4.010891960933805">
        <ele>277</ele>
        <time>2023-09-01T15:34:40Z</time>
      </trkpt>
      <trkpt lat="56.636955002322793" lon="-4.011279959231615">
        <ele>280.36000000000001</ele>
        <time>2023-09-01T15:34:46Z</time>
      </trkpt>
      <trkpt lat="56.637123981490731" lon="-4.011282976716757">
        <ele>280.83999999999997</ele>
        <time>2023-09-01T15:34:47Z</time>
      </trkpt>
      <trkpt lat="56.638068035244942" lon="-4.01120200753212">
        <ele>283.25</ele>
        <time>2023-09-01T15:34:53Z</time>
      </trkpt>
      <trkpt lat="56.638199966400862" lon="-4.011132018640637">
        <ele>283.25</ele>
        <time>2023-09-01T15:34:54Z</time>
      </trkpt>
      <trkpt lat="56.638451004400849" lon="-4.010997992008925">
        <ele>283.73000000000002</ele>
        <time>2023-09-01T15:34:56Z</time>
      </trkpt>
      <trkpt lat="56.638491991907358" lon="-4.010975025594235">
        <ele>283.73000000000002</ele>
        <time>2023-09-01T15:34:57Z</time>
      </trkpt>
      <trkpt lat="56.63862501271069" lon="-4.01107401587069">
        <ele>283.73000000000002</ele>
        <time>2023-09-01T15:34:58Z</time>
      </trkpt>
      <trkpt lat="56.638728026300669" lon="-4.011150961741805">
        <ele>283.25</ele>
        <time>2023-09-01T15:34:59Z</time>
      </trkpt>
      <trkpt lat="56.638843026012182" lon="-4.011236960068345">
        <ele>283.25</ele>
        <time>2023-09-01T15:35:00Z</time>
      </trkpt>
      <trkpt lat="56.639786995947361" lon="-4.01174096390605">
        <ele>281.80000000000001</ele>
        <time>2023-09-01T15:35:06Z</time>
      </trkpt>
      <trkpt lat="56.639941977337003" lon="-4.011755967512727">
        <ele>281.80000000000001</ele>
        <time>2023-09-01T15:35:07Z</time>
      </trkpt>
      <trkpt lat="56.640102993696928" lon="-4.011770971119404">
        <ele>281.80000000000001</ele>
        <time>2023-09-01T15:35:08Z</time>
      </trkpt>
      <trkpt lat="56.641183001920581" lon="-4.012112030759454">
        <ele>280.36000000000001</ele>
        <time>2023-09-01T15:35:15Z</time>
      </trkpt>
      <trkpt lat="56.641318034380674" lon="-4.01210498996079">
        <ele>280.36000000000001</ele>
        <time>2023-09-01T15:35:16Z</time>
      </trkpt>
      <trkpt lat="56.642423020675778" lon="-4.012076994404197">
        <ele>283.25</ele>
        <time>2023-09-01T15:35:24Z</time>
      </trkpt>
      <trkpt lat="56.64294102229178" lon="-4.012123011052609">
        <ele>283.73000000000002</ele>
        <time>2023-09-01T15:35:28Z</time>
      </trkpt>
      <trkpt lat="56.643059039488435" lon="-4.012176990509033">
        <ele>284.20999999999998</ele>
        <time>2023-09-01T15:35:29Z</time>
      </trkpt>
      <trkpt lat="56.643174039199948" lon="-4.01229802519083">
        <ele>284.20999999999998</ele>
        <time>2023-09-01T15:35:30Z</time>
      </trkpt>
      <trkpt lat="56.643291972577572" lon="-4.01247002184391">
        <ele>284.20999999999998</ele>
        <time>2023-09-01T15:35:31Z</time>
      </trkpt>
      <trkpt lat="56.643420970067382" lon="-4.012659033760428">
        <ele>284.20999999999998</ele>
        <time>2023-09-01T15:35:32Z</time>
      </trkpt>
      <trkpt lat="56.644198978319764" lon="-4.013764020055533">
        <ele>282.76999999999998</ele>
        <time>2023-09-01T15:35:38Z</time>
      </trkpt>
      <trkpt lat="56.644307021051645" lon="-4.013871978968382">
        <ele>282.76999999999998</ele>
        <time>2023-09-01T15:35:39Z</time>
      </trkpt>
      <trkpt lat="56.644401988014579" lon="-4.01393199339509">
        <ele>282.27999999999997</ele>
        <time>2023-09-01T15:35:40Z</time>
      </trkpt>
      <trkpt lat="56.644507013261318" lon="-4.013916989788413">
        <ele>281.80000000000001</ele>
        <time>2023-09-01T15:35:41Z</time>
      </trkpt>
      <trkpt lat="56.644617989659309" lon="-4.013900980353355">
        <ele>281.80000000000001</ele>
        <time>2023-09-01T15:35:42Z</time>
      </trkpt>
      <trkpt lat="56.644737012684345" lon="-4.01384599506855">
        <ele>281.31999999999999</ele>
        <time>2023-09-01T15:35:43Z</time>
      </trkpt>
      <trkpt lat="56.644862992689013" lon="-4.013753961771727">
        <ele>280.83999999999997</ele>
        <time>2023-09-01T15:35:44Z</time>
      </trkpt>
      <trkpt lat="56.646074010059237" lon="-4.012861037626863">
        <ele>277.48000000000002</ele>
        <time>2023-09-01T15:35:54Z</time>
      </trkpt>
      <trkpt lat="56.647126022726297" lon="-4.012084035202861">
        <ele>279.39999999999998</ele>
        <time>2023-09-01T15:36:05Z</time>
      </trkpt>
      <trkpt lat="56.64726298302412" lon="-4.011982027441263">
        <ele>280.83999999999997</ele>
        <time>2023-09-01T15:36:13Z</time>
      </trkpt>
      <trkpt lat="56.64726298302412" lon="-4.011982027441263">
        <ele>281.31999999999999</ele>
        <time>2023-09-01T15:36:33Z</time>
      </trkpt>
      <trkpt lat="56.647300031036139" lon="-4.011955037713051">
        <ele>281.31999999999999</ele>
        <time>2023-09-01T15:36:58Z</time>
      </trkpt>
      <trkpt lat="56.647607982158661" lon="-4.011725960299373">
        <ele>283.25</ele>
        <time>2023-09-01T15:37:03Z</time>
      </trkpt>
      <trkpt lat="56.648306027054787" lon="-4.011205025017262">
        <ele>286.13</ele>
        <time>2023-09-01T15:37:09Z</time>
      </trkpt>
      <trkpt lat="56.649124016985297" lon="-4.010587027296424">
        <ele>291.89999999999998</ele>
        <time>2023-09-01T15:37:16Z</time>
      </trkpt>
      <trkpt lat="56.64921797811985" lon="-4.010485019534826">
        <ele>291.89999999999998</ele>
        <time>2023-09-01T15:37:17Z</time>
      </trkpt>
      <trkpt lat="56.649304982274771" lon="-4.010351998731494">
        <ele>291.89999999999998</ele>
        <time>2023-09-01T15:37:18Z</time>
      </trkpt>
      <trkpt lat="56.649588961154222" lon="-4.009918989613652">
        <ele>291.89999999999998</ele>
        <time>2023-09-01T15:37:21Z</time>
      </trkpt>
      <trkpt lat="56.64968803524971" lon="-4.009812036529183">
        <ele>292.38</ele>
        <time>2023-09-01T15:37:22Z</time>
      </trkpt>
      <trkpt lat="56.64979599416256" lon="-4.009725032374263">
        <ele>292.86000000000001</ele>
        <time>2023-09-01T15:37:23Z</time>
      </trkpt>
      <trkpt lat="56.649898001924157" lon="-4.009667029604316">
        <ele>292.86000000000001</ele>
        <time>2023-09-01T15:37:24Z</time>
      </trkpt>
      <trkpt lat="56.65001199580729" lon="-4.009625958278775">
        <ele>292.86000000000001</ele>
        <time>2023-09-01T15:37:25Z</time>
      </trkpt>
      <trkpt lat="56.650522034615278" lon="-4.009467037394643">
        <ele>294.30000000000001</ele>
        <time>2023-09-01T15:37:29Z</time>
      </trkpt>
      <trkpt lat="56.650658994913101" lon="-4.009457984939218">
        <ele>294.77999999999997</ele>
        <time>2023-09-01T15:37:30Z</time>
      </trkpt>
      <trkpt lat="56.651984006166458" lon="-4.009341979399324">
        <ele>302.47000000000003</ele>
        <time>2023-09-01T15:37:39Z</time>
      </trkpt>
      <trkpt lat="56.653024032711983" lon="-4.009185992181301">
        <ele>309.19999999999999</ele>
        <time>2023-09-01T15:37:46Z</time>
      </trkpt>
      <trkpt lat="56.653156969696283" lon="-4.009123966097832">
        <ele>310.63999999999999</ele>
        <time>2023-09-01T15:37:47Z</time>
      </trkpt>
      <trkpt lat="56.653290996327996" lon="-4.009023969992995">
        <ele>311.60000000000002</ele>
        <time>2023-09-01T15:37:48Z</time>
      </trkpt>
      <trkpt lat="56.654798984527588" lon="-4.00774396955967">
        <ele>327.94999999999999</ele>
        <time>2023-09-01T15:37:59Z</time>
      </trkpt>
      <trkpt lat="56.656234972178936" lon="-4.0062590315938">
        <ele>334.19999999999999</ele>
        <time>2023-09-01T15:38:08Z</time>
      </trkpt>
      <trkpt lat="56.658087959513068" lon="-4.004124999046326">
        <ele>340.92000000000002</ele>
        <time>2023-09-01T15:38:19Z</time>
      </trkpt>
      <trkpt lat="56.659148018807173" lon="-4.002860002219677">
        <ele>345.73000000000002</ele>
        <time>2023-09-01T15:38:26Z</time>
      </trkpt>
      <trkpt lat="56.659279027953744" lon="-4.002772998064756">
        <ele>346.20999999999998</ele>
        <time>2023-09-01T15:38:27Z</time>
      </trkpt>
      <trkpt lat="56.659413976594806" lon="-4.002725975587964">
        <ele>346.69</ele>
        <time>2023-09-01T15:38:28Z</time>
      </trkpt>
      <trkpt lat="56.66056003421545" lon="-4.002476027235389">
        <ele>350.06</ele>
        <time>2023-09-01T15:38:36Z</time>
      </trkpt>
      <trkpt lat="56.660671010613441" lon="-4.002525983378291">
        <ele>350.06</ele>
        <time>2023-09-01T15:38:37Z</time>
      </trkpt>
      <trkpt lat="56.660909978672862" lon="-4.00265003554523">
        <ele>350.54000000000002</ele>
        <time>2023-09-01T15:38:39Z</time>
      </trkpt>
      <trkpt lat="56.661036964505911" lon="-4.00265003554523">
        <ele>350.54000000000002</ele>
        <time>2023-09-01T15:38:40Z</time>
      </trkpt>
      <trkpt lat="56.661144001409411" lon="-4.002578034996986">
        <ele>350.54000000000002</ele>
        <time>2023-09-01T15:38:41Z</time>
      </trkpt>
      <trkpt lat="56.66124701499939" lon="-4.002484995871782">
        <ele>351.01999999999998</ele>
        <time>2023-09-01T15:38:42Z</time>
      </trkpt>
      <trkpt lat="56.661346005275846" lon="-4.002373013645411">
        <ele>351.01999999999998</ele>
        <time>2023-09-01T15:38:43Z</time>
      </trkpt>
      <trkpt lat="56.661448013037443" lon="-4.002230018377304">
        <ele>351.01999999999998</ele>
        <time>2023-09-01T15:38:44Z</time>
      </trkpt>
      <trkpt lat="56.662358958274126" lon="-4.000454982742667">
        <ele>356.31</ele>
        <time>2023-09-01T15:38:53Z</time>
      </trkpt>
      <trkpt lat="56.662910990417004" lon="-3.998852027580142">
        <ele>362.55000000000001</ele>
        <time>2023-09-01T15:39:00Z</time>
      </trkpt>
      <trkpt lat="56.663019033148885" lon="-3.99874297901988">
        <ele>363.51999999999998</ele>
        <time>2023-09-01T15:39:01Z</time>
      </trkpt>
      <trkpt lat="56.663094973191619" lon="-3.998667960986495">
        <ele>364.48000000000002</ele>
        <time>2023-09-01T15:39:02Z</time>
      </trkpt>
      <trkpt lat="56.663179965689778" lon="-3.998648012056947">
        <ele>364.95999999999998</ele>
        <time>2023-09-01T15:39:03Z</time>
      </trkpt>
      <trkpt lat="56.663271998986602" lon="-3.998665027320385">
        <ele>365.44</ele>
        <time>2023-09-01T15:39:04Z</time>
      </trkpt>
      <trkpt lat="56.663371995091438" lon="-3.998683970421553">
        <ele>365.92000000000002</ele>
        <time>2023-09-01T15:39:05Z</time>
      </trkpt>
      <trkpt lat="56.663480037823319" lon="-3.998705008998513">
        <ele>365.92000000000002</ele>
        <time>2023-09-01T15:39:06Z</time>
      </trkpt>
      <trkpt lat="56.663595037534833" lon="-3.998722024261951">
        <ele>366.39999999999998</ele>
        <time>2023-09-01T15:39:07Z</time>
      </trkpt>
      <trkpt lat="56.664623999968171" lon="-3.998563019558787">
        <ele>366.88</ele>
        <time>2023-09-01T15:39:14Z</time>
      </trkpt>
      <trkpt lat="56.664766995236278" lon="-3.998519014567137">
        <ele>367.36000000000001</ele>
        <time>2023-09-01T15:39:15Z</time>
      </trkpt>
      <trkpt lat="56.664893981069326" lon="-3.998394040390849">
        <ele>367.83999999999997</ele>
        <time>2023-09-01T15:39:16Z</time>
      </trkpt>
      <trkpt lat="56.666480004787445" lon="-3.996782032772899">
        <ele>376.97000000000003</ele>
        <time>2023-09-01T15:39:28Z</time>
      </trkpt>
      <trkpt lat="56.666865991428494" lon="-3.996360003948212">
        <ele>377.94</ele>
        <time>2023-09-01T15:39:31Z</time>
      </trkpt>
      <trkpt lat="56.666946038603783" lon="-3.996191024780273">
        <ele>377.94</ele>
        <time>2023-09-01T15:39:32Z</time>
      </trkpt>
      <trkpt lat="56.667015021666884" lon="-3.995986003428698">
        <ele>377.94</ele>
        <time>2023-09-01T15:39:33Z</time>
      </trkpt>
      <trkpt lat="56.667087022215128" lon="-3.995774025097489">
        <ele>377.44999999999999</ele>
        <time>2023-09-01T15:39:34Z</time>
      </trkpt>
      <trkpt lat="56.667161034420133" lon="-3.995555005967617">
        <ele>377.44999999999999</ele>
        <time>2023-09-01T15:39:35Z</time>
      </trkpt>
      <trkpt lat="56.667302018031478" lon="-3.995140017941594">
        <ele>377.44999999999999</ele>
        <time>2023-09-01T15:39:37Z</time>
      </trkpt>
      <trkpt lat="56.667378041893244" lon="-3.994980007410049">
        <ele>377.94</ele>
        <time>2023-09-01T15:39:38Z</time>
      </trkpt>
      <trkpt lat="56.667468985542655" lon="-3.994838017970324">
        <ele>378.42000000000002</ele>
        <time>2023-09-01T15:39:39Z</time>
      </trkpt>
      <trkpt lat="56.667570993304253" lon="-3.994741039350629">
        <ele>378.89999999999998</ele>
        <time>2023-09-01T15:39:40Z</time>
      </trkpt>
      <trkpt lat="56.667688004672527" lon="-3.994663003832102">
        <ele>378.89999999999998</ele>
        <time>2023-09-01T15:39:41Z</time>
      </trkpt>
      <trkpt lat="56.66782496497035" lon="-3.994599971920252">
        <ele>379.38</ele>
        <time>2023-09-01T15:39:42Z</time>
      </trkpt>
      <trkpt lat="56.669296994805336" lon="-3.993916008621454">
        <ele>382.25999999999999</ele>
        <time>2023-09-01T15:39:51Z</time>
      </trkpt>
      <trkpt lat="56.671260036528111" lon="-3.99300497956574">
        <ele>389.94999999999999</ele>
        <time>2023-09-01T15:40:03Z</time>
      </trkpt>
      <trkpt lat="56.672203000634909" lon="-3.992607006803155">
        <ele>390.91000000000003</ele>
        <time>2023-09-01T15:40:10Z</time>
      </trkpt>
      <trkpt lat="56.673584003001451" lon="-3.992590997368097">
        <ele>388.02999999999997</ele>
        <time>2023-09-01T15:40:19Z</time>
      </trkpt>
      <trkpt lat="56.674543982371688" lon="-3.992470968514681">
        <ele>379.38</ele>
        <time>2023-09-01T15:40:27Z</time>
      </trkpt>
      <trkpt lat="56.674648001790047" lon="-3.992414977401495">
        <ele>377.94</ele>
        <time>2023-09-01T15:40:28Z</time>
      </trkpt>
      <trkpt lat="56.674749003723264" lon="-3.992306012660265">
        <ele>376.49000000000001</ele>
        <time>2023-09-01T15:40:29Z</time>
      </trkpt>
      <trkpt lat="56.675743013620377" lon="-3.991339998319745">
        <ele>366.39999999999998</ele>
        <time>2023-09-01T15:40:37Z</time>
      </trkpt>
      <trkpt lat="56.675866981968284" lon="-3.99128601886332">
        <ele>365.44</ele>
        <time>2023-09-01T15:40:38Z</time>
      </trkpt>
      <trkpt lat="56.675981981679797" lon="-3.991275038570166">
        <ele>364</ele>
        <time>2023-09-01T15:40:39Z</time>
      </trkpt>
      <trkpt lat="56.676104022189975" lon="-3.991324994713068">
        <ele>363.04000000000002</ele>
        <time>2023-09-01T15:40:40Z</time>
      </trkpt>
      <trkpt lat="56.676232013851404" lon="-3.991376962512732">
        <ele>362.06999999999999</ele>
        <time>2023-09-01T15:40:41Z</time>
      </trkpt>
      <trkpt lat="56.676372997462749" lon="-3.991434965282679">
        <ele>360.63</ele>
        <time>2023-09-01T15:40:42Z</time>
      </trkpt>
      <trkpt lat="56.676528984680772" lon="-3.991499003022909">
        <ele>359.67000000000002</ele>
        <time>2023-09-01T15:40:43Z</time>
      </trkpt>
      <trkpt lat="56.676680026575923" lon="-3.991561029106379">
        <ele>358.70999999999998</ele>
        <time>2023-09-01T15:40:44Z</time>
      </trkpt>
      <trkpt lat="56.677499022334814" lon="-3.991639986634255">
        <ele>353.89999999999998</ele>
        <time>2023-09-01T15:40:49Z</time>
      </trkpt>
      <trkpt lat="56.678876001387835" lon="-3.99182103574276">
        <ele>350.06</ele>
        <time>2023-09-01T15:40:57Z</time>
      </trkpt>
      <trkpt lat="56.679026959463954" lon="-3.991919020190835">
        <ele>349.57999999999998</ele>
        <time>2023-09-01T15:40:58Z</time>
      </trkpt>
      <trkpt lat="56.679168026894331" lon="-3.992047011852264">
        <ele>348.62</ele>
        <time>2023-09-01T15:40:59Z</time>
      </trkpt>
      <trkpt lat="56.679315967485309" lon="-3.992182966321707">
        <ele>347.64999999999998</ele>
        <time>2023-09-01T15:41:00Z</time>
      </trkpt>
      <trkpt lat="56.679463991895318" lon="-3.9923179987818">
        <ele>346.69</ele>
        <time>2023-09-01T15:41:01Z</time>
      </trkpt>
      <trkpt lat="56.679887026548386" lon="-3.992655035108328">
        <ele>343.32999999999998</ele>
        <time>2023-09-01T15:41:04Z</time>
      </trkpt>
      <trkpt lat="56.680028010159731" lon="-3.992719994857907">
        <ele>342.37</ele>
        <time>2023-09-01T15:41:05Z</time>
      </trkpt>
      <trkpt lat="56.681461986154318" lon="-3.992934990674257">
        <ele>329.87</ele>
        <time>2023-09-01T15:41:14Z</time>
      </trkpt>
      <trkpt lat="56.68159400112927" lon="-3.992988970130682">
        <ele>329.38999999999999</ele>
        <time>2023-09-01T15:41:15Z</time>
      </trkpt>
      <trkpt lat="56.681878985837102" lon="-3.993104975670576">
        <ele>328.43000000000001</ele>
        <time>2023-09-01T15:41:17Z</time>
      </trkpt>
      <trkpt lat="56.683269962668419" lon="-3.99332701228559">
        <ele>324.57999999999998</ele>
        <time>2023-09-01T15:41:25Z</time>
      </trkpt>
      <trkpt lat="56.683438019827008" lon="-3.993330029770732">
        <ele>323.62</ele>
        <time>2023-09-01T15:41:26Z</time>
      </trkpt>
      <trkpt lat="56.683604987338185" lon="-3.993317959830165">
        <ele>323.13999999999999</ele>
        <time>2023-09-01T15:41:27Z</time>
      </trkpt>
      <trkpt lat="56.683758040890098" lon="-3.993242019787431">
        <ele>322.66000000000003</ele>
        <time>2023-09-01T15:41:28Z</time>
      </trkpt>
      <trkpt lat="56.683913022279739" lon="-3.993145963177085">
        <ele>321.69999999999999</ele>
        <time>2023-09-01T15:41:29Z</time>
      </trkpt>
      <trkpt lat="56.684071021154523" lon="-3.99304797872901">
        <ele>320.74000000000001</ele>
        <time>2023-09-01T15:41:30Z</time>
      </trkpt>
      <trkpt lat="56.685453029349446" lon="-3.992193024605513">
        <ele>309.68000000000001</ele>
        <time>2023-09-01T15:41:38Z</time>
      </trkpt>
      <trkpt lat="56.685640029609203" lon="-3.992077019065619">
        <ele>308.72000000000003</ele>
        <time>2023-09-01T15:41:39Z</time>
      </trkpt>
      <trkpt lat="56.68681500479579" lon="-3.9913509786129">
        <ele>304.88</ele>
        <time>2023-09-01T15:41:46Z</time>
      </trkpt>
      <trkpt lat="56.687137959524989" lon="-3.991152998059988">
        <ele>304.88</ele>
        <time>2023-09-01T15:41:48Z</time>
      </trkpt>
      <trkpt lat="56.687285983934999" lon="-3.991066999733448">
        <ele>304.38999999999999</ele>
        <time>2023-09-01T15:41:49Z</time>
      </trkpt>
      <trkpt lat="56.687558982521296" lon="-3.990907995030284">
        <ele>303.91000000000003</ele>
        <time>2023-09-01T15:41:51Z</time>
      </trkpt>
      <trkpt lat="56.687710024416447" lon="-3.990872036665678">
        <ele>303.43000000000001</ele>
        <time>2023-09-01T15:41:52Z</time>
      </trkpt>
      <trkpt lat="56.687852013856173" lon="-3.990849992260337">
        <ele>302.47000000000003</ele>
        <time>2023-09-01T15:41:53Z</time>
      </trkpt>
      <trkpt lat="56.688000960275531" lon="-3.990828031674027">
        <ele>301.99000000000001</ele>
        <time>2023-09-01T15:41:54Z</time>
      </trkpt>
      <trkpt lat="56.688158959150314" lon="-3.990802969783545">
        <ele>301.02999999999997</ele>
        <time>2023-09-01T15:41:55Z</time>
      </trkpt>
      <trkpt lat="56.68832098133862" lon="-3.990777991712093">
        <ele>299.58999999999997</ele>
        <time>2023-09-01T15:41:56Z</time>
      </trkpt>
      <trkpt lat="56.688475962728262" lon="-3.990723006427288">
        <ele>298.63</ele>
        <time>2023-09-01T15:41:57Z</time>
      </trkpt>
      <trkpt lat="56.688627004623413" lon="-3.990610018372536">
        <ele>297.67000000000002</ele>
        <time>2023-09-01T15:41:58Z</time>
      </trkpt>
      <trkpt lat="56.689447006210685" lon="-3.989843996241689">
        <ele>289.97000000000003</ele>
        <time>2023-09-01T15:42:04Z</time>
      </trkpt>
      <trkpt lat="56.689539961516857" lon="-3.989689014852047">
        <ele>288.52999999999997</ele>
        <time>2023-09-01T15:42:05Z</time>
      </trkpt>
      <trkpt lat="56.689594024792314" lon="-3.989527998492122">
        <ele>287.56999999999999</ele>
        <time>2023-09-01T15:42:06Z</time>
      </trkpt>
      <trkpt lat="56.689662002027035" lon="-3.989320965483785">
        <ele>286.61000000000001</ele>
        <time>2023-09-01T15:42:07Z</time>
      </trkpt>
      <trkpt lat="56.689735008403659" lon="-3.989103036001325">
        <ele>285.64999999999998</ele>
        <time>2023-09-01T15:42:08Z</time>
      </trkpt>
      <trkpt lat="56.690133986994624" lon="-3.987979022786021">
        <ele>279.88</ele>
        <time>2023-09-01T15:42:13Z</time>
      </trkpt>
      <trkpt lat="56.690241023898125" lon="-3.987793028354645">
        <ele>278.92000000000002</ele>
        <time>2023-09-01T15:42:14Z</time>
      </trkpt>
      <trkpt lat="56.690459037199616" lon="-3.987413998693228">
        <ele>277</ele>
        <time>2023-09-01T15:42:16Z</time>
      </trkpt>
      <trkpt lat="56.69057403691113" lon="-3.987214006483555">
        <ele>276.04000000000002</ele>
        <time>2023-09-01T15:42:17Z</time>
      </trkpt>
      <trkpt lat="56.69143502600491" lon="-3.985777013003826">
        <ele>265.94</ele>
        <time>2023-09-01T15:42:25Z</time>
      </trkpt>
      <trkpt lat="56.691511971876025" lon="-3.98569998331368">
        <ele>264.5</ele>
        <time>2023-09-01T15:42:26Z</time>
      </trkpt>
      <trkpt lat="56.691595958545804" lon="-3.985654972493649">
        <ele>263.54000000000002</ele>
        <time>2023-09-01T15:42:27Z</time>
      </trkpt>
      <trkpt lat="56.691796034574509" lon="-3.985550031065941">
        <ele>260.17000000000002</ele>
        <time>2023-09-01T15:42:29Z</time>
      </trkpt>
      <trkpt lat="56.691885972395539" lon="-3.985504014417529">
        <ele>258.25</ele>
        <time>2023-09-01T15:42:30Z</time>
      </trkpt>
      <trkpt lat="56.691955961287022" lon="-3.985466966405511">
        <ele>256.81</ele>
        <time>2023-09-01T15:42:31Z</time>
      </trkpt>
      <trkpt lat="56.691966019570827" lon="-3.985464032739401">
        <ele>255.37</ele>
        <time>2023-09-01T15:42:32Z</time>
      </trkpt>
      <trkpt lat="56.692017987370491" lon="-3.985507031902671">
        <ele>253.44</ele>
        <time>2023-09-01T15:42:33Z</time>
      </trkpt>
      <trkpt lat="56.692093005403876" lon="-3.985569979995489">
        <ele>251.52000000000001</ele>
        <time>2023-09-01T15:42:34Z</time>
      </trkpt>
      <trkpt lat="56.69209904037416" lon="-3.985610967501998">
        <ele>249.59999999999999</ele>
        <time>2023-09-01T15:42:35Z</time>
      </trkpt>
      <trkpt lat="56.692117983475327" lon="-3.985745999962091">
        <ele>247.68000000000001</ele>
        <time>2023-09-01T15:42:36Z</time>
      </trkpt>
      <trkpt lat="56.692128963768482" lon="-3.985940041020513">
        <ele>245.75</ele>
        <time>2023-09-01T15:42:37Z</time>
      </trkpt>
      <trkpt lat="56.692105997353792" lon="-3.986160987988114">
        <ele>243.83000000000001</ele>
        <time>2023-09-01T15:42:38Z</time>
      </trkpt>
      <trkpt lat="56.691939029842615" lon="-3.98791397921741">
        <ele>229.41</ele>
        <time>2023-09-01T15:42:44Z</time>
      </trkpt>
      <trkpt lat="56.691931989043951" lon="-3.988226959481835">
        <ele>227.49000000000001</ele>
        <time>2023-09-01T15:42:45Z</time>
      </trkpt>
      <trkpt lat="56.6919070109725" lon="-3.990099979564548">
        <ele>218.36000000000001</ele>
        <time>2023-09-01T15:42:52Z</time>
      </trkpt>
      <trkpt lat="56.691899970173836" lon="-3.990800958126783">
        <ele>214.03</ele>
        <time>2023-09-01T15:42:55Z</time>
      </trkpt>
      <trkpt lat="56.691923020407557" lon="-3.991001034155488">
        <ele>212.59</ele>
        <time>2023-09-01T15:42:56Z</time>
      </trkpt>
      <trkpt lat="56.691946992650628" lon="-3.99120002053678">
        <ele>211.15000000000001</ele>
        <time>2023-09-01T15:42:57Z</time>
      </trkpt>
      <trkpt lat="56.691969959065318" lon="-3.991387020796537">
        <ele>209.69999999999999</ele>
        <time>2023-09-01T15:42:58Z</time>
      </trkpt>
      <trkpt lat="56.69199401512742" lon="-3.991588018834591">
        <ele>208.74000000000001</ele>
        <time>2023-09-01T15:42:59Z</time>
      </trkpt>
      <trkpt lat="56.692082025110722" lon="-3.993402030318975">
        <ele>202.00999999999999</ele>
        <time>2023-09-01T15:43:07Z</time>
      </trkpt>
      <trkpt lat="56.692111026495695" lon="-3.99377703666687">
        <ele>200.56999999999999</ele>
        <time>2023-09-01T15:43:09Z</time>
      </trkpt>
      <trkpt lat="56.69216500595212" lon="-3.993938975036144">
        <ele>199.61000000000001</ele>
        <time>2023-09-01T15:43:10Z</time>
      </trkpt>
      <trkpt lat="56.692238012328744" lon="-3.994084987789393">
        <ele>199.13</ele>
        <time>2023-09-01T15:43:11Z</time>
      </trkpt>
      <trkpt lat="56.6923370026052" lon="-3.994190013036132">
        <ele>198.16999999999999</ele>
        <time>2023-09-01T15:43:12Z</time>
      </trkpt>
      <trkpt lat="56.692434987053275" lon="-3.994294032454491">
        <ele>197.69</ele>
        <time>2023-09-01T15:43:13Z</time>
      </trkpt>
      <trkpt lat="56.692541018128395" lon="-3.994406014680862">
        <ele>197.21000000000001</ele>
        <time>2023-09-01T15:43:14Z</time>
      </trkpt>
      <trkpt lat="56.693858988583088" lon="-3.995635975152254">
        <ele>191.91999999999999</ele>
        <time>2023-09-01T15:43:24Z</time>
      </trkpt>
      <trkpt lat="56.69397197663784" lon="-3.995724990963936">
        <ele>191.44</ele>
        <time>2023-09-01T15:43:25Z</time>
      </trkpt>
      <trkpt lat="56.69409804046154" lon="-3.995787017047405">
        <ele>190.96000000000001</ele>
        <time>2023-09-01T15:43:26Z</time>
      </trkpt>
      <trkpt lat="56.694222008809447" lon="-3.995795985683799">
        <ele>190.47999999999999</ele>
        <time>2023-09-01T15:43:27Z</time>
      </trkpt>
      <trkpt lat="56.695497985929251" lon="-3.995908973738551">
        <ele>183.27000000000001</ele>
        <time>2023-09-01T15:43:36Z</time>
      </trkpt>
      <trkpt lat="56.695804009214044" lon="-3.995959013700485">
        <ele>180.87</ele>
        <time>2023-09-01T15:43:39Z</time>
      </trkpt>
      <trkpt lat="56.695930995047092" lon="-3.99601299315691">
        <ele>179.41999999999999</ele>
        <time>2023-09-01T15:43:41Z</time>
      </trkpt>
      <trkpt lat="56.695970976725221" lon="-3.996093962341547">
        <ele>178.94</ele>
        <time>2023-09-01T15:43:42Z</time>
      </trkpt>
      <trkpt lat="56.696020010858774" lon="-3.996191024780273">
        <ele>178.46000000000001</ele>
        <time>2023-09-01T15:43:43Z</time>
      </trkpt>
      <trkpt lat="56.696023028343916" lon="-3.996302001178265">
        <ele>177.5</ele>
        <time>2023-09-01T15:43:44Z</time>
      </trkpt>
      <trkpt lat="56.696027973666787" lon="-3.996475003659725">
        <ele>176.06</ele>
        <time>2023-09-01T15:43:45Z</time>
      </trkpt>
      <trkpt lat="56.69603300280869" lon="-3.996663009747863">
        <ele>174.13999999999999</ele>
        <time>2023-09-01T15:43:46Z</time>
      </trkpt>
      <trkpt lat="56.696038031950593" lon="-3.996836012229323">
        <ele>172.21000000000001</ele>
        <time>2023-09-01T15:43:47Z</time>
      </trkpt>
      <trkpt lat="56.696040965616703" lon="-3.996964003890753">
        <ele>170.77000000000001</ele>
        <time>2023-09-01T15:43:48Z</time>
      </trkpt>
      <trkpt lat="56.696129981428385" lon="-3.997102975845337">
        <ele>169.33000000000001</ele>
        <time>2023-09-01T15:43:49Z</time>
      </trkpt>
      <trkpt lat="56.696181027218699" lon="-3.997183023020625">
        <ele>168.37</ele>
        <time>2023-09-01T15:43:50Z</time>
      </trkpt>
      <trkpt lat="56.696238024160266" lon="-3.997201966121793">
        <ele>166.93000000000001</ele>
        <time>2023-09-01T15:43:51Z</time>
      </trkpt>
      <trkpt lat="56.696323016658425" lon="-3.997208001092076">
        <ele>165.47999999999999</ele>
        <time>2023-09-01T15:43:52Z</time>
      </trkpt>
      <trkpt lat="56.696424018591642" lon="-3.99721403606236">
        <ele>164.52000000000001</ele>
        <time>2023-09-01T15:43:53Z</time>
      </trkpt>
      <trkpt lat="56.696534994989634" lon="-3.997220993041992">
        <ele>163.56</ele>
        <time>2023-09-01T15:43:54Z</time>
      </trkpt>
      <trkpt lat="56.696652006357908" lon="-3.997163996100426">
        <ele>162.59999999999999</ele>
        <time>2023-09-01T15:43:55Z</time>
      </trkpt>
      <trkpt lat="56.696779998019338" lon="-3.997101970016956">
        <ele>161.63999999999999</ele>
        <time>2023-09-01T15:43:56Z</time>
      </trkpt>
      <trkpt lat="56.697301017120481" lon="-3.996898960322142">
        <ele>158.27000000000001</ele>
        <time>2023-09-01T15:44:00Z</time>
      </trkpt>
      <trkpt lat="56.697426997125149" lon="-3.996898960322142">
        <ele>157.78999999999999</ele>
        <time>2023-09-01T15:44:01Z</time>
      </trkpt>
      <trkpt lat="56.697552977129817" lon="-3.996898960322142">
        <ele>157.31</ele>
        <time>2023-09-01T15:44:02Z</time>
      </trkpt>
      <trkpt lat="56.698690988123417" lon="-3.997414028272033">
        <ele>157.31</ele>
        <time>2023-09-01T15:44:10Z</time>
      </trkpt>
      <trkpt lat="56.699947016313672" lon="-3.998583974316716">
        <ele>160.19999999999999</ele>
        <time>2023-09-01T15:44:19Z</time>
      </trkpt>
      <trkpt lat="56.70009302906692" lon="-3.99871900677681">
        <ele>160.19999999999999</ele>
        <time>2023-09-01T15:44:20Z</time>
      </trkpt>
      <trkpt lat="56.700240969657898" lon="-3.998857978731394">
        <ele>160.19999999999999</ele>
        <time>2023-09-01T15:44:21Z</time>
      </trkpt>
      <trkpt lat="56.70123104006052" lon="-3.999742018058896">
        <ele>161.63999999999999</ele>
        <time>2023-09-01T15:44:28Z</time>
      </trkpt>
      <trkpt lat="56.702126981690526" lon="-4.000340988859534">
        <ele>162.59999999999999</ele>
        <time>2023-09-01T15:44:35Z</time>
      </trkpt>
      <trkpt lat="56.702249022200704" lon="-4.000372001901269">
        <ele>162.12</ele>
        <time>2023-09-01T15:44:36Z</time>
      </trkpt>
      <trkpt lat="56.702383970841765" lon="-4.000349035486579">
        <ele>162.12</ele>
        <time>2023-09-01T15:44:37Z</time>
      </trkpt>
      <trkpt lat="56.702530989423394" lon="-4.000317016616464">
        <ele>161.63999999999999</ele>
        <time>2023-09-01T15:44:38Z</time>
      </trkpt>
      <trkpt lat="56.702683037146926" lon="-4.000283991917968">
        <ele>161.16</ele>
        <time>2023-09-01T15:44:39Z</time>
      </trkpt>
      <trkpt lat="56.702944971621037" lon="-4.000226994976401">
        <ele>159.72</ele>
        <time>2023-09-01T15:44:41Z</time>
      </trkpt>
      <trkpt lat="56.703052008524537" lon="-4.000259013846517">
        <ele>159.24000000000001</ele>
        <time>2023-09-01T15:44:42Z</time>
      </trkpt>
      <trkpt lat="56.703158961609006" lon="-4.000305030494928">
        <ele>158.75</ele>
        <time>2023-09-01T15:44:43Z</time>
      </trkpt>
      <trkpt lat="56.703255018219352" lon="-4.000401003286243">
        <ele>158.27000000000001</ele>
        <time>2023-09-01T15:44:44Z</time>
      </trkpt>
      <trkpt lat="56.703346967697144" lon="-4.000504016876221">
        <ele>157.78999999999999</ele>
        <time>2023-09-01T15:44:45Z</time>
      </trkpt>
      <trkpt lat="56.703417040407658" lon="-4.000657992437482">
        <ele>157.31</ele>
        <time>2023-09-01T15:44:46Z</time>
      </trkpt>
      <trkpt lat="56.703483005985618" lon="-4.000849016010761">
        <ele>156.83000000000001</ele>
        <time>2023-09-01T15:44:47Z</time>
      </trkpt>
      <trkpt lat="56.703974017873406" lon="-4.002524977549911">
        <ele>149.62</ele>
        <time>2023-09-01T15:44:54Z</time>
      </trkpt>
      <trkpt lat="56.704491013661027" lon="-4.004363967105746">
        <ele>137.13</ele>
        <time>2023-09-01T15:45:00Z</time>
      </trkpt>
      <trkpt lat="56.704573994502425" lon="-4.004656998440623">
        <ele>135.68000000000001</ele>
        <time>2023-09-01T15:45:01Z</time>
      </trkpt>
      <trkpt lat="56.704657981172204" lon="-4.004958998411894">
        <ele>134.24000000000001</ele>
        <time>2023-09-01T15:45:02Z</time>
      </trkpt>
      <trkpt lat="56.704740962013602" lon="-4.005252029746771">
        <ele>132.80000000000001</ele>
        <time>2023-09-01T15:45:03Z</time>
      </trkpt>
      <trkpt lat="56.704815980046988" lon="-4.005519999191165">
        <ele>132.31999999999999</ele>
        <time>2023-09-01T15:45:04Z</time>
      </trkpt>
      <trkpt lat="56.705312021076679" lon="-4.007325964048505">
        <ele>130.40000000000001</ele>
        <time>2023-09-01T15:45:11Z</time>
      </trkpt>
      <trkpt lat="56.705860029906034" lon="-4.009340973570943">
        <ele>130.88</ele>
        <time>2023-09-01T15:45:19Z</time>
      </trkpt>
      <trkpt lat="56.706159012392163" lon="-4.01053799316287">
        <ele>130.40000000000001</ele>
        <time>2023-09-01T15:45:24Z</time>
      </trkpt>
      <trkpt lat="56.706189019605517" lon="-4.010765980929136">
        <ele>130.88</ele>
        <time>2023-09-01T15:45:25Z</time>
      </trkpt>
      <trkpt lat="56.706192959100008" lon="-4.010990029200912">
        <ele>130.88</ele>
        <time>2023-09-01T15:45:26Z</time>
      </trkpt>
      <trkpt lat="56.70619597658515" lon="-4.01122597977519">
        <ele>131.84</ele>
        <time>2023-09-01T15:45:27Z</time>
      </trkpt>
      <trkpt lat="56.706198994070292" lon="-4.011474000290036">
        <ele>131.84</ele>
        <time>2023-09-01T15:45:28Z</time>
      </trkpt>
      <trkpt lat="56.706235958263278" lon="-4.01453297585249">
        <ele>140.00999999999999</ele>
        <time>2023-09-01T15:45:39Z</time>
      </trkpt>
      <trkpt lat="56.706244004890323" lon="-4.015273014083505">
        <ele>141.93000000000001</ele>
        <time>2023-09-01T15:45:42Z</time>
      </trkpt>
      <trkpt lat="56.706247022375464" lon="-4.015484992414713">
        <ele>142.41</ele>
        <time>2023-09-01T15:45:43Z</time>
      </trkpt>
      <trkpt lat="56.706251967698336" lon="-4.015873996540904">
        <ele>143.84999999999999</ele>
        <time>2023-09-01T15:45:45Z</time>
      </trkpt>
      <trkpt lat="56.706253979355097" lon="-4.016054961830378">
        <ele>144.34</ele>
        <time>2023-09-01T15:45:46Z</time>
      </trkpt>
      <trkpt lat="56.706255991011858" lon="-4.016238022595644">
        <ele>144.81999999999999</ele>
        <time>2023-09-01T15:45:47Z</time>
      </trkpt>
      <trkpt lat="56.706269988790154" lon="-4.01743303053081">
        <ele>146.74000000000001</ele>
        <time>2023-09-01T15:45:54Z</time>
      </trkpt>
      <trkpt lat="56.706272000446916" lon="-4.017606033012271">
        <ele>147.22</ele>
        <time>2023-09-01T15:45:55Z</time>
      </trkpt>
      <trkpt lat="56.706278035417199" lon="-4.018111964687705">
        <ele>148.18000000000001</ele>
        <time>2023-09-01T15:45:58Z</time>
      </trkpt>
      <trkpt lat="56.706279963254929" lon="-4.018284967169166">
        <ele>148.66</ele>
        <time>2023-09-01T15:45:59Z</time>
      </trkpt>
      <trkpt lat="56.706287004053593" lon="-4.018833981826901">
        <ele>148.66</ele>
        <time>2023-09-01T15:46:02Z</time>
      </trkpt>
      <trkpt lat="56.706295972689986" lon="-4.019547030329704">
        <ele>150.58000000000001</ele>
        <time>2023-09-01T15:46:06Z</time>
      </trkpt>
      <trkpt lat="56.706296978518367" lon="-4.019677033647895">
        <ele>150.58000000000001</ele>
        <time>2023-09-01T15:46:07Z</time>
      </trkpt>
      <trkpt lat="56.706305025145411" lon="-4.01979798451066">
        <ele>150.58000000000001</ele>
        <time>2023-09-01T15:46:08Z</time>
      </trkpt>
      <trkpt lat="56.706322962418199" lon="-4.019911978393793">
        <ele>150.09999999999999</ele>
        <time>2023-09-01T15:46:09Z</time>
      </trkpt>
      <trkpt lat="56.706339977681637" lon="-4.020022032782435">
        <ele>150.09999999999999</ele>
        <time>2023-09-01T15:46:10Z</time>
      </trkpt>
      <trkpt lat="56.706355987116694" lon="-4.020128985866904">
        <ele>149.62</ele>
        <time>2023-09-01T15:46:11Z</time>
      </trkpt>
      <trkpt lat="56.706373002380133" lon="-4.020241973921657">
        <ele>149.62</ele>
        <time>2023-09-01T15:46:12Z</time>
      </trkpt>
      <trkpt lat="56.706466041505337" lon="-4.02074296027422">
        <ele>147.69999999999999</ele>
        <time>2023-09-01T15:46:19Z</time>
      </trkpt>
      <trkpt lat="56.706477021798491" lon="-4.020782019942999">
        <ele>147.22</ele>
        <time>2023-09-01T15:46:20Z</time>
      </trkpt>
      <trkpt lat="56.706486996263266" lon="-4.020820995792747">
        <ele>146.74000000000001</ele>
        <time>2023-09-01T15:46:21Z</time>
      </trkpt>
      <trkpt lat="56.70649797655642" lon="-4.020863994956017">
        <ele>146.74000000000001</ele>
        <time>2023-09-01T15:46:30Z</time>
      </trkpt>
      <trkpt lat="56.706513985991478" lon="-4.020927026867867">
        <ele>146.74000000000001</ele>
        <time>2023-09-01T15:47:04Z</time>
      </trkpt>
      <trkpt lat="56.706529995426536" lon="-4.020991986617446">
        <ele>146.74000000000001</ele>
        <time>2023-09-01T15:47:05Z</time>
      </trkpt>
      <trkpt lat="56.706828977912664" lon="-4.021958000957966">
        <ele>148.66</ele>
        <time>2023-09-01T15:47:13Z</time>
      </trkpt>
      <trkpt lat="56.706886980682611" lon="-4.022129997611046">
        <ele>148.66</ele>
        <time>2023-09-01T15:47:14Z</time>
      </trkpt>
      <trkpt lat="56.707300962880254" lon="-4.023217968642712">
        <ele>150.58000000000001</ele>
        <time>2023-09-01T15:47:22Z</time>
      </trkpt>
      <trkpt lat="56.707319989800453" lon="-4.023251999169588">
        <ele>151.53999999999999</ele>
        <time>2023-09-01T15:47:30Z</time>
      </trkpt>
      <trkpt lat="56.70733398757875" lon="-4.0232789888978">
        <ele>151.53999999999999</ele>
        <time>2023-09-01T15:47:44Z</time>
      </trkpt>
      <trkpt lat="56.707360977306962" lon="-4.023327017202973">
        <ele>151.06</ele>
        <time>2023-09-01T15:47:45Z</time>
      </trkpt>
      <trkpt lat="56.707401964813471" lon="-4.023403041064739">
        <ele>151.06</ele>
        <time>2023-09-01T15:47:46Z</time>
      </trkpt>
      <trkpt lat="56.707461979240179" lon="-4.023483004420996">
        <ele>151.06</ele>
        <time>2023-09-01T15:47:47Z</time>
      </trkpt>
      <trkpt lat="56.70752702280879" lon="-4.023530026897788">
        <ele>150.58000000000001</ele>
        <time>2023-09-01T15:47:48Z</time>
      </trkpt>
      <trkpt lat="56.707586031407118" lon="-4.023549975827336">
        <ele>150.58000000000001</ele>
        <time>2023-09-01T15:47:49Z</time>
      </trkpt>
      <trkpt lat="56.707651996985078" lon="-4.023507982492447">
        <ele>150.58000000000001</ele>
        <time>2023-09-01T15:47:50Z</time>
      </trkpt>
      <trkpt lat="56.707683010026813" lon="-4.023489039391279">
        <ele>150.58000000000001</ele>
        <time>2023-09-01T15:47:51Z</time>
      </trkpt>
      <trkpt lat="56.707683010026813" lon="-4.023489039391279">
        <ele>150.09999999999999</ele>
        <time>2023-09-01T15:48:01Z</time>
      </trkpt>
      <trkpt lat="56.707683010026813" lon="-4.023489039391279">
        <ele>149.62</ele>
        <time>2023-09-01T15:48:43Z</time>
      </trkpt>
      <trkpt lat="56.707683010026813" lon="-4.023489039391279">
        <ele>150.09999999999999</ele>
        <time>2023-09-01T15:49:34Z</time>
      </trkpt>
      <trkpt lat="56.707683010026813" lon="-4.023489039391279">
        <ele>149.62</ele>
        <time>2023-09-01T15:50:23Z</time>
      </trkpt>
      <trkpt lat="56.707683010026813" lon="-4.023489039391279">
        <ele>149.62</ele>
        <time>2023-09-01T15:51:04Z</time>
      </trkpt>
      <trkpt lat="56.707683010026813" lon="-4.023489039391279">
        <ele>150.09999999999999</ele>
        <time>2023-09-01T15:51:47Z</time>
      </trkpt>
      <trkpt lat="56.707843020558357" lon="-4.023314025253058">
        <ele>151.53999999999999</ele>
        <time>2023-09-01T15:52:03Z</time>
      </trkpt>
      <trkpt lat="56.708007976412773" lon="-4.023064998909831">
        <ele>152.03</ele>
        <time>2023-09-01T15:52:06Z</time>
      </trkpt>
      <trkpt lat="56.70814803801477" lon="-4.022867018356919">
        <ele>152.50999999999999</ele>
        <time>2023-09-01T15:52:09Z</time>
      </trkpt>
      <trkpt lat="56.708186008036137" lon="-4.022819995880127">
        <ele>152.50999999999999</ele>
        <time>2023-09-01T15:52:10Z</time>
      </trkpt>
      <trkpt lat="56.708288015797734" lon="-4.022854026407003">
        <ele>152.50999999999999</ele>
        <time>2023-09-01T15:52:11Z</time>
      </trkpt>
      <trkpt lat="56.708360016345978" lon="-4.022877998650074">
        <ele>152.03</ele>
        <time>2023-09-01T15:52:12Z</time>
      </trkpt>
      <trkpt lat="56.708421036601067" lon="-4.022898031398654">
        <ele>152.03</ele>
        <time>2023-09-01T15:52:13Z</time>
      </trkpt>
      <trkpt lat="56.708479039371014" lon="-4.022916974499822">
        <ele>152.50999999999999</ele>
        <time>2023-09-01T15:52:14Z</time>
      </trkpt>
      <trkpt lat="56.708552967756987" lon="-4.022942036390305">
        <ele>152.50999999999999</ele>
        <time>2023-09-01T15:52:15Z</time>
      </trkpt>
      <trkpt lat="56.708637038245797" lon="-4.022970031946898">
        <ele>152.50999999999999</ele>
        <time>2023-09-01T15:52:16Z</time>
      </trkpt>
      <trkpt lat="56.708736028522253" lon="-4.023032980039716">
        <ele>152.03</ele>
        <time>2023-09-01T15:52:17Z</time>
      </trkpt>
      <trkpt lat="56.709614032879472" lon="-4.024083986878395">
        <ele>149.62</ele>
        <time>2023-09-01T15:52:27Z</time>
      </trkpt>
      <trkpt lat="56.710354993119836" lon="-4.024970959872007">
        <ele>147.22</ele>
        <time>2023-09-01T15:52:35Z</time>
      </trkpt>
      <trkpt lat="56.710439985617995" lon="-4.025073973461986">
        <ele>147.22</ele>
        <time>2023-09-01T15:52:36Z</time>
      </trkpt>
      <trkpt lat="56.710679959505796" lon="-4.025440011173487">
        <ele>146.74000000000001</ele>
        <time>2023-09-01T15:52:39Z</time>
      </trkpt>
      <trkpt lat="56.71074902638793" lon="-4.025572026148439">
        <ele>146.74000000000001</ele>
        <time>2023-09-01T15:52:40Z</time>
      </trkpt>
      <trkpt lat="56.710847010836005" lon="-4.025760032236576">
        <ele>146.74000000000001</ele>
        <time>2023-09-01T15:52:41Z</time>
      </trkpt>
      <trkpt lat="56.710841981694102" lon="-4.025910990312696">
        <ele>146.74000000000001</ele>
        <time>2023-09-01T15:52:42Z</time>
      </trkpt>
      <trkpt lat="56.71083603054285" lon="-4.026100002229214">
        <ele>146.74000000000001</ele>
        <time>2023-09-01T15:52:43Z</time>
      </trkpt>
      <trkpt lat="56.710829995572567" lon="-4.026293037459254">
        <ele>147.22</ele>
        <time>2023-09-01T15:52:44Z</time>
      </trkpt>
      <trkpt lat="56.710722036659718" lon="-4.027691977098584">
        <ele>149.62</ele>
        <time>2023-09-01T15:52:51Z</time>
      </trkpt>
      <trkpt lat="56.710692029446363" lon="-4.027893980965018">
        <ele>149.62</ele>
        <time>2023-09-01T15:52:52Z</time>
      </trkpt>
      <trkpt lat="56.710656993091106" lon="-4.028105037286878">
        <ele>149.62</ele>
        <time>2023-09-01T15:52:53Z</time>
      </trkpt>
      <trkpt lat="56.710504023358226" lon="-4.029936986044049">
        <ele>150.58000000000001</ele>
        <time>2023-09-01T15:53:01Z</time>
      </trkpt>
      <trkpt lat="56.710521960631013" lon="-4.030119040980935">
        <ele>151.53999999999999</ele>
        <time>2023-09-01T15:53:02Z</time>
      </trkpt>
      <trkpt lat="56.710566971451044" lon="-4.030537968501449">
        <ele>152.99000000000001</ele>
        <time>2023-09-01T15:53:04Z</time>
      </trkpt>
      <trkpt lat="56.710590021684766" lon="-4.030757993459702">
        <ele>153.47</ele>
        <time>2023-09-01T15:53:05Z</time>
      </trkpt>
      <trkpt lat="56.710612988099456" lon="-4.0309670381248">
        <ele>153.94999999999999</ele>
        <time>2023-09-01T15:53:06Z</time>
      </trkpt>
      <trkpt lat="56.711026970297098" lon="-4.033361999318004">
        <ele>153.94999999999999</ele>
        <time>2023-09-01T15:53:16Z</time>
      </trkpt>
      <trkpt lat="56.711047003045678" lon="-4.033603984862566">
        <ele>153.94999999999999</ele>
        <time>2023-09-01T15:53:17Z</time>
      </trkpt>
      <trkpt lat="56.711055971682072" lon="-4.033844964578748">
        <ele>153.94999999999999</ele>
        <time>2023-09-01T15:53:18Z</time>
      </trkpt>
      <trkpt lat="56.711054965853691" lon="-4.034085022285581">
        <ele>153.47</ele>
        <time>2023-09-01T15:53:19Z</time>
      </trkpt>
      <trkpt lat="56.711039962247014" lon="-4.034327007830143">
        <ele>153.47</ele>
        <time>2023-09-01T15:53:20Z</time>
      </trkpt>
      <trkpt lat="56.711024958640337" lon="-4.034571005031467">
        <ele>153.47</ele>
        <time>2023-09-01T15:53:21Z</time>
      </trkpt>
      <trkpt lat="56.710871988907456" lon="-4.037031009793282">
        <ele>152.03</ele>
        <time>2023-09-01T15:53:31Z</time>
      </trkpt>
      <trkpt lat="56.710761012509465" lon="-4.038805961608887">
        <ele>152.99000000000001</ele>
        <time>2023-09-01T15:53:39Z</time>
      </trkpt>
      <trkpt lat="56.710809962823987" lon="-4.038871005177498">
        <ele>152.99000000000001</ele>
        <time>2023-09-01T15:53:40Z</time>
      </trkpt>
      <trkpt lat="56.71087902970612" lon="-4.038963038474321">
        <ele>152.50999999999999</ele>
        <time>2023-09-01T15:53:41Z</time>
      </trkpt>
      <trkpt lat="56.710968967527151" lon="-4.039107961580157">
        <ele>152.99000000000001</ele>
        <time>2023-09-01T15:53:42Z</time>
      </trkpt>
      <trkpt lat="56.711024958640337" lon="-4.039279036223888">
        <ele>152.99000000000001</ele>
        <time>2023-09-01T15:53:43Z</time>
      </trkpt>
      <trkpt lat="56.711404994130135" lon="-4.040436996147037">
        <ele>155.87</ele>
        <time>2023-09-01T15:53:48Z</time>
      </trkpt>
      <trkpt lat="56.711591994389892" lon="-4.040691973641515">
        <ele>156.83000000000001</ele>
        <time>2023-09-01T15:53:50Z</time>
      </trkpt>
      <trkpt lat="56.711686039343476" lon="-4.040881991386414">
        <ele>157.31</ele>
        <time>2023-09-01T15:53:51Z</time>
      </trkpt>
      <trkpt lat="56.711812019348145" lon="-4.041229002177715">
        <ele>158.75</ele>
        <time>2023-09-01T15:53:53Z</time>
      </trkpt>
      <trkpt lat="56.71186801046133" lon="-4.041381971910596">
        <ele>159.24000000000001</ele>
        <time>2023-09-01T15:53:54Z</time>
      </trkpt>
      <trkpt lat="56.711939005181193" lon="-4.041494037955999">
        <ele>159.72</ele>
        <time>2023-09-01T15:53:55Z</time>
      </trkpt>
      <trkpt lat="56.712044030427933" lon="-4.041564026847482">
        <ele>160.19999999999999</ele>
        <time>2023-09-01T15:53:56Z</time>
      </trkpt>
      <trkpt lat="56.712155006825924" lon="-4.041638039052486">
        <ele>160.19999999999999</ele>
        <time>2023-09-01T15:53:57Z</time>
      </trkpt>
      <trkpt lat="56.713370969519019" lon="-4.042450999841094">
        <ele>163.56</ele>
        <time>2023-09-01T15:54:06Z</time>
      </trkpt>
      <trkpt lat="56.714762030169368" lon="-4.043381977826357">
        <ele>175.58000000000001</ele>
        <time>2023-09-01T15:54:16Z</time>
      </trkpt>
      <trkpt lat="56.716329026967287" lon="-4.044360984116793">
        <ele>193.36000000000001</ele>
        <time>2023-09-01T15:54:28Z</time>
      </trkpt>
      <trkpt lat="56.716555003076792" lon="-4.044491993263364">
        <ele>196.25</ele>
        <time>2023-09-01T15:54:30Z</time>
      </trkpt>
      <trkpt lat="56.716619962826371" lon="-4.044597018510103">
        <ele>198.16999999999999</ele>
        <time>2023-09-01T15:54:31Z</time>
      </trkpt>
      <trkpt lat="56.716684000566602" lon="-4.044751999899745">
        <ele>199.61000000000001</ele>
        <time>2023-09-01T15:54:32Z</time>
      </trkpt>
      <trkpt lat="56.716719036921859" lon="-4.04489197768271">
        <ele>201.53</ele>
        <time>2023-09-01T15:54:33Z</time>
      </trkpt>
      <trkpt lat="56.716750971972942" lon="-4.045018963515759">
        <ele>202.97999999999999</ele>
        <time>2023-09-01T15:54:34Z</time>
      </trkpt>
      <trkpt lat="56.716913999989629" lon="-4.045671997591853">
        <ele>207.78</ele>
        <time>2023-09-01T15:54:39Z</time>
      </trkpt>
      <trkpt lat="56.717214994132519" lon="-4.046877985820174">
        <ele>213.06999999999999</ele>
        <time>2023-09-01T15:54:44Z</time>
      </trkpt>
      <trkpt lat="56.717786975204945" lon="-4.049139004200697">
        <ele>221.72</ele>
        <time>2023-09-01T15:54:51Z</time>
      </trkpt>
      <trkpt lat="56.718247979879379" lon="-4.05094999819994">
        <ele>232.30000000000001</ele>
        <time>2023-09-01T15:54:58Z</time>
      </trkpt>
      <trkpt lat="56.718591973185539" lon="-4.052298981696367">
        <ele>239.99000000000001</ele>
        <time>2023-09-01T15:55:04Z</time>
      </trkpt>
      <trkpt lat="56.718646036460996" lon="-4.05249796807766">
        <ele>241.43000000000001</ele>
        <time>2023-09-01T15:55:05Z</time>
      </trkpt>
      <trkpt lat="56.718718959018588" lon="-4.052681028842926">
        <ele>242.38999999999999</ele>
        <time>2023-09-01T15:55:06Z</time>
      </trkpt>
      <trkpt lat="56.718814009800553" lon="-4.052859982475638">
        <ele>243.34999999999999</ele>
        <time>2023-09-01T15:55:07Z</time>
      </trkpt>
      <trkpt lat="56.718922974541783" lon="-4.052999038249254">
        <ele>244.78999999999999</ele>
        <time>2023-09-01T15:55:08Z</time>
      </trkpt>
      <trkpt lat="56.719904998317361" lon="-4.054265040904284">
        <ele>256.32999999999998</ele>
        <time>2023-09-01T15:55:17Z</time>
      </trkpt>
      <trkpt lat="56.719993008300662" lon="-4.054379034787417">
        <ele>257.29000000000002</ele>
        <time>2023-09-01T15:55:18Z</time>
      </trkpt>
      <trkpt lat="56.720060985535383" lon="-4.054521024227142">
        <ele>258.73000000000002</ele>
        <time>2023-09-01T15:55:19Z</time>
      </trkpt>
      <trkpt lat="56.72011798247695" lon="-4.054699977859855">
        <ele>259.69</ele>
        <time>2023-09-01T15:55:20Z</time>
      </trkpt>
      <trkpt lat="56.720759030431509" lon="-4.056706018745899">
        <ele>268.82999999999998</ele>
        <time>2023-09-01T15:55:29Z</time>
      </trkpt>
      <trkpt lat="56.721569979563355" lon="-4.059242969378829">
        <ele>277.48000000000002</ele>
        <time>2023-09-01T15:55:39Z</time>
      </trkpt>
      <trkpt lat="56.722523001953959" lon="-4.062224999070168">
        <ele>284.20999999999998</ele>
        <time>2023-09-01T15:55:51Z</time>
      </trkpt>
      <trkpt lat="56.723374016582966" lon="-4.064140012487769">
        <ele>295.74000000000001</ele>
        <time>2023-09-01T15:56:00Z</time>
      </trkpt>
      <trkpt lat="56.724325027316809" lon="-4.0660759806633">
        <ele>301.02999999999997</ele>
        <time>2023-09-01T15:56:08Z</time>
      </trkpt>
      <trkpt lat="56.725178975611925" lon="-4.067812962457538">
        <ele>305.36000000000001</ele>
        <time>2023-09-01T15:56:16Z</time>
      </trkpt>
      <trkpt lat="56.726468028500676" lon="-4.07043700106442">
        <ele>313.05000000000001</ele>
        <time>2023-09-01T15:56:28Z</time>
      </trkpt>
      <trkpt lat="56.727555999532342" lon="-4.07265099696815">
        <ele>320.25999999999999</ele>
        <time>2023-09-01T15:56:37Z</time>
      </trkpt>
      <trkpt lat="56.729254005476832" lon="-4.07610802911222">
        <ele>331.79000000000002</ele>
        <time>2023-09-01T15:56:51Z</time>
      </trkpt>
      <trkpt lat="56.730807004496455" lon="-4.07926700077951">
        <ele>340.92000000000002</ele>
        <time>2023-09-01T15:57:04Z</time>
      </trkpt>
      <trkpt lat="56.732017016038299" lon="-4.081730023026466">
        <ele>350.06</ele>
        <time>2023-09-01T15:57:14Z</time>
      </trkpt>
      <trkpt lat="56.73333297483623" lon="-4.084408963099122">
        <ele>361.11000000000001</ele>
        <time>2023-09-01T15:57:25Z</time>
      </trkpt>
      <trkpt lat="56.734367972239852" lon="-4.086261028423905">
        <ele>367.36000000000001</ele>
        <time>2023-09-01T15:57:33Z</time>
      </trkpt>
      <trkpt lat="56.735846037045121" lon="-4.088616007938981">
        <ele>371.69</ele>
        <time>2023-09-01T15:57:44Z</time>
      </trkpt>
      <trkpt lat="56.737304991111159" lon="-4.090687008574605">
        <ele>370.24000000000001</ele>
        <time>2023-09-01T15:57:54Z</time>
      </trkpt>
      <trkpt lat="56.738570993766189" lon="-4.092176975682378">
        <ele>365.44</ele>
        <time>2023-09-01T15:58:03Z</time>
      </trkpt>
      <trkpt lat="56.739375991746783" lon="-4.09312597475946">
        <ele>364</ele>
        <time>2023-09-01T15:58:09Z</time>
      </trkpt>
      <trkpt lat="56.739524016156793" lon="-4.093205016106367">
        <ele>363.51999999999998</ele>
        <time>2023-09-01T15:58:10Z</time>
      </trkpt>
      <trkpt lat="56.739680003374815" lon="-4.093281961977482">
        <ele>363.04000000000002</ele>
        <time>2023-09-01T15:58:11Z</time>
      </trkpt>
      <trkpt lat="56.741566015407443" lon="-4.094000039622188">
        <ele>356.79000000000002</ele>
        <time>2023-09-01T15:58:22Z</time>
      </trkpt>
      <trkpt lat="56.742739984765649" lon="-4.094094000756741">
        <ele>350.06</ele>
        <time>2023-09-01T15:58:29Z</time>
      </trkpt>
      <trkpt lat="56.742878034710884" lon="-4.09407002851367">
        <ele>349.10000000000002</ele>
        <time>2023-09-01T15:58:30Z</time>
      </trkpt>
      <trkpt lat="56.742996973916888" lon="-4.093968020752072">
        <ele>348.13</ele>
        <time>2023-09-01T15:58:31Z</time>
      </trkpt>
      <trkpt lat="56.743123959749937" lon="-4.093858972191811">
        <ele>347.17000000000002</ele>
        <time>2023-09-01T15:58:32Z</time>
      </trkpt>
      <trkpt lat="56.743261003866792" lon="-4.093741960823536">
        <ele>346.20999999999998</ele>
        <time>2023-09-01T15:58:33Z</time>
      </trkpt>
      <trkpt lat="56.743814963847399" lon="-4.093266958370805">
        <ele>340.92000000000002</ele>
        <time>2023-09-01T15:58:37Z</time>
      </trkpt>
      <trkpt lat="56.743957037106156" lon="-4.093185989186168">
        <ele>339.48000000000002</ele>
        <time>2023-09-01T15:58:38Z</time>
      </trkpt>
      <trkpt lat="56.744111012667418" lon="-4.093150030821562">
        <ele>338.04000000000002</ele>
        <time>2023-09-01T15:58:39Z</time>
      </trkpt>
      <trkpt lat="56.745033022016287" lon="-4.09293201752007">
        <ele>330.35000000000002</ele>
        <time>2023-09-01T15:58:45Z</time>
      </trkpt>
      <trkpt lat="56.745108040049672" lon="-4.092981973662973">
        <ele>329.38999999999999</ele>
        <time>2023-09-01T15:58:46Z</time>
      </trkpt>
      <trkpt lat="56.745167970657349" lon="-4.093081969767809">
        <ele>328.43000000000001</ele>
        <time>2023-09-01T15:58:47Z</time>
      </trkpt>
      <trkpt lat="56.745229996740818" lon="-4.093184983357787">
        <ele>327.47000000000003</ele>
        <time>2023-09-01T15:58:48Z</time>
      </trkpt>
      <trkpt lat="56.745295040309429" lon="-4.093294031918049">
        <ele>326.01999999999998</ele>
        <time>2023-09-01T15:58:49Z</time>
      </trkpt>
      <trkpt lat="56.745523028075695" lon="-4.093672977760434">
        <ele>322.66000000000003</ele>
        <time>2023-09-01T15:58:52Z</time>
      </trkpt>
      <trkpt lat="56.745627969503403" lon="-4.093766016885638">
        <ele>321.22000000000003</ele>
        <time>2023-09-01T15:58:53Z</time>
      </trkpt>
      <trkpt lat="56.745726959779859" lon="-4.093833994120359">
        <ele>320.25999999999999</ele>
        <time>2023-09-01T15:58:54Z</time>
      </trkpt>
      <trkpt lat="56.745829973369837" lon="-4.093867018818855">
        <ele>318.81</ele>
        <time>2023-09-01T15:58:55Z</time>
      </trkpt>
      <trkpt lat="56.745923012495041" lon="-4.093897026032209">
        <ele>317.85000000000002</ele>
        <time>2023-09-01T15:58:56Z</time>
      </trkpt>
      <trkpt lat="56.746230963617563" lon="-4.093995010480285">
        <ele>312.08999999999997</ele>
        <time>2023-09-01T15:59:02Z</time>
      </trkpt>
      <trkpt lat="56.746338000521064" lon="-4.093936001881957">
        <ele>311.60000000000002</ele>
        <time>2023-09-01T15:59:03Z</time>
      </trkpt>
      <trkpt lat="56.746435984969139" lon="-4.093883028253913">
        <ele>311.12</ele>
        <time>2023-09-01T15:59:04Z</time>
      </trkpt>
      <trkpt lat="56.746552996337414" lon="-4.093818990513682">
        <ele>310.63999999999999</ele>
        <time>2023-09-01T15:59:05Z</time>
      </trkpt>
      <trkpt lat="56.746687022969127" lon="-4.093745984137058">
        <ele>310.16000000000003</ele>
        <time>2023-09-01T15:59:06Z</time>
      </trkpt>
      <trkpt lat="56.747457990422845" lon="-4.093261007219553">
        <ele>305.36000000000001</ele>
        <time>2023-09-01T15:59:11Z</time>
      </trkpt>
      <trkpt lat="56.747587993741035" lon="-4.093098985031247">
        <ele>304.38999999999999</ele>
        <time>2023-09-01T15:59:12Z</time>
      </trkpt>
      <trkpt lat="56.747720008715987" lon="-4.092933023348451">
        <ele>303.91000000000003</ele>
        <time>2023-09-01T15:59:13Z</time>
      </trkpt>
      <trkpt lat="56.748971007764339" lon="-4.091432997956872">
        <ele>291.89999999999998</ele>
        <time>2023-09-01T15:59:22Z</time>
      </trkpt>
      <trkpt lat="56.749850017949939" lon="-4.090176969766617">
        <ele>282.76999999999998</ele>
        <time>2023-09-01T15:59:29Z</time>
      </trkpt>
      <trkpt lat="56.750530963763595" lon="-4.089079024270177">
        <ele>271.70999999999998</ele>
        <time>2023-09-01T15:59:36Z</time>
      </trkpt>
      <trkpt lat="56.751362029463053" lon="-4.087689975276589">
        <ele>261.13999999999999</ele>
        <time>2023-09-01T15:59:47Z</time>
      </trkpt>
      <trkpt lat="56.751439981162548" lon="-4.087556032463908">
        <ele>260.64999999999998</ele>
        <time>2023-09-01T15:59:48Z</time>
      </trkpt>
      <trkpt lat="56.751723960042" lon="-4.087193012237549">
        <ele>258.25</ele>
        <time>2023-09-01T15:59:52Z</time>
      </trkpt>
      <trkpt lat="56.7518500238657" lon="-4.087193012237549">
        <ele>257.29000000000002</ele>
        <time>2023-09-01T15:59:53Z</time>
      </trkpt>
      <trkpt lat="56.751950019970536" lon="-4.087193012237549">
        <ele>256.81</ele>
        <time>2023-09-01T15:59:54Z</time>
      </trkpt>
      <trkpt lat="56.752802962437272" lon="-4.087193012237549">
        <ele>251.52000000000001</ele>
        <time>2023-09-01T16:00:02Z</time>
      </trkpt>
      <trkpt lat="56.753583988174796" lon="-4.087193012237549">
        <ele>250.08000000000001</ele>
        <time>2023-09-01T16:00:11Z</time>
      </trkpt>
      <trkpt lat="56.753783980384469" lon="-4.087193012237549">
        <ele>249.12</ele>
        <time>2023-09-01T16:00:13Z</time>
      </trkpt>
      <trkpt lat="56.75389202311635" lon="-4.087183959782124">
        <ele>248.63999999999999</ele>
        <time>2023-09-01T16:00:14Z</time>
      </trkpt>
      <trkpt lat="56.754002999514341" lon="-4.087136015295982">
        <ele>247.68000000000001</ele>
        <time>2023-09-01T16:00:15Z</time>
      </trkpt>
      <trkpt lat="56.754115987569094" lon="-4.087087986990809">
        <ele>247.19999999999999</ele>
        <time>2023-09-01T16:00:16Z</time>
      </trkpt>
      <trkpt lat="56.754223024472594" lon="-4.087014980614185">
        <ele>246.72</ele>
        <time>2023-09-01T16:00:17Z</time>
      </trkpt>
      <trkpt lat="56.754312040284276" lon="-4.086930993944407">
        <ele>246.22999999999999</ele>
        <time>2023-09-01T16:00:18Z</time>
      </trkpt>
      <trkpt lat="56.754496023058891" lon="-4.086757991462946">
        <ele>246.22999999999999</ele>
        <time>2023-09-01T16:00:20Z</time>
      </trkpt>
      <trkpt lat="56.754589984193444" lon="-4.086617007851601">
        <ele>245.75</ele>
        <time>2023-09-01T16:00:21Z</time>
      </trkpt>
      <trkpt lat="56.754670031368732" lon="-4.086467977613211">
        <ele>245.75</ele>
        <time>2023-09-01T16:00:22Z</time>
      </trkpt>
      <trkpt lat="56.754740020260215" lon="-4.086288018152118">
        <ele>245.75</ele>
        <time>2023-09-01T16:00:23Z</time>
      </trkpt>
      <trkpt lat="56.75479500554502" lon="-4.086105041205883">
        <ele>245.75</ele>
        <time>2023-09-01T16:00:24Z</time>
      </trkpt>
      <trkpt lat="56.754845967516303" lon="-4.085913011804223">
        <ele>245.75</ele>
        <time>2023-09-01T16:00:25Z</time>
      </trkpt>
      <trkpt lat="56.75488100387156" lon="-4.085730034857988">
        <ele>245.27000000000001</ele>
        <time>2023-09-01T16:00:26Z</time>
      </trkpt>
      <trkpt lat="56.754915034398437" lon="-4.085557032376528">
        <ele>245.27000000000001</ele>
        <time>2023-09-01T16:00:27Z</time>
      </trkpt>
      <trkpt lat="56.754943029955029" lon="-4.08541202545166">
        <ele>245.27000000000001</ele>
        <time>2023-09-01T16:00:28Z</time>
      </trkpt>
      <trkpt lat="56.754954010248184" lon="-4.085199041292071">
        <ele>245.27000000000001</ele>
        <time>2023-09-01T16:00:29Z</time>
      </trkpt>
      <trkpt lat="56.754963984712958" lon="-4.085012963041663">
        <ele>245.27000000000001</ele>
        <time>2023-09-01T16:00:30Z</time>
      </trkpt>
      <trkpt lat="56.754979994148016" lon="-4.084817999973893">
        <ele>245.27000000000001</ele>
        <time>2023-09-01T16:00:31Z</time>
      </trkpt>
      <trkpt lat="56.75503296777606" lon="-4.084201008081436">
        <ele>243.83000000000001</ele>
        <time>2023-09-01T16:00:34Z</time>
      </trkpt>
      <trkpt lat="56.755144027993083" lon="-4.083556020632386">
        <ele>241.43000000000001</ele>
        <time>2023-09-01T16:00:37Z</time>
      </trkpt>
      <trkpt lat="56.755215022712946" lon="-4.083356028422713">
        <ele>240.47</ele>
        <time>2023-09-01T16:00:38Z</time>
      </trkpt>
      <trkpt lat="56.755674015730619" lon="-4.081968991085887">
        <ele>234.22</ele>
        <time>2023-09-01T16:00:46Z</time>
      </trkpt>
      <trkpt lat="56.755702011287212" lon="-4.081779979169369">
        <ele>233.74000000000001</ele>
        <time>2023-09-01T16:00:47Z</time>
      </trkpt>
      <trkpt lat="56.755732018500566" lon="-4.081580992788076">
        <ele>233.74000000000001</ele>
        <time>2023-09-01T16:00:48Z</time>
      </trkpt>
      <trkpt lat="56.755733024328947" lon="-4.08137496560812">
        <ele>233.74000000000001</ele>
        <time>2023-09-01T16:00:49Z</time>
      </trkpt>
      <trkpt lat="56.755726989358664" lon="-4.081147983670235">
        <ele>233.74000000000001</ele>
        <time>2023-09-01T16:00:50Z</time>
      </trkpt>
      <trkpt lat="56.755665969103575" lon="-4.078546995297074">
        <ele>233.74000000000001</ele>
        <time>2023-09-01T16:00:59Z</time>
      </trkpt>
      <trkpt lat="56.755587011575699" lon="-4.075189037248492">
        <ele>231.33000000000001</ele>
        <time>2023-09-01T16:01:09Z</time>
      </trkpt>
      <trkpt lat="56.755512999370694" lon="-4.07284202054143">
        <ele>233.25999999999999</ele>
        <time>2023-09-01T16:01:17Z</time>
      </trkpt>
      <trkpt lat="56.755472011864185" lon="-4.072390990331769">
        <ele>233.25999999999999</ele>
        <time>2023-09-01T16:01:19Z</time>
      </trkpt>
      <trkpt lat="56.755463965237141" lon="-4.072194015607238">
        <ele>233.25999999999999</ele>
        <time>2023-09-01T16:01:20Z</time>
      </trkpt>
      <trkpt lat="56.755491960793734" lon="-4.071998968720436">
        <ele>232.78</ele>
        <time>2023-09-01T16:01:21Z</time>
      </trkpt>
      <trkpt lat="56.755578964948654" lon="-4.071407038718462">
        <ele>233.25999999999999</ele>
        <time>2023-09-01T16:01:24Z</time>
      </trkpt>
      <trkpt lat="56.755607966333628" lon="-4.071206962689757">
        <ele>232.78</ele>
        <time>2023-09-01T16:01:25Z</time>
      </trkpt>
      <trkpt lat="56.755577037110925" lon="-4.070994984358549">
        <ele>233.25999999999999</ele>
        <time>2023-09-01T16:01:26Z</time>
      </trkpt>
      <trkpt lat="56.755502019077539" lon="-4.070476982742548">
        <ele>233.25999999999999</ele>
        <time>2023-09-01T16:01:28Z</time>
      </trkpt>
      <trkpt lat="56.755462037399411" lon="-4.070200966671109">
        <ele>232.78</ele>
        <time>2023-09-01T16:01:29Z</time>
      </trkpt>
      <trkpt lat="56.755135981366038" lon="-4.0679029840976">
        <ele>230.37</ele>
        <time>2023-09-01T16:01:38Z</time>
      </trkpt>
      <trkpt lat="56.755014024674892" lon="-4.067380959168077">
        <ele>230.37</ele>
        <time>2023-09-01T16:01:40Z</time>
      </trkpt>
      <trkpt lat="56.754961973056197" lon="-4.067153977230191">
        <ele>230.37</ele>
        <time>2023-09-01T16:01:41Z</time>
      </trkpt>
      <trkpt lat="56.754898019134998" lon="-4.066941998898983">
        <ele>230.37</ele>
        <time>2023-09-01T16:01:42Z</time>
      </trkpt>
      <trkpt lat="56.754720993340015" lon="-4.066653996706009">
        <ele>229.88999999999999</ele>
        <time>2023-09-01T16:01:44Z</time>
      </trkpt>
      <trkpt lat="56.754248002544045" lon="-4.065772974863648">
        <ele>229.88999999999999</ele>
        <time>2023-09-01T16:01:50Z</time>
      </trkpt>
      <trkpt lat="56.754211960360408" lon="-4.065585974603891">
        <ele>229.88999999999999</ele>
        <time>2023-09-01T16:01:51Z</time>
      </trkpt>
      <trkpt lat="56.754176001995802" lon="-4.065402997657657">
        <ele>229.41</ele>
        <time>2023-09-01T16:01:52Z</time>
      </trkpt>
      <trkpt lat="56.754181031137705" lon="-4.06523896381259">
        <ele>229.41</ele>
        <time>2023-09-01T16:01:53Z</time>
      </trkpt>
      <trkpt lat="56.754198968410492" lon="-4.065009970217943">
        <ele>228.93000000000001</ele>
        <time>2023-09-01T16:01:54Z</time>
      </trkpt>
      <trkpt lat="56.754219001159072" lon="-4.064769996330142">
        <ele>228.93000000000001</ele>
        <time>2023-09-01T16:01:55Z</time>
      </trkpt>
      <trkpt lat="56.754239033907652" lon="-4.064525999128819">
        <ele>228.93000000000001</ele>
        <time>2023-09-01T16:01:56Z</time>
      </trkpt>
      <trkpt lat="56.754259988665581" lon="-4.064272027462721">
        <ele>228.93000000000001</ele>
        <time>2023-09-01T16:01:57Z</time>
      </trkpt>
      <trkpt lat="56.754281027242541" lon="-4.064010009169579">
        <ele>229.41</ele>
        <time>2023-09-01T16:01:58Z</time>
      </trkpt>
      <trkpt lat="56.754311034455895" lon="-4.063206017017365">
        <ele>229.88999999999999</ele>
        <time>2023-09-01T16:02:01Z</time>
      </trkpt>
      <trkpt lat="56.754302987828851" lon="-4.062927989289165">
        <ele>229.88999999999999</ele>
        <time>2023-09-01T16:02:02Z</time>
      </trkpt>
      <trkpt lat="56.754284966737032" lon="-4.062648033723235">
        <ele>229.88999999999999</ele>
        <time>2023-09-01T16:02:03Z</time>
      </trkpt>
      <trkpt lat="56.7542589828372" lon="-4.062359025701881">
        <ele>229.88999999999999</ele>
        <time>2023-09-01T16:02:04Z</time>
      </trkpt>
      <trkpt lat="56.754231993108988" lon="-4.062069011852145">
        <ele>229.88999999999999</ele>
        <time>2023-09-01T16:02:05Z</time>
      </trkpt>
      <trkpt lat="56.754159992560744" lon="-4.061284968629479">
        <ele>229.88999999999999</ele>
        <time>2023-09-01T16:02:08Z</time>
      </trkpt>
      <trkpt lat="56.754167033359408" lon="-4.061067039147019">
        <ele>229.88999999999999</ele>
        <time>2023-09-01T16:02:09Z</time>
      </trkpt>
      <trkpt lat="56.754251020029187" lon="-4.060632018372417">
        <ele>230.37</ele>
        <time>2023-09-01T16:02:11Z</time>
      </trkpt>
      <trkpt lat="56.754293013364077" lon="-4.060409981757402">
        <ele>230.37</ele>
        <time>2023-09-01T16:02:12Z</time>
      </trkpt>
      <trkpt lat="56.754336012527347" lon="-4.060186017304659">
        <ele>230.37</ele>
        <time>2023-09-01T16:02:13Z</time>
      </trkpt>
      <trkpt lat="56.754402983933687" lon="-4.059993987902999">
        <ele>230.84999999999999</ele>
        <time>2023-09-01T16:02:14Z</time>
      </trkpt>
      <trkpt lat="56.754474984481931" lon="-4.059801958501339">
        <ele>230.37</ele>
        <time>2023-09-01T16:02:15Z</time>
      </trkpt>
      <trkpt lat="56.754534998908639" lon="-4.059641025960445">
        <ele>230.37</ele>
        <time>2023-09-01T16:02:16Z</time>
      </trkpt>
      <trkpt lat="56.754629965871572" lon="-4.059546981006861">
        <ele>229.88999999999999</ele>
        <time>2023-09-01T16:02:17Z</time>
      </trkpt>
      <trkpt lat="56.754740020260215" lon="-4.05943701043725">
        <ele>230.37</ele>
        <time>2023-09-01T16:02:18Z</time>
      </trkpt>
      <trkpt lat="56.754861976951361" lon="-4.059313964098692">
        <ele>230.37</ele>
        <time>2023-09-01T16:02:19Z</time>
      </trkpt>
      <trkpt lat="56.755183003842831" lon="-4.058993021026254">
        <ele>231.33000000000001</ele>
        <time>2023-09-01T16:02:22Z</time>
      </trkpt>
      <trkpt lat="56.755247041583061" lon="-4.058827981352806">
        <ele>231.33000000000001</ele>
        <time>2023-09-01T16:02:23Z</time>
      </trkpt>
      <trkpt lat="56.755329016596079" lon="-4.058568980544806">
        <ele>231.81</ele>
        <time>2023-09-01T16:02:24Z</time>
      </trkpt>
      <trkpt lat="56.75533396191895" lon="-4.058460015803576">
        <ele>232.30000000000001</ele>
        <time>2023-09-01T16:02:25Z</time>
      </trkpt>
      <trkpt lat="56.755343014374375" lon="-4.058239990845323">
        <ele>232.78</ele>
        <time>2023-09-01T16:02:26Z</time>
      </trkpt>
      <trkpt lat="56.75533102825284" lon="-4.057981995865703">
        <ele>232.78</ele>
        <time>2023-09-01T16:02:27Z</time>
      </trkpt>
      <trkpt lat="56.755282999947667" lon="-4.057745961472392">
        <ele>232.78</ele>
        <time>2023-09-01T16:02:28Z</time>
      </trkpt>
      <trkpt lat="56.755232037976384" lon="-4.057494001463056">
        <ele>232.78</ele>
        <time>2023-09-01T16:02:29Z</time>
      </trkpt>
      <trkpt lat="56.754674976691604" lon="-4.054947998374701">
        <ele>232.30000000000001</ele>
        <time>2023-09-01T16:02:38Z</time>
      </trkpt>
      <trkpt lat="56.753782974556088" lon="-4.052268974483013">
        <ele>227.49000000000001</ele>
        <time>2023-09-01T16:02:48Z</time>
      </trkpt>
      <trkpt lat="56.753516010940075" lon="-4.05150999315083">
        <ele>224.12</ele>
        <time>2023-09-01T16:02:51Z</time>
      </trkpt>
      <trkpt lat="56.753463037312031" lon="-4.051225008442998">
        <ele>223.16</ele>
        <time>2023-09-01T16:02:52Z</time>
      </trkpt>
      <trkpt lat="56.753235971555114" lon="-4.049519039690495">
        <ele>220.75999999999999</ele>
        <time>2023-09-01T16:02:58Z</time>
      </trkpt>
      <trkpt lat="56.753166988492012" lon="-4.049302032217383">
        <ele>220.28</ele>
        <time>2023-09-01T16:02:59Z</time>
      </trkpt>
      <trkpt lat="56.752966996282339" lon="-4.048664001747966">
        <ele>219.80000000000001</ele>
        <time>2023-09-01T16:03:02Z</time>
      </trkpt>
      <trkpt lat="56.75288300961256" lon="-4.048397960141301">
        <ele>219.80000000000001</ele>
        <time>2023-09-01T16:03:03Z</time>
      </trkpt>
      <trkpt lat="56.752874040976167" lon="-4.048197967931628">
        <ele>219.80000000000001</ele>
        <time>2023-09-01T16:03:04Z</time>
      </trkpt>
      <trkpt lat="56.75286297686398" lon="-4.047950031235814">
        <ele>219.80000000000001</ele>
        <time>2023-09-01T16:03:05Z</time>
      </trkpt>
      <trkpt lat="56.752851996570826" lon="-4.047699999064207">
        <ele>219.80000000000001</ele>
        <time>2023-09-01T16:03:06Z</time>
      </trkpt>
      <trkpt lat="56.752841016277671" lon="-4.047443009912968">
        <ele>219.80000000000001</ele>
        <time>2023-09-01T16:03:07Z</time>
      </trkpt>
      <trkpt lat="56.752805979922414" lon="-4.047199012711644">
        <ele>220.28</ele>
        <time>2023-09-01T16:03:08Z</time>
      </trkpt>
      <trkpt lat="56.752584027126431" lon="-4.046196034178138">
        <ele>221.72</ele>
        <time>2023-09-01T16:03:12Z</time>
      </trkpt>
      <trkpt lat="56.75251797772944" lon="-4.045929992571473">
        <ele>221.72</ele>
        <time>2023-09-01T16:03:13Z</time>
      </trkpt>
      <trkpt lat="56.752405995503068" lon="-4.04553696513176">
        <ele>222.19999999999999</ele>
        <time>2023-09-01T16:03:15Z</time>
      </trkpt>
      <trkpt lat="56.752365007996559" lon="-4.04532297514379">
        <ele>221.72</ele>
        <time>2023-09-01T16:03:16Z</time>
      </trkpt>
      <trkpt lat="56.75210801884532" lon="-4.043333027511835">
        <ele>221.24000000000001</ele>
        <time>2023-09-01T16:03:24Z</time>
      </trkpt>
      <trkpt lat="56.752091003581882" lon="-4.04250699095428">
        <ele>221.72</ele>
        <time>2023-09-01T16:03:27Z</time>
      </trkpt>
      <trkpt lat="56.75202596001327" lon="-4.04196803458035">
        <ele>222.19999999999999</ele>
        <time>2023-09-01T16:03:29Z</time>
      </trkpt>
      <trkpt lat="56.751987989991903" lon="-4.041698975488544">
        <ele>222.19999999999999</ele>
        <time>2023-09-01T16:03:30Z</time>
      </trkpt>
      <trkpt lat="56.751612983644009" lon="-4.038830017670989">
        <ele>224.61000000000001</ele>
        <time>2023-09-01T16:03:40Z</time>
      </trkpt>
      <trkpt lat="56.751499995589256" lon="-4.03790800832212">
        <ele>223.63999999999999</ele>
        <time>2023-09-01T16:03:43Z</time>
      </trkpt>
      <trkpt lat="56.751436963677406" lon="-4.0376309864223">
        <ele>223.63999999999999</ele>
        <time>2023-09-01T16:03:44Z</time>
      </trkpt>
      <trkpt lat="56.751263961195946" lon="-4.036866975948215">
        <ele>223.16</ele>
        <time>2023-09-01T16:03:47Z</time>
      </trkpt>
      <trkpt lat="56.751211993396282" lon="-4.036637982353568">
        <ele>223.16</ele>
        <time>2023-09-01T16:03:48Z</time>
      </trkpt>
      <trkpt lat="56.751188021153212" lon="-4.036402031779289">
        <ele>223.16</ele>
        <time>2023-09-01T16:03:49Z</time>
      </trkpt>
      <trkpt lat="56.751188021153212" lon="-4.036156022921205">
        <ele>222.68000000000001</ele>
        <time>2023-09-01T16:03:50Z</time>
      </trkpt>
      <trkpt lat="56.751188021153212" lon="-4.035887969657779">
        <ele>222.68000000000001</ele>
        <time>2023-09-01T16:03:51Z</time>
      </trkpt>
      <trkpt lat="56.751188021153212" lon="-4.035067968070507">
        <ele>221.24000000000001</ele>
        <time>2023-09-01T16:03:54Z</time>
      </trkpt>
      <trkpt lat="56.751188021153212" lon="-4.034548960626125">
        <ele>220.75999999999999</ele>
        <time>2023-09-01T16:03:56Z</time>
      </trkpt>
      <trkpt lat="56.75116597674787" lon="-4.034318039193749">
        <ele>220.75999999999999</ele>
        <time>2023-09-01T16:03:57Z</time>
      </trkpt>
      <trkpt lat="56.751124989241362" lon="-4.034065995365381">
        <ele>220.75999999999999</ele>
        <time>2023-09-01T16:03:58Z</time>
      </trkpt>
      <trkpt lat="56.751082995906472" lon="-4.03380498290062">
        <ele>220.28</ele>
        <time>2023-09-01T16:03:59Z</time>
      </trkpt>
      <trkpt lat="56.751038990914822" lon="-4.033532990142703">
        <ele>219.80000000000001</ele>
        <time>2023-09-01T16:04:00Z</time>
      </trkpt>
      <trkpt lat="56.75095098093152" lon="-4.032991016283631">
        <ele>218.84</ele>
        <time>2023-09-01T16:04:02Z</time>
      </trkpt>
      <trkpt lat="56.750872023403645" lon="-4.032119968906045">
        <ele>217.40000000000001</ele>
        <time>2023-09-01T16:04:05Z</time>
      </trkpt>
      <trkpt lat="56.750844027847052" lon="-4.031822998076677">
        <ele>216.43000000000001</ele>
        <time>2023-09-01T16:04:06Z</time>
      </trkpt>
      <trkpt lat="56.750816032290459" lon="-4.031516974791884">
        <ele>215.47</ele>
        <time>2023-09-01T16:04:07Z</time>
      </trkpt>
      <trkpt lat="56.750760041177273" lon="-4.030910041183233">
        <ele>213.55000000000001</ele>
        <time>2023-09-01T16:04:09Z</time>
      </trkpt>
      <trkpt lat="56.750721987336874" lon="-4.03062597848475">
        <ele>212.11000000000001</ele>
        <time>2023-09-01T16:04:10Z</time>
      </trkpt>
      <trkpt lat="56.750650992617011" lon="-4.030099008232355">
        <ele>210.19</ele>
        <time>2023-09-01T16:04:12Z</time>
      </trkpt>
      <trkpt lat="56.750656021758914" lon="-4.029856016859412">
        <ele>209.22</ele>
        <time>2023-09-01T16:04:13Z</time>
      </trkpt>
      <trkpt lat="56.750660967081785" lon="-4.029619982466102">
        <ele>208.25999999999999</ele>
        <time>2023-09-01T16:04:14Z</time>
      </trkpt>
      <trkpt lat="56.750664990395308" lon="-4.029394006356597">
        <ele>207.78</ele>
        <time>2023-09-01T16:04:15Z</time>
      </trkpt>
      <trkpt lat="56.75067001953721" lon="-4.029172975569964">
        <ele>207.30000000000001</ele>
        <time>2023-09-01T16:04:16Z</time>
      </trkpt>
      <trkpt lat="56.750658033415675" lon="-4.028951022773981">
        <ele>206.81999999999999</ele>
        <time>2023-09-01T16:04:17Z</time>
      </trkpt>
      <trkpt lat="56.750617967918515" lon="-4.028704008087516">
        <ele>206.34</ele>
        <time>2023-09-01T16:04:18Z</time>
      </trkpt>
      <trkpt lat="56.750118993222713" lon="-4.026066977530718">
        <ele>205.38</ele>
        <time>2023-09-01T16:04:27Z</time>
      </trkpt>
      <trkpt lat="56.75006702542305" lon="-4.025757014751434">
        <ele>204.90000000000001</ele>
        <time>2023-09-01T16:04:28Z</time>
      </trkpt>
      <trkpt lat="56.749907014891505" lon="-4.024648005142808">
        <ele>204.90000000000001</ele>
        <time>2023-09-01T16:04:32Z</time>
      </trkpt>
      <trkpt lat="56.749825039878488" lon="-4.024438038468361">
        <ele>204.90000000000001</ele>
        <time>2023-09-01T16:04:33Z</time>
      </trkpt>
      <trkpt lat="56.749654971063137" lon="-4.024002011865377">
        <ele>204.90000000000001</ele>
        <time>2023-09-01T16:04:35Z</time>
      </trkpt>
      <trkpt lat="56.749586993828416" lon="-4.02377201244235">
        <ele>204.41999999999999</ele>
        <time>2023-09-01T16:04:36Z</time>
      </trkpt>
      <trkpt lat="56.74953100271523" lon="-4.023537989705801">
        <ele>204.41999999999999</ele>
        <time>2023-09-01T16:04:37Z</time>
      </trkpt>
      <trkpt lat="56.74951096996665" lon="-4.023272031918168">
        <ele>204.41999999999999</ele>
        <time>2023-09-01T16:04:38Z</time>
      </trkpt>
      <trkpt lat="56.749507030472159" lon="-4.023003978654742">
        <ele>204.41999999999999</ele>
        <time>2023-09-01T16:04:39Z</time>
      </trkpt>
      <trkpt lat="56.749503007158637" lon="-4.022728968411684">
        <ele>204.41999999999999</ele>
        <time>2023-09-01T16:04:40Z</time>
      </trkpt>
      <trkpt lat="56.749497978016734" lon="-4.022439960390329">
        <ele>204.41999999999999</ele>
        <time>2023-09-01T16:04:41Z</time>
      </trkpt>
      <trkpt lat="56.749494038522243" lon="-4.022140977904201">
        <ele>204.41999999999999</ele>
        <time>2023-09-01T16:04:42Z</time>
      </trkpt>
      <trkpt lat="56.749463025480509" lon="-4.021849958226085">
        <ele>203.94</ele>
        <time>2023-09-01T16:04:43Z</time>
      </trkpt>
      <trkpt lat="56.749422037974" lon="-4.021533960476518">
        <ele>203.94</ele>
        <time>2023-09-01T16:04:44Z</time>
      </trkpt>
      <trkpt lat="56.749378032982349" lon="-4.021205976605415">
        <ele>203.94</ele>
        <time>2023-09-01T16:04:45Z</time>
      </trkpt>
      <trkpt lat="56.749168988317251" lon="-4.019552981480956">
        <ele>202.00999999999999</ele>
        <time>2023-09-01T16:04:50Z</time>
      </trkpt>
      <trkpt lat="56.749128000810742" lon="-4.01921502314508">
        <ele>202.00999999999999</ele>
        <time>2023-09-01T16:04:51Z</time>
      </trkpt>
      <trkpt lat="56.749107968062162" lon="-4.018343975767493">
        <ele>201.05000000000001</ele>
        <time>2023-09-01T16:04:54Z</time>
      </trkpt>
      <trkpt lat="56.749133029952645" lon="-4.018049016594887">
        <ele>201.53</ele>
        <time>2023-09-01T16:04:55Z</time>
      </trkpt>
      <trkpt lat="56.749256998300552" lon="-4.017161959782243">
        <ele>202.00999999999999</ele>
        <time>2023-09-01T16:04:58Z</time>
      </trkpt>
      <trkpt lat="56.749283988028765" lon="-4.016878986731172">
        <ele>202.00999999999999</ele>
        <time>2023-09-01T16:04:59Z</time>
      </trkpt>
      <trkpt lat="56.749306032434106" lon="-4.016367020085454">
        <ele>202.49000000000001</ele>
        <time>2023-09-01T16:05:01Z</time>
      </trkpt>
      <trkpt lat="56.74931600689888" lon="-4.016141965985298">
        <ele>202.49000000000001</ele>
        <time>2023-09-01T16:05:02Z</time>
      </trkpt>
      <trkpt lat="56.749363029375672" lon="-4.015924036502838">
        <ele>202.97999999999999</ele>
        <time>2023-09-01T16:05:03Z</time>
      </trkpt>
      <trkpt lat="56.749437041580677" lon="-4.015721026808024">
        <ele>202.97999999999999</ele>
        <time>2023-09-01T16:05:04Z</time>
      </trkpt>
      <trkpt lat="56.749514993280172" lon="-4.015510976314545">
        <ele>203.46000000000001</ele>
        <time>2023-09-01T16:05:05Z</time>
      </trkpt>
      <trkpt lat="56.749577019363642" lon="-4.015280976891518">
        <ele>203.94</ele>
        <time>2023-09-01T16:05:06Z</time>
      </trkpt>
      <trkpt lat="56.749621024355292" lon="-4.015028011053801">
        <ele>204.41999999999999</ele>
        <time>2023-09-01T16:05:07Z</time>
      </trkpt>
      <trkpt lat="56.749605014920235" lon="-4.014761969447136">
        <ele>204.41999999999999</ele>
        <time>2023-09-01T16:05:08Z</time>
      </trkpt>
      <trkpt lat="56.749587999656796" lon="-4.014482013881207">
        <ele>204.41999999999999</ele>
        <time>2023-09-01T16:05:09Z</time>
      </trkpt>
      <trkpt lat="56.749535026028752" lon="-4.013017024844885">
        <ele>204.41999999999999</ele>
        <time>2023-09-01T16:05:14Z</time>
      </trkpt>
      <trkpt lat="56.749560004100204" lon="-4.012731034308672">
        <ele>204.41999999999999</ele>
        <time>2023-09-01T16:05:15Z</time>
      </trkpt>
      <trkpt lat="56.749610966071486" lon="-4.012442026287317">
        <ele>204.90000000000001</ele>
        <time>2023-09-01T16:05:16Z</time>
      </trkpt>
      <trkpt lat="56.749885976314545" lon="-4.010981982573867">
        <ele>205.38</ele>
        <time>2023-09-01T16:05:21Z</time>
      </trkpt>
      <trkpt lat="56.749920006841421" lon="-4.010680988430977">
        <ele>205.38</ele>
        <time>2023-09-01T16:05:22Z</time>
      </trkpt>
      <trkpt lat="56.750281015411019" lon="-4.008091986179352">
        <ele>204.90000000000001</ele>
        <time>2023-09-01T16:05:31Z</time>
      </trkpt>
      <trkpt lat="56.750311022624373" lon="-4.007799038663507">
        <ele>204.90000000000001</ele>
        <time>2023-09-01T16:05:32Z</time>
      </trkpt>
      <trkpt lat="56.750317979604006" lon="-4.007495027035475">
        <ele>204.90000000000001</ele>
        <time>2023-09-01T16:05:33Z</time>
      </trkpt>
      <trkpt lat="56.750415964052081" lon="-4.003442963585258">
        <ele>204.41999999999999</ele>
        <time>2023-09-01T16:05:46Z</time>
      </trkpt>
      <trkpt lat="56.750359972938895" lon="-4.001271966844797">
        <ele>201.05000000000001</ele>
        <time>2023-09-01T16:05:53Z</time>
      </trkpt>
      <trkpt lat="56.750252014026046" lon="-3.999474970623851">
        <ele>199.13</ele>
        <time>2023-09-01T16:05:59Z</time>
      </trkpt>
      <trkpt lat="56.750231981277466" lon="-3.998851021751761">
        <ele>198.16999999999999</ele>
        <time>2023-09-01T16:06:01Z</time>
      </trkpt>
      <trkpt lat="56.750156963244081" lon="-3.99792599491775">
        <ele>196.25</ele>
        <time>2023-09-01T16:06:04Z</time>
      </trkpt>
      <trkpt lat="56.750071970745921" lon="-3.996803993359208">
        <ele>194.31999999999999</ele>
        <time>2023-09-01T16:06:08Z</time>
      </trkpt>
      <trkpt lat="56.750078005716205" lon="-3.996514985337853">
        <ele>193.36000000000001</ele>
        <time>2023-09-01T16:06:09Z</time>
      </trkpt>
      <trkpt lat="56.750237010419369" lon="-3.99437801912427">
        <ele>192.88</ele>
        <time>2023-09-01T16:06:16Z</time>
      </trkpt>
      <trkpt lat="56.750291995704174" lon="-3.99410099722445">
        <ele>192.88</ele>
        <time>2023-09-01T16:06:17Z</time>
      </trkpt>
      <trkpt lat="56.750346980988979" lon="-3.993826992809773">
        <ele>192.88</ele>
        <time>2023-09-01T16:06:18Z</time>
      </trkpt>
      <trkpt lat="56.750400960445404" lon="-3.993556005880237">
        <ele>192.88</ele>
        <time>2023-09-01T16:06:19Z</time>
      </trkpt>
      <trkpt lat="56.750443037599325" lon="-3.993285018950701">
        <ele>193.36000000000001</ele>
        <time>2023-09-01T16:06:20Z</time>
      </trkpt>
      <trkpt lat="56.750461980700493" lon="-3.992989975959063">
        <ele>194.31999999999999</ele>
        <time>2023-09-01T16:06:21Z</time>
      </trkpt>
      <trkpt lat="56.750481007620692" lon="-3.992688981816173">
        <ele>194.80000000000001</ele>
        <time>2023-09-01T16:06:22Z</time>
      </trkpt>
      <trkpt lat="56.750661972910166" lon="-3.9899090398103">
        <ele>197.69</ele>
        <time>2023-09-01T16:06:31Z</time>
      </trkpt>
      <trkpt lat="56.750699020922184" lon="-3.989117033779621">
        <ele>198.16999999999999</ele>
        <time>2023-09-01T16:06:34Z</time>
      </trkpt>
      <trkpt lat="56.750714024528861" lon="-3.988330978900194">
        <ele>198.16999999999999</ele>
        <time>2023-09-01T16:06:37Z</time>
      </trkpt>
      <trkpt lat="56.750742020085454" lon="-3.988081030547619">
        <ele>198.65000000000001</ele>
        <time>2023-09-01T16:06:38Z</time>
      </trkpt>
      <trkpt lat="56.750784013420343" lon="-3.987835021689534">
        <ele>199.13</ele>
        <time>2023-09-01T16:06:39Z</time>
      </trkpt>
      <trkpt lat="56.7512490414083" lon="-3.985579032450914">
        <ele>200.09</ele>
        <time>2023-09-01T16:06:47Z</time>
      </trkpt>
      <trkpt lat="56.751588005572557" lon="-3.983627976849675">
        <ele>197.21000000000001</ele>
        <time>2023-09-01T16:06:54Z</time>
      </trkpt>
      <trkpt lat="56.751631004735827" lon="-3.983226986601949">
        <ele>196.25</ele>
        <time>2023-09-01T16:06:56Z</time>
      </trkpt>
      <trkpt lat="56.751674003899097" lon="-3.983022971078754">
        <ele>195.77000000000001</ele>
        <time>2023-09-01T16:06:57Z</time>
      </trkpt>
      <trkpt lat="56.751750027760863" lon="-3.982815016061068">
        <ele>195.77000000000001</ele>
        <time>2023-09-01T16:06:58Z</time>
      </trkpt>
      <trkpt lat="56.751844994723797" lon="-3.982621980831027">
        <ele>195.28</ele>
        <time>2023-09-01T16:06:59Z</time>
      </trkpt>
      <trkpt lat="56.75193996168673" lon="-3.982421988621354">
        <ele>195.28</ele>
        <time>2023-09-01T16:07:00Z</time>
      </trkpt>
      <trkpt lat="56.752038029953837" lon="-3.982224008068442">
        <ele>195.77000000000001</ele>
        <time>2023-09-01T16:07:01Z</time>
      </trkpt>
      <trkpt lat="56.752155963331461" lon="-3.982054023072124">
        <ele>195.77000000000001</ele>
        <time>2023-09-01T16:07:02Z</time>
      </trkpt>
      <trkpt lat="56.7522800154984" lon="-3.981876997277141">
        <ele>195.28</ele>
        <time>2023-09-01T16:07:03Z</time>
      </trkpt>
      <trkpt lat="56.752399960532784" lon="-3.98168102838099">
        <ele>195.28</ele>
        <time>2023-09-01T16:07:04Z</time>
      </trkpt>
      <trkpt lat="56.752509009093046" lon="-3.981443988159299">
        <ele>194.80000000000001</ele>
        <time>2023-09-01T16:07:05Z</time>
      </trkpt>
      <trkpt lat="56.753262039273977" lon="-3.979816976934671">
        <ele>194.80000000000001</ele>
        <time>2023-09-01T16:07:12Z</time>
      </trkpt>
      <trkpt lat="56.753322975710034" lon="-3.979578008875251">
        <ele>194.80000000000001</ele>
        <time>2023-09-01T16:07:13Z</time>
      </trkpt>
      <trkpt lat="56.753371004015207" lon="-3.979321019724011">
        <ele>194.80000000000001</ele>
        <time>2023-09-01T16:07:14Z</time>
      </trkpt>
      <trkpt lat="56.75341903232038" lon="-3.979066964238882">
        <ele>194.31999999999999</ele>
        <time>2023-09-01T16:07:15Z</time>
      </trkpt>
      <trkpt lat="56.75346395932138" lon="-3.97882497869432">
        <ele>194.80000000000001</ele>
        <time>2023-09-01T16:07:16Z</time>
      </trkpt>
      <trkpt lat="56.75354702398181" lon="-3.978378977626562">
        <ele>194.80000000000001</ele>
        <time>2023-09-01T16:07:18Z</time>
      </trkpt>
      <trkpt lat="56.75359102897346" lon="-3.978145038709045">
        <ele>195.28</ele>
        <time>2023-09-01T16:07:19Z</time>
      </trkpt>
      <trkpt lat="56.753666969016194" lon="-3.978021992370486">
        <ele>195.77000000000001</ele>
        <time>2023-09-01T16:07:20Z</time>
      </trkpt>
      <trkpt lat="56.75376302562654" lon="-3.977867010980845">
        <ele>195.77000000000001</ele>
        <time>2023-09-01T16:07:21Z</time>
      </trkpt>
      <trkpt lat="56.753869978711009" lon="-3.977693002671003">
        <ele>196.25</ele>
        <time>2023-09-01T16:07:22Z</time>
      </trkpt>
      <trkpt lat="56.753985984250903" lon="-3.977504996582866">
        <ele>197.21000000000001</ele>
        <time>2023-09-01T16:07:23Z</time>
      </trkpt>
      <trkpt lat="56.754361996427178" lon="-3.976895967498422">
        <ele>198.65000000000001</ele>
        <time>2023-09-01T16:07:26Z</time>
      </trkpt>
      <trkpt lat="56.75473096780479" lon="-3.976312000304461">
        <ele>201.53</ele>
        <time>2023-09-01T16:07:29Z</time>
      </trkpt>
      <trkpt lat="56.755243018269539" lon="-3.975442964583635">
        <ele>203.94</ele>
        <time>2023-09-01T16:07:34Z</time>
      </trkpt>
      <trkpt lat="56.755324993282557" lon="-3.975226962938905">
        <ele>203.94</ele>
        <time>2023-09-01T16:07:35Z</time>
      </trkpt>
      <trkpt lat="56.755414009094238" lon="-3.974992018193007">
        <ele>204.41999999999999</ele>
        <time>2023-09-01T16:07:36Z</time>
      </trkpt>
      <trkpt lat="56.755590029060841" lon="-3.974529001861811">
        <ele>203.94</ele>
        <time>2023-09-01T16:07:38Z</time>
      </trkpt>
      <trkpt lat="56.755680972710252" lon="-3.974318029358983">
        <ele>204.41999999999999</ele>
        <time>2023-09-01T16:07:39Z</time>
      </trkpt>
      <trkpt lat="56.756224958226085" lon="-3.97336601279676">
        <ele>205.86000000000001</ele>
        <time>2023-09-01T16:07:44Z</time>
      </trkpt>
      <trkpt lat="56.756291007623076" lon="-3.973128972575069">
        <ele>205.86000000000001</ele>
        <time>2023-09-01T16:07:45Z</time>
      </trkpt>
      <trkpt lat="56.756658973172307" lon="-3.971815025433898">
        <ele>205.38</ele>
        <time>2023-09-01T16:07:51Z</time>
      </trkpt>
      <trkpt lat="56.756673976778984" lon="-3.971642022952437">
        <ele>204.90000000000001</ele>
        <time>2023-09-01T16:07:52Z</time>
      </trkpt>
      <trkpt lat="56.756685040891171" lon="-3.971501961350441">
        <ele>204.90000000000001</ele>
        <time>2023-09-01T16:07:53Z</time>
      </trkpt>
      <trkpt lat="56.756699038669467" lon="-3.971342034637928">
        <ele>204.90000000000001</ele>
        <time>2023-09-01T16:07:54Z</time>
      </trkpt>
      <trkpt lat="56.756713958457112" lon="-3.9711569622159">
        <ele>204.41999999999999</ele>
        <time>2023-09-01T16:07:55Z</time>
      </trkpt>
      <trkpt lat="56.756742959842086" lon="-3.970972979441285">
        <ele>203.94</ele>
        <time>2023-09-01T16:07:56Z</time>
      </trkpt>
      <trkpt lat="56.756796017289162" lon="-3.970781033858657">
        <ele>203.46000000000001</ele>
        <time>2023-09-01T16:07:57Z</time>
      </trkpt>
      <trkpt lat="56.75685896538198" lon="-3.970619011670351">
        <ele>202.97999999999999</ele>
        <time>2023-09-01T16:07:58Z</time>
      </trkpt>
      <trkpt lat="56.756959967315197" lon="-3.970483979210258">
        <ele>202.00999999999999</ele>
        <time>2023-09-01T16:07:59Z</time>
      </trkpt>
      <trkpt lat="56.757070021703839" lon="-3.970337966457009">
        <ele>201.05000000000001</ele>
        <time>2023-09-01T16:08:00Z</time>
      </trkpt>
      <trkpt lat="56.757187033072114" lon="-3.970181979238987">
        <ele>200.09</ele>
        <time>2023-09-01T16:08:01Z</time>
      </trkpt>
      <trkpt lat="56.757311001420021" lon="-3.970016017556191">
        <ele>199.13</ele>
        <time>2023-09-01T16:08:02Z</time>
      </trkpt>
      <trkpt lat="56.758006028831005" lon="-3.968996023759246">
        <ele>195.77000000000001</ele>
        <time>2023-09-01T16:08:08Z</time>
      </trkpt>
      <trkpt lat="56.758075011894107" lon="-3.968793014064431">
        <ele>195.77000000000001</ele>
        <time>2023-09-01T16:08:09Z</time>
      </trkpt>
      <trkpt lat="56.758133014664054" lon="-3.968557985499501">
        <ele>195.28</ele>
        <time>2023-09-01T16:08:10Z</time>
      </trkpt>
      <trkpt lat="56.758325966075063" lon="-3.967902017757297">
        <ele>193.84</ele>
        <time>2023-09-01T16:08:13Z</time>
      </trkpt>
      <trkpt lat="56.758419005200267" lon="-3.967717029154301">
        <ele>193.36000000000001</ele>
        <time>2023-09-01T16:08:14Z</time>
      </trkpt>
      <trkpt lat="56.75851103849709" lon="-3.967532962560654">
        <ele>192.40000000000001</ele>
        <time>2023-09-01T16:08:15Z</time>
      </trkpt>
      <trkpt lat="56.758626960217953" lon="-3.967374041676521">
        <ele>190.96000000000001</ele>
        <time>2023-09-01T16:08:16Z</time>
      </trkpt>
      <trkpt lat="56.758755035698414" lon="-3.967233980074525">
        <ele>190</ele>
        <time>2023-09-01T16:08:17Z</time>
      </trkpt>
      <trkpt lat="56.758888978511095" lon="-3.967089978978038">
        <ele>188.56</ele>
        <time>2023-09-01T16:08:18Z</time>
      </trkpt>
      <trkpt lat="56.759019987657666" lon="-3.966946983709931">
        <ele>188.08000000000001</ele>
        <time>2023-09-01T16:08:19Z</time>
      </trkpt>
      <trkpt lat="56.759143033996224" lon="-3.966784961521626">
        <ele>187.59</ele>
        <time>2023-09-01T16:08:20Z</time>
      </trkpt>
      <trkpt lat="56.759380996227264" lon="-3.966440968215466">
        <ele>186.63</ele>
        <time>2023-09-01T16:08:22Z</time>
      </trkpt>
      <trkpt lat="56.759483003988862" lon="-3.966252962127328">
        <ele>186.15000000000001</ele>
        <time>2023-09-01T16:08:23Z</time>
      </trkpt>
      <trkpt lat="56.759826997295022" lon="-3.965346040204167">
        <ele>186.15000000000001</ele>
        <time>2023-09-01T16:08:27Z</time>
      </trkpt>
      <trkpt lat="56.759915007278323" lon="-3.965113023295999">
        <ele>185.66999999999999</ele>
        <time>2023-09-01T16:08:28Z</time>
      </trkpt>
      <trkpt lat="56.759965969249606" lon="-3.964875983074307">
        <ele>185.66999999999999</ele>
        <time>2023-09-01T16:08:29Z</time>
      </trkpt>
      <trkpt lat="56.760448012501001" lon="-3.963390961289406">
        <ele>185.19</ele>
        <time>2023-09-01T16:08:36Z</time>
      </trkpt>
      <trkpt lat="56.760537028312683" lon="-3.963274033740163">
        <ele>185.19</ele>
        <time>2023-09-01T16:08:37Z</time>
      </trkpt>
      <trkpt lat="56.760642975568771" lon="-3.963178982958198">
        <ele>185.66999999999999</ele>
        <time>2023-09-01T16:08:38Z</time>
      </trkpt>
      <trkpt lat="56.760881021618843" lon="-3.963045040145516">
        <ele>185.19</ele>
        <time>2023-09-01T16:08:40Z</time>
      </trkpt>
      <trkpt lat="56.760989986360073" lon="-3.962949989363551">
        <ele>185.19</ele>
        <time>2023-09-01T16:08:41Z</time>
      </trkpt>
      <trkpt lat="56.761229960247874" lon="-3.962684031575918">
        <ele>184.71000000000001</ele>
        <time>2023-09-01T16:08:43Z</time>
      </trkpt>
      <trkpt lat="56.761484015733004" lon="-3.962400974705815">
        <ele>183.75</ele>
        <time>2023-09-01T16:08:45Z</time>
      </trkpt>
      <trkpt lat="56.761589040979743" lon="-3.962224032729864">
        <ele>183.27000000000001</ele>
        <time>2023-09-01T16:08:46Z</time>
      </trkpt>
      <trkpt lat="56.761789033189416" lon="-3.961853971704841">
        <ele>182.78999999999999</ele>
        <time>2023-09-01T16:08:48Z</time>
      </trkpt>
      <trkpt lat="56.761889029294252" lon="-3.961667977273464">
        <ele>182.78999999999999</ele>
        <time>2023-09-01T16:08:49Z</time>
      </trkpt>
      <trkpt lat="56.762009980157018" lon="-3.96148600615561">
        <ele>182.31</ele>
        <time>2023-09-01T16:08:50Z</time>
      </trkpt>
      <trkpt lat="56.762524964287877" lon="-3.960971022024751">
        <ele>181.34999999999999</ele>
        <time>2023-09-01T16:08:54Z</time>
      </trkpt>
      <trkpt lat="56.762645998969674" lon="-3.960849987342954">
        <ele>181.83000000000001</ele>
        <time>2023-09-01T16:08:55Z</time>
      </trkpt>
      <trkpt lat="56.762757981196046" lon="-3.960822997614741">
        <ele>181.83000000000001</ele>
        <time>2023-09-01T16:08:56Z</time>
      </trkpt>
      <trkpt lat="56.763594998046756" lon="-3.9606680162251">
        <ele>184.22999999999999</ele>
        <time>2023-09-01T16:09:03Z</time>
      </trkpt>
      <trkpt lat="56.763679990544915" lon="-3.960707997903228">
        <ele>184.22999999999999</ele>
        <time>2023-09-01T16:09:04Z</time>
      </trkpt>
      <trkpt lat="56.763768000528216" lon="-3.960749991238117">
        <ele>184.22999999999999</ele>
        <time>2023-09-01T16:09:05Z</time>
      </trkpt>
      <trkpt lat="56.763851987197995" lon="-3.960788967087865">
        <ele>184.22999999999999</ele>
        <time>2023-09-01T16:09:06Z</time>
      </trkpt>
      <trkpt lat="56.763932034373283" lon="-3.96084101870656">
        <ele>183.75</ele>
        <time>2023-09-01T16:09:07Z</time>
      </trkpt>
      <trkpt lat="56.764436038210988" lon="-3.961244020611048">
        <ele>182.78999999999999</ele>
        <time>2023-09-01T16:09:13Z</time>
      </trkpt>
      <trkpt lat="56.764534022659063" lon="-3.961321972310543">
        <ele>182.78999999999999</ele>
        <time>2023-09-01T16:09:14Z</time>
      </trkpt>
      <trkpt lat="56.764877010136843" lon="-3.96137704141438">
        <ele>181.83000000000001</ele>
        <time>2023-09-01T16:09:17Z</time>
      </trkpt>
      <trkpt lat="56.76500198431313" lon="-3.961396990343928">
        <ele>181.83000000000001</ele>
        <time>2023-09-01T16:09:18Z</time>
      </trkpt>
      <trkpt lat="56.766507038846612" lon="-3.961620032787323">
        <ele>178.94</ele>
        <time>2023-09-01T16:09:30Z</time>
      </trkpt>
      <trkpt lat="56.767035014927387" lon="-3.961816001683474">
        <ele>177.02000000000001</ele>
        <time>2023-09-01T16:09:35Z</time>
      </trkpt>
      <trkpt lat="56.767087988555431" lon="-3.961837040260434">
        <ele>176.06</ele>
        <time>2023-09-01T16:09:36Z</time>
      </trkpt>
      <trkpt lat="56.767129981890321" lon="-3.961823964491487">
        <ele>175.58000000000001</ele>
        <time>2023-09-01T16:09:37Z</time>
      </trkpt>
      <trkpt lat="56.767173986881971" lon="-3.961810972541571">
        <ele>174.62</ele>
        <time>2023-09-01T16:09:38Z</time>
      </trkpt>
      <trkpt lat="56.767208017408848" lon="-3.961800998076797">
        <ele>173.16999999999999</ele>
        <time>2023-09-01T16:09:39Z</time>
      </trkpt>
      <trkpt lat="56.767246993258595" lon="-3.961788006126881">
        <ele>172.69</ele>
        <time>2023-09-01T16:09:40Z</time>
      </trkpt>
      <trkpt lat="56.767367022112012" lon="-3.961751963943243">
        <ele>172.21000000000001</ele>
        <time>2023-09-01T16:09:41Z</time>
      </trkpt>
      <trkpt lat="56.767369033768773" lon="-3.961748024448752">
        <ele>171.72999999999999</ele>
        <time>2023-09-01T16:09:42Z</time>
      </trkpt>
      <trkpt lat="56.767436005175114" lon="-3.961624978110194">
        <ele>171.25</ele>
        <time>2023-09-01T16:09:43Z</time>
      </trkpt>
      <trkpt lat="56.767517980188131" lon="-3.961418028920889">
        <ele>170.28999999999999</ele>
        <time>2023-09-01T16:09:44Z</time>
      </trkpt>
      <trkpt lat="56.767533989623189" lon="-3.961234968155623">
        <ele>169.33000000000001</ele>
        <time>2023-09-01T16:09:45Z</time>
      </trkpt>
      <trkpt lat="56.76755502820015" lon="-3.961064983159304">
        <ele>168.84999999999999</ele>
        <time>2023-09-01T16:09:46Z</time>
      </trkpt>
      <trkpt lat="56.767582017928362" lon="-3.960856022313237">
        <ele>167.88999999999999</ele>
        <time>2023-09-01T16:09:47Z</time>
      </trkpt>
      <trkpt lat="56.767610013484955" lon="-3.960643960162997">
        <ele>167.41</ele>
        <time>2023-09-01T16:09:48Z</time>
      </trkpt>
      <trkpt lat="56.767638009041548" lon="-3.960430976003408">
        <ele>166.93000000000001</ele>
        <time>2023-09-01T16:09:49Z</time>
      </trkpt>
      <trkpt lat="56.767713027074933" lon="-3.960040966048837">
        <ele>166.44999999999999</ele>
        <time>2023-09-01T16:09:51Z</time>
      </trkpt>
      <trkpt lat="56.767827020958066" lon="-3.959642993286252">
        <ele>165.96000000000001</ele>
        <time>2023-09-01T16:09:53Z</time>
      </trkpt>
      <trkpt lat="56.768141007050872" lon="-3.958696005865932">
        <ele>170.28999999999999</ele>
        <time>2023-09-01T16:09:59Z</time>
      </trkpt>
      <trkpt lat="56.768210995942354" lon="-3.958444967865944">
        <ele>175.09999999999999</ele>
        <time>2023-09-01T16:10:05Z</time>
      </trkpt>
      <trkpt lat="56.768238991498947" lon="-3.958290992304683">
        <ele>176.53999999999999</ele>
        <time>2023-09-01T16:10:08Z</time>
      </trkpt>
      <trkpt lat="56.768257012590766" lon="-3.958184039220214">
        <ele>177.02000000000001</ele>
        <time>2023-09-01T16:10:09Z</time>
      </trkpt>
      <trkpt lat="56.76826598122716" lon="-3.958118995651603">
        <ele>177.97999999999999</ele>
        <time>2023-09-01T16:10:10Z</time>
      </trkpt>
      <trkpt lat="56.768231028690934" lon="-3.957950016483665">
        <ele>178.46000000000001</ele>
        <time>2023-09-01T16:10:11Z</time>
      </trkpt>
      <trkpt lat="56.768196998164058" lon="-3.957751030102372">
        <ele>178.94</ele>
        <time>2023-09-01T16:10:12Z</time>
      </trkpt>
      <trkpt lat="56.768040005117655" lon="-3.956833966076374">
        <ele>179.90000000000001</ele>
        <time>2023-09-01T16:10:16Z</time>
      </trkpt>
      <trkpt lat="56.76798895932734" lon="-3.956536995247006">
        <ele>180.38</ele>
        <time>2023-09-01T16:10:17Z</time>
      </trkpt>
      <trkpt lat="56.768003040924668" lon="-3.956343038007617">
        <ele>180.38</ele>
        <time>2023-09-01T16:10:18Z</time>
      </trkpt>
      <trkpt lat="56.768019972369075" lon="-3.956104991957545">
        <ele>180.38</ele>
        <time>2023-09-01T16:10:19Z</time>
      </trkpt>
      <trkpt lat="56.768062971532345" lon="-3.955827970057726">
        <ele>180.38</ele>
        <time>2023-09-01T16:10:20Z</time>
      </trkpt>
      <trkpt lat="56.768131032586098" lon="-3.955590007826686">
        <ele>180.38</ele>
        <time>2023-09-01T16:10:21Z</time>
      </trkpt>
      <trkpt lat="56.768224993720651" lon="-3.95508399233222">
        <ele>179.41999999999999</ele>
        <time>2023-09-01T16:10:23Z</time>
      </trkpt>
      <trkpt lat="56.768241003155708" lon="-3.954829014837742">
        <ele>178.94</ele>
        <time>2023-09-01T16:10:24Z</time>
      </trkpt>
      <trkpt lat="56.768227005377412" lon="-3.9545479696244">
        <ele>178.46000000000001</ele>
        <time>2023-09-01T16:10:25Z</time>
      </trkpt>
      <trkpt lat="56.768117034807801" lon="-3.953078035265207">
        <ele>176.53999999999999</ele>
        <time>2023-09-01T16:10:30Z</time>
      </trkpt>
      <trkpt lat="56.768095996230841" lon="-3.952504964545369">
        <ele>175.58000000000001</ele>
        <time>2023-09-01T16:10:32Z</time>
      </trkpt>
      <trkpt lat="56.768095996230841" lon="-3.952201958745718">
        <ele>175.09999999999999</ele>
        <time>2023-09-01T16:10:33Z</time>
      </trkpt>
      <trkpt lat="56.76811502315104" lon="-3.951334012672305">
        <ele>173.16999999999999</ele>
        <time>2023-09-01T16:10:36Z</time>
      </trkpt>
      <trkpt lat="56.768106976523995" lon="-3.95110996440053">
        <ele>172.21000000000001</ele>
        <time>2023-09-01T16:10:37Z</time>
      </trkpt>
      <trkpt lat="56.768071018159389" lon="-3.950938973575831">
        <ele>171.72999999999999</ele>
        <time>2023-09-01T16:10:38Z</time>
      </trkpt>
      <trkpt lat="56.768001029267907" lon="-3.950768988579512">
        <ele>171.25</ele>
        <time>2023-09-01T16:10:39Z</time>
      </trkpt>
      <trkpt lat="56.767920982092619" lon="-3.950587017461658">
        <ele>170.77000000000001</ele>
        <time>2023-09-01T16:10:40Z</time>
      </trkpt>
      <trkpt lat="56.767824003472924" lon="-3.950391970574856">
        <ele>170.28999999999999</ele>
        <time>2023-09-01T16:10:41Z</time>
      </trkpt>
      <trkpt lat="56.767455032095313" lon="-3.949437020346522">
        <ele>167.88999999999999</ele>
        <time>2023-09-01T16:10:45Z</time>
      </trkpt>
      <trkpt lat="56.767393006011844" lon="-3.949155975133181">
        <ele>167.41</ele>
        <time>2023-09-01T16:10:46Z</time>
      </trkpt>
      <trkpt lat="56.767356041818857" lon="-3.948871996253729">
        <ele>166.44999999999999</ele>
        <time>2023-09-01T16:10:47Z</time>
      </trkpt>
      <trkpt lat="56.767322011291981" lon="-3.948586005717516">
        <ele>165.96000000000001</ele>
        <time>2023-09-01T16:10:48Z</time>
      </trkpt>
      <trkpt lat="56.767310025170445" lon="-3.948285011574626">
        <ele>165</ele>
        <time>2023-09-01T16:10:49Z</time>
      </trkpt>
      <trkpt lat="56.767311030998826" lon="-3.947976976633072">
        <ele>164.52000000000001</ele>
        <time>2023-09-01T16:10:50Z</time>
      </trkpt>
      <trkpt lat="56.767339026555419" lon="-3.947662990540266">
        <ele>164.03999999999999</ele>
        <time>2023-09-01T16:10:51Z</time>
      </trkpt>
      <trkpt lat="56.767662987112999" lon="-3.944191038608551">
        <ele>159.24000000000001</ele>
        <time>2023-09-01T16:11:01Z</time>
      </trkpt>
      <trkpt lat="56.767704980447888" lon="-3.943856013938785">
        <ele>160.19999999999999</ele>
        <time>2023-09-01T16:11:02Z</time>
      </trkpt>
      <trkpt lat="56.767779998481274" lon="-3.943552002310753">
        <ele>160.68000000000001</ele>
        <time>2023-09-01T16:11:03Z</time>
      </trkpt>
      <trkpt lat="56.767861973494291" lon="-3.943251008167863">
        <ele>161.63999999999999</ele>
        <time>2023-09-01T16:11:04Z</time>
      </trkpt>
      <trkpt lat="56.767973033711314" lon="-3.942989995703101">
        <ele>162.59999999999999</ele>
        <time>2023-09-01T16:11:05Z</time>
      </trkpt>
      <trkpt lat="56.768086021766067" lon="-3.942724959924817">
        <ele>163.56</ele>
        <time>2023-09-01T16:11:06Z</time>
      </trkpt>
      <trkpt lat="56.768651967868209" lon="-3.941392991691828">
        <ele>169.81</ele>
        <time>2023-09-01T16:11:11Z</time>
      </trkpt>
      <trkpt lat="56.768710976466537" lon="-3.94107598811388">
        <ele>171.25</ele>
        <time>2023-09-01T16:11:12Z</time>
      </trkpt>
      <trkpt lat="56.768768979236484" lon="-3.940756972879171">
        <ele>172.21000000000001</ele>
        <time>2023-09-01T16:11:13Z</time>
      </trkpt>
      <trkpt lat="56.768793035298586" lon="-3.940420020371676">
        <ele>173.16999999999999</ele>
        <time>2023-09-01T16:11:14Z</time>
      </trkpt>
      <trkpt lat="56.768807033076882" lon="-3.940061023458839">
        <ele>173.16999999999999</ele>
        <time>2023-09-01T16:11:15Z</time>
      </trkpt>
      <trkpt lat="56.768822036683559" lon="-3.939690962433815">
        <ele>173.66</ele>
        <time>2023-09-01T16:11:16Z</time>
      </trkpt>
      <trkpt lat="56.768819019198418" lon="-3.939314028248191">
        <ele>173.16999999999999</ele>
        <time>2023-09-01T16:11:17Z</time>
      </trkpt>
      <trkpt lat="56.768747018650174" lon="-3.935984987765551">
        <ele>167.41</ele>
        <time>2023-09-01T16:11:26Z</time>
      </trkpt>
      <trkpt lat="56.768761016428471" lon="-3.935369001701474">
        <ele>165.47999999999999</ele>
        <time>2023-09-01T16:11:28Z</time>
      </trkpt>
      <trkpt lat="56.76878297701478" lon="-3.93507999368012">
        <ele>165</ele>
        <time>2023-09-01T16:11:29Z</time>
      </trkpt>
      <trkpt lat="56.768829999491572" lon="-3.934817975386977">
        <ele>164.03999999999999</ele>
        <time>2023-09-01T16:11:30Z</time>
      </trkpt>
      <trkpt lat="56.769240964204073" lon="-3.932793997228146">
        <ele>160.68000000000001</ele>
        <time>2023-09-01T16:11:39Z</time>
      </trkpt>
      <trkpt lat="56.769604990258813" lon="-3.930991971865296">
        <ele>159.24000000000001</ele>
        <time>2023-09-01T16:11:48Z</time>
      </trkpt>
      <trkpt lat="56.769997011870146" lon="-3.929427992552519">
        <ele>157.31</ele>
        <time>2023-09-01T16:11:58Z</time>
      </trkpt>
      <trkpt lat="56.770032970234752" lon="-3.929284997284412">
        <ele>157.31</ele>
        <time>2023-09-01T16:11:59Z</time>
      </trkpt>
      <trkpt lat="56.770100025460124" lon="-3.928993977606297">
        <ele>156.34999999999999</ele>
        <time>2023-09-01T16:12:02Z</time>
      </trkpt>
      <trkpt lat="56.770116034895182" lon="-3.928923988714814">
        <ele>156.34999999999999</ele>
        <time>2023-09-01T16:12:03Z</time>
      </trkpt>
      <trkpt lat="56.770131960511208" lon="-3.928852993994951">
        <ele>156.34999999999999</ele>
        <time>2023-09-01T16:12:04Z</time>
      </trkpt>
      <trkpt lat="56.770194992423058" lon="-3.92874101176858">
        <ele>155.87</ele>
        <time>2023-09-01T16:12:05Z</time>
      </trkpt>
      <trkpt lat="56.770233968272805" lon="-3.928732965141535">
        <ele>155.87</ele>
        <time>2023-09-01T16:12:06Z</time>
      </trkpt>
      <trkpt lat="56.770283002406359" lon="-3.92872198484838">
        <ele>155.87</ele>
        <time>2023-09-01T16:12:07Z</time>
      </trkpt>
      <trkpt lat="56.770342011004686" lon="-3.928709998726845">
        <ele>155.87</ele>
        <time>2023-09-01T16:12:08Z</time>
      </trkpt>
      <trkpt lat="56.770718023180962" lon="-3.92850598320365">
        <ele>155.87</ele>
        <time>2023-09-01T16:12:13Z</time>
      </trkpt>
      <trkpt lat="56.770805027335882" lon="-3.928395006805658">
        <ele>155.87</ele>
        <time>2023-09-01T16:12:14Z</time>
      </trkpt>
      <trkpt lat="56.770893037319183" lon="-3.9282719604671">
        <ele>156.34999999999999</ele>
        <time>2023-09-01T16:12:15Z</time>
      </trkpt>
      <trkpt lat="56.77097300067544" lon="-3.928136005997658">
        <ele>156.34999999999999</ele>
        <time>2023-09-01T16:12:16Z</time>
      </trkpt>
      <trkpt lat="56.77103603258729" lon="-3.927981024608016">
        <ele>156.83000000000001</ele>
        <time>2023-09-01T16:12:17Z</time>
      </trkpt>
      <trkpt lat="56.771104009822011" lon="-3.927814979106188">
        <ele>157.31</ele>
        <time>2023-09-01T16:12:18Z</time>
      </trkpt>
      <trkpt lat="56.771172992885113" lon="-3.927638959139586">
        <ele>157.31</ele>
        <time>2023-09-01T16:12:19Z</time>
      </trkpt>
      <trkpt lat="56.771292015910149" lon="-3.927242998033762">
        <ele>158.27000000000001</ele>
        <time>2023-09-01T16:12:21Z</time>
      </trkpt>
      <trkpt lat="56.771325040608644" lon="-3.927019033581018">
        <ele>158.75</ele>
        <time>2023-09-01T16:12:22Z</time>
      </trkpt>
      <trkpt lat="56.771357981488109" lon="-3.926796996966004">
        <ele>159.24000000000001</ele>
        <time>2023-09-01T16:12:23Z</time>
      </trkpt>
      <trkpt lat="56.771357981488109" lon="-3.926530033349991">
        <ele>159.72</ele>
        <time>2023-09-01T16:12:24Z</time>
      </trkpt>
      <trkpt lat="56.771357981488109" lon="-3.926272038370371">
        <ele>159.72</ele>
        <time>2023-09-01T16:12:25Z</time>
      </trkpt>
      <trkpt lat="56.771349012851715" lon="-3.926007002592087">
        <ele>160.19999999999999</ele>
        <time>2023-09-01T16:12:26Z</time>
      </trkpt>
      <trkpt lat="56.771329985931516" lon="-3.925730986520648">
        <ele>160.19999999999999</ele>
        <time>2023-09-01T16:12:27Z</time>
      </trkpt>
      <trkpt lat="56.771118007600307" lon="-3.923075012862682">
        <ele>153.47</ele>
        <time>2023-09-01T16:12:35Z</time>
      </trkpt>
      <trkpt lat="56.770655997097492" lon="-3.917684024199843">
        <ele>147.69999999999999</ele>
        <time>2023-09-01T16:12:49Z</time>
      </trkpt>
      <trkpt lat="56.770104970782995" lon="-3.911212021484971">
        <ele>144.81999999999999</ele>
        <time>2023-09-01T16:13:06Z</time>
      </trkpt>
      <trkpt lat="56.769642038270831" lon="-3.905658004805446">
        <ele>143.37</ele>
        <time>2023-09-01T16:13:21Z</time>
      </trkpt>
      <trkpt lat="56.769625023007393" lon="-3.905329015105963">
        <ele>142.88999999999999</ele>
        <time>2023-09-01T16:13:22Z</time>
      </trkpt>
      <trkpt lat="56.769888969138265" lon="-3.902547983452678">
        <ele>140.00999999999999</ele>
        <time>2023-09-01T16:13:30Z</time>
      </trkpt>
      <trkpt lat="56.770249977707863" lon="-3.899383982643485">
        <ele>138.56999999999999</ele>
        <time>2023-09-01T16:13:39Z</time>
      </trkpt>
      <trkpt lat="56.7702860198915" lon="-3.899046024307609">
        <ele>138.56999999999999</ele>
        <time>2023-09-01T16:13:40Z</time>
      </trkpt>
      <trkpt lat="56.770321978256106" lon="-3.898718962445855">
        <ele>138.56999999999999</ele>
        <time>2023-09-01T16:13:41Z</time>
      </trkpt>
      <trkpt lat="56.770305968821049" lon="-3.898388966917992">
        <ele>138.56999999999999</ele>
        <time>2023-09-01T16:13:42Z</time>
      </trkpt>
      <trkpt lat="56.770281996577978" lon="-3.898067018017173">
        <ele>138.56999999999999</ele>
        <time>2023-09-01T16:13:43Z</time>
      </trkpt>
      <trkpt lat="56.770256012678146" lon="-3.897734005004168">
        <ele>138.56999999999999</ele>
        <time>2023-09-01T16:13:44Z</time>
      </trkpt>
      <trkpt lat="56.770228017121553" lon="-3.897385988384485">
        <ele>138.56999999999999</ele>
        <time>2023-09-01T16:13:45Z</time>
      </trkpt>
      <trkpt lat="56.770197004079819" lon="-3.897026991471648">
        <ele>138.56999999999999</ele>
        <time>2023-09-01T16:13:46Z</time>
      </trkpt>
      <trkpt lat="56.770164985209703" lon="-3.896660031750798">
        <ele>138.09</ele>
        <time>2023-09-01T16:13:47Z</time>
      </trkpt>
      <trkpt lat="56.769986031576991" lon="-3.894662959501147">
        <ele>137.61000000000001</ele>
        <time>2023-09-01T16:13:53Z</time>
      </trkpt>
      <trkpt lat="56.769703980535269" lon="-3.89264996163547">
        <ele>135.19999999999999</ele>
        <time>2023-09-01T16:14:00Z</time>
      </trkpt>
      <trkpt lat="56.769693000242114" lon="-3.892459021881223">
        <ele>134.72</ele>
        <time>2023-09-01T16:14:01Z</time>
      </trkpt>
      <trkpt lat="56.769684031605721" lon="-3.892292976379395">
        <ele>134.24000000000001</ele>
        <time>2023-09-01T16:14:02Z</time>
      </trkpt>
      <trkpt lat="56.769713032990694" lon="-3.892135983332992">
        <ele>134.24000000000001</ele>
        <time>2023-09-01T16:14:03Z</time>
      </trkpt>
      <trkpt lat="56.769749997183681" lon="-3.892000028863549">
        <ele>133.75999999999999</ele>
        <time>2023-09-01T16:14:04Z</time>
      </trkpt>
      <trkpt lat="56.769794002175331" lon="-3.891889974474907">
        <ele>133.75999999999999</ele>
        <time>2023-09-01T16:14:05Z</time>
      </trkpt>
      <trkpt lat="56.769841024652123" lon="-3.891771035268903">
        <ele>133.28</ele>
        <time>2023-09-01T16:14:06Z</time>
      </trkpt>
      <trkpt lat="56.769895004108548" lon="-3.89163700863719">
        <ele>133.28</ele>
        <time>2023-09-01T16:14:07Z</time>
      </trkpt>
      <trkpt lat="56.76994202658534" lon="-3.891521003097296">
        <ele>132.80000000000001</ele>
        <time>2023-09-01T16:14:08Z</time>
      </trkpt>
      <trkpt lat="56.769959041848779" lon="-3.891332997009158">
        <ele>132.80000000000001</ele>
        <time>2023-09-01T16:14:09Z</time>
      </trkpt>
      <trkpt lat="56.769950995221734" lon="-3.891183966770768">
        <ele>132.31999999999999</ele>
        <time>2023-09-01T16:14:10Z</time>
      </trkpt>
      <trkpt lat="56.769929034635425" lon="-3.890995960682631">
        <ele>132.31999999999999</ele>
        <time>2023-09-01T16:14:11Z</time>
      </trkpt>
      <trkpt lat="56.769710015505552" lon="-3.889121012762189">
        <ele>131.84</ele>
        <time>2023-09-01T16:14:18Z</time>
      </trkpt>
      <trkpt lat="56.769315982237458" lon="-3.885863972827792">
        <ele>132.31999999999999</ele>
        <time>2023-09-01T16:14:28Z</time>
      </trkpt>
      <trkpt lat="56.769001996144652" lon="-3.883319981396198">
        <ele>132.80000000000001</ele>
        <time>2023-09-01T16:14:35Z</time>
      </trkpt>
      <trkpt lat="56.76850201562047" lon="-3.879265990108252">
        <ele>131.36000000000001</ele>
        <time>2023-09-01T16:14:46Z</time>
      </trkpt>
      <trkpt lat="56.768004968762398" lon="-3.875233959406614">
        <ele>128.94999999999999</ele>
        <time>2023-09-01T16:14:57Z</time>
      </trkpt>
      <trkpt lat="56.76745000295341" lon="-3.870728015899658">
        <ele>127.51000000000001</ele>
        <time>2023-09-01T16:15:09Z</time>
      </trkpt>
      <trkpt lat="56.76727700047195" lon="-3.868141025304794">
        <ele>127.51000000000001</ele>
        <time>2023-09-01T16:15:16Z</time>
      </trkpt>
      <trkpt lat="56.767108021304011" lon="-3.864390039816499">
        <ele>129.91999999999999</ele>
        <time>2023-09-01T16:15:26Z</time>
      </trkpt>
      <trkpt lat="56.766886990517378" lon="-3.861544970422983">
        <ele>131.84</ele>
        <time>2023-09-01T16:15:34Z</time>
      </trkpt>
      <trkpt lat="56.766479965299368" lon="-3.857802031561732">
        <ele>133.75999999999999</ele>
        <time>2023-09-01T16:15:45Z</time>
      </trkpt>
      <trkpt lat="56.766238985583186" lon="-3.855615025386214">
        <ele>135.68000000000001</ele>
        <time>2023-09-01T16:15:53Z</time>
      </trkpt>
      <trkpt lat="56.765937991440296" lon="-3.852899959310889">
        <ele>133.28</ele>
        <time>2023-09-01T16:16:05Z</time>
      </trkpt>
      <trkpt lat="56.765849981456995" lon="-3.851389959454536">
        <ele>129.91999999999999</ele>
        <time>2023-09-01T16:16:13Z</time>
      </trkpt>
      <trkpt lat="56.765847969800234" lon="-3.851347966119647">
        <ele>129.43000000000001</ele>
        <time>2023-09-01T16:16:14Z</time>
      </trkpt>
      <trkpt lat="56.765846963971853" lon="-3.851317958906293">
        <ele>128.47</ele>
        <time>2023-09-01T16:16:23Z</time>
      </trkpt>
      <trkpt lat="56.765840006992221" lon="-3.851061975583434">
        <ele>128.47</ele>
        <time>2023-09-01T16:16:29Z</time>
      </trkpt>
      <trkpt lat="56.76583799533546" lon="-3.850953010842204">
        <ele>127.98999999999999</ele>
        <time>2023-09-01T16:16:30Z</time>
      </trkpt>
      <trkpt lat="56.765835983678699" lon="-3.850824013352394">
        <ele>127.98999999999999</ele>
        <time>2023-09-01T16:16:31Z</time>
      </trkpt>
      <trkpt lat="56.765823997557163" lon="-3.850147007033229">
        <ele>127.03</ele>
        <time>2023-09-01T16:16:36Z</time>
      </trkpt>
      <trkpt lat="56.7659049667418" lon="-3.849091976881027">
        <ele>126.55</ele>
        <time>2023-09-01T16:16:43Z</time>
      </trkpt>
      <trkpt lat="56.765917958691716" lon="-3.848943030461669">
        <ele>126.55</ele>
        <time>2023-09-01T16:16:44Z</time>
      </trkpt>
      <trkpt lat="56.765932040289044" lon="-3.848786037415266">
        <ele>126.06999999999999</ele>
        <time>2023-09-01T16:16:45Z</time>
      </trkpt>
      <trkpt lat="56.765949977561831" lon="-3.84862300939858">
        <ele>126.06999999999999</ele>
        <time>2023-09-01T16:16:46Z</time>
      </trkpt>
      <trkpt lat="56.765970010310411" lon="-3.848432991653681">
        <ele>126.06999999999999</ele>
        <time>2023-09-01T16:16:47Z</time>
      </trkpt>
      <trkpt lat="56.76599096506834" lon="-3.848232999444008">
        <ele>126.06999999999999</ele>
        <time>2023-09-01T16:16:48Z</time>
      </trkpt>
      <trkpt lat="56.766012003645301" lon="-3.848034013062716">
        <ele>126.55</ele>
        <time>2023-09-01T16:16:49Z</time>
      </trkpt>
      <trkpt lat="56.766037987545133" lon="-3.847838966175914">
        <ele>127.03</ele>
        <time>2023-09-01T16:16:50Z</time>
      </trkpt>
      <trkpt lat="56.766063971444964" lon="-3.84765800088644">
        <ele>127.98999999999999</ele>
        <time>2023-09-01T16:16:51Z</time>
      </trkpt>
      <trkpt lat="56.766090039163828" lon="-3.847475023940206">
        <ele>128.47</ele>
        <time>2023-09-01T16:16:52Z</time>
      </trkpt>
      <trkpt lat="56.76611702889204" lon="-3.847286012023687">
        <ele>128.94999999999999</ele>
        <time>2023-09-01T16:16:53Z</time>
      </trkpt>
      <trkpt lat="56.766146030277014" lon="-3.847087025642395">
        <ele>128.94999999999999</ele>
        <time>2023-09-01T16:16:54Z</time>
      </trkpt>
      <trkpt lat="56.766175031661987" lon="-3.84688401594758">
        <ele>128.94999999999999</ele>
        <time>2023-09-01T16:16:55Z</time>
      </trkpt>
      <trkpt lat="56.7662020213902" lon="-3.846695004031062">
        <ele>127.98999999999999</ele>
        <time>2023-09-01T16:16:56Z</time>
      </trkpt>
      <trkpt lat="56.766257006675005" lon="-3.846308011561632">
        <ele>127.03</ele>
        <time>2023-09-01T16:16:58Z</time>
      </trkpt>
      <trkpt lat="56.766292965039611" lon="-3.846116987988353">
        <ele>126.55</ele>
        <time>2023-09-01T16:16:59Z</time>
      </trkpt>
      <trkpt lat="56.766453981399536" lon="-3.845476023852825">
        <ele>125.11</ele>
        <time>2023-09-01T16:17:03Z</time>
      </trkpt>
      <trkpt lat="56.766479965299368" lon="-3.845369992777705">
        <ele>125.11</ele>
        <time>2023-09-01T16:17:04Z</time>
      </trkpt>
      <trkpt lat="56.76650301553309" lon="-3.845278965309262">
        <ele>125.11</ele>
        <time>2023-09-01T16:17:05Z</time>
      </trkpt>
      <trkpt lat="56.766578033566475" lon="-3.844978976994753">
        <ele>126.06999999999999</ele>
        <time>2023-09-01T16:17:13Z</time>
      </trkpt>
      <trkpt lat="56.766578033566475" lon="-3.844978976994753">
        <ele>126.55</ele>
        <time>2023-09-01T16:17:27Z</time>
      </trkpt>
      <trkpt lat="56.766578033566475" lon="-3.844978976994753">
        <ele>127.51000000000001</ele>
        <time>2023-09-01T16:17:52Z</time>
      </trkpt>
      <trkpt lat="56.766578033566475" lon="-3.844978976994753">
        <ele>127.98999999999999</ele>
        <time>2023-09-01T16:18:11Z</time>
      </trkpt>
      <trkpt lat="56.766578033566475" lon="-3.844978976994753">
        <ele>127.98999999999999</ele>
        <time>2023-09-01T16:18:40Z</time>
      </trkpt>
      <trkpt lat="56.766616003587842" lon="-3.844829024747014">
        <ele>127.98999999999999</ele>
        <time>2023-09-01T16:18:58Z</time>
      </trkpt>
      <trkpt lat="56.766757993027568" lon="-3.845078973099589">
        <ele>128.94999999999999</ele>
        <time>2023-09-01T16:18:59Z</time>
      </trkpt>
      <trkpt lat="56.766737960278988" lon="-3.845043014734983">
        <ele>129.43000000000001</ele>
        <time>2023-09-01T16:19:00Z</time>
      </trkpt>
      <trkpt lat="56.766575016081333" lon="-3.844991968944669">
        <ele>128.94999999999999</ele>
        <time>2023-09-01T16:19:01Z</time>
      </trkpt>
      <trkpt lat="56.766588008031249" lon="-3.844940001145005">
        <ele>128.94999999999999</ele>
        <time>2023-09-01T16:19:02Z</time>
      </trkpt>
      <trkpt lat="56.766643999144435" lon="-3.844878980889916">
        <ele>128.94999999999999</ele>
        <time>2023-09-01T16:19:03Z</time>
      </trkpt>
      <trkpt lat="56.766622038558125" lon="-3.844840005040169">
        <ele>128.94999999999999</ele>
        <time>2023-09-01T16:19:04Z</time>
      </trkpt>
      <trkpt lat="56.766657996922731" lon="-3.844676977023482">
        <ele>128.47</ele>
        <time>2023-09-01T16:19:05Z</time>
      </trkpt>
      <trkpt lat="56.766690015792847" lon="-3.84456398896873">
        <ele>128.47</ele>
        <time>2023-09-01T16:19:06Z</time>
      </trkpt>
      <trkpt lat="56.766723040491343" lon="-3.844445971772075">
        <ele>127.98999999999999</ele>
        <time>2023-09-01T16:19:07Z</time>
      </trkpt>
      <trkpt lat="56.766755981370807" lon="-3.84432602673769">
        <ele>127.51000000000001</ele>
        <time>2023-09-01T16:19:08Z</time>
      </trkpt>
      <trkpt lat="56.767184967175126" lon="-3.842767998576164">
        <ele>127.51000000000001</ele>
        <time>2023-09-01T16:19:19Z</time>
      </trkpt>
      <trkpt lat="56.76772803068161" lon="-3.840610999614">
        <ele>133.75999999999999</ele>
        <time>2023-09-01T16:19:34Z</time>
      </trkpt>
      <trkpt lat="56.767796007916331" lon="-3.840344035997987">
        <ele>133.75999999999999</ele>
        <time>2023-09-01T16:19:36Z</time>
      </trkpt>
      <trkpt lat="56.767808999866247" lon="-3.840043963864446">
        <ele>133.75999999999999</ele>
        <time>2023-09-01T16:19:38Z</time>
      </trkpt>
      <trkpt lat="56.76781696267426" lon="-3.839936004951596">
        <ele>133.28</ele>
        <time>2023-09-01T16:19:39Z</time>
      </trkpt>
      <trkpt lat="56.767796007916331" lon="-3.839742969721556">
        <ele>133.28</ele>
        <time>2023-09-01T16:19:40Z</time>
      </trkpt>
      <trkpt lat="56.767773041501641" lon="-3.839582037180662">
        <ele>133.28</ele>
        <time>2023-09-01T16:19:41Z</time>
      </trkpt>
      <trkpt lat="56.767753008753061" lon="-3.839442981407046">
        <ele>133.28</ele>
        <time>2023-09-01T16:19:42Z</time>
      </trkpt>
      <trkpt lat="56.767698023468256" lon="-3.839270984753966">
        <ele>133.28</ele>
        <time>2023-09-01T16:19:43Z</time>
      </trkpt>
      <trkpt lat="56.767646977677941" lon="-3.83910502307117">
        <ele>133.28</ele>
        <time>2023-09-01T16:19:44Z</time>
      </trkpt>
      <trkpt lat="56.767594004049897" lon="-3.838937971740961">
        <ele>133.28</ele>
        <time>2023-09-01T16:19:45Z</time>
      </trkpt>
      <trkpt lat="56.766839968040586" lon="-3.836634960025549">
        <ele>137.13</ele>
        <time>2023-09-01T16:19:59Z</time>
      </trkpt>
      <trkpt lat="56.766216019168496" lon="-3.834867971017957">
        <ele>138.09</ele>
        <time>2023-09-01T16:20:11Z</time>
      </trkpt>
      <trkpt lat="56.766165979206562" lon="-3.83472497574985">
        <ele>138.09</ele>
        <time>2023-09-01T16:20:13Z</time>
      </trkpt>
      <trkpt lat="56.766147958114743" lon="-3.834674013778567">
        <ele>138.09</ele>
        <time>2023-09-01T16:20:14Z</time>
      </trkpt>
      <trkpt lat="56.76611702889204" lon="-3.834584997966886">
        <ele>138.09</ele>
        <time>2023-09-01T16:20:22Z</time>
      </trkpt>
      <trkpt lat="56.766105964779854" lon="-3.834554990753532">
        <ele>138.09</ele>
        <time>2023-09-01T16:20:23Z</time>
      </trkpt>
      <trkpt lat="56.766098001971841" lon="-3.834533030167222">
        <ele>137.61000000000001</ele>
        <time>2023-09-01T16:20:24Z</time>
      </trkpt>
      <trkpt lat="56.766091967001557" lon="-3.834514003247023">
        <ele>137.61000000000001</ele>
        <time>2023-09-01T16:20:25Z</time>
      </trkpt>
      <trkpt lat="56.766086015850306" lon="-3.834497993811965">
        <ele>137.61000000000001</ele>
        <time>2023-09-01T16:20:26Z</time>
      </trkpt>
      <trkpt lat="56.766086015850306" lon="-3.834497993811965">
        <ele>137.13</ele>
        <time>2023-09-01T16:20:27Z</time>
      </trkpt>
      <trkpt lat="56.766037987545133" lon="-3.834361033514142">
        <ele>136.63999999999999</ele>
        <time>2023-09-01T16:20:40Z</time>
      </trkpt>
      <trkpt lat="56.766125997528434" lon="-3.834103960543871">
        <ele>153.94999999999999</ele>
        <time>2023-09-01T16:24:01Z</time>
      </trkpt>
      <trkpt lat="56.765972021967173" lon="-3.834298001602292">
        <ele>141.93000000000001</ele>
        <time>2023-09-01T16:24:37Z</time>
      </trkpt>
      <trkpt lat="56.765965986996889" lon="-3.834333037957549">
        <ele>142.88999999999999</ele>
        <time>2023-09-01T16:25:32Z</time>
      </trkpt>
      <trkpt lat="56.765969004482031" lon="-3.834345024079084">
        <ele>142.41</ele>
        <time>2023-09-01T16:26:19Z</time>
      </trkpt>
      <trkpt lat="56.765969004482031" lon="-3.834343012422323">
        <ele>142.41</ele>
        <time>2023-09-01T16:26:56Z</time>
      </trkpt>
      <trkpt lat="56.76596799865365" lon="-3.834347035735846">
        <ele>142.41</ele>
        <time>2023-09-01T16:27:35Z</time>
      </trkpt>
      <trkpt lat="56.76596699282527" lon="-3.834348963573575">
        <ele>141.93000000000001</ele>
        <time>2023-09-01T16:27:56Z</time>
      </trkpt>
      <trkpt lat="56.765948971733451" lon="-3.834106978029013">
        <ele>141.93000000000001</ele>
        <time>2023-09-01T16:28:08Z</time>
      </trkpt>
      <trkpt lat="56.765917036682367" lon="-3.834016034379602">
        <ele>138.56999999999999</ele>
        <time>2023-09-01T16:28:15Z</time>
      </trkpt>
      <trkpt lat="56.765889041125774" lon="-3.833937998861074">
        <ele>137.61000000000001</ele>
        <time>2023-09-01T16:28:16Z</time>
      </trkpt>
      <trkpt lat="56.765851993113756" lon="-3.833826016634703">
        <ele>137.13</ele>
        <time>2023-09-01T16:28:17Z</time>
      </trkpt>
      <trkpt lat="56.765411021187901" lon="-3.832522965967655">
        <ele>134.72</ele>
        <time>2023-09-01T16:28:25Z</time>
      </trkpt>
      <trkpt lat="56.765026962384582" lon="-3.831538008525968">
        <ele>133.75999999999999</ele>
        <time>2023-09-01T16:28:30Z</time>
      </trkpt>
      <trkpt lat="56.764925960451365" lon="-3.83137296885252">
        <ele>133.75999999999999</ele>
        <time>2023-09-01T16:28:31Z</time>
      </trkpt>
      <trkpt lat="56.764801992103457" lon="-3.831232991069555">
        <ele>133.75999999999999</ele>
        <time>2023-09-01T16:28:32Z</time>
      </trkpt>
      <trkpt lat="56.764237973839045" lon="-3.830546010285616">
        <ele>134.72</ele>
        <time>2023-09-01T16:28:37Z</time>
      </trkpt>
      <trkpt lat="56.763266008347273" lon="-3.828854039311409">
        <ele>136.16</ele>
        <time>2023-09-01T16:28:47Z</time>
      </trkpt>
      <trkpt lat="56.762940036132932" lon="-3.828230006620288">
        <ele>136.63999999999999</ele>
        <time>2023-09-01T16:28:50Z</time>
      </trkpt>
      <trkpt lat="56.762827970087528" lon="-3.828015010803938">
        <ele>136.63999999999999</ele>
        <time>2023-09-01T16:28:51Z</time>
      </trkpt>
      <trkpt lat="56.762716993689537" lon="-3.827802026644349">
        <ele>136.16</ele>
        <time>2023-09-01T16:28:52Z</time>
      </trkpt>
      <trkpt lat="56.762390015646815" lon="-3.827171958982945">
        <ele>135.19999999999999</ele>
        <time>2023-09-01T16:28:55Z</time>
      </trkpt>
      <trkpt lat="56.762334024533629" lon="-3.82692402228713">
        <ele>134.72</ele>
        <time>2023-09-01T16:28:56Z</time>
      </trkpt>
      <trkpt lat="56.762275015935302" lon="-3.826664015650749">
        <ele>133.75999999999999</ele>
        <time>2023-09-01T16:28:57Z</time>
      </trkpt>
      <trkpt lat="56.76203403621912" lon="-3.825584007427096">
        <ele>131.84</ele>
        <time>2023-09-01T16:29:01Z</time>
      </trkpt>
      <trkpt lat="56.761969998478889" lon="-3.825302040204406">
        <ele>131.36000000000001</ele>
        <time>2023-09-01T16:29:02Z</time>
      </trkpt>
      <trkpt lat="56.761726001277566" lon="-3.824225971475244">
        <ele>129.43000000000001</ele>
        <time>2023-09-01T16:29:06Z</time>
      </trkpt>
      <trkpt lat="56.761652994900942" lon="-3.823966970667243">
        <ele>129.43000000000001</ele>
        <time>2023-09-01T16:29:07Z</time>
      </trkpt>
      <trkpt lat="56.761578982695937" lon="-3.823704030364752">
        <ele>128.94999999999999</ele>
        <time>2023-09-01T16:29:08Z</time>
      </trkpt>
      <trkpt lat="56.761108003556728" lon="-3.822177015244961">
        <ele>127.51000000000001</ele>
        <time>2023-09-01T16:29:14Z</time>
      </trkpt>
      <trkpt lat="56.761013036593795" lon="-3.821937963366509">
        <ele>127.03</ele>
        <time>2023-09-01T16:29:15Z</time>
      </trkpt>
      <trkpt lat="56.760900970548391" lon="-3.821727996692061">
        <ele>127.03</ele>
        <time>2023-09-01T16:29:16Z</time>
      </trkpt>
      <trkpt lat="56.760780019685626" lon="-3.821517024189234">
        <ele>126.06999999999999</ele>
        <time>2023-09-01T16:29:17Z</time>
      </trkpt>
      <trkpt lat="56.76066099666059" lon="-3.821308985352516">
        <ele>125.59</ele>
        <time>2023-09-01T16:29:18Z</time>
      </trkpt>
      <trkpt lat="56.760429991409183" lon="-3.820892991498113">
        <ele>125.59</ele>
        <time>2023-09-01T16:29:20Z</time>
      </trkpt>
      <trkpt lat="56.76031700335443" lon="-3.820695010945201">
        <ele>125.59</ele>
        <time>2023-09-01T16:29:21Z</time>
      </trkpt>
      <trkpt lat="56.760205021128058" lon="-3.820498958230019">
        <ele>125.59</ele>
        <time>2023-09-01T16:29:22Z</time>
      </trkpt>
      <trkpt lat="56.759966975077987" lon="-3.820126969367266">
        <ele>126.06999999999999</ele>
        <time>2023-09-01T16:29:24Z</time>
      </trkpt>
      <trkpt lat="56.759838983416557" lon="-3.819948015734553">
        <ele>126.06999999999999</ele>
        <time>2023-09-01T16:29:25Z</time>
      </trkpt>
      <trkpt lat="56.75971400924027" lon="-3.819773001596332">
        <ele>126.06999999999999</ele>
        <time>2023-09-01T16:29:26Z</time>
      </trkpt>
      <trkpt lat="56.758807003498077" lon="-3.818074995651841">
        <ele>127.98999999999999</ele>
        <time>2023-09-01T16:29:34Z</time>
      </trkpt>
      <trkpt lat="56.758712958544493" lon="-3.817824963480234">
        <ele>127.98999999999999</ele>
        <time>2023-09-01T16:29:35Z</time>
      </trkpt>
      <trkpt lat="56.757701011374593" lon="-3.815672993659973">
        <ele>127.51000000000001</ele>
        <time>2023-09-01T16:29:44Z</time>
      </trkpt>
      <trkpt lat="56.756613040342927" lon="-3.813468972221017">
        <ele>127.51000000000001</ele>
        <time>2023-09-01T16:29:53Z</time>
      </trkpt>
      <trkpt lat="56.755131036043167" lon="-3.810041025280953">
        <ele>128.47</ele>
        <time>2023-09-01T16:30:06Z</time>
      </trkpt>
      <trkpt lat="56.75387199036777" lon="-3.807395026087761">
        <ele>128.94999999999999</ele>
        <time>2023-09-01T16:30:16Z</time>
      </trkpt>
      <trkpt lat="56.752675976604223" lon="-3.805099977180362">
        <ele>137.61000000000001</ele>
        <time>2023-09-01T16:30:25Z</time>
      </trkpt>
      <trkpt lat="56.751865027472377" lon="-3.802748015150428">
        <ele>140.97</ele>
        <time>2023-09-01T16:30:33Z</time>
      </trkpt>
      <trkpt lat="56.75133696757257" lon="-3.800106961280108">
        <ele>140.97</ele>
        <time>2023-09-01T16:30:41Z</time>
      </trkpt>
      <trkpt lat="56.750653004273772" lon="-3.797503039240837">
        <ele>142.41</ele>
        <time>2023-09-01T16:30:49Z</time>
      </trkpt>
      <trkpt lat="56.749851023778319" lon="-3.795261969789863">
        <ele>140.49000000000001</ele>
        <time>2023-09-01T16:30:56Z</time>
      </trkpt>
      <trkpt lat="56.749002020806074" lon="-3.792753014713526">
        <ele>134.72</ele>
        <time>2023-09-01T16:31:04Z</time>
      </trkpt>
      <trkpt lat="56.748899007216096" lon="-3.792443973943591">
        <ele>133.75999999999999</ele>
        <time>2023-09-01T16:31:05Z</time>
      </trkpt>
      <trkpt lat="56.748315962031484" lon="-3.790686037391424">
        <ele>130.88</ele>
        <time>2023-09-01T16:31:11Z</time>
      </trkpt>
      <trkpt lat="56.747495960444212" lon="-3.788269031792879">
        <ele>130.40000000000001</ele>
        <time>2023-09-01T16:31:20Z</time>
      </trkpt>
      <trkpt lat="56.746705966070294" lon="-3.785964008420706">
        <ele>129.91999999999999</ele>
        <time>2023-09-01T16:31:28Z</time>
      </trkpt>
      <trkpt lat="56.745923012495041" lon="-3.783683041110635">
        <ele>129.91999999999999</ele>
        <time>2023-09-01T16:31:37Z</time>
      </trkpt>
      <trkpt lat="56.745333010330796" lon="-3.781857965514064">
        <ele>127.51000000000001</ele>
        <time>2023-09-01T16:31:47Z</time>
      </trkpt>
      <trkpt lat="56.745284982025623" lon="-3.781521013006568">
        <ele>127.51000000000001</ele>
        <time>2023-09-01T16:31:49Z</time>
      </trkpt>
      <trkpt lat="56.745281964540482" lon="-3.781324960291386">
        <ele>127.51000000000001</ele>
        <time>2023-09-01T16:31:50Z</time>
      </trkpt>
      <trkpt lat="56.745280036702752" lon="-3.781125973910093">
        <ele>127.98999999999999</ele>
        <time>2023-09-01T16:31:51Z</time>
      </trkpt>
      <trkpt lat="56.745271990075707" lon="-3.78055801615119">
        <ele>127.03</ele>
        <time>2023-09-01T16:31:54Z</time>
      </trkpt>
      <trkpt lat="56.745269978418946" lon="-3.780378978699446">
        <ele>127.03</ele>
        <time>2023-09-01T16:31:55Z</time>
      </trkpt>
      <trkpt lat="56.74519001506269" lon="-3.779522012919188">
        <ele>125.59</ele>
        <time>2023-09-01T16:32:00Z</time>
      </trkpt>
      <trkpt lat="56.745157996192575" lon="-3.779317997395992">
        <ele>126.06999999999999</ele>
        <time>2023-09-01T16:32:01Z</time>
      </trkpt>
      <trkpt lat="56.745108962059021" lon="-3.779208026826382">
        <ele>126.55</ele>
        <time>2023-09-01T16:32:02Z</time>
      </trkpt>
      <trkpt lat="56.745047019794583" lon="-3.779068971052766">
        <ele>127.03</ele>
        <time>2023-09-01T16:32:03Z</time>
      </trkpt>
      <trkpt lat="56.744982982054353" lon="-3.778927987441421">
        <ele>127.51000000000001</ele>
        <time>2023-09-01T16:32:04Z</time>
      </trkpt>
      <trkpt lat="56.744905030354857" lon="-3.778810976073146">
        <ele>127.98999999999999</ele>
        <time>2023-09-01T16:32:05Z</time>
      </trkpt>
      <trkpt lat="56.744815008714795" lon="-3.778675021603704">
        <ele>128.94999999999999</ele>
        <time>2023-09-01T16:32:06Z</time>
      </trkpt>
      <trkpt lat="56.744286026805639" lon="-3.778113014996052">
        <ele>133.75999999999999</ele>
        <time>2023-09-01T16:32:11Z</time>
      </trkpt>
      <trkpt lat="56.744178989902139" lon="-3.777999021112919">
        <ele>134.72</ele>
        <time>2023-09-01T16:32:12Z</time>
      </trkpt>
      <trkpt lat="56.744001964107156" lon="-3.777595013380051">
        <ele>136.16</ele>
        <time>2023-09-01T16:32:14Z</time>
      </trkpt>
      <trkpt lat="56.74394597299397" lon="-3.777352022007108">
        <ele>136.63999999999999</ele>
        <time>2023-09-01T16:32:15Z</time>
      </trkpt>
      <trkpt lat="56.743834996595979" lon="-3.776860004290938">
        <ele>138.56999999999999</ele>
        <time>2023-09-01T16:32:17Z</time>
      </trkpt>
      <trkpt lat="56.743581024929881" lon="-3.775587966665626">
        <ele>141.44999999999999</ele>
        <time>2023-09-01T16:32:22Z</time>
      </trkpt>
      <trkpt lat="56.743555041030049" lon="-3.775330977514386">
        <ele>141.44999999999999</ele>
        <time>2023-09-01T16:32:23Z</time>
      </trkpt>
      <trkpt lat="56.743537019938231" lon="-3.775068037211895">
        <ele>141.93000000000001</ele>
        <time>2023-09-01T16:32:24Z</time>
      </trkpt>
      <trkpt lat="56.743483962491155" lon="-3.774190032854676">
        <ele>142.88999999999999</ele>
        <time>2023-09-01T16:32:27Z</time>
      </trkpt>
      <trkpt lat="56.743511036038399" lon="-3.77396103926003">
        <ele>143.84999999999999</ele>
        <time>2023-09-01T16:32:28Z</time>
      </trkpt>
      <trkpt lat="56.743589993566275" lon="-3.772937022149563">
        <ele>146.25999999999999</ele>
        <time>2023-09-01T16:32:32Z</time>
      </trkpt>
      <trkpt lat="56.743553029373288" lon="-3.772711968049407">
        <ele>146.74000000000001</ele>
        <time>2023-09-01T16:32:33Z</time>
      </trkpt>
      <trkpt lat="56.743503995239735" lon="-3.772507030516863">
        <ele>147.22</ele>
        <time>2023-09-01T16:32:34Z</time>
      </trkpt>
      <trkpt lat="56.743417996913195" lon="-3.77233000472188">
        <ele>147.69999999999999</ele>
        <time>2023-09-01T16:32:35Z</time>
      </trkpt>
      <trkpt lat="56.743311965838075" lon="-3.772163959220052">
        <ele>148.18000000000001</ele>
        <time>2023-09-01T16:32:36Z</time>
      </trkpt>
      <trkpt lat="56.743199983611703" lon="-3.771989028900862">
        <ele>148.66</ele>
        <time>2023-09-01T16:32:37Z</time>
      </trkpt>
      <trkpt lat="56.742070019245148" lon="-3.770843977108598">
        <ele>151.53999999999999</ele>
        <time>2023-09-01T16:32:45Z</time>
      </trkpt>
      <trkpt lat="56.741742035374045" lon="-3.770647002384067">
        <ele>151.06</ele>
        <time>2023-09-01T16:32:47Z</time>
      </trkpt>
      <trkpt lat="56.741565009579062" lon="-3.770583970472217">
        <ele>151.06</ele>
        <time>2023-09-01T16:32:48Z</time>
      </trkpt>
      <trkpt lat="56.740811979398131" lon="-3.770362017676234">
        <ele>150.09999999999999</ele>
        <time>2023-09-01T16:32:52Z</time>
      </trkpt>
      <trkpt lat="56.740617016330361" lon="-3.770319018512964">
        <ele>150.09999999999999</ele>
        <time>2023-09-01T16:32:53Z</time>
      </trkpt>
      <trkpt lat="56.738564958795905" lon="-3.769869999960065">
        <ele>152.03</ele>
        <time>2023-09-01T16:33:04Z</time>
      </trkpt>
      <trkpt lat="56.737937992438674" lon="-3.769853990525007">
        <ele>152.99000000000001</ele>
        <time>2023-09-01T16:33:08Z</time>
      </trkpt>
      <trkpt lat="56.7377570271492" lon="-3.769896989688277">
        <ele>152.99000000000001</ele>
        <time>2023-09-01T16:33:09Z</time>
      </trkpt>
      <trkpt lat="56.736368983983994" lon="-3.77022497355938">
        <ele>150.09999999999999</ele>
        <time>2023-09-01T16:33:17Z</time>
      </trkpt>
      <trkpt lat="56.736206039786339" lon="-3.770280964672566">
        <ele>149.62</ele>
        <time>2023-09-01T16:33:18Z</time>
      </trkpt>
      <trkpt lat="56.736032031476498" lon="-3.770356988534331">
        <ele>149.13999999999999</ele>
        <time>2023-09-01T16:33:19Z</time>
      </trkpt>
      <trkpt lat="56.735865985974669" lon="-3.770466959103942">
        <ele>148.18000000000001</ele>
        <time>2023-09-01T16:33:20Z</time>
      </trkpt>
      <trkpt lat="56.735547976568341" lon="-3.77074096351862">
        <ele>146.74000000000001</ele>
        <time>2023-09-01T16:33:22Z</time>
      </trkpt>
      <trkpt lat="56.735245976597071" lon="-3.77095403149724">
        <ele>144.81999999999999</ele>
        <time>2023-09-01T16:33:24Z</time>
      </trkpt>
      <trkpt lat="56.734698973596096" lon="-3.771314034238458">
        <ele>140.49000000000001</ele>
        <time>2023-09-01T16:33:28Z</time>
      </trkpt>
      <trkpt lat="56.734551033005118" lon="-3.771446971222758">
        <ele>139.05000000000001</ele>
        <time>2023-09-01T16:33:29Z</time>
      </trkpt>
      <trkpt lat="56.733362982049584" lon="-3.772538965567946">
        <ele>127.98999999999999</ele>
        <time>2023-09-01T16:33:36Z</time>
      </trkpt>
      <trkpt lat="56.732306024059653" lon="-3.773271040990949">
        <ele>118.38</ele>
        <time>2023-09-01T16:33:42Z</time>
      </trkpt>
      <trkpt lat="56.731274966150522" lon="-3.77391804009676">
        <ele>111.65000000000001</ele>
        <time>2023-09-01T16:33:48Z</time>
      </trkpt>
      <trkpt lat="56.731113027781248" lon="-3.774019964039326">
        <ele>111.17</ele>
        <time>2023-09-01T16:33:49Z</time>
      </trkpt>
      <trkpt lat="56.730780014768243" lon="-3.774164970964193">
        <ele>110.20999999999999</ele>
        <time>2023-09-01T16:33:51Z</time>
      </trkpt>
      <trkpt lat="56.730119017884135" lon="-3.774258010089397">
        <ele>109.73</ele>
        <time>2023-09-01T16:33:55Z</time>
      </trkpt>
      <trkpt lat="56.729967975988984" lon="-3.774278964847326">
        <ele>109.73</ele>
        <time>2023-09-01T16:33:56Z</time>
      </trkpt>
      <trkpt lat="56.728704990819097" lon="-3.774446016177535">
        <ele>109.25</ele>
        <time>2023-09-01T16:34:04Z</time>
      </trkpt>
      <trkpt lat="56.728567024692893" lon="-3.774440987035632">
        <ele>109.25</ele>
        <time>2023-09-01T16:34:05Z</time>
      </trkpt>
      <trkpt lat="56.7284319922328" lon="-3.77443696372211">
        <ele>109.25</ele>
        <time>2023-09-01T16:34:06Z</time>
      </trkpt>
      <trkpt lat="56.72802203334868" lon="-3.774419026449323">
        <ele>110.20999999999999</ele>
        <time>2023-09-01T16:34:11Z</time>
      </trkpt>
      <trkpt lat="56.72798196785152" lon="-3.77441399730742">
        <ele>110.69</ele>
        <time>2023-09-01T16:34:12Z</time>
      </trkpt>
      <trkpt lat="56.727904016152024" lon="-3.774507036432624">
        <ele>111.17</ele>
        <time>2023-09-01T16:34:13Z</time>
      </trkpt>
      <trkpt lat="56.727900998666883" lon="-3.77462899312377">
        <ele>112.13</ele>
        <time>2023-09-01T16:34:14Z</time>
      </trkpt>
      <trkpt lat="56.727897981181741" lon="-3.774795038625598">
        <ele>114.05</ele>
        <time>2023-09-01T16:34:15Z</time>
      </trkpt>
      <trkpt lat="56.727868979796767" lon="-3.776126001030207">
        <ele>119.34</ele>
        <time>2023-09-01T16:34:21Z</time>
      </trkpt>
      <trkpt lat="56.727845007553697" lon="-3.7772729806602">
        <ele>119.81999999999999</ele>
        <time>2023-09-01T16:34:26Z</time>
      </trkpt>
      <trkpt lat="56.727841990068555" lon="-3.777429973706603">
        <ele>119.34</ele>
        <time>2023-09-01T16:34:27Z</time>
      </trkpt>
      <trkpt lat="56.727775018662214" lon="-3.777710013091564">
        <ele>119.34</ele>
        <time>2023-09-01T16:34:28Z</time>
      </trkpt>
      <trkpt lat="56.727734031155705" lon="-3.777881003916264">
        <ele>118.86</ele>
        <time>2023-09-01T16:34:29Z</time>
      </trkpt>
      <trkpt lat="56.727643003687263" lon="-3.778035985305905">
        <ele>118.38</ele>
        <time>2023-09-01T16:34:30Z</time>
      </trkpt>
      <trkpt lat="56.727520041167736" lon="-3.778245029971004">
        <ele>117.90000000000001</ele>
        <time>2023-09-01T16:34:31Z</time>
      </trkpt>
      <trkpt lat="56.727463966235518" lon="-3.778320970013738">
        <ele>117.90000000000001</ele>
        <time>2023-09-01T16:34:32Z</time>
      </trkpt>
      <trkpt lat="56.727065993472934" lon="-3.77894701436162">
        <ele>116.94</ele>
        <time>2023-09-01T16:34:36Z</time>
      </trkpt>
      <trkpt lat="56.726982006803155" lon="-3.77914197742939">
        <ele>116.45999999999999</ele>
        <time>2023-09-01T16:34:37Z</time>
      </trkpt>
      <trkpt lat="56.726929033175111" lon="-3.779382035136223">
        <ele>116.45999999999999</ele>
        <time>2023-09-01T16:34:38Z</time>
      </trkpt>
      <trkpt lat="56.726886034011841" lon="-3.779629971832037">
        <ele>116.45999999999999</ele>
        <time>2023-09-01T16:34:39Z</time>
      </trkpt>
      <trkpt lat="56.726855020970106" lon="-3.779812026768923">
        <ele>115.98</ele>
        <time>2023-09-01T16:34:40Z</time>
      </trkpt>
      <trkpt lat="56.726834988221526" lon="-3.780132969841361">
        <ele>115.98</ele>
        <time>2023-09-01T16:34:41Z</time>
      </trkpt>
      <trkpt lat="56.726789977401495" lon="-3.780904021114111">
        <ele>115.01000000000001</ele>
        <time>2023-09-01T16:34:44Z</time>
      </trkpt>
      <trkpt lat="56.726774973794818" lon="-3.781147012487054">
        <ele>114.05</ele>
        <time>2023-09-01T16:34:45Z</time>
      </trkpt>
      <trkpt lat="56.726746978238225" lon="-3.78161396831274">
        <ele>112.13</ele>
        <time>2023-09-01T16:34:48Z</time>
      </trkpt>
      <trkpt lat="56.726638013496995" lon="-3.781870035454631">
        <ele>111.17</ele>
        <time>2023-09-01T16:34:49Z</time>
      </trkpt>
      <trkpt lat="56.726581016555429" lon="-3.78200096078217">
        <ele>110.69</ele>
        <time>2023-09-01T16:34:50Z</time>
      </trkpt>
      <trkpt lat="56.726522007957101" lon="-3.782140016555786">
        <ele>110.20999999999999</ele>
        <time>2023-09-01T16:34:51Z</time>
      </trkpt>
      <trkpt lat="56.726489989086986" lon="-3.782215034589171">
        <ele>109.73</ele>
        <time>2023-09-01T16:34:52Z</time>
      </trkpt>
      <trkpt lat="56.726420000195503" lon="-3.78245098516345">
        <ele>109.73</ele>
        <time>2023-09-01T16:34:53Z</time>
      </trkpt>
      <trkpt lat="56.72636803239584" lon="-3.782627005130053">
        <ele>109.73</ele>
        <time>2023-09-01T16:34:54Z</time>
      </trkpt>
      <trkpt lat="56.726317992433906" lon="-3.78279497846961">
        <ele>110.20999999999999</ele>
        <time>2023-09-01T16:34:55Z</time>
      </trkpt>
      <trkpt lat="56.726301982998848" lon="-3.783001005649567">
        <ele>110.20999999999999</ele>
        <time>2023-09-01T16:34:56Z</time>
      </trkpt>
      <trkpt lat="56.726283961907029" lon="-3.783226981759071">
        <ele>110.20999999999999</ele>
        <time>2023-09-01T16:34:57Z</time>
      </trkpt>
      <trkpt lat="56.726266024634242" lon="-3.783456981182098">
        <ele>110.69</ele>
        <time>2023-09-01T16:34:58Z</time>
      </trkpt>
      <trkpt lat="56.726254038512707" lon="-3.78395302221179">
        <ele>111.17</ele>
        <time>2023-09-01T16:35:00Z</time>
      </trkpt>
      <trkpt lat="56.726254038512707" lon="-3.784444034099579">
        <ele>112.61</ele>
        <time>2023-09-01T16:35:02Z</time>
      </trkpt>
      <trkpt lat="56.726254038512707" lon="-3.784692976623774">
        <ele>113.09</ele>
        <time>2023-09-01T16:35:03Z</time>
      </trkpt>
      <trkpt lat="56.726254038512707" lon="-3.785153981298208">
        <ele>115.01000000000001</ele>
        <time>2023-09-01T16:35:05Z</time>
      </trkpt>
      <trkpt lat="56.72628303989768" lon="-3.785348022356629">
        <ele>115.5</ele>
        <time>2023-09-01T16:35:06Z</time>
      </trkpt>
      <trkpt lat="56.726351017132401" lon="-3.785740965977311">
        <ele>117.90000000000001</ele>
        <time>2023-09-01T16:35:08Z</time>
      </trkpt>
      <trkpt lat="56.72637197189033" lon="-3.785957973450422">
        <ele>118.38</ele>
        <time>2023-09-01T16:35:09Z</time>
      </trkpt>
      <trkpt lat="56.726386975497007" lon="-3.786164000630379">
        <ele>118.86</ele>
        <time>2023-09-01T16:35:10Z</time>
      </trkpt>
      <trkpt lat="56.726401979103684" lon="-3.786368016153574">
        <ele>119.81999999999999</ele>
        <time>2023-09-01T16:35:11Z</time>
      </trkpt>
      <trkpt lat="56.726415976881981" lon="-3.786563985049725">
        <ele>120.78</ele>
        <time>2023-09-01T16:35:12Z</time>
      </trkpt>
      <trkpt lat="56.726425029337406" lon="-3.786700023338199">
        <ele>121.26000000000001</ele>
        <time>2023-09-01T16:35:13Z</time>
      </trkpt>
      <trkpt lat="56.726492000743747" lon="-3.78687696531415">
        <ele>122.22</ele>
        <time>2023-09-01T16:35:14Z</time>
      </trkpt>
      <trkpt lat="56.726556038483977" lon="-3.78704896196723">
        <ele>122.70999999999999</ele>
        <time>2023-09-01T16:35:15Z</time>
      </trkpt>
      <trkpt lat="56.726619992405176" lon="-3.787222970277071">
        <ele>123.19</ele>
        <time>2023-09-01T16:35:16Z</time>
      </trkpt>
      <trkpt lat="56.726688975468278" lon="-3.787407036870718">
        <ele>123.67</ele>
        <time>2023-09-01T16:35:17Z</time>
      </trkpt>
      <trkpt lat="56.727025005966425" lon="-3.788370033726096">
        <ele>125.59</ele>
        <time>2023-09-01T16:35:22Z</time>
      </trkpt>
      <trkpt lat="56.72707898542285" lon="-3.788566002622247">
        <ele>126.55</ele>
        <time>2023-09-01T16:35:23Z</time>
      </trkpt>
      <trkpt lat="56.727108992636204" lon="-3.7887860275805">
        <ele>127.03</ele>
        <time>2023-09-01T16:35:24Z</time>
      </trkpt>
      <trkpt lat="56.727261962369084" lon="-3.790551004931331">
        <ele>127.51000000000001</ele>
        <time>2023-09-01T16:35:31Z</time>
      </trkpt>
      <trkpt lat="56.727261962369084" lon="-3.790815034881234">
        <ele>127.03</ele>
        <time>2023-09-01T16:35:32Z</time>
      </trkpt>
      <trkpt lat="56.727261962369084" lon="-3.792197965085506">
        <ele>126.06999999999999</ele>
        <time>2023-09-01T16:35:38Z</time>
      </trkpt>
      <trkpt lat="56.727321976795793" lon="-3.792412038892508">
        <ele>126.06999999999999</ele>
        <time>2023-09-01T16:35:39Z</time>
      </trkpt>
      <trkpt lat="56.727384002879262" lon="-3.792619993910193">
        <ele>126.06999999999999</ele>
        <time>2023-09-01T16:35:40Z</time>
      </trkpt>
      <trkpt lat="56.727447034791112" lon="-3.792829960584641">
        <ele>126.06999999999999</ele>
        <time>2023-09-01T16:35:41Z</time>
      </trkpt>
      <trkpt lat="56.72750998288393" lon="-3.7930410169065">
        <ele>126.06999999999999</ele>
        <time>2023-09-01T16:35:42Z</time>
      </trkpt>
      <trkpt lat="56.727576032280922" lon="-3.793261041864753">
        <ele>126.06999999999999</ele>
        <time>2023-09-01T16:35:43Z</time>
      </trkpt>
      <trkpt lat="56.727639986202121" lon="-3.793473020195961">
        <ele>126.06999999999999</ele>
        <time>2023-09-01T16:35:44Z</time>
      </trkpt>
      <trkpt lat="56.727708969265223" lon="-3.793604029342532">
        <ele>126.06999999999999</ele>
        <time>2023-09-01T16:35:45Z</time>
      </trkpt>
      <trkpt lat="56.727792033925653" lon="-3.793745012953877">
        <ele>126.55</ele>
        <time>2023-09-01T16:35:46Z</time>
      </trkpt>
      <trkpt lat="56.727883983403444" lon="-3.793899994343519">
        <ele>126.55</ele>
        <time>2023-09-01T16:35:47Z</time>
      </trkpt>
      <trkpt lat="56.727977022528648" lon="-3.794056987389922">
        <ele>126.55</ele>
        <time>2023-09-01T16:35:48Z</time>
      </trkpt>
      <trkpt lat="56.728029996156693" lon="-3.794292015954852">
        <ele>126.55</ele>
        <time>2023-09-01T16:35:49Z</time>
      </trkpt>
      <trkpt lat="56.72806796617806" lon="-3.794497959315777">
        <ele>126.55</ele>
        <time>2023-09-01T16:35:50Z</time>
      </trkpt>
      <trkpt lat="56.728103002533317" lon="-3.79469501785934">
        <ele>127.03</ele>
        <time>2023-09-01T16:35:51Z</time>
      </trkpt>
      <trkpt lat="56.728143990039825" lon="-3.794870031997562">
        <ele>127.51000000000001</ele>
        <time>2023-09-01T16:35:52Z</time>
      </trkpt>
      <trkpt lat="56.72819796949625" lon="-3.795054014772177">
        <ele>127.98999999999999</ele>
        <time>2023-09-01T16:35:53Z</time>
      </trkpt>
      <trkpt lat="56.728254966437817" lon="-3.795246966183186">
        <ele>127.98999999999999</ele>
        <time>2023-09-01T16:35:54Z</time>
      </trkpt>
      <trkpt lat="56.728316992521286" lon="-3.795457016676664">
        <ele>128.94999999999999</ele>
        <time>2023-09-01T16:35:55Z</time>
      </trkpt>
      <trkpt lat="56.728360997512937" lon="-3.79568399861455">
        <ele>128.94999999999999</ele>
        <time>2023-09-01T16:35:56Z</time>
      </trkpt>
      <trkpt lat="56.728395028039813" lon="-3.795902011916041">
        <ele>129.91999999999999</ele>
        <time>2023-09-01T16:35:57Z</time>
      </trkpt>
      <trkpt lat="56.728428974747658" lon="-3.796123964712024">
        <ele>130.88</ele>
        <time>2023-09-01T16:35:58Z</time>
      </trkpt>
      <trkpt lat="56.728463005274534" lon="-3.796342983841896">
        <ele>131.84</ele>
        <time>2023-09-01T16:35:59Z</time>
      </trkpt>
      <trkpt lat="56.728497035801411" lon="-3.796559991315007">
        <ele>132.80000000000001</ele>
        <time>2023-09-01T16:36:00Z</time>
      </trkpt>
      <trkpt lat="56.728527965024114" lon="-3.796763001009822">
        <ele>133.75999999999999</ele>
        <time>2023-09-01T16:36:01Z</time>
      </trkpt>
      <trkpt lat="56.728584039956331" lon="-3.79697103984654">
        <ele>134.24000000000001</ele>
        <time>2023-09-01T16:36:02Z</time>
      </trkpt>
      <trkpt lat="56.728892996907234" lon="-3.798280963674188">
        <ele>138.56999999999999</ele>
        <time>2023-09-01T16:36:08Z</time>
      </trkpt>
      <trkpt lat="56.729019982740283" lon="-3.799537997692823">
        <ele>142.88999999999999</ele>
        <time>2023-09-01T16:36:13Z</time>
      </trkpt>
      <trkpt lat="56.729010008275509" lon="-3.799756010994315">
        <ele>143.84999999999999</ele>
        <time>2023-09-01T16:36:14Z</time>
      </trkpt>
      <trkpt lat="56.728993998840451" lon="-3.799994979053736">
        <ele>144.34</ele>
        <time>2023-09-01T16:36:15Z</time>
      </trkpt>
      <trkpt lat="56.728946976363659" lon="-3.800682965666056">
        <ele>146.74000000000001</ele>
        <time>2023-09-01T16:36:18Z</time>
      </trkpt>
      <trkpt lat="56.728916969150305" lon="-3.801127038896084">
        <ele>148.66</ele>
        <time>2023-09-01T16:36:20Z</time>
      </trkpt>
      <trkpt lat="56.728924009948969" lon="-3.801357038319111">
        <ele>149.62</ele>
        <time>2023-09-01T16:36:21Z</time>
      </trkpt>
      <trkpt lat="56.728955022990704" lon="-3.801977969706059">
        <ele>152.03</ele>
        <time>2023-09-01T16:36:24Z</time>
      </trkpt>
      <trkpt lat="56.728974971920252" lon="-3.802373008802533">
        <ele>153.94999999999999</ele>
        <time>2023-09-01T16:36:26Z</time>
      </trkpt>
      <trkpt lat="56.728978995233774" lon="-3.80245003849268">
        <ele>154.91</ele>
        <time>2023-09-01T16:36:27Z</time>
      </trkpt>
      <trkpt lat="56.728917974978685" lon="-3.802661010995507">
        <ele>155.38999999999999</ele>
        <time>2023-09-01T16:36:28Z</time>
      </trkpt>
      <trkpt lat="56.728892996907234" lon="-3.802750026807189">
        <ele>156.34999999999999</ele>
        <time>2023-09-01T16:36:29Z</time>
      </trkpt>
      <trkpt lat="56.728817978873849" lon="-3.802824961021543">
        <ele>156.83000000000001</ele>
        <time>2023-09-01T16:36:30Z</time>
      </trkpt>
      <trkpt lat="56.728727035224438" lon="-3.802915988489986">
        <ele>157.78999999999999</ele>
        <time>2023-09-01T16:36:31Z</time>
      </trkpt>
      <trkpt lat="56.728641958907247" lon="-3.803000980988145">
        <ele>158.27000000000001</ele>
        <time>2023-09-01T16:36:32Z</time>
      </trkpt>
      <trkpt lat="56.72856098972261" lon="-3.803183035925031">
        <ele>158.75</ele>
        <time>2023-09-01T16:36:33Z</time>
      </trkpt>
      <trkpt lat="56.728530982509255" lon="-3.803312033414841">
        <ele>159.24000000000001</ele>
        <time>2023-09-01T16:36:34Z</time>
      </trkpt>
      <trkpt lat="56.728507010266185" lon="-3.803414963185787">
        <ele>159.24000000000001</ele>
        <time>2023-09-01T16:36:35Z</time>
      </trkpt>
      <trkpt lat="56.728535005822778" lon="-3.803602969273925">
        <ele>158.75</ele>
        <time>2023-09-01T16:36:36Z</time>
      </trkpt>
      <trkpt lat="56.728557972237468" lon="-3.803759962320328">
        <ele>158.75</ele>
        <time>2023-09-01T16:36:37Z</time>
      </trkpt>
      <trkpt lat="56.728597031906247" lon="-3.803926007822156">
        <ele>158.27000000000001</ele>
        <time>2023-09-01T16:36:38Z</time>
      </trkpt>
      <trkpt lat="56.728655034676194" lon="-3.804112002253532">
        <ele>158.27000000000001</ele>
        <time>2023-09-01T16:36:39Z</time>
      </trkpt>
      <trkpt lat="56.728707002475858" lon="-3.80427997559309">
        <ele>158.27000000000001</ele>
        <time>2023-09-01T16:36:40Z</time>
      </trkpt>
      <trkpt lat="56.728758970275521" lon="-3.804445015266538">
        <ele>158.75</ele>
        <time>2023-09-01T16:36:41Z</time>
      </trkpt>
      <trkpt lat="56.728804986923933" lon="-3.804616006091237">
        <ele>159.24000000000001</ele>
        <time>2023-09-01T16:36:42Z</time>
      </trkpt>
      <trkpt lat="56.72884002327919" lon="-3.804766964167357">
        <ele>159.24000000000001</ele>
        <time>2023-09-01T16:36:43Z</time>
      </trkpt>
      <trkpt lat="56.728874975815415" lon="-3.804918006062508">
        <ele>159.72</ele>
        <time>2023-09-01T16:36:44Z</time>
      </trkpt>
      <trkpt lat="56.728914035484195" lon="-3.805088996887207">
        <ele>160.68000000000001</ele>
        <time>2023-09-01T16:36:45Z</time>
      </trkpt>
      <trkpt lat="56.728999027982354" lon="-3.806063979864121">
        <ele>164.52000000000001</ele>
        <time>2023-09-01T16:36:50Z</time>
      </trkpt>
      <trkpt lat="56.729014031589031" lon="-3.806278975680471">
        <ele>165.47999999999999</ele>
        <time>2023-09-01T16:36:51Z</time>
      </trkpt>
      <trkpt lat="56.729028029367328" lon="-3.806522972881794">
        <ele>166.44999999999999</ele>
        <time>2023-09-01T16:36:52Z</time>
      </trkpt>
      <trkpt lat="56.729038003832102" lon="-3.806782979518175">
        <ele>167.41</ele>
        <time>2023-09-01T16:36:53Z</time>
      </trkpt>
      <trkpt lat="56.729047978296876" lon="-3.807024965062738">
        <ele>168.84999999999999</ele>
        <time>2023-09-01T16:36:54Z</time>
      </trkpt>
      <trkpt lat="56.729056024923921" lon="-3.807240966707468">
        <ele>169.81</ele>
        <time>2023-09-01T16:36:55Z</time>
      </trkpt>
      <trkpt lat="56.729062981903553" lon="-3.807472977787256">
        <ele>171.25</ele>
        <time>2023-09-01T16:36:56Z</time>
      </trkpt>
      <trkpt lat="56.729044960811734" lon="-3.80767397582531">
        <ele>172.21000000000001</ele>
        <time>2023-09-01T16:36:57Z</time>
      </trkpt>
      <trkpt lat="56.729024006053805" lon="-3.807902969419956">
        <ele>173.16999999999999</ele>
        <time>2023-09-01T16:36:58Z</time>
      </trkpt>
      <trkpt lat="56.729002967476845" lon="-3.80814503878355">
        <ele>174.13999999999999</ele>
        <time>2023-09-01T16:36:59Z</time>
      </trkpt>
      <trkpt lat="56.728984024375677" lon="-3.80836196243763">
        <ele>174.62</ele>
        <time>2023-09-01T16:37:00Z</time>
      </trkpt>
      <trkpt lat="56.728985030204058" lon="-3.808547034859657">
        <ele>175.58000000000001</ele>
        <time>2023-09-01T16:37:01Z</time>
      </trkpt>
      <trkpt lat="56.728993998840451" lon="-3.808764964342117">
        <ele>176.53999999999999</ele>
        <time>2023-09-01T16:37:02Z</time>
      </trkpt>
      <trkpt lat="56.729003973305225" lon="-3.808979960158467">
        <ele>177.5</ele>
        <time>2023-09-01T16:37:03Z</time>
      </trkpt>
      <trkpt lat="56.72901201993227" lon="-3.809166960418224">
        <ele>178.46000000000001</ele>
        <time>2023-09-01T16:37:04Z</time>
      </trkpt>
      <trkpt lat="56.729019982740283" lon="-3.809347003698349">
        <ele>179.41999999999999</ele>
        <time>2023-09-01T16:37:05Z</time>
      </trkpt>
      <trkpt lat="56.729004979133606" lon="-3.809528974816203">
        <ele>180.38</ele>
        <time>2023-09-01T16:37:06Z</time>
      </trkpt>
      <trkpt lat="56.728981006890535" lon="-3.809732990339398">
        <ele>181.34999999999999</ele>
        <time>2023-09-01T16:37:07Z</time>
      </trkpt>
      <trkpt lat="56.728955022990704" lon="-3.809963995590806">
        <ele>182.31</ele>
        <time>2023-09-01T16:37:08Z</time>
      </trkpt>
      <trkpt lat="56.728928033262491" lon="-3.810198018327355">
        <ele>183.27000000000001</ele>
        <time>2023-09-01T16:37:09Z</time>
      </trkpt>
      <trkpt lat="56.728901965543628" lon="-3.810420976951718">
        <ele>184.22999999999999</ele>
        <time>2023-09-01T16:37:10Z</time>
      </trkpt>
      <trkpt lat="56.728878999128938" lon="-3.810628009960055">
        <ele>184.71000000000001</ele>
        <time>2023-09-01T16:37:11Z</time>
      </trkpt>
      <trkpt lat="56.728898026049137" lon="-3.810837976634502">
        <ele>185.19</ele>
        <time>2023-09-01T16:37:12Z</time>
      </trkpt>
      <trkpt lat="56.728937001898885" lon="-3.810977032408118">
        <ele>185.66999999999999</ele>
        <time>2023-09-01T16:37:13Z</time>
      </trkpt>
      <trkpt lat="56.72899198718369" lon="-3.811101000756025">
        <ele>186.15000000000001</ele>
        <time>2023-09-01T16:37:14Z</time>
      </trkpt>
      <trkpt lat="56.729052001610398" lon="-3.811237961053848">
        <ele>186.63</ele>
        <time>2023-09-01T16:37:15Z</time>
      </trkpt>
      <trkpt lat="56.729117967188358" lon="-3.811386991292238">
        <ele>187.11000000000001</ele>
        <time>2023-09-01T16:37:16Z</time>
      </trkpt>
      <trkpt lat="56.729157026857138" lon="-3.811593018472195">
        <ele>187.59</ele>
        <time>2023-09-01T16:37:17Z</time>
      </trkpt>
      <trkpt lat="56.729164989665151" lon="-3.81177700124681">
        <ele>188.08000000000001</ele>
        <time>2023-09-01T16:37:18Z</time>
      </trkpt>
      <trkpt lat="56.729172030463815" lon="-3.811913039535284">
        <ele>188.56</ele>
        <time>2023-09-01T16:37:19Z</time>
      </trkpt>
      <trkpt lat="56.729144034907222" lon="-3.812182014808059">
        <ele>189.52000000000001</ele>
        <time>2023-09-01T16:37:20Z</time>
      </trkpt>
      <trkpt lat="56.729122996330261" lon="-3.812388963997364">
        <ele>190.47999999999999</ele>
        <time>2023-09-01T16:37:21Z</time>
      </trkpt>
      <trkpt lat="56.729100029915571" lon="-3.812603959813714">
        <ele>190.96000000000001</ele>
        <time>2023-09-01T16:37:22Z</time>
      </trkpt>
      <trkpt lat="56.729033980518579" lon="-3.813250958919525">
        <ele>193.36000000000001</ele>
        <time>2023-09-01T16:37:25Z</time>
      </trkpt>
      <trkpt lat="56.729014031589031" lon="-3.813437959179282">
        <ele>194.31999999999999</ele>
        <time>2023-09-01T16:37:26Z</time>
      </trkpt>
      <trkpt lat="56.728892996907234" lon="-3.813974987715483">
        <ele>195.28</ele>
        <time>2023-09-01T16:37:29Z</time>
      </trkpt>
      <trkpt lat="56.728828959167004" lon="-3.814123012125492">
        <ele>195.77000000000001</ele>
        <time>2023-09-01T16:37:30Z</time>
      </trkpt>
      <trkpt lat="56.728633996099234" lon="-3.814346976578236">
        <ele>196.25</ele>
        <time>2023-09-01T16:37:32Z</time>
      </trkpt>
      <trkpt lat="56.728537017479539" lon="-3.814455019310117">
        <ele>196.25</ele>
        <time>2023-09-01T16:37:33Z</time>
      </trkpt>
      <trkpt lat="56.728434003889561" lon="-3.814541017636657">
        <ele>196.25</ele>
        <time>2023-09-01T16:37:34Z</time>
      </trkpt>
      <trkpt lat="56.72802597284317" lon="-3.814872018992901">
        <ele>198.65000000000001</ele>
        <time>2023-09-01T16:37:38Z</time>
      </trkpt>
      <trkpt lat="56.727920025587082" lon="-3.815031023696065">
        <ele>199.13</ele>
        <time>2023-09-01T16:37:39Z</time>
      </trkpt>
      <trkpt lat="56.727857999503613" lon="-3.815168989822269">
        <ele>198.65000000000001</ele>
        <time>2023-09-01T16:37:40Z</time>
      </trkpt>
      <trkpt lat="56.727798990905285" lon="-3.81534299813211">
        <ele>198.16999999999999</ele>
        <time>2023-09-01T16:37:41Z</time>
      </trkpt>
      <trkpt lat="56.727798990905285" lon="-3.815463026985526">
        <ele>197.69</ele>
        <time>2023-09-01T16:37:42Z</time>
      </trkpt>
      <trkpt lat="56.727798990905285" lon="-3.815603004768491">
        <ele>196.72999999999999</ele>
        <time>2023-09-01T16:37:43Z</time>
      </trkpt>
      <trkpt lat="56.727801002562046" lon="-3.815806014463306">
        <ele>195.77000000000001</ele>
        <time>2023-09-01T16:37:44Z</time>
      </trkpt>
      <trkpt lat="56.727822041139007" lon="-3.816026961430907">
        <ele>195.28</ele>
        <time>2023-09-01T16:37:45Z</time>
      </trkpt>
      <trkpt lat="56.727844001725316" lon="-3.816268024966121">
        <ele>195.28</ele>
        <time>2023-09-01T16:37:46Z</time>
      </trkpt>
      <trkpt lat="56.727867973968387" lon="-3.81652400828898">
        <ele>195.28</ele>
        <time>2023-09-01T16:37:47Z</time>
      </trkpt>
      <trkpt lat="56.727890018373728" lon="-3.81676197052002">
        <ele>195.28</ele>
        <time>2023-09-01T16:37:48Z</time>
      </trkpt>
      <trkpt lat="56.727902004495263" lon="-3.816957017406821">
        <ele>195.77000000000001</ele>
        <time>2023-09-01T16:37:49Z</time>
      </trkpt>
      <trkpt lat="56.727869985625148" lon="-3.81714996881783">
        <ele>197.21000000000001</ele>
        <time>2023-09-01T16:37:50Z</time>
      </trkpt>
      <trkpt lat="56.727842995896935" lon="-3.817309979349375">
        <ele>197.69</ele>
        <time>2023-09-01T16:37:51Z</time>
      </trkpt>
      <trkpt lat="56.727816006168723" lon="-3.817474013194442">
        <ele>198.65000000000001</ele>
        <time>2023-09-01T16:37:52Z</time>
      </trkpt>
      <trkpt lat="56.72778700478375" lon="-3.817647015675902">
        <ele>199.61000000000001</ele>
        <time>2023-09-01T16:37:53Z</time>
      </trkpt>
      <trkpt lat="56.727759009227157" lon="-3.817813983187079">
        <ele>200.09</ele>
        <time>2023-09-01T16:37:54Z</time>
      </trkpt>
      <trkpt lat="56.727712992578745" lon="-3.818092010915279">
        <ele>201.05000000000001</ele>
        <time>2023-09-01T16:37:55Z</time>
      </trkpt>
      <trkpt lat="56.727717015892267" lon="-3.818239029496908">
        <ele>202.00999999999999</ele>
        <time>2023-09-01T16:37:56Z</time>
      </trkpt>
      <trkpt lat="56.727753980085254" lon="-3.818969009444118">
        <ele>203.94</ele>
        <time>2023-09-01T16:37:59Z</time>
      </trkpt>
      <trkpt lat="56.727784993126988" lon="-3.819193979725242">
        <ele>204.41999999999999</ele>
        <time>2023-09-01T16:38:00Z</time>
      </trkpt>
      <trkpt lat="56.727890018373728" lon="-3.819620031863451">
        <ele>205.86000000000001</ele>
        <time>2023-09-01T16:38:02Z</time>
      </trkpt>
      <trkpt lat="56.727948021143675" lon="-3.819828992709518">
        <ele>206.34</ele>
        <time>2023-09-01T16:38:03Z</time>
      </trkpt>
      <trkpt lat="56.728007029742002" lon="-3.820041976869106">
        <ele>206.34</ele>
        <time>2023-09-01T16:38:04Z</time>
      </trkpt>
      <trkpt lat="56.728055980056524" lon="-3.820216991007328">
        <ele>206.34</ele>
        <time>2023-09-01T16:38:05Z</time>
      </trkpt>
      <trkpt lat="56.72806897200644" lon="-3.820447996258736">
        <ele>205.86000000000001</ele>
        <time>2023-09-01T16:38:06Z</time>
      </trkpt>
      <trkpt lat="56.728078024461865" lon="-3.820602977648377">
        <ele>205.38</ele>
        <time>2023-09-01T16:38:07Z</time>
      </trkpt>
      <trkpt lat="56.728034019470215" lon="-3.820785032585263">
        <ele>204.90000000000001</ele>
        <time>2023-09-01T16:38:08Z</time>
      </trkpt>
      <trkpt lat="56.727986996993423" lon="-3.820981001481414">
        <ele>204.90000000000001</ele>
        <time>2023-09-01T16:38:09Z</time>
      </trkpt>
      <trkpt lat="56.727946009486914" lon="-3.82114302366972">
        <ele>205.38</ele>
        <time>2023-09-01T16:38:10Z</time>
      </trkpt>
      <trkpt lat="56.727856993675232" lon="-3.821291970089078">
        <ele>205.38</ele>
        <time>2023-09-01T16:38:11Z</time>
      </trkpt>
      <trkpt lat="56.72776403836906" lon="-3.821447035297751">
        <ele>205.38</ele>
        <time>2023-09-01T16:38:12Z</time>
      </trkpt>
      <trkpt lat="56.727669993415475" lon="-3.821620037779212">
        <ele>205.38</ele>
        <time>2023-09-01T16:38:13Z</time>
      </trkpt>
      <trkpt lat="56.727592963725328" lon="-3.821804020553827">
        <ele>205.38</ele>
        <time>2023-09-01T16:38:14Z</time>
      </trkpt>
      <trkpt lat="56.727520963177085" lon="-3.821976017206907">
        <ele>204.90000000000001</ele>
        <time>2023-09-01T16:38:15Z</time>
      </trkpt>
      <trkpt lat="56.727460026741028" lon="-3.822157988324761">
        <ele>204.41999999999999</ele>
        <time>2023-09-01T16:38:16Z</time>
      </trkpt>
      <trkpt lat="56.727411998435855" lon="-3.822365021333098">
        <ele>203.46000000000001</ele>
        <time>2023-09-01T16:38:17Z</time>
      </trkpt>
      <trkpt lat="56.727406969293952" lon="-3.822581022977829">
        <ele>202.49000000000001</ele>
        <time>2023-09-01T16:38:18Z</time>
      </trkpt>
      <trkpt lat="56.7274010181427" lon="-3.82279995828867">
        <ele>201.53</ele>
        <time>2023-09-01T16:38:19Z</time>
      </trkpt>
      <trkpt lat="56.727393977344036" lon="-3.823027024045587">
        <ele>201.05000000000001</ele>
        <time>2023-09-01T16:38:20Z</time>
      </trkpt>
      <trkpt lat="56.727388026192784" lon="-3.823268003761768">
        <ele>200.56999999999999</ele>
        <time>2023-09-01T16:38:21Z</time>
      </trkpt>
      <trkpt lat="56.727381991222501" lon="-3.823493979871273">
        <ele>200.09</ele>
        <time>2023-09-01T16:38:22Z</time>
      </trkpt>
      <trkpt lat="56.727376040071249" lon="-3.823710987344384">
        <ele>200.09</ele>
        <time>2023-09-01T16:38:23Z</time>
      </trkpt>
      <trkpt lat="56.727334968745708" lon="-3.824100997298956">
        <ele>199.13</ele>
        <time>2023-09-01T16:38:25Z</time>
      </trkpt>
      <trkpt lat="56.727291969582438" lon="-3.824290009215474">
        <ele>198.65000000000001</ele>
        <time>2023-09-01T16:38:26Z</time>
      </trkpt>
      <trkpt lat="56.727252993732691" lon="-3.824461000040174">
        <ele>198.16999999999999</ele>
        <time>2023-09-01T16:38:27Z</time>
      </trkpt>
      <trkpt lat="56.727218041196465" lon="-3.824616987258196">
        <ele>198.16999999999999</ele>
        <time>2023-09-01T16:38:28Z</time>
      </trkpt>
      <trkpt lat="56.727188033983111" lon="-3.824747996404767">
        <ele>197.69</ele>
        <time>2023-09-01T16:38:29Z</time>
      </trkpt>
      <trkpt lat="56.727160960435867" lon="-3.824868025258184">
        <ele>197.21000000000001</ele>
        <time>2023-09-01T16:38:30Z</time>
      </trkpt>
      <trkpt lat="56.727187028154731" lon="-3.825071034952998">
        <ele>196.25</ele>
        <time>2023-09-01T16:38:31Z</time>
      </trkpt>
      <trkpt lat="56.727213012054563" lon="-3.825214030221105">
        <ele>195.77000000000001</ele>
        <time>2023-09-01T16:38:32Z</time>
      </trkpt>
      <trkpt lat="56.727246036753058" lon="-3.825379991903901">
        <ele>195.28</ele>
        <time>2023-09-01T16:38:33Z</time>
      </trkpt>
      <trkpt lat="56.727309990674257" lon="-3.825545031577349">
        <ele>194.31999999999999</ele>
        <time>2023-09-01T16:38:34Z</time>
      </trkpt>
      <trkpt lat="56.727384002879262" lon="-3.825734965503216">
        <ele>193.36000000000001</ele>
        <time>2023-09-01T16:38:35Z</time>
      </trkpt>
      <trkpt lat="56.727813994511962" lon="-3.826727969571948">
        <ele>187.59</ele>
        <time>2023-09-01T16:38:40Z</time>
      </trkpt>
      <trkpt lat="56.727888006716967" lon="-3.826887980103493">
        <ele>185.66999999999999</ele>
        <time>2023-09-01T16:38:41Z</time>
      </trkpt>
      <trkpt lat="56.727949026972055" lon="-3.827018989250064">
        <ele>184.22999999999999</ele>
        <time>2023-09-01T16:38:42Z</time>
      </trkpt>
      <trkpt lat="56.72796000726521" lon="-3.827186040580273">
        <ele>182.31</ele>
        <time>2023-09-01T16:38:43Z</time>
      </trkpt>
      <trkpt lat="56.727967970073223" lon="-3.827301962301135">
        <ele>180.87</ele>
        <time>2023-09-01T16:38:44Z</time>
      </trkpt>
      <trkpt lat="56.727969981729984" lon="-3.827341021969914">
        <ele>179.41999999999999</ele>
        <time>2023-09-01T16:38:45Z</time>
      </trkpt>
      <trkpt lat="56.727914996445179" lon="-3.827363988384605">
        <ele>178.46000000000001</ele>
        <time>2023-09-01T16:38:46Z</time>
      </trkpt>
      <trkpt lat="56.727866968140006" lon="-3.827385026961565">
        <ele>177.02000000000001</ele>
        <time>2023-09-01T16:38:47Z</time>
      </trkpt>
      <trkpt lat="56.727820029482245" lon="-3.827404975891113">
        <ele>176.53999999999999</ele>
        <time>2023-09-01T16:38:48Z</time>
      </trkpt>
      <trkpt lat="56.727738976478577" lon="-3.827346973121166">
        <ele>175.09999999999999</ele>
        <time>2023-09-01T16:38:49Z</time>
      </trkpt>
      <trkpt lat="56.727640992030501" lon="-3.827276984229684">
        <ele>174.62</ele>
        <time>2023-09-01T16:38:50Z</time>
      </trkpt>
      <trkpt lat="56.727536972612143" lon="-3.827202972024679">
        <ele>174.13999999999999</ele>
        <time>2023-09-01T16:38:51Z</time>
      </trkpt>
      <trkpt lat="56.727430019527674" lon="-3.827126026153565">
        <ele>173.66</ele>
        <time>2023-09-01T16:38:52Z</time>
      </trkpt>
      <trkpt lat="56.726916963234544" lon="-3.826893009245396">
        <ele>172.69</ele>
        <time>2023-09-01T16:38:56Z</time>
      </trkpt>
      <trkpt lat="56.726776985451579" lon="-3.826813967898488">
        <ele>172.21000000000001</ele>
        <time>2023-09-01T16:38:57Z</time>
      </trkpt>
      <trkpt lat="56.725901998579502" lon="-3.82606303319335">
        <ele>170.28999999999999</ele>
        <time>2023-09-01T16:39:04Z</time>
      </trkpt>
      <trkpt lat="56.725777024403214" lon="-3.826005030423403">
        <ele>169.81</ele>
        <time>2023-09-01T16:39:05Z</time>
      </trkpt>
      <trkpt lat="56.725695971399546" lon="-3.825966976583004">
        <ele>169.33000000000001</ele>
        <time>2023-09-01T16:39:06Z</time>
      </trkpt>
      <trkpt lat="56.725555993616581" lon="-3.826011987403035">
        <ele>169.33000000000001</ele>
        <time>2023-09-01T16:39:07Z</time>
      </trkpt>
      <trkpt lat="56.725428001955152" lon="-3.826053980737925">
        <ele>168.84999999999999</ele>
        <time>2023-09-01T16:39:08Z</time>
      </trkpt>
      <trkpt lat="56.725291041657329" lon="-3.826097985729575">
        <ele>168.37</ele>
        <time>2023-09-01T16:39:09Z</time>
      </trkpt>
      <trkpt lat="56.724013974890113" lon="-3.82673199288547">
        <ele>164.03999999999999</ele>
        <time>2023-09-01T16:39:18Z</time>
      </trkpt>
      <trkpt lat="56.723763020709157" lon="-3.826875993981957">
        <ele>163.56</ele>
        <time>2023-09-01T16:39:20Z</time>
      </trkpt>
      <trkpt lat="56.723637040704489" lon="-3.826919998973608">
        <ele>162.59999999999999</ele>
        <time>2023-09-01T16:39:21Z</time>
      </trkpt>
      <trkpt lat="56.723269997164607" lon="-3.826972972601652">
        <ele>162.12</ele>
        <time>2023-09-01T16:39:24Z</time>
      </trkpt>
      <trkpt lat="56.722558960318565" lon="-3.827200038358569">
        <ele>163.56</ele>
        <time>2023-09-01T16:39:31Z</time>
      </trkpt>
      <trkpt lat="56.721882037818432" lon="-3.827716028317809">
        <ele>163.56</ele>
        <time>2023-09-01T16:39:38Z</time>
      </trkpt>
      <trkpt lat="56.721490016207099" lon="-3.828002018854022">
        <ele>163.56</ele>
        <time>2023-09-01T16:39:42Z</time>
      </trkpt>
      <trkpt lat="56.721167983487248" lon="-3.828177032992244">
        <ele>162.59999999999999</ele>
        <time>2023-09-01T16:39:46Z</time>
      </trkpt>
      <trkpt lat="56.72108399681747" lon="-3.828288009390235">
        <ele>162.59999999999999</ele>
        <time>2023-09-01T16:39:47Z</time>
      </trkpt>
      <trkpt lat="56.721013002097607" lon="-3.828379958868027">
        <ele>162.59999999999999</ele>
        <time>2023-09-01T16:39:48Z</time>
      </trkpt>
      <trkpt lat="56.720941001549363" lon="-3.828475009649992">
        <ele>162.12</ele>
        <time>2023-09-01T16:39:49Z</time>
      </trkpt>
      <trkpt lat="56.720875035971403" lon="-3.82857701741159">
        <ele>162.12</ele>
        <time>2023-09-01T16:39:50Z</time>
      </trkpt>
      <trkpt lat="56.720818039029837" lon="-3.828718001022935">
        <ele>161.63999999999999</ele>
        <time>2023-09-01T16:39:51Z</time>
      </trkpt>
      <trkpt lat="56.720758024603128" lon="-3.828864013776183">
        <ele>161.16</ele>
        <time>2023-09-01T16:39:52Z</time>
      </trkpt>
      <trkpt lat="56.720693986862898" lon="-3.829021006822586">
        <ele>160.68000000000001</ele>
        <time>2023-09-01T16:39:53Z</time>
      </trkpt>
      <trkpt lat="56.720629027113318" lon="-3.82918001152575">
        <ele>160.19999999999999</ele>
        <time>2023-09-01T16:39:54Z</time>
      </trkpt>
      <trkpt lat="56.720570018514991" lon="-3.829326024278998">
        <ele>159.24000000000001</ele>
        <time>2023-09-01T16:39:55Z</time>
      </trkpt>
      <trkpt lat="56.720512015745044" lon="-3.829468013718724">
        <ele>158.27000000000001</ele>
        <time>2023-09-01T16:39:56Z</time>
      </trkpt>
      <trkpt lat="56.720454012975097" lon="-3.829611008986831">
        <ele>157.78999999999999</ele>
        <time>2023-09-01T16:39:57Z</time>
      </trkpt>
      <trkpt lat="56.720400033518672" lon="-3.829794991761446">
        <ele>157.31</ele>
        <time>2023-09-01T16:39:58Z</time>
      </trkpt>
      <trkpt lat="56.720364997163415" lon="-3.829990038648248">
        <ele>156.83000000000001</ele>
        <time>2023-09-01T16:39:59Z</time>
      </trkpt>
      <trkpt lat="56.720329038798809" lon="-3.830192964524031">
        <ele>156.34999999999999</ele>
        <time>2023-09-01T16:40:00Z</time>
      </trkpt>
      <trkpt lat="56.72016098164022" lon="-3.831213964149356">
        <ele>155.38999999999999</ele>
        <time>2023-09-01T16:40:06Z</time>
      </trkpt>
      <trkpt lat="56.720163999125361" lon="-3.83137003518641">
        <ele>155.38999999999999</ele>
        <time>2023-09-01T16:40:07Z</time>
      </trkpt>
      <trkpt lat="56.720167016610503" lon="-3.831541026011109">
        <ele>155.38999999999999</ele>
        <time>2023-09-01T16:40:08Z</time>
      </trkpt>
      <trkpt lat="56.720173973590136" lon="-3.831895999610424">
        <ele>154.91</ele>
        <time>2023-09-01T16:40:10Z</time>
      </trkpt>
      <trkpt lat="56.720176991075277" lon="-3.832085011526942">
        <ele>154.91</ele>
        <time>2023-09-01T16:40:11Z</time>
      </trkpt>
      <trkpt lat="56.720190988853574" lon="-3.833594005554915">
        <ele>154.91</ele>
        <time>2023-09-01T16:40:18Z</time>
      </trkpt>
      <trkpt lat="56.720176991075277" lon="-3.833759967237711">
        <ele>155.38999999999999</ele>
        <time>2023-09-01T16:40:19Z</time>
      </trkpt>
      <trkpt lat="56.720163999125361" lon="-3.833910003304482">
        <ele>156.34999999999999</ele>
        <time>2023-09-01T16:40:20Z</time>
      </trkpt>
      <trkpt lat="56.720148995518684" lon="-3.83407898247242">
        <ele>157.31</ele>
        <time>2023-09-01T16:40:21Z</time>
      </trkpt>
      <trkpt lat="56.72013801522553" lon="-3.834206974133849">
        <ele>157.78999999999999</ele>
        <time>2023-09-01T16:40:22Z</time>
      </trkpt>
      <trkpt lat="56.720169028267264" lon="-3.834419036284089">
        <ele>158.27000000000001</ele>
        <time>2023-09-01T16:40:23Z</time>
      </trkpt>
      <trkpt lat="56.720195012167096" lon="-3.834597989916802">
        <ele>158.27000000000001</ele>
        <time>2023-09-01T16:40:24Z</time>
      </trkpt>
      <trkpt lat="56.720222001895308" lon="-3.834783984348178">
        <ele>158.75</ele>
        <time>2023-09-01T16:40:25Z</time>
      </trkpt>
      <trkpt lat="56.720248991623521" lon="-3.834969978779554">
        <ele>158.75</ele>
        <time>2023-09-01T16:40:26Z</time>
      </trkpt>
      <trkpt lat="56.720276987180114" lon="-3.835163014009595">
        <ele>158.75</ele>
        <time>2023-09-01T16:40:27Z</time>
      </trkpt>
      <trkpt lat="56.720305988565087" lon="-3.835362000390887">
        <ele>158.75</ele>
        <time>2023-09-01T16:40:28Z</time>
      </trkpt>
      <trkpt lat="56.720330966636539" lon="-3.835537014529109">
        <ele>158.75</ele>
        <time>2023-09-01T16:40:29Z</time>
      </trkpt>
      <trkpt lat="56.720388969406486" lon="-3.835743963718414">
        <ele>158.75</ele>
        <time>2023-09-01T16:40:30Z</time>
      </trkpt>
      <trkpt lat="56.720438003540039" lon="-3.835919983685017">
        <ele>158.27000000000001</ele>
        <time>2023-09-01T16:40:31Z</time>
      </trkpt>
      <trkpt lat="56.720487959682941" lon="-3.83609801530838">
        <ele>158.27000000000001</ele>
        <time>2023-09-01T16:40:32Z</time>
      </trkpt>
      <trkpt lat="56.7205919791013" lon="-3.836470004171133">
        <ele>156.83000000000001</ele>
        <time>2023-09-01T16:40:34Z</time>
      </trkpt>
      <trkpt lat="56.720665991306305" lon="-3.837098982185125">
        <ele>154.43000000000001</ele>
        <time>2023-09-01T16:40:37Z</time>
      </trkpt>
      <trkpt lat="56.720680994912982" lon="-3.837310960516334">
        <ele>153.94999999999999</ele>
        <time>2023-09-01T16:40:38Z</time>
      </trkpt>
      <trkpt lat="56.720586027950048" lon="-3.838224001228809">
        <ele>151.06</ele>
        <time>2023-09-01T16:40:43Z</time>
      </trkpt>
      <trkpt lat="56.720560966059566" lon="-3.838385017588735">
        <ele>150.58000000000001</ele>
        <time>2023-09-01T16:40:44Z</time>
      </trkpt>
      <trkpt lat="56.720534982159734" lon="-3.838545028120279">
        <ele>149.62</ele>
        <time>2023-09-01T16:40:45Z</time>
      </trkpt>
      <trkpt lat="56.720510004088283" lon="-3.838704032823443">
        <ele>149.13999999999999</ele>
        <time>2023-09-01T16:40:46Z</time>
      </trkpt>
      <trkpt lat="56.720485026016831" lon="-3.838862031698227">
        <ele>148.18000000000001</ele>
        <time>2023-09-01T16:40:47Z</time>
      </trkpt>
      <trkpt lat="56.720458036288619" lon="-3.839027993381023">
        <ele>147.69999999999999</ele>
        <time>2023-09-01T16:40:48Z</time>
      </trkpt>
      <trkpt lat="56.720430040732026" lon="-3.839205019176006">
        <ele>147.22</ele>
        <time>2023-09-01T16:40:49Z</time>
      </trkpt>
      <trkpt lat="56.720372037962079" lon="-3.839568039402366">
        <ele>146.25999999999999</ele>
        <time>2023-09-01T16:40:51Z</time>
      </trkpt>
      <trkpt lat="56.720342030748725" lon="-3.839761996641755">
        <ele>145.78</ele>
        <time>2023-09-01T16:40:52Z</time>
      </trkpt>
      <trkpt lat="56.720275981351733" lon="-3.840175978839397">
        <ele>144.34</ele>
        <time>2023-09-01T16:40:54Z</time>
      </trkpt>
      <trkpt lat="56.720220996066928" lon="-3.840766986832023">
        <ele>143.37</ele>
        <time>2023-09-01T16:40:57Z</time>
      </trkpt>
      <trkpt lat="56.720210015773773" lon="-3.840939989313483">
        <ele>143.37</ele>
        <time>2023-09-01T16:40:58Z</time>
      </trkpt>
      <trkpt lat="56.720200041308999" lon="-3.841107962653041">
        <ele>143.37</ele>
        <time>2023-09-01T16:40:59Z</time>
      </trkpt>
      <trkpt lat="56.720188977196813" lon="-3.841283982619643">
        <ele>143.84999999999999</ele>
        <time>2023-09-01T16:41:00Z</time>
      </trkpt>
      <trkpt lat="56.720177996903658" lon="-3.841463020071387">
        <ele>143.84999999999999</ele>
        <time>2023-09-01T16:41:01Z</time>
      </trkpt>
      <trkpt lat="56.720165004953742" lon="-3.841658988967538">
        <ele>143.84999999999999</ele>
        <time>2023-09-01T16:41:02Z</time>
      </trkpt>
      <trkpt lat="56.720083029940724" lon="-3.842991041019559">
        <ele>144.81999999999999</ele>
        <time>2023-09-01T16:41:09Z</time>
      </trkpt>
      <trkpt lat="56.720067020505667" lon="-3.843178963288665">
        <ele>145.30000000000001</ele>
        <time>2023-09-01T16:41:10Z</time>
      </trkpt>
      <trkpt lat="56.720041958615184" lon="-3.843347020447254">
        <ele>145.30000000000001</ele>
        <time>2023-09-01T16:41:11Z</time>
      </trkpt>
      <trkpt lat="56.720015974715352" lon="-3.843522034585476">
        <ele>145.78</ele>
        <time>2023-09-01T16:41:12Z</time>
      </trkpt>
      <trkpt lat="56.71998898498714" lon="-3.843699982389808">
        <ele>145.78</ele>
        <time>2023-09-01T16:41:13Z</time>
      </trkpt>
      <trkpt lat="56.719964006915689" lon="-3.843873990699649">
        <ele>145.78</ele>
        <time>2023-09-01T16:41:14Z</time>
      </trkpt>
      <trkpt lat="56.719914972782135" lon="-3.844201974570751">
        <ele>146.25999999999999</ele>
        <time>2023-09-01T16:41:16Z</time>
      </trkpt>
      <trkpt lat="56.719894018024206" lon="-3.844342036172748">
        <ele>146.74000000000001</ele>
        <time>2023-09-01T16:41:17Z</time>
      </trkpt>
      <trkpt lat="56.719878008589149" lon="-3.844447983428836">
        <ele>147.22</ele>
        <time>2023-09-01T16:41:18Z</time>
      </trkpt>
      <trkpt lat="56.719864010810852" lon="-3.844542028382421">
        <ele>147.69999999999999</ele>
        <time>2023-09-01T16:41:19Z</time>
      </trkpt>
      <trkpt lat="56.719852024689317" lon="-3.844624003395438">
        <ele>147.69999999999999</ele>
        <time>2023-09-01T16:41:20Z</time>
      </trkpt>
      <trkpt lat="56.719839032739401" lon="-3.844707990065217">
        <ele>148.18000000000001</ele>
        <time>2023-09-01T16:41:21Z</time>
      </trkpt>
      <trkpt lat="56.719806008040905" lon="-3.844934972003102">
        <ele>148.66</ele>
        <time>2023-09-01T16:41:24Z</time>
      </trkpt>
      <trkpt lat="56.71979402191937" lon="-3.845015019178391">
        <ele>149.13999999999999</ele>
        <time>2023-09-01T16:41:25Z</time>
      </trkpt>
      <trkpt lat="56.719777006655931" lon="-3.845129013061523">
        <ele>150.09999999999999</ele>
        <time>2023-09-01T16:41:26Z</time>
      </trkpt>
      <trkpt lat="56.719748005270958" lon="-3.84525197558105">
        <ele>150.58000000000001</ele>
        <time>2023-09-01T16:41:27Z</time>
      </trkpt>
      <trkpt lat="56.719721015542746" lon="-3.845359012484551">
        <ele>151.06</ele>
        <time>2023-09-01T16:41:28Z</time>
      </trkpt>
      <trkpt lat="56.719690002501011" lon="-3.845484992489219">
        <ele>151.06</ele>
        <time>2023-09-01T16:41:29Z</time>
      </trkpt>
      <trkpt lat="56.719655971974134" lon="-3.845621030777693">
        <ele>151.06</ele>
        <time>2023-09-01T16:41:30Z</time>
      </trkpt>
      <trkpt lat="56.719584977254272" lon="-3.845905009657145">
        <ele>151.06</ele>
        <time>2023-09-01T16:41:32Z</time>
      </trkpt>
      <trkpt lat="56.719437958672643" lon="-3.846493000164628">
        <ele>150.09999999999999</ele>
        <time>2023-09-01T16:41:37Z</time>
      </trkpt>
      <trkpt lat="56.71938699670136" lon="-3.846698021516204">
        <ele>149.62</ele>
        <time>2023-09-01T16:41:39Z</time>
      </trkpt>
      <trkpt lat="56.719359001144767" lon="-3.846808997914195">
        <ele>150.09999999999999</ele>
        <time>2023-09-01T16:41:40Z</time>
      </trkpt>
      <trkpt lat="56.71932497061789" lon="-3.846915028989315">
        <ele>150.09999999999999</ele>
        <time>2023-09-01T16:41:41Z</time>
      </trkpt>
      <trkpt lat="56.719279959797859" lon="-3.847030028700829">
        <ele>150.09999999999999</ele>
        <time>2023-09-01T16:41:42Z</time>
      </trkpt>
      <trkpt lat="56.719226986169815" lon="-3.847165983170271">
        <ele>150.09999999999999</ele>
        <time>2023-09-01T16:41:43Z</time>
      </trkpt>
      <trkpt lat="56.719158003106713" lon="-3.847339991480112">
        <ele>150.09999999999999</ele>
        <time>2023-09-01T16:41:44Z</time>
      </trkpt>
      <trkpt lat="56.719077033922076" lon="-3.847545012831688">
        <ele>150.09999999999999</ele>
        <time>2023-09-01T16:41:45Z</time>
      </trkpt>
      <trkpt lat="56.718990029767156" lon="-3.84776595979929">
        <ele>149.62</ele>
        <time>2023-09-01T16:41:46Z</time>
      </trkpt>
      <trkpt lat="56.718819960951805" lon="-3.848197963088751">
        <ele>148.18000000000001</ele>
        <time>2023-09-01T16:41:48Z</time>
      </trkpt>
      <trkpt lat="56.718739997595549" lon="-3.848401978611946">
        <ele>147.69999999999999</ele>
        <time>2023-09-01T16:41:49Z</time>
      </trkpt>
      <trkpt lat="56.718662967905402" lon="-3.848596019670367">
        <ele>146.74000000000001</ele>
        <time>2023-09-01T16:41:50Z</time>
      </trkpt>
      <trkpt lat="56.718519972637296" lon="-3.848959961906076">
        <ele>145.78</ele>
        <time>2023-09-01T16:41:52Z</time>
      </trkpt>
      <trkpt lat="56.718357028439641" lon="-3.849250981584191">
        <ele>143.84999999999999</ele>
        <time>2023-09-01T16:41:54Z</time>
      </trkpt>
      <trkpt lat="56.718282010406256" lon="-3.849378973245621">
        <ele>142.41</ele>
        <time>2023-09-01T16:41:55Z</time>
      </trkpt>
      <trkpt lat="56.718215961009264" lon="-3.849493972957134">
        <ele>141.44999999999999</ele>
        <time>2023-09-01T16:41:56Z</time>
      </trkpt>
      <trkpt lat="56.718157958239317" lon="-3.84959296323359">
        <ele>140.97</ele>
        <time>2023-09-01T16:41:57Z</time>
      </trkpt>
      <trkpt lat="56.71812099404633" lon="-3.849657000973821">
        <ele>140.49000000000001</ele>
        <time>2023-09-01T16:41:58Z</time>
      </trkpt>
      <trkpt lat="56.718096015974879" lon="-3.849775018170476">
        <ele>140.00999999999999</ele>
        <time>2023-09-01T16:41:59Z</time>
      </trkpt>
      <trkpt lat="56.718057040125132" lon="-3.84995698928833">
        <ele>140.00999999999999</ele>
        <time>2023-09-01T16:42:00Z</time>
      </trkpt>
      <trkpt lat="56.718057040125132" lon="-3.84995698928833">
        <ele>140.00999999999999</ele>
        <time>2023-09-01T16:42:01Z</time>
      </trkpt>
      <trkpt lat="56.718039019033313" lon="-3.850158993154764">
        <ele>140.49000000000001</ele>
        <time>2023-09-01T16:42:02Z</time>
      </trkpt>
      <trkpt lat="56.718023009598255" lon="-3.850334007292986">
        <ele>140.97</ele>
        <time>2023-09-01T16:42:03Z</time>
      </trkpt>
      <trkpt lat="56.718005994334817" lon="-3.850512038916349">
        <ele>140.97</ele>
        <time>2023-09-01T16:42:04Z</time>
      </trkpt>
      <trkpt lat="56.717977998778224" lon="-3.850712031126022">
        <ele>140.97</ele>
        <time>2023-09-01T16:42:05Z</time>
      </trkpt>
      <trkpt lat="56.717929970473051" lon="-3.850872041657567">
        <ele>141.44999999999999</ele>
        <time>2023-09-01T16:42:06Z</time>
      </trkpt>
      <trkpt lat="56.717850007116795" lon="-3.850999027490616">
        <ele>141.44999999999999</ele>
        <time>2023-09-01T16:42:07Z</time>
      </trkpt>
      <trkpt lat="56.717787981033325" lon="-3.85109500028193">
        <ele>141.44999999999999</ele>
        <time>2023-09-01T16:42:08Z</time>
      </trkpt>
      <trkpt lat="56.717728972434998" lon="-3.851185021921992">
        <ele>141.93000000000001</ele>
        <time>2023-09-01T16:42:09Z</time>
      </trkpt>
      <trkpt lat="56.717675998806953" lon="-3.851265991106629">
        <ele>142.88999999999999</ele>
        <time>2023-09-01T16:42:10Z</time>
      </trkpt>
      <trkpt lat="56.717597041279078" lon="-3.851505964994431">
        <ele>142.41</ele>
        <time>2023-09-01T16:42:12Z</time>
      </trkpt>
      <trkpt lat="56.717587988823652" lon="-3.851625993847847">
        <ele>142.88999999999999</ele>
        <time>2023-09-01T16:42:13Z</time>
      </trkpt>
      <trkpt lat="56.717577008530498" lon="-3.851779969409108">
        <ele>142.88999999999999</ele>
        <time>2023-09-01T16:42:14Z</time>
      </trkpt>
      <trkpt lat="56.717564016580582" lon="-3.851953977718949">
        <ele>143.37</ele>
        <time>2023-09-01T16:42:15Z</time>
      </trkpt>
      <trkpt lat="56.717550018802285" lon="-3.852146007120609">
        <ele>143.37</ele>
        <time>2023-09-01T16:42:16Z</time>
      </trkpt>
      <trkpt lat="56.717525040730834" lon="-3.852324038743973">
        <ele>143.84999999999999</ele>
        <time>2023-09-01T16:42:17Z</time>
      </trkpt>
      <trkpt lat="56.717479024082422" lon="-3.852525958791375">
        <ele>144.34</ele>
        <time>2023-09-01T16:42:18Z</time>
      </trkpt>
      <trkpt lat="56.717438958585262" lon="-3.852699967101216">
        <ele>145.30000000000001</ele>
        <time>2023-09-01T16:42:19Z</time>
      </trkpt>
      <trkpt lat="56.717396965250373" lon="-3.852882022038102">
        <ele>145.78</ele>
        <time>2023-09-01T16:42:20Z</time>
      </trkpt>
      <trkpt lat="56.717352960258722" lon="-3.853075979277492">
        <ele>146.74000000000001</ele>
        <time>2023-09-01T16:42:21Z</time>
      </trkpt>
      <trkpt lat="56.717305015772581" lon="-3.853282006457448">
        <ele>147.69999999999999</ele>
        <time>2023-09-01T16:42:22Z</time>
      </trkpt>
      <trkpt lat="56.717112986370921" lon="-3.854299988597632">
        <ele>156.83000000000001</ele>
        <time>2023-09-01T16:42:29Z</time>
      </trkpt>
      <trkpt lat="56.717112986370921" lon="-3.854448013007641">
        <ele>159.24000000000001</ele>
        <time>2023-09-01T16:42:30Z</time>
      </trkpt>
      <trkpt lat="56.717112986370921" lon="-3.854569969698787">
        <ele>162.59999999999999</ele>
        <time>2023-09-01T16:42:31Z</time>
      </trkpt>
      <trkpt lat="56.71719403937459" lon="-3.854769039899111">
        <ele>167.41</ele>
        <time>2023-09-01T16:42:33Z</time>
      </trkpt>
      <trkpt lat="56.717248018831015" lon="-3.854902982711792">
        <ele>169.81</ele>
        <time>2023-09-01T16:42:34Z</time>
      </trkpt>
      <trkpt lat="56.717304009944201" lon="-3.855039021000266">
        <ele>172.21000000000001</ele>
        <time>2023-09-01T16:42:35Z</time>
      </trkpt>
      <trkpt lat="56.717361006885767" lon="-3.855274971574545">
        <ele>174.62</ele>
        <time>2023-09-01T16:42:36Z</time>
      </trkpt>
      <trkpt lat="56.71732597053051" lon="-3.855531038716435">
        <ele>176.06</ele>
        <time>2023-09-01T16:42:37Z</time>
      </trkpt>
      <trkpt lat="56.717289006337523" lon="-3.855672022327781">
        <ele>177.5</ele>
        <time>2023-09-01T16:42:38Z</time>
      </trkpt>
      <trkpt lat="56.717249024659395" lon="-3.855820968747139">
        <ele>178.94</ele>
        <time>2023-09-01T16:42:39Z</time>
      </trkpt>
      <trkpt lat="56.717208037152886" lon="-3.855975028127432">
        <ele>180.87</ele>
        <time>2023-09-01T16:42:40Z</time>
      </trkpt>
      <trkpt lat="56.717167971655726" lon="-3.856125986203551">
        <ele>181.83000000000001</ele>
        <time>2023-09-01T16:42:41Z</time>
      </trkpt>
      <trkpt lat="56.71713100746274" lon="-3.856265963986516">
        <ele>183.75</ele>
        <time>2023-09-01T16:42:42Z</time>
      </trkpt>
      <trkpt lat="56.717094965279102" lon="-3.856399990618229">
        <ele>185.19</ele>
        <time>2023-09-01T16:42:43Z</time>
      </trkpt>
      <trkpt lat="56.717082979157567" lon="-3.85650996118784">
        <ele>186.63</ele>
        <time>2023-09-01T16:42:44Z</time>
      </trkpt>
      <trkpt lat="56.717008966952562" lon="-3.857254022732377">
        <ele>192.40000000000001</ele>
        <time>2023-09-01T16:42:50Z</time>
      </trkpt>
      <trkpt lat="56.716997986659408" lon="-3.857310013845563">
        <ele>193.84</ele>
        <time>2023-09-01T16:42:51Z</time>
      </trkpt>
      <trkpt lat="56.716991029679775" lon="-3.857343960553408">
        <ele>194.80000000000001</ele>
        <time>2023-09-01T16:42:52Z</time>
      </trkpt>
      <trkpt lat="56.716892961412668" lon="-3.857253016903997">
        <ele>196.25</ele>
        <time>2023-09-01T16:42:53Z</time>
      </trkpt>
      <trkpt lat="56.716863960027695" lon="-3.857253016903997">
        <ele>197.69</ele>
        <time>2023-09-01T16:42:54Z</time>
      </trkpt>
      <trkpt lat="56.716834036633372" lon="-3.857253016903997">
        <ele>199.13</ele>
        <time>2023-09-01T16:42:55Z</time>
      </trkpt>
      <trkpt lat="56.716811992228031" lon="-3.857253016903997">
        <ele>201.53</ele>
        <time>2023-09-01T16:42:56Z</time>
      </trkpt>
      <trkpt lat="56.716797994449735" lon="-3.857228960841894">
        <ele>203.94</ele>
        <time>2023-09-01T16:42:57Z</time>
      </trkpt>
      <trkpt lat="56.716777039691806" lon="-3.85719601996243">
        <ele>205.86000000000001</ele>
        <time>2023-09-01T16:42:58Z</time>
      </trkpt>
      <trkpt lat="56.716756001114845" lon="-3.857160983607173">
        <ele>207.30000000000001</ele>
        <time>2023-09-01T16:42:59Z</time>
      </trkpt>
      <trkpt lat="56.716733034700155" lon="-3.857123013585806">
        <ele>208.25999999999999</ele>
        <time>2023-09-01T16:43:00Z</time>
      </trkpt>
      <trkpt lat="56.716707972809672" lon="-3.857084037736058">
        <ele>209.22</ele>
        <time>2023-09-01T16:43:01Z</time>
      </trkpt>
      <trkpt lat="56.716685006394982" lon="-3.857045983895659">
        <ele>210.19</ele>
        <time>2023-09-01T16:43:02Z</time>
      </trkpt>
      <trkpt lat="56.716641001403332" lon="-3.856966020539403">
        <ele>211.15000000000001</ele>
        <time>2023-09-01T16:43:03Z</time>
      </trkpt>
      <trkpt lat="56.716641001403332" lon="-3.856909023597837">
        <ele>211.63</ele>
        <time>2023-09-01T16:43:04Z</time>
      </trkpt>
      <trkpt lat="56.716641001403332" lon="-3.85685496032238">
        <ele>212.59</ele>
        <time>2023-09-01T16:43:05Z</time>
      </trkpt>
      <trkpt lat="56.716647036373615" lon="-3.856763010844588">
        <ele>213.06999999999999</ele>
        <time>2023-09-01T16:43:06Z</time>
      </trkpt>
      <trkpt lat="56.716647036373615" lon="-3.856763010844588">
        <ele>213.55000000000001</ele>
        <time>2023-09-01T16:43:07Z</time>
      </trkpt>
      <trkpt lat="56.716662039980292" lon="-3.856721017509699">
        <ele>214.03</ele>
        <time>2023-09-01T16:43:08Z</time>
      </trkpt>
      <trkpt lat="56.716725993901491" lon="-3.856544997543097">
        <ele>214.50999999999999</ele>
        <time>2023-09-01T16:43:09Z</time>
      </trkpt>
      <trkpt lat="56.716739991679788" lon="-3.856903994455934">
        <ele>216.43000000000001</ele>
        <time>2023-09-01T16:43:19Z</time>
      </trkpt>
      <trkpt lat="56.716699004173279" lon="-3.856909023597837">
        <ele>226.05000000000001</ele>
        <time>2023-09-01T17:13:20Z</time>
      </trkpt>
      <trkpt lat="56.716732028871775" lon="-3.85693802498281">
        <ele>224.61000000000001</ele>
        <time>2023-09-01T17:13:57Z</time>
      </trkpt>
      <trkpt lat="56.71672398224473" lon="-3.856955040246248">
        <ele>224.61000000000001</ele>
        <time>2023-09-01T17:14:01Z</time>
      </trkpt>
      <trkpt lat="56.716685006394982" lon="-3.857045983895659">
        <ele>224.12</ele>
        <time>2023-09-01T17:14:03Z</time>
      </trkpt>
      <trkpt lat="56.716695986688137" lon="-3.857062999159098">
        <ele>224.12</ele>
        <time>2023-09-01T17:14:04Z</time>
      </trkpt>
      <trkpt lat="56.716709984466434" lon="-3.857086971402168">
        <ele>223.63999999999999</ele>
        <time>2023-09-01T17:14:05Z</time>
      </trkpt>
      <trkpt lat="56.716729011386633" lon="-3.857116978615522">
        <ele>223.63999999999999</ele>
        <time>2023-09-01T17:14:06Z</time>
      </trkpt>
      <trkpt lat="56.716748038306832" lon="-3.857148997485638">
        <ele>223.16</ele>
        <time>2023-09-01T17:14:07Z</time>
      </trkpt>
      <trkpt lat="56.716773016378284" lon="-3.857187973335385">
        <ele>223.16</ele>
        <time>2023-09-01T17:14:08Z</time>
      </trkpt>
      <trkpt lat="56.716801011934876" lon="-3.857233989983797">
        <ele>223.16</ele>
        <time>2023-09-01T17:14:09Z</time>
      </trkpt>
      <trkpt lat="56.716838981956244" lon="-3.857253016903997">
        <ele>222.68000000000001</ele>
        <time>2023-09-01T17:14:10Z</time>
      </trkpt>
      <trkpt lat="56.716884998604655" lon="-3.857253016903997">
        <ele>222.68000000000001</ele>
        <time>2023-09-01T17:14:11Z</time>
      </trkpt>
      <trkpt lat="56.716926991939545" lon="-3.857253016903997">
        <ele>222.19999999999999</ele>
        <time>2023-09-01T17:14:12Z</time>
      </trkpt>
      <trkpt lat="56.716952975839376" lon="-3.857253016903997">
        <ele>222.19999999999999</ele>
        <time>2023-09-01T17:14:13Z</time>
      </trkpt>
      <trkpt lat="56.716963034123182" lon="-3.857253016903997">
        <ele>221.72</ele>
        <time>2023-09-01T17:14:14Z</time>
      </trkpt>
      <trkpt lat="56.716990023851395" lon="-3.857351001352072">
        <ele>221.72</ele>
        <time>2023-09-01T17:14:15Z</time>
      </trkpt>
      <trkpt lat="56.716982983052731" lon="-3.857386037707329">
        <ele>221.72</ele>
        <time>2023-09-01T17:14:16Z</time>
      </trkpt>
      <trkpt lat="56.716937972232699" lon="-3.857614025473595">
        <ele>221.72</ele>
        <time>2023-09-01T17:14:19Z</time>
      </trkpt>
      <trkpt lat="56.716910982504487" lon="-3.857746040448546">
        <ele>221.72</ele>
        <time>2023-09-01T17:14:20Z</time>
      </trkpt>
      <trkpt lat="56.716791037470102" lon="-3.858001017943025">
        <ele>222.19999999999999</ele>
        <time>2023-09-01T17:14:22Z</time>
      </trkpt>
      <trkpt lat="56.716633960604668" lon="-3.858279967680574">
        <ele>222.19999999999999</ele>
        <time>2023-09-01T17:14:24Z</time>
      </trkpt>
      <trkpt lat="56.716569000855088" lon="-3.858395973220468">
        <ele>222.19999999999999</ele>
        <time>2023-09-01T17:14:25Z</time>
      </trkpt>
      <trkpt lat="56.716512003913522" lon="-3.858496975153685">
        <ele>222.19999999999999</ele>
        <time>2023-09-01T17:14:26Z</time>
      </trkpt>
      <trkpt lat="56.71646598726511" lon="-3.858706019818783">
        <ele>221.72</ele>
        <time>2023-09-01T17:14:27Z</time>
      </trkpt>
      <trkpt lat="56.716432962566614" lon="-3.858857983723283">
        <ele>221.24000000000001</ele>
        <time>2023-09-01T17:14:28Z</time>
      </trkpt>
      <trkpt lat="56.716404967010021" lon="-3.858991004526615">
        <ele>220.28</ele>
        <time>2023-09-01T17:14:29Z</time>
      </trkpt>
      <trkpt lat="56.716431034728885" lon="-3.859143974259496">
        <ele>219.31999999999999</ele>
        <time>2023-09-01T17:14:30Z</time>
      </trkpt>
      <trkpt lat="56.716464981436729" lon="-3.859341032803059">
        <ele>218.36000000000001</ele>
        <time>2023-09-01T17:14:31Z</time>
      </trkpt>
      <trkpt lat="56.716503035277128" lon="-3.859525015577674">
        <ele>217.40000000000001</ele>
        <time>2023-09-01T17:14:32Z</time>
      </trkpt>
      <trkpt lat="56.716814003884792" lon="-3.860565964132547">
        <ele>212.11000000000001</ele>
        <time>2023-09-01T17:14:37Z</time>
      </trkpt>
      <trkpt lat="56.716872006654739" lon="-3.860758999362588">
        <ele>210.66999999999999</ele>
        <time>2023-09-01T17:14:38Z</time>
      </trkpt>
      <trkpt lat="56.716929003596306" lon="-3.860950022935867">
        <ele>209.69999999999999</ele>
        <time>2023-09-01T17:14:39Z</time>
      </trkpt>
      <trkpt lat="56.716986000537872" lon="-3.861140962690115">
        <ele>208.74000000000001</ele>
        <time>2023-09-01T17:14:40Z</time>
      </trkpt>
      <trkpt lat="56.717038974165916" lon="-3.861317988485098">
        <ele>207.78</ele>
        <time>2023-09-01T17:14:41Z</time>
      </trkpt>
      <trkpt lat="56.717090019956231" lon="-3.861487973481417">
        <ele>206.34</ele>
        <time>2023-09-01T17:14:42Z</time>
      </trkpt>
      <trkpt lat="56.717140981927514" lon="-3.861658964306116">
        <ele>204.90000000000001</ele>
        <time>2023-09-01T17:14:43Z</time>
      </trkpt>
      <trkpt lat="56.717189010232687" lon="-3.86183800175786">
        <ele>203.46000000000001</ele>
        <time>2023-09-01T17:14:44Z</time>
      </trkpt>
      <trkpt lat="56.717283977195621" lon="-3.862294983118773">
        <ele>199.13</ele>
        <time>2023-09-01T17:14:47Z</time>
      </trkpt>
      <trkpt lat="56.717272996902466" lon="-3.862576028332114">
        <ele>197.69</ele>
        <time>2023-09-01T17:14:48Z</time>
      </trkpt>
      <trkpt lat="56.717266039922833" lon="-3.862748024985194">
        <ele>196.72999999999999</ele>
        <time>2023-09-01T17:14:49Z</time>
      </trkpt>
      <trkpt lat="56.717258999124169" lon="-3.862915998324752">
        <ele>195.28</ele>
        <time>2023-09-01T17:14:50Z</time>
      </trkpt>
      <trkpt lat="56.717251958325505" lon="-3.863079026341438">
        <ele>193.84</ele>
        <time>2023-09-01T17:14:51Z</time>
      </trkpt>
      <trkpt lat="56.717245001345873" lon="-3.863245993852615">
        <ele>192.88</ele>
        <time>2023-09-01T17:14:52Z</time>
      </trkpt>
      <trkpt lat="56.71723703853786" lon="-3.863430982455611">
        <ele>191.91999999999999</ele>
        <time>2023-09-01T17:14:53Z</time>
      </trkpt>
      <trkpt lat="56.717228991910815" lon="-3.863626029342413">
        <ele>190.47999999999999</ele>
        <time>2023-09-01T17:14:54Z</time>
      </trkpt>
      <trkpt lat="56.717185992747545" lon="-3.86443798430264">
        <ele>186.15000000000001</ele>
        <time>2023-09-01T17:14:58Z</time>
      </trkpt>
      <trkpt lat="56.717156991362572" lon="-3.864618027582765">
        <ele>185.66999999999999</ele>
        <time>2023-09-01T17:14:59Z</time>
      </trkpt>
      <trkpt lat="56.71713100746274" lon="-3.864788012579083">
        <ele>184.71000000000001</ele>
        <time>2023-09-01T17:15:00Z</time>
      </trkpt>
      <trkpt lat="56.717103011906147" lon="-3.864964032545686">
        <ele>183.75</ele>
        <time>2023-09-01T17:15:01Z</time>
      </trkpt>
      <trkpt lat="56.717075016349554" lon="-3.865141980350018">
        <ele>182.78999999999999</ele>
        <time>2023-09-01T17:15:02Z</time>
      </trkpt>
      <trkpt lat="56.717050038278103" lon="-3.865304002538323">
        <ele>181.83000000000001</ele>
        <time>2023-09-01T17:15:03Z</time>
      </trkpt>
      <trkpt lat="56.717026988044381" lon="-3.865449009463191">
        <ele>180.87</ele>
        <time>2023-09-01T17:15:04Z</time>
      </trkpt>
      <trkpt lat="56.717028999701142" lon="-3.865624023601413">
        <ele>179.90000000000001</ele>
        <time>2023-09-01T17:15:05Z</time>
      </trkpt>
      <trkpt lat="56.717031011357903" lon="-3.86581102386117">
        <ele>178.94</ele>
        <time>2023-09-01T17:15:06Z</time>
      </trkpt>
      <trkpt lat="56.717036962509155" lon="-3.866417035460472">
        <ele>176.53999999999999</ele>
        <time>2023-09-01T17:15:09Z</time>
      </trkpt>
      <trkpt lat="56.717044003307819" lon="-3.867098987102509">
        <ele>174.62</ele>
        <time>2023-09-01T17:15:12Z</time>
      </trkpt>
      <trkpt lat="56.717047020792961" lon="-3.86733896099031">
        <ele>173.66</ele>
        <time>2023-09-01T17:15:13Z</time>
      </trkpt>
      <trkpt lat="56.717048026621342" lon="-3.86750902980566">
        <ele>172.69</ele>
        <time>2023-09-01T17:15:14Z</time>
      </trkpt>
      <trkpt lat="56.717084990814328" lon="-3.867804994806647">
        <ele>171.72999999999999</ele>
        <time>2023-09-01T17:15:15Z</time>
      </trkpt>
      <trkpt lat="56.717112986370921" lon="-3.868036000058055">
        <ele>170.77000000000001</ele>
        <time>2023-09-01T17:15:16Z</time>
      </trkpt>
      <trkpt lat="56.717139976099133" lon="-3.868257030844688">
        <ele>170.28999999999999</ele>
        <time>2023-09-01T17:15:17Z</time>
      </trkpt>
      <trkpt lat="56.717252964153886" lon="-3.868921967223287">
        <ele>169.33000000000001</ele>
        <time>2023-09-01T17:15:20Z</time>
      </trkpt>
      <trkpt lat="56.717301998287439" lon="-3.869156995788217">
        <ele>168.84999999999999</ele>
        <time>2023-09-01T17:15:21Z</time>
      </trkpt>
      <trkpt lat="56.717349020764232" lon="-3.869381966069341">
        <ele>168.84999999999999</ele>
        <time>2023-09-01T17:15:22Z</time>
      </trkpt>
      <trkpt lat="56.717391014099121" lon="-3.869581036269665">
        <ele>168.37</ele>
        <time>2023-09-01T17:15:23Z</time>
      </trkpt>
      <trkpt lat="56.717429989948869" lon="-3.869766024872661">
        <ele>168.37</ele>
        <time>2023-09-01T17:15:24Z</time>
      </trkpt>
      <trkpt lat="56.717455973848701" lon="-3.869890999048948">
        <ele>167.88999999999999</ele>
        <time>2023-09-01T17:15:25Z</time>
      </trkpt>
      <trkpt lat="56.717466032132506" lon="-3.870107000693679">
        <ele>167.41</ele>
        <time>2023-09-01T17:15:26Z</time>
      </trkpt>
      <trkpt lat="56.7174750007689" lon="-3.870296012610197">
        <ele>166.93000000000001</ele>
        <time>2023-09-01T17:15:27Z</time>
      </trkpt>
      <trkpt lat="56.717483969405293" lon="-3.870493993163109">
        <ele>166.44999999999999</ele>
        <time>2023-09-01T17:15:28Z</time>
      </trkpt>
      <trkpt lat="56.717493021860719" lon="-3.870679987594485">
        <ele>165.96000000000001</ele>
        <time>2023-09-01T17:15:29Z</time>
      </trkpt>
      <trkpt lat="56.717502996325493" lon="-3.870890960097313">
        <ele>165.47999999999999</ele>
        <time>2023-09-01T17:15:30Z</time>
      </trkpt>
      <trkpt lat="56.717513976618648" lon="-3.871129006147385">
        <ele>165</ele>
        <time>2023-09-01T17:15:31Z</time>
      </trkpt>
      <trkpt lat="56.717507019639015" lon="-3.871380966156721">
        <ele>165</ele>
        <time>2023-09-01T17:15:32Z</time>
      </trkpt>
      <trkpt lat="56.717480029910803" lon="-3.871624963358045">
        <ele>164.52000000000001</ele>
        <time>2023-09-01T17:15:33Z</time>
      </trkpt>
      <trkpt lat="56.71745496802032" lon="-3.871845994144678">
        <ele>164.52000000000001</ele>
        <time>2023-09-01T17:15:34Z</time>
      </trkpt>
      <trkpt lat="56.71741004101932" lon="-3.87223700992763">
        <ele>164.52000000000001</ele>
        <time>2023-09-01T17:15:36Z</time>
      </trkpt>
      <trkpt lat="56.717394031584263" lon="-3.872437002137303">
        <ele>164.52000000000001</ele>
        <time>2023-09-01T17:15:37Z</time>
      </trkpt>
      <trkpt lat="56.717406017705798" lon="-3.87262400239706">
        <ele>165</ele>
        <time>2023-09-01T17:15:38Z</time>
      </trkpt>
      <trkpt lat="56.717430995777249" lon="-3.872844027355313">
        <ele>165</ele>
        <time>2023-09-01T17:15:39Z</time>
      </trkpt>
      <trkpt lat="56.717469971626997" lon="-3.87305399402976">
        <ele>165</ele>
        <time>2023-09-01T17:15:40Z</time>
      </trkpt>
      <trkpt lat="56.717510959133506" lon="-3.873281981796026">
        <ele>165</ele>
        <time>2023-09-01T17:15:41Z</time>
      </trkpt>
      <trkpt lat="56.717553036287427" lon="-3.873509969562292">
        <ele>165.96000000000001</ele>
        <time>2023-09-01T17:15:42Z</time>
      </trkpt>
      <trkpt lat="56.717854030430317" lon="-3.875161958858371">
        <ele>170.77000000000001</ele>
        <time>2023-09-01T17:15:49Z</time>
      </trkpt>
      <trkpt lat="56.717909015715122" lon="-3.875611983239651">
        <ele>171.72999999999999</ele>
        <time>2023-09-01T17:15:51Z</time>
      </trkpt>
      <trkpt lat="56.717913039028645" lon="-3.875847011804581">
        <ele>172.69</ele>
        <time>2023-09-01T17:15:52Z</time>
      </trkpt>
      <trkpt lat="56.717942040413618" lon="-3.876953003928065">
        <ele>175.58000000000001</ele>
        <time>2023-09-01T17:15:57Z</time>
      </trkpt>
      <trkpt lat="56.717966012656689" lon="-3.877208987250924">
        <ele>176.53999999999999</ele>
        <time>2023-09-01T17:15:58Z</time>
      </trkpt>
      <trkpt lat="56.717989984899759" lon="-3.877473017200828">
        <ele>177.02000000000001</ele>
        <time>2023-09-01T17:15:59Z</time>
      </trkpt>
      <trkpt lat="56.718041030690074" lon="-3.878027983009815">
        <ele>177.97999999999999</ele>
        <time>2023-09-01T17:16:01Z</time>
      </trkpt>
      <trkpt lat="56.718145972117782" lon="-3.879166999831796">
        <ele>178.94</ele>
        <time>2023-09-01T17:16:05Z</time>
      </trkpt>
      <trkpt lat="56.718353005126119" lon="-3.880943963304162">
        <ele>178.94</ele>
        <time>2023-09-01T17:16:11Z</time>
      </trkpt>
      <trkpt lat="56.718533970415592" lon="-3.883413020521402">
        <ele>180.87</ele>
        <time>2023-09-01T17:16:20Z</time>
      </trkpt>
      <trkpt lat="56.718718037009239" lon="-3.885851986706257">
        <ele>181.83000000000001</ele>
        <time>2023-09-01T17:16:29Z</time>
      </trkpt>
      <trkpt lat="56.718755001202226" lon="-3.886105036363006">
        <ele>181.83000000000001</ele>
        <time>2023-09-01T17:16:30Z</time>
      </trkpt>
      <trkpt lat="56.71885097399354" lon="-3.88678296469152">
        <ele>182.31</ele>
        <time>2023-09-01T17:16:33Z</time>
      </trkpt>
      <trkpt lat="56.7188720125705" lon="-3.886928977444768">
        <ele>182.78999999999999</ele>
        <time>2023-09-01T17:16:34Z</time>
      </trkpt>
      <trkpt lat="56.7188720125705" lon="-3.886928977444768">
        <ele>183.27000000000001</ele>
        <time>2023-09-01T17:16:35Z</time>
      </trkpt>
      <trkpt lat="56.718856003135443" lon="-3.887354023754597">
        <ele>183.27000000000001</ele>
        <time>2023-09-01T17:16:36Z</time>
      </trkpt>
      <trkpt lat="56.718849968165159" lon="-3.887525014579296">
        <ele>183.27000000000001</ele>
        <time>2023-09-01T17:16:37Z</time>
      </trkpt>
      <trkpt lat="56.718843011185527" lon="-3.887698017060757">
        <ele>183.27000000000001</ele>
        <time>2023-09-01T17:16:38Z</time>
      </trkpt>
      <trkpt lat="56.718827001750469" lon="-3.889555027708411">
        <ele>185.19</ele>
        <time>2023-09-01T17:16:47Z</time>
      </trkpt>
      <trkpt lat="56.71884804032743" lon="-3.892064988613129">
        <ele>190.47999999999999</ele>
        <time>2023-09-01T17:16:59Z</time>
      </trkpt>
      <trkpt lat="56.718764975667" lon="-3.893415983766317">
        <ele>191.44</ele>
        <time>2023-09-01T17:17:06Z</time>
      </trkpt>
      <trkpt lat="56.718764975667" lon="-3.893590997904539">
        <ele>191.44</ele>
        <time>2023-09-01T17:17:07Z</time>
      </trkpt>
      <trkpt lat="56.718764975667" lon="-3.893982013687491">
        <ele>191.44</ele>
        <time>2023-09-01T17:17:09Z</time>
      </trkpt>
      <trkpt lat="56.718762964010239" lon="-3.895809017121792">
        <ele>191.91999999999999</ele>
        <time>2023-09-01T17:17:18Z</time>
      </trkpt>
      <trkpt lat="56.718749972060323" lon="-3.896028036251664">
        <ele>191.44</ele>
        <time>2023-09-01T17:17:19Z</time>
      </trkpt>
      <trkpt lat="56.718737985938787" lon="-3.896230040118098">
        <ele>191.44</ele>
        <time>2023-09-01T17:17:20Z</time>
      </trkpt>
      <trkpt lat="56.718704961240292" lon="-3.896806966513395">
        <ele>190.96000000000001</ele>
        <time>2023-09-01T17:17:23Z</time>
      </trkpt>
      <trkpt lat="56.718696998432279" lon="-3.896960020065308">
        <ele>190.96000000000001</ele>
        <time>2023-09-01T17:17:24Z</time>
      </trkpt>
      <trkpt lat="56.718688029795885" lon="-3.897112989798188">
        <ele>190.47999999999999</ele>
        <time>2023-09-01T17:17:25Z</time>
      </trkpt>
      <trkpt lat="56.718670008704066" lon="-3.897428987547755">
        <ele>190.47999999999999</ele>
        <time>2023-09-01T17:17:27Z</time>
      </trkpt>
      <trkpt lat="56.718658022582531" lon="-3.897636020556092">
        <ele>190</ele>
        <time>2023-09-01T17:17:28Z</time>
      </trkpt>
      <trkpt lat="56.718627009540796" lon="-3.897784966975451">
        <ele>190</ele>
        <time>2023-09-01T17:17:29Z</time>
      </trkpt>
      <trkpt lat="56.718516033142805" lon="-3.898320989683271">
        <ele>188.56</ele>
        <time>2023-09-01T17:17:32Z</time>
      </trkpt>
      <trkpt lat="56.718473033979535" lon="-3.898529028519988">
        <ele>188.08000000000001</ele>
        <time>2023-09-01T17:17:33Z</time>
      </trkpt>
      <trkpt lat="56.718275975435972" lon="-3.899480039253831">
        <ele>186.15000000000001</ele>
        <time>2023-09-01T17:17:37Z</time>
      </trkpt>
      <trkpt lat="56.71803398989141" lon="-3.900647973641753">
        <ele>187.11000000000001</ele>
        <time>2023-09-01T17:17:42Z</time>
      </trkpt>
      <trkpt lat="56.717986967414618" lon="-3.9008769672364">
        <ele>188.08000000000001</ele>
        <time>2023-09-01T17:17:43Z</time>
      </trkpt>
      <trkpt lat="56.717705000191927" lon="-3.90291603282094">
        <ele>192.40000000000001</ele>
        <time>2023-09-01T17:17:51Z</time>
      </trkpt>
      <trkpt lat="56.717412974685431" lon="-3.904920984059572">
        <ele>195.77000000000001</ele>
        <time>2023-09-01T17:18:00Z</time>
      </trkpt>
      <trkpt lat="56.717324964702129" lon="-3.905373020097613">
        <ele>196.72999999999999</ele>
        <time>2023-09-01T17:18:02Z</time>
      </trkpt>
      <trkpt lat="56.717279031872749" lon="-3.905616011470556">
        <ele>196.72999999999999</ele>
        <time>2023-09-01T17:18:03Z</time>
      </trkpt>
      <trkpt lat="56.717235026881099" lon="-3.905842993408442">
        <ele>197.21000000000001</ele>
        <time>2023-09-01T17:18:04Z</time>
      </trkpt>
      <trkpt lat="56.716973008587956" lon="-3.907539993524551">
        <ele>196.72999999999999</ele>
        <time>2023-09-01T17:18:10Z</time>
      </trkpt>
      <trkpt lat="56.716933026909828" lon="-3.907887004315853">
        <ele>196.25</ele>
        <time>2023-09-01T17:18:11Z</time>
      </trkpt>
      <trkpt lat="56.716689029708505" lon="-3.910706005990505">
        <ele>193.36000000000001</ele>
        <time>2023-09-01T17:18:19Z</time>
      </trkpt>
      <trkpt lat="56.71642298810184" lon="-3.912604004144669">
        <ele>192.88</ele>
        <time>2023-09-01T17:18:26Z</time>
      </trkpt>
      <trkpt lat="56.716418964788318" lon="-3.91329400241375">
        <ele>193.36000000000001</ele>
        <time>2023-09-01T17:18:29Z</time>
      </trkpt>
      <trkpt lat="56.716469004750252" lon="-3.91378995962441">
        <ele>194.31999999999999</ele>
        <time>2023-09-01T17:18:31Z</time>
      </trkpt>
      <trkpt lat="56.716512003913522" lon="-3.914047032594681">
        <ele>194.80000000000001</ele>
        <time>2023-09-01T17:18:32Z</time>
      </trkpt>
      <trkpt lat="56.716834036633372" lon="-3.915964979678392">
        <ele>199.13</ele>
        <time>2023-09-01T17:18:40Z</time>
      </trkpt>
      <trkpt lat="56.716924980282784" lon="-3.916657995432615">
        <ele>201.05000000000001</ele>
        <time>2023-09-01T17:18:43Z</time>
      </trkpt>
      <trkpt lat="56.716950964182615" lon="-3.916872991248965">
        <ele>202.00999999999999</ele>
        <time>2023-09-01T17:18:44Z</time>
      </trkpt>
      <trkpt lat="56.716977031901479" lon="-3.917087987065315">
        <ele>202.49000000000001</ele>
        <time>2023-09-01T17:18:45Z</time>
      </trkpt>
      <trkpt lat="56.717004021629691" lon="-3.917301977053285">
        <ele>203.46000000000001</ele>
        <time>2023-09-01T17:18:46Z</time>
      </trkpt>
      <trkpt lat="56.717030005529523" lon="-3.917515967041254">
        <ele>203.94</ele>
        <time>2023-09-01T17:18:47Z</time>
      </trkpt>
      <trkpt lat="56.717056995257735" lon="-3.917734986171126">
        <ele>204.41999999999999</ele>
        <time>2023-09-01T17:18:48Z</time>
      </trkpt>
      <trkpt lat="56.717083984985948" lon="-3.917960040271282">
        <ele>204.90000000000001</ele>
        <time>2023-09-01T17:18:49Z</time>
      </trkpt>
      <trkpt lat="56.717160008847713" lon="-3.918578960001469">
        <ele>205.86000000000001</ele>
        <time>2023-09-01T17:18:52Z</time>
      </trkpt>
      <trkpt lat="56.717280959710479" lon="-3.919823002070189">
        <ele>208.25999999999999</ele>
        <time>2023-09-01T17:18:58Z</time>
      </trkpt>
      <trkpt lat="56.717295041307807" lon="-3.920029029250145">
        <ele>208.74000000000001</ele>
        <time>2023-09-01T17:18:59Z</time>
      </trkpt>
      <trkpt lat="56.717314990237355" lon="-3.920250982046127">
        <ele>209.22</ele>
        <time>2023-09-01T17:19:00Z</time>
      </trkpt>
      <trkpt lat="56.717472989112139" lon="-3.921352028846741">
        <ele>211.15000000000001</ele>
        <time>2023-09-01T17:19:05Z</time>
      </trkpt>
      <trkpt lat="56.717761997133493" lon="-3.923402996733785">
        <ele>214.99000000000001</ele>
        <time>2023-09-01T17:19:14Z</time>
      </trkpt>
      <trkpt lat="56.717918990179896" lon="-3.924730019643903">
        <ele>217.88</ele>
        <time>2023-09-01T17:19:20Z</time>
      </trkpt>
      <trkpt lat="56.717931982129812" lon="-3.924958007410169">
        <ele>218.36000000000001</ele>
        <time>2023-09-01T17:19:21Z</time>
      </trkpt>
      <trkpt lat="56.717943968251348" lon="-3.925187001004815">
        <ele>218.84</ele>
        <time>2023-09-01T17:19:22Z</time>
      </trkpt>
      <trkpt lat="56.71796903014183" lon="-3.925639959052205">
        <ele>218.84</ele>
        <time>2023-09-01T17:19:24Z</time>
      </trkpt>
      <trkpt lat="56.717981016263366" lon="-3.925868030637503">
        <ele>218.36000000000001</ele>
        <time>2023-09-01T17:19:25Z</time>
      </trkpt>
      <trkpt lat="56.718075983226299" lon="-3.92760400660336">
        <ele>217.40000000000001</ele>
        <time>2023-09-01T17:19:33Z</time>
      </trkpt>
      <trkpt lat="56.718151001259685" lon="-3.929621027782559">
        <ele>214.50999999999999</ele>
        <time>2023-09-01T17:19:43Z</time>
      </trkpt>
      <trkpt lat="56.718157958239317" lon="-3.93033298663795">
        <ele>213.06999999999999</ele>
        <time>2023-09-01T17:19:47Z</time>
      </trkpt>
      <trkpt lat="56.718159969896078" lon="-3.930524010211229">
        <ele>212.59</ele>
        <time>2023-09-01T17:19:48Z</time>
      </trkpt>
      <trkpt lat="56.718161981552839" lon="-3.930705981329083">
        <ele>212.11000000000001</ele>
        <time>2023-09-01T17:19:49Z</time>
      </trkpt>
      <trkpt lat="56.7181639932096" lon="-3.930874038487673">
        <ele>212.11000000000001</ele>
        <time>2023-09-01T17:19:50Z</time>
      </trkpt>
      <trkpt lat="56.718146977946162" lon="-3.931032037362456">
        <ele>212.11000000000001</ele>
        <time>2023-09-01T17:19:51Z</time>
      </trkpt>
      <trkpt lat="56.717898035421968" lon="-3.932977980002761">
        <ele>208.74000000000001</ele>
        <time>2023-09-01T17:20:02Z</time>
      </trkpt>
      <trkpt lat="56.717798039317131" lon="-3.933553984388709">
        <ele>208.25999999999999</ele>
        <time>2023-09-01T17:20:05Z</time>
      </trkpt>
      <trkpt lat="56.71753803268075" lon="-3.935111006721854">
        <ele>208.25999999999999</ele>
        <time>2023-09-01T17:20:13Z</time>
      </trkpt>
      <trkpt lat="56.717501990497112" lon="-3.93531602807343">
        <ele>207.78</ele>
        <time>2023-09-01T17:20:14Z</time>
      </trkpt>
      <trkpt lat="56.717390008270741" lon="-3.935945006087422">
        <ele>207.78</ele>
        <time>2023-09-01T17:20:17Z</time>
      </trkpt>
      <trkpt lat="56.717351032420993" lon="-3.936163019388914">
        <ele>207.78</ele>
        <time>2023-09-01T17:20:18Z</time>
      </trkpt>
      <trkpt lat="56.717279031872749" lon="-3.936360999941826">
        <ele>207.78</ele>
        <time>2023-09-01T17:20:19Z</time>
      </trkpt>
      <trkpt lat="56.717204013839364" lon="-3.93656300380826">
        <ele>208.25999999999999</ele>
        <time>2023-09-01T17:20:20Z</time>
      </trkpt>
      <trkpt lat="56.717132013291121" lon="-3.936756961047649">
        <ele>208.25999999999999</ele>
        <time>2023-09-01T17:20:21Z</time>
      </trkpt>
      <trkpt lat="56.717063030228019" lon="-3.936943039298058">
        <ele>208.74000000000001</ele>
        <time>2023-09-01T17:20:22Z</time>
      </trkpt>
      <trkpt lat="56.716862032189965" lon="-3.937487024813891">
        <ele>209.22</ele>
        <time>2023-09-01T17:20:25Z</time>
      </trkpt>
      <trkpt lat="56.716681988909841" lon="-3.938229996711016">
        <ele>210.19</ele>
        <time>2023-09-01T17:20:29Z</time>
      </trkpt>
      <trkpt lat="56.716614011675119" lon="-3.938592011108995">
        <ele>210.66999999999999</ele>
        <time>2023-09-01T17:20:31Z</time>
      </trkpt>
      <trkpt lat="56.716576041653752" lon="-3.938792003318667">
        <ele>210.66999999999999</ele>
        <time>2023-09-01T17:20:32Z</time>
      </trkpt>
      <trkpt lat="56.716559026390314" lon="-3.938958970829845">
        <ele>210.66999999999999</ele>
        <time>2023-09-01T17:20:33Z</time>
      </trkpt>
      <trkpt lat="56.716494988650084" lon="-3.939575040712953">
        <ele>209.69999999999999</ele>
        <time>2023-09-01T17:20:36Z</time>
      </trkpt>
      <trkpt lat="56.716471016407013" lon="-3.939810991287231">
        <ele>209.69999999999999</ele>
        <time>2023-09-01T17:20:37Z</time>
      </trkpt>
      <trkpt lat="56.716446960344911" lon="-3.94004300236702">
        <ele>209.22</ele>
        <time>2023-09-01T17:20:38Z</time>
      </trkpt>
      <trkpt lat="56.716419970616698" lon="-3.940261015668511">
        <ele>209.22</ele>
        <time>2023-09-01T17:20:39Z</time>
      </trkpt>
      <trkpt lat="56.716392980888486" lon="-3.940487997606397">
        <ele>208.74000000000001</ele>
        <time>2023-09-01T17:20:40Z</time>
      </trkpt>
      <trkpt lat="56.716363979503512" lon="-3.940725959837437">
        <ele>208.74000000000001</ele>
        <time>2023-09-01T17:20:41Z</time>
      </trkpt>
      <trkpt lat="56.716311005875468" lon="-3.941166009753943">
        <ele>208.25999999999999</ele>
        <time>2023-09-01T17:20:43Z</time>
      </trkpt>
      <trkpt lat="56.716165998950601" lon="-3.942311983555555">
        <ele>206.81999999999999</ele>
        <time>2023-09-01T17:20:48Z</time>
      </trkpt>
      <trkpt lat="56.715981010347605" lon="-3.943472038954496">
        <ele>204.41999999999999</ele>
        <time>2023-09-01T17:20:53Z</time>
      </trkpt>
      <trkpt lat="56.71594999730587" lon="-3.943668007850647">
        <ele>203.94</ele>
        <time>2023-09-01T17:20:54Z</time>
      </trkpt>
      <trkpt lat="56.715924013406038" lon="-3.943836987018585">
        <ele>203.46000000000001</ele>
        <time>2023-09-01T17:20:55Z</time>
      </trkpt>
      <trkpt lat="56.715889982879162" lon="-3.944048965349793">
        <ele>202.97999999999999</ele>
        <time>2023-09-01T17:20:56Z</time>
      </trkpt>
      <trkpt lat="56.715871039777994" lon="-3.944226996973157">
        <ele>202.49000000000001</ele>
        <time>2023-09-01T17:20:57Z</time>
      </trkpt>
      <trkpt lat="56.715825023129582" lon="-3.944678027182818">
        <ele>201.05000000000001</ele>
        <time>2023-09-01T17:20:59Z</time>
      </trkpt>
      <trkpt lat="56.715684039518237" lon="-3.9458860270679">
        <ele>198.16999999999999</ele>
        <time>2023-09-01T17:21:03Z</time>
      </trkpt>
      <trkpt lat="56.715632993727922" lon="-3.946236977353692">
        <ele>197.21000000000001</ele>
        <time>2023-09-01T17:21:04Z</time>
      </trkpt>
      <trkpt lat="56.715583959594369" lon="-3.946565967053175">
        <ele>195.77000000000001</ele>
        <time>2023-09-01T17:21:05Z</time>
      </trkpt>
      <trkpt lat="56.71554003842175" lon="-3.946870984509587">
        <ele>194.80000000000001</ele>
        <time>2023-09-01T17:21:06Z</time>
      </trkpt>
      <trkpt lat="56.715502990409732" lon="-3.947116993367672">
        <ele>193.84</ele>
        <time>2023-09-01T17:21:07Z</time>
      </trkpt>
      <trkpt lat="56.715493015944958" lon="-3.947302987799048">
        <ele>192.88</ele>
        <time>2023-09-01T17:21:08Z</time>
      </trkpt>
      <trkpt lat="56.715478012338281" lon="-3.947575986385346">
        <ele>191.44</ele>
        <time>2023-09-01T17:21:09Z</time>
      </trkpt>
      <trkpt lat="56.715464014559984" lon="-3.947816966101527">
        <ele>190.47999999999999</ele>
        <time>2023-09-01T17:21:10Z</time>
      </trkpt>
      <trkpt lat="56.715439036488533" lon="-3.948255004361272">
        <ele>189.03999999999999</ele>
        <time>2023-09-01T17:21:12Z</time>
      </trkpt>
      <trkpt lat="56.715436019003391" lon="-3.948512999340892">
        <ele>188.08000000000001</ele>
        <time>2023-09-01T17:21:13Z</time>
      </trkpt>
      <trkpt lat="56.715431995689869" lon="-3.948770994320512">
        <ele>187.11000000000001</ele>
        <time>2023-09-01T17:21:14Z</time>
      </trkpt>
      <trkpt lat="56.715411962941289" lon="-3.950246963649988">
        <ele>185.19</ele>
        <time>2023-09-01T17:21:20Z</time>
      </trkpt>
      <trkpt lat="56.715343985706568" lon="-3.951841033995152">
        <ele>185.66999999999999</ele>
        <time>2023-09-01T17:21:27Z</time>
      </trkpt>
      <trkpt lat="56.71515204012394" lon="-3.953529987484217">
        <ele>185.19</ele>
        <time>2023-09-01T17:21:34Z</time>
      </trkpt>
      <trkpt lat="56.71485397964716" lon="-3.956140028312802">
        <ele>179.41999999999999</ele>
        <time>2023-09-01T17:21:43Z</time>
      </trkpt>
      <trkpt lat="56.714720958843827" lon="-3.957766033709049">
        <ele>176.06</ele>
        <time>2023-09-01T17:21:49Z</time>
      </trkpt>
      <trkpt lat="56.714701009914279" lon="-3.958020005375147">
        <ele>175.58000000000001</ele>
        <time>2023-09-01T17:21:50Z</time>
      </trkpt>
      <trkpt lat="56.714533036574721" lon="-3.95935800857842">
        <ele>170.77000000000001</ele>
        <time>2023-09-01T17:21:55Z</time>
      </trkpt>
      <trkpt lat="56.714494982734323" lon="-3.959643999114633">
        <ele>169.33000000000001</ele>
        <time>2023-09-01T17:21:56Z</time>
      </trkpt>
      <trkpt lat="56.714456006884575" lon="-3.959941975772381">
        <ele>167.88999999999999</ele>
        <time>2023-09-01T17:21:57Z</time>
      </trkpt>
      <trkpt lat="56.714433962479234" lon="-3.960252022370696">
        <ele>166.93000000000001</ele>
        <time>2023-09-01T17:21:58Z</time>
      </trkpt>
      <trkpt lat="56.714415019378066" lon="-3.960557961836457">
        <ele>165.47999999999999</ele>
        <time>2023-09-01T17:21:59Z</time>
      </trkpt>
      <trkpt lat="56.714395992457867" lon="-3.960865996778011">
        <ele>164.03999999999999</ele>
        <time>2023-09-01T17:22:00Z</time>
      </trkpt>
      <trkpt lat="56.714375959709287" lon="-3.961186017841101">
        <ele>162.59999999999999</ele>
        <time>2023-09-01T17:22:01Z</time>
      </trkpt>
      <trkpt lat="56.714355004951358" lon="-3.961518025025725">
        <ele>161.16</ele>
        <time>2023-09-01T17:22:02Z</time>
      </trkpt>
      <trkpt lat="56.714333966374397" lon="-3.96185003221035">
        <ele>160.19999999999999</ele>
        <time>2023-09-01T17:22:03Z</time>
      </trkpt>
      <trkpt lat="56.714314017444849" lon="-3.962166029959917">
        <ele>158.75</ele>
        <time>2023-09-01T17:22:04Z</time>
      </trkpt>
      <trkpt lat="56.71429499052465" lon="-3.962479010224342">
        <ele>157.31</ele>
        <time>2023-09-01T17:22:05Z</time>
      </trkpt>
      <trkpt lat="56.714235981926322" lon="-3.963406970724464">
        <ele>154.43000000000001</ele>
        <time>2023-09-01T17:22:08Z</time>
      </trkpt>
      <trkpt lat="56.714087035506964" lon="-3.965786006301642">
        <ele>148.66</ele>
        <time>2023-09-01T17:22:17Z</time>
      </trkpt>
      <trkpt lat="56.714032972231507" lon="-3.966128993779421">
        <ele>148.66</ele>
        <time>2023-09-01T17:22:18Z</time>
      </trkpt>
      <trkpt lat="56.713992990553379" lon="-3.966387994587421">
        <ele>148.66</ele>
        <time>2023-09-01T17:22:19Z</time>
      </trkpt>
      <trkpt lat="56.713953008875251" lon="-3.9666429720819">
        <ele>148.66</ele>
        <time>2023-09-01T17:22:20Z</time>
      </trkpt>
      <trkpt lat="56.713707000017166" lon="-3.967589037492871">
        <ele>148.18000000000001</ele>
        <time>2023-09-01T17:22:24Z</time>
      </trkpt>
      <trkpt lat="56.713626030832529" lon="-3.967748964205384">
        <ele>148.66</ele>
        <time>2023-09-01T17:22:25Z</time>
      </trkpt>
      <trkpt lat="56.713560987263918" lon="-3.967868993058801">
        <ele>148.66</ele>
        <time>2023-09-01T17:22:26Z</time>
      </trkpt>
      <trkpt lat="56.713477000594139" lon="-3.967903023585677">
        <ele>148.66</ele>
        <time>2023-09-01T17:22:27Z</time>
      </trkpt>
      <trkpt lat="56.713410029187799" lon="-3.967900006100535">
        <ele>149.13999999999999</ele>
        <time>2023-09-01T17:22:28Z</time>
      </trkpt>
      <trkpt lat="56.713334005326033" lon="-3.967877961695194">
        <ele>148.66</ele>
        <time>2023-09-01T17:22:29Z</time>
      </trkpt>
      <trkpt lat="56.713255969807506" lon="-3.967854995280504">
        <ele>148.66</ele>
        <time>2023-09-01T17:22:30Z</time>
      </trkpt>
      <trkpt lat="56.713168965652585" lon="-3.967830017209053">
        <ele>148.66</ele>
        <time>2023-09-01T17:22:31Z</time>
      </trkpt>
      <trkpt lat="56.713073998689651" lon="-3.96780202165246">
        <ele>148.18000000000001</ele>
        <time>2023-09-01T17:22:32Z</time>
      </trkpt>
      <trkpt lat="56.712976014241576" lon="-3.967774026095867">
        <ele>148.18000000000001</ele>
        <time>2023-09-01T17:22:33Z</time>
      </trkpt>
      <trkpt lat="56.712764035910368" lon="-3.967808978632093">
        <ele>147.69999999999999</ele>
        <time>2023-09-01T17:22:35Z</time>
      </trkpt>
      <trkpt lat="56.712586004287004" lon="-3.967922972515225">
        <ele>146.74000000000001</ele>
        <time>2023-09-01T17:22:37Z</time>
      </trkpt>
      <trkpt lat="56.712520960718393" lon="-3.96797401830554">
        <ele>145.78</ele>
        <time>2023-09-01T17:22:38Z</time>
      </trkpt>
      <trkpt lat="56.712405038997531" lon="-3.968133023008704">
        <ele>144.34</ele>
        <time>2023-09-01T17:22:40Z</time>
      </trkpt>
      <trkpt lat="56.712342007085681" lon="-3.968226984143257">
        <ele>142.88999999999999</ele>
        <time>2023-09-01T17:22:41Z</time>
      </trkpt>
      <trkpt lat="56.712269000709057" lon="-3.968405015766621">
        <ele>141.44999999999999</ele>
        <time>2023-09-01T17:22:42Z</time>
      </trkpt>
      <trkpt lat="56.712201023474336" lon="-3.968571983277798">
        <ele>140.49000000000001</ele>
        <time>2023-09-01T17:22:43Z</time>
      </trkpt>
      <trkpt lat="56.712149977684021" lon="-3.968723025172949">
        <ele>139.05000000000001</ele>
        <time>2023-09-01T17:22:44Z</time>
      </trkpt>
      <trkpt lat="56.712114019319415" lon="-3.968955958262086">
        <ele>137.61000000000001</ele>
        <time>2023-09-01T17:22:45Z</time>
      </trkpt>
      <trkpt lat="56.712075965479016" lon="-3.969209007918835">
        <ele>136.16</ele>
        <time>2023-09-01T17:22:46Z</time>
      </trkpt>
      <trkpt lat="56.71176197938621" lon="-3.971263999119401">
        <ele>126.55</ele>
        <time>2023-09-01T17:22:53Z</time>
      </trkpt>
      <trkpt lat="56.711533991619945" lon="-3.972758995369077">
        <ele>119.34</ele>
        <time>2023-09-01T17:22:58Z</time>
      </trkpt>
      <trkpt lat="56.711363000795245" lon="-3.973327958956361">
        <ele>116.45999999999999</ele>
        <time>2023-09-01T17:23:00Z</time>
      </trkpt>
      <trkpt lat="56.711218999698758" lon="-3.973673963919282">
        <ele>113.09</ele>
        <time>2023-09-01T17:23:02Z</time>
      </trkpt>
      <trkpt lat="56.710892021656036" lon="-3.974474016577005">
        <ele>104.92</ele>
        <time>2023-09-01T17:23:07Z</time>
      </trkpt>
      <trkpt lat="56.71083795838058" lon="-3.974671997129917">
        <ele>103.95999999999999</ele>
        <time>2023-09-01T17:23:08Z</time>
      </trkpt>
      <trkpt lat="56.710795965045691" lon="-3.974882969632745">
        <ele>103</ele>
        <time>2023-09-01T17:23:09Z</time>
      </trkpt>
      <trkpt lat="56.710759000852704" lon="-3.975087990984321">
        <ele>101.56</ele>
        <time>2023-09-01T17:23:10Z</time>
      </trkpt>
      <trkpt lat="56.710741985589266" lon="-3.975332994014025">
        <ele>100.59999999999999</ele>
        <time>2023-09-01T17:23:11Z</time>
      </trkpt>
      <trkpt lat="56.710641989484429" lon="-3.976770993322134">
        <ele>99.150000000000006</ele>
        <time>2023-09-01T17:23:17Z</time>
      </trkpt>
      <trkpt lat="56.710625980049372" lon="-3.976999986916781">
        <ele>99.150000000000006</ele>
        <time>2023-09-01T17:23:18Z</time>
      </trkpt>
      <trkpt lat="56.710609970614314" lon="-3.977225041016936">
        <ele>99.629999999999995</ele>
        <time>2023-09-01T17:23:19Z</time>
      </trkpt>
      <trkpt lat="56.710549034178257" lon="-3.977452022954822">
        <ele>100.11</ele>
        <time>2023-09-01T17:23:20Z</time>
      </trkpt>
      <trkpt lat="56.710489019751549" lon="-3.977674981579185">
        <ele>99.629999999999995</ele>
        <time>2023-09-01T17:23:21Z</time>
      </trkpt>
      <trkpt lat="56.710417019203305" lon="-3.977883020415902">
        <ele>99.150000000000006</ele>
        <time>2023-09-01T17:23:22Z</time>
      </trkpt>
      <trkpt lat="56.710337977856398" lon="-3.978070020675659">
        <ele>98.670000000000002</ele>
        <time>2023-09-01T17:23:23Z</time>
      </trkpt>
      <trkpt lat="56.710260026156902" lon="-3.978254003450275">
        <ele>98.189999999999998</ele>
        <time>2023-09-01T17:23:24Z</time>
      </trkpt>
      <trkpt lat="56.71017000451684" lon="-3.978449972346425">
        <ele>97.709999999999994</ele>
        <time>2023-09-01T17:23:25Z</time>
      </trkpt>
      <trkpt lat="56.709972023963928" lon="-3.978851968422532">
        <ele>97.230000000000004</ele>
        <time>2023-09-01T17:23:27Z</time>
      </trkpt>
      <trkpt lat="56.709868004545569" lon="-3.979062018916011">
        <ele>97.230000000000004</ele>
        <time>2023-09-01T17:23:28Z</time>
      </trkpt>
      <trkpt lat="56.709652002900839" lon="-3.979499973356724">
        <ele>97.230000000000004</ele>
        <time>2023-09-01T17:23:30Z</time>
      </trkpt>
      <trkpt lat="56.709298035129905" lon="-3.98035098798573">
        <ele>96.269999999999996</ele>
        <time>2023-09-01T17:23:34Z</time>
      </trkpt>
      <trkpt lat="56.70924698933959" lon="-3.980577969923616">
        <ele>96.269999999999996</ele>
        <time>2023-09-01T17:23:35Z</time>
      </trkpt>
      <trkpt lat="56.709199966862798" lon="-3.980834959074855">
        <ele>96.269999999999996</ele>
        <time>2023-09-01T17:23:36Z</time>
      </trkpt>
      <trkpt lat="56.708795037120581" lon="-3.983020959421992">
        <ele>96.75</ele>
        <time>2023-09-01T17:23:43Z</time>
      </trkpt>
      <trkpt lat="56.708407960832119" lon="-3.984988024458289">
        <ele>97.709999999999994</ele>
        <time>2023-09-01T17:23:50Z</time>
      </trkpt>
      <trkpt lat="56.708263037726283" lon="-3.985477024689317">
        <ele>97.709999999999994</ele>
        <time>2023-09-01T17:23:52Z</time>
      </trkpt>
      <trkpt lat="56.708047958090901" lon="-3.986199041828513">
        <ele>97.709999999999994</ele>
        <time>2023-09-01T17:23:55Z</time>
      </trkpt>
      <trkpt lat="56.707990039139986" lon="-3.986394004896283">
        <ele>98.189999999999998</ele>
        <time>2023-09-01T17:23:56Z</time>
      </trkpt>
      <trkpt lat="56.707903034985065" lon="-3.98703396320343">
        <ele>99.150000000000006</ele>
        <time>2023-09-01T17:23:59Z</time>
      </trkpt>
      <trkpt lat="56.707886019721627" lon="-3.987329006195068">
        <ele>99.150000000000006</ele>
        <time>2023-09-01T17:24:00Z</time>
      </trkpt>
      <trkpt lat="56.70791300944984" lon="-3.987728990614414">
        <ele>99.629999999999995</ele>
        <time>2023-09-01T17:24:02Z</time>
      </trkpt>
      <trkpt lat="56.707976963371038" lon="-3.988695004954934">
        <ele>101.56</ele>
        <time>2023-09-01T17:24:06Z</time>
      </trkpt>
      <trkpt lat="56.70795701444149" lon="-3.989199008792639">
        <ele>102.04000000000001</ele>
        <time>2023-09-01T17:24:08Z</time>
      </trkpt>
      <trkpt lat="56.707918038591743" lon="-3.989473013207316">
        <ele>102.52</ele>
        <time>2023-09-01T17:24:09Z</time>
      </trkpt>
      <trkpt lat="56.707880990579724" lon="-3.989736959338188">
        <ele>102.52</ele>
        <time>2023-09-01T17:24:10Z</time>
      </trkpt>
      <trkpt lat="56.707740006968379" lon="-3.990743961185217">
        <ele>103.48</ele>
        <time>2023-09-01T17:24:14Z</time>
      </trkpt>
      <trkpt lat="56.707702958956361" lon="-3.991003967821598">
        <ele>103</ele>
        <time>2023-09-01T17:24:15Z</time>
      </trkpt>
      <trkpt lat="56.707620983943343" lon="-3.992011975497007">
        <ele>101.56</ele>
        <time>2023-09-01T17:24:19Z</time>
      </trkpt>
      <trkpt lat="56.707616960629821" lon="-3.992267036810517">
        <ele>102.04000000000001</ele>
        <time>2023-09-01T17:24:20Z</time>
      </trkpt>
      <trkpt lat="56.70761302113533" lon="-3.992544980719686">
        <ele>102.52</ele>
        <time>2023-09-01T17:24:21Z</time>
      </trkpt>
      <trkpt lat="56.707608997821808" lon="-3.992820996791124">
        <ele>102.52</ele>
        <time>2023-09-01T17:24:22Z</time>
      </trkpt>
      <trkpt lat="56.707600029185414" lon="-3.993073962628841">
        <ele>103.48</ele>
        <time>2023-09-01T17:24:23Z</time>
      </trkpt>
      <trkpt lat="56.707586031407118" lon="-3.993319971486926">
        <ele>103.48</ele>
        <time>2023-09-01T17:24:24Z</time>
      </trkpt>
      <trkpt lat="56.70756901614368" lon="-3.993600010871887">
        <ele>104.44</ele>
        <time>2023-09-01T17:24:25Z</time>
      </trkpt>
      <trkpt lat="56.707522999495268" lon="-3.994396962225437">
        <ele>105.40000000000001</ele>
        <time>2023-09-01T17:24:28Z</time>
      </trkpt>
      <trkpt lat="56.707542026415467" lon="-3.996268976479769">
        <ele>111.65000000000001</ele>
        <time>2023-09-01T17:24:35Z</time>
      </trkpt>
      <trkpt lat="56.70757002197206" lon="-3.996566031128168">
        <ele>112.13</ele>
        <time>2023-09-01T17:24:36Z</time>
      </trkpt>
      <trkpt lat="56.707605980336666" lon="-3.996836012229323">
        <ele>112.61</ele>
        <time>2023-09-01T17:24:37Z</time>
      </trkpt>
      <trkpt lat="56.707682004198432" lon="-3.997369017452002">
        <ele>114.05</ele>
        <time>2023-09-01T17:24:39Z</time>
      </trkpt>
      <trkpt lat="56.70774101279676" lon="-3.997598011046648">
        <ele>115.01000000000001</ele>
        <time>2023-09-01T17:24:40Z</time>
      </trkpt>
      <trkpt lat="56.707904962822795" lon="-3.998233024030924">
        <ele>117.42</ele>
        <time>2023-09-01T17:24:43Z</time>
      </trkpt>
      <trkpt lat="56.70795600861311" lon="-3.998429998755455">
        <ele>118.86</ele>
        <time>2023-09-01T17:24:44Z</time>
      </trkpt>
      <trkpt lat="56.707998001947999" lon="-3.998642982915044">
        <ele>119.81999999999999</ele>
        <time>2023-09-01T17:24:45Z</time>
      </trkpt>
      <trkpt lat="56.708014011383057" lon="-3.998883040621877">
        <ele>120.78</ele>
        <time>2023-09-01T17:24:46Z</time>
      </trkpt>
      <trkpt lat="56.708030020818114" lon="-3.99912997148931">
        <ele>121.26000000000001</ele>
        <time>2023-09-01T17:24:47Z</time>
      </trkpt>
      <trkpt lat="56.708046030253172" lon="-3.999374974519014">
        <ele>121.73999999999999</ele>
        <time>2023-09-01T17:24:48Z</time>
      </trkpt>
      <trkpt lat="56.70806203968823" lon="-3.999624000862241">
        <ele>122.22</ele>
        <time>2023-09-01T17:24:49Z</time>
      </trkpt>
      <trkpt lat="56.708156000822783" lon="-4.000648017972708">
        <ele>125.11</ele>
        <time>2023-09-01T17:24:53Z</time>
      </trkpt>
      <trkpt lat="56.70821500942111" lon="-4.000858990475535">
        <ele>126.06999999999999</ele>
        <time>2023-09-01T17:24:54Z</time>
      </trkpt>
      <trkpt lat="56.708273012191057" lon="-4.001068035140634">
        <ele>127.03</ele>
        <time>2023-09-01T17:24:55Z</time>
      </trkpt>
      <trkpt lat="56.708437968045473" lon="-4.001658959314227">
        <ele>129.43000000000001</ele>
        <time>2023-09-01T17:24:58Z</time>
      </trkpt>
      <trkpt lat="56.708487002179027" lon="-4.001855012029409">
        <ele>130.40000000000001</ele>
        <time>2023-09-01T17:24:59Z</time>
      </trkpt>
      <trkpt lat="56.708487002179027" lon="-4.002069002017379">
        <ele>131.36000000000001</ele>
        <time>2023-09-01T17:25:00Z</time>
      </trkpt>
      <trkpt lat="56.708487002179027" lon="-4.00230897590518">
        <ele>132.31999999999999</ele>
        <time>2023-09-01T17:25:01Z</time>
      </trkpt>
      <trkpt lat="56.708482978865504" lon="-4.00256403721869">
        <ele>133.28</ele>
        <time>2023-09-01T17:25:02Z</time>
      </trkpt>
      <trkpt lat="56.708401003852487" lon="-4.004610981792212">
        <ele>138.09</ele>
        <time>2023-09-01T17:25:10Z</time>
      </trkpt>
      <trkpt lat="56.708401003852487" lon="-4.0048239659518">
        <ele>138.09</ele>
        <time>2023-09-01T17:25:11Z</time>
      </trkpt>
      <trkpt lat="56.708401003852487" lon="-4.005052959546447">
        <ele>138.09</ele>
        <time>2023-09-01T17:25:12Z</time>
      </trkpt>
      <trkpt lat="56.708431011065841" lon="-4.005238031968474">
        <ele>137.61000000000001</ele>
        <time>2023-09-01T17:25:13Z</time>
      </trkpt>
      <trkpt lat="56.708465041592717" lon="-4.005450010299683">
        <ele>137.61000000000001</ele>
        <time>2023-09-01T17:25:14Z</time>
      </trkpt>
      <trkpt lat="56.708499994128942" lon="-4.005670035257936">
        <ele>137.61000000000001</ele>
        <time>2023-09-01T17:25:15Z</time>
      </trkpt>
      <trkpt lat="56.708743991330266" lon="-4.007300985977054">
        <ele>140.00999999999999</ele>
        <time>2023-09-01T17:25:22Z</time>
      </trkpt>
      <trkpt lat="56.708786990493536" lon="-4.008529018610716">
        <ele>140.97</ele>
        <time>2023-09-01T17:25:27Z</time>
      </trkpt>
      <trkpt lat="56.708786990493536" lon="-4.008529018610716">
        <ele>140.97</ele>
        <time>2023-09-01T17:25:28Z</time>
      </trkpt>
      <trkpt lat="56.708706021308899" lon="-4.009491009637713">
        <ele>142.41</ele>
        <time>2023-09-01T17:25:33Z</time>
      </trkpt>
      <trkpt lat="56.708582974970341" lon="-4.010942000895739">
        <ele>143.84999999999999</ele>
        <time>2023-09-01T17:25:42Z</time>
      </trkpt>
      <trkpt lat="56.708570988848805" lon="-4.011089019477367">
        <ele>143.84999999999999</ele>
        <time>2023-09-01T17:25:43Z</time>
      </trkpt>
      <trkpt lat="56.70855799689889" lon="-4.011236038058996">
        <ele>143.37</ele>
        <time>2023-09-01T17:25:44Z</time>
      </trkpt>
      <trkpt lat="56.708541987463832" lon="-4.011392025277019">
        <ele>143.37</ele>
        <time>2023-09-01T17:25:45Z</time>
      </trkpt>
      <trkpt lat="56.708523966372013" lon="-4.011543989181519">
        <ele>143.37</ele>
        <time>2023-09-01T17:25:46Z</time>
      </trkpt>
      <trkpt lat="56.708467975258827" lon="-4.012024020776153">
        <ele>143.37</ele>
        <time>2023-09-01T17:25:49Z</time>
      </trkpt>
      <trkpt lat="56.70845003798604" lon="-4.012176990509033">
        <ele>142.88999999999999</ele>
        <time>2023-09-01T17:25:50Z</time>
      </trkpt>
      <trkpt lat="56.708431011065841" lon="-4.012338006868959">
        <ele>142.88999999999999</ele>
        <time>2023-09-01T17:25:51Z</time>
      </trkpt>
      <trkpt lat="56.708388011902571" lon="-4.012695997953415">
        <ele>142.41</ele>
        <time>2023-09-01T17:25:53Z</time>
      </trkpt>
      <trkpt lat="56.708368984982371" lon="-4.012860031798482">
        <ele>141.44999999999999</ele>
        <time>2023-09-01T17:25:54Z</time>
      </trkpt>
      <trkpt lat="56.708351969718933" lon="-4.013000009581447">
        <ele>140.97</ele>
        <time>2023-09-01T17:25:55Z</time>
      </trkpt>
      <trkpt lat="56.708334032446146" lon="-4.013150967657566">
        <ele>140.00999999999999</ele>
        <time>2023-09-01T17:25:56Z</time>
      </trkpt>
      <trkpt lat="56.708318023011088" lon="-4.013293962925673">
        <ele>139.05000000000001</ele>
        <time>2023-09-01T17:25:57Z</time>
      </trkpt>
      <trkpt lat="56.708222972229123" lon="-4.013742981478572">
        <ele>135.68000000000001</ele>
        <time>2023-09-01T17:26:00Z</time>
      </trkpt>
      <trkpt lat="56.70810897834599" lon="-4.014271041378379">
        <ele>131.84</ele>
        <time>2023-09-01T17:26:03Z</time>
      </trkpt>
      <trkpt lat="56.707846038043499" lon="-4.015675010159612">
        <ele>123.19</ele>
        <time>2023-09-01T17:26:11Z</time>
      </trkpt>
      <trkpt lat="56.707644034177065" lon="-4.017086019739509">
        <ele>119.34</ele>
        <time>2023-09-01T17:26:19Z</time>
      </trkpt>
      <trkpt lat="56.707533979788423" lon="-4.018234005197883">
        <ele>115.5</ele>
        <time>2023-09-01T17:26:26Z</time>
      </trkpt>
      <trkpt lat="56.707518976181746" lon="-4.01842201128602">
        <ele>115.01000000000001</ele>
        <time>2023-09-01T17:26:27Z</time>
      </trkpt>
      <trkpt lat="56.70750598423183" lon="-4.018596019595861">
        <ele>114.05</ele>
        <time>2023-09-01T17:26:28Z</time>
      </trkpt>
      <trkpt lat="56.707493998110294" lon="-4.018758041784167">
        <ele>113.56999999999999</ele>
        <time>2023-09-01T17:26:29Z</time>
      </trkpt>
      <trkpt lat="56.707477988675237" lon="-4.01895803399384">
        <ele>112.61</ele>
        <time>2023-09-01T17:26:30Z</time>
      </trkpt>
      <trkpt lat="56.707477988675237" lon="-4.01895803399384">
        <ele>111.65000000000001</ele>
        <time>2023-09-01T17:26:31Z</time>
      </trkpt>
      <trkpt lat="56.707477988675237" lon="-4.019180992618203">
        <ele>110.69</ele>
        <time>2023-09-01T17:26:32Z</time>
      </trkpt>
      <trkpt lat="56.707477988675237" lon="-4.019331028684974">
        <ele>109.73</ele>
        <time>2023-09-01T17:26:33Z</time>
      </trkpt>
      <trkpt lat="56.707477988675237" lon="-4.0194730181247">
        <ele>108.77</ele>
        <time>2023-09-01T17:26:34Z</time>
      </trkpt>
      <trkpt lat="56.707552000880241" lon="-4.020656039938331">
        <ele>110.69</ele>
        <time>2023-09-01T17:26:42Z</time>
      </trkpt>
      <trkpt lat="56.707950979471207" lon="-4.022141983732581">
        <ele>117.42</ele>
        <time>2023-09-01T17:26:52Z</time>
      </trkpt>
      <trkpt lat="56.708126999437809" lon="-4.022525036707521">
        <ele>120.78</ele>
        <time>2023-09-01T17:26:55Z</time>
      </trkpt>
      <trkpt lat="56.708143008872867" lon="-4.022605000063777">
        <ele>121.73999999999999</ele>
        <time>2023-09-01T17:26:56Z</time>
      </trkpt>
      <trkpt lat="56.708153989166021" lon="-4.022657973691821">
        <ele>122.70999999999999</ele>
        <time>2023-09-01T17:26:57Z</time>
      </trkpt>
      <trkpt lat="56.708163041621447" lon="-4.022701978683472">
        <ele>123.67</ele>
        <time>2023-09-01T17:26:58Z</time>
      </trkpt>
      <trkpt lat="56.70817201025784" lon="-4.022749001160264">
        <ele>124.15000000000001</ele>
        <time>2023-09-01T17:26:59Z</time>
      </trkpt>
      <trkpt lat="56.708134040236473" lon="-4.022885039448738">
        <ele>125.11</ele>
        <time>2023-09-01T17:27:00Z</time>
      </trkpt>
      <trkpt lat="56.708101015537977" lon="-4.022927032783628">
        <ele>126.06999999999999</ele>
        <time>2023-09-01T17:27:01Z</time>
      </trkpt>
      <trkpt lat="56.70806203968823" lon="-4.022985035553575">
        <ele>127.51000000000001</ele>
        <time>2023-09-01T17:27:02Z</time>
      </trkpt>
      <trkpt lat="56.708004036918283" lon="-4.023072961717844">
        <ele>128.47</ele>
        <time>2023-09-01T17:27:03Z</time>
      </trkpt>
      <trkpt lat="56.707817036658525" lon="-4.023353001102805">
        <ele>131.36000000000001</ele>
        <time>2023-09-01T17:27:07Z</time>
      </trkpt>
      <trkpt lat="56.707692984491587" lon="-4.023481998592615">
        <ele>132.31999999999999</ele>
        <time>2023-09-01T17:27:08Z</time>
      </trkpt>
      <trkpt lat="56.707586031407118" lon="-4.023549975827336">
        <ele>133.75999999999999</ele>
        <time>2023-09-01T17:27:09Z</time>
      </trkpt>
      <trkpt lat="56.707586031407118" lon="-4.023549975827336">
        <ele>134.72</ele>
        <time>2023-09-01T17:27:10Z</time>
      </trkpt>
      <trkpt lat="56.707430966198444" lon="-4.023455008864403">
        <ele>135.68000000000001</ele>
        <time>2023-09-01T17:27:11Z</time>
      </trkpt>
      <trkpt lat="56.70737698674202" lon="-4.023357024416328">
        <ele>137.61000000000001</ele>
        <time>2023-09-01T17:27:13Z</time>
      </trkpt>
      <trkpt lat="56.707178000360727" lon="-4.022991992533207">
        <ele>138.09</ele>
        <time>2023-09-01T17:27:15Z</time>
      </trkpt>
      <trkpt lat="56.707145981490612" lon="-4.022897025570273">
        <ele>138.56999999999999</ele>
        <time>2023-09-01T17:27:16Z</time>
      </trkpt>
      <trkpt lat="56.706999968737364" lon="-4.022466028109193">
        <ele>138.56999999999999</ele>
        <time>2023-09-01T17:27:19Z</time>
      </trkpt>
      <trkpt lat="56.706955963745713" lon="-4.022335018962622">
        <ele>138.56999999999999</ele>
        <time>2023-09-01T17:27:20Z</time>
      </trkpt>
      <trkpt lat="56.706825038418174" lon="-4.021948026493192">
        <ele>139.05000000000001</ele>
        <time>2023-09-01T17:27:23Z</time>
      </trkpt>
      <trkpt lat="56.706780027598143" lon="-4.021813999861479">
        <ele>139.53</ele>
        <time>2023-09-01T17:27:24Z</time>
      </trkpt>
      <trkpt lat="56.70673300512135" lon="-4.021674022078514">
        <ele>140.00999999999999</ele>
        <time>2023-09-01T17:27:25Z</time>
      </trkpt>
      <trkpt lat="56.706684976816177" lon="-4.021532032638788">
        <ele>140.49000000000001</ele>
        <time>2023-09-01T17:27:26Z</time>
      </trkpt>
      <trkpt lat="56.706620017066598" lon="-4.021338997408748">
        <ele>140.97</ele>
        <time>2023-09-01T17:27:27Z</time>
      </trkpt>
      <trkpt lat="56.706377025693655" lon="-4.020265024155378">
        <ele>145.30000000000001</ele>
        <time>2023-09-01T17:27:34Z</time>
      </trkpt>
      <trkpt lat="56.706296978518367" lon="-4.019702011719346">
        <ele>146.25999999999999</ele>
        <time>2023-09-01T17:27:37Z</time>
      </trkpt>
      <trkpt lat="56.706288009881973" lon="-4.018903970718384">
        <ele>146.74000000000001</ele>
        <time>2023-09-01T17:27:43Z</time>
      </trkpt>
      <trkpt lat="56.70628197491169" lon="-4.01844397187233">
        <ele>147.22</ele>
        <time>2023-09-01T17:27:45Z</time>
      </trkpt>
      <trkpt lat="56.706280969083309" lon="-4.018282033503056">
        <ele>147.22</ele>
        <time>2023-09-01T17:27:46Z</time>
      </trkpt>
      <trkpt lat="56.70626001432538" lon="-4.016562988981605">
        <ele>146.25999999999999</ele>
        <time>2023-09-01T17:27:56Z</time>
      </trkpt>
      <trkpt lat="56.706250961869955" lon="-4.015772994607687">
        <ele>143.84999999999999</ele>
        <time>2023-09-01T17:28:00Z</time>
      </trkpt>
      <trkpt lat="56.706248028203845" lon="-4.015545006841421">
        <ele>142.88999999999999</ele>
        <time>2023-09-01T17:28:01Z</time>
      </trkpt>
      <trkpt lat="56.706235958263278" lon="-4.014556026086211">
        <ele>140.97</ele>
        <time>2023-09-01T17:28:05Z</time>
      </trkpt>
      <trkpt lat="56.706233024597168" lon="-4.014297025278211">
        <ele>140.49000000000001</ele>
        <time>2023-09-01T17:28:06Z</time>
      </trkpt>
      <trkpt lat="56.706230007112026" lon="-4.01403802447021">
        <ele>140.00999999999999</ele>
        <time>2023-09-01T17:28:07Z</time>
      </trkpt>
      <trkpt lat="56.706208968535066" lon="-4.012272041290999">
        <ele>140.00999999999999</ele>
        <time>2023-09-01T17:28:14Z</time>
      </trkpt>
      <trkpt lat="56.706206034868956" lon="-4.012031983584166">
        <ele>140.49000000000001</ele>
        <time>2023-09-01T17:28:15Z</time>
      </trkpt>
      <trkpt lat="56.706181978806853" lon="-4.010718036442995">
        <ele>142.88999999999999</ele>
        <time>2023-09-01T17:28:21Z</time>
      </trkpt>
      <trkpt lat="56.70615297742188" lon="-4.010492982342839">
        <ele>142.88999999999999</ele>
        <time>2023-09-01T17:28:22Z</time>
      </trkpt>
      <trkpt lat="56.706115007400513" lon="-4.010246973484755">
        <ele>143.37</ele>
        <time>2023-09-01T17:28:23Z</time>
      </trkpt>
      <trkpt lat="56.705675963312387" lon="-4.008668996393681">
        <ele>142.88999999999999</ele>
        <time>2023-09-01T17:28:30Z</time>
      </trkpt>
      <trkpt lat="56.705109011381865" lon="-4.006574023514986">
        <ele>144.81999999999999</ele>
        <time>2023-09-01T17:28:38Z</time>
      </trkpt>
      <trkpt lat="56.704451031982899" lon="-4.00422197766602">
        <ele>145.78</ele>
        <time>2023-09-01T17:28:46Z</time>
      </trkpt>
      <trkpt lat="56.703919032588601" lon="-4.002328002825379">
        <ele>152.03</ele>
        <time>2023-09-01T17:28:53Z</time>
      </trkpt>
      <trkpt lat="56.703846026211977" lon="-4.002076964825392">
        <ele>153.47</ele>
        <time>2023-09-01T17:28:54Z</time>
      </trkpt>
      <trkpt lat="56.703336993232369" lon="-4.00048297829926">
        <ele>162.12</ele>
        <time>2023-09-01T17:29:01Z</time>
      </trkpt>
      <trkpt lat="56.70322903431952" lon="-4.00037401355803">
        <ele>163.08000000000001</ele>
        <time>2023-09-01T17:29:02Z</time>
      </trkpt>
      <trkpt lat="56.703109005466104" lon="-4.000278040766716">
        <ele>164.52000000000001</ele>
        <time>2023-09-01T17:29:03Z</time>
      </trkpt>
      <trkpt lat="56.702982019633055" lon="-4.000235963612795">
        <ele>165.96000000000001</ele>
        <time>2023-09-01T17:29:04Z</time>
      </trkpt>
      <trkpt lat="56.702839024364948" lon="-4.000249961391091">
        <ele>167.88999999999999</ele>
        <time>2023-09-01T17:29:05Z</time>
      </trkpt>
      <trkpt lat="56.702695023268461" lon="-4.000280974432826">
        <ele>169.33000000000001</ele>
        <time>2023-09-01T17:29:06Z</time>
      </trkpt>
      <trkpt lat="56.702545993030071" lon="-4.000312993302941">
        <ele>170.77000000000001</ele>
        <time>2023-09-01T17:29:07Z</time>
      </trkpt>
      <trkpt lat="56.702140979468822" lon="-4.000345012173057">
        <ele>175.09999999999999</ele>
        <time>2023-09-01T17:29:10Z</time>
      </trkpt>
      <trkpt lat="56.702024973928928" lon="-4.000316010788083">
        <ele>176.53999999999999</ele>
        <time>2023-09-01T17:29:11Z</time>
      </trkpt>
      <trkpt lat="56.701925983652472" lon="-4.000251973047853">
        <ele>177.97999999999999</ele>
        <time>2023-09-01T17:29:12Z</time>
      </trkpt>
      <trkpt lat="56.701117968186736" lon="-3.999659959226847">
        <ele>180.38</ele>
        <time>2023-09-01T17:29:19Z</time>
      </trkpt>
      <trkpt lat="56.700042989104986" lon="-3.998672990128398">
        <ele>174.62</ele>
        <time>2023-09-01T17:29:28Z</time>
      </trkpt>
      <trkpt lat="56.699777031317353" lon="-3.998424969613552">
        <ele>173.66</ele>
        <time>2023-09-01T17:29:32Z</time>
      </trkpt>
      <trkpt lat="56.699609979987144" lon="-3.99826998822391">
        <ele>172.69</ele>
        <time>2023-09-01T17:29:38Z</time>
      </trkpt>
      <trkpt lat="56.699609979987144" lon="-3.99826998822391">
        <ele>172.21000000000001</ele>
        <time>2023-09-01T17:29:50Z</time>
      </trkpt>
      <trkpt lat="56.699607968330383" lon="-3.998238975182176">
        <ele>175.09999999999999</ele>
        <time>2023-09-01T17:32:26Z</time>
      </trkpt>
      <trkpt lat="56.699597993865609" lon="-3.998271999880672">
        <ele>177.02000000000001</ele>
        <time>2023-09-01T17:33:10Z</time>
      </trkpt>
      <trkpt lat="56.699596988037229" lon="-3.998282980173826">
        <ele>177.97999999999999</ele>
        <time>2023-09-01T17:33:22Z</time>
      </trkpt>
      <trkpt lat="56.699565974995494" lon="-3.998229000717402">
        <ele>178.46000000000001</ele>
        <time>2023-09-01T17:33:24Z</time>
      </trkpt>
      <trkpt lat="56.699516018852592" lon="-3.998181978240609">
        <ele>178.46000000000001</ele>
        <time>2023-09-01T17:33:25Z</time>
      </trkpt>
      <trkpt lat="56.698823003098369" lon="-3.997536990791559">
        <ele>176.06</ele>
        <time>2023-09-01T17:33:32Z</time>
      </trkpt>
      <trkpt lat="56.697592958807945" lon="-3.996898960322142">
        <ele>173.16999999999999</ele>
        <time>2023-09-01T17:33:41Z</time>
      </trkpt>
      <trkpt lat="56.697449963539839" lon="-3.996898960322142">
        <ele>173.16999999999999</ele>
        <time>2023-09-01T17:33:42Z</time>
      </trkpt>
      <trkpt lat="56.697307974100113" lon="-3.996898960322142">
        <ele>172.69</ele>
        <time>2023-09-01T17:33:43Z</time>
      </trkpt>
      <trkpt lat="56.697173025459051" lon="-3.996912036091089">
        <ele>172.21000000000001</ele>
        <time>2023-09-01T17:33:44Z</time>
      </trkpt>
      <trkpt lat="56.697035981342196" lon="-3.99697900749743">
        <ele>172.21000000000001</ele>
        <time>2023-09-01T17:33:45Z</time>
      </trkpt>
      <trkpt lat="56.696900026872754" lon="-3.997043967247009">
        <ele>171.72999999999999</ele>
        <time>2023-09-01T17:33:46Z</time>
      </trkpt>
      <trkpt lat="56.696236012503505" lon="-3.997202971950173">
        <ele>170.77000000000001</ele>
        <time>2023-09-01T17:33:51Z</time>
      </trkpt>
      <trkpt lat="56.696151020005345" lon="-3.997134994715452">
        <ele>170.77000000000001</ele>
        <time>2023-09-01T17:33:52Z</time>
      </trkpt>
      <trkpt lat="56.696091005578637" lon="-3.997041033580899">
        <ele>170.28999999999999</ele>
        <time>2023-09-01T17:33:53Z</time>
      </trkpt>
      <trkpt lat="56.696040965616703" lon="-3.996964003890753">
        <ele>169.81</ele>
        <time>2023-09-01T17:33:54Z</time>
      </trkpt>
      <trkpt lat="56.696037026122212" lon="-3.996799970045686">
        <ele>169.33000000000001</ele>
        <time>2023-09-01T17:33:55Z</time>
      </trkpt>
      <trkpt lat="56.696030991151929" lon="-3.996599977836013">
        <ele>168.84999999999999</ele>
        <time>2023-09-01T17:33:56Z</time>
      </trkpt>
      <trkpt lat="56.696025962010026" lon="-3.996396968141198">
        <ele>168.37</ele>
        <time>2023-09-01T17:33:57Z</time>
      </trkpt>
      <trkpt lat="56.696021016687155" lon="-3.996221031993628">
        <ele>167.88999999999999</ele>
        <time>2023-09-01T17:33:58Z</time>
      </trkpt>
      <trkpt lat="56.695956978946924" lon="-3.996065966784954">
        <ele>167.88999999999999</ele>
        <time>2023-09-01T17:33:59Z</time>
      </trkpt>
      <trkpt lat="56.695912973955274" lon="-3.995976028963924">
        <ele>167.88999999999999</ele>
        <time>2023-09-01T17:34:00Z</time>
      </trkpt>
      <trkpt lat="56.695912973955274" lon="-3.995976028963924">
        <ele>167.88999999999999</ele>
        <time>2023-09-01T17:34:01Z</time>
      </trkpt>
      <trkpt lat="56.695792023092508" lon="-3.995957002043724">
        <ele>167.88999999999999</ele>
        <time>2023-09-01T17:34:02Z</time>
      </trkpt>
      <trkpt lat="56.695706024765968" lon="-3.995943004265428">
        <ele>167.88999999999999</ele>
        <time>2023-09-01T17:34:03Z</time>
      </trkpt>
      <trkpt lat="56.69560200534761" lon="-3.99592699483037">
        <ele>167.88999999999999</ele>
        <time>2023-09-01T17:34:04Z</time>
      </trkpt>
      <trkpt lat="56.695484993979335" lon="-3.995907967910171">
        <ele>167.88999999999999</ele>
        <time>2023-09-01T17:34:05Z</time>
      </trkpt>
      <trkpt lat="56.695352979004383" lon="-3.995886007323861">
        <ele>167.41</ele>
        <time>2023-09-01T17:34:06Z</time>
      </trkpt>
      <trkpt lat="56.694126036018133" lon="-3.995789028704166">
        <ele>168.37</ele>
        <time>2023-09-01T17:34:14Z</time>
      </trkpt>
      <trkpt lat="56.693956973031163" lon="-3.995714010670781">
        <ele>168.84999999999999</ele>
        <time>2023-09-01T17:34:15Z</time>
      </trkpt>
      <trkpt lat="56.693833004683256" lon="-3.995616026222706">
        <ele>169.81</ele>
        <time>2023-09-01T17:34:16Z</time>
      </trkpt>
      <trkpt lat="56.692517967894673" lon="-3.99438195861876">
        <ele>179.41999999999999</ele>
        <time>2023-09-01T17:34:26Z</time>
      </trkpt>
      <trkpt lat="56.692391987890005" lon="-3.994248015806079">
        <ele>180.38</ele>
        <time>2023-09-01T17:34:27Z</time>
      </trkpt>
      <trkpt lat="56.692281011492014" lon="-3.994131004437804">
        <ele>180.87</ele>
        <time>2023-09-01T17:34:28Z</time>
      </trkpt>
      <trkpt lat="56.692198030650616" lon="-3.994038971140981">
        <ele>181.34999999999999</ele>
        <time>2023-09-01T17:34:29Z</time>
      </trkpt>
      <trkpt lat="56.692146984860301" lon="-3.993883989751339">
        <ele>181.83000000000001</ele>
        <time>2023-09-01T17:34:30Z</time>
      </trkpt>
      <trkpt lat="56.692093005403876" lon="-3.993722973391414">
        <ele>182.31</ele>
        <time>2023-09-01T17:34:31Z</time>
      </trkpt>
      <trkpt lat="56.692086970433593" lon="-3.993546031415463">
        <ele>182.78999999999999</ele>
        <time>2023-09-01T17:34:32Z</time>
      </trkpt>
      <trkpt lat="56.69208001345396" lon="-3.993337992578745">
        <ele>183.27000000000001</ele>
        <time>2023-09-01T17:34:33Z</time>
      </trkpt>
      <trkpt lat="56.692071966826916" lon="-3.993110004812479">
        <ele>183.75</ele>
        <time>2023-09-01T17:34:34Z</time>
      </trkpt>
      <trkpt lat="56.692062998190522" lon="-3.992870030924678">
        <ele>184.22999999999999</ele>
        <time>2023-09-01T17:34:35Z</time>
      </trkpt>
      <trkpt lat="56.692055035382509" lon="-3.992627961561084">
        <ele>184.71000000000001</ele>
        <time>2023-09-01T17:34:36Z</time>
      </trkpt>
      <trkpt lat="56.692028967663646" lon="-3.991878032684326">
        <ele>186.63</ele>
        <time>2023-09-01T17:34:39Z</time>
      </trkpt>
      <trkpt lat="56.691997032612562" lon="-3.991615008562803">
        <ele>187.11000000000001</ele>
        <time>2023-09-01T17:34:40Z</time>
      </trkpt>
      <trkpt lat="56.691941041499376" lon="-3.991144029423595">
        <ele>187.59</ele>
        <time>2023-09-01T17:34:42Z</time>
      </trkpt>
      <trkpt lat="56.691899970173836" lon="-3.990804981440306">
        <ele>188.08000000000001</ele>
        <time>2023-09-01T17:34:43Z</time>
      </trkpt>
      <trkpt lat="56.69193098321557" lon="-3.988280016928911">
        <ele>195.28</ele>
        <time>2023-09-01T17:34:52Z</time>
      </trkpt>
      <trkpt lat="56.692107003182173" lon="-3.986144978553057">
        <ele>204.90000000000001</ele>
        <time>2023-09-01T17:35:00Z</time>
      </trkpt>
      <trkpt lat="56.692124018445611" lon="-3.98578598164022">
        <ele>208.25999999999999</ele>
        <time>2023-09-01T17:35:02Z</time>
      </trkpt>
      <trkpt lat="56.692107003182173" lon="-3.985669976100326">
        <ele>209.69999999999999</ele>
        <time>2023-09-01T17:35:03Z</time>
      </trkpt>
      <trkpt lat="56.692095017060637" lon="-3.985582971945405">
        <ele>211.15000000000001</ele>
        <time>2023-09-01T17:35:04Z</time>
      </trkpt>
      <trkpt lat="56.692042965441942" lon="-3.9855279866606">
        <ele>212.11000000000001</ele>
        <time>2023-09-01T17:35:05Z</time>
      </trkpt>
      <trkpt lat="56.691954033449292" lon="-3.985467972233892">
        <ele>213.55000000000001</ele>
        <time>2023-09-01T17:35:06Z</time>
      </trkpt>
      <trkpt lat="56.691871974617243" lon="-3.985510971397162">
        <ele>214.50999999999999</ele>
        <time>2023-09-01T17:35:07Z</time>
      </trkpt>
      <trkpt lat="56.691780025139451" lon="-3.985558999702334">
        <ele>215.94999999999999</ele>
        <time>2023-09-01T17:35:08Z</time>
      </trkpt>
      <trkpt lat="56.691682962700725" lon="-3.985609961673617">
        <ele>216.91</ele>
        <time>2023-09-01T17:35:09Z</time>
      </trkpt>
      <trkpt lat="56.691582966595888" lon="-3.985662013292313">
        <ele>218.36000000000001</ele>
        <time>2023-09-01T17:35:10Z</time>
      </trkpt>
      <trkpt lat="56.691385991871357" lon="-3.985825963318348">
        <ele>220.28</ele>
        <time>2023-09-01T17:35:12Z</time>
      </trkpt>
      <trkpt lat="56.691298987716436" lon="-3.985969964414835">
        <ele>221.24000000000001</ele>
        <time>2023-09-01T17:35:13Z</time>
      </trkpt>
      <trkpt lat="56.691211983561516" lon="-3.986114971339703">
        <ele>222.19999999999999</ele>
        <time>2023-09-01T17:35:14Z</time>
      </trkpt>
      <trkpt lat="56.690281005576253" lon="-3.987723961472511">
        <ele>229.88999999999999</ele>
        <time>2023-09-01T17:35:23Z</time>
      </trkpt>
      <trkpt lat="56.689568040892482" lon="-3.989604022353888">
        <ele>239.02000000000001</ele>
        <time>2023-09-01T17:35:31Z</time>
      </trkpt>
      <trkpt lat="56.689395038411021" lon="-3.989931000396609">
        <ele>241.43000000000001</ele>
        <time>2023-09-01T17:35:33Z</time>
      </trkpt>
      <trkpt lat="56.689311973750591" lon="-3.990068966522813">
        <ele>242.38999999999999</ele>
        <time>2023-09-01T17:35:34Z</time>
      </trkpt>
      <trkpt lat="56.689208960160613" lon="-3.990172985941172">
        <ele>243.83000000000001</ele>
        <time>2023-09-01T17:35:35Z</time>
      </trkpt>
      <trkpt lat="56.689097983762622" lon="-3.990256972610951">
        <ele>244.78999999999999</ele>
        <time>2023-09-01T17:35:36Z</time>
      </trkpt>
      <trkpt lat="56.688983989879489" lon="-3.99034196510911">
        <ele>245.75</ele>
        <time>2023-09-01T17:35:37Z</time>
      </trkpt>
      <trkpt lat="56.688865972682834" lon="-3.990429975092411">
        <ele>246.72</ele>
        <time>2023-09-01T17:35:38Z</time>
      </trkpt>
      <trkpt lat="56.687624026089907" lon="-3.990885028615594">
        <ele>255.37</ele>
        <time>2023-09-01T17:35:47Z</time>
      </trkpt>
      <trkpt lat="56.686433963477612" lon="-3.99158600717783">
        <ele>261.62</ele>
        <time>2023-09-01T17:35:55Z</time>
      </trkpt>
      <trkpt lat="56.684770993888378" lon="-3.992614969611168">
        <ele>272.19</ele>
        <time>2023-09-01T17:36:05Z</time>
      </trkpt>
      <trkpt lat="56.683591995388269" lon="-3.993318965658546">
        <ele>282.27999999999997</ele>
        <time>2023-09-01T17:36:12Z</time>
      </trkpt>
      <trkpt lat="56.683431984856725" lon="-3.993330029770732">
        <ele>284.20999999999998</ele>
        <time>2023-09-01T17:36:13Z</time>
      </trkpt>
      <trkpt lat="56.68219598941505" lon="-3.993163984268904">
        <ele>296.22000000000003</ele>
        <time>2023-09-01T17:36:20Z</time>
      </trkpt>
      <trkpt lat="56.681419992819428" lon="-3.992925016209483">
        <ele>303.43000000000001</ele>
        <time>2023-09-01T17:36:25Z</time>
      </trkpt>
      <trkpt lat="56.681257970631123" lon="-3.992901965975761">
        <ele>304.88</ele>
        <time>2023-09-01T17:36:26Z</time>
      </trkpt>
      <trkpt lat="56.679965984076262" lon="-3.992700967937708">
        <ele>311.60000000000002</ele>
        <time>2023-09-01T17:36:34Z</time>
      </trkpt>
      <trkpt lat="56.679837992414832" lon="-3.992626033723354">
        <ele>312.08999999999997</ele>
        <time>2023-09-01T17:36:35Z</time>
      </trkpt>
      <trkpt lat="56.679591983556747" lon="-3.992436015978456">
        <ele>313.52999999999997</ele>
        <time>2023-09-01T17:36:37Z</time>
      </trkpt>
      <trkpt lat="56.679471032693982" lon="-3.992325039580464">
        <ele>313.52999999999997</ele>
        <time>2023-09-01T17:36:38Z</time>
      </trkpt>
      <trkpt lat="56.678939033299685" lon="-3.991854982450604">
        <ele>314.97000000000003</ele>
        <time>2023-09-01T17:36:42Z</time>
      </trkpt>
      <trkpt lat="56.678785979747772" lon="-3.991774013265967">
        <ele>315.44999999999999</ele>
        <time>2023-09-01T17:36:43Z</time>
      </trkpt>
      <trkpt lat="56.678612977266312" lon="-3.991704024374485">
        <ele>316.41000000000003</ele>
        <time>2023-09-01T17:36:44Z</time>
      </trkpt>
      <trkpt lat="56.678446009755135" lon="-3.991693966090679">
        <ele>317.37</ele>
        <time>2023-09-01T17:36:45Z</time>
      </trkpt>
      <trkpt lat="56.678274013102055" lon="-3.991683991625905">
        <ele>318.32999999999998</ele>
        <time>2023-09-01T17:36:46Z</time>
      </trkpt>
      <trkpt lat="56.676677009090781" lon="-3.991560023277998">
        <ele>326.01999999999998</ele>
        <time>2023-09-01T17:36:56Z</time>
      </trkpt>
      <trkpt lat="56.676074014976621" lon="-3.991313008591533">
        <ele>331.31</ele>
        <time>2023-09-01T17:37:02Z</time>
      </trkpt>
      <trkpt lat="56.675934959203005" lon="-3.991256011649966">
        <ele>332.26999999999998</ele>
        <time>2023-09-01T17:37:03Z</time>
      </trkpt>
      <trkpt lat="56.675856001675129" lon="-3.991289958357811">
        <ele>333.23000000000002</ele>
        <time>2023-09-01T17:37:04Z</time>
      </trkpt>
      <trkpt lat="56.67575097642839" lon="-3.991335975006223">
        <ele>334.68000000000001</ele>
        <time>2023-09-01T17:37:05Z</time>
      </trkpt>
      <trkpt lat="56.675591971725225" lon="-3.991405963897705">
        <ele>335.63999999999999</ele>
        <time>2023-09-01T17:37:06Z</time>
      </trkpt>
      <trkpt lat="56.67551402002573" lon="-3.991490034386516">
        <ele>338.04000000000002</ele>
        <time>2023-09-01T17:37:07Z</time>
      </trkpt>
      <trkpt lat="56.675404971465468" lon="-3.99160603992641">
        <ele>340.44</ele>
        <time>2023-09-01T17:37:08Z</time>
      </trkpt>
      <trkpt lat="56.674691000953317" lon="-3.992368038743734">
        <ele>351.5</ele>
        <time>2023-09-01T17:37:16Z</time>
      </trkpt>
      <trkpt lat="56.674411967396736" lon="-3.992542969062924">
        <ele>354.38</ele>
        <time>2023-09-01T17:37:19Z</time>
      </trkpt>
      <trkpt lat="56.673428015783429" lon="-3.992593009024859">
        <ele>367.36000000000001</ele>
        <time>2023-09-01T17:37:29Z</time>
      </trkpt>
      <trkpt lat="56.672780010849237" lon="-3.992599966004491">
        <ele>371.69</ele>
        <time>2023-09-01T17:37:33Z</time>
      </trkpt>
      <trkpt lat="56.67261203750968" lon="-3.992601977661252">
        <ele>372.64999999999998</ele>
        <time>2023-09-01T17:37:34Z</time>
      </trkpt>
      <trkpt lat="56.671978030353785" lon="-3.992671966552734">
        <ele>376.49000000000001</ele>
        <time>2023-09-01T17:37:38Z</time>
      </trkpt>
      <trkpt lat="56.670335009694099" lon="-3.993433965370059">
        <ele>382.74000000000001</ele>
        <time>2023-09-01T17:37:47Z</time>
      </trkpt>
      <trkpt lat="56.668342966586351" lon="-3.99435899220407">
        <ele>382.74000000000001</ele>
        <time>2023-09-01T17:37:58Z</time>
      </trkpt>
      <trkpt lat="56.667599994689226" lon="-3.994715977460146">
        <ele>381.30000000000001</ele>
        <time>2023-09-01T17:38:03Z</time>
      </trkpt>
      <trkpt lat="56.667483989149332" lon="-3.994815973564982">
        <ele>381.30000000000001</ele>
        <time>2023-09-01T17:38:04Z</time>
      </trkpt>
      <trkpt lat="56.667389022186399" lon="-3.994961986318231">
        <ele>381.30000000000001</ele>
        <time>2023-09-01T17:38:05Z</time>
      </trkpt>
      <trkpt lat="56.667297994717956" lon="-3.995149992406368">
        <ele>381.30000000000001</ele>
        <time>2023-09-01T17:38:06Z</time>
      </trkpt>
      <trkpt lat="56.667217025533319" lon="-3.995389966294169">
        <ele>380.81999999999999</ele>
        <time>2023-09-01T17:38:07Z</time>
      </trkpt>
      <trkpt lat="56.667130021378398" lon="-3.995647039264441">
        <ele>380.81999999999999</ele>
        <time>2023-09-01T17:38:08Z</time>
      </trkpt>
      <trkpt lat="56.66696498170495" lon="-3.996132016181946">
        <ele>380.81999999999999</ele>
        <time>2023-09-01T17:38:10Z</time>
      </trkpt>
      <trkpt lat="56.666887030005455" lon="-3.996336031705141">
        <ele>380.33999999999997</ele>
        <time>2023-09-01T17:38:11Z</time>
      </trkpt>
      <trkpt lat="56.666760966181755" lon="-3.996472992002964">
        <ele>380.33999999999997</ele>
        <time>2023-09-01T17:38:12Z</time>
      </trkpt>
      <trkpt lat="56.666623000055552" lon="-3.996625039726496">
        <ele>380.33999999999997</ele>
        <time>2023-09-01T17:38:13Z</time>
      </trkpt>
      <trkpt lat="56.666472963988781" lon="-3.996789995580912">
        <ele>380.81999999999999</ele>
        <time>2023-09-01T17:38:14Z</time>
      </trkpt>
      <trkpt lat="56.665278961881995" lon="-3.998016016557813">
        <ele>382.25999999999999</ele>
        <time>2023-09-01T17:38:21Z</time>
      </trkpt>
      <trkpt lat="56.664690971374512" lon="-3.998546004295349">
        <ele>380.81999999999999</ele>
        <time>2023-09-01T17:38:25Z</time>
      </trkpt>
      <trkpt lat="56.664548981934786" lon="-3.998581962659955">
        <ele>379.86000000000001</ele>
        <time>2023-09-01T17:38:26Z</time>
      </trkpt>
      <trkpt lat="56.664391988888383" lon="-3.998621022328734">
        <ele>378.89999999999998</ele>
        <time>2023-09-01T17:38:27Z</time>
      </trkpt>
      <trkpt lat="56.664219992235303" lon="-3.998664021492004">
        <ele>377.44999999999999</ele>
        <time>2023-09-01T17:38:28Z</time>
      </trkpt>
      <trkpt lat="56.664041038602591" lon="-3.998688999563456">
        <ele>376.49000000000001</ele>
        <time>2023-09-01T17:38:29Z</time>
      </trkpt>
      <trkpt lat="56.663388004526496" lon="-3.998686987906694">
        <ele>374.08999999999997</ele>
        <time>2023-09-01T17:38:33Z</time>
      </trkpt>
      <trkpt lat="56.66324601508677" lon="-3.998659998178482">
        <ele>373.61000000000001</ele>
        <time>2023-09-01T17:38:34Z</time>
      </trkpt>
      <trkpt lat="56.663124980404973" lon="-3.998637031763792">
        <ele>373.13</ele>
        <time>2023-09-01T17:38:35Z</time>
      </trkpt>
      <trkpt lat="56.663007969036698" lon="-3.998754965141416">
        <ele>372.64999999999998</ele>
        <time>2023-09-01T17:38:36Z</time>
      </trkpt>
      <trkpt lat="56.662910990417004" lon="-3.998852027580142">
        <ele>372.17000000000002</ele>
        <time>2023-09-01T17:38:37Z</time>
      </trkpt>
      <trkpt lat="56.662852987647057" lon="-3.999018995091319">
        <ele>372.17000000000002</ele>
        <time>2023-09-01T17:38:38Z</time>
      </trkpt>
      <trkpt lat="56.662780987098813" lon="-3.999229967594147">
        <ele>371.69</ele>
        <time>2023-09-01T17:38:39Z</time>
      </trkpt>
      <trkpt lat="56.662224009633064" lon="-4.000847004354">
        <ele>367.36000000000001</ele>
        <time>2023-09-01T17:38:45Z</time>
      </trkpt>
      <trkpt lat="56.662077996879816" lon="-4.001112040132284">
        <ele>366.39999999999998</ele>
        <time>2023-09-01T17:38:46Z</time>
      </trkpt>
      <trkpt lat="56.661962997168303" lon="-4.001322006806731">
        <ele>364.95999999999998</ele>
        <time>2023-09-01T17:38:47Z</time>
      </trkpt>
      <trkpt lat="56.661235028877854" lon="-4.002495976164937">
        <ele>359.67000000000002</ele>
        <time>2023-09-01T17:38:53Z</time>
      </trkpt>
      <trkpt lat="56.661123968660831" lon="-4.002595972269774">
        <ele>358.70999999999998</ele>
        <time>2023-09-01T17:38:54Z</time>
      </trkpt>
      <trkpt lat="56.661064960062504" lon="-4.00265003554523">
        <ele>357.75</ele>
        <time>2023-09-01T17:38:55Z</time>
      </trkpt>
      <trkpt lat="56.660931017249823" lon="-4.00265003554523">
        <ele>357.26999999999998</ele>
        <time>2023-09-01T17:38:56Z</time>
      </trkpt>
      <trkpt lat="56.66084099560976" lon="-4.002631008625031">
        <ele>356.31</ele>
        <time>2023-09-01T17:38:57Z</time>
      </trkpt>
      <trkpt lat="56.660742005333304" lon="-4.002569988369942">
        <ele>355.33999999999997</ele>
        <time>2023-09-01T17:38:58Z</time>
      </trkpt>
      <trkpt lat="56.660641003400087" lon="-4.002507962286472">
        <ele>354.86000000000001</ele>
        <time>2023-09-01T17:38:59Z</time>
      </trkpt>
      <trkpt lat="56.660532960668206" lon="-4.002475021407008">
        <ele>353.89999999999998</ele>
        <time>2023-09-01T17:39:00Z</time>
      </trkpt>
      <trkpt lat="56.660413015633821" lon="-4.002466974779964">
        <ele>353.42000000000002</ele>
        <time>2023-09-01T17:39:01Z</time>
      </trkpt>
      <trkpt lat="56.660279994830489" lon="-4.002459011971951">
        <ele>352.94</ele>
        <time>2023-09-01T17:39:02Z</time>
      </trkpt>
      <trkpt lat="56.66013197042048" lon="-4.002490025013685">
        <ele>352.94</ele>
        <time>2023-09-01T17:39:03Z</time>
      </trkpt>
      <trkpt lat="56.659298976883292" lon="-4.002766041085124">
        <ele>350.54000000000002</ele>
        <time>2023-09-01T17:39:08Z</time>
      </trkpt>
      <trkpt lat="56.659145001322031" lon="-4.002864025533199">
        <ele>350.06</ele>
        <time>2023-09-01T17:39:09Z</time>
      </trkpt>
      <trkpt lat="56.659007035195827" lon="-4.003027975559235">
        <ele>349.10000000000002</ele>
        <time>2023-09-01T17:39:10Z</time>
      </trkpt>
      <trkpt lat="56.657732985913754" lon="-4.004548033699393">
        <ele>342.85000000000002</ele>
        <time>2023-09-01T17:39:18Z</time>
      </trkpt>
      <trkpt lat="56.655284967273474" lon="-4.007253041490912">
        <ele>336.12</ele>
        <time>2023-09-01T17:39:32Z</time>
      </trkpt>
      <trkpt lat="56.653834981843829" lon="-4.00856195949018">
        <ele>330.35000000000002</ele>
        <time>2023-09-01T17:39:40Z</time>
      </trkpt>
      <trkpt lat="56.652992013841867" lon="-4.009199989959598">
        <ele>322.18000000000001</ele>
        <time>2023-09-01T17:39:45Z</time>
      </trkpt>
      <trkpt lat="56.652853963896632" lon="-4.009243994951248">
        <ele>320.74000000000001</ele>
        <time>2023-09-01T17:39:46Z</time>
      </trkpt>
      <trkpt lat="56.651747971773148" lon="-4.009367963299155">
        <ele>311.12</ele>
        <time>2023-09-01T17:39:52Z</time>
      </trkpt>
      <trkpt lat="56.650425978004932" lon="-4.009472988545895">
        <ele>302.94999999999999</ele>
        <time>2023-09-01T17:39:59Z</time>
      </trkpt>
      <trkpt lat="56.650236966088414" lon="-4.009541971608996">
        <ele>301.50999999999999</ele>
        <time>2023-09-01T17:40:00Z</time>
      </trkpt>
      <trkpt lat="56.649628020823002" lon="-4.009859981015325">
        <ele>297.18000000000001</ele>
        <time>2023-09-01T17:40:04Z</time>
      </trkpt>
      <trkpt lat="56.649521989747882" lon="-4.01002200320363">
        <ele>296.22000000000003</ele>
        <time>2023-09-01T17:40:05Z</time>
      </trkpt>
      <trkpt lat="56.64940900169313" lon="-4.01019399985671">
        <ele>295.25999999999999</ele>
        <time>2023-09-01T17:40:06Z</time>
      </trkpt>
      <trkpt lat="56.64919501170516" lon="-4.010519972071052">
        <ele>294.30000000000001</ele>
        <time>2023-09-01T17:40:08Z</time>
      </trkpt>
      <trkpt lat="56.649075988680124" lon="-4.01062298566103">
        <ele>293.81999999999999</ele>
        <time>2023-09-01T17:40:09Z</time>
      </trkpt>
      <trkpt lat="56.648957971483469" lon="-4.010712001472712">
        <ele>293.33999999999997</ele>
        <time>2023-09-01T17:40:10Z</time>
      </trkpt>
      <trkpt lat="56.647881986573339" lon="-4.011521022766829">
        <ele>288.05000000000001</ele>
        <time>2023-09-01T17:40:17Z</time>
      </trkpt>
      <trkpt lat="56.646092031151056" lon="-4.012847961857915">
        <ele>277.48000000000002</ele>
        <time>2023-09-01T17:40:27Z</time>
      </trkpt>
      <trkpt lat="56.644545989111066" lon="-4.01391196064651">
        <ele>271.70999999999998</ele>
        <time>2023-09-01T17:40:36Z</time>
      </trkpt>
      <trkpt lat="56.644430989399552" lon="-4.013927970081568">
        <ele>271.70999999999998</ele>
        <time>2023-09-01T17:40:37Z</time>
      </trkpt>
      <trkpt lat="56.644321018829942" lon="-4.013885976746678">
        <ele>271.23000000000002</ele>
        <time>2023-09-01T17:40:38Z</time>
      </trkpt>
      <trkpt lat="56.644205013290048" lon="-4.013770977035165">
        <ele>271.23000000000002</ele>
        <time>2023-09-01T17:40:39Z</time>
      </trkpt>
      <trkpt lat="56.64408003911376" lon="-4.013621024787426">
        <ele>271.23000000000002</ele>
        <time>2023-09-01T17:40:40Z</time>
      </trkpt>
      <trkpt lat="56.64395397529006" lon="-4.01343603618443">
        <ele>271.23000000000002</ele>
        <time>2023-09-01T17:40:41Z</time>
      </trkpt>
      <trkpt lat="56.643174039199948" lon="-4.012299031019211">
        <ele>273.63</ele>
        <time>2023-09-01T17:40:47Z</time>
      </trkpt>
      <trkpt lat="56.643062978982925" lon="-4.012179002165794">
        <ele>274.58999999999997</ele>
        <time>2023-09-01T17:40:48Z</time>
      </trkpt>
      <trkpt lat="56.642938004806638" lon="-4.012122005224228">
        <ele>275.06999999999999</ele>
        <time>2023-09-01T17:40:49Z</time>
      </trkpt>
      <trkpt lat="56.642801966518164" lon="-4.012070037424564">
        <ele>275.56</ele>
        <time>2023-09-01T17:40:50Z</time>
      </trkpt>
      <trkpt lat="56.642648996785283" lon="-4.012072971090674">
        <ele>276.04000000000002</ele>
        <time>2023-09-01T17:40:51Z</time>
      </trkpt>
      <trkpt lat="56.642487980425358" lon="-4.012075988575816">
        <ele>276.51999999999998</ele>
        <time>2023-09-01T17:40:52Z</time>
      </trkpt>
      <trkpt lat="56.64163202047348" lon="-4.012089986354113">
        <ele>275.56</ele>
        <time>2023-09-01T17:40:57Z</time>
      </trkpt>
      <trkpt lat="56.641174033284187" lon="-4.012113036587834">
        <ele>273.14999999999998</ele>
        <time>2023-09-01T17:41:00Z</time>
      </trkpt>
      <trkpt lat="56.641005976125598" lon="-4.012050004675984">
        <ele>272.19</ele>
        <time>2023-09-01T17:41:01Z</time>
      </trkpt>
      <trkpt lat="56.640847977250814" lon="-4.011990996077657">
        <ele>271.23000000000002</ele>
        <time>2023-09-01T17:41:02Z</time>
      </trkpt>
      <trkpt lat="56.640684027224779" lon="-4.011928969994187">
        <ele>270.26999999999998</ele>
        <time>2023-09-01T17:41:03Z</time>
      </trkpt>
      <trkpt lat="56.64051597006619" lon="-4.011866021901369">
        <ele>269.31</ele>
        <time>2023-09-01T17:41:04Z</time>
      </trkpt>
      <trkpt lat="56.64034497924149" lon="-4.011801984161139">
        <ele>268.82999999999998</ele>
        <time>2023-09-01T17:41:05Z</time>
      </trkpt>
      <trkpt lat="56.640176000073552" lon="-4.011778011918068">
        <ele>268.35000000000002</ele>
        <time>2023-09-01T17:41:06Z</time>
      </trkpt>
      <trkpt lat="56.640018001198769" lon="-4.011763008311391">
        <ele>267.38</ele>
        <time>2023-09-01T17:41:07Z</time>
      </trkpt>
      <trkpt lat="56.639047963544726" lon="-4.011389007791877">
        <ele>264.5</ele>
        <time>2023-09-01T17:41:13Z</time>
      </trkpt>
      <trkpt lat="56.63860397413373" lon="-4.011059012264013">
        <ele>263.06</ele>
        <time>2023-09-01T17:41:16Z</time>
      </trkpt>
      <trkpt lat="56.638491991907358" lon="-4.010976031422615">
        <ele>262.57999999999998</ele>
        <time>2023-09-01T17:41:17Z</time>
      </trkpt>
      <trkpt lat="56.638412028551102" lon="-4.011018024757505">
        <ele>262.10000000000002</ele>
        <time>2023-09-01T17:41:18Z</time>
      </trkpt>
      <trkpt lat="56.638310020789504" lon="-4.01107301004231">
        <ele>262.10000000000002</ele>
        <time>2023-09-01T17:41:19Z</time>
      </trkpt>
      <trkpt lat="56.638204995542765" lon="-4.011129001155496">
        <ele>261.62</ele>
        <time>2023-09-01T17:41:20Z</time>
      </trkpt>
      <trkpt lat="56.638095024973154" lon="-4.011188009753823">
        <ele>261.62</ele>
        <time>2023-09-01T17:41:21Z</time>
      </trkpt>
      <trkpt lat="56.637982036918402" lon="-4.011248024180532">
        <ele>261.13999999999999</ele>
        <time>2023-09-01T17:41:22Z</time>
      </trkpt>
      <trkpt lat="56.637580040842295" lon="-4.011292029172182">
        <ele>259.69</ele>
        <time>2023-09-01T17:41:25Z</time>
      </trkpt>
      <trkpt lat="56.636677980422974" lon="-4.011251041665673">
        <ele>257.76999999999998</ele>
        <time>2023-09-01T17:41:31Z</time>
      </trkpt>
      <trkpt lat="56.635949006304145" lon="-4.010835969820619">
        <ele>255.84999999999999</ele>
        <time>2023-09-01T17:41:36Z</time>
      </trkpt>
      <trkpt lat="56.635836018249393" lon="-4.010722981765866">
        <ele>255.37</ele>
        <time>2023-09-01T17:41:37Z</time>
      </trkpt>
      <trkpt lat="56.635624039918184" lon="-4.010511003434658">
        <ele>254.41</ele>
        <time>2023-09-01T17:41:39Z</time>
      </trkpt>
      <trkpt lat="56.635519014671445" lon="-4.010455012321472">
        <ele>254.41</ele>
        <time>2023-09-01T17:41:40Z</time>
      </trkpt>
      <trkpt lat="56.635414995253086" lon="-4.010402960702777">
        <ele>253.93000000000001</ele>
        <time>2023-09-01T17:41:41Z</time>
      </trkpt>
      <trkpt lat="56.63531499914825" lon="-4.010441014543176">
        <ele>253.44</ele>
        <time>2023-09-01T17:41:42Z</time>
      </trkpt>
      <trkpt lat="56.635201005265117" lon="-4.010500023141503">
        <ele>252.96000000000001</ele>
        <time>2023-09-01T17:41:43Z</time>
      </trkpt>
      <trkpt lat="56.635071001946926" lon="-4.010568000376225">
        <ele>252.47999999999999</ele>
        <time>2023-09-01T17:41:44Z</time>
      </trkpt>
      <trkpt lat="56.634927000850439" lon="-4.010642012581229">
        <ele>252</ele>
        <time>2023-09-01T17:41:45Z</time>
      </trkpt>
      <trkpt lat="56.634785011410713" lon="-4.01072901673615">
        <ele>251.03999999999999</ele>
        <time>2023-09-01T17:41:46Z</time>
      </trkpt>
      <trkpt lat="56.634199032559991" lon="-4.011217011138797">
        <ele>247.68000000000001</ele>
        <time>2023-09-01T17:41:50Z</time>
      </trkpt>
      <trkpt lat="56.6340690292418" lon="-4.011270990595222">
        <ele>246.22999999999999</ele>
        <time>2023-09-01T17:41:51Z</time>
      </trkpt>
      <trkpt lat="56.633931985124946" lon="-4.011274008080363">
        <ele>245.75</ele>
        <time>2023-09-01T17:41:52Z</time>
      </trkpt>
      <trkpt lat="56.633806005120277" lon="-4.011236038058996">
        <ele>244.78999999999999</ele>
        <time>2023-09-01T17:41:53Z</time>
      </trkpt>
      <trkpt lat="56.633668038994074" lon="-4.011193960905075">
        <ele>244.31</ele>
        <time>2023-09-01T17:41:54Z</time>
      </trkpt>
      <trkpt lat="56.633520014584064" lon="-4.011149033904076">
        <ele>243.34999999999999</ele>
        <time>2023-09-01T17:41:55Z</time>
      </trkpt>
      <trkpt lat="56.632508989423513" lon="-4.010840998962522">
        <ele>236.13999999999999</ele>
        <time>2023-09-01T17:42:03Z</time>
      </trkpt>
      <trkpt lat="56.63232802413404" lon="-4.010785007849336">
        <ele>233.74000000000001</ele>
        <time>2023-09-01T17:42:05Z</time>
      </trkpt>
      <trkpt lat="56.632142029702663" lon="-4.010651987046003">
        <ele>231.81</ele>
        <time>2023-09-01T17:42:07Z</time>
      </trkpt>
      <trkpt lat="56.631976990029216" lon="-4.010480996221304">
        <ele>229.88999999999999</ele>
        <time>2023-09-01T17:42:09Z</time>
      </trkpt>
      <trkpt lat="56.631837012246251" lon="-4.010334983468056">
        <ele>227.97</ele>
        <time>2023-09-01T17:42:11Z</time>
      </trkpt>
      <trkpt lat="56.631768029183149" lon="-4.010263988748193">
        <ele>227.00999999999999</ele>
        <time>2023-09-01T17:42:12Z</time>
      </trkpt>
      <trkpt lat="56.631668033078313" lon="-4.010159969329834">
        <ele>226.53</ele>
        <time>2023-09-01T17:42:13Z</time>
      </trkpt>
      <trkpt lat="56.631407020613551" lon="-4.010178996250033">
        <ele>225.56999999999999</ele>
        <time>2023-09-01T17:42:16Z</time>
      </trkpt>
      <trkpt lat="56.631303001195192" lon="-4.010186037048698">
        <ele>225.09</ele>
        <time>2023-09-01T17:42:17Z</time>
      </trkpt>
      <trkpt lat="56.631195964291692" lon="-4.01019399985671">
        <ele>224.61000000000001</ele>
        <time>2023-09-01T17:42:18Z</time>
      </trkpt>
      <trkpt lat="56.630907040089369" lon="-4.010267006233335">
        <ele>222.19999999999999</ele>
        <time>2023-09-01T17:42:21Z</time>
      </trkpt>
      <trkpt lat="56.630816012620926" lon="-4.01030296459794">
        <ele>221.24000000000001</ele>
        <time>2023-09-01T17:42:22Z</time>
      </trkpt>
      <trkpt lat="56.630726996809244" lon="-4.010350992903113">
        <ele>220.28</ele>
        <time>2023-09-01T17:42:23Z</time>
      </trkpt>
      <trkpt lat="56.630487022921443" lon="-4.010589960962534">
        <ele>217.40000000000001</ele>
        <time>2023-09-01T17:42:26Z</time>
      </trkpt>
      <trkpt lat="56.630415022373199" lon="-4.010655004531145">
        <ele>216.91</ele>
        <time>2023-09-01T17:42:27Z</time>
      </trkpt>
      <trkpt lat="56.630347967147827" lon="-4.010662967339158">
        <ele>216.43000000000001</ele>
        <time>2023-09-01T17:42:28Z</time>
      </trkpt>
      <trkpt lat="56.630251994356513" lon="-4.010675037279725">
        <ele>215.47</ele>
        <time>2023-09-01T17:42:29Z</time>
      </trkpt>
      <trkpt lat="56.630208995193243" lon="-4.010624997317791">
        <ele>214.99000000000001</ele>
        <time>2023-09-01T17:42:30Z</time>
      </trkpt>
      <trkpt lat="56.63013800047338" lon="-4.010542016476393">
        <ele>214.50999999999999</ele>
        <time>2023-09-01T17:42:31Z</time>
      </trkpt>
      <trkpt lat="56.630054013803601" lon="-4.010444032028318">
        <ele>213.55000000000001</ele>
        <time>2023-09-01T17:42:32Z</time>
      </trkpt>
      <trkpt lat="56.629967009648681" lon="-4.010340012609959">
        <ele>213.06999999999999</ele>
        <time>2023-09-01T17:42:33Z</time>
      </trkpt>
      <trkpt lat="56.629372984170914" lon="-4.009782029315829">
        <ele>208.74000000000001</ele>
        <time>2023-09-01T17:42:39Z</time>
      </trkpt>
      <trkpt lat="56.629267036914825" lon="-4.009766019880772">
        <ele>208.25999999999999</ele>
        <time>2023-09-01T17:42:40Z</time>
      </trkpt>
      <trkpt lat="56.629179026931524" lon="-4.009752022102475">
        <ele>207.78</ele>
        <time>2023-09-01T17:42:41Z</time>
      </trkpt>
      <trkpt lat="56.628778036683798" lon="-4.009818993508816">
        <ele>204.41999999999999</ele>
        <time>2023-09-01T17:42:45Z</time>
      </trkpt>
      <trkpt lat="56.628691032528877" lon="-4.009789992123842">
        <ele>203.46000000000001</ele>
        <time>2023-09-01T17:42:46Z</time>
      </trkpt>
      <trkpt lat="56.628608973696828" lon="-4.009736012667418">
        <ele>202.49000000000001</ele>
        <time>2023-09-01T17:42:47Z</time>
      </trkpt>
      <trkpt lat="56.628528004512191" lon="-4.009644985198975">
        <ele>201.53</ele>
        <time>2023-09-01T17:42:48Z</time>
      </trkpt>
      <trkpt lat="56.628433037549257" lon="-4.009539037942886">
        <ele>201.05000000000001</ele>
        <time>2023-09-01T17:42:49Z</time>
      </trkpt>
      <trkpt lat="56.627776985988021" lon="-4.008858008310199">
        <ele>194.80000000000001</ele>
        <time>2023-09-01T17:42:55Z</time>
      </trkpt>
      <trkpt lat="56.627674978226423" lon="-4.008777961134911">
        <ele>194.31999999999999</ele>
        <time>2023-09-01T17:42:56Z</time>
      </trkpt>
      <trkpt lat="56.627546986564994" lon="-4.008678970858455">
        <ele>193.36000000000001</ele>
        <time>2023-09-01T17:42:57Z</time>
      </trkpt>
      <trkpt lat="56.627403991296887" lon="-4.008654998615384">
        <ele>192.88</ele>
        <time>2023-09-01T17:42:58Z</time>
      </trkpt>
      <trkpt lat="56.62723601795733" lon="-4.008625997230411">
        <ele>192.40000000000001</ele>
        <time>2023-09-01T17:42:59Z</time>
      </trkpt>
      <trkpt lat="56.625947970896959" lon="-4.008407983928919">
        <ele>186.15000000000001</ele>
        <time>2023-09-01T17:43:05Z</time>
      </trkpt>
      <trkpt lat="56.625242969021201" lon="-4.008270017802715">
        <ele>180.38</ele>
        <time>2023-09-01T17:43:09Z</time>
      </trkpt>
      <trkpt lat="56.625139033421874" lon="-4.008191982284188">
        <ele>179.41999999999999</ele>
        <time>2023-09-01T17:43:10Z</time>
      </trkpt>
      <trkpt lat="56.625029984861612" lon="-4.008111013099551">
        <ele>177.97999999999999</ele>
        <time>2023-09-01T17:43:11Z</time>
      </trkpt>
      <trkpt lat="56.624942980706692" lon="-4.007941028103232">
        <ele>176.53999999999999</ele>
        <time>2023-09-01T17:43:12Z</time>
      </trkpt>
      <trkpt lat="56.6248510312289" lon="-4.00774103589356">
        <ele>175.09999999999999</ele>
        <time>2023-09-01T17:43:13Z</time>
      </trkpt>
      <trkpt lat="56.624752040952444" lon="-4.007524028420448">
        <ele>173.66</ele>
        <time>2023-09-01T17:43:14Z</time>
      </trkpt>
      <trkpt lat="56.623839000239968" lon="-4.005537014454603">
        <ele>164.03999999999999</ele>
        <time>2023-09-01T17:43:22Z</time>
      </trkpt>
      <trkpt lat="56.623507998883724" lon="-4.004813991487026">
        <ele>160.68000000000001</ele>
        <time>2023-09-01T17:43:25Z</time>
      </trkpt>
      <trkpt lat="56.623419988900423" lon="-4.004601007327437">
        <ele>159.72</ele>
        <time>2023-09-01T17:43:26Z</time>
      </trkpt>
      <trkpt lat="56.623167023062706" lon="-4.003860969096422">
        <ele>157.31</ele>
        <time>2023-09-01T17:43:29Z</time>
      </trkpt>
      <trkpt lat="56.623074989765882" lon="-4.003590987995267">
        <ele>156.83000000000001</ele>
        <time>2023-09-01T17:43:30Z</time>
      </trkpt>
      <trkpt lat="56.622800985351205" lon="-4.002789007499814">
        <ele>153.47</ele>
        <time>2023-09-01T17:43:33Z</time>
      </trkpt>
      <trkpt lat="56.622715992853045" lon="-4.002541992813349">
        <ele>152.50999999999999</ele>
        <time>2023-09-01T17:43:34Z</time>
      </trkpt>
      <trkpt lat="56.622632006183267" lon="-4.002295983955264">
        <ele>151.06</ele>
        <time>2023-09-01T17:43:35Z</time>
      </trkpt>
      <trkpt lat="56.622523041442037" lon="-4.002070007845759">
        <ele>150.09999999999999</ele>
        <time>2023-09-01T17:43:36Z</time>
      </trkpt>
      <trkpt lat="56.622408041730523" lon="-4.001889964565635">
        <ele>149.13999999999999</ele>
        <time>2023-09-01T17:43:37Z</time>
      </trkpt>
      <trkpt lat="56.622299998998642" lon="-4.001718973740935">
        <ele>148.18000000000001</ele>
        <time>2023-09-01T17:43:38Z</time>
      </trkpt>
      <trkpt lat="56.622197991237044" lon="-4.001559969037771">
        <ele>147.22</ele>
        <time>2023-09-01T17:43:39Z</time>
      </trkpt>
      <trkpt lat="56.621949970722198" lon="-4.001343967393041">
        <ele>145.30000000000001</ele>
        <time>2023-09-01T17:43:41Z</time>
      </trkpt>
      <trkpt lat="56.62180102430284" lon="-4.001246988773346">
        <ele>143.84999999999999</ele>
        <time>2023-09-01T17:43:42Z</time>
      </trkpt>
      <trkpt lat="56.62165098823607" lon="-4.001149004325271">
        <ele>141.93000000000001</ele>
        <time>2023-09-01T17:43:43Z</time>
      </trkpt>
      <trkpt lat="56.621361980214715" lon="-4.000915987417102">
        <ele>137.13</ele>
        <time>2023-09-01T17:43:45Z</time>
      </trkpt>
      <trkpt lat="56.621232982724905" lon="-4.000769974663854">
        <ele>134.24000000000001</ele>
        <time>2023-09-01T17:43:46Z</time>
      </trkpt>
      <trkpt lat="56.621097028255463" lon="-4.000617004930973">
        <ele>131.36000000000001</ele>
        <time>2023-09-01T17:43:47Z</time>
      </trkpt>
      <trkpt lat="56.620939029380679" lon="-4.00043997913599">
        <ele>128.47</ele>
        <time>2023-09-01T17:43:48Z</time>
      </trkpt>
      <trkpt lat="56.620823023840785" lon="-4.000276029109955">
        <ele>126.06999999999999</ele>
        <time>2023-09-01T17:43:49Z</time>
      </trkpt>
      <trkpt lat="56.620701989158988" lon="-4.000106966122985">
        <ele>123.19</ele>
        <time>2023-09-01T17:43:50Z</time>
      </trkpt>
      <trkpt lat="56.620583971962333" lon="-3.999942010268569">
        <ele>120.3</ele>
        <time>2023-09-01T17:43:51Z</time>
      </trkpt>
      <trkpt lat="56.620240984484553" lon="-3.999332981184125">
        <ele>108.77</ele>
        <time>2023-09-01T17:43:55Z</time>
      </trkpt>
      <trkpt lat="56.619962034747005" lon="-3.999039027839899">
        <ele>102.52</ele>
        <time>2023-09-01T17:43:58Z</time>
      </trkpt>
      <trkpt lat="56.61984502337873" lon="-3.998915981501341">
        <ele>100.11</ele>
        <time>2023-09-01T17:43:59Z</time>
      </trkpt>
      <trkpt lat="56.619800012558699" lon="-3.998761000111699">
        <ele>98.670000000000002</ele>
        <time>2023-09-01T17:44:00Z</time>
      </trkpt>
      <trkpt lat="56.61973999813199" lon="-3.998553967103362">
        <ele>97.230000000000004</ele>
        <time>2023-09-01T17:44:01Z</time>
      </trkpt>
      <trkpt lat="56.61967302672565" lon="-3.998322961851955">
        <ele>95.310000000000002</ele>
        <time>2023-09-01T17:44:02Z</time>
      </trkpt>
      <trkpt lat="56.619622986763716" lon="-3.998043006286025">
        <ele>93.870000000000005</ele>
        <time>2023-09-01T17:44:03Z</time>
      </trkpt>
      <trkpt lat="56.619579987600446" lon="-3.997744023799896">
        <ele>92.420000000000002</ele>
        <time>2023-09-01T17:44:04Z</time>
      </trkpt>
      <trkpt lat="56.619276981800795" lon="-3.99560303427279">
        <ele>82.810000000000002</ele>
        <time>2023-09-01T17:44:11Z</time>
      </trkpt>
      <trkpt lat="56.619221996515989" lon="-3.995382003486157">
        <ele>81.370000000000005</ele>
        <time>2023-09-01T17:44:12Z</time>
      </trkpt>
      <trkpt lat="56.61915997043252" lon="-3.995179999619722">
        <ele>79.930000000000007</ele>
        <time>2023-09-01T17:44:13Z</time>
      </trkpt>
      <trkpt lat="56.619083024561405" lon="-3.994977995753288">
        <ele>78.480000000000004</ele>
        <time>2023-09-01T17:44:14Z</time>
      </trkpt>
      <trkpt lat="56.618982022628188" lon="-3.994812034070492">
        <ele>77.519999999999996</ele>
        <time>2023-09-01T17:44:15Z</time>
      </trkpt>
      <trkpt lat="56.618323037400842" lon="-3.993724985048175">
        <ele>73.680000000000007</ele>
        <time>2023-09-01T17:44:21Z</time>
      </trkpt>
      <trkpt lat="56.618212983012199" lon="-3.993543013930321">
        <ele>74.159999999999997</ele>
        <time>2023-09-01T17:44:22Z</time>
      </trkpt>
      <trkpt lat="56.618122039362788" lon="-3.993321983143687">
        <ele>73.680000000000007</ele>
        <time>2023-09-01T17:44:23Z</time>
      </trkpt>
      <trkpt lat="56.617218973115087" lon="-3.990907995030284">
        <ele>79.930000000000007</ele>
        <time>2023-09-01T17:44:33Z</time>
      </trkpt>
      <trkpt lat="56.616549007594585" lon="-3.989014020189643">
        <ele>82.810000000000002</ele>
        <time>2023-09-01T17:44:42Z</time>
      </trkpt>
      <trkpt lat="56.616338035091758" lon="-3.98834296502173">
        <ele>82.329999999999998</ele>
        <time>2023-09-01T17:44:45Z</time>
      </trkpt>
      <trkpt lat="56.616276009008288" lon="-3.988096034154296">
        <ele>82.329999999999998</ele>
        <time>2023-09-01T17:44:46Z</time>
      </trkpt>
      <trkpt lat="56.616212977096438" lon="-3.98784801363945">
        <ele>82.329999999999998</ele>
        <time>2023-09-01T17:44:47Z</time>
      </trkpt>
      <trkpt lat="56.615609982982278" lon="-3.985454980283976">
        <ele>87.140000000000001</ele>
        <time>2023-09-01T17:44:57Z</time>
      </trkpt>
      <trkpt lat="56.614782018586993" lon="-3.982146978378296">
        <ele>91.459999999999994</ele>
        <time>2023-09-01T17:45:11Z</time>
      </trkpt>
      <trkpt lat="56.614660983905196" lon="-3.981534009799361">
        <ele>90.019999999999996</ele>
        <time>2023-09-01T17:45:14Z</time>
      </trkpt>
      <trkpt lat="56.614630976691842" lon="-3.981298981234431">
        <ele>90.019999999999996</ele>
        <time>2023-09-01T17:45:15Z</time>
      </trkpt>
      <trkpt lat="56.614632988348603" lon="-3.981152968481183">
        <ele>89.540000000000006</ele>
        <time>2023-09-01T17:45:16Z</time>
      </trkpt>
      <trkpt lat="56.614636005833745" lon="-3.980961022898555">
        <ele>89.060000000000002</ele>
        <time>2023-09-01T17:45:17Z</time>
      </trkpt>
      <trkpt lat="56.614640029147267" lon="-3.980761030688882">
        <ele>89.060000000000002</ele>
        <time>2023-09-01T17:45:18Z</time>
      </trkpt>
      <trkpt lat="56.614642962813377" lon="-3.980553997680545">
        <ele>88.579999999999998</ele>
        <time>2023-09-01T17:45:19Z</time>
      </trkpt>
      <trkpt lat="56.614632988348603" lon="-3.979770038276911">
        <ele>87.140000000000001</ele>
        <time>2023-09-01T17:45:23Z</time>
      </trkpt>
      <trkpt lat="56.614619996398687" lon="-3.979633999988437">
        <ele>87.140000000000001</ele>
        <time>2023-09-01T17:45:24Z</time>
      </trkpt>
      <trkpt lat="56.614610021933913" lon="-3.979535009711981">
        <ele>86.659999999999997</ele>
        <time>2023-09-01T17:45:25Z</time>
      </trkpt>
      <trkpt lat="56.614602981135249" lon="-3.979464014992118">
        <ele>86.180000000000007</ele>
        <time>2023-09-01T17:45:26Z</time>
      </trkpt>
      <trkpt lat="56.614545984193683" lon="-3.97931800223887">
        <ele>86.180000000000007</ele>
        <time>2023-09-01T17:45:27Z</time>
      </trkpt>
      <trkpt lat="56.6144950222224" lon="-3.979336023330689">
        <ele>85.689999999999998</ele>
        <time>2023-09-01T17:45:28Z</time>
      </trkpt>
      <trkpt lat="56.614429978653789" lon="-3.979357983916998">
        <ele>85.689999999999998</ele>
        <time>2023-09-01T17:45:29Z</time>
      </trkpt>
      <trkpt lat="56.614351021125913" lon="-3.97938497364521">
        <ele>85.689999999999998</ele>
        <time>2023-09-01T17:45:30Z</time>
      </trkpt>
      <trkpt lat="56.61426099948585" lon="-3.979415986686945">
        <ele>85.689999999999998</ele>
        <time>2023-09-01T17:45:31Z</time>
      </trkpt>
      <trkpt lat="56.614163015037775" lon="-3.979450017213821">
        <ele>85.209999999999994</ele>
        <time>2023-09-01T17:45:32Z</time>
      </trkpt>
      <trkpt lat="56.613961011171341" lon="-3.979519000276923">
        <ele>85.209999999999994</ele>
        <time>2023-09-01T17:45:34Z</time>
      </trkpt>
      <trkpt lat="56.613843999803066" lon="-3.97951397113502">
        <ele>85.209999999999994</ele>
        <time>2023-09-01T17:45:35Z</time>
      </trkpt>
      <trkpt lat="56.612929031252861" lon="-3.979373993352056">
        <ele>86.180000000000007</ele>
        <time>2023-09-01T17:45:41Z</time>
      </trkpt>
      <trkpt lat="56.611411990597844" lon="-3.979046009480953">
        <ele>87.620000000000005</ele>
        <time>2023-09-01T17:45:50Z</time>
      </trkpt>
      <trkpt lat="56.611278969794512" lon="-3.978925980627537">
        <ele>88.099999999999994</ele>
        <time>2023-09-01T17:45:51Z</time>
      </trkpt>
      <trkpt lat="56.610641023144126" lon="-3.978169010952115">
        <ele>89.060000000000002</ele>
        <time>2023-09-01T17:45:56Z</time>
      </trkpt>
      <trkpt lat="56.610562987625599" lon="-3.977982010692358">
        <ele>89.540000000000006</ele>
        <time>2023-09-01T17:45:57Z</time>
      </trkpt>
      <trkpt lat="56.610494004562497" lon="-3.977775983512402">
        <ele>90.019999999999996</ele>
        <time>2023-09-01T17:45:58Z</time>
      </trkpt>
      <trkpt lat="56.609807023778558" lon="-3.975447993725538">
        <ele>94.349999999999994</ele>
        <time>2023-09-01T17:46:07Z</time>
      </trkpt>
      <trkpt lat="56.609695041552186" lon="-3.975217994302511">
        <ele>94.349999999999994</ele>
        <time>2023-09-01T17:46:08Z</time>
      </trkpt>
      <trkpt lat="56.608818965032697" lon="-3.973864987492561">
        <ele>96.75</ele>
        <time>2023-09-01T17:46:15Z</time>
      </trkpt>
      <trkpt lat="56.6083749756217" lon="-3.973491992801428">
        <ele>97.709999999999994</ele>
        <time>2023-09-01T17:46:18Z</time>
      </trkpt>
      <trkpt lat="56.608236003667116" lon="-3.973395014181733">
        <ele>98.670000000000002</ele>
        <time>2023-09-01T17:46:19Z</time>
      </trkpt>
      <trkpt lat="56.608107006177306" lon="-3.973307004198432">
        <ele>99.150000000000006</ele>
        <time>2023-09-01T17:46:20Z</time>
      </trkpt>
      <trkpt lat="56.607985971495509" lon="-3.973223017528653">
        <ele>99.629999999999995</ele>
        <time>2023-09-01T17:46:21Z</time>
      </trkpt>
      <trkpt lat="56.607862003147602" lon="-3.973187981173396">
        <ele>100.11</ele>
        <time>2023-09-01T17:46:22Z</time>
      </trkpt>
      <trkpt lat="56.607753038406372" lon="-3.973187981173396">
        <ele>100.59999999999999</ele>
        <time>2023-09-01T17:46:23Z</time>
      </trkpt>
      <trkpt lat="56.607648013159633" lon="-3.973225029185414">
        <ele>100.59999999999999</ele>
        <time>2023-09-01T17:46:24Z</time>
      </trkpt>
      <trkpt lat="56.607539970427752" lon="-3.973300969228149">
        <ele>101.08</ele>
        <time>2023-09-01T17:46:25Z</time>
      </trkpt>
      <trkpt lat="56.607429999858141" lon="-3.973379004746676">
        <ele>101.08</ele>
        <time>2023-09-01T17:46:26Z</time>
      </trkpt>
      <trkpt lat="56.606572028249502" lon="-3.9742929674685">
        <ele>101.08</ele>
        <time>2023-09-01T17:46:34Z</time>
      </trkpt>
      <trkpt lat="56.606458034366369" lon="-3.974457001313567">
        <ele>101.08</ele>
        <time>2023-09-01T17:46:35Z</time>
      </trkpt>
      <trkpt lat="56.606340017169714" lon="-3.974624974653125">
        <ele>101.56</ele>
        <time>2023-09-01T17:46:36Z</time>
      </trkpt>
      <trkpt lat="56.605350030586123" lon="-3.976048976182938">
        <ele>101.56</ele>
        <time>2023-09-01T17:46:44Z</time>
      </trkpt>
      <trkpt lat="56.604896988719702" lon="-3.976830001920462">
        <ele>101.56</ele>
        <time>2023-09-01T17:46:48Z</time>
      </trkpt>
      <trkpt lat="56.604680987074971" lon="-3.977181036025286">
        <ele>102.04000000000001</ele>
        <time>2023-09-01T17:46:50Z</time>
      </trkpt>
      <trkpt lat="56.604567999020219" lon="-3.977350015193224">
        <ele>102.04000000000001</ele>
        <time>2023-09-01T17:46:51Z</time>
      </trkpt>
      <trkpt lat="56.604454005137086" lon="-3.977520000189543">
        <ele>102.52</ele>
        <time>2023-09-01T17:46:52Z</time>
      </trkpt>
      <trkpt lat="56.604243032634258" lon="-3.977766009047627">
        <ele>103</ele>
        <time>2023-09-01T17:46:54Z</time>
      </trkpt>
      <trkpt lat="56.604128032922745" lon="-3.977895006537437">
        <ele>103</ele>
        <time>2023-09-01T17:46:55Z</time>
      </trkpt>
      <trkpt lat="56.603944972157478" lon="-3.978102039545775">
        <ele>103</ele>
        <time>2023-09-01T17:46:56Z</time>
      </trkpt>
      <trkpt lat="56.603869032114744" lon="-3.978172028437257">
        <ele>103.48</ele>
        <time>2023-09-01T17:46:57Z</time>
      </trkpt>
      <trkpt lat="56.60373299382627" lon="-3.978298008441925">
        <ele>103</ele>
        <time>2023-09-01T17:46:58Z</time>
      </trkpt>
      <trkpt lat="56.603327980265021" lon="-3.97867301478982">
        <ele>102.52</ele>
        <time>2023-09-01T17:47:01Z</time>
      </trkpt>
      <trkpt lat="56.60319596529007" lon="-3.978794971480966">
        <ele>102.52</ele>
        <time>2023-09-01T17:47:02Z</time>
      </trkpt>
      <trkpt lat="56.603039978072047" lon="-3.978917011991143">
        <ele>102.52</ele>
        <time>2023-09-01T17:47:03Z</time>
      </trkpt>
      <trkpt lat="56.602748036384583" lon="-3.979047015309334">
        <ele>102.04000000000001</ele>
        <time>2023-09-01T17:47:05Z</time>
      </trkpt>
      <trkpt lat="56.602506972849369" lon="-3.979153968393803">
        <ele>101.56</ele>
        <time>2023-09-01T17:47:07Z</time>
      </trkpt>
      <trkpt lat="56.602380992844701" lon="-3.979272991418839">
        <ele>101.08</ele>
        <time>2023-09-01T17:47:08Z</time>
      </trkpt>
      <trkpt lat="56.602130960673094" lon="-3.97951003164053">
        <ele>100.59999999999999</ele>
        <time>2023-09-01T17:47:10Z</time>
      </trkpt>
      <trkpt lat="56.60065901465714" lon="-3.981208959594369">
        <ele>106.36</ele>
        <time>2023-09-01T17:47:21Z</time>
      </trkpt>
      <trkpt lat="56.599694006145" lon="-3.982768999412656">
        <ele>109.73</ele>
        <time>2023-09-01T17:47:29Z</time>
      </trkpt>
      <trkpt lat="56.599550005048513" lon="-3.982920041307807">
        <ele>110.20999999999999</ele>
        <time>2023-09-01T17:47:30Z</time>
      </trkpt>
      <trkpt lat="56.599416984245181" lon="-3.983059013262391">
        <ele>110.69</ele>
        <time>2023-09-01T17:47:31Z</time>
      </trkpt>
      <trkpt lat="56.598572004586458" lon="-3.984271036460996">
        <ele>113.09</ele>
        <time>2023-09-01T17:47:37Z</time>
      </trkpt>
      <trkpt lat="56.597591992467642" lon="-3.985992008820176">
        <ele>116.94</ele>
        <time>2023-09-01T17:47:45Z</time>
      </trkpt>
      <trkpt lat="56.596799986436963" lon="-3.986728023737669">
        <ele>120.3</ele>
        <time>2023-09-01T17:47:51Z</time>
      </trkpt>
      <trkpt lat="56.596659002825618" lon="-3.987108981236816">
        <ele>120.78</ele>
        <time>2023-09-01T17:47:52Z</time>
      </trkpt>
      <trkpt lat="56.596569987013936" lon="-3.987351972609758">
        <ele>121.26000000000001</ele>
        <time>2023-09-01T17:47:53Z</time>
      </trkpt>
      <trkpt lat="56.596090039238334" lon="-3.988188989460468">
        <ele>123.67</ele>
        <time>2023-09-01T17:47:57Z</time>
      </trkpt>
      <trkpt lat="56.595900021493435" lon="-3.988486966118217">
        <ele>125.11</ele>
        <time>2023-09-01T17:47:59Z</time>
      </trkpt>
      <trkpt lat="56.595815028995275" lon="-3.988620992749929">
        <ele>125.59</ele>
        <time>2023-09-01T17:48:00Z</time>
      </trkpt>
      <trkpt lat="56.595702962949872" lon="-3.988703973591328">
        <ele>125.59</ele>
        <time>2023-09-01T17:48:01Z</time>
      </trkpt>
      <trkpt lat="56.59550397656858" lon="-3.988802963867784">
        <ele>126.55</ele>
        <time>2023-09-01T17:48:03Z</time>
      </trkpt>
      <trkpt lat="56.595299961045384" lon="-3.988904971629381">
        <ele>127.51000000000001</ele>
        <time>2023-09-01T17:48:05Z</time>
      </trkpt>
      <trkpt lat="56.594545003026724" lon="-3.989284001290798">
        <ele>127.98999999999999</ele>
        <time>2023-09-01T17:48:11Z</time>
      </trkpt>
      <trkpt lat="56.594441989436746" lon="-3.989411992952228">
        <ele>127.98999999999999</ele>
        <time>2023-09-01T17:48:12Z</time>
      </trkpt>
      <trkpt lat="56.594375018030405" lon="-3.989495979622006">
        <ele>127.98999999999999</ele>
        <time>2023-09-01T17:48:13Z</time>
      </trkpt>
      <trkpt lat="56.594286002218723" lon="-3.989753974601626">
        <ele>127.51000000000001</ele>
        <time>2023-09-01T17:48:14Z</time>
      </trkpt>
      <trkpt lat="56.594211990013719" lon="-3.989966958761215">
        <ele>127.51000000000001</ele>
        <time>2023-09-01T17:48:15Z</time>
      </trkpt>
      <trkpt lat="56.594161028042436" lon="-3.990221014246345">
        <ele>127.51000000000001</ele>
        <time>2023-09-01T17:48:16Z</time>
      </trkpt>
      <trkpt lat="56.594117023050785" lon="-3.990569030866027">
        <ele>127.98999999999999</ele>
        <time>2023-09-01T17:48:17Z</time>
      </trkpt>
      <trkpt lat="56.593366004526615" lon="-3.992479015141726">
        <ele>130.88</ele>
        <time>2023-09-01T17:48:25Z</time>
      </trkpt>
      <trkpt lat="56.593126030638814" lon="-3.992840023711324">
        <ele>131.36000000000001</ele>
        <time>2023-09-01T17:48:27Z</time>
      </trkpt>
      <trkpt lat="56.5930110309273" lon="-3.993012020364404">
        <ele>131.84</ele>
        <time>2023-09-01T17:48:28Z</time>
      </trkpt>
      <trkpt lat="56.592900976538658" lon="-3.99317697621882">
        <ele>131.84</ele>
        <time>2023-09-01T17:48:29Z</time>
      </trkpt>
      <trkpt lat="56.592808021232486" lon="-3.993316031992436">
        <ele>131.84</ele>
        <time>2023-09-01T17:48:30Z</time>
      </trkpt>
      <trkpt lat="56.59275303594768" lon="-3.993594981729984">
        <ele>131.84</ele>
        <time>2023-09-01T17:48:31Z</time>
      </trkpt>
      <trkpt lat="56.592697966843843" lon="-3.99386596865952">
        <ele>131.84</ele>
        <time>2023-09-01T17:48:32Z</time>
      </trkpt>
      <trkpt lat="56.59228197298944" lon="-3.995142029598355">
        <ele>131.84</ele>
        <time>2023-09-01T17:48:37Z</time>
      </trkpt>
      <trkpt lat="56.592192035168409" lon="-3.995358031243086">
        <ele>131.36000000000001</ele>
        <time>2023-09-01T17:48:38Z</time>
      </trkpt>
      <trkpt lat="56.591805964708328" lon="-3.996609030291438">
        <ele>132.31999999999999</ele>
        <time>2023-09-01T17:48:43Z</time>
      </trkpt>
      <trkpt lat="56.591019993647933" lon="-3.998782960698009">
        <ele>133.75999999999999</ele>
        <time>2023-09-01T17:48:52Z</time>
      </trkpt>
      <trkpt lat="56.590501992031932" lon="-3.999979980289936">
        <ele>134.72</ele>
        <time>2023-09-01T17:48:57Z</time>
      </trkpt>
      <trkpt lat="56.589887011796236" lon="-4.001451004296541">
        <ele>134.24000000000001</ele>
        <time>2023-09-01T17:49:03Z</time>
      </trkpt>
      <trkpt lat="56.589783998206258" lon="-4.001700030639768">
        <ele>133.75999999999999</ele>
        <time>2023-09-01T17:49:04Z</time>
      </trkpt>
      <trkpt lat="56.589419972151518" lon="-4.002564959228039">
        <ele>132.80000000000001</ele>
        <time>2023-09-01T17:49:08Z</time>
      </trkpt>
      <trkpt lat="56.589332967996597" lon="-4.002747014164925">
        <ele>132.31999999999999</ele>
        <time>2023-09-01T17:49:09Z</time>
      </trkpt>
      <trkpt lat="56.588839022442698" lon="-4.003771031275392">
        <ele>127.51000000000001</ele>
        <time>2023-09-01T17:49:16Z</time>
      </trkpt>
      <trkpt lat="56.588773978874087" lon="-4.003850994631648">
        <ele>126.55</ele>
        <time>2023-09-01T17:49:17Z</time>
      </trkpt>
      <trkpt lat="56.588737014681101" lon="-4.003844037652016">
        <ele>126.06999999999999</ele>
        <time>2023-09-01T17:49:18Z</time>
      </trkpt>
      <trkpt lat="56.588667025789618" lon="-4.003830039873719">
        <ele>126.06999999999999</ele>
        <time>2023-09-01T17:49:19Z</time>
      </trkpt>
      <trkpt lat="56.588569963350892" lon="-4.003732977434993">
        <ele>125.11</ele>
        <time>2023-09-01T17:49:20Z</time>
      </trkpt>
      <trkpt lat="56.588468039408326" lon="-4.003630969673395">
        <ele>124.63</ele>
        <time>2023-09-01T17:49:21Z</time>
      </trkpt>
      <trkpt lat="56.588368965312839" lon="-4.003531979396939">
        <ele>124.15000000000001</ele>
        <time>2023-09-01T17:49:22Z</time>
      </trkpt>
      <trkpt lat="56.588267041370273" lon="-4.003440029919148">
        <ele>123.67</ele>
        <time>2023-09-01T17:49:23Z</time>
      </trkpt>
      <trkpt lat="56.588084986433387" lon="-4.003310026600957">
        <ele>122.22</ele>
        <time>2023-09-01T17:49:25Z</time>
      </trkpt>
      <trkpt lat="56.587974010035396" lon="-4.003256969153881">
        <ele>121.73999999999999</ele>
        <time>2023-09-01T17:49:26Z</time>
      </trkpt>
      <trkpt lat="56.587882982566953" lon="-4.003318995237351">
        <ele>121.73999999999999</ele>
        <time>2023-09-01T17:49:27Z</time>
      </trkpt>
      <trkpt lat="56.587850041687489" lon="-4.003364006057382">
        <ele>121.26000000000001</ele>
        <time>2023-09-01T17:49:28Z</time>
      </trkpt>
      <trkpt lat="56.587816011160612" lon="-4.003412034362555">
        <ele>121.26000000000001</ele>
        <time>2023-09-01T17:49:29Z</time>
      </trkpt>
      <trkpt lat="56.587784998118877" lon="-4.003455033525825">
        <ele>121.26000000000001</ele>
        <time>2023-09-01T17:49:30Z</time>
      </trkpt>
      <trkpt lat="56.587755996733904" lon="-4.003496021032333">
        <ele>121.73999999999999</ele>
        <time>2023-09-01T17:49:31Z</time>
      </trkpt>
      <trkpt lat="56.587749039754272" lon="-4.003715962171555">
        <ele>121.73999999999999</ele>
        <time>2023-09-01T17:49:32Z</time>
      </trkpt>
      <trkpt lat="56.587808970361948" lon="-4.003893993794918">
        <ele>121.73999999999999</ele>
        <time>2023-09-01T17:49:33Z</time>
      </trkpt>
      <trkpt lat="56.587810982018709" lon="-4.003908997401595">
        <ele>121.26000000000001</ele>
        <time>2023-09-01T17:49:34Z</time>
      </trkpt>
      <trkpt lat="56.58783596009016" lon="-4.004058027639985">
        <ele>121.73999999999999</ele>
        <time>2023-09-01T17:49:35Z</time>
      </trkpt>
      <trkpt lat="56.587865967303514" lon="-4.004238992929459">
        <ele>122.70999999999999</ele>
        <time>2023-09-01T17:49:36Z</time>
      </trkpt>
      <trkpt lat="56.587894968688488" lon="-4.004408977925777">
        <ele>123.19</ele>
        <time>2023-09-01T17:49:37Z</time>
      </trkpt>
      <trkpt lat="56.587894968688488" lon="-4.004652975127101">
        <ele>124.15000000000001</ele>
        <time>2023-09-01T17:49:38Z</time>
      </trkpt>
      <trkpt lat="56.587894968688488" lon="-4.004889009520412">
        <ele>124.63</ele>
        <time>2023-09-01T17:49:39Z</time>
      </trkpt>
      <trkpt lat="56.587894968688488" lon="-4.005075003951788">
        <ele>125.59</ele>
        <time>2023-09-01T17:49:40Z</time>
      </trkpt>
      <trkpt lat="56.587867978960276" lon="-4.005340961739421">
        <ele>126.06999999999999</ele>
        <time>2023-09-01T17:49:41Z</time>
      </trkpt>
      <trkpt lat="56.587839983403683" lon="-4.005571966990829">
        <ele>127.03</ele>
        <time>2023-09-01T17:49:42Z</time>
      </trkpt>
      <trkpt lat="56.587797990068793" lon="-4.005827028304339">
        <ele>127.51000000000001</ele>
        <time>2023-09-01T17:49:43Z</time>
      </trkpt>
      <trkpt lat="56.587752979248762" lon="-4.006073037162423">
        <ele>127.98999999999999</ele>
        <time>2023-09-01T17:49:44Z</time>
      </trkpt>
      <trkpt lat="56.587629010900855" lon="-4.006599001586437">
        <ele>128.94999999999999</ele>
        <time>2023-09-01T17:49:46Z</time>
      </trkpt>
      <trkpt lat="56.587487021461129" lon="-4.007198978215456">
        <ele>129.91999999999999</ele>
        <time>2023-09-01T17:49:48Z</time>
      </trkpt>
      <trkpt lat="56.58740596845746" lon="-4.007397964596748">
        <ele>130.40000000000001</ele>
        <time>2023-09-01T17:49:49Z</time>
      </trkpt>
      <trkpt lat="56.586640030145645" lon="-4.009283976629376">
        <ele>134.24000000000001</ele>
        <time>2023-09-01T17:49:56Z</time>
      </trkpt>
      <trkpt lat="56.585501013323665" lon="-4.011835008859634">
        <ele>141.93000000000001</ele>
        <time>2023-09-01T17:50:05Z</time>
      </trkpt>
      <trkpt lat="56.584454029798508" lon="-4.013928975909948">
        <ele>146.25999999999999</ele>
        <time>2023-09-01T17:50:13Z</time>
      </trkpt>
      <trkpt lat="56.583936028182507" lon="-4.014964979141951">
        <ele>144.34</ele>
        <time>2023-09-01T17:50:19Z</time>
      </trkpt>
      <trkpt lat="56.583649031817913" lon="-4.015539977699518">
        <ele>141.93000000000001</ele>
        <time>2023-09-01T17:50:23Z</time>
      </trkpt>
      <trkpt lat="56.583517016842961" lon="-4.015803001821041">
        <ele>141.44999999999999</ele>
        <time>2023-09-01T17:50:25Z</time>
      </trkpt>
      <trkpt lat="56.583464965224266" lon="-4.016020009294152">
        <ele>140.49000000000001</ele>
        <time>2023-09-01T17:50:26Z</time>
      </trkpt>
      <trkpt lat="56.58340897411108" lon="-4.016246991232038">
        <ele>140.49000000000001</ele>
        <time>2023-09-01T17:50:27Z</time>
      </trkpt>
      <trkpt lat="56.583017958328128" lon="-4.017853969708085">
        <ele>140.97</ele>
        <time>2023-09-01T17:50:32Z</time>
      </trkpt>
      <trkpt lat="56.582946041598916" lon="-4.018149012699723">
        <ele>140.97</ele>
        <time>2023-09-01T17:50:33Z</time>
      </trkpt>
      <trkpt lat="56.582877980545163" lon="-4.018430979922414">
        <ele>140.97</ele>
        <time>2023-09-01T17:50:34Z</time>
      </trkpt>
      <trkpt lat="56.582437008619308" lon="-4.020020021125674">
        <ele>139.53</ele>
        <time>2023-09-01T17:50:41Z</time>
      </trkpt>
      <trkpt lat="56.581851029768586" lon="-4.021970992907882">
        <ele>138.56999999999999</ele>
        <time>2023-09-01T17:50:50Z</time>
      </trkpt>
      <trkpt lat="56.581627987325191" lon="-4.022623021155596">
        <ele>139.05000000000001</ele>
        <time>2023-09-01T17:50:53Z</time>
      </trkpt>
      <trkpt lat="56.581076039001346" lon="-4.024348016828299">
        <ele>140.49000000000001</ele>
        <time>2023-09-01T17:51:01Z</time>
      </trkpt>
      <trkpt lat="56.580627020448446" lon="-4.02624199166894">
        <ele>142.88999999999999</ele>
        <time>2023-09-01T17:51:09Z</time>
      </trkpt>
      <trkpt lat="56.580400038510561" lon="-4.02722803875804">
        <ele>144.34</ele>
        <time>2023-09-01T17:51:13Z</time>
      </trkpt>
      <trkpt lat="56.58033600077033" lon="-4.027504976838827">
        <ele>144.34</ele>
        <time>2023-09-01T17:51:14Z</time>
      </trkpt>
      <trkpt lat="56.580299036577344" lon="-4.027669010683894">
        <ele>143.84999999999999</ele>
        <time>2023-09-01T17:51:15Z</time>
      </trkpt>
      <trkpt lat="56.580165009945631" lon="-4.028436038643122">
        <ele>143.84999999999999</ele>
        <time>2023-09-01T17:51:18Z</time>
      </trkpt>
      <trkpt lat="56.579908020794392" lon="-4.029911002144218">
        <ele>144.34</ele>
        <time>2023-09-01T17:51:24Z</time>
      </trkpt>
      <trkpt lat="56.579866027459502" lon="-4.030151981860399">
        <ele>144.34</ele>
        <time>2023-09-01T17:51:25Z</time>
      </trkpt>
      <trkpt lat="56.579462019726634" lon="-4.032076969742775">
        <ele>144.81999999999999</ele>
        <time>2023-09-01T17:51:33Z</time>
      </trkpt>
      <trkpt lat="56.579404016956687" lon="-4.032292971387506">
        <ele>144.81999999999999</ele>
        <time>2023-09-01T17:51:34Z</time>
      </trkpt>
      <trkpt lat="56.579283988103271" lon="-4.032736960798502">
        <ele>145.30000000000001</ele>
        <time>2023-09-01T17:51:36Z</time>
      </trkpt>
      <trkpt lat="56.579219028353691" lon="-4.032981041818857">
        <ele>145.30000000000001</ele>
        <time>2023-09-01T17:51:37Z</time>
      </trkpt>
      <trkpt lat="56.57900202088058" lon="-4.033960970118642">
        <ele>145.78</ele>
        <time>2023-09-01T17:51:41Z</time>
      </trkpt>
      <trkpt lat="56.578822983428836" lon="-4.034714000299573">
        <ele>146.25999999999999</ele>
        <time>2023-09-01T17:51:44Z</time>
      </trkpt>
      <trkpt lat="56.578197022899985" lon="-4.036817019805312">
        <ele>146.25999999999999</ele>
        <time>2023-09-01T17:51:52Z</time>
      </trkpt>
      <trkpt lat="56.578132985159755" lon="-4.037065040320158">
        <ele>146.25999999999999</ele>
        <time>2023-09-01T17:51:53Z</time>
      </trkpt>
      <trkpt lat="56.578028965741396" lon="-4.037550017237663">
        <ele>146.25999999999999</ele>
        <time>2023-09-01T17:51:55Z</time>
      </trkpt>
      <trkpt lat="56.577974986284971" lon="-4.037814969196916">
        <ele>146.74000000000001</ele>
        <time>2023-09-01T17:51:56Z</time>
      </trkpt>
      <trkpt lat="56.577783962711692" lon="-4.038676964119077">
        <ele>148.18000000000001</ele>
        <time>2023-09-01T17:51:59Z</time>
      </trkpt>
      <trkpt lat="56.577707016840577" lon="-4.038969995453954">
        <ele>148.18000000000001</ele>
        <time>2023-09-01T17:52:00Z</time>
      </trkpt>
      <trkpt lat="56.577372997999191" lon="-4.04010096564889">
        <ele>148.66</ele>
        <time>2023-09-01T17:52:04Z</time>
      </trkpt>
      <trkpt lat="56.577177029103041" lon="-4.040903029963374">
        <ele>149.13999999999999</ele>
        <time>2023-09-01T17:52:07Z</time>
      </trkpt>
      <trkpt lat="56.577125983312726" lon="-4.041192037984729">
        <ele>149.13999999999999</ele>
        <time>2023-09-01T17:52:08Z</time>
      </trkpt>
      <trkpt lat="56.576856002211571" lon="-4.043420031666756">
        <ele>151.53999999999999</ele>
        <time>2023-09-01T17:52:15Z</time>
      </trkpt>
      <trkpt lat="56.576758017763495" lon="-4.044756023213267">
        <ele>153.47</ele>
        <time>2023-09-01T17:52:19Z</time>
      </trkpt>
      <trkpt lat="56.576637988910079" lon="-4.045925969257951">
        <ele>153.94999999999999</ele>
        <time>2023-09-01T17:52:23Z</time>
      </trkpt>
      <trkpt lat="56.576483007520437" lon="-4.046754017472267">
        <ele>155.38999999999999</ele>
        <time>2023-09-01T17:52:26Z</time>
      </trkpt>
      <trkpt lat="56.576345963403583" lon="-4.047610983252525">
        <ele>157.78999999999999</ele>
        <time>2023-09-01T17:52:29Z</time>
      </trkpt>
      <trkpt lat="56.57631796784699" lon="-4.047904014587402">
        <ele>158.75</ele>
        <time>2023-09-01T17:52:30Z</time>
      </trkpt>
      <trkpt lat="56.576288966462016" lon="-4.048205008730292">
        <ele>159.24000000000001</ele>
        <time>2023-09-01T17:52:31Z</time>
      </trkpt>
      <trkpt lat="56.576228030025959" lon="-4.048851002007723">
        <ele>160.68000000000001</ele>
        <time>2023-09-01T17:52:33Z</time>
      </trkpt>
      <trkpt lat="56.576172960922122" lon="-4.049170017242432">
        <ele>161.16</ele>
        <time>2023-09-01T17:52:34Z</time>
      </trkpt>
      <trkpt lat="56.575824022293091" lon="-4.0510159637779">
        <ele>165.96000000000001</ele>
        <time>2023-09-01T17:52:40Z</time>
      </trkpt>
      <trkpt lat="56.575666023418307" lon="-4.052294036373496">
        <ele>168.37</ele>
        <time>2023-09-01T17:52:44Z</time>
      </trkpt>
      <trkpt lat="56.57563098706305" lon="-4.052628977224231">
        <ele>168.84999999999999</ele>
        <time>2023-09-01T17:52:45Z</time>
      </trkpt>
      <trkpt lat="56.575422026216984" lon="-4.054619008675218">
        <ele>171.25</ele>
        <time>2023-09-01T17:52:51Z</time>
      </trkpt>
      <trkpt lat="56.575383972376585" lon="-4.054996026679874">
        <ele>171.72999999999999</ele>
        <time>2023-09-01T17:52:52Z</time>
      </trkpt>
      <trkpt lat="56.57522102817893" lon="-4.056617002934218">
        <ele>173.16999999999999</ele>
        <time>2023-09-01T17:52:57Z</time>
      </trkpt>
      <trkpt lat="56.575191020965576" lon="-4.056912967935205">
        <ele>173.16999999999999</ele>
        <time>2023-09-01T17:52:58Z</time>
      </trkpt>
      <trkpt lat="56.575131006538868" lon="-4.057509005069733">
        <ele>173.66</ele>
        <time>2023-09-01T17:53:00Z</time>
      </trkpt>
      <trkpt lat="56.575099993497133" lon="-4.057816034182906">
        <ele>174.13999999999999</ele>
        <time>2023-09-01T17:53:01Z</time>
      </trkpt>
      <trkpt lat="56.57507099211216" lon="-4.05810403637588">
        <ele>174.13999999999999</ele>
        <time>2023-09-01T17:53:02Z</time>
      </trkpt>
      <trkpt lat="56.574931014329195" lon="-4.059816040098667">
        <ele>174.13999999999999</ele>
        <time>2023-09-01T17:53:08Z</time>
      </trkpt>
      <trkpt lat="56.574913999065757" lon="-4.060060037299991">
        <ele>173.66</ele>
        <time>2023-09-01T17:53:09Z</time>
      </trkpt>
      <trkpt lat="56.57487996853888" lon="-4.060561023652554">
        <ele>172.69</ele>
        <time>2023-09-01T17:53:11Z</time>
      </trkpt>
      <trkpt lat="56.574782989919186" lon="-4.061983013525605">
        <ele>170.28999999999999</ele>
        <time>2023-09-01T17:53:16Z</time>
      </trkpt>
      <trkpt lat="56.574557013809681" lon="-4.064073041081429">
        <ele>165.47999999999999</ele>
        <time>2023-09-01T17:53:23Z</time>
      </trkpt>
      <trkpt lat="56.574475960806012" lon="-4.06472297385335">
        <ele>162.12</ele>
        <time>2023-09-01T17:53:26Z</time>
      </trkpt>
      <trkpt lat="56.574418963864446" lon="-4.065177021548152">
        <ele>160.19999999999999</ele>
        <time>2023-09-01T17:53:29Z</time>
      </trkpt>
      <trkpt lat="56.574418963864446" lon="-4.065468041226268">
        <ele>159.24000000000001</ele>
        <time>2023-09-01T17:53:30Z</time>
      </trkpt>
      <trkpt lat="56.574418963864446" lon="-4.065638026222587">
        <ele>158.27000000000001</ele>
        <time>2023-09-01T17:53:31Z</time>
      </trkpt>
      <trkpt lat="56.574418963864446" lon="-4.066175976768136">
        <ele>156.34999999999999</ele>
        <time>2023-09-01T17:53:34Z</time>
      </trkpt>
      <trkpt lat="56.574418963864446" lon="-4.06635501421988">
        <ele>155.38999999999999</ele>
        <time>2023-09-01T17:53:35Z</time>
      </trkpt>
      <trkpt lat="56.574400020763278" lon="-4.066883996129036">
        <ele>154.91</ele>
        <time>2023-09-01T17:53:38Z</time>
      </trkpt>
      <trkpt lat="56.574194999411702" lon="-4.068486029282212">
        <ele>153.47</ele>
        <time>2023-09-01T17:53:49Z</time>
      </trkpt>
      <trkpt lat="56.574183013290167" lon="-4.06856800429523">
        <ele>153.47</ele>
        <time>2023-09-01T17:53:50Z</time>
      </trkpt>
      <trkpt lat="56.574183013290167" lon="-4.06856800429523">
        <ele>153.47</ele>
        <time>2023-09-01T17:53:51Z</time>
      </trkpt>
      <trkpt lat="56.574109001085162" lon="-4.068864975124598">
        <ele>153.47</ele>
        <time>2023-09-01T17:53:52Z</time>
      </trkpt>
      <trkpt lat="56.574054015800357" lon="-4.069082988426089">
        <ele>153.47</ele>
        <time>2023-09-01T17:53:53Z</time>
      </trkpt>
      <trkpt lat="56.574034988880157" lon="-4.069227995350957">
        <ele>153.47</ele>
        <time>2023-09-01T17:53:54Z</time>
      </trkpt>
      <trkpt lat="56.574013028293848" lon="-4.069388005882502">
        <ele>153.47</ele>
        <time>2023-09-01T17:53:55Z</time>
      </trkpt>
      <trkpt lat="56.573946978896856" lon="-4.069870971143246">
        <ele>152.99000000000001</ele>
        <time>2023-09-01T17:53:58Z</time>
      </trkpt>
      <trkpt lat="56.573913032189012" lon="-4.070229968056083">
        <ele>152.99000000000001</ele>
        <time>2023-09-01T17:54:00Z</time>
      </trkpt>
      <trkpt lat="56.573886964470148" lon="-4.070665994659066">
        <ele>152.99000000000001</ele>
        <time>2023-09-01T17:54:02Z</time>
      </trkpt>
      <trkpt lat="56.573873972520232" lon="-4.070872021839023">
        <ele>152.99000000000001</ele>
        <time>2023-09-01T17:54:03Z</time>
      </trkpt>
      <trkpt lat="56.573807001113892" lon="-4.0721579734236">
        <ele>149.62</ele>
        <time>2023-09-01T17:54:09Z</time>
      </trkpt>
      <trkpt lat="56.573801971971989" lon="-4.072338016703725">
        <ele>148.66</ele>
        <time>2023-09-01T17:54:10Z</time>
      </trkpt>
      <trkpt lat="56.573797026649117" lon="-4.072516970336437">
        <ele>147.69999999999999</ele>
        <time>2023-09-01T17:54:11Z</time>
      </trkpt>
      <trkpt lat="56.573790991678834" lon="-4.07271302305162">
        <ele>145.30000000000001</ele>
        <time>2023-09-01T17:54:12Z</time>
      </trkpt>
      <trkpt lat="56.573785040527582" lon="-4.072922989726067">
        <ele>143.37</ele>
        <time>2023-09-01T17:54:13Z</time>
      </trkpt>
      <trkpt lat="56.573777999728918" lon="-4.073129016906023">
        <ele>141.44999999999999</ele>
        <time>2023-09-01T17:54:14Z</time>
      </trkpt>
      <trkpt lat="56.573772970587015" lon="-4.07329497858882">
        <ele>140.00999999999999</ele>
        <time>2023-09-01T17:54:15Z</time>
      </trkpt>
      <trkpt lat="56.573768025264144" lon="-4.073478039354086">
        <ele>138.56999999999999</ele>
        <time>2023-09-01T17:54:16Z</time>
      </trkpt>
      <trkpt lat="56.57376098446548" lon="-4.073710972443223">
        <ele>136.63999999999999</ele>
        <time>2023-09-01T17:54:17Z</time>
      </trkpt>
      <trkpt lat="56.573735000565648" lon="-4.074599035084248">
        <ele>129.91999999999999</ele>
        <time>2023-09-01T17:54:21Z</time>
      </trkpt>
      <trkpt lat="56.573727959766984" lon="-4.074813025072217">
        <ele>128.94999999999999</ele>
        <time>2023-09-01T17:54:22Z</time>
      </trkpt>
      <trkpt lat="56.573722008615732" lon="-4.075034977868199">
        <ele>127.98999999999999</ele>
        <time>2023-09-01T17:54:23Z</time>
      </trkpt>
      <trkpt lat="56.573709016665816" lon="-4.075475027784705">
        <ele>126.06999999999999</ele>
        <time>2023-09-01T17:54:25Z</time>
      </trkpt>
      <trkpt lat="56.573701975867152" lon="-4.075687006115913">
        <ele>125.11</ele>
        <time>2023-09-01T17:54:26Z</time>
      </trkpt>
      <trkpt lat="56.5736960247159" lon="-4.07589303329587">
        <ele>124.15000000000001</ele>
        <time>2023-09-01T17:54:27Z</time>
      </trkpt>
      <trkpt lat="56.573688983917236" lon="-4.076120015233755">
        <ele>123.19</ele>
        <time>2023-09-01T17:54:28Z</time>
      </trkpt>
      <trkpt lat="56.573682026937604" lon="-4.076354959979653">
        <ele>121.73999999999999</ele>
        <time>2023-09-01T17:54:29Z</time>
      </trkpt>
      <trkpt lat="56.57367599196732" lon="-4.076565010473132">
        <ele>120.3</ele>
        <time>2023-09-01T17:54:30Z</time>
      </trkpt>
      <trkpt lat="56.573685966432095" lon="-4.077582992613316">
        <ele>117.90000000000001</ele>
        <time>2023-09-01T17:54:35Z</time>
      </trkpt>
      <trkpt lat="56.573690995573997" lon="-4.077780973166227">
        <ele>117.90000000000001</ele>
        <time>2023-09-01T17:54:36Z</time>
      </trkpt>
      <trkpt lat="56.57369895838201" lon="-4.078135024756193">
        <ele>117.42</ele>
        <time>2023-09-01T17:54:38Z</time>
      </trkpt>
      <trkpt lat="56.573702981695533" lon="-4.078305009752512">
        <ele>117.42</ele>
        <time>2023-09-01T17:54:39Z</time>
      </trkpt>
      <trkpt lat="56.573719996958971" lon="-4.079013029113412">
        <ele>116.94</ele>
        <time>2023-09-01T17:54:43Z</time>
      </trkpt>
      <trkpt lat="56.573725026100874" lon="-4.079187037423253">
        <ele>116.45999999999999</ele>
        <time>2023-09-01T17:54:44Z</time>
      </trkpt>
      <trkpt lat="56.573732988908887" lon="-4.07954502850771">
        <ele>116.94</ele>
        <time>2023-09-01T17:54:46Z</time>
      </trkpt>
      <trkpt lat="56.57373801805079" lon="-4.079732028767467">
        <ele>116.94</ele>
        <time>2023-09-01T17:54:47Z</time>
      </trkpt>
      <trkpt lat="56.573742041364312" lon="-4.079918023198843">
        <ele>116.94</ele>
        <time>2023-09-01T17:54:48Z</time>
      </trkpt>
      <trkpt lat="56.573751010000706" lon="-4.080289006233215">
        <ele>116.94</ele>
        <time>2023-09-01T17:54:50Z</time>
      </trkpt>
      <trkpt lat="56.573756039142609" lon="-4.08047097735107">
        <ele>117.42</ele>
        <time>2023-09-01T17:54:51Z</time>
      </trkpt>
      <trkpt lat="56.573759978637099" lon="-4.080646997317672">
        <ele>117.42</ele>
        <time>2023-09-01T17:54:52Z</time>
      </trkpt>
      <trkpt lat="56.573828039690852" lon="-4.083105996251106">
        <ele>116.45999999999999</ele>
        <time>2023-09-01T17:55:06Z</time>
      </trkpt>
      <trkpt lat="56.573823010548949" lon="-4.084776006639004">
        <ele>114.05</ele>
        <time>2023-09-01T17:55:15Z</time>
      </trkpt>
      <trkpt lat="56.57380498945713" lon="-4.084960995242">
        <ele>114.05</ele>
        <time>2023-09-01T17:55:16Z</time>
      </trkpt>
      <trkpt lat="56.573786968365312" lon="-4.085141038522124">
        <ele>114.53</ele>
        <time>2023-09-01T17:55:17Z</time>
      </trkpt>
      <trkpt lat="56.573774982243776" lon="-4.08526198938489">
        <ele>114.53</ele>
        <time>2023-09-01T17:55:18Z</time>
      </trkpt>
      <trkpt lat="56.573728965595365" lon="-4.085471034049988">
        <ele>114.53</ele>
        <time>2023-09-01T17:55:19Z</time>
      </trkpt>
      <trkpt lat="56.573694013059139" lon="-4.085631966590881">
        <ele>114.53</ele>
        <time>2023-09-01T17:55:20Z</time>
      </trkpt>
      <trkpt lat="56.573339039459825" lon="-4.087236011400819">
        <ele>115.01000000000001</ele>
        <time>2023-09-01T17:55:30Z</time>
      </trkpt>
      <trkpt lat="56.573103005066514" lon="-4.088395982980728">
        <ele>115.01000000000001</ele>
        <time>2023-09-01T17:55:37Z</time>
      </trkpt>
      <trkpt lat="56.572819026187062" lon="-4.08988201059401">
        <ele>115.98</ele>
        <time>2023-09-01T17:55:46Z</time>
      </trkpt>
      <trkpt lat="56.572680976241827" lon="-4.091474991291761">
        <ele>115.5</ele>
        <time>2023-09-01T17:55:53Z</time>
      </trkpt>
      <trkpt lat="56.572680976241827" lon="-4.092002967372537">
        <ele>115.01000000000001</ele>
        <time>2023-09-01T17:55:55Z</time>
      </trkpt>
      <trkpt lat="56.572645017877221" lon="-4.092251993715763">
        <ele>115.01000000000001</ele>
        <time>2023-09-01T17:55:56Z</time>
      </trkpt>
      <trkpt lat="56.572601012885571" lon="-4.09250102005899">
        <ele>114.53</ele>
        <time>2023-09-01T17:55:57Z</time>
      </trkpt>
      <trkpt lat="56.572439996525645" lon="-4.093193029984832">
        <ele>114.53</ele>
        <time>2023-09-01T17:56:00Z</time>
      </trkpt>
      <trkpt lat="56.572349974885583" lon="-4.093407019972801">
        <ele>114.53</ele>
        <time>2023-09-01T17:56:01Z</time>
      </trkpt>
      <trkpt lat="56.572259031236172" lon="-4.093624027445912">
        <ele>114.05</ele>
        <time>2023-09-01T17:56:02Z</time>
      </trkpt>
      <trkpt lat="56.572165992110968" lon="-4.093844974413514">
        <ele>113.56999999999999</ele>
        <time>2023-09-01T17:56:03Z</time>
      </trkpt>
      <trkpt lat="56.572058033198118" lon="-4.094025017693639">
        <ele>113.56999999999999</ele>
        <time>2023-09-01T17:56:04Z</time>
      </trkpt>
      <trkpt lat="56.571942027658224" lon="-4.094217969104648">
        <ele>113.09</ele>
        <time>2023-09-01T17:56:05Z</time>
      </trkpt>
      <trkpt lat="56.571700964123011" lon="-4.094620971009135">
        <ele>112.61</ele>
        <time>2023-09-01T17:56:07Z</time>
      </trkpt>
      <trkpt lat="56.571575989946723" lon="-4.094817023724318">
        <ele>112.13</ele>
        <time>2023-09-01T17:56:08Z</time>
      </trkpt>
      <trkpt lat="56.571334004402161" lon="-4.095181971788406">
        <ele>111.17</ele>
        <time>2023-09-01T17:56:10Z</time>
      </trkpt>
      <trkpt lat="56.570135978981853" lon="-4.097059015184641">
        <ele>108.29000000000001</ele>
        <time>2023-09-01T17:56:19Z</time>
      </trkpt>
      <trkpt lat="56.569197960197926" lon="-4.09882097505033">
        <ele>107.31999999999999</ele>
        <time>2023-09-01T17:56:26Z</time>
      </trkpt>
      <trkpt lat="56.568040000274777" lon="-4.100508000701666">
        <ele>109.73</ele>
        <time>2023-09-01T17:56:34Z</time>
      </trkpt>
      <trkpt lat="56.56682102009654" lon="-4.102166024968028">
        <ele>113.56999999999999</ele>
        <time>2023-09-01T17:56:42Z</time>
      </trkpt>
      <trkpt lat="56.565486034378409" lon="-4.104095958173275">
        <ele>121.26000000000001</ele>
        <time>2023-09-01T17:56:51Z</time>
      </trkpt>
      <trkpt lat="56.564567964524031" lon="-4.105471009388566">
        <ele>125.11</ele>
        <time>2023-09-01T17:56:57Z</time>
      </trkpt>
      <trkpt lat="56.563566997647285" lon="-4.106999030336738">
        <ele>128.47</ele>
        <time>2023-09-01T17:57:03Z</time>
      </trkpt>
      <trkpt lat="56.562037970870733" lon="-4.109334982931614">
        <ele>134.24000000000001</ele>
        <time>2023-09-01T17:57:12Z</time>
      </trkpt>
      <trkpt lat="56.560670966282487" lon="-4.111447976902127">
        <ele>138.09</ele>
        <time>2023-09-01T17:57:20Z</time>
      </trkpt>
      <trkpt lat="56.558972038328648" lon="-4.113572034984827">
        <ele>145.30000000000001</ele>
        <time>2023-09-01T17:57:30Z</time>
      </trkpt>
      <trkpt lat="56.557294987142086" lon="-4.115851996466517">
        <ele>152.03</ele>
        <time>2023-09-01T17:57:40Z</time>
      </trkpt>
      <trkpt lat="56.555367987602949" lon="-4.118919018656015">
        <ele>156.83000000000001</ele>
        <time>2023-09-01T17:57:52Z</time>
      </trkpt>
      <trkpt lat="56.554120006039739" lon="-4.120239000767469">
        <ele>161.63999999999999</ele>
        <time>2023-09-01T17:57:59Z</time>
      </trkpt>
      <trkpt lat="56.552299037575722" lon="-4.121454963460565">
        <ele>165</ele>
        <time>2023-09-01T17:58:08Z</time>
      </trkpt>
      <trkpt lat="56.550612011924386" lon="-4.122633961960673">
        <ele>161.63999999999999</ele>
        <time>2023-09-01T17:58:16Z</time>
      </trkpt>
      <trkpt lat="56.549303010106087" lon="-4.123689997941256">
        <ele>165.47999999999999</ele>
        <time>2023-09-01T17:58:23Z</time>
      </trkpt>
      <trkpt lat="56.547545995563269" lon="-4.125221958383918">
        <ele>174.62</ele>
        <time>2023-09-01T17:58:34Z</time>
      </trkpt>
      <trkpt lat="56.54542101547122" lon="-4.127295976504684">
        <ele>181.34999999999999</ele>
        <time>2023-09-01T17:58:47Z</time>
      </trkpt>
      <trkpt lat="56.543180029839277" lon="-4.130243975669146">
        <ele>188.56</ele>
        <time>2023-09-01T17:59:00Z</time>
      </trkpt>
      <trkpt lat="56.541234003379941" lon="-4.133873004466295">
        <ele>198.16999999999999</ele>
        <time>2023-09-01T17:59:13Z</time>
      </trkpt>
      <trkpt lat="56.539449999108911" lon="-4.137153010815382">
        <ele>203.46000000000001</ele>
        <time>2023-09-01T17:59:25Z</time>
      </trkpt>
      <trkpt lat="56.5376459620893" lon="-4.139861036092043">
        <ele>201.53</ele>
        <time>2023-09-01T17:59:36Z</time>
      </trkpt>
      <trkpt lat="56.535901017487049" lon="-4.142118031159043">
        <ele>195.28</ele>
        <time>2023-09-01T17:59:46Z</time>
      </trkpt>
      <trkpt lat="56.535099959000945" lon="-4.143189992755652">
        <ele>192.40000000000001</ele>
        <time>2023-09-01T17:59:52Z</time>
      </trkpt>
      <trkpt lat="56.53403403237462" lon="-4.14481800980866">
        <ele>189.52000000000001</ele>
        <time>2023-09-01T18:00:02Z</time>
      </trkpt>
      <trkpt lat="56.533391978591681" lon="-4.146554991602898">
        <ele>187.59</ele>
        <time>2023-09-01T18:00:10Z</time>
      </trkpt>
      <trkpt lat="56.533057959750295" lon="-4.147889977321029">
        <ele>185.66999999999999</ele>
        <time>2023-09-01T18:00:17Z</time>
      </trkpt>
      <trkpt lat="56.532889986410737" lon="-4.148539993911982">
        <ele>184.22999999999999</ele>
        <time>2023-09-01T18:00:21Z</time>
      </trkpt>
      <trkpt lat="56.532829971984029" lon="-4.148680977523327">
        <ele>184.22999999999999</ele>
        <time>2023-09-01T18:00:22Z</time>
      </trkpt>
      <trkpt lat="56.532166041433811" lon="-4.150027027353644">
        <ele>186.63</ele>
        <time>2023-09-01T18:00:33Z</time>
      </trkpt>
      <trkpt lat="56.531294994056225" lon="-4.151528980582953">
        <ele>190.47999999999999</ele>
        <time>2023-09-01T18:00:45Z</time>
      </trkpt>
      <trkpt lat="56.531207989901304" lon="-4.151625037193298">
        <ele>190.96000000000001</ele>
        <time>2023-09-01T18:00:46Z</time>
      </trkpt>
      <trkpt lat="56.531113022938371" lon="-4.151665018871427">
        <ele>190.96000000000001</ele>
        <time>2023-09-01T18:00:47Z</time>
      </trkpt>
      <trkpt lat="56.531010009348392" lon="-4.151703994721174">
        <ele>191.44</ele>
        <time>2023-09-01T18:00:48Z</time>
      </trkpt>
      <trkpt lat="56.530903978273273" lon="-4.151744982227683">
        <ele>191.44</ele>
        <time>2023-09-01T18:00:49Z</time>
      </trkpt>
      <trkpt lat="56.529456004500389" lon="-4.152008006349206">
        <ele>196.25</ele>
        <time>2023-09-01T18:01:02Z</time>
      </trkpt>
      <trkpt lat="56.5282569732517" lon="-4.152172962203622">
        <ele>200.09</ele>
        <time>2023-09-01T18:01:14Z</time>
      </trkpt>
      <trkpt lat="56.527457004413009" lon="-4.1527059674263">
        <ele>202.00999999999999</ele>
        <time>2023-09-01T18:01:23Z</time>
      </trkpt>
      <trkpt lat="56.526648988947272" lon="-4.153676005080342">
        <ele>203.94</ele>
        <time>2023-09-01T18:01:31Z</time>
      </trkpt>
      <trkpt lat="56.52511996217072" lon="-4.155709035694599">
        <ele>211.15000000000001</ele>
        <time>2023-09-01T18:01:44Z</time>
      </trkpt>
      <trkpt lat="56.524240029975772" lon="-4.157506031915546">
        <ele>214.99000000000001</ele>
        <time>2023-09-01T18:01:52Z</time>
      </trkpt>
      <trkpt lat="56.523911040276289" lon="-4.158316981047392">
        <ele>216.43000000000001</ele>
        <time>2023-09-01T18:01:55Z</time>
      </trkpt>
      <trkpt lat="56.523845996707678" lon="-4.158635996282101">
        <ele>216.91</ele>
        <time>2023-09-01T18:01:56Z</time>
      </trkpt>
      <trkpt lat="56.523110987618566" lon="-4.161961013451219">
        <ele>221.24000000000001</ele>
        <time>2023-09-01T18:02:06Z</time>
      </trkpt>
      <trkpt lat="56.522436998784542" lon="-4.164292020723224">
        <ele>224.12</ele>
        <time>2023-09-01T18:02:14Z</time>
      </trkpt>
      <trkpt lat="56.522349994629622" lon="-4.164498969912529">
        <ele>225.09</ele>
        <time>2023-09-01T18:02:15Z</time>
      </trkpt>
      <trkpt lat="56.52118700556457" lon="-4.166290014982224">
        <ele>228.93000000000001</ele>
        <time>2023-09-01T18:02:25Z</time>
      </trkpt>
      <trkpt lat="56.520587028935552" lon="-4.167374968528748">
        <ele>231.33000000000001</ele>
        <time>2023-09-01T18:02:30Z</time>
      </trkpt>
      <trkpt lat="56.519637024030089" lon="-4.170152982696891">
        <ele>232.30000000000001</ele>
        <time>2023-09-01T18:02:39Z</time>
      </trkpt>
      <trkpt lat="56.518348976969719" lon="-4.174595978111029">
        <ele>229.88999999999999</ele>
        <time>2023-09-01T18:02:52Z</time>
      </trkpt>
      <trkpt lat="56.517057996243238" lon="-4.179914966225624">
        <ele>225.56999999999999</ele>
        <time>2023-09-01T18:03:07Z</time>
      </trkpt>
      <trkpt lat="56.516044959425926" lon="-4.18428897857666">
        <ele>221.24000000000001</ele>
        <time>2023-09-01T18:03:19Z</time>
      </trkpt>
      <trkpt lat="56.515096966177225" lon="-4.1879409737885">
        <ele>220.28</ele>
        <time>2023-09-01T18:03:29Z</time>
      </trkpt>
      <trkpt lat="56.513948980718851" lon="-4.191563967615366">
        <ele>227.97</ele>
        <time>2023-09-01T18:03:40Z</time>
      </trkpt>
      <trkpt lat="56.51276595890522" lon="-4.195603961125016">
        <ele>233.25999999999999</ele>
        <time>2023-09-01T18:03:52Z</time>
      </trkpt>
      <trkpt lat="56.512201018631458" lon="-4.198278961703181">
        <ele>233.25999999999999</ele>
        <time>2023-09-01T18:04:00Z</time>
      </trkpt>
      <trkpt lat="56.512135975062847" lon="-4.198620021343231">
        <ele>232.78</ele>
        <time>2023-09-01T18:04:01Z</time>
      </trkpt>
      <trkpt lat="56.511353021487594" lon="-4.203402986750007">
        <ele>232.78</ele>
        <time>2023-09-01T18:04:14Z</time>
      </trkpt>
      <trkpt lat="56.510598985478282" lon="-4.207182973623276">
        <ele>232.30000000000001</ele>
        <time>2023-09-01T18:04:24Z</time>
      </trkpt>
      <trkpt lat="56.5096499864012" lon="-4.210847960785031">
        <ele>232.78</ele>
        <time>2023-09-01T18:04:34Z</time>
      </trkpt>
      <trkpt lat="56.508922018110752" lon="-4.213022980839014">
        <ele>235.66</ele>
        <time>2023-09-01T18:04:41Z</time>
      </trkpt>
      <trkpt lat="56.507100965827703" lon="-4.216271974146366">
        <ele>243.83000000000001</ele>
        <time>2023-09-01T18:04:53Z</time>
      </trkpt>
      <trkpt lat="56.505548972636461" lon="-4.220036035403609">
        <ele>250.08000000000001</ele>
        <time>2023-09-01T18:05:05Z</time>
      </trkpt>
      <trkpt lat="56.504459995776415" lon="-4.222697960212827">
        <ele>252</ele>
        <time>2023-09-01T18:05:14Z</time>
      </trkpt>
      <trkpt lat="56.502929041162133" lon="-4.225397016853094">
        <ele>246.22999999999999</ele>
        <time>2023-09-01T18:05:24Z</time>
      </trkpt>
      <trkpt lat="56.501365983858705" lon="-4.228177964687347">
        <ele>234.22</ele>
        <time>2023-09-01T18:05:34Z</time>
      </trkpt>
      <trkpt lat="56.500804983079433" lon="-4.230112005025148">
        <ele>228.44999999999999</ele>
        <time>2023-09-01T18:05:40Z</time>
      </trkpt>
      <trkpt lat="56.499908035621047" lon="-4.233762994408608">
        <ele>218.36000000000001</ele>
        <time>2023-09-01T18:05:50Z</time>
      </trkpt>
      <trkpt lat="56.49875502102077" lon="-4.237639037892222">
        <ele>208.74000000000001</ele>
        <time>2023-09-01T18:06:01Z</time>
      </trkpt>
      <trkpt lat="56.498711016029119" lon="-4.237983031198382">
        <ele>208.25999999999999</ele>
        <time>2023-09-01T18:06:02Z</time>
      </trkpt>
      <trkpt lat="56.498664999380708" lon="-4.238338004797697">
        <ele>207.30000000000001</ele>
        <time>2023-09-01T18:06:03Z</time>
      </trkpt>
      <trkpt lat="56.498352019116282" lon="-4.241645000874996">
        <ele>201.05000000000001</ele>
        <time>2023-09-01T18:06:12Z</time>
      </trkpt>
      <trkpt lat="56.498361993581057" lon="-4.24197600223124">
        <ele>200.09</ele>
        <time>2023-09-01T18:06:13Z</time>
      </trkpt>
      <trkpt lat="56.498372973874211" lon="-4.242293005809188">
        <ele>199.13</ele>
        <time>2023-09-01T18:06:14Z</time>
      </trkpt>
      <trkpt lat="56.498417984694242" lon="-4.242599029093981">
        <ele>198.65000000000001</ele>
        <time>2023-09-01T18:06:15Z</time>
      </trkpt>
      <trkpt lat="56.498595010489225" lon="-4.2438879981637">
        <ele>196.25</ele>
        <time>2023-09-01T18:06:19Z</time>
      </trkpt>
      <trkpt lat="56.498624011874199" lon="-4.244499038904905">
        <ele>195.28</ele>
        <time>2023-09-01T18:06:21Z</time>
      </trkpt>
      <trkpt lat="56.498388983309269" lon="-4.247070020064712">
        <ele>192.40000000000001</ele>
        <time>2023-09-01T18:06:29Z</time>
      </trkpt>
      <trkpt lat="56.498048007488251" lon="-4.249306982383132">
        <ele>190.47999999999999</ele>
        <time>2023-09-01T18:06:36Z</time>
      </trkpt>
      <trkpt lat="56.497828988358378" lon="-4.250343991443515">
        <ele>188.56</ele>
        <time>2023-09-01T18:06:40Z</time>
      </trkpt>
      <trkpt lat="56.497747013345361" lon="-4.250550018623471">
        <ele>188.08000000000001</ele>
        <time>2023-09-01T18:06:41Z</time>
      </trkpt>
      <trkpt lat="56.49765900336206" lon="-4.250769959762693">
        <ele>187.59</ele>
        <time>2023-09-01T18:06:42Z</time>
      </trkpt>
      <trkpt lat="56.497362032532692" lon="-4.251513015478849">
        <ele>186.63</ele>
        <time>2023-09-01T18:06:45Z</time>
      </trkpt>
      <trkpt lat="56.496617970988154" lon="-4.253415958955884">
        <ele>182.31</ele>
        <time>2023-09-01T18:06:52Z</time>
      </trkpt>
      <trkpt lat="56.496518980711699" lon="-4.253668002784252">
        <ele>181.34999999999999</ele>
        <time>2023-09-01T18:06:53Z</time>
      </trkpt>
      <trkpt lat="56.495495969429612" lon="-4.255971014499664">
        <ele>173.66</ele>
        <time>2023-09-01T18:07:02Z</time>
      </trkpt>
      <trkpt lat="56.494318982586265" lon="-4.2580880317837">
        <ele>168.84999999999999</ele>
        <time>2023-09-01T18:07:10Z</time>
      </trkpt>
      <trkpt lat="56.492670010775328" lon="-4.261507010087371">
        <ele>168.37</ele>
        <time>2023-09-01T18:07:22Z</time>
      </trkpt>
      <trkpt lat="56.491305017843843" lon="-4.26440698094666">
        <ele>174.13999999999999</ele>
        <time>2023-09-01T18:07:33Z</time>
      </trkpt>
      <trkpt lat="56.490489039570093" lon="-4.26694099791348">
        <ele>177.97999999999999</ele>
        <time>2023-09-01T18:07:41Z</time>
      </trkpt>
      <trkpt lat="56.489853020757437" lon="-4.270213041454554">
        <ele>178.94</ele>
        <time>2023-09-01T18:07:50Z</time>
      </trkpt>
      <trkpt lat="56.488990020006895" lon="-4.276405004784465">
        <ele>175.58000000000001</ele>
        <time>2023-09-01T18:08:06Z</time>
      </trkpt>
      <trkpt lat="56.488826991990209" lon="-4.277364984154701">
        <ele>174.13999999999999</ele>
        <time>2023-09-01T18:08:09Z</time>
      </trkpt>
      <trkpt lat="56.488750968128443" lon="-4.277645023539662">
        <ele>174.13999999999999</ele>
        <time>2023-09-01T18:08:10Z</time>
      </trkpt>
      <trkpt lat="56.488662958145142" lon="-4.277920033782721">
        <ele>173.16999999999999</ele>
        <time>2023-09-01T18:08:11Z</time>
      </trkpt>
      <trkpt lat="56.488558016717434" lon="-4.278180040419102">
        <ele>172.69</ele>
        <time>2023-09-01T18:08:12Z</time>
      </trkpt>
      <trkpt lat="56.488449973985553" lon="-4.278439963236451">
        <ele>172.21000000000001</ele>
        <time>2023-09-01T18:08:13Z</time>
      </trkpt>
      <trkpt lat="56.488084020093083" lon="-4.279158962890506">
        <ele>170.28999999999999</ele>
        <time>2023-09-01T18:08:16Z</time>
      </trkpt>
      <trkpt lat="56.487946975976229" lon="-4.279399020597339">
        <ele>170.28999999999999</ele>
        <time>2023-09-01T18:08:17Z</time>
      </trkpt>
      <trkpt lat="56.487812027335167" lon="-4.279635976999998">
        <ele>170.77000000000001</ele>
        <time>2023-09-01T18:08:18Z</time>
      </trkpt>
      <trkpt lat="56.487574987113476" lon="-4.280084995552898">
        <ele>171.25</ele>
        <time>2023-09-01T18:08:20Z</time>
      </trkpt>
      <trkpt lat="56.487371977418661" lon="-4.28058598190546">
        <ele>171.72999999999999</ele>
        <time>2023-09-01T18:08:22Z</time>
      </trkpt>
      <trkpt lat="56.486620958894491" lon="-4.28243100643158">
        <ele>170.28999999999999</ele>
        <time>2023-09-01T18:08:29Z</time>
      </trkpt>
      <trkpt lat="56.48567296564579" lon="-4.285072982311249">
        <ele>170.28999999999999</ele>
        <time>2023-09-01T18:08:39Z</time>
      </trkpt>
      <trkpt lat="56.485011968761683" lon="-4.287638012319803">
        <ele>167.88999999999999</ele>
        <time>2023-09-01T18:08:47Z</time>
      </trkpt>
      <trkpt lat="56.484889006242156" lon="-4.28984303958714">
        <ele>166.44999999999999</ele>
        <time>2023-09-01T18:08:53Z</time>
      </trkpt>
      <trkpt lat="56.48493804037571" lon="-4.291603993624449">
        <ele>165</ele>
        <time>2023-09-01T18:08:58Z</time>
      </trkpt>
      <trkpt lat="56.484922030940652" lon="-4.291920997202396">
        <ele>165</ele>
        <time>2023-09-01T18:08:59Z</time>
      </trkpt>
      <trkpt lat="56.484907027333975" lon="-4.292222997173667">
        <ele>165</ele>
        <time>2023-09-01T18:09:00Z</time>
      </trkpt>
      <trkpt lat="56.484874002635479" lon="-4.292481997981668">
        <ele>165</ele>
        <time>2023-09-01T18:09:01Z</time>
      </trkpt>
      <trkpt lat="56.484807031229138" lon="-4.292735969647765">
        <ele>165.47999999999999</ele>
        <time>2023-09-01T18:09:02Z</time>
      </trkpt>
      <trkpt lat="56.484740981832147" lon="-4.292986001819372">
        <ele>165.47999999999999</ele>
        <time>2023-09-01T18:09:03Z</time>
      </trkpt>
      <trkpt lat="56.484665041789412" lon="-4.293202003464103">
        <ele>165.47999999999999</ele>
        <time>2023-09-01T18:09:04Z</time>
      </trkpt>
      <trkpt lat="56.484560016542673" lon="-4.29341297596693">
        <ele>165.96000000000001</ele>
        <time>2023-09-01T18:09:05Z</time>
      </trkpt>
      <trkpt lat="56.484450967982411" lon="-4.293628977611661">
        <ele>165.96000000000001</ele>
        <time>2023-09-01T18:09:06Z</time>
      </trkpt>
      <trkpt lat="56.484342003241181" lon="-4.293846990913153">
        <ele>165.96000000000001</ele>
        <time>2023-09-01T18:09:07Z</time>
      </trkpt>
      <trkpt lat="56.484148968011141" lon="-4.294274970889092">
        <ele>165.96000000000001</ele>
        <time>2023-09-01T18:09:09Z</time>
      </trkpt>
      <trkpt lat="56.484076967462897" lon="-4.294489966705442">
        <ele>166.44999999999999</ele>
        <time>2023-09-01T18:09:10Z</time>
      </trkpt>
      <trkpt lat="56.484040003269911" lon="-4.294733963906765">
        <ele>166.44999999999999</ele>
        <time>2023-09-01T18:09:11Z</time>
      </trkpt>
      <trkpt lat="56.484012007713318" lon="-4.294991958886385">
        <ele>166.93000000000001</ele>
        <time>2023-09-01T18:09:12Z</time>
      </trkpt>
      <trkpt lat="56.483983006328344" lon="-4.295265963301063">
        <ele>167.41</ele>
        <time>2023-09-01T18:09:13Z</time>
      </trkpt>
      <trkpt lat="56.483712019398808" lon="-4.297842979431152">
        <ele>170.77000000000001</ele>
        <time>2023-09-01T18:09:21Z</time>
      </trkpt>
      <trkpt lat="56.483345981687307" lon="-4.301008991897106">
        <ele>173.16999999999999</ele>
        <time>2023-09-01T18:09:30Z</time>
      </trkpt>
      <trkpt lat="56.483214972540736" lon="-4.301969977095723">
        <ele>173.16999999999999</ele>
        <time>2023-09-01T18:09:33Z</time>
      </trkpt>
      <trkpt lat="56.482930993661284" lon="-4.30479702539742">
        <ele>169.81</ele>
        <time>2023-09-01T18:09:41Z</time>
      </trkpt>
      <trkpt lat="56.482868967577815" lon="-4.305505966767669">
        <ele>169.33000000000001</ele>
        <time>2023-09-01T18:09:43Z</time>
      </trkpt>
      <trkpt lat="56.482839966192842" lon="-4.305841997265816">
        <ele>169.33000000000001</ele>
        <time>2023-09-01T18:09:44Z</time>
      </trkpt>
      <trkpt lat="56.482781963422894" lon="-4.306506011635065">
        <ele>168.84999999999999</ele>
        <time>2023-09-01T18:09:46Z</time>
      </trkpt>
      <trkpt lat="56.482290029525757" lon="-4.309103982523084">
        <ele>169.81</ele>
        <time>2023-09-01T18:09:54Z</time>
      </trkpt>
      <trkpt lat="56.481571029871702" lon="-4.312442997470498">
        <ele>168.84999999999999</ele>
        <time>2023-09-01T18:10:04Z</time>
      </trkpt>
      <trkpt lat="56.480890000239015" lon="-4.314366979524493">
        <ele>168.37</ele>
        <time>2023-09-01T18:10:11Z</time>
      </trkpt>
      <trkpt lat="56.480615995824337" lon="-4.315206008031964">
        <ele>167.41</ele>
        <time>2023-09-01T18:10:14Z</time>
      </trkpt>
      <trkpt lat="56.480541983619332" lon="-4.315502978861332">
        <ele>167.41</ele>
        <time>2023-09-01T18:10:15Z</time>
      </trkpt>
      <trkpt lat="56.480465037748218" lon="-4.315809002146125">
        <ele>166.93000000000001</ele>
        <time>2023-09-01T18:10:16Z</time>
      </trkpt>
      <trkpt lat="56.480225985869765" lon="-4.31676596403122">
        <ele>165.96000000000001</ele>
        <time>2023-09-01T18:10:19Z</time>
      </trkpt>
      <trkpt lat="56.480077039450407" lon="-4.317362001165748">
        <ele>165.47999999999999</ele>
        <time>2023-09-01T18:10:21Z</time>
      </trkpt>
      <trkpt lat="56.479563983157277" lon="-4.318899996578693">
        <ele>165</ele>
        <time>2023-09-01T18:10:27Z</time>
      </trkpt>
      <trkpt lat="56.479447977617383" lon="-4.31923602707684">
        <ele>165</ele>
        <time>2023-09-01T18:10:28Z</time>
      </trkpt>
      <trkpt lat="56.479385029524565" lon="-4.319448005408049">
        <ele>164.52000000000001</ele>
        <time>2023-09-01T18:10:29Z</time>
      </trkpt>
      <trkpt lat="56.479275980964303" lon="-4.319815970957279">
        <ele>164.52000000000001</ele>
        <time>2023-09-01T18:10:31Z</time>
      </trkpt>
      <trkpt lat="56.479217978194356" lon="-4.320219978690147">
        <ele>164.03999999999999</ele>
        <time>2023-09-01T18:10:32Z</time>
      </trkpt>
      <trkpt lat="56.479189982637763" lon="-4.32041703723371">
        <ele>164.03999999999999</ele>
        <time>2023-09-01T18:10:33Z</time>
      </trkpt>
      <trkpt lat="56.479222001507878" lon="-4.320587022230029">
        <ele>163.56</ele>
        <time>2023-09-01T18:10:34Z</time>
      </trkpt>
      <trkpt lat="56.479254020377994" lon="-4.32076103053987">
        <ele>163.08000000000001</ele>
        <time>2023-09-01T18:10:35Z</time>
      </trkpt>
      <trkpt lat="56.479286961257458" lon="-4.320937972515822">
        <ele>163.08000000000001</ele>
        <time>2023-09-01T18:10:36Z</time>
      </trkpt>
      <trkpt lat="56.479315962642431" lon="-4.321034029126167">
        <ele>163.08000000000001</ele>
        <time>2023-09-01T18:10:37Z</time>
      </trkpt>
      <trkpt lat="56.479418976232409" lon="-4.321238966658711">
        <ele>162.59999999999999</ele>
        <time>2023-09-01T18:10:38Z</time>
      </trkpt>
      <trkpt lat="56.479726005345583" lon="-4.321854030713439">
        <ele>158.75</ele>
        <time>2023-09-01T18:10:41Z</time>
      </trkpt>
      <trkpt lat="56.479756012558937" lon="-4.322108002379537">
        <ele>157.31</ele>
        <time>2023-09-01T18:10:42Z</time>
      </trkpt>
      <trkpt lat="56.479769004508853" lon="-4.322218978777528">
        <ele>155.38999999999999</ele>
        <time>2023-09-01T18:10:43Z</time>
      </trkpt>
      <trkpt lat="56.479746038094163" lon="-4.322444032877684">
        <ele>154.43000000000001</ele>
        <time>2023-09-01T18:10:44Z</time>
      </trkpt>
      <trkpt lat="56.479726005345583" lon="-4.322627009823918">
        <ele>152.50999999999999</ele>
        <time>2023-09-01T18:10:45Z</time>
      </trkpt>
      <trkpt lat="56.479659033939242" lon="-4.322796994820237">
        <ele>151.06</ele>
        <time>2023-09-01T18:10:46Z</time>
      </trkpt>
      <trkpt lat="56.479583010077477" lon="-4.322986006736755">
        <ele>149.62</ele>
        <time>2023-09-01T18:10:47Z</time>
      </trkpt>
      <trkpt lat="56.479516960680485" lon="-4.323150962591171">
        <ele>148.66</ele>
        <time>2023-09-01T18:10:48Z</time>
      </trkpt>
      <trkpt lat="56.479469016194344" lon="-4.323269985616207">
        <ele>147.69999999999999</ele>
        <time>2023-09-01T18:10:49Z</time>
      </trkpt>
      <trkpt lat="56.479395003989339" lon="-4.323375010862947">
        <ele>147.22</ele>
        <time>2023-09-01T18:10:50Z</time>
      </trkpt>
      <trkpt lat="56.479316968470812" lon="-4.323484981432557">
        <ele>146.25999999999999</ele>
        <time>2023-09-01T18:10:51Z</time>
      </trkpt>
      <trkpt lat="56.479238010942936" lon="-4.32359796948731">
        <ele>145.30000000000001</ele>
        <time>2023-09-01T18:10:52Z</time>
      </trkpt>
      <trkpt lat="56.479162992909551" lon="-4.323677010834217">
        <ele>144.81999999999999</ele>
        <time>2023-09-01T18:10:53Z</time>
      </trkpt>
      <trkpt lat="56.47907498292625" lon="-4.323752028867602">
        <ele>145.30000000000001</ele>
        <time>2023-09-01T18:10:54Z</time>
      </trkpt>
      <trkpt lat="56.478894017636776" lon="-4.323846995830536">
        <ele>145.78</ele>
        <time>2023-09-01T18:10:56Z</time>
      </trkpt>
      <trkpt lat="56.478808019310236" lon="-4.323891000822187">
        <ele>146.25999999999999</ele>
        <time>2023-09-01T18:10:57Z</time>
      </trkpt>
      <trkpt lat="56.478717997670174" lon="-4.323936011642218">
        <ele>145.78</ele>
        <time>2023-09-01T18:10:58Z</time>
      </trkpt>
      <trkpt lat="56.478626970201731" lon="-4.323931988328695">
        <ele>145.30000000000001</ele>
        <time>2023-09-01T18:10:59Z</time>
      </trkpt>
      <trkpt lat="56.478532003238797" lon="-4.323927965015173">
        <ele>144.81999999999999</ele>
        <time>2023-09-01T18:11:00Z</time>
      </trkpt>
      <trkpt lat="56.478442987427115" lon="-4.323924025520682">
        <ele>144.34</ele>
        <time>2023-09-01T18:11:01Z</time>
      </trkpt>
      <trkpt lat="56.477650981396437" lon="-4.323860993608832">
        <ele>137.61000000000001</ele>
        <time>2023-09-01T18:11:09Z</time>
      </trkpt>
      <trkpt lat="56.477555008605123" lon="-4.323807014152408">
        <ele>137.13</ele>
        <time>2023-09-01T18:11:10Z</time>
      </trkpt>
      <trkpt lat="56.477461969479918" lon="-4.323755968362093">
        <ele>136.16</ele>
        <time>2023-09-01T18:11:11Z</time>
      </trkpt>
      <trkpt lat="56.476708017289639" lon="-4.323021965101361">
        <ele>132.31999999999999</ele>
        <time>2023-09-01T18:11:20Z</time>
      </trkpt>
      <trkpt lat="56.476617995649576" lon="-4.32290998287499">
        <ele>131.84</ele>
        <time>2023-09-01T18:11:21Z</time>
      </trkpt>
      <trkpt lat="56.47651900537312" lon="-4.322788026183844">
        <ele>131.36000000000001</ele>
        <time>2023-09-01T18:11:22Z</time>
      </trkpt>
      <trkpt lat="56.476320018991828" lon="-4.322541011497378">
        <ele>130.88</ele>
        <time>2023-09-01T18:11:24Z</time>
      </trkpt>
      <trkpt lat="56.476250030100346" lon="-4.322455013170838">
        <ele>130.40000000000001</ele>
        <time>2023-09-01T18:11:25Z</time>
      </trkpt>
      <trkpt lat="56.476069986820221" lon="-4.322424000129104">
        <ele>129.91999999999999</ele>
        <time>2023-09-01T18:11:26Z</time>
      </trkpt>
      <trkpt lat="56.475922968238592" lon="-4.322399022057653">
        <ele>129.43000000000001</ele>
        <time>2023-09-01T18:11:27Z</time>
      </trkpt>
      <trkpt lat="56.47578801959753" lon="-4.322375971823931">
        <ele>128.47</ele>
        <time>2023-09-01T18:11:28Z</time>
      </trkpt>
      <trkpt lat="56.4754010271281" lon="-4.32230799458921">
        <ele>126.55</ele>
        <time>2023-09-01T18:11:31Z</time>
      </trkpt>
      <trkpt lat="56.475274041295052" lon="-4.322284022346139">
        <ele>126.06999999999999</ele>
        <time>2023-09-01T18:11:32Z</time>
      </trkpt>
      <trkpt lat="56.47426201030612" lon="-4.322096016258001">
        <ele>123.19</ele>
        <time>2023-09-01T18:11:41Z</time>
      </trkpt>
      <trkpt lat="56.473213015124202" lon="-4.321480030193925">
        <ele>124.15000000000001</ele>
        <time>2023-09-01T18:11:51Z</time>
      </trkpt>
      <trkpt lat="56.473108995705843" lon="-4.321421021595597">
        <ele>124.63</ele>
        <time>2023-09-01T18:11:52Z</time>
      </trkpt>
      <trkpt lat="56.473003970459104" lon="-4.32136201299727">
        <ele>124.63</ele>
        <time>2023-09-01T18:11:53Z</time>
      </trkpt>
      <trkpt lat="56.472897017374635" lon="-4.321300992742181">
        <ele>125.11</ele>
        <time>2023-09-01T18:11:54Z</time>
      </trkpt>
      <trkpt lat="56.472773971036077" lon="-4.321232009679079">
        <ele>125.11</ele>
        <time>2023-09-01T18:11:55Z</time>
      </trkpt>
      <trkpt lat="56.47267397493124" lon="-4.321217006072402">
        <ele>124.63</ele>
        <time>2023-09-01T18:11:56Z</time>
      </trkpt>
      <trkpt lat="56.472561992704868" lon="-4.321200996637344">
        <ele>124.63</ele>
        <time>2023-09-01T18:11:57Z</time>
      </trkpt>
      <trkpt lat="56.471420964226127" lon="-4.32091299444437">
        <ele>120.3</ele>
        <time>2023-09-01T18:12:07Z</time>
      </trkpt>
      <trkpt lat="56.471310993656516" lon="-4.320855997502804">
        <ele>119.81999999999999</ele>
        <time>2023-09-01T18:12:08Z</time>
      </trkpt>
      <trkpt lat="56.470382027328014" lon="-4.320040019229055">
        <ele>120.3</ele>
        <time>2023-09-01T18:12:17Z</time>
      </trkpt>
      <trkpt lat="56.470297034829855" lon="-4.31992300786078">
        <ele>120.3</ele>
        <time>2023-09-01T18:12:18Z</time>
      </trkpt>
      <trkpt lat="56.470216987654567" lon="-4.319793004542589">
        <ele>120.3</ele>
        <time>2023-09-01T18:12:19Z</time>
      </trkpt>
      <trkpt lat="56.470149010419846" lon="-4.319626959040761">
        <ele>120.78</ele>
        <time>2023-09-01T18:12:20Z</time>
      </trkpt>
      <trkpt lat="56.470097964629531" lon="-4.319449011236429">
        <ele>121.26000000000001</ele>
        <time>2023-09-01T18:12:21Z</time>
      </trkpt>
      <trkpt lat="56.470045996829867" lon="-4.319266034290195">
        <ele>121.73999999999999</ele>
        <time>2023-09-01T18:12:22Z</time>
      </trkpt>
      <trkpt lat="56.469782972708344" lon="-4.318337989971042">
        <ele>123.67</ele>
        <time>2023-09-01T18:12:27Z</time>
      </trkpt>
      <trkpt lat="56.469731004908681" lon="-4.318154007196426">
        <ele>123.67</ele>
        <time>2023-09-01T18:12:28Z</time>
      </trkpt>
      <trkpt lat="56.46966302767396" lon="-4.318013023585081">
        <ele>123.67</ele>
        <time>2023-09-01T18:12:29Z</time>
      </trkpt>
      <trkpt lat="56.469508968293667" lon="-4.317755028605461">
        <ele>124.15000000000001</ele>
        <time>2023-09-01T18:12:31Z</time>
      </trkpt>
      <trkpt lat="56.46942900493741" lon="-4.317651009187102">
        <ele>124.63</ele>
        <time>2023-09-01T18:12:32Z</time>
      </trkpt>
      <trkpt lat="56.469330014660954" lon="-4.317552018910646">
        <ele>125.11</ele>
        <time>2023-09-01T18:12:33Z</time>
      </trkpt>
      <trkpt lat="56.469229012727737" lon="-4.317451016977429">
        <ele>125.59</ele>
        <time>2023-09-01T18:12:34Z</time>
      </trkpt>
      <trkpt lat="56.469124993309379" lon="-4.317346997559071">
        <ele>126.06999999999999</ele>
        <time>2023-09-01T18:12:35Z</time>
      </trkpt>
      <trkpt lat="56.469013011083007" lon="-4.317245995625854">
        <ele>126.55</ele>
        <time>2023-09-01T18:12:36Z</time>
      </trkpt>
      <trkpt lat="56.46889298222959" lon="-4.317177012562752">
        <ele>127.03</ele>
        <time>2023-09-01T18:12:37Z</time>
      </trkpt>
      <trkpt lat="56.468652002513409" lon="-4.317111968994141">
        <ele>127.51000000000001</ele>
        <time>2023-09-01T18:12:39Z</time>
      </trkpt>
      <trkpt lat="56.46852501668036" lon="-4.317138958722353">
        <ele>127.51000000000001</ele>
        <time>2023-09-01T18:12:40Z</time>
      </trkpt>
      <trkpt lat="56.468414040282369" lon="-4.317210037261248">
        <ele>127.51000000000001</ele>
        <time>2023-09-01T18:12:41Z</time>
      </trkpt>
      <trkpt lat="56.468298034742475" lon="-4.317303998395801">
        <ele>127.51000000000001</ele>
        <time>2023-09-01T18:12:42Z</time>
      </trkpt>
      <trkpt lat="56.468199966475368" lon="-4.317422015592456">
        <ele>127.51000000000001</ele>
        <time>2023-09-01T18:12:43Z</time>
      </trkpt>
      <trkpt lat="56.467603007331491" lon="-4.318122994154692">
        <ele>129.43000000000001</ele>
        <time>2023-09-01T18:12:49Z</time>
      </trkpt>
      <trkpt lat="56.467492030933499" lon="-4.318173034116626">
        <ele>129.43000000000001</ele>
        <time>2023-09-01T18:12:50Z</time>
      </trkpt>
      <trkpt lat="56.467378037050366" lon="-4.318198012188077">
        <ele>129.43000000000001</ele>
        <time>2023-09-01T18:12:51Z</time>
      </trkpt>
      <trkpt lat="56.466995989903808" lon="-4.318281998857856">
        <ele>129.91999999999999</ele>
        <time>2023-09-01T18:12:56Z</time>
      </trkpt>
      <trkpt lat="56.466526016592979" lon="-4.318371014669538">
        <ele>129.91999999999999</ele>
        <time>2023-09-01T18:13:01Z</time>
      </trkpt>
      <trkpt lat="56.46642099134624" lon="-4.318390041589737">
        <ele>129.91999999999999</ele>
        <time>2023-09-01T18:13:02Z</time>
      </trkpt>
      <trkpt lat="56.46545397117734" lon="-4.318801006302238">
        <ele>129.91999999999999</ele>
        <time>2023-09-01T18:13:12Z</time>
      </trkpt>
      <trkpt lat="56.464685015380383" lon="-4.31932202540338">
        <ele>129.43000000000001</ele>
        <time>2023-09-01T18:13:19Z</time>
      </trkpt>
      <trkpt lat="56.464579990133643" lon="-4.31938799098134">
        <ele>129.91999999999999</ele>
        <time>2023-09-01T18:13:20Z</time>
      </trkpt>
      <trkpt lat="56.463528983294964" lon="-4.320253003388643">
        <ele>131.84</ele>
        <time>2023-09-01T18:13:30Z</time>
      </trkpt>
      <trkpt lat="56.463322034105659" lon="-4.320444026961923">
        <ele>131.84</ele>
        <time>2023-09-01T18:13:33Z</time>
      </trkpt>
      <trkpt lat="56.463282974436879" lon="-4.320467999204993">
        <ele>131.84</ele>
        <time>2023-09-01T18:13:34Z</time>
      </trkpt>
      <trkpt lat="56.463255984708667" lon="-4.320484008640051">
        <ele>131.84</ele>
        <time>2023-09-01T18:13:35Z</time>
      </trkpt>
      <trkpt lat="56.463238969445229" lon="-4.320493983104825">
        <ele>131.36000000000001</ele>
        <time>2023-09-01T18:13:36Z</time>
      </trkpt>
      <trkpt lat="56.463225977495313" lon="-4.32050202973187">
        <ele>131.36000000000001</ele>
        <time>2023-09-01T18:13:37Z</time>
      </trkpt>
      <trkpt lat="56.463225977495313" lon="-4.32050202973187">
        <ele>131.36000000000001</ele>
        <time>2023-09-01T18:13:38Z</time>
      </trkpt>
      <trkpt lat="56.463192030787468" lon="-4.320479985326529">
        <ele>131.36000000000001</ele>
        <time>2023-09-01T18:13:39Z</time>
      </trkpt>
      <trkpt lat="56.463169986382127" lon="-4.320464981719852">
        <ele>131.36000000000001</ele>
        <time>2023-09-01T18:13:40Z</time>
      </trkpt>
      <trkpt lat="56.462861029431224" lon="-4.320072960108519">
        <ele>130.88</ele>
        <time>2023-09-01T18:13:47Z</time>
      </trkpt>
      <trkpt lat="56.462663970887661" lon="-4.319726033136249">
        <ele>131.36000000000001</ele>
        <time>2023-09-01T18:13:51Z</time>
      </trkpt>
      <trkpt lat="56.462480993941426" lon="-4.31955898180604">
        <ele>131.36000000000001</ele>
        <time>2023-09-01T18:13:54Z</time>
      </trkpt>
      <trkpt lat="56.46242500282824" lon="-4.319508019834757">
        <ele>131.84</ele>
        <time>2023-09-01T18:13:55Z</time>
      </trkpt>
      <trkpt lat="56.462327018380165" lon="-4.31955998763442">
        <ele>132.31999999999999</ele>
        <time>2023-09-01T18:13:56Z</time>
      </trkpt>
      <trkpt lat="56.462267003953457" lon="-4.319608015939593">
        <ele>132.31999999999999</ele>
        <time>2023-09-01T18:13:57Z</time>
      </trkpt>
      <trkpt lat="56.462201038375497" lon="-4.319660989567637">
        <ele>132.80000000000001</ele>
        <time>2023-09-01T18:13:58Z</time>
      </trkpt>
      <trkpt lat="56.462131971493363" lon="-4.319715974852443">
        <ele>132.80000000000001</ele>
        <time>2023-09-01T18:13:59Z</time>
      </trkpt>
      <trkpt lat="56.4620609767735" lon="-4.319785963743925">
        <ele>133.28</ele>
        <time>2023-09-01T18:14:00Z</time>
      </trkpt>
      <trkpt lat="56.461637020111084" lon="-4.32046196423471">
        <ele>134.24000000000001</ele>
        <time>2023-09-01T18:14:06Z</time>
      </trkpt>
      <trkpt lat="56.461582034826279" lon="-4.320616023615003">
        <ele>134.24000000000001</ele>
        <time>2023-09-01T18:14:07Z</time>
      </trkpt>
      <trkpt lat="56.461524032056332" lon="-4.320775028318167">
        <ele>134.72</ele>
        <time>2023-09-01T18:14:08Z</time>
      </trkpt>
      <trkpt lat="56.460829004645348" lon="-4.322957005351782">
        <ele>136.63999999999999</ele>
        <time>2023-09-01T18:14:20Z</time>
      </trkpt>
      <trkpt lat="56.460518036037683" lon="-4.323830986395478">
        <ele>138.56999999999999</ele>
        <time>2023-09-01T18:14:25Z</time>
      </trkpt>
      <trkpt lat="56.460256017744541" lon="-4.324399027973414">
        <ele>140.00999999999999</ele>
        <time>2023-09-01T18:14:28Z</time>
      </trkpt>
      <trkpt lat="56.459292015060782" lon="-4.326203987002373">
        <ele>140.49000000000001</ele>
        <time>2023-09-01T18:14:36Z</time>
      </trkpt>
      <trkpt lat="56.459066960960627" lon="-4.32675501331687">
        <ele>140.49000000000001</ele>
        <time>2023-09-01T18:14:38Z</time>
      </trkpt>
      <trkpt lat="56.458337986841798" lon="-4.329414004459977">
        <ele>138.09</ele>
        <time>2023-09-01T18:14:46Z</time>
      </trkpt>
      <trkpt lat="56.458144029602408" lon="-4.3301070202142">
        <ele>138.09</ele>
        <time>2023-09-01T18:14:48Z</time>
      </trkpt>
      <trkpt lat="56.457115989178419" lon="-4.332584962248802">
        <ele>136.63999999999999</ele>
        <time>2023-09-01T18:14:56Z</time>
      </trkpt>
      <trkpt lat="56.455538012087345" lon="-4.334754031151533">
        <ele>136.63999999999999</ele>
        <time>2023-09-01T18:15:05Z</time>
      </trkpt>
      <trkpt lat="56.453159982338548" lon="-4.337745029479265">
        <ele>140.00999999999999</ele>
        <time>2023-09-01T18:15:18Z</time>
      </trkpt>
      <trkpt lat="56.451949970796704" lon="-4.340037982910872">
        <ele>140.49000000000001</ele>
        <time>2023-09-01T18:15:26Z</time>
      </trkpt>
      <trkpt lat="56.450352966785431" lon="-4.344042018055916">
        <ele>147.22</ele>
        <time>2023-09-01T18:15:38Z</time>
      </trkpt>
      <trkpt lat="56.449026027694345" lon="-4.346341006457806">
        <ele>153.47</ele>
        <time>2023-09-01T18:15:46Z</time>
      </trkpt>
      <trkpt lat="56.447275970131159" lon="-4.34886496514082">
        <ele>162.59999999999999</ele>
        <time>2023-09-01T18:15:56Z</time>
      </trkpt>
      <trkpt lat="56.445468999445438" lon="-4.35154901817441">
        <ele>175.09999999999999</ele>
        <time>2023-09-01T18:16:07Z</time>
      </trkpt>
      <trkpt lat="56.443724976852536" lon="-4.353836020454764">
        <ele>178.46000000000001</ele>
        <time>2023-09-01T18:16:17Z</time>
      </trkpt>
      <trkpt lat="56.441722959280014" lon="-4.356198962777853">
        <ele>183.75</ele>
        <time>2023-09-01T18:16:28Z</time>
      </trkpt>
      <trkpt lat="56.440971018746495" lon="-4.357017958536744">
        <ele>188.56</ele>
        <time>2023-09-01T18:16:34Z</time>
      </trkpt>
      <trkpt lat="56.440799022093415" lon="-4.357150979340076">
        <ele>190.47999999999999</ele>
        <time>2023-09-01T18:16:37Z</time>
      </trkpt>
      <trkpt lat="56.440762979909778" lon="-4.357167994603515">
        <ele>190.96000000000001</ele>
        <time>2023-09-01T18:16:38Z</time>
      </trkpt>
      <trkpt lat="56.440734984353185" lon="-4.35717998072505">
        <ele>190.96000000000001</ele>
        <time>2023-09-01T18:16:39Z</time>
      </trkpt>
      <trkpt lat="56.440713023766875" lon="-4.357190961018205">
        <ele>191.44</ele>
        <time>2023-09-01T18:16:40Z</time>
      </trkpt>
      <trkpt lat="56.440601963549852" lon="-4.357194984331727">
        <ele>192.40000000000001</ele>
        <time>2023-09-01T18:16:41Z</time>
      </trkpt>
      <trkpt lat="56.44059500657022" lon="-4.357147961854935">
        <ele>192.88</ele>
        <time>2023-09-01T18:16:42Z</time>
      </trkpt>
      <trkpt lat="56.440582014620304" lon="-4.357066992670298">
        <ele>193.36000000000001</ele>
        <time>2023-09-01T18:16:43Z</time>
      </trkpt>
      <trkpt lat="56.440564999356866" lon="-4.356955010443926">
        <ele>193.84</ele>
        <time>2023-09-01T18:16:44Z</time>
      </trkpt>
      <trkpt lat="56.440352015197277" lon="-4.356268029659987">
        <ele>196.25</ele>
        <time>2023-09-01T18:16:49Z</time>
      </trkpt>
      <trkpt lat="56.440295018255711" lon="-4.356094021350145">
        <ele>197.21000000000001</ele>
        <time>2023-09-01T18:16:50Z</time>
      </trkpt>
      <trkpt lat="56.440232992172241" lon="-4.355902997776866">
        <ele>198.16999999999999</ele>
        <time>2023-09-01T18:16:51Z</time>
      </trkpt>
      <trkpt lat="56.440168032422662" lon="-4.355705017223954">
        <ele>198.65000000000001</ele>
        <time>2023-09-01T18:16:52Z</time>
      </trkpt>
      <trkpt lat="56.440094020217657" lon="-4.355478035286069">
        <ele>199.61000000000001</ele>
        <time>2023-09-01T18:16:53Z</time>
      </trkpt>
      <trkpt lat="56.440054038539529" lon="-4.355279970914125">
        <ele>200.56999999999999</ele>
        <time>2023-09-01T18:16:54Z</time>
      </trkpt>
      <trkpt lat="56.440005004405975" lon="-4.355037985369563">
        <ele>201.05000000000001</ele>
        <time>2023-09-01T18:16:55Z</time>
      </trkpt>
      <trkpt lat="56.439609965309501" lon="-4.353492027148604">
        <ele>203.94</ele>
        <time>2023-09-01T18:17:01Z</time>
      </trkpt>
      <trkpt lat="56.439494965597987" lon="-4.353295974433422">
        <ele>203.94</ele>
        <time>2023-09-01T18:17:02Z</time>
      </trkpt>
      <trkpt lat="56.439365968108177" lon="-4.353094976395369">
        <ele>204.41999999999999</ele>
        <time>2023-09-01T18:17:03Z</time>
      </trkpt>
      <trkpt lat="56.438524005934596" lon="-4.351846994832158">
        <ele>210.19</ele>
        <time>2023-09-01T18:17:09Z</time>
      </trkpt>
      <trkpt lat="56.438377993181348" lon="-4.351637028157711">
        <ele>211.15000000000001</ele>
        <time>2023-09-01T18:17:10Z</time>
      </trkpt>
      <trkpt lat="56.438305992633104" lon="-4.351371992379427">
        <ele>213.06999999999999</ele>
        <time>2023-09-01T18:17:11Z</time>
      </trkpt>
      <trkpt lat="56.438227035105228" lon="-4.351077033206821">
        <ele>214.50999999999999</ele>
        <time>2023-09-01T18:17:12Z</time>
      </trkpt>
      <trkpt lat="56.438186969608068" lon="-4.350760029628873">
        <ele>216.43000000000001</ele>
        <time>2023-09-01T18:17:13Z</time>
      </trkpt>
      <trkpt lat="56.438144976273179" lon="-4.3504339735955">
        <ele>218.36000000000001</ele>
        <time>2023-09-01T18:17:14Z</time>
      </trkpt>
      <trkpt lat="56.437667962163687" lon="-4.346957998350263">
        <ele>227.97</ele>
        <time>2023-09-01T18:17:23Z</time>
      </trkpt>
      <trkpt lat="56.437390018254519" lon="-4.345036027953029">
        <ele>229.41</ele>
        <time>2023-09-01T18:17:28Z</time>
      </trkpt>
      <trkpt lat="56.437336960807443" lon="-4.344723969697952">
        <ele>229.41</ele>
        <time>2023-09-01T18:17:29Z</time>
      </trkpt>
      <trkpt lat="56.437238976359367" lon="-4.344498999416828">
        <ele>229.88999999999999</ele>
        <time>2023-09-01T18:17:30Z</time>
      </trkpt>
      <trkpt lat="56.437139986082911" lon="-4.344270005822182">
        <ele>230.37</ele>
        <time>2023-09-01T18:17:31Z</time>
      </trkpt>
      <trkpt lat="56.437017023563385" lon="-4.344042018055916">
        <ele>230.37</ele>
        <time>2023-09-01T18:17:32Z</time>
      </trkpt>
      <trkpt lat="56.436872016638517" lon="-4.343864992260933">
        <ele>230.37</ele>
        <time>2023-09-01T18:17:33Z</time>
      </trkpt>
      <trkpt lat="56.436721980571747" lon="-4.343681009486318">
        <ele>230.84999999999999</ele>
        <time>2023-09-01T18:17:34Z</time>
      </trkpt>
      <trkpt lat="56.43655601888895" lon="-4.343499038368464">
        <ele>230.84999999999999</ele>
        <time>2023-09-01T18:17:35Z</time>
      </trkpt>
      <trkpt lat="56.436371030285954" lon="-4.343374986201525">
        <ele>230.84999999999999</ele>
        <time>2023-09-01T18:17:36Z</time>
      </trkpt>
      <trkpt lat="56.436177995055914" lon="-4.343244982883334">
        <ele>231.33000000000001</ele>
        <time>2023-09-01T18:17:37Z</time>
      </trkpt>
      <trkpt lat="56.434809984639287" lon="-4.342383993789554">
        <ele>236.62</ele>
        <time>2023-09-01T18:17:45Z</time>
      </trkpt>
      <trkpt lat="56.432870998978615" lon="-4.34151797555387">
        <ele>247.68000000000001</ele>
        <time>2023-09-01T18:17:56Z</time>
      </trkpt>
      <trkpt lat="56.430705031380057" lon="-4.340649023652077">
        <ele>265.45999999999998</ele>
        <time>2023-09-01T18:18:08Z</time>
      </trkpt>
      <trkpt lat="56.429427964612842" lon="-4.340020967647433">
        <ele>274.58999999999997</ele>
        <time>2023-09-01T18:18:15Z</time>
      </trkpt>
      <trkpt lat="56.429240964353085" lon="-4.340016022324562">
        <ele>275.56</ele>
        <time>2023-09-01T18:18:16Z</time>
      </trkpt>
      <trkpt lat="56.428310992196202" lon="-4.340072013437748">
        <ele>280.36000000000001</ele>
        <time>2023-09-01T18:18:21Z</time>
      </trkpt>
      <trkpt lat="56.426628995686769" lon="-4.339821981266141">
        <ele>289.97000000000003</ele>
        <time>2023-09-01T18:18:30Z</time>
      </trkpt>
      <trkpt lat="56.426451969891787" lon="-4.33971201069653">
        <ele>291.42000000000002</ele>
        <time>2023-09-01T18:18:31Z</time>
      </trkpt>
      <trkpt lat="56.426282990723848" lon="-4.339592987671495">
        <ele>293.33999999999997</ele>
        <time>2023-09-01T18:18:32Z</time>
      </trkpt>
      <trkpt lat="56.425729030743241" lon="-4.339162996038795">
        <ele>298.63</ele>
        <time>2023-09-01T18:18:36Z</time>
      </trkpt>
      <trkpt lat="56.425011036917567" lon="-4.338751025497913">
        <ele>303.43000000000001</ele>
        <time>2023-09-01T18:18:41Z</time>
      </trkpt>
      <trkpt lat="56.423606984317303" lon="-4.338423041626811">
        <ele>307.75999999999999</ele>
        <time>2023-09-01T18:18:49Z</time>
      </trkpt>
      <trkpt lat="56.423463989049196" lon="-4.338354980573058">
        <ele>308.24000000000001</ele>
        <time>2023-09-01T18:18:50Z</time>
      </trkpt>
      <trkpt lat="56.423305990174413" lon="-4.338196981698275">
        <ele>308.24000000000001</ele>
        <time>2023-09-01T18:18:51Z</time>
      </trkpt>
      <trkpt lat="56.423147991299629" lon="-4.338037976995111">
        <ele>308.72000000000003</ele>
        <time>2023-09-01T18:18:52Z</time>
      </trkpt>
      <trkpt lat="56.421884000301361" lon="-4.336754959076643">
        <ele>308.72000000000003</ele>
        <time>2023-09-01T18:18:59Z</time>
      </trkpt>
      <trkpt lat="56.421718960627913" lon="-4.336536023765802">
        <ele>308.24000000000001</ele>
        <time>2023-09-01T18:19:00Z</time>
      </trkpt>
      <trkpt lat="56.420275010168552" lon="-4.334441972896457">
        <ele>307.75999999999999</ele>
        <time>2023-09-01T18:19:10Z</time>
      </trkpt>
      <trkpt lat="56.419398011639714" lon="-4.333301028236747">
        <ele>309.19999999999999</ele>
        <time>2023-09-01T18:19:16Z</time>
      </trkpt>
      <trkpt lat="56.41913297586143" lon="-4.332957034930587">
        <ele>310.16000000000003</ele>
        <time>2023-09-01T18:19:18Z</time>
      </trkpt>
      <trkpt lat="56.41900397837162" lon="-4.332810016348958">
        <ele>310.16000000000003</ele>
        <time>2023-09-01T18:19:19Z</time>
      </trkpt>
      <trkpt lat="56.418857965618372" lon="-4.332699961960316">
        <ele>310.16000000000003</ele>
        <time>2023-09-01T18:19:20Z</time>
      </trkpt>
      <trkpt lat="56.418712958693504" lon="-4.332589991390705">
        <ele>310.16000000000003</ele>
        <time>2023-09-01T18:19:21Z</time>
      </trkpt>
      <trkpt lat="56.418567029759288" lon="-4.332480020821095">
        <ele>310.16000000000003</ele>
        <time>2023-09-01T18:19:22Z</time>
      </trkpt>
      <trkpt lat="56.418427973985672" lon="-4.332374995574355">
        <ele>309.68000000000001</ele>
        <time>2023-09-01T18:19:23Z</time>
      </trkpt>
      <trkpt lat="56.418298976495862" lon="-4.33227701112628">
        <ele>309.19999999999999</ele>
        <time>2023-09-01T18:19:24Z</time>
      </trkpt>
      <trkpt lat="56.418179031461477" lon="-4.332185983657837">
        <ele>309.19999999999999</ele>
        <time>2023-09-01T18:19:25Z</time>
      </trkpt>
      <trkpt lat="56.418092027306557" lon="-4.331979034468532">
        <ele>309.19999999999999</ele>
        <time>2023-09-01T18:19:26Z</time>
      </trkpt>
      <trkpt lat="56.418019020929933" lon="-4.331781975924969">
        <ele>308.72000000000003</ele>
        <time>2023-09-01T18:19:27Z</time>
      </trkpt>
      <trkpt lat="56.417974010109901" lon="-4.331543007865548">
        <ele>308.24000000000001</ele>
        <time>2023-09-01T18:19:28Z</time>
      </trkpt>
      <trkpt lat="56.417930005118251" lon="-4.331300016492605">
        <ele>307.75999999999999</ele>
        <time>2023-09-01T18:19:29Z</time>
      </trkpt>
      <trkpt lat="56.417648959904909" lon="-4.329751040786505">
        <ele>304.38999999999999</ele>
        <time>2023-09-01T18:19:35Z</time>
      </trkpt>
      <trkpt lat="56.417549969628453" lon="-4.329535039141774">
        <ele>303.43000000000001</ele>
        <time>2023-09-01T18:19:36Z</time>
      </trkpt>
      <trkpt lat="56.417444022372365" lon="-4.329303028061986">
        <ele>302.47000000000003</ele>
        <time>2023-09-01T18:19:37Z</time>
      </trkpt>
      <trkpt lat="56.417316030710936" lon="-4.329100018367171">
        <ele>301.50999999999999</ele>
        <time>2023-09-01T18:19:38Z</time>
      </trkpt>
      <trkpt lat="56.417172029614449" lon="-4.328900026157498">
        <ele>300.55000000000001</ele>
        <time>2023-09-01T18:19:39Z</time>
      </trkpt>
      <trkpt lat="56.415916001424193" lon="-4.327147034928203">
        <ele>293.33999999999997</ele>
        <time>2023-09-01T18:19:47Z</time>
      </trkpt>
      <trkpt lat="56.414821995422244" lon="-4.325394965708256">
        <ele>284.69</ele>
        <time>2023-09-01T18:19:54Z</time>
      </trkpt>
      <trkpt lat="56.414709007367492" lon="-4.32510101236403">
        <ele>283.73000000000002</ele>
        <time>2023-09-01T18:19:55Z</time>
      </trkpt>
      <trkpt lat="56.413915995508432" lon="-4.323247019201517">
        <ele>275.56</ele>
        <time>2023-09-01T18:20:02Z</time>
      </trkpt>
      <trkpt lat="56.411954965442419" lon="-4.319597035646439">
        <ele>254.41</ele>
        <time>2023-09-01T18:20:17Z</time>
      </trkpt>
      <trkpt lat="56.411557998508215" lon="-4.318480985239148">
        <ele>252</ele>
        <time>2023-09-01T18:20:21Z</time>
      </trkpt>
      <trkpt lat="56.411469988524914" lon="-4.31816297583282">
        <ele>251.52000000000001</ele>
        <time>2023-09-01T18:20:22Z</time>
      </trkpt>
      <trkpt lat="56.411436041817069" lon="-4.317902969196439">
        <ele>250.56</ele>
        <time>2023-09-01T18:20:23Z</time>
      </trkpt>
      <trkpt lat="56.41098802909255" lon="-4.315622001886368">
        <ele>242.87</ele>
        <time>2023-09-01T18:20:30Z</time>
      </trkpt>
      <trkpt lat="56.41047497279942" lon="-4.313817964866757">
        <ele>235.18000000000001</ele>
        <time>2023-09-01T18:20:36Z</time>
      </trkpt>
      <trkpt lat="56.410390986129642" lon="-4.313506996259093">
        <ele>233.74000000000001</ele>
        <time>2023-09-01T18:20:37Z</time>
      </trkpt>
      <trkpt lat="56.409652959555387" lon="-4.311549989506602">
        <ele>225.09</ele>
        <time>2023-09-01T18:20:44Z</time>
      </trkpt>
      <trkpt lat="56.408335994929075" lon="-4.309140024706721">
        <ele>213.06999999999999</ele>
        <time>2023-09-01T18:20:54Z</time>
      </trkpt>
      <trkpt lat="56.407236959785223" lon="-4.307808978483081">
        <ele>202.97999999999999</ele>
        <time>2023-09-01T18:21:01Z</time>
      </trkpt>
      <trkpt lat="56.405996019020677" lon="-4.306252039968967">
        <ele>188.56</ele>
        <time>2023-09-01T18:21:09Z</time>
      </trkpt>
      <trkpt lat="56.404718030244112" lon="-4.305028030648828">
        <ele>175.58000000000001</ele>
        <time>2023-09-01T18:21:17Z</time>
      </trkpt>
      <trkpt lat="56.40454201027751" lon="-4.304956030100584">
        <ele>174.62</ele>
        <time>2023-09-01T18:21:18Z</time>
      </trkpt>
      <trkpt lat="56.403463007882237" lon="-4.304413972422481">
        <ele>166.44999999999999</ele>
        <time>2023-09-01T18:21:24Z</time>
      </trkpt>
      <trkpt lat="56.401748992502689" lon="-4.30307898670435">
        <ele>154.43000000000001</ele>
        <time>2023-09-01T18:21:34Z</time>
      </trkpt>
      <trkpt lat="56.401593005284667" lon="-4.302891986444593">
        <ele>152.99000000000001</ele>
        <time>2023-09-01T18:21:35Z</time>
      </trkpt>
      <trkpt lat="56.401443975046277" lon="-4.30271303281188">
        <ele>152.03</ele>
        <time>2023-09-01T18:21:36Z</time>
      </trkpt>
      <trkpt lat="56.401298968121409" lon="-4.302518991753459">
        <ele>150.58000000000001</ele>
        <time>2023-09-01T18:21:37Z</time>
      </trkpt>
      <trkpt lat="56.401187991723418" lon="-4.302281029522419">
        <ele>149.62</ele>
        <time>2023-09-01T18:21:38Z</time>
      </trkpt>
      <trkpt lat="56.401075003668666" lon="-4.302040971815586">
        <ele>148.66</ele>
        <time>2023-09-01T18:21:39Z</time>
      </trkpt>
      <trkpt lat="56.400967966765165" lon="-4.301765039563179">
        <ele>148.18000000000001</ele>
        <time>2023-09-01T18:21:40Z</time>
      </trkpt>
      <trkpt lat="56.400886997580528" lon="-4.30146798491478">
        <ele>147.22</ele>
        <time>2023-09-01T18:21:41Z</time>
      </trkpt>
      <trkpt lat="56.400719024240971" lon="-4.3008469697088">
        <ele>144.81999999999999</ele>
        <time>2023-09-01T18:21:43Z</time>
      </trkpt>
      <trkpt lat="56.400618022307754" lon="-4.300599033012986">
        <ele>143.84999999999999</ele>
        <time>2023-09-01T18:21:44Z</time>
      </trkpt>
      <trkpt lat="56.400500005111098" lon="-4.300338020548224">
        <ele>142.88999999999999</ele>
        <time>2023-09-01T18:21:45Z</time>
      </trkpt>
      <trkpt lat="56.400351980701089" lon="-4.300126964226365">
        <ele>142.41</ele>
        <time>2023-09-01T18:21:46Z</time>
      </trkpt>
      <trkpt lat="56.400204040110111" lon="-4.299915991723537">
        <ele>141.93000000000001</ele>
        <time>2023-09-01T18:21:47Z</time>
      </trkpt>
      <trkpt lat="56.399271972477436" lon="-4.298785021528602">
        <ele>139.53</ele>
        <time>2023-09-01T18:21:53Z</time>
      </trkpt>
      <trkpt lat="56.399136018007994" lon="-4.298587962985039">
        <ele>139.05000000000001</ele>
        <time>2023-09-01T18:21:54Z</time>
      </trkpt>
      <trkpt lat="56.398465968668461" lon="-4.297410976141691">
        <ele>138.56999999999999</ele>
        <time>2023-09-01T18:21:59Z</time>
      </trkpt>
      <trkpt lat="56.398307969793677" lon="-4.297227999195457">
        <ele>138.09</ele>
        <time>2023-09-01T18:22:00Z</time>
      </trkpt>
      <trkpt lat="56.397830033674836" lon="-4.296713015064597">
        <ele>137.13</ele>
        <time>2023-09-01T18:22:03Z</time>
      </trkpt>
      <trkpt lat="56.395526016131043" lon="-4.295030012726784">
        <ele>133.28</ele>
        <time>2023-09-01T18:22:16Z</time>
      </trkpt>
      <trkpt lat="56.394104026257992" lon="-4.294128036126494">
        <ele>131.36000000000001</ele>
        <time>2023-09-01T18:22:24Z</time>
      </trkpt>
      <trkpt lat="56.393253011628985" lon="-4.293684968724847">
        <ele>131.84</ele>
        <time>2023-09-01T18:22:29Z</time>
      </trkpt>
      <trkpt lat="56.39311102218926" lon="-4.293566029518843">
        <ele>131.84</ele>
        <time>2023-09-01T18:22:30Z</time>
      </trkpt>
      <trkpt lat="56.39298596419394" lon="-4.293442983180285">
        <ele>131.84</ele>
        <time>2023-09-01T18:22:31Z</time>
      </trkpt>
      <trkpt lat="56.392861995846033" lon="-4.293263023719192">
        <ele>131.84</ele>
        <time>2023-09-01T18:22:32Z</time>
      </trkpt>
      <trkpt lat="56.392736015841365" lon="-4.293081974610686">
        <ele>131.84</ele>
        <time>2023-09-01T18:22:33Z</time>
      </trkpt>
      <trkpt lat="56.392040988430381" lon="-4.292095005512238">
        <ele>131.36000000000001</ele>
        <time>2023-09-01T18:22:38Z</time>
      </trkpt>
      <trkpt lat="56.391876032575965" lon="-4.291948992758989">
        <ele>130.88</ele>
        <time>2023-09-01T18:22:39Z</time>
      </trkpt>
      <trkpt lat="56.391705963760614" lon="-4.291818989440799">
        <ele>130.40000000000001</ele>
        <time>2023-09-01T18:22:40Z</time>
      </trkpt>
      <trkpt lat="56.391514018177986" lon="-4.291737014427781">
        <ele>129.91999999999999</ele>
        <time>2023-09-01T18:22:41Z</time>
      </trkpt>
      <trkpt lat="56.391322994604707" lon="-4.291685968637466">
        <ele>129.43000000000001</ele>
        <time>2023-09-01T18:22:42Z</time>
      </trkpt>
      <trkpt lat="56.389572015032172" lon="-4.291264023631811">
        <ele>124.63</ele>
        <time>2023-09-01T18:22:51Z</time>
      </trkpt>
      <trkpt lat="56.389030963182449" lon="-4.291138965636492">
        <ele>122.70999999999999</ele>
        <time>2023-09-01T18:22:54Z</time>
      </trkpt>
      <trkpt lat="56.388875981792808" lon="-4.291093032807112">
        <ele>121.73999999999999</ele>
        <time>2023-09-01T18:22:55Z</time>
      </trkpt>
      <trkpt lat="56.388264019042253" lon="-4.290901003405452">
        <ele>116.45999999999999</ele>
        <time>2023-09-01T18:22:59Z</time>
      </trkpt>
      <trkpt lat="56.388152036815882" lon="-4.290774017572403">
        <ele>115.5</ele>
        <time>2023-09-01T18:23:00Z</time>
      </trkpt>
      <trkpt lat="56.388044999912381" lon="-4.290649965405464">
        <ele>114.53</ele>
        <time>2023-09-01T18:23:01Z</time>
      </trkpt>
      <trkpt lat="56.387951038777828" lon="-4.29051099345088">
        <ele>113.56999999999999</ele>
        <time>2023-09-01T18:23:02Z</time>
      </trkpt>
      <trkpt lat="56.387883983552456" lon="-4.290342014282942">
        <ele>113.09</ele>
        <time>2023-09-01T18:23:03Z</time>
      </trkpt>
      <trkpt lat="56.387436976656318" lon="-4.289055978879333">
        <ele>108.29000000000001</ele>
        <time>2023-09-01T18:23:10Z</time>
      </trkpt>
      <trkpt lat="56.387281995266676" lon="-4.288710979744792">
        <ele>106.84</ele>
        <time>2023-09-01T18:23:12Z</time>
      </trkpt>
      <trkpt lat="56.386976977810264" lon="-4.288333039730787">
        <ele>105.88</ele>
        <time>2023-09-01T18:23:15Z</time>
      </trkpt>
      <trkpt lat="56.386867007240653" lon="-4.288241006433964">
        <ele>105.40000000000001</ele>
        <time>2023-09-01T18:23:16Z</time>
      </trkpt>
      <trkpt lat="56.385559011250734" lon="-4.287473978474736">
        <ele>104.44</ele>
        <time>2023-09-01T18:23:27Z</time>
      </trkpt>
      <trkpt lat="56.38496900908649" lon="-4.287162004038692">
        <ele>104.44</ele>
        <time>2023-09-01T18:23:32Z</time>
      </trkpt>
      <trkpt lat="56.384856021031737" lon="-4.287099977955222">
        <ele>104.44</ele>
        <time>2023-09-01T18:23:33Z</time>
      </trkpt>
      <trkpt lat="56.384736998006701" lon="-4.287035018205643">
        <ele>104.44</ele>
        <time>2023-09-01T18:23:34Z</time>
      </trkpt>
      <trkpt lat="56.384029984474182" lon="-4.28668700158596">
        <ele>103</ele>
        <time>2023-09-01T18:23:40Z</time>
      </trkpt>
      <trkpt lat="56.383911967277527" lon="-4.286667974665761">
        <ele>102.52</ele>
        <time>2023-09-01T18:23:41Z</time>
      </trkpt>
      <trkpt lat="56.383792022243142" lon="-4.286676021292806">
        <ele>102.04000000000001</ele>
        <time>2023-09-01T18:23:42Z</time>
      </trkpt>
      <trkpt lat="56.382425017654896" lon="-4.28679496049881">
        <ele>101.08</ele>
        <time>2023-09-01T18:23:53Z</time>
      </trkpt>
      <trkpt lat="56.381086008623242" lon="-4.286774005740881">
        <ele>102.04000000000001</ele>
        <time>2023-09-01T18:24:04Z</time>
      </trkpt>
      <trkpt lat="56.379868034273386" lon="-4.286120971664786">
        <ele>101.08</ele>
        <time>2023-09-01T18:24:13Z</time>
      </trkpt>
      <trkpt lat="56.378239011391997" lon="-4.285285966470838">
        <ele>103</ele>
        <time>2023-09-01T18:24:22Z</time>
      </trkpt>
      <trkpt lat="56.377699971199036" lon="-4.285311028361321">
        <ele>103.95999999999999</ele>
        <time>2023-09-01T18:24:25Z</time>
      </trkpt>
      <trkpt lat="56.377526968717575" lon="-4.285370958968997">
        <ele>103.95999999999999</ele>
        <time>2023-09-01T18:24:26Z</time>
      </trkpt>
      <trkpt lat="56.377351032570004" lon="-4.285430973395705">
        <ele>104.44</ele>
        <time>2023-09-01T18:24:27Z</time>
      </trkpt>
      <trkpt lat="56.37717199511826" lon="-4.285492999479175">
        <ele>104.44</ele>
        <time>2023-09-01T18:24:28Z</time>
      </trkpt>
      <trkpt lat="56.377003015950322" lon="-4.285609005019069">
        <ele>104.92</ele>
        <time>2023-09-01T18:24:29Z</time>
      </trkpt>
      <trkpt lat="56.376834036782384" lon="-4.285741019994021">
        <ele>105.40000000000001</ele>
        <time>2023-09-01T18:24:30Z</time>
      </trkpt>
      <trkpt lat="56.37667503207922" lon="-4.285888960584998">
        <ele>105.40000000000001</ele>
        <time>2023-09-01T18:24:31Z</time>
      </trkpt>
      <trkpt lat="56.375592006370425" lon="-4.287441037595272">
        <ele>106.36</ele>
        <time>2023-09-01T18:24:38Z</time>
      </trkpt>
      <trkpt lat="56.373943034559488" lon="-4.290524991229177">
        <ele>112.61</ele>
        <time>2023-09-01T18:24:49Z</time>
      </trkpt>
      <trkpt lat="56.37263503856957" lon="-4.292936967685819">
        <ele>118.86</ele>
        <time>2023-09-01T18:24:57Z</time>
      </trkpt>
      <trkpt lat="56.370718013495207" lon="-4.295712970197201">
        <ele>127.51000000000001</ele>
        <time>2023-09-01T18:25:07Z</time>
      </trkpt>
      <trkpt lat="56.368343001231551" lon="-4.298317981883884">
        <ele>138.56999999999999</ele>
        <time>2023-09-01T18:25:18Z</time>
      </trkpt>
      <trkpt lat="56.366478027775884" lon="-4.299735026434064">
        <ele>145.78</ele>
        <time>2023-09-01T18:25:26Z</time>
      </trkpt>
      <trkpt lat="56.365887019783258" lon="-4.300128975883126">
        <ele>148.18000000000001</ele>
        <time>2023-09-01T18:25:29Z</time>
      </trkpt>
      <trkpt lat="56.365724997594953" lon="-4.300336008891463">
        <ele>149.13999999999999</ele>
        <time>2023-09-01T18:25:30Z</time>
      </trkpt>
      <trkpt lat="56.365557024255395" lon="-4.300560979172587">
        <ele>150.09999999999999</ele>
        <time>2023-09-01T18:25:31Z</time>
      </trkpt>
      <trkpt lat="56.3637850061059" lon="-4.303010003641248">
        <ele>154.91</ele>
        <time>2023-09-01T18:25:41Z</time>
      </trkpt>
      <trkpt lat="56.362980008125305" lon="-4.304150026291609">
        <ele>155.87</ele>
        <time>2023-09-01T18:25:46Z</time>
      </trkpt>
      <trkpt lat="56.362718995660543" lon="-4.30451899766922">
        <ele>157.31</ele>
        <time>2023-09-01T18:25:48Z</time>
      </trkpt>
      <trkpt lat="56.361532034352422" lon="-4.306262014433742">
        <ele>161.63999999999999</ele>
        <time>2023-09-01T18:25:57Z</time>
      </trkpt>
      <trkpt lat="56.360914958640933" lon="-4.307735972106457">
        <ele>163.08000000000001</ele>
        <time>2023-09-01T18:26:03Z</time>
      </trkpt>
      <trkpt lat="56.360066961497068" lon="-4.310518009588122">
        <ele>161.16</ele>
        <time>2023-09-01T18:26:13Z</time>
      </trkpt>
      <trkpt lat="56.359508978202939" lon="-4.312728988006711">
        <ele>157.31</ele>
        <time>2023-09-01T18:26:21Z</time>
      </trkpt>
      <trkpt lat="56.359287025406957" lon="-4.313590982928872">
        <ele>155.87</ele>
        <time>2023-09-01T18:26:24Z</time>
      </trkpt>
      <trkpt lat="56.359198009595275" lon="-4.31384596042335">
        <ele>154.91</ele>
        <time>2023-09-01T18:26:25Z</time>
      </trkpt>
      <trkpt lat="56.359076974913478" lon="-4.314074032008648">
        <ele>154.43000000000001</ele>
        <time>2023-09-01T18:26:26Z</time>
      </trkpt>
      <trkpt lat="56.358959963545203" lon="-4.31429497897625">
        <ele>153.47</ele>
        <time>2023-09-01T18:26:27Z</time>
      </trkpt>
      <trkpt lat="56.358841024339199" lon="-4.314517015591264">
        <ele>152.50999999999999</ele>
        <time>2023-09-01T18:26:28Z</time>
      </trkpt>
      <trkpt lat="56.357482988387346" lon="-4.317394020035863">
        <ele>145.30000000000001</ele>
        <time>2023-09-01T18:26:40Z</time>
      </trkpt>
      <trkpt lat="56.35682400316" lon="-4.319696025922895">
        <ele>142.88999999999999</ele>
        <time>2023-09-01T18:26:48Z</time>
      </trkpt>
      <trkpt lat="56.355966031551361" lon="-4.322185032069683">
        <ele>142.41</ele>
        <time>2023-09-01T18:26:57Z</time>
      </trkpt>
      <trkpt lat="56.354519985616207" lon="-4.324967991560698">
        <ele>141.44999999999999</ele>
        <time>2023-09-01T18:27:08Z</time>
      </trkpt>
      <trkpt lat="56.353034963831306" lon="-4.327273014932871">
        <ele>143.37</ele>
        <time>2023-09-01T18:27:18Z</time>
      </trkpt>
      <trkpt lat="56.351532004773617" lon="-4.328411025926471">
        <ele>144.34</ele>
        <time>2023-09-01T18:27:25Z</time>
      </trkpt>
      <trkpt lat="56.350016975775361" lon="-4.328380012884736">
        <ele>143.37</ele>
        <time>2023-09-01T18:27:31Z</time>
      </trkpt>
      <trkpt lat="56.346936039626598" lon="-4.327732007950544">
        <ele>141.44999999999999</ele>
        <time>2023-09-01T18:27:43Z</time>
      </trkpt>
      <trkpt lat="56.34520199149847" lon="-4.327225992456079">
        <ele>139.53</ele>
        <time>2023-09-01T18:27:51Z</time>
      </trkpt>
      <trkpt lat="56.342919012531638" lon="-4.326645964756608">
        <ele>140.97</ele>
        <time>2023-09-01T18:28:02Z</time>
      </trkpt>
      <trkpt lat="56.341298958286643" lon="-4.326031990349293">
        <ele>146.74000000000001</ele>
        <time>2023-09-01T18:28:11Z</time>
      </trkpt>
      <trkpt lat="56.341116987168789" lon="-4.325983040034771">
        <ele>147.22</ele>
        <time>2023-09-01T18:28:12Z</time>
      </trkpt>
      <trkpt lat="56.339385034516454" lon="-4.325601998716593">
        <ele>148.18000000000001</ele>
        <time>2023-09-01T18:28:21Z</time>
      </trkpt>
      <trkpt lat="56.337967989966273" lon="-4.325329000130296">
        <ele>148.18000000000001</ele>
        <time>2023-09-01T18:28:28Z</time>
      </trkpt>
      <trkpt lat="56.337412018328905" lon="-4.325086008757353">
        <ele>146.74000000000001</ele>
        <time>2023-09-01T18:28:31Z</time>
      </trkpt>
      <trkpt lat="56.335912998765707" lon="-4.324457030743361">
        <ele>141.93000000000001</ele>
        <time>2023-09-01T18:28:39Z</time>
      </trkpt>
      <trkpt lat="56.333993040025234" lon="-4.323936011642218">
        <ele>135.19999999999999</ele>
        <time>2023-09-01T18:28:50Z</time>
      </trkpt>
      <trkpt lat="56.332943039014935" lon="-4.324183026328683">
        <ele>133.28</ele>
        <time>2023-09-01T18:28:57Z</time>
      </trkpt>
      <trkpt lat="56.331069013103843" lon="-4.324682001024485">
        <ele>134.24000000000001</ele>
        <time>2023-09-01T18:29:10Z</time>
      </trkpt>
      <trkpt lat="56.329745007678866" lon="-4.325052984058857">
        <ele>135.19999999999999</ele>
        <time>2023-09-01T18:29:20Z</time>
      </trkpt>
      <trkpt lat="56.328627029433846" lon="-4.325797967612743">
        <ele>136.63999999999999</ele>
        <time>2023-09-01T18:29:30Z</time>
      </trkpt>
      <trkpt lat="56.327133039012551" lon="-4.327346021309495">
        <ele>134.72</ele>
        <time>2023-09-01T18:29:45Z</time>
      </trkpt>
      <trkpt lat="56.326115978881717" lon="-4.328138027340174">
        <ele>134.24000000000001</ele>
        <time>2023-09-01T18:29:55Z</time>
      </trkpt>
      <trkpt lat="56.325200004503131" lon="-4.328701961785555">
        <ele>134.24000000000001</ele>
        <time>2023-09-01T18:30:05Z</time>
      </trkpt>
      <trkpt lat="56.325166979804635" lon="-4.328720988705754">
        <ele>134.24000000000001</ele>
        <time>2023-09-01T18:30:06Z</time>
      </trkpt>
      <trkpt lat="56.325177038088441" lon="-4.328814027830958">
        <ele>134.24000000000001</ele>
        <time>2023-09-01T18:30:07Z</time>
      </trkpt>
      <trkpt lat="56.325183995068073" lon="-4.328884016722441">
        <ele>134.24000000000001</ele>
        <time>2023-09-01T18:30:08Z</time>
      </trkpt>
      <trkpt lat="56.325202016159892" lon="-4.329052995890379">
        <ele>134.24000000000001</ele>
        <time>2023-09-01T18:30:10Z</time>
      </trkpt>
      <trkpt lat="56.325249960646033" lon="-4.329654984176159">
        <ele>134.24000000000001</ele>
        <time>2023-09-01T18:30:15Z</time>
      </trkpt>
      <trkpt lat="56.325346017256379" lon="-4.330472974106669">
        <ele>134.24000000000001</ele>
        <time>2023-09-01T18:30:21Z</time>
      </trkpt>
      <trkpt lat="56.325439978390932" lon="-4.330858960747719">
        <ele>133.75999999999999</ele>
        <time>2023-09-01T18:30:24Z</time>
      </trkpt>
      <trkpt lat="56.325470991432667" lon="-4.33098703622818">
        <ele>133.75999999999999</ele>
        <time>2023-09-01T18:30:25Z</time>
      </trkpt>
      <trkpt lat="56.325502004474401" lon="-4.331106981262565">
        <ele>133.28</ele>
        <time>2023-09-01T18:30:26Z</time>
      </trkpt>
      <trkpt lat="56.325535029172897" lon="-4.331216029822826">
        <ele>133.28</ele>
        <time>2023-09-01T18:30:27Z</time>
      </trkpt>
      <trkpt lat="56.325567970052361" lon="-4.331330023705959">
        <ele>133.28</ele>
        <time>2023-09-01T18:30:28Z</time>
      </trkpt>
      <trkpt lat="56.325633013620973" lon="-4.331552982330322">
        <ele>133.28</ele>
        <time>2023-09-01T18:30:30Z</time>
      </trkpt>
      <trkpt lat="56.325664026662707" lon="-4.331658007577062">
        <ele>133.28</ele>
        <time>2023-09-01T18:30:31Z</time>
      </trkpt>
      <trkpt lat="56.325693028047681" lon="-4.331756997853518">
        <ele>133.28</ele>
        <time>2023-09-01T18:30:32Z</time>
      </trkpt>
      <trkpt lat="56.325722029432654" lon="-4.331856993958354">
        <ele>133.28</ele>
        <time>2023-09-01T18:30:33Z</time>
      </trkpt>
      <trkpt lat="56.325746001675725" lon="-4.331938968971372">
        <ele>133.28</ele>
        <time>2023-09-01T18:30:34Z</time>
      </trkpt>
      <trkpt lat="56.325810961425304" lon="-4.332028990611434">
        <ele>133.28</ele>
        <time>2023-09-01T18:30:35Z</time>
      </trkpt>
      <trkpt lat="56.325861001387239" lon="-4.332097973674536">
        <ele>133.28</ele>
        <time>2023-09-01T18:30:36Z</time>
      </trkpt>
      <trkpt lat="56.325909029692411" lon="-4.332165028899908">
        <ele>133.28</ele>
        <time>2023-09-01T18:30:37Z</time>
      </trkpt>
      <trkpt lat="56.325951023027301" lon="-4.332222025841475">
        <ele>133.28</ele>
        <time>2023-09-01T18:30:38Z</time>
      </trkpt>
      <trkpt lat="56.325954040512443" lon="-4.332393016666174">
        <ele>133.28</ele>
        <time>2023-09-01T18:30:39Z</time>
      </trkpt>
      <trkpt lat="56.325924033299088" lon="-4.332422018051148">
        <ele>133.28</ele>
        <time>2023-09-01T18:30:40Z</time>
      </trkpt>
      <trkpt lat="56.325890002772212" lon="-4.332454036921263">
        <ele>133.75999999999999</ele>
        <time>2023-09-01T18:30:41Z</time>
      </trkpt>
      <trkpt lat="56.3258439861238" lon="-4.332497958093882">
        <ele>133.75999999999999</ele>
        <time>2023-09-01T18:30:42Z</time>
      </trkpt>
      <trkpt lat="56.325783971697092" lon="-4.33255503885448">
        <ele>133.75999999999999</ele>
        <time>2023-09-01T18:30:43Z</time>
      </trkpt>
      <trkpt lat="56.325417011976242" lon="-4.332785960286856">
        <ele>136.16</ele>
        <time>2023-09-01T18:30:48Z</time>
      </trkpt>
      <trkpt lat="56.32500403560698" lon="-4.332747990265489">
        <ele>139.05000000000001</ele>
        <time>2023-09-01T18:30:56Z</time>
      </trkpt>
      <trkpt lat="56.324936980381608" lon="-4.332728963345289">
        <ele>139.05000000000001</ele>
        <time>2023-09-01T18:30:57Z</time>
      </trkpt>
      <trkpt lat="56.324074985459447" lon="-4.332483038306236">
        <ele>137.13</ele>
        <time>2023-09-01T18:31:09Z</time>
      </trkpt>
      <trkpt lat="56.323688998818398" lon="-4.332372983917594">
        <ele>133.75999999999999</ele>
        <time>2023-09-01T18:31:19Z</time>
      </trkpt>
      <trkpt lat="56.323280967772007" lon="-4.332261001691222">
        <ele>132.31999999999999</ele>
        <time>2023-09-01T18:31:30Z</time>
      </trkpt>
    </trkseg>
  </trk>

</gpx>